<?xml version="1.0" encoding="UTF-8" standalone="no" ?>
<gpx xmlns="http://www.topografix.com/GPX/1/1" xmlns:xsi="http://www.w3.org/2001/XMLSchema-instance" xsi:schemaLocation="http://www.topografix.com/GPX/1/1 http://www.topografix.com/GPX/1/1/gpx.xsd" version="1.1" creator="VisuGPX - https://www.visugpx.com">
  <metadata>
    <name>French Divide VTT</name>
    <desc><![CDATA[1er jour en bikepacking sur la French Divide 2017]]></desc>
  </metadata>
  <trk>
    <name><![CDATA[2017-08-04 05:25:33 Jour]]></name>
    <trkseg>
      <trkpt lat="51.07929" lon="2.52382">
        <ele>10.23</ele>
        <time>2017-08-04T03:25:33Z</time>
      </trkpt>
      <trkpt lat="51.07929" lon="2.52382">
        <ele>10.23</ele>
        <time>2017-08-04T03:25:34Z</time>
      </trkpt>
      <trkpt lat="51.07939" lon="2.52381">
        <ele>10.23</ele>
        <time>2017-08-04T03:26:06Z</time>
      </trkpt>
      <trkpt lat="51.07939" lon="2.52381">
        <ele>10.23</ele>
        <time>2017-08-04T03:26:41Z</time>
      </trkpt>
      <trkpt lat="51.07938" lon="2.52382">
        <ele>10.23</ele>
        <time>2017-08-04T03:27:11Z</time>
      </trkpt>
      <trkpt lat="51.07938" lon="2.52381">
        <ele>10.23</ele>
        <time>2017-08-04T03:27:39Z</time>
      </trkpt>
      <trkpt lat="51.07937" lon="2.52379">
        <ele>10.23</ele>
        <time>2017-08-04T03:28:07Z</time>
      </trkpt>
      <trkpt lat="51.07934" lon="2.52378">
        <ele>10.23</ele>
        <time>2017-08-04T03:28:33Z</time>
      </trkpt>
      <trkpt lat="51.07936" lon="2.52377">
        <ele>9.75</ele>
        <time>2017-08-04T03:29:01Z</time>
      </trkpt>
      <trkpt lat="51.07937" lon="2.52381">
        <ele>9.75</ele>
        <time>2017-08-04T03:29:25Z</time>
      </trkpt>
      <trkpt lat="51.07937" lon="2.52377">
        <ele>9.75</ele>
        <time>2017-08-04T03:29:52Z</time>
      </trkpt>
      <trkpt lat="51.07937" lon="2.52377">
        <ele>9.75</ele>
        <time>2017-08-04T03:30:27Z</time>
      </trkpt>
      <trkpt lat="51.07939" lon="2.5238">
        <ele>9.75</ele>
        <time>2017-08-04T03:31:09Z</time>
      </trkpt>
      <trkpt lat="51.0794" lon="2.52383">
        <ele>9.75</ele>
        <time>2017-08-04T03:31:52Z</time>
      </trkpt>
      <trkpt lat="51.07941" lon="2.52376">
        <ele>9.27</ele>
        <time>2017-08-04T03:32:05Z</time>
      </trkpt>
      <trkpt lat="51.07939" lon="2.52377">
        <ele>7.83</ele>
        <time>2017-08-04T03:32:21Z</time>
      </trkpt>
      <trkpt lat="51.07941" lon="2.52377">
        <ele>7.83</ele>
        <time>2017-08-04T03:32:53Z</time>
      </trkpt>
      <trkpt lat="51.0794" lon="2.52376">
        <ele>7.83</ele>
        <time>2017-08-04T03:33:20Z</time>
      </trkpt>
      <trkpt lat="51.0794" lon="2.52378">
        <ele>11.19</ele>
        <time>2017-08-04T03:33:32Z</time>
      </trkpt>
      <trkpt lat="51.0794" lon="2.52377">
        <ele>9.75</ele>
        <time>2017-08-04T03:33:33Z</time>
      </trkpt>
      <trkpt lat="51.0794" lon="2.52377">
        <ele>9.75</ele>
        <time>2017-08-04T03:33:38Z</time>
      </trkpt>
      <trkpt lat="51.08213" lon="2.52427">
        <ele>11.19</ele>
        <time>2017-08-04T04:13:13Z</time>
      </trkpt>
      <trkpt lat="51.0824" lon="2.52435">
        <ele>11.19</ele>
        <time>2017-08-04T04:13:40Z</time>
      </trkpt>
      <trkpt lat="51.0824" lon="2.52435">
        <ele>11.19</ele>
        <time>2017-08-04T04:13:49Z</time>
      </trkpt>
      <trkpt lat="51.08238" lon="2.5244">
        <ele>11.67</ele>
        <time>2017-08-04T04:14:19Z</time>
      </trkpt>
      <trkpt lat="51.08239" lon="2.52435">
        <ele>11.67</ele>
        <time>2017-08-04T04:14:56Z</time>
      </trkpt>
      <trkpt lat="51.0824" lon="2.52434">
        <ele>11.67</ele>
        <time>2017-08-04T04:15:29Z</time>
      </trkpt>
      <trkpt lat="51.08241" lon="2.52435">
        <ele>12.15</ele>
        <time>2017-08-04T04:15:56Z</time>
      </trkpt>
      <trkpt lat="51.0824" lon="2.52438">
        <ele>12.15</ele>
        <time>2017-08-04T04:16:19Z</time>
      </trkpt>
      <trkpt lat="51.08242" lon="2.52436">
        <ele>12.15</ele>
        <time>2017-08-04T04:16:41Z</time>
      </trkpt>
      <trkpt lat="51.08241" lon="2.52435">
        <ele>12.15</ele>
        <time>2017-08-04T04:17:01Z</time>
      </trkpt>
      <trkpt lat="51.08239" lon="2.52437">
        <ele>12.15</ele>
        <time>2017-08-04T04:17:22Z</time>
      </trkpt>
      <trkpt lat="51.08242" lon="2.52434">
        <ele>12.63</ele>
        <time>2017-08-04T04:17:52Z</time>
      </trkpt>
      <trkpt lat="51.08242" lon="2.52435">
        <ele>12.63</ele>
        <time>2017-08-04T04:18:15Z</time>
      </trkpt>
      <trkpt lat="51.08241" lon="2.52436">
        <ele>11.67</ele>
        <time>2017-08-04T04:18:35Z</time>
      </trkpt>
      <trkpt lat="51.08241" lon="2.52436">
        <ele>11.67</ele>
        <time>2017-08-04T04:19:03Z</time>
      </trkpt>
      <trkpt lat="51.08241" lon="2.52433">
        <ele>11.67</ele>
        <time>2017-08-04T04:19:23Z</time>
      </trkpt>
      <trkpt lat="51.08243" lon="2.52435">
        <ele>12.63</ele>
        <time>2017-08-04T04:19:45Z</time>
      </trkpt>
      <trkpt lat="51.08241" lon="2.52439">
        <ele>12.63</ele>
        <time>2017-08-04T04:19:56Z</time>
      </trkpt>
      <trkpt lat="51.0824" lon="2.52439">
        <ele>12.63</ele>
        <time>2017-08-04T04:20:06Z</time>
      </trkpt>
      <trkpt lat="51.08238" lon="2.52439">
        <ele>12.63</ele>
        <time>2017-08-04T04:20:37Z</time>
      </trkpt>
      <trkpt lat="51.0824" lon="2.52439">
        <ele>12.63</ele>
        <time>2017-08-04T04:20:59Z</time>
      </trkpt>
      <trkpt lat="51.0824" lon="2.52436">
        <ele>12.63</ele>
        <time>2017-08-04T04:21:22Z</time>
      </trkpt>
      <trkpt lat="51.08243" lon="2.52433">
        <ele>12.63</ele>
        <time>2017-08-04T04:21:55Z</time>
      </trkpt>
      <trkpt lat="51.08238" lon="2.52438">
        <ele>11.19</ele>
        <time>2017-08-04T04:22:22Z</time>
      </trkpt>
      <trkpt lat="51.08239" lon="2.52436">
        <ele>11.19</ele>
        <time>2017-08-04T04:22:48Z</time>
      </trkpt>
      <trkpt lat="51.08237" lon="2.52438">
        <ele>11.19</ele>
        <time>2017-08-04T04:23:05Z</time>
      </trkpt>
      <trkpt lat="51.08237" lon="2.52438">
        <ele>11.67</ele>
        <time>2017-08-04T04:23:29Z</time>
      </trkpt>
      <trkpt lat="51.08239" lon="2.52435">
        <ele>11.67</ele>
        <time>2017-08-04T04:23:55Z</time>
      </trkpt>
      <trkpt lat="51.08236" lon="2.52424">
        <ele>11.67</ele>
        <time>2017-08-04T04:24:12Z</time>
      </trkpt>
      <trkpt lat="51.08217" lon="2.52353">
        <ele>11.19</ele>
        <time>2017-08-04T04:24:26Z</time>
      </trkpt>
      <trkpt lat="51.08192" lon="2.52267">
        <ele>11.19</ele>
        <time>2017-08-04T04:24:45Z</time>
      </trkpt>
      <trkpt lat="51.08167" lon="2.52175">
        <ele>11.19</ele>
        <time>2017-08-04T04:25:03Z</time>
      </trkpt>
      <trkpt lat="51.08142" lon="2.52091">
        <ele>12.15</ele>
        <time>2017-08-04T04:25:20Z</time>
      </trkpt>
      <trkpt lat="51.08111" lon="2.51983">
        <ele>12.15</ele>
        <time>2017-08-04T04:25:41Z</time>
      </trkpt>
      <trkpt lat="51.08095" lon="2.51935">
        <ele>10.71</ele>
        <time>2017-08-04T04:25:50Z</time>
      </trkpt>
      <trkpt lat="51.08093" lon="2.51929">
        <ele>10.71</ele>
        <time>2017-08-04T04:25:51Z</time>
      </trkpt>
      <trkpt lat="51.08092" lon="2.51923">
        <ele>10.71</ele>
        <time>2017-08-04T04:25:52Z</time>
      </trkpt>
      <trkpt lat="51.0809" lon="2.51917">
        <ele>10.71</ele>
        <time>2017-08-04T04:25:53Z</time>
      </trkpt>
      <trkpt lat="51.08089" lon="2.51912">
        <ele>10.71</ele>
        <time>2017-08-04T04:25:54Z</time>
      </trkpt>
      <trkpt lat="51.08065" lon="2.51821">
        <ele>10.71</ele>
        <time>2017-08-04T04:26:11Z</time>
      </trkpt>
      <trkpt lat="51.08031" lon="2.51709">
        <ele>10.71</ele>
        <time>2017-08-04T04:26:32Z</time>
      </trkpt>
      <trkpt lat="51.08007" lon="2.51629">
        <ele>11.67</ele>
        <time>2017-08-04T04:26:47Z</time>
      </trkpt>
      <trkpt lat="51.0799" lon="2.5159">
        <ele>11.67</ele>
        <time>2017-08-04T04:26:56Z</time>
      </trkpt>
      <trkpt lat="51.07983" lon="2.51588">
        <ele>11.67</ele>
        <time>2017-08-04T04:26:58Z</time>
      </trkpt>
      <trkpt lat="51.07979" lon="2.5159">
        <ele>11.67</ele>
        <time>2017-08-04T04:26:59Z</time>
      </trkpt>
      <trkpt lat="51.07976" lon="2.51592">
        <ele>11.67</ele>
        <time>2017-08-04T04:27:00Z</time>
      </trkpt>
      <trkpt lat="51.07973" lon="2.51593">
        <ele>11.67</ele>
        <time>2017-08-04T04:27:01Z</time>
      </trkpt>
      <trkpt lat="51.0797" lon="2.51594">
        <ele>11.67</ele>
        <time>2017-08-04T04:27:02Z</time>
      </trkpt>
      <trkpt lat="51.07926" lon="2.5162">
        <ele>12.15</ele>
        <time>2017-08-04T04:27:16Z</time>
      </trkpt>
      <trkpt lat="51.07906" lon="2.51621">
        <ele>12.15</ele>
        <time>2017-08-04T04:27:24Z</time>
      </trkpt>
      <trkpt lat="51.07903" lon="2.51617">
        <ele>12.15</ele>
        <time>2017-08-04T04:27:25Z</time>
      </trkpt>
      <trkpt lat="51.07902" lon="2.51613">
        <ele>12.15</ele>
        <time>2017-08-04T04:27:26Z</time>
      </trkpt>
      <trkpt lat="51.0789" lon="2.51557">
        <ele>12.15</ele>
        <time>2017-08-04T04:27:36Z</time>
      </trkpt>
      <trkpt lat="51.07885" lon="2.51538">
        <ele>12.15</ele>
        <time>2017-08-04T04:27:39Z</time>
      </trkpt>
      <trkpt lat="51.07874" lon="2.51492">
        <ele>12.15</ele>
        <time>2017-08-04T04:27:46Z</time>
      </trkpt>
      <trkpt lat="51.07873" lon="2.51488">
        <ele>12.15</ele>
        <time>2017-08-04T04:27:47Z</time>
      </trkpt>
      <trkpt lat="51.07872" lon="2.51482">
        <ele>12.15</ele>
        <time>2017-08-04T04:27:48Z</time>
      </trkpt>
      <trkpt lat="51.0785" lon="2.51391">
        <ele>12.15</ele>
        <time>2017-08-04T04:28:03Z</time>
      </trkpt>
      <trkpt lat="51.07844" lon="2.51366">
        <ele>12.15</ele>
        <time>2017-08-04T04:28:07Z</time>
      </trkpt>
      <trkpt lat="51.0784" lon="2.51346">
        <ele>12.15</ele>
        <time>2017-08-04T04:28:10Z</time>
      </trkpt>
      <trkpt lat="51.07832" lon="2.51317">
        <ele>12.15</ele>
        <time>2017-08-04T04:28:15Z</time>
      </trkpt>
      <trkpt lat="51.07829" lon="2.51314">
        <ele>12.15</ele>
        <time>2017-08-04T04:28:16Z</time>
      </trkpt>
      <trkpt lat="51.07824" lon="2.51313">
        <ele>12.15</ele>
        <time>2017-08-04T04:28:17Z</time>
      </trkpt>
      <trkpt lat="51.07821" lon="2.51313">
        <ele>12.15</ele>
        <time>2017-08-04T04:28:18Z</time>
      </trkpt>
      <trkpt lat="51.07816" lon="2.51315">
        <ele>12.15</ele>
        <time>2017-08-04T04:28:19Z</time>
      </trkpt>
      <trkpt lat="51.07812" lon="2.51316">
        <ele>12.15</ele>
        <time>2017-08-04T04:28:20Z</time>
      </trkpt>
      <trkpt lat="51.07728" lon="2.51349">
        <ele>10.71</ele>
        <time>2017-08-04T04:28:40Z</time>
      </trkpt>
      <trkpt lat="51.07656" lon="2.51377">
        <ele>9.75</ele>
        <time>2017-08-04T04:28:56Z</time>
      </trkpt>
      <trkpt lat="51.07592" lon="2.514">
        <ele>9.75</ele>
        <time>2017-08-04T04:29:12Z</time>
      </trkpt>
      <trkpt lat="51.07566" lon="2.51409">
        <ele>9.75</ele>
        <time>2017-08-04T04:29:18Z</time>
      </trkpt>
      <trkpt lat="51.07499" lon="2.51433">
        <ele>9.27</ele>
        <time>2017-08-04T04:29:34Z</time>
      </trkpt>
      <trkpt lat="51.07478" lon="2.51441">
        <ele>10.23</ele>
        <time>2017-08-04T04:29:39Z</time>
      </trkpt>
      <trkpt lat="51.07475" lon="2.51442">
        <ele>10.23</ele>
        <time>2017-08-04T04:29:40Z</time>
      </trkpt>
      <trkpt lat="51.07413" lon="2.51466">
        <ele>11.67</ele>
        <time>2017-08-04T04:29:56Z</time>
      </trkpt>
      <trkpt lat="51.07336" lon="2.51494">
        <ele>12.15</ele>
        <time>2017-08-04T04:30:16Z</time>
      </trkpt>
      <trkpt lat="51.07262" lon="2.51522">
        <ele>12.15</ele>
        <time>2017-08-04T04:30:34Z</time>
      </trkpt>
      <trkpt lat="51.07194" lon="2.51548">
        <ele>12.15</ele>
        <time>2017-08-04T04:30:50Z</time>
      </trkpt>
      <trkpt lat="51.07147" lon="2.51566">
        <ele>11.19</ele>
        <time>2017-08-04T04:31:01Z</time>
      </trkpt>
      <trkpt lat="51.07074" lon="2.51592">
        <ele>10.71</ele>
        <time>2017-08-04T04:31:18Z</time>
      </trkpt>
      <trkpt lat="51.0704" lon="2.51604">
        <ele>9.75</ele>
        <time>2017-08-04T04:31:26Z</time>
      </trkpt>
      <trkpt lat="51.07036" lon="2.51606">
        <ele>9.75</ele>
        <time>2017-08-04T04:31:27Z</time>
      </trkpt>
      <trkpt lat="51.07032" lon="2.51608">
        <ele>9.75</ele>
        <time>2017-08-04T04:31:28Z</time>
      </trkpt>
      <trkpt lat="51.0702" lon="2.51613">
        <ele>9.27</ele>
        <time>2017-08-04T04:31:36Z</time>
      </trkpt>
      <trkpt lat="51.06997" lon="2.51624">
        <ele>8.79</ele>
        <time>2017-08-04T04:31:48Z</time>
      </trkpt>
      <trkpt lat="51.06992" lon="2.51633">
        <ele>8.79</ele>
        <time>2017-08-04T04:31:50Z</time>
      </trkpt>
      <trkpt lat="51.06991" lon="2.51639">
        <ele>8.79</ele>
        <time>2017-08-04T04:31:51Z</time>
      </trkpt>
      <trkpt lat="51.06991" lon="2.51645">
        <ele>8.79</ele>
        <time>2017-08-04T04:31:52Z</time>
      </trkpt>
      <trkpt lat="51.06992" lon="2.51652">
        <ele>8.79</ele>
        <time>2017-08-04T04:31:53Z</time>
      </trkpt>
      <trkpt lat="51.06993" lon="2.5166">
        <ele>8.79</ele>
        <time>2017-08-04T04:31:54Z</time>
      </trkpt>
      <trkpt lat="51.07006" lon="2.51762">
        <ele>8.79</ele>
        <time>2017-08-04T04:32:10Z</time>
      </trkpt>
      <trkpt lat="51.07025" lon="2.51886">
        <ele>8.79</ele>
        <time>2017-08-04T04:32:29Z</time>
      </trkpt>
      <trkpt lat="51.07043" lon="2.5201">
        <ele>8.31</ele>
        <time>2017-08-04T04:32:47Z</time>
      </trkpt>
      <trkpt lat="51.07059" lon="2.52146">
        <ele>8.31</ele>
        <time>2017-08-04T04:33:07Z</time>
      </trkpt>
      <trkpt lat="51.07075" lon="2.52273">
        <ele>8.31</ele>
        <time>2017-08-04T04:33:25Z</time>
      </trkpt>
      <trkpt lat="51.07086" lon="2.52407">
        <ele>8.31</ele>
        <time>2017-08-04T04:33:42Z</time>
      </trkpt>
      <trkpt lat="51.07099" lon="2.52518">
        <ele>7.83</ele>
        <time>2017-08-04T04:33:58Z</time>
      </trkpt>
      <trkpt lat="51.07101" lon="2.52544">
        <ele>7.83</ele>
        <time>2017-08-04T04:34:02Z</time>
      </trkpt>
      <trkpt lat="51.0712" lon="2.52637">
        <ele>7.83</ele>
        <time>2017-08-04T04:34:15Z</time>
      </trkpt>
      <trkpt lat="51.07143" lon="2.52771">
        <ele>7.35</ele>
        <time>2017-08-04T04:34:33Z</time>
      </trkpt>
      <trkpt lat="51.07164" lon="2.52908">
        <ele>7.35</ele>
        <time>2017-08-04T04:34:52Z</time>
      </trkpt>
      <trkpt lat="51.07195" lon="2.53032">
        <ele>6.87</ele>
        <time>2017-08-04T04:35:09Z</time>
      </trkpt>
      <trkpt lat="51.07241" lon="2.53187">
        <ele>6.87</ele>
        <time>2017-08-04T04:35:31Z</time>
      </trkpt>
      <trkpt lat="51.07275" lon="2.53336">
        <ele>6.87</ele>
        <time>2017-08-04T04:35:50Z</time>
      </trkpt>
      <trkpt lat="51.07278" lon="2.53352">
        <ele>6.87</ele>
        <time>2017-08-04T04:35:52Z</time>
      </trkpt>
      <trkpt lat="51.07299" lon="2.53491">
        <ele>6.87</ele>
        <time>2017-08-04T04:36:10Z</time>
      </trkpt>
      <trkpt lat="51.07305" lon="2.53628">
        <ele>5.91</ele>
        <time>2017-08-04T04:36:26Z</time>
      </trkpt>
      <trkpt lat="51.07322" lon="2.53767">
        <ele>5.91</ele>
        <time>2017-08-04T04:36:42Z</time>
      </trkpt>
      <trkpt lat="51.07342" lon="2.53905">
        <ele>5.91</ele>
        <time>2017-08-04T04:36:59Z</time>
      </trkpt>
      <trkpt lat="51.07355" lon="2.54058">
        <ele>5.91</ele>
        <time>2017-08-04T04:37:17Z</time>
      </trkpt>
      <trkpt lat="51.07357" lon="2.54066">
        <ele>5.91</ele>
        <time>2017-08-04T04:37:18Z</time>
      </trkpt>
      <trkpt lat="51.07379" lon="2.54221">
        <ele>5.91</ele>
        <time>2017-08-04T04:37:37Z</time>
      </trkpt>
      <trkpt lat="51.074" lon="2.54377">
        <ele>5.91</ele>
        <time>2017-08-04T04:37:57Z</time>
      </trkpt>
      <trkpt lat="51.07423" lon="2.54522">
        <ele>5.91</ele>
        <time>2017-08-04T04:38:16Z</time>
      </trkpt>
      <trkpt lat="51.07439" lon="2.54664">
        <ele>5.91</ele>
        <time>2017-08-04T04:38:33Z</time>
      </trkpt>
      <trkpt lat="51.07455" lon="2.54829">
        <ele>5.91</ele>
        <time>2017-08-04T04:38:53Z</time>
      </trkpt>
      <trkpt lat="51.07473" lon="2.5496">
        <ele>5.91</ele>
        <time>2017-08-04T04:39:09Z</time>
      </trkpt>
      <trkpt lat="51.07499" lon="2.55105">
        <ele>5.91</ele>
        <time>2017-08-04T04:39:27Z</time>
      </trkpt>
      <trkpt lat="51.07527" lon="2.55263">
        <ele>5.91</ele>
        <time>2017-08-04T04:39:47Z</time>
      </trkpt>
      <trkpt lat="51.07549" lon="2.55386">
        <ele>5.42</ele>
        <time>2017-08-04T04:40:03Z</time>
      </trkpt>
      <trkpt lat="51.07563" lon="2.55444">
        <ele>5.42</ele>
        <time>2017-08-04T04:40:10Z</time>
      </trkpt>
      <trkpt lat="51.07578" lon="2.55509">
        <ele>5.42</ele>
        <time>2017-08-04T04:40:19Z</time>
      </trkpt>
      <trkpt lat="51.0758" lon="2.55516">
        <ele>5.42</ele>
        <time>2017-08-04T04:40:20Z</time>
      </trkpt>
      <trkpt lat="51.07582" lon="2.5553">
        <ele>5.42</ele>
        <time>2017-08-04T04:40:22Z</time>
      </trkpt>
      <trkpt lat="51.07583" lon="2.55536">
        <ele>5.42</ele>
        <time>2017-08-04T04:40:23Z</time>
      </trkpt>
      <trkpt lat="51.07581" lon="2.55544">
        <ele>5.42</ele>
        <time>2017-08-04T04:40:24Z</time>
      </trkpt>
      <trkpt lat="51.07579" lon="2.55549">
        <ele>5.42</ele>
        <time>2017-08-04T04:40:25Z</time>
      </trkpt>
      <trkpt lat="51.07576" lon="2.55554">
        <ele>5.42</ele>
        <time>2017-08-04T04:40:26Z</time>
      </trkpt>
      <trkpt lat="51.07573" lon="2.55557">
        <ele>5.42</ele>
        <time>2017-08-04T04:40:27Z</time>
      </trkpt>
      <trkpt lat="51.07569" lon="2.5556">
        <ele>5.42</ele>
        <time>2017-08-04T04:40:28Z</time>
      </trkpt>
      <trkpt lat="51.07565" lon="2.55564">
        <ele>5.42</ele>
        <time>2017-08-04T04:40:29Z</time>
      </trkpt>
      <trkpt lat="51.0756" lon="2.55568">
        <ele>5.42</ele>
        <time>2017-08-04T04:40:30Z</time>
      </trkpt>
      <trkpt lat="51.07465" lon="2.55643">
        <ele>4.94</ele>
        <time>2017-08-04T04:40:49Z</time>
      </trkpt>
      <trkpt lat="51.07359" lon="2.55728">
        <ele>4.46</ele>
        <time>2017-08-04T04:41:11Z</time>
      </trkpt>
      <trkpt lat="51.07248" lon="2.55815">
        <ele>3.98</ele>
        <time>2017-08-04T04:41:35Z</time>
      </trkpt>
      <trkpt lat="51.07202" lon="2.55856">
        <ele>3.98</ele>
        <time>2017-08-04T04:41:45Z</time>
      </trkpt>
      <trkpt lat="51.07105" lon="2.55928">
        <ele>3.5</ele>
        <time>2017-08-04T04:42:05Z</time>
      </trkpt>
      <trkpt lat="51.07057" lon="2.55965">
        <ele>4.94</ele>
        <time>2017-08-04T04:42:16Z</time>
      </trkpt>
      <trkpt lat="51.07036" lon="2.55982">
        <ele>6.87</ele>
        <time>2017-08-04T04:42:22Z</time>
      </trkpt>
      <trkpt lat="51.07032" lon="2.55984">
        <ele>6.87</ele>
        <time>2017-08-04T04:42:23Z</time>
      </trkpt>
      <trkpt lat="51.07028" lon="2.55986">
        <ele>6.87</ele>
        <time>2017-08-04T04:42:24Z</time>
      </trkpt>
      <trkpt lat="51.07024" lon="2.55986">
        <ele>7.35</ele>
        <time>2017-08-04T04:42:25Z</time>
      </trkpt>
      <trkpt lat="51.07021" lon="2.55987">
        <ele>7.35</ele>
        <time>2017-08-04T04:42:26Z</time>
      </trkpt>
      <trkpt lat="51.07002" lon="2.55994">
        <ele>7.83</ele>
        <time>2017-08-04T04:42:32Z</time>
      </trkpt>
      <trkpt lat="51.06998" lon="2.55993">
        <ele>7.83</ele>
        <time>2017-08-04T04:42:33Z</time>
      </trkpt>
      <trkpt lat="51.06995" lon="2.55989">
        <ele>7.83</ele>
        <time>2017-08-04T04:42:34Z</time>
      </trkpt>
      <trkpt lat="51.06994" lon="2.55983">
        <ele>7.83</ele>
        <time>2017-08-04T04:42:35Z</time>
      </trkpt>
      <trkpt lat="51.06993" lon="2.55976">
        <ele>7.83</ele>
        <time>2017-08-04T04:42:36Z</time>
      </trkpt>
      <trkpt lat="51.06993" lon="2.55969">
        <ele>6.87</ele>
        <time>2017-08-04T04:42:37Z</time>
      </trkpt>
      <trkpt lat="51.06986" lon="2.55927">
        <ele>5.91</ele>
        <time>2017-08-04T04:42:45Z</time>
      </trkpt>
      <trkpt lat="51.06984" lon="2.55928">
        <ele>5.42</ele>
        <time>2017-08-04T04:42:46Z</time>
      </trkpt>
      <trkpt lat="51.06981" lon="2.5593">
        <ele>5.42</ele>
        <time>2017-08-04T04:42:47Z</time>
      </trkpt>
      <trkpt lat="51.06978" lon="2.55932">
        <ele>4.94</ele>
        <time>2017-08-04T04:42:48Z</time>
      </trkpt>
      <trkpt lat="51.06974" lon="2.55933">
        <ele>4.94</ele>
        <time>2017-08-04T04:42:49Z</time>
      </trkpt>
      <trkpt lat="51.0697" lon="2.55934">
        <ele>4.46</ele>
        <time>2017-08-04T04:42:50Z</time>
      </trkpt>
      <trkpt lat="51.06966" lon="2.55936">
        <ele>4.46</ele>
        <time>2017-08-04T04:42:51Z</time>
      </trkpt>
      <trkpt lat="51.06951" lon="2.55942">
        <ele>2.54</ele>
        <time>2017-08-04T04:42:54Z</time>
      </trkpt>
      <trkpt lat="51.06929" lon="2.55955">
        <ele>2.54</ele>
        <time>2017-08-04T04:42:59Z</time>
      </trkpt>
      <trkpt lat="51.06925" lon="2.55959">
        <ele>2.54</ele>
        <time>2017-08-04T04:43:00Z</time>
      </trkpt>
      <trkpt lat="51.06917" lon="2.55967">
        <ele>4.46</ele>
        <time>2017-08-04T04:43:02Z</time>
      </trkpt>
      <trkpt lat="51.0687" lon="2.56011">
        <ele>3.02</ele>
        <time>2017-08-04T04:43:13Z</time>
      </trkpt>
      <trkpt lat="51.06756" lon="2.56102">
        <ele>2.54</ele>
        <time>2017-08-04T04:43:37Z</time>
      </trkpt>
      <trkpt lat="51.06695" lon="2.56146">
        <ele>3.5</ele>
        <time>2017-08-04T04:43:50Z</time>
      </trkpt>
      <trkpt lat="51.06572" lon="2.56236">
        <ele>3.5</ele>
        <time>2017-08-04T04:44:15Z</time>
      </trkpt>
      <trkpt lat="51.06498" lon="2.56288">
        <ele>2.06</ele>
        <time>2017-08-04T04:44:30Z</time>
      </trkpt>
      <trkpt lat="51.06426" lon="2.56294">
        <ele>3.5</ele>
        <time>2017-08-04T04:44:45Z</time>
      </trkpt>
      <trkpt lat="51.06337" lon="2.56285">
        <ele>4.46</ele>
        <time>2017-08-04T04:45:03Z</time>
      </trkpt>
      <trkpt lat="51.06231" lon="2.56284">
        <ele>4.94</ele>
        <time>2017-08-04T04:45:23Z</time>
      </trkpt>
      <trkpt lat="51.06131" lon="2.56282">
        <ele>5.42</ele>
        <time>2017-08-04T04:45:43Z</time>
      </trkpt>
      <trkpt lat="51.06024" lon="2.56274">
        <ele>4.94</ele>
        <time>2017-08-04T04:46:03Z</time>
      </trkpt>
      <trkpt lat="51.06019" lon="2.56272">
        <ele>4.94</ele>
        <time>2017-08-04T04:46:04Z</time>
      </trkpt>
      <trkpt lat="51.05921" lon="2.56236">
        <ele>3.98</ele>
        <time>2017-08-04T04:46:23Z</time>
      </trkpt>
      <trkpt lat="51.05906" lon="2.5623">
        <ele>3.98</ele>
        <time>2017-08-04T04:46:26Z</time>
      </trkpt>
      <trkpt lat="51.05901" lon="2.56232">
        <ele>3.98</ele>
        <time>2017-08-04T04:46:27Z</time>
      </trkpt>
      <trkpt lat="51.05899" lon="2.56239">
        <ele>3.98</ele>
        <time>2017-08-04T04:46:28Z</time>
      </trkpt>
      <trkpt lat="51.05899" lon="2.56246">
        <ele>3.98</ele>
        <time>2017-08-04T04:46:29Z</time>
      </trkpt>
      <trkpt lat="51.059" lon="2.56253">
        <ele>3.98</ele>
        <time>2017-08-04T04:46:30Z</time>
      </trkpt>
      <trkpt lat="51.05903" lon="2.56259">
        <ele>3.98</ele>
        <time>2017-08-04T04:46:31Z</time>
      </trkpt>
      <trkpt lat="51.05905" lon="2.56266">
        <ele>3.98</ele>
        <time>2017-08-04T04:46:32Z</time>
      </trkpt>
      <trkpt lat="51.05944" lon="2.5638">
        <ele>3.98</ele>
        <time>2017-08-04T04:46:47Z</time>
      </trkpt>
      <trkpt lat="51.05981" lon="2.56508">
        <ele>3.5</ele>
        <time>2017-08-04T04:47:03Z</time>
      </trkpt>
      <trkpt lat="51.06006" lon="2.56627">
        <ele>3.5</ele>
        <time>2017-08-04T04:47:17Z</time>
      </trkpt>
      <trkpt lat="51.06044" lon="2.56706">
        <ele>3.5</ele>
        <time>2017-08-04T04:47:28Z</time>
      </trkpt>
      <trkpt lat="51.06068" lon="2.56762">
        <ele>3.5</ele>
        <time>2017-08-04T04:47:36Z</time>
      </trkpt>
      <trkpt lat="51.0607" lon="2.5677">
        <ele>3.5</ele>
        <time>2017-08-04T04:47:37Z</time>
      </trkpt>
      <trkpt lat="51.0608" lon="2.56815">
        <ele>3.5</ele>
        <time>2017-08-04T04:47:43Z</time>
      </trkpt>
      <trkpt lat="51.0608" lon="2.56822">
        <ele>3.5</ele>
        <time>2017-08-04T04:47:44Z</time>
      </trkpt>
      <trkpt lat="51.0608" lon="2.56839">
        <ele>3.5</ele>
        <time>2017-08-04T04:47:46Z</time>
      </trkpt>
      <trkpt lat="51.06081" lon="2.56849">
        <ele>3.5</ele>
        <time>2017-08-04T04:47:47Z</time>
      </trkpt>
      <trkpt lat="51.06088" lon="2.569">
        <ele>3.5</ele>
        <time>2017-08-04T04:47:53Z</time>
      </trkpt>
      <trkpt lat="51.06089" lon="2.56918">
        <ele>3.5</ele>
        <time>2017-08-04T04:47:55Z</time>
      </trkpt>
      <trkpt lat="51.06107" lon="2.57059">
        <ele>3.5</ele>
        <time>2017-08-04T04:48:12Z</time>
      </trkpt>
      <trkpt lat="51.06109" lon="2.57075">
        <ele>3.5</ele>
        <time>2017-08-04T04:48:14Z</time>
      </trkpt>
      <trkpt lat="51.06109" lon="2.57083">
        <ele>3.5</ele>
        <time>2017-08-04T04:48:15Z</time>
      </trkpt>
      <trkpt lat="51.06112" lon="2.57111">
        <ele>4.46</ele>
        <time>2017-08-04T04:48:19Z</time>
      </trkpt>
      <trkpt lat="51.06114" lon="2.57183">
        <ele>4.46</ele>
        <time>2017-08-04T04:48:28Z</time>
      </trkpt>
      <trkpt lat="51.06114" lon="2.57201">
        <ele>3.5</ele>
        <time>2017-08-04T04:48:30Z</time>
      </trkpt>
      <trkpt lat="51.06115" lon="2.5721">
        <ele>3.5</ele>
        <time>2017-08-04T04:48:31Z</time>
      </trkpt>
      <trkpt lat="51.06116" lon="2.57217">
        <ele>3.5</ele>
        <time>2017-08-04T04:48:32Z</time>
      </trkpt>
      <trkpt lat="51.06126" lon="2.57285">
        <ele>2.54</ele>
        <time>2017-08-04T04:48:42Z</time>
      </trkpt>
      <trkpt lat="51.06129" lon="2.57298">
        <ele>2.54</ele>
        <time>2017-08-04T04:48:44Z</time>
      </trkpt>
      <trkpt lat="51.0615" lon="2.57355">
        <ele>2.54</ele>
        <time>2017-08-04T04:48:54Z</time>
      </trkpt>
      <trkpt lat="51.06183" lon="2.57433">
        <ele>2.54</ele>
        <time>2017-08-04T04:49:08Z</time>
      </trkpt>
      <trkpt lat="51.06201" lon="2.57522">
        <ele>2.54</ele>
        <time>2017-08-04T04:49:22Z</time>
      </trkpt>
      <trkpt lat="51.06212" lon="2.57618">
        <ele>3.98</ele>
        <time>2017-08-04T04:49:36Z</time>
      </trkpt>
      <trkpt lat="51.06248" lon="2.57744">
        <ele>3.98</ele>
        <time>2017-08-04T04:49:53Z</time>
      </trkpt>
      <trkpt lat="51.06269" lon="2.57813">
        <ele>3.98</ele>
        <time>2017-08-04T04:50:02Z</time>
      </trkpt>
      <trkpt lat="51.06273" lon="2.57818">
        <ele>3.98</ele>
        <time>2017-08-04T04:50:03Z</time>
      </trkpt>
      <trkpt lat="51.06277" lon="2.57822">
        <ele>3.98</ele>
        <time>2017-08-04T04:50:04Z</time>
      </trkpt>
      <trkpt lat="51.06283" lon="2.57825">
        <ele>3.98</ele>
        <time>2017-08-04T04:50:05Z</time>
      </trkpt>
      <trkpt lat="51.06288" lon="2.57828">
        <ele>3.98</ele>
        <time>2017-08-04T04:50:06Z</time>
      </trkpt>
      <trkpt lat="51.06294" lon="2.57831">
        <ele>3.98</ele>
        <time>2017-08-04T04:50:07Z</time>
      </trkpt>
      <trkpt lat="51.06298" lon="2.57836">
        <ele>3.98</ele>
        <time>2017-08-04T04:50:08Z</time>
      </trkpt>
      <trkpt lat="51.06303" lon="2.57843">
        <ele>3.98</ele>
        <time>2017-08-04T04:50:09Z</time>
      </trkpt>
      <trkpt lat="51.06307" lon="2.5785">
        <ele>3.98</ele>
        <time>2017-08-04T04:50:10Z</time>
      </trkpt>
      <trkpt lat="51.06311" lon="2.57858">
        <ele>3.98</ele>
        <time>2017-08-04T04:50:11Z</time>
      </trkpt>
      <trkpt lat="51.06314" lon="2.57866">
        <ele>3.98</ele>
        <time>2017-08-04T04:50:12Z</time>
      </trkpt>
      <trkpt lat="51.06334" lon="2.57929">
        <ele>3.98</ele>
        <time>2017-08-04T04:50:20Z</time>
      </trkpt>
      <trkpt lat="51.06378" lon="2.58037">
        <ele>4.46</ele>
        <time>2017-08-04T04:50:35Z</time>
      </trkpt>
      <trkpt lat="51.06445" lon="2.58126">
        <ele>4.46</ele>
        <time>2017-08-04T04:50:51Z</time>
      </trkpt>
      <trkpt lat="51.06449" lon="2.58132">
        <ele>4.46</ele>
        <time>2017-08-04T04:50:52Z</time>
      </trkpt>
      <trkpt lat="51.06453" lon="2.58139">
        <ele>4.46</ele>
        <time>2017-08-04T04:50:53Z</time>
      </trkpt>
      <trkpt lat="51.06516" lon="2.58279">
        <ele>4.46</ele>
        <time>2017-08-04T04:51:13Z</time>
      </trkpt>
      <trkpt lat="51.06522" lon="2.58293">
        <ele>4.46</ele>
        <time>2017-08-04T04:51:15Z</time>
      </trkpt>
      <trkpt lat="51.06525" lon="2.58299">
        <ele>4.46</ele>
        <time>2017-08-04T04:51:16Z</time>
      </trkpt>
      <trkpt lat="51.06527" lon="2.58306">
        <ele>4.46</ele>
        <time>2017-08-04T04:51:17Z</time>
      </trkpt>
      <trkpt lat="51.06567" lon="2.58407">
        <ele>4.46</ele>
        <time>2017-08-04T04:51:32Z</time>
      </trkpt>
      <trkpt lat="51.0658" lon="2.58437">
        <ele>4.94</ele>
        <time>2017-08-04T04:51:37Z</time>
      </trkpt>
      <trkpt lat="51.06584" lon="2.58442">
        <ele>4.94</ele>
        <time>2017-08-04T04:51:38Z</time>
      </trkpt>
      <trkpt lat="51.06588" lon="2.58446">
        <ele>4.94</ele>
        <time>2017-08-04T04:51:39Z</time>
      </trkpt>
      <trkpt lat="51.06624" lon="2.58486">
        <ele>4.94</ele>
        <time>2017-08-04T04:51:48Z</time>
      </trkpt>
      <trkpt lat="51.06627" lon="2.58493">
        <ele>4.94</ele>
        <time>2017-08-04T04:51:49Z</time>
      </trkpt>
      <trkpt lat="51.06629" lon="2.58501">
        <ele>4.94</ele>
        <time>2017-08-04T04:51:50Z</time>
      </trkpt>
      <trkpt lat="51.0663" lon="2.58508">
        <ele>4.94</ele>
        <time>2017-08-04T04:51:51Z</time>
      </trkpt>
      <trkpt lat="51.06631" lon="2.58517">
        <ele>4.94</ele>
        <time>2017-08-04T04:51:52Z</time>
      </trkpt>
      <trkpt lat="51.06632" lon="2.58524">
        <ele>4.94</ele>
        <time>2017-08-04T04:51:53Z</time>
      </trkpt>
      <trkpt lat="51.06637" lon="2.58559">
        <ele>4.94</ele>
        <time>2017-08-04T04:51:57Z</time>
      </trkpt>
      <trkpt lat="51.06639" lon="2.58567">
        <ele>4.94</ele>
        <time>2017-08-04T04:51:58Z</time>
      </trkpt>
      <trkpt lat="51.06642" lon="2.58574">
        <ele>4.94</ele>
        <time>2017-08-04T04:51:59Z</time>
      </trkpt>
      <trkpt lat="51.06647" lon="2.5858">
        <ele>4.94</ele>
        <time>2017-08-04T04:52:00Z</time>
      </trkpt>
      <trkpt lat="51.06651" lon="2.58586">
        <ele>4.94</ele>
        <time>2017-08-04T04:52:01Z</time>
      </trkpt>
      <trkpt lat="51.06655" lon="2.58591">
        <ele>4.94</ele>
        <time>2017-08-04T04:52:02Z</time>
      </trkpt>
      <trkpt lat="51.06667" lon="2.58608">
        <ele>4.94</ele>
        <time>2017-08-04T04:52:05Z</time>
      </trkpt>
      <trkpt lat="51.06675" lon="2.58629">
        <ele>4.94</ele>
        <time>2017-08-04T04:52:08Z</time>
      </trkpt>
      <trkpt lat="51.06677" lon="2.58636">
        <ele>4.94</ele>
        <time>2017-08-04T04:52:09Z</time>
      </trkpt>
      <trkpt lat="51.06678" lon="2.58666">
        <ele>5.42</ele>
        <time>2017-08-04T04:52:15Z</time>
      </trkpt>
      <trkpt lat="51.06675" lon="2.58667">
        <ele>5.42</ele>
        <time>2017-08-04T04:52:16Z</time>
      </trkpt>
      <trkpt lat="51.06672" lon="2.58666">
        <ele>5.42</ele>
        <time>2017-08-04T04:52:17Z</time>
      </trkpt>
      <trkpt lat="51.06669" lon="2.58664">
        <ele>5.42</ele>
        <time>2017-08-04T04:52:18Z</time>
      </trkpt>
      <trkpt lat="51.06665" lon="2.5866">
        <ele>5.42</ele>
        <time>2017-08-04T04:52:19Z</time>
      </trkpt>
      <trkpt lat="51.06662" lon="2.58657">
        <ele>5.42</ele>
        <time>2017-08-04T04:52:20Z</time>
      </trkpt>
      <trkpt lat="51.06658" lon="2.58652">
        <ele>5.42</ele>
        <time>2017-08-04T04:52:21Z</time>
      </trkpt>
      <trkpt lat="51.06655" lon="2.58648">
        <ele>5.42</ele>
        <time>2017-08-04T04:52:22Z</time>
      </trkpt>
      <trkpt lat="51.06651" lon="2.58644">
        <ele>5.42</ele>
        <time>2017-08-04T04:52:23Z</time>
      </trkpt>
      <trkpt lat="51.06647" lon="2.5864">
        <ele>5.42</ele>
        <time>2017-08-04T04:52:24Z</time>
      </trkpt>
      <trkpt lat="51.06643" lon="2.58636">
        <ele>5.42</ele>
        <time>2017-08-04T04:52:25Z</time>
      </trkpt>
      <trkpt lat="51.06639" lon="2.58631">
        <ele>5.42</ele>
        <time>2017-08-04T04:52:26Z</time>
      </trkpt>
      <trkpt lat="51.06635" lon="2.58627">
        <ele>5.42</ele>
        <time>2017-08-04T04:52:27Z</time>
      </trkpt>
      <trkpt lat="51.0659" lon="2.58597">
        <ele>5.42</ele>
        <time>2017-08-04T04:52:38Z</time>
      </trkpt>
      <trkpt lat="51.06523" lon="2.58598">
        <ele>8.31</ele>
        <time>2017-08-04T04:52:54Z</time>
      </trkpt>
      <trkpt lat="51.06457" lon="2.58642">
        <ele>8.79</ele>
        <time>2017-08-04T04:53:10Z</time>
      </trkpt>
      <trkpt lat="51.06439" lon="2.58654">
        <ele>7.35</ele>
        <time>2017-08-04T04:53:14Z</time>
      </trkpt>
      <trkpt lat="51.06428" lon="2.58659">
        <ele>8.79</ele>
        <time>2017-08-04T04:53:16Z</time>
      </trkpt>
      <trkpt lat="51.06422" lon="2.58662">
        <ele>8.79</ele>
        <time>2017-08-04T04:53:17Z</time>
      </trkpt>
      <trkpt lat="51.06351" lon="2.58709">
        <ele>4.94</ele>
        <time>2017-08-04T04:53:29Z</time>
      </trkpt>
      <trkpt lat="51.06344" lon="2.58714">
        <ele>4.94</ele>
        <time>2017-08-04T04:53:30Z</time>
      </trkpt>
      <trkpt lat="51.06278" lon="2.58757">
        <ele>1.1</ele>
        <time>2017-08-04T04:53:39Z</time>
      </trkpt>
      <trkpt lat="51.06271" lon="2.58762">
        <ele>1.1</ele>
        <time>2017-08-04T04:53:40Z</time>
      </trkpt>
      <trkpt lat="51.06265" lon="2.58769">
        <ele>1.1</ele>
        <time>2017-08-04T04:53:41Z</time>
      </trkpt>
      <trkpt lat="51.0626" lon="2.58776">
        <ele>1.1</ele>
        <time>2017-08-04T04:53:42Z</time>
      </trkpt>
      <trkpt lat="51.06255" lon="2.58781">
        <ele>1.1</ele>
        <time>2017-08-04T04:53:43Z</time>
      </trkpt>
      <trkpt lat="51.06252" lon="2.58788">
        <ele>1.1</ele>
        <time>2017-08-04T04:53:44Z</time>
      </trkpt>
      <trkpt lat="51.06251" lon="2.58797">
        <ele>1.1</ele>
        <time>2017-08-04T04:53:45Z</time>
      </trkpt>
      <trkpt lat="51.06253" lon="2.58805">
        <ele>1.1</ele>
        <time>2017-08-04T04:53:46Z</time>
      </trkpt>
      <trkpt lat="51.06257" lon="2.5881">
        <ele>1.1</ele>
        <time>2017-08-04T04:53:47Z</time>
      </trkpt>
      <trkpt lat="51.06262" lon="2.58812">
        <ele>1.58</ele>
        <time>2017-08-04T04:53:48Z</time>
      </trkpt>
      <trkpt lat="51.06268" lon="2.58812">
        <ele>1.58</ele>
        <time>2017-08-04T04:53:49Z</time>
      </trkpt>
      <trkpt lat="51.06274" lon="2.58809">
        <ele>1.58</ele>
        <time>2017-08-04T04:53:50Z</time>
      </trkpt>
      <trkpt lat="51.06279" lon="2.58805">
        <ele>1.58</ele>
        <time>2017-08-04T04:53:51Z</time>
      </trkpt>
      <trkpt lat="51.06284" lon="2.58799">
        <ele>1.58</ele>
        <time>2017-08-04T04:53:52Z</time>
      </trkpt>
      <trkpt lat="51.0629" lon="2.58795">
        <ele>1.58</ele>
        <time>2017-08-04T04:53:53Z</time>
      </trkpt>
      <trkpt lat="51.06297" lon="2.5879">
        <ele>1.1</ele>
        <time>2017-08-04T04:53:54Z</time>
      </trkpt>
      <trkpt lat="51.06302" lon="2.58787">
        <ele>1.1</ele>
        <time>2017-08-04T04:53:55Z</time>
      </trkpt>
      <trkpt lat="51.06396" lon="2.58738">
        <ele>1.1</ele>
        <time>2017-08-04T04:54:11Z</time>
      </trkpt>
      <trkpt lat="51.06458" lon="2.58701">
        <ele>1.1</ele>
        <time>2017-08-04T04:54:24Z</time>
      </trkpt>
      <trkpt lat="51.06462" lon="2.58702">
        <ele>1.1</ele>
        <time>2017-08-04T04:54:25Z</time>
      </trkpt>
      <trkpt lat="51.06466" lon="2.58706">
        <ele>2.54</ele>
        <time>2017-08-04T04:54:26Z</time>
      </trkpt>
      <trkpt lat="51.06469" lon="2.58711">
        <ele>2.54</ele>
        <time>2017-08-04T04:54:27Z</time>
      </trkpt>
      <trkpt lat="51.06471" lon="2.58717">
        <ele>2.54</ele>
        <time>2017-08-04T04:54:28Z</time>
      </trkpt>
      <trkpt lat="51.06473" lon="2.58724">
        <ele>2.54</ele>
        <time>2017-08-04T04:54:29Z</time>
      </trkpt>
      <trkpt lat="51.06474" lon="2.58731">
        <ele>2.54</ele>
        <time>2017-08-04T04:54:30Z</time>
      </trkpt>
      <trkpt lat="51.06516" lon="2.58861">
        <ele>2.54</ele>
        <time>2017-08-04T04:54:47Z</time>
      </trkpt>
      <trkpt lat="51.06556" lon="2.58996">
        <ele>2.54</ele>
        <time>2017-08-04T04:55:03Z</time>
      </trkpt>
      <trkpt lat="51.06574" lon="2.59104">
        <ele>2.54</ele>
        <time>2017-08-04T04:55:15Z</time>
      </trkpt>
      <trkpt lat="51.06574" lon="2.59113">
        <ele>2.54</ele>
        <time>2017-08-04T04:55:16Z</time>
      </trkpt>
      <trkpt lat="51.06574" lon="2.59122">
        <ele>2.54</ele>
        <time>2017-08-04T04:55:17Z</time>
      </trkpt>
      <trkpt lat="51.06573" lon="2.59131">
        <ele>2.54</ele>
        <time>2017-08-04T04:55:18Z</time>
      </trkpt>
      <trkpt lat="51.06571" lon="2.5914">
        <ele>2.54</ele>
        <time>2017-08-04T04:55:19Z</time>
      </trkpt>
      <trkpt lat="51.06568" lon="2.59148">
        <ele>2.54</ele>
        <time>2017-08-04T04:55:20Z</time>
      </trkpt>
      <trkpt lat="51.06517" lon="2.59293">
        <ele>2.54</ele>
        <time>2017-08-04T04:55:38Z</time>
      </trkpt>
      <trkpt lat="51.06466" lon="2.59426">
        <ele>2.54</ele>
        <time>2017-08-04T04:55:55Z</time>
      </trkpt>
      <trkpt lat="51.06462" lon="2.59431">
        <ele>2.54</ele>
        <time>2017-08-04T04:55:56Z</time>
      </trkpt>
      <trkpt lat="51.06403" lon="2.59503">
        <ele>1.1</ele>
        <time>2017-08-04T04:56:09Z</time>
      </trkpt>
      <trkpt lat="51.06343" lon="2.59576">
        <ele>1.1</ele>
        <time>2017-08-04T04:56:23Z</time>
      </trkpt>
      <trkpt lat="51.06281" lon="2.59652">
        <ele>1.1</ele>
        <time>2017-08-04T04:56:38Z</time>
      </trkpt>
      <trkpt lat="51.06278" lon="2.59656">
        <ele>1.1</ele>
        <time>2017-08-04T04:56:39Z</time>
      </trkpt>
      <trkpt lat="51.06261" lon="2.5968">
        <ele>1.1</ele>
        <time>2017-08-04T04:56:48Z</time>
      </trkpt>
      <trkpt lat="51.06249" lon="2.59693">
        <ele>1.1</ele>
        <time>2017-08-04T04:57:03Z</time>
      </trkpt>
      <trkpt lat="51.06203" lon="2.5975">
        <ele>1.1</ele>
        <time>2017-08-04T04:57:17Z</time>
      </trkpt>
      <trkpt lat="51.06185" lon="2.59773">
        <ele>1.1</ele>
        <time>2017-08-04T04:57:22Z</time>
      </trkpt>
      <trkpt lat="51.06129" lon="2.59843">
        <ele>1.1</ele>
        <time>2017-08-04T04:57:38Z</time>
      </trkpt>
      <trkpt lat="51.06061" lon="2.59928">
        <ele>1.1</ele>
        <time>2017-08-04T04:57:58Z</time>
      </trkpt>
      <trkpt lat="51.05997" lon="2.60008">
        <ele>1.1</ele>
        <time>2017-08-04T04:58:17Z</time>
      </trkpt>
      <trkpt lat="51.0595" lon="2.60067">
        <ele>1.1</ele>
        <time>2017-08-04T04:58:31Z</time>
      </trkpt>
      <trkpt lat="51.05947" lon="2.60071">
        <ele>1.1</ele>
        <time>2017-08-04T04:58:32Z</time>
      </trkpt>
      <trkpt lat="51.05889" lon="2.60144">
        <ele>1.1</ele>
        <time>2017-08-04T04:58:48Z</time>
      </trkpt>
      <trkpt lat="51.0586" lon="2.60176">
        <ele>1.1</ele>
        <time>2017-08-04T04:58:56Z</time>
      </trkpt>
      <trkpt lat="51.05798" lon="2.60251">
        <ele>1.1</ele>
        <time>2017-08-04T04:59:11Z</time>
      </trkpt>
      <trkpt lat="51.05722" lon="2.6034">
        <ele>1.1</ele>
        <time>2017-08-04T04:59:30Z</time>
      </trkpt>
      <trkpt lat="51.05642" lon="2.60435">
        <ele>1.1</ele>
        <time>2017-08-04T04:59:50Z</time>
      </trkpt>
      <trkpt lat="51.05567" lon="2.60525">
        <ele>1.1</ele>
        <time>2017-08-04T05:00:09Z</time>
      </trkpt>
      <trkpt lat="51.05496" lon="2.6061">
        <ele>1.1</ele>
        <time>2017-08-04T05:00:27Z</time>
      </trkpt>
      <trkpt lat="51.05428" lon="2.60687">
        <ele>1.1</ele>
        <time>2017-08-04T05:00:44Z</time>
      </trkpt>
      <trkpt lat="51.05352" lon="2.60777">
        <ele>1.1</ele>
        <time>2017-08-04T05:01:03Z</time>
      </trkpt>
      <trkpt lat="51.05275" lon="2.60867">
        <ele>0.62</ele>
        <time>2017-08-04T05:01:22Z</time>
      </trkpt>
      <trkpt lat="51.05195" lon="2.6096">
        <ele>2.06</ele>
        <time>2017-08-04T05:01:42Z</time>
      </trkpt>
      <trkpt lat="51.05121" lon="2.61055">
        <ele>2.06</ele>
        <time>2017-08-04T05:02:01Z</time>
      </trkpt>
      <trkpt lat="51.05047" lon="2.61154">
        <ele>2.06</ele>
        <time>2017-08-04T05:02:19Z</time>
      </trkpt>
      <trkpt lat="51.05034" lon="2.6117">
        <ele>2.06</ele>
        <time>2017-08-04T05:02:22Z</time>
      </trkpt>
      <trkpt lat="51.0503" lon="2.61175">
        <ele>2.06</ele>
        <time>2017-08-04T05:02:23Z</time>
      </trkpt>
      <trkpt lat="51.04945" lon="2.61281">
        <ele>1.1</ele>
        <time>2017-08-04T05:02:42Z</time>
      </trkpt>
      <trkpt lat="51.04892" lon="2.61346">
        <ele>2.54</ele>
        <time>2017-08-04T05:02:54Z</time>
      </trkpt>
      <trkpt lat="51.04875" lon="2.61367">
        <ele>1.1</ele>
        <time>2017-08-04T05:02:58Z</time>
      </trkpt>
      <trkpt lat="51.04798" lon="2.61459">
        <ele>1.1</ele>
        <time>2017-08-04T05:03:15Z</time>
      </trkpt>
      <trkpt lat="51.0471" lon="2.61572">
        <ele>1.1</ele>
        <time>2017-08-04T05:03:35Z</time>
      </trkpt>
      <trkpt lat="51.0463" lon="2.61656">
        <ele>1.1</ele>
        <time>2017-08-04T05:03:52Z</time>
      </trkpt>
      <trkpt lat="51.04585" lon="2.61706">
        <ele>1.1</ele>
        <time>2017-08-04T05:04:02Z</time>
      </trkpt>
      <trkpt lat="51.04583" lon="2.61713">
        <ele>1.1</ele>
        <time>2017-08-04T05:04:03Z</time>
      </trkpt>
      <trkpt lat="51.04583" lon="2.61722">
        <ele>1.1</ele>
        <time>2017-08-04T05:04:04Z</time>
      </trkpt>
      <trkpt lat="51.04585" lon="2.61729">
        <ele>1.1</ele>
        <time>2017-08-04T05:04:05Z</time>
      </trkpt>
      <trkpt lat="51.04587" lon="2.61737">
        <ele>1.1</ele>
        <time>2017-08-04T05:04:06Z</time>
      </trkpt>
      <trkpt lat="51.0459" lon="2.61743">
        <ele>1.1</ele>
        <time>2017-08-04T05:04:07Z</time>
      </trkpt>
      <trkpt lat="51.04634" lon="2.6187">
        <ele>1.1</ele>
        <time>2017-08-04T05:04:22Z</time>
      </trkpt>
      <trkpt lat="51.04703" lon="2.62068">
        <ele>0.62</ele>
        <time>2017-08-04T05:04:45Z</time>
      </trkpt>
      <trkpt lat="51.04764" lon="2.62241">
        <ele>0.62</ele>
        <time>2017-08-04T05:05:05Z</time>
      </trkpt>
      <trkpt lat="51.04832" lon="2.62437">
        <ele>0.62</ele>
        <time>2017-08-04T05:05:27Z</time>
      </trkpt>
      <trkpt lat="51.04868" lon="2.62605">
        <ele>0.62</ele>
        <time>2017-08-04T05:05:44Z</time>
      </trkpt>
      <trkpt lat="51.04871" lon="2.62772">
        <ele>0.62</ele>
        <time>2017-08-04T05:06:01Z</time>
      </trkpt>
      <trkpt lat="51.04848" lon="2.62974">
        <ele>0.62</ele>
        <time>2017-08-04T05:06:22Z</time>
      </trkpt>
      <trkpt lat="51.04828" lon="2.63142">
        <ele>0.62</ele>
        <time>2017-08-04T05:06:39Z</time>
      </trkpt>
      <trkpt lat="51.04808" lon="2.63317">
        <ele>0.62</ele>
        <time>2017-08-04T05:06:58Z</time>
      </trkpt>
      <trkpt lat="51.04788" lon="2.63493">
        <ele>0.62</ele>
        <time>2017-08-04T05:07:17Z</time>
      </trkpt>
      <trkpt lat="51.0477" lon="2.63692">
        <ele>0.62</ele>
        <time>2017-08-04T05:07:39Z</time>
      </trkpt>
      <trkpt lat="51.04766" lon="2.63842">
        <ele>2.06</ele>
        <time>2017-08-04T05:07:54Z</time>
      </trkpt>
      <trkpt lat="51.04762" lon="2.64021">
        <ele>2.06</ele>
        <time>2017-08-04T05:08:13Z</time>
      </trkpt>
      <trkpt lat="51.04735" lon="2.64179">
        <ele>2.06</ele>
        <time>2017-08-04T05:08:30Z</time>
      </trkpt>
      <trkpt lat="51.0468" lon="2.64331">
        <ele>2.54</ele>
        <time>2017-08-04T05:08:47Z</time>
      </trkpt>
      <trkpt lat="51.04645" lon="2.64433">
        <ele>4.94</ele>
        <time>2017-08-04T05:09:03Z</time>
      </trkpt>
      <trkpt lat="51.04642" lon="2.64463">
        <ele>5.42</ele>
        <time>2017-08-04T05:09:08Z</time>
      </trkpt>
      <trkpt lat="51.0464" lon="2.6447">
        <ele>5.42</ele>
        <time>2017-08-04T05:09:09Z</time>
      </trkpt>
      <trkpt lat="51.04637" lon="2.64476">
        <ele>5.42</ele>
        <time>2017-08-04T05:09:10Z</time>
      </trkpt>
      <trkpt lat="51.04634" lon="2.64482">
        <ele>5.42</ele>
        <time>2017-08-04T05:09:11Z</time>
      </trkpt>
      <trkpt lat="51.0463" lon="2.64487">
        <ele>5.42</ele>
        <time>2017-08-04T05:09:12Z</time>
      </trkpt>
      <trkpt lat="51.04607" lon="2.64518">
        <ele>3.98</ele>
        <time>2017-08-04T05:09:17Z</time>
      </trkpt>
      <trkpt lat="51.04602" lon="2.64525">
        <ele>3.98</ele>
        <time>2017-08-04T05:09:18Z</time>
      </trkpt>
      <trkpt lat="51.04557" lon="2.64595">
        <ele>2.06</ele>
        <time>2017-08-04T05:09:29Z</time>
      </trkpt>
      <trkpt lat="51.04525" lon="2.64675">
        <ele>1.1</ele>
        <time>2017-08-04T05:09:39Z</time>
      </trkpt>
      <trkpt lat="51.04523" lon="2.64683">
        <ele>1.1</ele>
        <time>2017-08-04T05:09:40Z</time>
      </trkpt>
      <trkpt lat="51.04517" lon="2.64699">
        <ele>1.1</ele>
        <time>2017-08-04T05:09:42Z</time>
      </trkpt>
      <trkpt lat="51.04469" lon="2.64835">
        <ele>2.54</ele>
        <time>2017-08-04T05:09:59Z</time>
      </trkpt>
      <trkpt lat="51.04424" lon="2.64949">
        <ele>2.54</ele>
        <time>2017-08-04T05:10:15Z</time>
      </trkpt>
      <trkpt lat="51.0442" lon="2.64955">
        <ele>2.54</ele>
        <time>2017-08-04T05:10:16Z</time>
      </trkpt>
      <trkpt lat="51.04415" lon="2.6496">
        <ele>2.54</ele>
        <time>2017-08-04T05:10:17Z</time>
      </trkpt>
      <trkpt lat="51.04397" lon="2.64977">
        <ele>2.54</ele>
        <time>2017-08-04T05:10:21Z</time>
      </trkpt>
      <trkpt lat="51.04393" lon="2.64981">
        <ele>3.02</ele>
        <time>2017-08-04T05:10:22Z</time>
      </trkpt>
      <trkpt lat="51.0436" lon="2.65001">
        <ele>3.02</ele>
        <time>2017-08-04T05:10:32Z</time>
      </trkpt>
      <trkpt lat="51.04326" lon="2.65011">
        <ele>3.02</ele>
        <time>2017-08-04T05:10:40Z</time>
      </trkpt>
      <trkpt lat="51.04321" lon="2.65011">
        <ele>3.02</ele>
        <time>2017-08-04T05:10:41Z</time>
      </trkpt>
      <trkpt lat="51.04316" lon="2.65009">
        <ele>3.02</ele>
        <time>2017-08-04T05:10:42Z</time>
      </trkpt>
      <trkpt lat="51.04312" lon="2.65008">
        <ele>3.02</ele>
        <time>2017-08-04T05:10:43Z</time>
      </trkpt>
      <trkpt lat="51.04307" lon="2.65006">
        <ele>3.02</ele>
        <time>2017-08-04T05:10:44Z</time>
      </trkpt>
      <trkpt lat="51.04294" lon="2.64998">
        <ele>3.02</ele>
        <time>2017-08-04T05:10:47Z</time>
      </trkpt>
      <trkpt lat="51.04238" lon="2.64959">
        <ele>3.02</ele>
        <time>2017-08-04T05:11:00Z</time>
      </trkpt>
      <trkpt lat="51.04233" lon="2.64958">
        <ele>3.02</ele>
        <time>2017-08-04T05:11:01Z</time>
      </trkpt>
      <trkpt lat="51.04228" lon="2.64957">
        <ele>3.02</ele>
        <time>2017-08-04T05:11:02Z</time>
      </trkpt>
      <trkpt lat="51.04223" lon="2.64957">
        <ele>3.02</ele>
        <time>2017-08-04T05:11:03Z</time>
      </trkpt>
      <trkpt lat="51.04219" lon="2.64958">
        <ele>3.02</ele>
        <time>2017-08-04T05:11:04Z</time>
      </trkpt>
      <trkpt lat="51.04214" lon="2.64959">
        <ele>3.02</ele>
        <time>2017-08-04T05:11:05Z</time>
      </trkpt>
      <trkpt lat="51.04209" lon="2.64961">
        <ele>3.02</ele>
        <time>2017-08-04T05:11:06Z</time>
      </trkpt>
      <trkpt lat="51.04204" lon="2.64964">
        <ele>3.02</ele>
        <time>2017-08-04T05:11:07Z</time>
      </trkpt>
      <trkpt lat="51.04198" lon="2.64967">
        <ele>3.02</ele>
        <time>2017-08-04T05:11:08Z</time>
      </trkpt>
      <trkpt lat="51.04159" lon="2.64989">
        <ele>2.06</ele>
        <time>2017-08-04T05:11:16Z</time>
      </trkpt>
      <trkpt lat="51.04132" lon="2.65002">
        <ele>2.06</ele>
        <time>2017-08-04T05:11:23Z</time>
      </trkpt>
      <trkpt lat="51.04129" lon="2.65007">
        <ele>2.06</ele>
        <time>2017-08-04T05:11:24Z</time>
      </trkpt>
      <trkpt lat="51.04077" lon="2.65071">
        <ele>2.06</ele>
        <time>2017-08-04T05:11:37Z</time>
      </trkpt>
      <trkpt lat="51.0407" lon="2.65085">
        <ele>2.06</ele>
        <time>2017-08-04T05:11:39Z</time>
      </trkpt>
      <trkpt lat="51.04007" lon="2.65229">
        <ele>1.58</ele>
        <time>2017-08-04T05:11:58Z</time>
      </trkpt>
      <trkpt lat="51.0396" lon="2.65295">
        <ele>2.06</ele>
        <time>2017-08-04T05:12:09Z</time>
      </trkpt>
      <trkpt lat="51.03958" lon="2.65303">
        <ele>2.06</ele>
        <time>2017-08-04T05:12:10Z</time>
      </trkpt>
      <trkpt lat="51.03956" lon="2.65312">
        <ele>2.06</ele>
        <time>2017-08-04T05:12:11Z</time>
      </trkpt>
      <trkpt lat="51.03956" lon="2.6532">
        <ele>2.06</ele>
        <time>2017-08-04T05:12:12Z</time>
      </trkpt>
      <trkpt lat="51.03958" lon="2.65328">
        <ele>2.06</ele>
        <time>2017-08-04T05:12:13Z</time>
      </trkpt>
      <trkpt lat="51.0396" lon="2.65336">
        <ele>2.06</ele>
        <time>2017-08-04T05:12:14Z</time>
      </trkpt>
      <trkpt lat="51.03962" lon="2.65344">
        <ele>2.06</ele>
        <time>2017-08-04T05:12:15Z</time>
      </trkpt>
      <trkpt lat="51.03978" lon="2.65464">
        <ele>2.06</ele>
        <time>2017-08-04T05:12:29Z</time>
      </trkpt>
      <trkpt lat="51.0398" lon="2.65473">
        <ele>2.06</ele>
        <time>2017-08-04T05:12:30Z</time>
      </trkpt>
      <trkpt lat="51.03982" lon="2.65482">
        <ele>2.06</ele>
        <time>2017-08-04T05:12:31Z</time>
      </trkpt>
      <trkpt lat="51.04021" lon="2.6565">
        <ele>2.06</ele>
        <time>2017-08-04T05:12:50Z</time>
      </trkpt>
      <trkpt lat="51.04076" lon="2.65806">
        <ele>2.54</ele>
        <time>2017-08-04T05:13:08Z</time>
      </trkpt>
      <trkpt lat="51.04149" lon="2.65971">
        <ele>2.54</ele>
        <time>2017-08-04T05:13:26Z</time>
      </trkpt>
      <trkpt lat="51.04194" lon="2.66077">
        <ele>2.54</ele>
        <time>2017-08-04T05:13:37Z</time>
      </trkpt>
      <trkpt lat="51.04198" lon="2.66087">
        <ele>2.54</ele>
        <time>2017-08-04T05:13:38Z</time>
      </trkpt>
      <trkpt lat="51.04248" lon="2.66205">
        <ele>2.54</ele>
        <time>2017-08-04T05:13:51Z</time>
      </trkpt>
      <trkpt lat="51.04296" lon="2.66313">
        <ele>2.54</ele>
        <time>2017-08-04T05:14:04Z</time>
      </trkpt>
      <trkpt lat="51.04297" lon="2.66323">
        <ele>2.54</ele>
        <time>2017-08-04T05:14:05Z</time>
      </trkpt>
      <trkpt lat="51.04299" lon="2.66334">
        <ele>2.54</ele>
        <time>2017-08-04T05:14:06Z</time>
      </trkpt>
      <trkpt lat="51.04299" lon="2.66344">
        <ele>2.54</ele>
        <time>2017-08-04T05:14:07Z</time>
      </trkpt>
      <trkpt lat="51.043" lon="2.66355">
        <ele>2.54</ele>
        <time>2017-08-04T05:14:08Z</time>
      </trkpt>
      <trkpt lat="51.04301" lon="2.66427">
        <ele>2.54</ele>
        <time>2017-08-04T05:14:15Z</time>
      </trkpt>
      <trkpt lat="51.04299" lon="2.66437">
        <ele>2.54</ele>
        <time>2017-08-04T05:14:16Z</time>
      </trkpt>
      <trkpt lat="51.04297" lon="2.66448">
        <ele>2.54</ele>
        <time>2017-08-04T05:14:17Z</time>
      </trkpt>
      <trkpt lat="51.04294" lon="2.66457">
        <ele>2.54</ele>
        <time>2017-08-04T05:14:18Z</time>
      </trkpt>
      <trkpt lat="51.04291" lon="2.66466">
        <ele>2.54</ele>
        <time>2017-08-04T05:14:19Z</time>
      </trkpt>
      <trkpt lat="51.0427" lon="2.66554">
        <ele>2.54</ele>
        <time>2017-08-04T05:14:28Z</time>
      </trkpt>
      <trkpt lat="51.04269" lon="2.66564">
        <ele>1.58</ele>
        <time>2017-08-04T05:14:29Z</time>
      </trkpt>
      <trkpt lat="51.04269" lon="2.66574">
        <ele>1.58</ele>
        <time>2017-08-04T05:14:30Z</time>
      </trkpt>
      <trkpt lat="51.04271" lon="2.66635">
        <ele>1.58</ele>
        <time>2017-08-04T05:14:36Z</time>
      </trkpt>
      <trkpt lat="51.0427" lon="2.66646">
        <ele>1.1</ele>
        <time>2017-08-04T05:14:37Z</time>
      </trkpt>
      <trkpt lat="51.04235" lon="2.6683">
        <ele>1.1</ele>
        <time>2017-08-04T05:14:56Z</time>
      </trkpt>
      <trkpt lat="51.04194" lon="2.66996">
        <ele>1.1</ele>
        <time>2017-08-04T05:15:13Z</time>
      </trkpt>
      <trkpt lat="51.04148" lon="2.67185">
        <ele>1.1</ele>
        <time>2017-08-04T05:15:33Z</time>
      </trkpt>
      <trkpt lat="51.04142" lon="2.67221">
        <ele>1.1</ele>
        <time>2017-08-04T05:15:37Z</time>
      </trkpt>
      <trkpt lat="51.04137" lon="2.67246">
        <ele>1.1</ele>
        <time>2017-08-04T05:15:40Z</time>
      </trkpt>
      <trkpt lat="51.04137" lon="2.67254">
        <ele>1.1</ele>
        <time>2017-08-04T05:15:41Z</time>
      </trkpt>
      <trkpt lat="51.04136" lon="2.67268">
        <ele>1.1</ele>
        <time>2017-08-04T05:15:43Z</time>
      </trkpt>
      <trkpt lat="51.04136" lon="2.67275">
        <ele>2.54</ele>
        <time>2017-08-04T05:15:44Z</time>
      </trkpt>
      <trkpt lat="51.04137" lon="2.6728">
        <ele>2.54</ele>
        <time>2017-08-04T05:15:45Z</time>
      </trkpt>
      <trkpt lat="51.04138" lon="2.67285">
        <ele>2.54</ele>
        <time>2017-08-04T05:15:46Z</time>
      </trkpt>
      <trkpt lat="51.04139" lon="2.67289">
        <ele>3.02</ele>
        <time>2017-08-04T05:15:47Z</time>
      </trkpt>
      <trkpt lat="51.0414" lon="2.67291">
        <ele>3.02</ele>
        <time>2017-08-04T05:15:48Z</time>
      </trkpt>
      <trkpt lat="51.0414" lon="2.673">
        <ele>3.02</ele>
        <time>2017-08-04T05:15:55Z</time>
      </trkpt>
      <trkpt lat="51.0414" lon="2.67303">
        <ele>3.02</ele>
        <time>2017-08-04T05:15:56Z</time>
      </trkpt>
      <trkpt lat="51.04142" lon="2.67306">
        <ele>3.02</ele>
        <time>2017-08-04T05:15:57Z</time>
      </trkpt>
      <trkpt lat="51.04144" lon="2.67308">
        <ele>3.02</ele>
        <time>2017-08-04T05:15:58Z</time>
      </trkpt>
      <trkpt lat="51.04148" lon="2.67308">
        <ele>3.02</ele>
        <time>2017-08-04T05:15:59Z</time>
      </trkpt>
      <trkpt lat="51.04151" lon="2.67307">
        <ele>3.02</ele>
        <time>2017-08-04T05:16:00Z</time>
      </trkpt>
      <trkpt lat="51.04157" lon="2.67309">
        <ele>2.06</ele>
        <time>2017-08-04T05:16:02Z</time>
      </trkpt>
      <trkpt lat="51.0416" lon="2.67314">
        <ele>2.06</ele>
        <time>2017-08-04T05:16:03Z</time>
      </trkpt>
      <trkpt lat="51.04162" lon="2.67318">
        <ele>2.06</ele>
        <time>2017-08-04T05:16:04Z</time>
      </trkpt>
      <trkpt lat="51.04164" lon="2.67323">
        <ele>1.58</ele>
        <time>2017-08-04T05:16:05Z</time>
      </trkpt>
      <trkpt lat="51.04167" lon="2.67328">
        <ele>1.58</ele>
        <time>2017-08-04T05:16:06Z</time>
      </trkpt>
      <trkpt lat="51.04169" lon="2.67334">
        <ele>1.58</ele>
        <time>2017-08-04T05:16:07Z</time>
      </trkpt>
      <trkpt lat="51.04171" lon="2.67341">
        <ele>1.58</ele>
        <time>2017-08-04T05:16:08Z</time>
      </trkpt>
      <trkpt lat="51.04172" lon="2.67348">
        <ele>1.58</ele>
        <time>2017-08-04T05:16:09Z</time>
      </trkpt>
      <trkpt lat="51.04173" lon="2.67355">
        <ele>1.58</ele>
        <time>2017-08-04T05:16:10Z</time>
      </trkpt>
      <trkpt lat="51.04173" lon="2.67363">
        <ele>1.58</ele>
        <time>2017-08-04T05:16:11Z</time>
      </trkpt>
      <trkpt lat="51.04173" lon="2.67371">
        <ele>1.58</ele>
        <time>2017-08-04T05:16:12Z</time>
      </trkpt>
      <trkpt lat="51.04168" lon="2.67463">
        <ele>1.1</ele>
        <time>2017-08-04T05:16:23Z</time>
      </trkpt>
      <trkpt lat="51.04168" lon="2.67471">
        <ele>1.1</ele>
        <time>2017-08-04T05:16:24Z</time>
      </trkpt>
      <trkpt lat="51.04171" lon="2.67507">
        <ele>1.1</ele>
        <time>2017-08-04T05:16:28Z</time>
      </trkpt>
      <trkpt lat="51.04167" lon="2.6755">
        <ele>1.1</ele>
        <time>2017-08-04T05:16:33Z</time>
      </trkpt>
      <trkpt lat="51.04165" lon="2.67557">
        <ele>1.1</ele>
        <time>2017-08-04T05:16:34Z</time>
      </trkpt>
      <trkpt lat="51.04162" lon="2.67565">
        <ele>1.1</ele>
        <time>2017-08-04T05:16:35Z</time>
      </trkpt>
      <trkpt lat="51.04157" lon="2.67571">
        <ele>1.1</ele>
        <time>2017-08-04T05:16:36Z</time>
      </trkpt>
      <trkpt lat="51.04153" lon="2.67576">
        <ele>1.1</ele>
        <time>2017-08-04T05:16:37Z</time>
      </trkpt>
      <trkpt lat="51.04149" lon="2.67581">
        <ele>1.1</ele>
        <time>2017-08-04T05:16:38Z</time>
      </trkpt>
      <trkpt lat="51.04144" lon="2.67585">
        <ele>1.1</ele>
        <time>2017-08-04T05:16:39Z</time>
      </trkpt>
      <trkpt lat="51.04113" lon="2.67606">
        <ele>0.62</ele>
        <time>2017-08-04T05:16:45Z</time>
      </trkpt>
      <trkpt lat="51.04109" lon="2.67607">
        <ele>0.62</ele>
        <time>2017-08-04T05:16:46Z</time>
      </trkpt>
      <trkpt lat="51.04104" lon="2.67608">
        <ele>0.62</ele>
        <time>2017-08-04T05:16:47Z</time>
      </trkpt>
      <trkpt lat="51.04099" lon="2.67609">
        <ele>0.62</ele>
        <time>2017-08-04T05:16:48Z</time>
      </trkpt>
      <trkpt lat="51.04094" lon="2.67607">
        <ele>0.62</ele>
        <time>2017-08-04T05:16:49Z</time>
      </trkpt>
      <trkpt lat="51.04089" lon="2.67605">
        <ele>0.62</ele>
        <time>2017-08-04T05:16:50Z</time>
      </trkpt>
      <trkpt lat="51.04084" lon="2.67603">
        <ele>0.62</ele>
        <time>2017-08-04T05:16:51Z</time>
      </trkpt>
      <trkpt lat="51.04064" lon="2.67593">
        <ele>0.62</ele>
        <time>2017-08-04T05:16:55Z</time>
      </trkpt>
      <trkpt lat="51.04021" lon="2.67588">
        <ele>0.62</ele>
        <time>2017-08-04T05:17:03Z</time>
      </trkpt>
      <trkpt lat="51.04015" lon="2.6759">
        <ele>0.62</ele>
        <time>2017-08-04T05:17:04Z</time>
      </trkpt>
      <trkpt lat="51.0401" lon="2.67594">
        <ele>0.62</ele>
        <time>2017-08-04T05:17:05Z</time>
      </trkpt>
      <trkpt lat="51.04006" lon="2.67598">
        <ele>0.62</ele>
        <time>2017-08-04T05:17:06Z</time>
      </trkpt>
      <trkpt lat="51.04002" lon="2.67604">
        <ele>0.62</ele>
        <time>2017-08-04T05:17:07Z</time>
      </trkpt>
      <trkpt lat="51.03998" lon="2.67609">
        <ele>0.62</ele>
        <time>2017-08-04T05:17:08Z</time>
      </trkpt>
      <trkpt lat="51.03994" lon="2.67615">
        <ele>0.62</ele>
        <time>2017-08-04T05:17:09Z</time>
      </trkpt>
      <trkpt lat="51.0399" lon="2.67623">
        <ele>0.62</ele>
        <time>2017-08-04T05:17:10Z</time>
      </trkpt>
      <trkpt lat="51.03987" lon="2.67629">
        <ele>0.62</ele>
        <time>2017-08-04T05:17:11Z</time>
      </trkpt>
      <trkpt lat="51.03917" lon="2.67792">
        <ele>0.62</ele>
        <time>2017-08-04T05:17:32Z</time>
      </trkpt>
      <trkpt lat="51.03903" lon="2.67916">
        <ele>0.62</ele>
        <time>2017-08-04T05:17:46Z</time>
      </trkpt>
      <trkpt lat="51.03876" lon="2.68084">
        <ele>0.62</ele>
        <time>2017-08-04T05:18:05Z</time>
      </trkpt>
      <trkpt lat="51.03851" lon="2.68225">
        <ele>0.62</ele>
        <time>2017-08-04T05:18:22Z</time>
      </trkpt>
      <trkpt lat="51.03849" lon="2.68232">
        <ele>0.62</ele>
        <time>2017-08-04T05:18:23Z</time>
      </trkpt>
      <trkpt lat="51.03845" lon="2.68238">
        <ele>0.62</ele>
        <time>2017-08-04T05:18:24Z</time>
      </trkpt>
      <trkpt lat="51.0384" lon="2.68242">
        <ele>0.62</ele>
        <time>2017-08-04T05:18:25Z</time>
      </trkpt>
      <trkpt lat="51.03836" lon="2.68244">
        <ele>0.14</ele>
        <time>2017-08-04T05:18:26Z</time>
      </trkpt>
      <trkpt lat="51.0383" lon="2.68245">
        <ele>0.62</ele>
        <time>2017-08-04T05:18:27Z</time>
      </trkpt>
      <trkpt lat="51.03825" lon="2.68245">
        <ele>0.14</ele>
        <time>2017-08-04T05:18:28Z</time>
      </trkpt>
      <trkpt lat="51.03819" lon="2.68244">
        <ele>-0.34</ele>
        <time>2017-08-04T05:18:29Z</time>
      </trkpt>
      <trkpt lat="51.03793" lon="2.68242">
        <ele>-0.34</ele>
        <time>2017-08-04T05:18:34Z</time>
      </trkpt>
      <trkpt lat="51.03788" lon="2.68243">
        <ele>-0.34</ele>
        <time>2017-08-04T05:18:35Z</time>
      </trkpt>
      <trkpt lat="51.03783" lon="2.68245">
        <ele>-0.34</ele>
        <time>2017-08-04T05:18:36Z</time>
      </trkpt>
      <trkpt lat="51.03778" lon="2.68248">
        <ele>-0.34</ele>
        <time>2017-08-04T05:18:37Z</time>
      </trkpt>
      <trkpt lat="51.03774" lon="2.68251">
        <ele>-0.34</ele>
        <time>2017-08-04T05:18:38Z</time>
      </trkpt>
      <trkpt lat="51.03769" lon="2.68256">
        <ele>0.62</ele>
        <time>2017-08-04T05:18:39Z</time>
      </trkpt>
      <trkpt lat="51.03765" lon="2.68261">
        <ele>0.62</ele>
        <time>2017-08-04T05:18:40Z</time>
      </trkpt>
      <trkpt lat="51.03761" lon="2.68267">
        <ele>0.62</ele>
        <time>2017-08-04T05:18:41Z</time>
      </trkpt>
      <trkpt lat="51.03757" lon="2.68273">
        <ele>0.62</ele>
        <time>2017-08-04T05:18:42Z</time>
      </trkpt>
      <trkpt lat="51.03754" lon="2.6828">
        <ele>0.62</ele>
        <time>2017-08-04T05:18:43Z</time>
      </trkpt>
      <trkpt lat="51.0375" lon="2.68287">
        <ele>0.62</ele>
        <time>2017-08-04T05:18:44Z</time>
      </trkpt>
      <trkpt lat="51.03726" lon="2.68346">
        <ele>1.1</ele>
        <time>2017-08-04T05:18:52Z</time>
      </trkpt>
      <trkpt lat="51.03723" lon="2.68353">
        <ele>1.1</ele>
        <time>2017-08-04T05:18:53Z</time>
      </trkpt>
      <trkpt lat="51.03719" lon="2.68358">
        <ele>1.1</ele>
        <time>2017-08-04T05:18:54Z</time>
      </trkpt>
      <trkpt lat="51.03715" lon="2.68363">
        <ele>1.1</ele>
        <time>2017-08-04T05:18:55Z</time>
      </trkpt>
      <trkpt lat="51.0371" lon="2.68368">
        <ele>0.62</ele>
        <time>2017-08-04T05:18:56Z</time>
      </trkpt>
      <trkpt lat="51.03629" lon="2.68443">
        <ele>0.62</ele>
        <time>2017-08-04T05:19:13Z</time>
      </trkpt>
      <trkpt lat="51.03561" lon="2.68525">
        <ele>0.62</ele>
        <time>2017-08-04T05:19:29Z</time>
      </trkpt>
      <trkpt lat="51.0346" lon="2.68607">
        <ele>1.1</ele>
        <time>2017-08-04T05:19:50Z</time>
      </trkpt>
      <trkpt lat="51.03419" lon="2.68634">
        <ele>1.1</ele>
        <time>2017-08-04T05:19:58Z</time>
      </trkpt>
      <trkpt lat="51.03387" lon="2.68644">
        <ele>1.58</ele>
        <time>2017-08-04T05:20:04Z</time>
      </trkpt>
      <trkpt lat="51.03382" lon="2.68647">
        <ele>2.06</ele>
        <time>2017-08-04T05:20:05Z</time>
      </trkpt>
      <trkpt lat="51.03319" lon="2.68695">
        <ele>-0.82</ele>
        <time>2017-08-04T05:20:17Z</time>
      </trkpt>
      <trkpt lat="51.03241" lon="2.68754">
        <ele>-0.82</ele>
        <time>2017-08-04T05:20:33Z</time>
      </trkpt>
      <trkpt lat="51.03171" lon="2.68821">
        <ele>0.14</ele>
        <time>2017-08-04T05:20:48Z</time>
      </trkpt>
      <trkpt lat="51.03153" lon="2.68852">
        <ele>0.14</ele>
        <time>2017-08-04T05:20:53Z</time>
      </trkpt>
      <trkpt lat="51.03148" lon="2.68857">
        <ele>0.62</ele>
        <time>2017-08-04T05:20:54Z</time>
      </trkpt>
      <trkpt lat="51.03144" lon="2.68861">
        <ele>0.62</ele>
        <time>2017-08-04T05:20:55Z</time>
      </trkpt>
      <trkpt lat="51.03139" lon="2.68864">
        <ele>0.62</ele>
        <time>2017-08-04T05:20:56Z</time>
      </trkpt>
      <trkpt lat="51.03134" lon="2.68868">
        <ele>0.14</ele>
        <time>2017-08-04T05:20:57Z</time>
      </trkpt>
      <trkpt lat="51.03041" lon="2.68937">
        <ele>0.62</ele>
        <time>2017-08-04T05:21:16Z</time>
      </trkpt>
      <trkpt lat="51.0296" lon="2.69003">
        <ele>-0.82</ele>
        <time>2017-08-04T05:21:33Z</time>
      </trkpt>
      <trkpt lat="51.02859" lon="2.69082">
        <ele>-0.82</ele>
        <time>2017-08-04T05:21:54Z</time>
      </trkpt>
      <trkpt lat="51.02816" lon="2.69142">
        <ele>0.62</ele>
        <time>2017-08-04T05:22:07Z</time>
      </trkpt>
      <trkpt lat="51.02784" lon="2.69238">
        <ele>0.62</ele>
        <time>2017-08-04T05:22:20Z</time>
      </trkpt>
      <trkpt lat="51.02755" lon="2.69353">
        <ele>0.62</ele>
        <time>2017-08-04T05:22:35Z</time>
      </trkpt>
      <trkpt lat="51.02722" lon="2.69478">
        <ele>0.62</ele>
        <time>2017-08-04T05:22:51Z</time>
      </trkpt>
      <trkpt lat="51.02702" lon="2.69549">
        <ele>0.62</ele>
        <time>2017-08-04T05:23:00Z</time>
      </trkpt>
      <trkpt lat="51.02672" lon="2.69659">
        <ele>0.62</ele>
        <time>2017-08-04T05:23:14Z</time>
      </trkpt>
      <trkpt lat="51.02643" lon="2.69765">
        <ele>0.62</ele>
        <time>2017-08-04T05:23:28Z</time>
      </trkpt>
      <trkpt lat="51.02609" lon="2.6989">
        <ele>0.62</ele>
        <time>2017-08-04T05:23:44Z</time>
      </trkpt>
      <trkpt lat="51.02597" lon="2.6993">
        <ele>0.62</ele>
        <time>2017-08-04T05:23:49Z</time>
      </trkpt>
      <trkpt lat="51.02595" lon="2.69938">
        <ele>0.62</ele>
        <time>2017-08-04T05:23:50Z</time>
      </trkpt>
      <trkpt lat="51.02557" lon="2.70043">
        <ele>0.62</ele>
        <time>2017-08-04T05:24:04Z</time>
      </trkpt>
      <trkpt lat="51.02521" lon="2.70137">
        <ele>0.62</ele>
        <time>2017-08-04T05:24:17Z</time>
      </trkpt>
      <trkpt lat="51.02462" lon="2.70241">
        <ele>0.62</ele>
        <time>2017-08-04T05:24:34Z</time>
      </trkpt>
      <trkpt lat="51.02421" lon="2.70371">
        <ele>2.06</ele>
        <time>2017-08-04T05:24:51Z</time>
      </trkpt>
      <trkpt lat="51.02414" lon="2.7039">
        <ele>2.06</ele>
        <time>2017-08-04T05:24:54Z</time>
      </trkpt>
      <trkpt lat="51.02355" lon="2.70457">
        <ele>3.02</ele>
        <time>2017-08-04T05:25:09Z</time>
      </trkpt>
      <trkpt lat="51.0231" lon="2.70519">
        <ele>3.5</ele>
        <time>2017-08-04T05:25:21Z</time>
      </trkpt>
      <trkpt lat="51.02308" lon="2.70526">
        <ele>3.5</ele>
        <time>2017-08-04T05:25:22Z</time>
      </trkpt>
      <trkpt lat="51.02307" lon="2.70534">
        <ele>3.5</ele>
        <time>2017-08-04T05:25:23Z</time>
      </trkpt>
      <trkpt lat="51.02308" lon="2.70543">
        <ele>3.5</ele>
        <time>2017-08-04T05:25:24Z</time>
      </trkpt>
      <trkpt lat="51.02309" lon="2.70549">
        <ele>3.5</ele>
        <time>2017-08-04T05:25:25Z</time>
      </trkpt>
      <trkpt lat="51.0231" lon="2.70557">
        <ele>3.5</ele>
        <time>2017-08-04T05:25:26Z</time>
      </trkpt>
      <trkpt lat="51.0232" lon="2.70607">
        <ele>3.5</ele>
        <time>2017-08-04T05:25:32Z</time>
      </trkpt>
      <trkpt lat="51.0233" lon="2.7065">
        <ele>3.5</ele>
        <time>2017-08-04T05:25:37Z</time>
      </trkpt>
      <trkpt lat="51.02333" lon="2.70658">
        <ele>3.5</ele>
        <time>2017-08-04T05:25:38Z</time>
      </trkpt>
      <trkpt lat="51.02337" lon="2.70667">
        <ele>3.5</ele>
        <time>2017-08-04T05:25:39Z</time>
      </trkpt>
      <trkpt lat="51.02341" lon="2.70674">
        <ele>3.5</ele>
        <time>2017-08-04T05:25:40Z</time>
      </trkpt>
      <trkpt lat="51.02346" lon="2.70681">
        <ele>3.5</ele>
        <time>2017-08-04T05:25:41Z</time>
      </trkpt>
      <trkpt lat="51.02351" lon="2.70688">
        <ele>3.5</ele>
        <time>2017-08-04T05:25:42Z</time>
      </trkpt>
      <trkpt lat="51.02418" lon="2.70776">
        <ele>3.5</ele>
        <time>2017-08-04T05:25:56Z</time>
      </trkpt>
      <trkpt lat="51.02421" lon="2.70784">
        <ele>3.5</ele>
        <time>2017-08-04T05:25:57Z</time>
      </trkpt>
      <trkpt lat="51.02424" lon="2.70793">
        <ele>3.5</ele>
        <time>2017-08-04T05:25:58Z</time>
      </trkpt>
      <trkpt lat="51.02424" lon="2.70802">
        <ele>2.06</ele>
        <time>2017-08-04T05:25:59Z</time>
      </trkpt>
      <trkpt lat="51.02423" lon="2.70812">
        <ele>2.06</ele>
        <time>2017-08-04T05:26:00Z</time>
      </trkpt>
      <trkpt lat="51.02422" lon="2.7082">
        <ele>2.06</ele>
        <time>2017-08-04T05:26:01Z</time>
      </trkpt>
      <trkpt lat="51.02419" lon="2.7083">
        <ele>2.06</ele>
        <time>2017-08-04T05:26:02Z</time>
      </trkpt>
      <trkpt lat="51.0241" lon="2.70868">
        <ele>2.06</ele>
        <time>2017-08-04T05:26:06Z</time>
      </trkpt>
      <trkpt lat="51.0241" lon="2.70877">
        <ele>2.06</ele>
        <time>2017-08-04T05:26:07Z</time>
      </trkpt>
      <trkpt lat="51.0241" lon="2.70888">
        <ele>2.06</ele>
        <time>2017-08-04T05:26:08Z</time>
      </trkpt>
      <trkpt lat="51.02411" lon="2.70898">
        <ele>2.06</ele>
        <time>2017-08-04T05:26:09Z</time>
      </trkpt>
      <trkpt lat="51.02412" lon="2.70908">
        <ele>2.06</ele>
        <time>2017-08-04T05:26:10Z</time>
      </trkpt>
      <trkpt lat="51.02415" lon="2.70918">
        <ele>2.06</ele>
        <time>2017-08-04T05:26:11Z</time>
      </trkpt>
      <trkpt lat="51.02418" lon="2.70929">
        <ele>2.06</ele>
        <time>2017-08-04T05:26:12Z</time>
      </trkpt>
      <trkpt lat="51.0242" lon="2.70938">
        <ele>2.06</ele>
        <time>2017-08-04T05:26:13Z</time>
      </trkpt>
      <trkpt lat="51.02431" lon="2.70967">
        <ele>2.06</ele>
        <time>2017-08-04T05:26:16Z</time>
      </trkpt>
      <trkpt lat="51.02436" lon="2.70975">
        <ele>2.06</ele>
        <time>2017-08-04T05:26:17Z</time>
      </trkpt>
      <trkpt lat="51.02469" lon="2.71021">
        <ele>2.06</ele>
        <time>2017-08-04T05:26:23Z</time>
      </trkpt>
      <trkpt lat="51.02473" lon="2.71029">
        <ele>1.58</ele>
        <time>2017-08-04T05:26:24Z</time>
      </trkpt>
      <trkpt lat="51.02477" lon="2.71038">
        <ele>1.58</ele>
        <time>2017-08-04T05:26:25Z</time>
      </trkpt>
      <trkpt lat="51.02481" lon="2.71047">
        <ele>1.58</ele>
        <time>2017-08-04T05:26:26Z</time>
      </trkpt>
      <trkpt lat="51.02484" lon="2.71057">
        <ele>1.58</ele>
        <time>2017-08-04T05:26:27Z</time>
      </trkpt>
      <trkpt lat="51.02501" lon="2.71126">
        <ele>1.1</ele>
        <time>2017-08-04T05:26:34Z</time>
      </trkpt>
      <trkpt lat="51.02502" lon="2.71136">
        <ele>1.1</ele>
        <time>2017-08-04T05:26:35Z</time>
      </trkpt>
      <trkpt lat="51.02502" lon="2.71148">
        <ele>1.1</ele>
        <time>2017-08-04T05:26:36Z</time>
      </trkpt>
      <trkpt lat="51.02501" lon="2.71157">
        <ele>0.62</ele>
        <time>2017-08-04T05:26:37Z</time>
      </trkpt>
      <trkpt lat="51.02497" lon="2.71168">
        <ele>0.62</ele>
        <time>2017-08-04T05:26:38Z</time>
      </trkpt>
      <trkpt lat="51.02494" lon="2.71174">
        <ele>0.62</ele>
        <time>2017-08-04T05:26:39Z</time>
      </trkpt>
      <trkpt lat="51.0249" lon="2.7118">
        <ele>0.62</ele>
        <time>2017-08-04T05:26:40Z</time>
      </trkpt>
      <trkpt lat="51.02485" lon="2.71186">
        <ele>0.62</ele>
        <time>2017-08-04T05:26:41Z</time>
      </trkpt>
      <trkpt lat="51.0248" lon="2.7119">
        <ele>0.62</ele>
        <time>2017-08-04T05:26:42Z</time>
      </trkpt>
      <trkpt lat="51.02393" lon="2.71245">
        <ele>0.14</ele>
        <time>2017-08-04T05:26:58Z</time>
      </trkpt>
      <trkpt lat="51.02388" lon="2.7125">
        <ele>0.14</ele>
        <time>2017-08-04T05:26:59Z</time>
      </trkpt>
      <trkpt lat="51.02354" lon="2.71314">
        <ele>0.14</ele>
        <time>2017-08-04T05:27:08Z</time>
      </trkpt>
      <trkpt lat="51.02354" lon="2.71324">
        <ele>0.14</ele>
        <time>2017-08-04T05:27:09Z</time>
      </trkpt>
      <trkpt lat="51.02357" lon="2.71332">
        <ele>0.14</ele>
        <time>2017-08-04T05:27:10Z</time>
      </trkpt>
      <trkpt lat="51.02361" lon="2.7134">
        <ele>0.14</ele>
        <time>2017-08-04T05:27:11Z</time>
      </trkpt>
      <trkpt lat="51.02365" lon="2.71347">
        <ele>0.14</ele>
        <time>2017-08-04T05:27:12Z</time>
      </trkpt>
      <trkpt lat="51.02417" lon="2.71476">
        <ele>0.14</ele>
        <time>2017-08-04T05:27:27Z</time>
      </trkpt>
      <trkpt lat="51.02446" lon="2.71586">
        <ele>1.58</ele>
        <time>2017-08-04T05:27:42Z</time>
      </trkpt>
      <trkpt lat="51.02449" lon="2.71596">
        <ele>2.06</ele>
        <time>2017-08-04T05:27:45Z</time>
      </trkpt>
      <trkpt lat="51.02449" lon="2.71599">
        <ele>2.06</ele>
        <time>2017-08-04T05:27:46Z</time>
      </trkpt>
      <trkpt lat="51.02447" lon="2.71602">
        <ele>2.06</ele>
        <time>2017-08-04T05:27:47Z</time>
      </trkpt>
      <trkpt lat="51.02445" lon="2.71605">
        <ele>2.06</ele>
        <time>2017-08-04T05:27:48Z</time>
      </trkpt>
      <trkpt lat="51.02442" lon="2.71609">
        <ele>2.06</ele>
        <time>2017-08-04T05:27:49Z</time>
      </trkpt>
      <trkpt lat="51.02431" lon="2.71622">
        <ele>2.06</ele>
        <time>2017-08-04T05:27:52Z</time>
      </trkpt>
      <trkpt lat="51.02427" lon="2.71627">
        <ele>2.06</ele>
        <time>2017-08-04T05:27:53Z</time>
      </trkpt>
      <trkpt lat="51.02419" lon="2.71637">
        <ele>2.06</ele>
        <time>2017-08-04T05:27:55Z</time>
      </trkpt>
      <trkpt lat="51.02414" lon="2.71643">
        <ele>2.06</ele>
        <time>2017-08-04T05:27:56Z</time>
      </trkpt>
      <trkpt lat="51.02388" lon="2.71671">
        <ele>2.06</ele>
        <time>2017-08-04T05:28:05Z</time>
      </trkpt>
      <trkpt lat="51.02387" lon="2.7167">
        <ele>1.1</ele>
        <time>2017-08-04T05:28:34Z</time>
      </trkpt>
      <trkpt lat="51.02384" lon="2.71678">
        <ele>1.1</ele>
        <time>2017-08-04T05:28:52Z</time>
      </trkpt>
      <trkpt lat="51.02349" lon="2.71721">
        <ele>1.1</ele>
        <time>2017-08-04T05:29:02Z</time>
      </trkpt>
      <trkpt lat="51.0228" lon="2.71808">
        <ele>1.1</ele>
        <time>2017-08-04T05:29:17Z</time>
      </trkpt>
      <trkpt lat="51.02217" lon="2.71885">
        <ele>1.1</ele>
        <time>2017-08-04T05:29:30Z</time>
      </trkpt>
      <trkpt lat="51.02131" lon="2.71975">
        <ele>1.1</ele>
        <time>2017-08-04T05:29:47Z</time>
      </trkpt>
      <trkpt lat="51.02048" lon="2.72043">
        <ele>1.1</ele>
        <time>2017-08-04T05:30:03Z</time>
      </trkpt>
      <trkpt lat="51.01983" lon="2.7211">
        <ele>1.1</ele>
        <time>2017-08-04T05:30:17Z</time>
      </trkpt>
      <trkpt lat="51.01935" lon="2.72212">
        <ele>1.1</ele>
        <time>2017-08-04T05:30:31Z</time>
      </trkpt>
      <trkpt lat="51.01907" lon="2.72292">
        <ele>1.1</ele>
        <time>2017-08-04T05:30:41Z</time>
      </trkpt>
      <trkpt lat="51.01867" lon="2.72414">
        <ele>1.1</ele>
        <time>2017-08-04T05:30:56Z</time>
      </trkpt>
      <trkpt lat="51.01829" lon="2.72515">
        <ele>1.1</ele>
        <time>2017-08-04T05:31:09Z</time>
      </trkpt>
      <trkpt lat="51.01824" lon="2.72521">
        <ele>1.1</ele>
        <time>2017-08-04T05:31:10Z</time>
      </trkpt>
      <trkpt lat="51.01774" lon="2.72583">
        <ele>2.54</ele>
        <time>2017-08-04T05:31:22Z</time>
      </trkpt>
      <trkpt lat="51.01705" lon="2.72651">
        <ele>3.02</ele>
        <time>2017-08-04T05:31:37Z</time>
      </trkpt>
      <trkpt lat="51.01679" lon="2.72673">
        <ele>1.58</ele>
        <time>2017-08-04T05:31:42Z</time>
      </trkpt>
      <trkpt lat="51.01669" lon="2.72683">
        <ele>1.58</ele>
        <time>2017-08-04T05:31:44Z</time>
      </trkpt>
      <trkpt lat="51.01599" lon="2.72758">
        <ele>1.58</ele>
        <time>2017-08-04T05:32:00Z</time>
      </trkpt>
      <trkpt lat="51.01596" lon="2.72758">
        <ele>1.58</ele>
        <time>2017-08-04T05:32:01Z</time>
      </trkpt>
      <trkpt lat="51.01592" lon="2.72755">
        <ele>1.58</ele>
        <time>2017-08-04T05:32:02Z</time>
      </trkpt>
      <trkpt lat="51.01589" lon="2.72753">
        <ele>3.02</ele>
        <time>2017-08-04T05:32:03Z</time>
      </trkpt>
      <trkpt lat="51.01586" lon="2.72748">
        <ele>3.5</ele>
        <time>2017-08-04T05:32:04Z</time>
      </trkpt>
      <trkpt lat="51.01584" lon="2.72744">
        <ele>3.5</ele>
        <time>2017-08-04T05:32:05Z</time>
      </trkpt>
      <trkpt lat="51.01583" lon="2.72743">
        <ele>3.5</ele>
        <time>2017-08-04T05:32:06Z</time>
      </trkpt>
      <trkpt lat="51.01581" lon="2.72742">
        <ele>3.5</ele>
        <time>2017-08-04T05:32:07Z</time>
      </trkpt>
      <trkpt lat="51.01579" lon="2.72744">
        <ele>3.5</ele>
        <time>2017-08-04T05:32:08Z</time>
      </trkpt>
      <trkpt lat="51.01578" lon="2.72749">
        <ele>3.98</ele>
        <time>2017-08-04T05:32:09Z</time>
      </trkpt>
      <trkpt lat="51.01579" lon="2.72753">
        <ele>3.98</ele>
        <time>2017-08-04T05:32:10Z</time>
      </trkpt>
      <trkpt lat="51.01581" lon="2.72757">
        <ele>3.98</ele>
        <time>2017-08-04T05:32:11Z</time>
      </trkpt>
      <trkpt lat="51.0159" lon="2.72786">
        <ele>4.46</ele>
        <time>2017-08-04T05:32:22Z</time>
      </trkpt>
      <trkpt lat="51.01589" lon="2.72783">
        <ele>4.46</ele>
        <time>2017-08-04T05:32:26Z</time>
      </trkpt>
      <trkpt lat="51.01582" lon="2.72775">
        <ele>2.54</ele>
        <time>2017-08-04T05:32:40Z</time>
      </trkpt>
      <trkpt lat="51.01574" lon="2.72782">
        <ele>2.54</ele>
        <time>2017-08-04T05:32:51Z</time>
      </trkpt>
      <trkpt lat="51.01539" lon="2.72812">
        <ele>2.06</ele>
        <time>2017-08-04T05:33:02Z</time>
      </trkpt>
      <trkpt lat="51.01532" lon="2.72817">
        <ele>2.06</ele>
        <time>2017-08-04T05:33:04Z</time>
      </trkpt>
      <trkpt lat="51.01528" lon="2.7282">
        <ele>2.06</ele>
        <time>2017-08-04T05:33:05Z</time>
      </trkpt>
      <trkpt lat="51.01498" lon="2.72843">
        <ele>2.06</ele>
        <time>2017-08-04T05:33:12Z</time>
      </trkpt>
      <trkpt lat="51.01426" lon="2.72889">
        <ele>2.06</ele>
        <time>2017-08-04T05:33:27Z</time>
      </trkpt>
      <trkpt lat="51.01345" lon="2.72931">
        <ele>1.58</ele>
        <time>2017-08-04T05:33:42Z</time>
      </trkpt>
      <trkpt lat="51.01251" lon="2.7298">
        <ele>1.58</ele>
        <time>2017-08-04T05:34:00Z</time>
      </trkpt>
      <trkpt lat="51.01137" lon="2.7304">
        <ele>2.54</ele>
        <time>2017-08-04T05:34:22Z</time>
      </trkpt>
      <trkpt lat="51.01045" lon="2.73095">
        <ele>3.02</ele>
        <time>2017-08-04T05:34:39Z</time>
      </trkpt>
      <trkpt lat="51.0094" lon="2.7316">
        <ele>1.58</ele>
        <time>2017-08-04T05:34:57Z</time>
      </trkpt>
      <trkpt lat="51.00829" lon="2.73226">
        <ele>1.58</ele>
        <time>2017-08-04T05:35:16Z</time>
      </trkpt>
      <trkpt lat="51.00722" lon="2.73285">
        <ele>1.58</ele>
        <time>2017-08-04T05:35:34Z</time>
      </trkpt>
      <trkpt lat="51.00606" lon="2.73349">
        <ele>1.58</ele>
        <time>2017-08-04T05:35:54Z</time>
      </trkpt>
      <trkpt lat="51.00527" lon="2.73392">
        <ele>1.58</ele>
        <time>2017-08-04T05:36:08Z</time>
      </trkpt>
      <trkpt lat="51.00431" lon="2.73444">
        <ele>1.1</ele>
        <time>2017-08-04T05:36:24Z</time>
      </trkpt>
      <trkpt lat="51.00347" lon="2.73491">
        <ele>1.1</ele>
        <time>2017-08-04T05:36:39Z</time>
      </trkpt>
      <trkpt lat="51.00268" lon="2.73537">
        <ele>1.1</ele>
        <time>2017-08-04T05:36:53Z</time>
      </trkpt>
      <trkpt lat="51.00162" lon="2.73575">
        <ele>1.1</ele>
        <time>2017-08-04T05:37:11Z</time>
      </trkpt>
      <trkpt lat="51.00077" lon="2.73592">
        <ele>1.1</ele>
        <time>2017-08-04T05:37:25Z</time>
      </trkpt>
      <trkpt lat="51.00041" lon="2.73599">
        <ele>0.14</ele>
        <time>2017-08-04T05:37:31Z</time>
      </trkpt>
      <trkpt lat="50.99956" lon="2.73613">
        <ele>-0.34</ele>
        <time>2017-08-04T05:37:45Z</time>
      </trkpt>
      <trkpt lat="50.99944" lon="2.73615">
        <ele>1.1</ele>
        <time>2017-08-04T05:37:47Z</time>
      </trkpt>
      <trkpt lat="50.9987" lon="2.73627">
        <ele>1.1</ele>
        <time>2017-08-04T05:38:00Z</time>
      </trkpt>
      <trkpt lat="50.99788" lon="2.73645">
        <ele>1.1</ele>
        <time>2017-08-04T05:38:14Z</time>
      </trkpt>
      <trkpt lat="50.99696" lon="2.73675">
        <ele>1.58</ele>
        <time>2017-08-04T05:38:30Z</time>
      </trkpt>
      <trkpt lat="50.9958" lon="2.73717">
        <ele>2.06</ele>
        <time>2017-08-04T05:38:49Z</time>
      </trkpt>
      <trkpt lat="50.9949" lon="2.7375">
        <ele>1.1</ele>
        <time>2017-08-04T05:39:04Z</time>
      </trkpt>
      <trkpt lat="50.99379" lon="2.73793">
        <ele>1.1</ele>
        <time>2017-08-04T05:39:23Z</time>
      </trkpt>
      <trkpt lat="50.9925" lon="2.73844">
        <ele>0.62</ele>
        <time>2017-08-04T05:39:43Z</time>
      </trkpt>
      <trkpt lat="50.99145" lon="2.73887">
        <ele>-0.34</ele>
        <time>2017-08-04T05:40:00Z</time>
      </trkpt>
      <trkpt lat="50.99055" lon="2.73923">
        <ele>1.1</ele>
        <time>2017-08-04T05:40:15Z</time>
      </trkpt>
      <trkpt lat="50.98948" lon="2.73965">
        <ele>1.1</ele>
        <time>2017-08-04T05:40:33Z</time>
      </trkpt>
      <trkpt lat="50.98851" lon="2.74004">
        <ele>1.1</ele>
        <time>2017-08-04T05:40:49Z</time>
      </trkpt>
      <trkpt lat="50.98765" lon="2.74039">
        <ele>1.1</ele>
        <time>2017-08-04T05:41:04Z</time>
      </trkpt>
      <trkpt lat="50.98661" lon="2.74081">
        <ele>1.1</ele>
        <time>2017-08-04T05:41:21Z</time>
      </trkpt>
      <trkpt lat="50.98547" lon="2.74125">
        <ele>1.1</ele>
        <time>2017-08-04T05:41:40Z</time>
      </trkpt>
      <trkpt lat="50.98456" lon="2.74163">
        <ele>1.1</ele>
        <time>2017-08-04T05:41:56Z</time>
      </trkpt>
      <trkpt lat="50.98376" lon="2.7418">
        <ele>1.1</ele>
        <time>2017-08-04T05:42:10Z</time>
      </trkpt>
      <trkpt lat="50.98296" lon="2.7418">
        <ele>1.1</ele>
        <time>2017-08-04T05:42:24Z</time>
      </trkpt>
      <trkpt lat="50.98194" lon="2.74171">
        <ele>1.1</ele>
        <time>2017-08-04T05:42:43Z</time>
      </trkpt>
      <trkpt lat="50.98114" lon="2.74168">
        <ele>1.58</ele>
        <time>2017-08-04T05:42:59Z</time>
      </trkpt>
      <trkpt lat="50.98048" lon="2.74161">
        <ele>1.58</ele>
        <time>2017-08-04T05:43:12Z</time>
      </trkpt>
      <trkpt lat="50.98043" lon="2.74157">
        <ele>1.58</ele>
        <time>2017-08-04T05:43:13Z</time>
      </trkpt>
      <trkpt lat="50.98039" lon="2.74154">
        <ele>1.58</ele>
        <time>2017-08-04T05:43:14Z</time>
      </trkpt>
      <trkpt lat="50.9802" lon="2.74151">
        <ele>1.58</ele>
        <time>2017-08-04T05:43:22Z</time>
      </trkpt>
      <trkpt lat="50.97997" lon="2.74152">
        <ele>1.58</ele>
        <time>2017-08-04T05:43:28Z</time>
      </trkpt>
      <trkpt lat="50.97989" lon="2.74151">
        <ele>1.58</ele>
        <time>2017-08-04T05:43:30Z</time>
      </trkpt>
      <trkpt lat="50.97968" lon="2.74143">
        <ele>1.58</ele>
        <time>2017-08-04T05:43:35Z</time>
      </trkpt>
      <trkpt lat="50.97936" lon="2.74127">
        <ele>1.58</ele>
        <time>2017-08-04T05:43:42Z</time>
      </trkpt>
      <trkpt lat="50.97922" lon="2.7412">
        <ele>1.58</ele>
        <time>2017-08-04T05:43:45Z</time>
      </trkpt>
      <trkpt lat="50.97868" lon="2.74091">
        <ele>0.14</ele>
        <time>2017-08-04T05:43:56Z</time>
      </trkpt>
      <trkpt lat="50.97778" lon="2.74037">
        <ele>1.58</ele>
        <time>2017-08-04T05:44:15Z</time>
      </trkpt>
      <trkpt lat="50.977" lon="2.73992">
        <ele>1.58</ele>
        <time>2017-08-04T05:44:32Z</time>
      </trkpt>
      <trkpt lat="50.97609" lon="2.73936">
        <ele>1.58</ele>
        <time>2017-08-04T05:44:51Z</time>
      </trkpt>
      <trkpt lat="50.9753" lon="2.73877">
        <ele>1.58</ele>
        <time>2017-08-04T05:45:08Z</time>
      </trkpt>
      <trkpt lat="50.97448" lon="2.73806">
        <ele>1.58</ele>
        <time>2017-08-04T05:45:26Z</time>
      </trkpt>
      <trkpt lat="50.97358" lon="2.7375">
        <ele>2.06</ele>
        <time>2017-08-04T05:45:45Z</time>
      </trkpt>
      <trkpt lat="50.97303" lon="2.73736">
        <ele>2.06</ele>
        <time>2017-08-04T05:45:56Z</time>
      </trkpt>
      <trkpt lat="50.97211" lon="2.73735">
        <ele>2.06</ele>
        <time>2017-08-04T05:46:14Z</time>
      </trkpt>
      <trkpt lat="50.97206" lon="2.73734">
        <ele>2.06</ele>
        <time>2017-08-04T05:46:15Z</time>
      </trkpt>
      <trkpt lat="50.97191" lon="2.73733">
        <ele>2.06</ele>
        <time>2017-08-04T05:46:18Z</time>
      </trkpt>
      <trkpt lat="50.97187" lon="2.73734">
        <ele>2.06</ele>
        <time>2017-08-04T05:46:19Z</time>
      </trkpt>
      <trkpt lat="50.97182" lon="2.73737">
        <ele>2.06</ele>
        <time>2017-08-04T05:46:20Z</time>
      </trkpt>
      <trkpt lat="50.97179" lon="2.7374">
        <ele>2.06</ele>
        <time>2017-08-04T05:46:21Z</time>
      </trkpt>
      <trkpt lat="50.97173" lon="2.73744">
        <ele>2.06</ele>
        <time>2017-08-04T05:46:22Z</time>
      </trkpt>
      <trkpt lat="50.97156" lon="2.73756">
        <ele>2.06</ele>
        <time>2017-08-04T05:46:26Z</time>
      </trkpt>
      <trkpt lat="50.97088" lon="2.73794">
        <ele>2.06</ele>
        <time>2017-08-04T05:46:40Z</time>
      </trkpt>
      <trkpt lat="50.97017" lon="2.73839">
        <ele>2.06</ele>
        <time>2017-08-04T05:46:55Z</time>
      </trkpt>
      <trkpt lat="50.96927" lon="2.7388">
        <ele>2.54</ele>
        <time>2017-08-04T05:47:13Z</time>
      </trkpt>
      <trkpt lat="50.96884" lon="2.73884">
        <ele>2.54</ele>
        <time>2017-08-04T05:47:21Z</time>
      </trkpt>
      <trkpt lat="50.96811" lon="2.73863">
        <ele>2.54</ele>
        <time>2017-08-04T05:47:35Z</time>
      </trkpt>
      <trkpt lat="50.96807" lon="2.73861">
        <ele>2.54</ele>
        <time>2017-08-04T05:47:36Z</time>
      </trkpt>
      <trkpt lat="50.96803" lon="2.73858">
        <ele>2.54</ele>
        <time>2017-08-04T05:47:37Z</time>
      </trkpt>
      <trkpt lat="50.96784" lon="2.73847">
        <ele>2.54</ele>
        <time>2017-08-04T05:47:41Z</time>
      </trkpt>
      <trkpt lat="50.96751" lon="2.73818">
        <ele>2.54</ele>
        <time>2017-08-04T05:47:48Z</time>
      </trkpt>
      <trkpt lat="50.96747" lon="2.73813">
        <ele>2.54</ele>
        <time>2017-08-04T05:47:49Z</time>
      </trkpt>
      <trkpt lat="50.96743" lon="2.73809">
        <ele>2.54</ele>
        <time>2017-08-04T05:47:50Z</time>
      </trkpt>
      <trkpt lat="50.9673" lon="2.73792">
        <ele>2.54</ele>
        <time>2017-08-04T05:47:53Z</time>
      </trkpt>
      <trkpt lat="50.96704" lon="2.73755">
        <ele>2.54</ele>
        <time>2017-08-04T05:48:00Z</time>
      </trkpt>
      <trkpt lat="50.96701" lon="2.7375">
        <ele>2.54</ele>
        <time>2017-08-04T05:48:01Z</time>
      </trkpt>
      <trkpt lat="50.96652" lon="2.73677">
        <ele>2.54</ele>
        <time>2017-08-04T05:48:15Z</time>
      </trkpt>
      <trkpt lat="50.9659" lon="2.73607">
        <ele>2.54</ele>
        <time>2017-08-04T05:48:29Z</time>
      </trkpt>
      <trkpt lat="50.96509" lon="2.73556">
        <ele>2.06</ele>
        <time>2017-08-04T05:48:44Z</time>
      </trkpt>
      <trkpt lat="50.9642" lon="2.73531">
        <ele>2.54</ele>
        <time>2017-08-04T05:49:00Z</time>
      </trkpt>
      <trkpt lat="50.96317" lon="2.73503">
        <ele>0.14</ele>
        <time>2017-08-04T05:49:17Z</time>
      </trkpt>
      <trkpt lat="50.96267" lon="2.73498">
        <ele>0.62</ele>
        <time>2017-08-04T05:49:25Z</time>
      </trkpt>
      <trkpt lat="50.96163" lon="2.73507">
        <ele>0.62</ele>
        <time>2017-08-04T05:49:42Z</time>
      </trkpt>
      <trkpt lat="50.96048" lon="2.73531">
        <ele>0.62</ele>
        <time>2017-08-04T05:50:01Z</time>
      </trkpt>
      <trkpt lat="50.95931" lon="2.73544">
        <ele>1.58</ele>
        <time>2017-08-04T05:50:21Z</time>
      </trkpt>
      <trkpt lat="50.95829" lon="2.73543">
        <ele>1.58</ele>
        <time>2017-08-04T05:50:39Z</time>
      </trkpt>
      <trkpt lat="50.95818" lon="2.73543">
        <ele>1.58</ele>
        <time>2017-08-04T05:50:41Z</time>
      </trkpt>
      <trkpt lat="50.95737" lon="2.73541">
        <ele>2.06</ele>
        <time>2017-08-04T05:50:56Z</time>
      </trkpt>
      <trkpt lat="50.95732" lon="2.73541">
        <ele>2.06</ele>
        <time>2017-08-04T05:50:57Z</time>
      </trkpt>
      <trkpt lat="50.95704" lon="2.73538">
        <ele>2.06</ele>
        <time>2017-08-04T05:51:04Z</time>
      </trkpt>
      <trkpt lat="50.95685" lon="2.73537">
        <ele>1.1</ele>
        <time>2017-08-04T05:51:08Z</time>
      </trkpt>
      <trkpt lat="50.95655" lon="2.73532">
        <ele>1.1</ele>
        <time>2017-08-04T05:51:14Z</time>
      </trkpt>
      <trkpt lat="50.95651" lon="2.7353">
        <ele>1.1</ele>
        <time>2017-08-04T05:51:15Z</time>
      </trkpt>
      <trkpt lat="50.95647" lon="2.73525">
        <ele>1.1</ele>
        <time>2017-08-04T05:51:16Z</time>
      </trkpt>
      <trkpt lat="50.95645" lon="2.7352">
        <ele>1.1</ele>
        <time>2017-08-04T05:51:17Z</time>
      </trkpt>
      <trkpt lat="50.95643" lon="2.73513">
        <ele>1.1</ele>
        <time>2017-08-04T05:51:18Z</time>
      </trkpt>
      <trkpt lat="50.95642" lon="2.73506">
        <ele>1.1</ele>
        <time>2017-08-04T05:51:19Z</time>
      </trkpt>
      <trkpt lat="50.95641" lon="2.73499">
        <ele>0.62</ele>
        <time>2017-08-04T05:51:20Z</time>
      </trkpt>
      <trkpt lat="50.9564" lon="2.73492">
        <ele>0.62</ele>
        <time>2017-08-04T05:51:21Z</time>
      </trkpt>
      <trkpt lat="50.95639" lon="2.73485">
        <ele>0.62</ele>
        <time>2017-08-04T05:51:22Z</time>
      </trkpt>
      <trkpt lat="50.9563" lon="2.73418">
        <ele>0.62</ele>
        <time>2017-08-04T05:51:31Z</time>
      </trkpt>
      <trkpt lat="50.95615" lon="2.73297">
        <ele>0.14</ele>
        <time>2017-08-04T05:51:48Z</time>
      </trkpt>
      <trkpt lat="50.95596" lon="2.73181">
        <ele>1.1</ele>
        <time>2017-08-04T05:52:05Z</time>
      </trkpt>
      <trkpt lat="50.95586" lon="2.73138">
        <ele>0.14</ele>
        <time>2017-08-04T05:52:12Z</time>
      </trkpt>
      <trkpt lat="50.95572" lon="2.73091">
        <ele>0.14</ele>
        <time>2017-08-04T05:52:20Z</time>
      </trkpt>
      <trkpt lat="50.9557" lon="2.73086">
        <ele>0.14</ele>
        <time>2017-08-04T05:52:21Z</time>
      </trkpt>
      <trkpt lat="50.95568" lon="2.7308">
        <ele>0.14</ele>
        <time>2017-08-04T05:52:22Z</time>
      </trkpt>
      <trkpt lat="50.9553" lon="2.72951">
        <ele>0.14</ele>
        <time>2017-08-04T05:52:42Z</time>
      </trkpt>
      <trkpt lat="50.95521" lon="2.72926">
        <ele>0.14</ele>
        <time>2017-08-04T05:52:46Z</time>
      </trkpt>
      <trkpt lat="50.95519" lon="2.7292">
        <ele>0.14</ele>
        <time>2017-08-04T05:52:47Z</time>
      </trkpt>
      <trkpt lat="50.95517" lon="2.72914">
        <ele>0.14</ele>
        <time>2017-08-04T05:52:48Z</time>
      </trkpt>
      <trkpt lat="50.95501" lon="2.72825">
        <ele>0.14</ele>
        <time>2017-08-04T05:53:01Z</time>
      </trkpt>
      <trkpt lat="50.95495" lon="2.72797">
        <ele>1.1</ele>
        <time>2017-08-04T05:53:06Z</time>
      </trkpt>
      <trkpt lat="50.9548" lon="2.72749">
        <ele>0.14</ele>
        <time>2017-08-04T05:53:14Z</time>
      </trkpt>
      <trkpt lat="50.95445" lon="2.72659">
        <ele>0.14</ele>
        <time>2017-08-04T05:53:26Z</time>
      </trkpt>
      <trkpt lat="50.9541" lon="2.72543">
        <ele>0.14</ele>
        <time>2017-08-04T05:53:40Z</time>
      </trkpt>
      <trkpt lat="50.95377" lon="2.72388">
        <ele>0.14</ele>
        <time>2017-08-04T05:53:58Z</time>
      </trkpt>
      <trkpt lat="50.95324" lon="2.72261">
        <ele>-0.34</ele>
        <time>2017-08-04T05:54:15Z</time>
      </trkpt>
      <trkpt lat="50.95244" lon="2.72169">
        <ele>-0.34</ele>
        <time>2017-08-04T05:54:33Z</time>
      </trkpt>
      <trkpt lat="50.9522" lon="2.72144">
        <ele>0.62</ele>
        <time>2017-08-04T05:54:38Z</time>
      </trkpt>
      <trkpt lat="50.95194" lon="2.72119">
        <ele>1.1</ele>
        <time>2017-08-04T05:54:44Z</time>
      </trkpt>
      <trkpt lat="50.9519" lon="2.72119">
        <ele>1.1</ele>
        <time>2017-08-04T05:54:45Z</time>
      </trkpt>
      <trkpt lat="50.95187" lon="2.7212">
        <ele>1.1</ele>
        <time>2017-08-04T05:54:46Z</time>
      </trkpt>
      <trkpt lat="50.95142" lon="2.72134">
        <ele>1.1</ele>
        <time>2017-08-04T05:54:56Z</time>
      </trkpt>
      <trkpt lat="50.95118" lon="2.72141">
        <ele>1.1</ele>
        <time>2017-08-04T05:55:01Z</time>
      </trkpt>
      <trkpt lat="50.95113" lon="2.72141">
        <ele>1.1</ele>
        <time>2017-08-04T05:55:02Z</time>
      </trkpt>
      <trkpt lat="50.95108" lon="2.72141">
        <ele>1.1</ele>
        <time>2017-08-04T05:55:03Z</time>
      </trkpt>
      <trkpt lat="50.95102" lon="2.7214">
        <ele>1.1</ele>
        <time>2017-08-04T05:55:04Z</time>
      </trkpt>
      <trkpt lat="50.95098" lon="2.72138">
        <ele>1.1</ele>
        <time>2017-08-04T05:55:05Z</time>
      </trkpt>
      <trkpt lat="50.95093" lon="2.72136">
        <ele>1.1</ele>
        <time>2017-08-04T05:55:06Z</time>
      </trkpt>
      <trkpt lat="50.95088" lon="2.72132">
        <ele>1.1</ele>
        <time>2017-08-04T05:55:07Z</time>
      </trkpt>
      <trkpt lat="50.95084" lon="2.72129">
        <ele>1.1</ele>
        <time>2017-08-04T05:55:08Z</time>
      </trkpt>
      <trkpt lat="50.9508" lon="2.72125">
        <ele>1.1</ele>
        <time>2017-08-04T05:55:09Z</time>
      </trkpt>
      <trkpt lat="50.95068" lon="2.72112">
        <ele>1.1</ele>
        <time>2017-08-04T05:55:12Z</time>
      </trkpt>
      <trkpt lat="50.95061" lon="2.72101">
        <ele>1.58</ele>
        <time>2017-08-04T05:55:14Z</time>
      </trkpt>
      <trkpt lat="50.95058" lon="2.72094">
        <ele>1.58</ele>
        <time>2017-08-04T05:55:15Z</time>
      </trkpt>
      <trkpt lat="50.95055" lon="2.72089">
        <ele>1.58</ele>
        <time>2017-08-04T05:55:16Z</time>
      </trkpt>
      <trkpt lat="50.95051" lon="2.72085">
        <ele>1.58</ele>
        <time>2017-08-04T05:55:17Z</time>
      </trkpt>
      <trkpt lat="50.95047" lon="2.72081">
        <ele>1.58</ele>
        <time>2017-08-04T05:55:18Z</time>
      </trkpt>
      <trkpt lat="50.95042" lon="2.72077">
        <ele>1.58</ele>
        <time>2017-08-04T05:55:19Z</time>
      </trkpt>
      <trkpt lat="50.95039" lon="2.72073">
        <ele>1.58</ele>
        <time>2017-08-04T05:55:20Z</time>
      </trkpt>
      <trkpt lat="50.95015" lon="2.72039">
        <ele>0.14</ele>
        <time>2017-08-04T05:55:26Z</time>
      </trkpt>
      <trkpt lat="50.95012" lon="2.72033">
        <ele>0.14</ele>
        <time>2017-08-04T05:55:27Z</time>
      </trkpt>
      <trkpt lat="50.94974" lon="2.7196">
        <ele>1.1</ele>
        <time>2017-08-04T05:55:40Z</time>
      </trkpt>
      <trkpt lat="50.94966" lon="2.71934">
        <ele>1.1</ele>
        <time>2017-08-04T05:55:44Z</time>
      </trkpt>
      <trkpt lat="50.94953" lon="2.71899">
        <ele>1.1</ele>
        <time>2017-08-04T05:55:49Z</time>
      </trkpt>
      <trkpt lat="50.94937" lon="2.71823">
        <ele>-0.34</ele>
        <time>2017-08-04T05:55:59Z</time>
      </trkpt>
      <trkpt lat="50.94932" lon="2.71759">
        <ele>-0.34</ele>
        <time>2017-08-04T05:56:07Z</time>
      </trkpt>
      <trkpt lat="50.94944" lon="2.71617">
        <ele>1.1</ele>
        <time>2017-08-04T05:56:24Z</time>
      </trkpt>
      <trkpt lat="50.94969" lon="2.71465">
        <ele>1.1</ele>
        <time>2017-08-04T05:56:43Z</time>
      </trkpt>
      <trkpt lat="50.95004" lon="2.71357">
        <ele>1.1</ele>
        <time>2017-08-04T05:56:58Z</time>
      </trkpt>
      <trkpt lat="50.95081" lon="2.71271">
        <ele>1.58</ele>
        <time>2017-08-04T05:57:16Z</time>
      </trkpt>
      <trkpt lat="50.95085" lon="2.71266">
        <ele>1.58</ele>
        <time>2017-08-04T05:57:17Z</time>
      </trkpt>
      <trkpt lat="50.95095" lon="2.71246">
        <ele>1.58</ele>
        <time>2017-08-04T05:57:20Z</time>
      </trkpt>
      <trkpt lat="50.95097" lon="2.71238">
        <ele>0.14</ele>
        <time>2017-08-04T05:57:21Z</time>
      </trkpt>
      <trkpt lat="50.95097" lon="2.7123">
        <ele>0.14</ele>
        <time>2017-08-04T05:57:22Z</time>
      </trkpt>
      <trkpt lat="50.95099" lon="2.71204">
        <ele>0.14</ele>
        <time>2017-08-04T05:57:25Z</time>
      </trkpt>
      <trkpt lat="50.95099" lon="2.71196">
        <ele>0.14</ele>
        <time>2017-08-04T05:57:26Z</time>
      </trkpt>
      <trkpt lat="50.95074" lon="2.71032">
        <ele>-0.34</ele>
        <time>2017-08-04T05:57:44Z</time>
      </trkpt>
      <trkpt lat="50.95066" lon="2.70992">
        <ele>-0.34</ele>
        <time>2017-08-04T05:57:49Z</time>
      </trkpt>
      <trkpt lat="50.9506" lon="2.70965">
        <ele>1.1</ele>
        <time>2017-08-04T05:57:54Z</time>
      </trkpt>
      <trkpt lat="50.95061" lon="2.70966">
        <ele>1.1</ele>
        <time>2017-08-04T05:58:03Z</time>
      </trkpt>
      <trkpt lat="50.95059" lon="2.70963">
        <ele>1.1</ele>
        <time>2017-08-04T05:58:28Z</time>
      </trkpt>
      <trkpt lat="50.95056" lon="2.70945">
        <ele>1.1</ele>
        <time>2017-08-04T05:58:38Z</time>
      </trkpt>
      <trkpt lat="50.95024" lon="2.70866">
        <ele>1.1</ele>
        <time>2017-08-04T05:58:50Z</time>
      </trkpt>
      <trkpt lat="50.94981" lon="2.70795">
        <ele>1.1</ele>
        <time>2017-08-04T05:59:01Z</time>
      </trkpt>
      <trkpt lat="50.94979" lon="2.70788">
        <ele>1.1</ele>
        <time>2017-08-04T05:59:02Z</time>
      </trkpt>
      <trkpt lat="50.94977" lon="2.7078">
        <ele>1.1</ele>
        <time>2017-08-04T05:59:03Z</time>
      </trkpt>
      <trkpt lat="50.94976" lon="2.70772">
        <ele>1.1</ele>
        <time>2017-08-04T05:59:04Z</time>
      </trkpt>
      <trkpt lat="50.94975" lon="2.70764">
        <ele>1.1</ele>
        <time>2017-08-04T05:59:05Z</time>
      </trkpt>
      <trkpt lat="50.94976" lon="2.70756">
        <ele>1.1</ele>
        <time>2017-08-04T05:59:06Z</time>
      </trkpt>
      <trkpt lat="50.94976" lon="2.70748">
        <ele>1.1</ele>
        <time>2017-08-04T05:59:07Z</time>
      </trkpt>
      <trkpt lat="50.94977" lon="2.7074">
        <ele>1.1</ele>
        <time>2017-08-04T05:59:08Z</time>
      </trkpt>
      <trkpt lat="50.94998" lon="2.70591">
        <ele>1.1</ele>
        <time>2017-08-04T05:59:25Z</time>
      </trkpt>
      <trkpt lat="50.95016" lon="2.7046">
        <ele>1.58</ele>
        <time>2017-08-04T05:59:40Z</time>
      </trkpt>
      <trkpt lat="50.95028" lon="2.70327">
        <ele>1.58</ele>
        <time>2017-08-04T05:59:57Z</time>
      </trkpt>
      <trkpt lat="50.95046" lon="2.70245">
        <ele>1.58</ele>
        <time>2017-08-04T06:00:08Z</time>
      </trkpt>
      <trkpt lat="50.95069" lon="2.70188">
        <ele>1.58</ele>
        <time>2017-08-04T06:00:16Z</time>
      </trkpt>
      <trkpt lat="50.95122" lon="2.70121">
        <ele>1.58</ele>
        <time>2017-08-04T06:00:29Z</time>
      </trkpt>
      <trkpt lat="50.95134" lon="2.70104">
        <ele>1.58</ele>
        <time>2017-08-04T06:00:32Z</time>
      </trkpt>
      <trkpt lat="50.95138" lon="2.70096">
        <ele>1.58</ele>
        <time>2017-08-04T06:00:33Z</time>
      </trkpt>
      <trkpt lat="50.9514" lon="2.70089">
        <ele>1.58</ele>
        <time>2017-08-04T06:00:34Z</time>
      </trkpt>
      <trkpt lat="50.95142" lon="2.7008">
        <ele>1.58</ele>
        <time>2017-08-04T06:00:35Z</time>
      </trkpt>
      <trkpt lat="50.95143" lon="2.70072">
        <ele>0.14</ele>
        <time>2017-08-04T06:00:36Z</time>
      </trkpt>
      <trkpt lat="50.95144" lon="2.70065">
        <ele>0.14</ele>
        <time>2017-08-04T06:00:37Z</time>
      </trkpt>
      <trkpt lat="50.95147" lon="2.69938">
        <ele>0.14</ele>
        <time>2017-08-04T06:00:52Z</time>
      </trkpt>
      <trkpt lat="50.9513" lon="2.69842">
        <ele>0.14</ele>
        <time>2017-08-04T06:01:06Z</time>
      </trkpt>
      <trkpt lat="50.95127" lon="2.69812">
        <ele>0.14</ele>
        <time>2017-08-04T06:01:11Z</time>
      </trkpt>
      <trkpt lat="50.951" lon="2.69689">
        <ele>-0.34</ele>
        <time>2017-08-04T06:01:27Z</time>
      </trkpt>
      <trkpt lat="50.95051" lon="2.69575">
        <ele>-0.34</ele>
        <time>2017-08-04T06:01:44Z</time>
      </trkpt>
      <trkpt lat="50.95017" lon="2.69508">
        <ele>-0.34</ele>
        <time>2017-08-04T06:01:55Z</time>
      </trkpt>
      <trkpt lat="50.95013" lon="2.69502">
        <ele>-0.34</ele>
        <time>2017-08-04T06:01:56Z</time>
      </trkpt>
      <trkpt lat="50.94954" lon="2.69416">
        <ele>1.1</ele>
        <time>2017-08-04T06:02:12Z</time>
      </trkpt>
      <trkpt lat="50.94897" lon="2.69335">
        <ele>-0.34</ele>
        <time>2017-08-04T06:02:26Z</time>
      </trkpt>
      <trkpt lat="50.94874" lon="2.69299">
        <ele>-0.34</ele>
        <time>2017-08-04T06:02:32Z</time>
      </trkpt>
      <trkpt lat="50.94871" lon="2.69293">
        <ele>-0.34</ele>
        <time>2017-08-04T06:02:33Z</time>
      </trkpt>
      <trkpt lat="50.94866" lon="2.69278">
        <ele>1.1</ele>
        <time>2017-08-04T06:02:35Z</time>
      </trkpt>
      <trkpt lat="50.94829" lon="2.69185">
        <ele>1.1</ele>
        <time>2017-08-04T06:02:49Z</time>
      </trkpt>
      <trkpt lat="50.94827" lon="2.69178">
        <ele>1.1</ele>
        <time>2017-08-04T06:02:50Z</time>
      </trkpt>
      <trkpt lat="50.94809" lon="2.69118">
        <ele>1.1</ele>
        <time>2017-08-04T06:02:58Z</time>
      </trkpt>
      <trkpt lat="50.94784" lon="2.68962">
        <ele>1.1</ele>
        <time>2017-08-04T06:03:17Z</time>
      </trkpt>
      <trkpt lat="50.94776" lon="2.6892">
        <ele>-0.34</ele>
        <time>2017-08-04T06:03:22Z</time>
      </trkpt>
      <trkpt lat="50.94752" lon="2.68761">
        <ele>-0.34</ele>
        <time>2017-08-04T06:03:42Z</time>
      </trkpt>
      <trkpt lat="50.94742" lon="2.68646">
        <ele>1.1</ele>
        <time>2017-08-04T06:03:57Z</time>
      </trkpt>
      <trkpt lat="50.94731" lon="2.6849">
        <ele>1.1</ele>
        <time>2017-08-04T06:04:16Z</time>
      </trkpt>
      <trkpt lat="50.94718" lon="2.68339">
        <ele>1.1</ele>
        <time>2017-08-04T06:04:35Z</time>
      </trkpt>
      <trkpt lat="50.94716" lon="2.6833">
        <ele>1.1</ele>
        <time>2017-08-04T06:04:36Z</time>
      </trkpt>
      <trkpt lat="50.94713" lon="2.68324">
        <ele>1.1</ele>
        <time>2017-08-04T06:04:37Z</time>
      </trkpt>
      <trkpt lat="50.94653" lon="2.6817">
        <ele>1.1</ele>
        <time>2017-08-04T06:04:59Z</time>
      </trkpt>
      <trkpt lat="50.94636" lon="2.6813">
        <ele>1.1</ele>
        <time>2017-08-04T06:05:05Z</time>
      </trkpt>
      <trkpt lat="50.9462" lon="2.6809">
        <ele>1.1</ele>
        <time>2017-08-04T06:05:11Z</time>
      </trkpt>
      <trkpt lat="50.94618" lon="2.68084">
        <ele>1.1</ele>
        <time>2017-08-04T06:05:12Z</time>
      </trkpt>
      <trkpt lat="50.94583" lon="2.67955">
        <ele>1.1</ele>
        <time>2017-08-04T06:05:29Z</time>
      </trkpt>
      <trkpt lat="50.94577" lon="2.67931">
        <ele>-0.34</ele>
        <time>2017-08-04T06:05:32Z</time>
      </trkpt>
      <trkpt lat="50.94531" lon="2.67804">
        <ele>0.14</ele>
        <time>2017-08-04T06:05:51Z</time>
      </trkpt>
      <trkpt lat="50.94484" lon="2.67692">
        <ele>0.14</ele>
        <time>2017-08-04T06:06:07Z</time>
      </trkpt>
      <trkpt lat="50.9444" lon="2.67561">
        <ele>-0.34</ele>
        <time>2017-08-04T06:06:25Z</time>
      </trkpt>
      <trkpt lat="50.94394" lon="2.67489">
        <ele>0.62</ele>
        <time>2017-08-04T06:06:38Z</time>
      </trkpt>
      <trkpt lat="50.94388" lon="2.67478">
        <ele>0.62</ele>
        <time>2017-08-04T06:06:40Z</time>
      </trkpt>
      <trkpt lat="50.94386" lon="2.67472">
        <ele>0.62</ele>
        <time>2017-08-04T06:06:41Z</time>
      </trkpt>
      <trkpt lat="50.9438" lon="2.67463">
        <ele>0.62</ele>
        <time>2017-08-04T06:06:43Z</time>
      </trkpt>
      <trkpt lat="50.94377" lon="2.67457">
        <ele>1.1</ele>
        <time>2017-08-04T06:06:44Z</time>
      </trkpt>
      <trkpt lat="50.94363" lon="2.67425">
        <ele>1.1</ele>
        <time>2017-08-04T06:06:50Z</time>
      </trkpt>
      <trkpt lat="50.94359" lon="2.67412">
        <ele>1.1</ele>
        <time>2017-08-04T06:06:52Z</time>
      </trkpt>
      <trkpt lat="50.94356" lon="2.67405">
        <ele>1.1</ele>
        <time>2017-08-04T06:06:53Z</time>
      </trkpt>
      <trkpt lat="50.94348" lon="2.67377">
        <ele>1.1</ele>
        <time>2017-08-04T06:06:57Z</time>
      </trkpt>
      <trkpt lat="50.9434" lon="2.67255">
        <ele>1.58</ele>
        <time>2017-08-04T06:07:12Z</time>
      </trkpt>
      <trkpt lat="50.94342" lon="2.67228">
        <ele>1.58</ele>
        <time>2017-08-04T06:07:16Z</time>
      </trkpt>
      <trkpt lat="50.94342" lon="2.67175">
        <ele>2.06</ele>
        <time>2017-08-04T06:07:26Z</time>
      </trkpt>
      <trkpt lat="50.94321" lon="2.67068">
        <ele>0.14</ele>
        <time>2017-08-04T06:07:39Z</time>
      </trkpt>
      <trkpt lat="50.94298" lon="2.66952">
        <ele>-0.34</ele>
        <time>2017-08-04T06:07:54Z</time>
      </trkpt>
      <trkpt lat="50.94276" lon="2.66827">
        <ele>-0.34</ele>
        <time>2017-08-04T06:08:11Z</time>
      </trkpt>
      <trkpt lat="50.9426" lon="2.66693">
        <ele>1.1</ele>
        <time>2017-08-04T06:08:29Z</time>
      </trkpt>
      <trkpt lat="50.94247" lon="2.66549">
        <ele>1.1</ele>
        <time>2017-08-04T06:08:48Z</time>
      </trkpt>
      <trkpt lat="50.94244" lon="2.66518">
        <ele>1.1</ele>
        <time>2017-08-04T06:08:52Z</time>
      </trkpt>
      <trkpt lat="50.94244" lon="2.66474">
        <ele>1.1</ele>
        <time>2017-08-04T06:08:58Z</time>
      </trkpt>
      <trkpt lat="50.94244" lon="2.66466">
        <ele>1.1</ele>
        <time>2017-08-04T06:08:59Z</time>
      </trkpt>
      <trkpt lat="50.94248" lon="2.6635">
        <ele>1.1</ele>
        <time>2017-08-04T06:09:14Z</time>
      </trkpt>
      <trkpt lat="50.94257" lon="2.66202">
        <ele>1.1</ele>
        <time>2017-08-04T06:09:34Z</time>
      </trkpt>
      <trkpt lat="50.94286" lon="2.66078">
        <ele>1.1</ele>
        <time>2017-08-04T06:09:51Z</time>
      </trkpt>
      <trkpt lat="50.94319" lon="2.66011">
        <ele>1.58</ele>
        <time>2017-08-04T06:10:02Z</time>
      </trkpt>
      <trkpt lat="50.94322" lon="2.66005">
        <ele>1.58</ele>
        <time>2017-08-04T06:10:03Z</time>
      </trkpt>
      <trkpt lat="50.94326" lon="2.65992">
        <ele>1.58</ele>
        <time>2017-08-04T06:10:05Z</time>
      </trkpt>
      <trkpt lat="50.94327" lon="2.65986">
        <ele>1.58</ele>
        <time>2017-08-04T06:10:06Z</time>
      </trkpt>
      <trkpt lat="50.94327" lon="2.65978">
        <ele>1.58</ele>
        <time>2017-08-04T06:10:07Z</time>
      </trkpt>
      <trkpt lat="50.94329" lon="2.65938">
        <ele>1.58</ele>
        <time>2017-08-04T06:10:17Z</time>
      </trkpt>
      <trkpt lat="50.94329" lon="2.65939">
        <ele>1.58</ele>
        <time>2017-08-04T06:10:50Z</time>
      </trkpt>
      <trkpt lat="50.9433" lon="2.65936">
        <ele>1.58</ele>
        <time>2017-08-04T06:10:54Z</time>
      </trkpt>
      <trkpt lat="50.94329" lon="2.65887">
        <ele>1.58</ele>
        <time>2017-08-04T06:11:03Z</time>
      </trkpt>
      <trkpt lat="50.94329" lon="2.6588">
        <ele>1.58</ele>
        <time>2017-08-04T06:11:04Z</time>
      </trkpt>
      <trkpt lat="50.94313" lon="2.65754">
        <ele>0.14</ele>
        <time>2017-08-04T06:11:22Z</time>
      </trkpt>
      <trkpt lat="50.94309" lon="2.65705">
        <ele>0.62</ele>
        <time>2017-08-04T06:11:30Z</time>
      </trkpt>
      <trkpt lat="50.94309" lon="2.65691">
        <ele>0.62</ele>
        <time>2017-08-04T06:11:32Z</time>
      </trkpt>
      <trkpt lat="50.94305" lon="2.65648">
        <ele>0.62</ele>
        <time>2017-08-04T06:11:39Z</time>
      </trkpt>
      <trkpt lat="50.94303" lon="2.65641">
        <ele>0.14</ele>
        <time>2017-08-04T06:11:40Z</time>
      </trkpt>
      <trkpt lat="50.94301" lon="2.65634">
        <ele>0.62</ele>
        <time>2017-08-04T06:11:41Z</time>
      </trkpt>
      <trkpt lat="50.94262" lon="2.65538">
        <ele>-0.34</ele>
        <time>2017-08-04T06:11:56Z</time>
      </trkpt>
      <trkpt lat="50.94248" lon="2.65517">
        <ele>-0.34</ele>
        <time>2017-08-04T06:12:00Z</time>
      </trkpt>
      <trkpt lat="50.94223" lon="2.6548">
        <ele>-0.34</ele>
        <time>2017-08-04T06:12:08Z</time>
      </trkpt>
      <trkpt lat="50.94166" lon="2.65407">
        <ele>-0.34</ele>
        <time>2017-08-04T06:12:26Z</time>
      </trkpt>
      <trkpt lat="50.94116" lon="2.6535">
        <ele>-0.34</ele>
        <time>2017-08-04T06:12:41Z</time>
      </trkpt>
      <trkpt lat="50.94079" lon="2.65311">
        <ele>-0.34</ele>
        <time>2017-08-04T06:12:52Z</time>
      </trkpt>
      <trkpt lat="50.94067" lon="2.65302">
        <ele>1.1</ele>
        <time>2017-08-04T06:12:55Z</time>
      </trkpt>
      <trkpt lat="50.94056" lon="2.65294">
        <ele>1.1</ele>
        <time>2017-08-04T06:12:58Z</time>
      </trkpt>
      <trkpt lat="50.94035" lon="2.65283">
        <ele>1.1</ele>
        <time>2017-08-04T06:13:03Z</time>
      </trkpt>
      <trkpt lat="50.93957" lon="2.65261">
        <ele>1.1</ele>
        <time>2017-08-04T06:13:22Z</time>
      </trkpt>
      <trkpt lat="50.9389" lon="2.6523">
        <ele>-0.34</ele>
        <time>2017-08-04T06:13:38Z</time>
      </trkpt>
      <trkpt lat="50.93829" lon="2.65135">
        <ele>-0.34</ele>
        <time>2017-08-04T06:13:58Z</time>
      </trkpt>
      <trkpt lat="50.93823" lon="2.65126">
        <ele>-0.34</ele>
        <time>2017-08-04T06:14:00Z</time>
      </trkpt>
      <trkpt lat="50.93819" lon="2.65121">
        <ele>-0.34</ele>
        <time>2017-08-04T06:14:01Z</time>
      </trkpt>
      <trkpt lat="50.93816" lon="2.65116">
        <ele>-0.34</ele>
        <time>2017-08-04T06:14:02Z</time>
      </trkpt>
      <trkpt lat="50.93765" lon="2.65035">
        <ele>-0.34</ele>
        <time>2017-08-04T06:14:19Z</time>
      </trkpt>
      <trkpt lat="50.93743" lon="2.65001">
        <ele>1.58</ele>
        <time>2017-08-04T06:14:27Z</time>
      </trkpt>
      <trkpt lat="50.93707" lon="2.64936">
        <ele>1.58</ele>
        <time>2017-08-04T06:14:40Z</time>
      </trkpt>
      <trkpt lat="50.93704" lon="2.64931">
        <ele>1.58</ele>
        <time>2017-08-04T06:14:41Z</time>
      </trkpt>
      <trkpt lat="50.93647" lon="2.64846">
        <ele>1.58</ele>
        <time>2017-08-04T06:14:59Z</time>
      </trkpt>
      <trkpt lat="50.93642" lon="2.64834">
        <ele>1.58</ele>
        <time>2017-08-04T06:15:01Z</time>
      </trkpt>
      <trkpt lat="50.93633" lon="2.64803">
        <ele>1.58</ele>
        <time>2017-08-04T06:15:06Z</time>
      </trkpt>
      <trkpt lat="50.93613" lon="2.64702">
        <ele>1.58</ele>
        <time>2017-08-04T06:15:19Z</time>
      </trkpt>
      <trkpt lat="50.93597" lon="2.64629">
        <ele>1.58</ele>
        <time>2017-08-04T06:15:28Z</time>
      </trkpt>
      <trkpt lat="50.93595" lon="2.64623">
        <ele>1.58</ele>
        <time>2017-08-04T06:15:29Z</time>
      </trkpt>
      <trkpt lat="50.93592" lon="2.64616">
        <ele>1.58</ele>
        <time>2017-08-04T06:15:30Z</time>
      </trkpt>
      <trkpt lat="50.93588" lon="2.6461">
        <ele>1.58</ele>
        <time>2017-08-04T06:15:31Z</time>
      </trkpt>
      <trkpt lat="50.93585" lon="2.64604">
        <ele>1.58</ele>
        <time>2017-08-04T06:15:32Z</time>
      </trkpt>
      <trkpt lat="50.93581" lon="2.64599">
        <ele>1.58</ele>
        <time>2017-08-04T06:15:33Z</time>
      </trkpt>
      <trkpt lat="50.93577" lon="2.64594">
        <ele>1.58</ele>
        <time>2017-08-04T06:15:34Z</time>
      </trkpt>
      <trkpt lat="50.93569" lon="2.64584">
        <ele>0.14</ele>
        <time>2017-08-04T06:15:36Z</time>
      </trkpt>
      <trkpt lat="50.9351" lon="2.6452">
        <ele>-0.34</ele>
        <time>2017-08-04T06:15:50Z</time>
      </trkpt>
      <trkpt lat="50.9347" lon="2.64488">
        <ele>-0.34</ele>
        <time>2017-08-04T06:15:59Z</time>
      </trkpt>
      <trkpt lat="50.93397" lon="2.64454">
        <ele>-0.34</ele>
        <time>2017-08-04T06:16:15Z</time>
      </trkpt>
      <trkpt lat="50.93327" lon="2.64424">
        <ele>0.62</ele>
        <time>2017-08-04T06:16:30Z</time>
      </trkpt>
      <trkpt lat="50.93306" lon="2.64412">
        <ele>0.62</ele>
        <time>2017-08-04T06:16:35Z</time>
      </trkpt>
      <trkpt lat="50.93303" lon="2.64408">
        <ele>0.62</ele>
        <time>2017-08-04T06:16:36Z</time>
      </trkpt>
      <trkpt lat="50.93264" lon="2.64345">
        <ele>0.62</ele>
        <time>2017-08-04T06:16:50Z</time>
      </trkpt>
      <trkpt lat="50.93236" lon="2.64283">
        <ele>0.62</ele>
        <time>2017-08-04T06:17:02Z</time>
      </trkpt>
      <trkpt lat="50.93234" lon="2.64277">
        <ele>0.62</ele>
        <time>2017-08-04T06:17:03Z</time>
      </trkpt>
      <trkpt lat="50.93225" lon="2.64247">
        <ele>0.62</ele>
        <time>2017-08-04T06:17:08Z</time>
      </trkpt>
      <trkpt lat="50.93223" lon="2.64242">
        <ele>0.62</ele>
        <time>2017-08-04T06:17:09Z</time>
      </trkpt>
      <trkpt lat="50.93222" lon="2.64235">
        <ele>0.62</ele>
        <time>2017-08-04T06:17:10Z</time>
      </trkpt>
      <trkpt lat="50.9322" lon="2.64229">
        <ele>0.62</ele>
        <time>2017-08-04T06:17:11Z</time>
      </trkpt>
      <trkpt lat="50.93219" lon="2.64223">
        <ele>0.62</ele>
        <time>2017-08-04T06:17:12Z</time>
      </trkpt>
      <trkpt lat="50.93207" lon="2.64109">
        <ele>1.1</ele>
        <time>2017-08-04T06:17:29Z</time>
      </trkpt>
      <trkpt lat="50.932" lon="2.64058">
        <ele>1.1</ele>
        <time>2017-08-04T06:17:37Z</time>
      </trkpt>
      <trkpt lat="50.93198" lon="2.64051">
        <ele>1.1</ele>
        <time>2017-08-04T06:17:38Z</time>
      </trkpt>
      <trkpt lat="50.93196" lon="2.64046">
        <ele>1.1</ele>
        <time>2017-08-04T06:17:39Z</time>
      </trkpt>
      <trkpt lat="50.93143" lon="2.63977">
        <ele>1.58</ele>
        <time>2017-08-04T06:17:55Z</time>
      </trkpt>
      <trkpt lat="50.93135" lon="2.63972">
        <ele>1.58</ele>
        <time>2017-08-04T06:17:57Z</time>
      </trkpt>
      <trkpt lat="50.93064" lon="2.6395">
        <ele>0.14</ele>
        <time>2017-08-04T06:18:13Z</time>
      </trkpt>
      <trkpt lat="50.93038" lon="2.63941">
        <ele>0.14</ele>
        <time>2017-08-04T06:18:19Z</time>
      </trkpt>
      <trkpt lat="50.9303" lon="2.63937">
        <ele>0.14</ele>
        <time>2017-08-04T06:18:21Z</time>
      </trkpt>
      <trkpt lat="50.93022" lon="2.6393">
        <ele>0.14</ele>
        <time>2017-08-04T06:18:23Z</time>
      </trkpt>
      <trkpt lat="50.93012" lon="2.63917">
        <ele>0.14</ele>
        <time>2017-08-04T06:18:26Z</time>
      </trkpt>
      <trkpt lat="50.93009" lon="2.63912">
        <ele>1.58</ele>
        <time>2017-08-04T06:18:27Z</time>
      </trkpt>
      <trkpt lat="50.93006" lon="2.63906">
        <ele>1.58</ele>
        <time>2017-08-04T06:18:28Z</time>
      </trkpt>
      <trkpt lat="50.93003" lon="2.63902">
        <ele>1.58</ele>
        <time>2017-08-04T06:18:29Z</time>
      </trkpt>
      <trkpt lat="50.92965" lon="2.63798">
        <ele>1.58</ele>
        <time>2017-08-04T06:18:45Z</time>
      </trkpt>
      <trkpt lat="50.92921" lon="2.63666">
        <ele>1.58</ele>
        <time>2017-08-04T06:19:03Z</time>
      </trkpt>
      <trkpt lat="50.92914" lon="2.63635">
        <ele>1.58</ele>
        <time>2017-08-04T06:19:07Z</time>
      </trkpt>
      <trkpt lat="50.92895" lon="2.63489">
        <ele>0.14</ele>
        <time>2017-08-04T06:19:25Z</time>
      </trkpt>
      <trkpt lat="50.92893" lon="2.63482">
        <ele>0.14</ele>
        <time>2017-08-04T06:19:26Z</time>
      </trkpt>
      <trkpt lat="50.92852" lon="2.63371">
        <ele>0.62</ele>
        <time>2017-08-04T06:19:42Z</time>
      </trkpt>
      <trkpt lat="50.92834" lon="2.63313">
        <ele>-0.34</ele>
        <time>2017-08-04T06:19:51Z</time>
      </trkpt>
      <trkpt lat="50.92831" lon="2.63307">
        <ele>-0.34</ele>
        <time>2017-08-04T06:19:52Z</time>
      </trkpt>
      <trkpt lat="50.92806" lon="2.63226">
        <ele>1.58</ele>
        <time>2017-08-04T06:20:05Z</time>
      </trkpt>
      <trkpt lat="50.92785" lon="2.63161">
        <ele>0.14</ele>
        <time>2017-08-04T06:20:20Z</time>
      </trkpt>
      <trkpt lat="50.92776" lon="2.63136">
        <ele>0.14</ele>
        <time>2017-08-04T06:20:29Z</time>
      </trkpt>
      <trkpt lat="50.92774" lon="2.63136">
        <ele>1.1</ele>
        <time>2017-08-04T06:20:42Z</time>
      </trkpt>
      <trkpt lat="50.92774" lon="2.63136">
        <ele>1.1</ele>
        <time>2017-08-04T06:20:48Z</time>
      </trkpt>
      <trkpt lat="50.92773" lon="2.63134">
        <ele>1.1</ele>
        <time>2017-08-04T06:20:49Z</time>
      </trkpt>
      <trkpt lat="50.92765" lon="2.63106">
        <ele>-0.34</ele>
        <time>2017-08-04T06:20:55Z</time>
      </trkpt>
      <trkpt lat="50.92738" lon="2.6304">
        <ele>-0.34</ele>
        <time>2017-08-04T06:21:08Z</time>
      </trkpt>
      <trkpt lat="50.92725" lon="2.63017">
        <ele>0.14</ele>
        <time>2017-08-04T06:21:13Z</time>
      </trkpt>
      <trkpt lat="50.92722" lon="2.63012">
        <ele>0.14</ele>
        <time>2017-08-04T06:21:14Z</time>
      </trkpt>
      <trkpt lat="50.92719" lon="2.63007">
        <ele>0.14</ele>
        <time>2017-08-04T06:21:15Z</time>
      </trkpt>
      <trkpt lat="50.92716" lon="2.63002">
        <ele>0.14</ele>
        <time>2017-08-04T06:21:16Z</time>
      </trkpt>
      <trkpt lat="50.92714" lon="2.62997">
        <ele>0.14</ele>
        <time>2017-08-04T06:21:17Z</time>
      </trkpt>
      <trkpt lat="50.9271" lon="2.62992">
        <ele>0.14</ele>
        <time>2017-08-04T06:21:18Z</time>
      </trkpt>
      <trkpt lat="50.92665" lon="2.62923">
        <ele>0.14</ele>
        <time>2017-08-04T06:21:33Z</time>
      </trkpt>
      <trkpt lat="50.92661" lon="2.6292">
        <ele>0.14</ele>
        <time>2017-08-04T06:21:34Z</time>
      </trkpt>
      <trkpt lat="50.92652" lon="2.62915">
        <ele>0.14</ele>
        <time>2017-08-04T06:21:36Z</time>
      </trkpt>
      <trkpt lat="50.92648" lon="2.62914">
        <ele>0.14</ele>
        <time>2017-08-04T06:21:37Z</time>
      </trkpt>
      <trkpt lat="50.92625" lon="2.62906">
        <ele>0.14</ele>
        <time>2017-08-04T06:21:42Z</time>
      </trkpt>
      <trkpt lat="50.92621" lon="2.62903">
        <ele>0.14</ele>
        <time>2017-08-04T06:21:43Z</time>
      </trkpt>
      <trkpt lat="50.92617" lon="2.629">
        <ele>0.14</ele>
        <time>2017-08-04T06:21:44Z</time>
      </trkpt>
      <trkpt lat="50.92606" lon="2.62889">
        <ele>0.14</ele>
        <time>2017-08-04T06:21:47Z</time>
      </trkpt>
      <trkpt lat="50.92603" lon="2.62883">
        <ele>0.14</ele>
        <time>2017-08-04T06:21:48Z</time>
      </trkpt>
      <trkpt lat="50.92566" lon="2.62806">
        <ele>1.58</ele>
        <time>2017-08-04T06:22:01Z</time>
      </trkpt>
      <trkpt lat="50.92556" lon="2.62782">
        <ele>0.14</ele>
        <time>2017-08-04T06:22:05Z</time>
      </trkpt>
      <trkpt lat="50.92511" lon="2.62693">
        <ele>0.14</ele>
        <time>2017-08-04T06:22:20Z</time>
      </trkpt>
      <trkpt lat="50.92507" lon="2.6268">
        <ele>0.14</ele>
        <time>2017-08-04T06:22:22Z</time>
      </trkpt>
      <trkpt lat="50.92505" lon="2.62673">
        <ele>0.14</ele>
        <time>2017-08-04T06:22:23Z</time>
      </trkpt>
      <trkpt lat="50.92501" lon="2.6266">
        <ele>1.1</ele>
        <time>2017-08-04T06:22:25Z</time>
      </trkpt>
      <trkpt lat="50.92475" lon="2.62568">
        <ele>1.1</ele>
        <time>2017-08-04T06:22:40Z</time>
      </trkpt>
      <trkpt lat="50.92445" lon="2.6252">
        <ele>1.1</ele>
        <time>2017-08-04T06:22:51Z</time>
      </trkpt>
      <trkpt lat="50.92441" lon="2.62517">
        <ele>1.1</ele>
        <time>2017-08-04T06:22:52Z</time>
      </trkpt>
      <trkpt lat="50.92438" lon="2.62514">
        <ele>1.1</ele>
        <time>2017-08-04T06:22:53Z</time>
      </trkpt>
      <trkpt lat="50.9242" lon="2.62497">
        <ele>1.1</ele>
        <time>2017-08-04T06:22:58Z</time>
      </trkpt>
      <trkpt lat="50.92416" lon="2.62494">
        <ele>1.1</ele>
        <time>2017-08-04T06:22:59Z</time>
      </trkpt>
      <trkpt lat="50.92352" lon="2.62457">
        <ele>1.58</ele>
        <time>2017-08-04T06:23:15Z</time>
      </trkpt>
      <trkpt lat="50.92289" lon="2.62423">
        <ele>1.58</ele>
        <time>2017-08-04T06:23:31Z</time>
      </trkpt>
      <trkpt lat="50.92271" lon="2.62408">
        <ele>2.54</ele>
        <time>2017-08-04T06:23:42Z</time>
      </trkpt>
      <trkpt lat="50.92265" lon="2.62407">
        <ele>4.46</ele>
        <time>2017-08-04T06:23:57Z</time>
      </trkpt>
      <trkpt lat="50.92264" lon="2.62407">
        <ele>4.46</ele>
        <time>2017-08-04T06:24:11Z</time>
      </trkpt>
      <trkpt lat="50.92263" lon="2.62407">
        <ele>4.46</ele>
        <time>2017-08-04T06:24:12Z</time>
      </trkpt>
      <trkpt lat="50.92262" lon="2.62407">
        <ele>4.46</ele>
        <time>2017-08-04T06:24:13Z</time>
      </trkpt>
      <trkpt lat="50.9226" lon="2.62406">
        <ele>4.46</ele>
        <time>2017-08-04T06:24:14Z</time>
      </trkpt>
      <trkpt lat="50.92259" lon="2.62406">
        <ele>4.46</ele>
        <time>2017-08-04T06:24:15Z</time>
      </trkpt>
      <trkpt lat="50.92257" lon="2.62405">
        <ele>4.46</ele>
        <time>2017-08-04T06:24:16Z</time>
      </trkpt>
      <trkpt lat="50.92242" lon="2.62399">
        <ele>3.02</ele>
        <time>2017-08-04T06:24:29Z</time>
      </trkpt>
      <trkpt lat="50.92191" lon="2.62372">
        <ele>2.06</ele>
        <time>2017-08-04T06:24:43Z</time>
      </trkpt>
      <trkpt lat="50.9212" lon="2.62332">
        <ele>2.06</ele>
        <time>2017-08-04T06:25:00Z</time>
      </trkpt>
      <trkpt lat="50.9209" lon="2.62315">
        <ele>2.06</ele>
        <time>2017-08-04T06:25:07Z</time>
      </trkpt>
      <trkpt lat="50.92055" lon="2.62288">
        <ele>2.06</ele>
        <time>2017-08-04T06:25:17Z</time>
      </trkpt>
      <trkpt lat="50.92037" lon="2.62264">
        <ele>3.02</ele>
        <time>2017-08-04T06:25:24Z</time>
      </trkpt>
      <trkpt lat="50.92037" lon="2.6226">
        <ele>3.5</ele>
        <time>2017-08-04T06:25:25Z</time>
      </trkpt>
      <trkpt lat="50.92037" lon="2.62255">
        <ele>3.5</ele>
        <time>2017-08-04T06:25:26Z</time>
      </trkpt>
      <trkpt lat="50.92037" lon="2.62251">
        <ele>3.5</ele>
        <time>2017-08-04T06:25:27Z</time>
      </trkpt>
      <trkpt lat="50.92039" lon="2.62246">
        <ele>3.5</ele>
        <time>2017-08-04T06:25:28Z</time>
      </trkpt>
      <trkpt lat="50.92041" lon="2.62243">
        <ele>3.5</ele>
        <time>2017-08-04T06:25:29Z</time>
      </trkpt>
      <trkpt lat="50.92043" lon="2.62238">
        <ele>3.5</ele>
        <time>2017-08-04T06:25:30Z</time>
      </trkpt>
      <trkpt lat="50.92059" lon="2.6221">
        <ele>3.5</ele>
        <time>2017-08-04T06:25:35Z</time>
      </trkpt>
      <trkpt lat="50.92062" lon="2.62204">
        <ele>3.5</ele>
        <time>2017-08-04T06:25:36Z</time>
      </trkpt>
      <trkpt lat="50.92089" lon="2.62158">
        <ele>2.54</ele>
        <time>2017-08-04T06:25:44Z</time>
      </trkpt>
      <trkpt lat="50.921" lon="2.62142">
        <ele>2.54</ele>
        <time>2017-08-04T06:25:47Z</time>
      </trkpt>
      <trkpt lat="50.92142" lon="2.62065">
        <ele>2.54</ele>
        <time>2017-08-04T06:26:00Z</time>
      </trkpt>
      <trkpt lat="50.92197" lon="2.61991">
        <ele>4.46</ele>
        <time>2017-08-04T06:26:15Z</time>
      </trkpt>
      <trkpt lat="50.92216" lon="2.61967">
        <ele>4.94</ele>
        <time>2017-08-04T06:26:21Z</time>
      </trkpt>
      <trkpt lat="50.92215" lon="2.61965">
        <ele>4.94</ele>
        <time>2017-08-04T06:26:22Z</time>
      </trkpt>
      <trkpt lat="50.92213" lon="2.61964">
        <ele>4.94</ele>
        <time>2017-08-04T06:26:23Z</time>
      </trkpt>
      <trkpt lat="50.92211" lon="2.61965">
        <ele>4.94</ele>
        <time>2017-08-04T06:26:24Z</time>
      </trkpt>
      <trkpt lat="50.92209" lon="2.61966">
        <ele>4.94</ele>
        <time>2017-08-04T06:26:25Z</time>
      </trkpt>
      <trkpt lat="50.92207" lon="2.61968">
        <ele>4.94</ele>
        <time>2017-08-04T06:26:26Z</time>
      </trkpt>
      <trkpt lat="50.92205" lon="2.61969">
        <ele>4.94</ele>
        <time>2017-08-04T06:26:27Z</time>
      </trkpt>
      <trkpt lat="50.92204" lon="2.61969">
        <ele>4.94</ele>
        <time>2017-08-04T06:26:28Z</time>
      </trkpt>
      <trkpt lat="50.92202" lon="2.61968">
        <ele>4.94</ele>
        <time>2017-08-04T06:26:29Z</time>
      </trkpt>
      <trkpt lat="50.92201" lon="2.61966">
        <ele>4.94</ele>
        <time>2017-08-04T06:26:30Z</time>
      </trkpt>
      <trkpt lat="50.92183" lon="2.61915">
        <ele>4.94</ele>
        <time>2017-08-04T06:26:40Z</time>
      </trkpt>
      <trkpt lat="50.92178" lon="2.61862">
        <ele>5.42</ele>
        <time>2017-08-04T06:26:50Z</time>
      </trkpt>
      <trkpt lat="50.92174" lon="2.61822">
        <ele>5.42</ele>
        <time>2017-08-04T06:26:56Z</time>
      </trkpt>
      <trkpt lat="50.92173" lon="2.61814">
        <ele>5.42</ele>
        <time>2017-08-04T06:26:57Z</time>
      </trkpt>
      <trkpt lat="50.92172" lon="2.61804">
        <ele>5.42</ele>
        <time>2017-08-04T06:26:58Z</time>
      </trkpt>
      <trkpt lat="50.92167" lon="2.61761">
        <ele>3.98</ele>
        <time>2017-08-04T06:27:03Z</time>
      </trkpt>
      <trkpt lat="50.92139" lon="2.61636">
        <ele>3.98</ele>
        <time>2017-08-04T06:27:20Z</time>
      </trkpt>
      <trkpt lat="50.92129" lon="2.61588">
        <ele>3.98</ele>
        <time>2017-08-04T06:27:27Z</time>
      </trkpt>
      <trkpt lat="50.92124" lon="2.61549">
        <ele>3.98</ele>
        <time>2017-08-04T06:27:32Z</time>
      </trkpt>
      <trkpt lat="50.92119" lon="2.61532">
        <ele>3.5</ele>
        <time>2017-08-04T06:27:35Z</time>
      </trkpt>
      <trkpt lat="50.92116" lon="2.61527">
        <ele>3.5</ele>
        <time>2017-08-04T06:27:36Z</time>
      </trkpt>
      <trkpt lat="50.92114" lon="2.61522">
        <ele>3.5</ele>
        <time>2017-08-04T06:27:37Z</time>
      </trkpt>
      <trkpt lat="50.9211" lon="2.61518">
        <ele>3.5</ele>
        <time>2017-08-04T06:27:38Z</time>
      </trkpt>
      <trkpt lat="50.92106" lon="2.61515">
        <ele>3.5</ele>
        <time>2017-08-04T06:27:39Z</time>
      </trkpt>
      <trkpt lat="50.92102" lon="2.61511">
        <ele>3.5</ele>
        <time>2017-08-04T06:27:40Z</time>
      </trkpt>
      <trkpt lat="50.92098" lon="2.61508">
        <ele>3.5</ele>
        <time>2017-08-04T06:27:41Z</time>
      </trkpt>
      <trkpt lat="50.92094" lon="2.61503">
        <ele>3.5</ele>
        <time>2017-08-04T06:27:42Z</time>
      </trkpt>
      <trkpt lat="50.9209" lon="2.61499">
        <ele>3.5</ele>
        <time>2017-08-04T06:27:43Z</time>
      </trkpt>
      <trkpt lat="50.92026" lon="2.61407">
        <ele>3.02</ele>
        <time>2017-08-04T06:27:59Z</time>
      </trkpt>
      <trkpt lat="50.91967" lon="2.61317">
        <ele>3.02</ele>
        <time>2017-08-04T06:28:13Z</time>
      </trkpt>
      <trkpt lat="50.91964" lon="2.61308">
        <ele>2.06</ele>
        <time>2017-08-04T06:28:14Z</time>
      </trkpt>
      <trkpt lat="50.91962" lon="2.613">
        <ele>2.06</ele>
        <time>2017-08-04T06:28:15Z</time>
      </trkpt>
      <trkpt lat="50.9196" lon="2.6129">
        <ele>1.58</ele>
        <time>2017-08-04T06:28:16Z</time>
      </trkpt>
      <trkpt lat="50.91958" lon="2.61281">
        <ele>1.58</ele>
        <time>2017-08-04T06:28:17Z</time>
      </trkpt>
      <trkpt lat="50.91949" lon="2.61236">
        <ele>2.06</ele>
        <time>2017-08-04T06:28:22Z</time>
      </trkpt>
      <trkpt lat="50.91945" lon="2.61227">
        <ele>2.06</ele>
        <time>2017-08-04T06:28:23Z</time>
      </trkpt>
      <trkpt lat="50.91894" lon="2.61124">
        <ele>3.5</ele>
        <time>2017-08-04T06:28:40Z</time>
      </trkpt>
      <trkpt lat="50.91853" lon="2.61009">
        <ele>3.98</ele>
        <time>2017-08-04T06:28:59Z</time>
      </trkpt>
      <trkpt lat="50.91851" lon="2.60983">
        <ele>3.98</ele>
        <time>2017-08-04T06:29:03Z</time>
      </trkpt>
      <trkpt lat="50.91851" lon="2.60977">
        <ele>4.46</ele>
        <time>2017-08-04T06:29:04Z</time>
      </trkpt>
      <trkpt lat="50.91852" lon="2.60971">
        <ele>4.46</ele>
        <time>2017-08-04T06:29:05Z</time>
      </trkpt>
      <trkpt lat="50.91854" lon="2.60964">
        <ele>4.94</ele>
        <time>2017-08-04T06:29:06Z</time>
      </trkpt>
      <trkpt lat="50.91855" lon="2.60959">
        <ele>4.94</ele>
        <time>2017-08-04T06:29:07Z</time>
      </trkpt>
      <trkpt lat="50.91871" lon="2.60845">
        <ele>4.94</ele>
        <time>2017-08-04T06:29:23Z</time>
      </trkpt>
      <trkpt lat="50.91872" lon="2.6083">
        <ele>3.5</ele>
        <time>2017-08-04T06:29:25Z</time>
      </trkpt>
      <trkpt lat="50.91876" lon="2.60759">
        <ele>3.5</ele>
        <time>2017-08-04T06:29:34Z</time>
      </trkpt>
      <trkpt lat="50.91875" lon="2.60743">
        <ele>3.5</ele>
        <time>2017-08-04T06:29:36Z</time>
      </trkpt>
      <trkpt lat="50.91874" lon="2.60735">
        <ele>3.5</ele>
        <time>2017-08-04T06:29:37Z</time>
      </trkpt>
      <trkpt lat="50.91872" lon="2.60728">
        <ele>3.5</ele>
        <time>2017-08-04T06:29:38Z</time>
      </trkpt>
      <trkpt lat="50.91869" lon="2.60721">
        <ele>3.5</ele>
        <time>2017-08-04T06:29:39Z</time>
      </trkpt>
      <trkpt lat="50.91866" lon="2.60714">
        <ele>3.5</ele>
        <time>2017-08-04T06:29:40Z</time>
      </trkpt>
      <trkpt lat="50.91863" lon="2.60708">
        <ele>3.5</ele>
        <time>2017-08-04T06:29:41Z</time>
      </trkpt>
      <trkpt lat="50.91797" lon="2.60585">
        <ele>2.54</ele>
        <time>2017-08-04T06:30:00Z</time>
      </trkpt>
      <trkpt lat="50.9179" lon="2.60571">
        <ele>2.54</ele>
        <time>2017-08-04T06:30:02Z</time>
      </trkpt>
      <trkpt lat="50.91787" lon="2.60566">
        <ele>2.54</ele>
        <time>2017-08-04T06:30:03Z</time>
      </trkpt>
      <trkpt lat="50.91782" lon="2.60561">
        <ele>2.54</ele>
        <time>2017-08-04T06:30:04Z</time>
      </trkpt>
      <trkpt lat="50.91742" lon="2.60521">
        <ele>2.54</ele>
        <time>2017-08-04T06:30:13Z</time>
      </trkpt>
      <trkpt lat="50.91738" lon="2.60514">
        <ele>2.54</ele>
        <time>2017-08-04T06:30:14Z</time>
      </trkpt>
      <trkpt lat="50.91735" lon="2.60507">
        <ele>2.54</ele>
        <time>2017-08-04T06:30:15Z</time>
      </trkpt>
      <trkpt lat="50.91728" lon="2.60472">
        <ele>2.54</ele>
        <time>2017-08-04T06:30:19Z</time>
      </trkpt>
      <trkpt lat="50.91725" lon="2.60423">
        <ele>2.54</ele>
        <time>2017-08-04T06:30:24Z</time>
      </trkpt>
      <trkpt lat="50.91725" lon="2.60413">
        <ele>2.54</ele>
        <time>2017-08-04T06:30:25Z</time>
      </trkpt>
      <trkpt lat="50.91734" lon="2.6035">
        <ele>2.54</ele>
        <time>2017-08-04T06:30:32Z</time>
      </trkpt>
      <trkpt lat="50.9174" lon="2.60232">
        <ele>3.98</ele>
        <time>2017-08-04T06:30:45Z</time>
      </trkpt>
      <trkpt lat="50.9174" lon="2.60223">
        <ele>4.46</ele>
        <time>2017-08-04T06:30:46Z</time>
      </trkpt>
      <trkpt lat="50.91739" lon="2.60215">
        <ele>4.46</ele>
        <time>2017-08-04T06:30:47Z</time>
      </trkpt>
      <trkpt lat="50.91737" lon="2.60197">
        <ele>4.46</ele>
        <time>2017-08-04T06:30:49Z</time>
      </trkpt>
      <trkpt lat="50.91736" lon="2.60188">
        <ele>4.46</ele>
        <time>2017-08-04T06:30:50Z</time>
      </trkpt>
      <trkpt lat="50.91716" lon="2.60117">
        <ele>4.46</ele>
        <time>2017-08-04T06:30:59Z</time>
      </trkpt>
      <trkpt lat="50.91713" lon="2.60111">
        <ele>4.46</ele>
        <time>2017-08-04T06:31:00Z</time>
      </trkpt>
      <trkpt lat="50.91709" lon="2.60105">
        <ele>4.46</ele>
        <time>2017-08-04T06:31:01Z</time>
      </trkpt>
      <trkpt lat="50.91705" lon="2.60099">
        <ele>4.46</ele>
        <time>2017-08-04T06:31:02Z</time>
      </trkpt>
      <trkpt lat="50.917" lon="2.60094">
        <ele>4.46</ele>
        <time>2017-08-04T06:31:03Z</time>
      </trkpt>
      <trkpt lat="50.91695" lon="2.6009">
        <ele>4.46</ele>
        <time>2017-08-04T06:31:04Z</time>
      </trkpt>
      <trkpt lat="50.91638" lon="2.6001">
        <ele>4.46</ele>
        <time>2017-08-04T06:31:18Z</time>
      </trkpt>
      <trkpt lat="50.91589" lon="2.59872">
        <ele>4.94</ele>
        <time>2017-08-04T06:31:37Z</time>
      </trkpt>
      <trkpt lat="50.91568" lon="2.59731">
        <ele>4.94</ele>
        <time>2017-08-04T06:31:54Z</time>
      </trkpt>
      <trkpt lat="50.91515" lon="2.596">
        <ele>4.94</ele>
        <time>2017-08-04T06:32:13Z</time>
      </trkpt>
      <trkpt lat="50.91506" lon="2.59578">
        <ele>4.94</ele>
        <time>2017-08-04T06:32:16Z</time>
      </trkpt>
      <trkpt lat="50.91505" lon="2.59572">
        <ele>4.94</ele>
        <time>2017-08-04T06:32:17Z</time>
      </trkpt>
      <trkpt lat="50.91504" lon="2.59565">
        <ele>4.94</ele>
        <time>2017-08-04T06:32:18Z</time>
      </trkpt>
      <trkpt lat="50.91503" lon="2.59557">
        <ele>4.94</ele>
        <time>2017-08-04T06:32:19Z</time>
      </trkpt>
      <trkpt lat="50.91502" lon="2.59549">
        <ele>4.94</ele>
        <time>2017-08-04T06:32:20Z</time>
      </trkpt>
      <trkpt lat="50.91501" lon="2.59504">
        <ele>4.94</ele>
        <time>2017-08-04T06:32:26Z</time>
      </trkpt>
      <trkpt lat="50.91503" lon="2.59497">
        <ele>4.94</ele>
        <time>2017-08-04T06:32:27Z</time>
      </trkpt>
      <trkpt lat="50.91506" lon="2.5949">
        <ele>4.94</ele>
        <time>2017-08-04T06:32:28Z</time>
      </trkpt>
      <trkpt lat="50.91509" lon="2.59486">
        <ele>4.94</ele>
        <time>2017-08-04T06:32:29Z</time>
      </trkpt>
      <trkpt lat="50.91513" lon="2.59482">
        <ele>4.94</ele>
        <time>2017-08-04T06:32:30Z</time>
      </trkpt>
      <trkpt lat="50.91517" lon="2.59479">
        <ele>4.94</ele>
        <time>2017-08-04T06:32:31Z</time>
      </trkpt>
      <trkpt lat="50.91535" lon="2.59467">
        <ele>5.42</ele>
        <time>2017-08-04T06:32:35Z</time>
      </trkpt>
      <trkpt lat="50.91539" lon="2.59466">
        <ele>5.42</ele>
        <time>2017-08-04T06:32:36Z</time>
      </trkpt>
      <trkpt lat="50.91551" lon="2.59459">
        <ele>5.91</ele>
        <time>2017-08-04T06:32:39Z</time>
      </trkpt>
      <trkpt lat="50.91632" lon="2.59458">
        <ele>7.83</ele>
        <time>2017-08-04T06:32:57Z</time>
      </trkpt>
      <trkpt lat="50.91701" lon="2.59458">
        <ele>9.75</ele>
        <time>2017-08-04T06:33:13Z</time>
      </trkpt>
      <trkpt lat="50.91719" lon="2.59457">
        <ele>10.23</ele>
        <time>2017-08-04T06:33:17Z</time>
      </trkpt>
      <trkpt lat="50.91723" lon="2.59457">
        <ele>10.23</ele>
        <time>2017-08-04T06:33:18Z</time>
      </trkpt>
      <trkpt lat="50.91795" lon="2.59465">
        <ele>10.71</ele>
        <time>2017-08-04T06:33:34Z</time>
      </trkpt>
      <trkpt lat="50.91861" lon="2.59443">
        <ele>11.67</ele>
        <time>2017-08-04T06:33:49Z</time>
      </trkpt>
      <trkpt lat="50.91932" lon="2.59398">
        <ele>12.63</ele>
        <time>2017-08-04T06:34:06Z</time>
      </trkpt>
      <trkpt lat="50.91997" lon="2.59347">
        <ele>13.6</ele>
        <time>2017-08-04T06:34:22Z</time>
      </trkpt>
      <trkpt lat="50.92008" lon="2.59322">
        <ele>13.6</ele>
        <time>2017-08-04T06:34:28Z</time>
      </trkpt>
      <trkpt lat="50.92007" lon="2.59317">
        <ele>13.6</ele>
        <time>2017-08-04T06:34:29Z</time>
      </trkpt>
      <trkpt lat="50.92005" lon="2.59312">
        <ele>13.6</ele>
        <time>2017-08-04T06:34:30Z</time>
      </trkpt>
      <trkpt lat="50.92002" lon="2.59306">
        <ele>13.6</ele>
        <time>2017-08-04T06:34:31Z</time>
      </trkpt>
      <trkpt lat="50.92" lon="2.59301">
        <ele>13.6</ele>
        <time>2017-08-04T06:34:32Z</time>
      </trkpt>
      <trkpt lat="50.91983" lon="2.59257">
        <ele>12.15</ele>
        <time>2017-08-04T06:34:39Z</time>
      </trkpt>
      <trkpt lat="50.91976" lon="2.59238">
        <ele>11.67</ele>
        <time>2017-08-04T06:34:42Z</time>
      </trkpt>
      <trkpt lat="50.91973" lon="2.59232">
        <ele>11.67</ele>
        <time>2017-08-04T06:34:43Z</time>
      </trkpt>
      <trkpt lat="50.9197" lon="2.59226">
        <ele>11.19</ele>
        <time>2017-08-04T06:34:44Z</time>
      </trkpt>
      <trkpt lat="50.91968" lon="2.59219">
        <ele>11.19</ele>
        <time>2017-08-04T06:34:45Z</time>
      </trkpt>
      <trkpt lat="50.91965" lon="2.59212">
        <ele>11.19</ele>
        <time>2017-08-04T06:34:46Z</time>
      </trkpt>
      <trkpt lat="50.91955" lon="2.59182">
        <ele>10.23</ele>
        <time>2017-08-04T06:34:50Z</time>
      </trkpt>
      <trkpt lat="50.9193" lon="2.5906">
        <ele>7.35</ele>
        <time>2017-08-04T06:35:03Z</time>
      </trkpt>
      <trkpt lat="50.91924" lon="2.59033">
        <ele>6.87</ele>
        <time>2017-08-04T06:35:06Z</time>
      </trkpt>
      <trkpt lat="50.91916" lon="2.5901">
        <ele>6.39</ele>
        <time>2017-08-04T06:35:09Z</time>
      </trkpt>
      <trkpt lat="50.91912" lon="2.59003">
        <ele>6.39</ele>
        <time>2017-08-04T06:35:10Z</time>
      </trkpt>
      <trkpt lat="50.91908" lon="2.58997">
        <ele>6.39</ele>
        <time>2017-08-04T06:35:11Z</time>
      </trkpt>
      <trkpt lat="50.91893" lon="2.58976">
        <ele>6.39</ele>
        <time>2017-08-04T06:35:15Z</time>
      </trkpt>
      <trkpt lat="50.9185" lon="2.58924">
        <ele>7.83</ele>
        <time>2017-08-04T06:35:26Z</time>
      </trkpt>
      <trkpt lat="50.91797" lon="2.58889">
        <ele>9.27</ele>
        <time>2017-08-04T06:35:41Z</time>
      </trkpt>
      <trkpt lat="50.91762" lon="2.58888">
        <ele>9.27</ele>
        <time>2017-08-04T06:35:50Z</time>
      </trkpt>
      <trkpt lat="50.91759" lon="2.58882">
        <ele>9.27</ele>
        <time>2017-08-04T06:35:51Z</time>
      </trkpt>
      <trkpt lat="50.91758" lon="2.58878">
        <ele>9.27</ele>
        <time>2017-08-04T06:35:52Z</time>
      </trkpt>
      <trkpt lat="50.91734" lon="2.58776">
        <ele>9.75</ele>
        <time>2017-08-04T06:36:08Z</time>
      </trkpt>
      <trkpt lat="50.91703" lon="2.58651">
        <ele>10.23</ele>
        <time>2017-08-04T06:36:26Z</time>
      </trkpt>
      <trkpt lat="50.91701" lon="2.58644">
        <ele>10.23</ele>
        <time>2017-08-04T06:36:27Z</time>
      </trkpt>
      <trkpt lat="50.91699" lon="2.58638">
        <ele>10.23</ele>
        <time>2017-08-04T06:36:28Z</time>
      </trkpt>
      <trkpt lat="50.91697" lon="2.5863">
        <ele>10.23</ele>
        <time>2017-08-04T06:36:29Z</time>
      </trkpt>
      <trkpt lat="50.91655" lon="2.58487">
        <ele>10.23</ele>
        <time>2017-08-04T06:36:49Z</time>
      </trkpt>
      <trkpt lat="50.91651" lon="2.58472">
        <ele>8.79</ele>
        <time>2017-08-04T06:36:51Z</time>
      </trkpt>
      <trkpt lat="50.91608" lon="2.58341">
        <ele>8.79</ele>
        <time>2017-08-04T06:37:10Z</time>
      </trkpt>
      <trkpt lat="50.91554" lon="2.58182">
        <ele>8.31</ele>
        <time>2017-08-04T06:37:31Z</time>
      </trkpt>
      <trkpt lat="50.91519" lon="2.58044">
        <ele>8.31</ele>
        <time>2017-08-04T06:37:49Z</time>
      </trkpt>
      <trkpt lat="50.91492" lon="2.57943">
        <ele>9.27</ele>
        <time>2017-08-04T06:38:05Z</time>
      </trkpt>
      <trkpt lat="50.91466" lon="2.57842">
        <ele>9.27</ele>
        <time>2017-08-04T06:38:19Z</time>
      </trkpt>
      <trkpt lat="50.91454" lon="2.57796">
        <ele>9.75</ele>
        <time>2017-08-04T06:38:28Z</time>
      </trkpt>
      <trkpt lat="50.91422" lon="2.57711">
        <ele>8.79</ele>
        <time>2017-08-04T06:38:42Z</time>
      </trkpt>
      <trkpt lat="50.91411" lon="2.57666">
        <ele>8.79</ele>
        <time>2017-08-04T06:38:49Z</time>
      </trkpt>
      <trkpt lat="50.91409" lon="2.57659">
        <ele>8.79</ele>
        <time>2017-08-04T06:38:50Z</time>
      </trkpt>
      <trkpt lat="50.91368" lon="2.57512">
        <ele>8.31</ele>
        <time>2017-08-04T06:39:10Z</time>
      </trkpt>
      <trkpt lat="50.91324" lon="2.57358">
        <ele>8.31</ele>
        <time>2017-08-04T06:39:31Z</time>
      </trkpt>
      <trkpt lat="50.91279" lon="2.57246">
        <ele>8.31</ele>
        <time>2017-08-04T06:39:48Z</time>
      </trkpt>
      <trkpt lat="50.91226" lon="2.57114">
        <ele>8.31</ele>
        <time>2017-08-04T06:40:07Z</time>
      </trkpt>
      <trkpt lat="50.91166" lon="2.56988">
        <ele>7.83</ele>
        <time>2017-08-04T06:40:24Z</time>
      </trkpt>
      <trkpt lat="50.91096" lon="2.56871">
        <ele>6.87</ele>
        <time>2017-08-04T06:40:41Z</time>
      </trkpt>
      <trkpt lat="50.91023" lon="2.56724">
        <ele>6.87</ele>
        <time>2017-08-04T06:41:02Z</time>
      </trkpt>
      <trkpt lat="50.90974" lon="2.5661">
        <ele>6.39</ele>
        <time>2017-08-04T06:41:18Z</time>
      </trkpt>
      <trkpt lat="50.90972" lon="2.56603">
        <ele>6.39</ele>
        <time>2017-08-04T06:41:19Z</time>
      </trkpt>
      <trkpt lat="50.90971" lon="2.56595">
        <ele>6.39</ele>
        <time>2017-08-04T06:41:20Z</time>
      </trkpt>
      <trkpt lat="50.90961" lon="2.56522">
        <ele>7.35</ele>
        <time>2017-08-04T06:41:29Z</time>
      </trkpt>
      <trkpt lat="50.90946" lon="2.5641">
        <ele>7.35</ele>
        <time>2017-08-04T06:41:43Z</time>
      </trkpt>
      <trkpt lat="50.90946" lon="2.56402">
        <ele>7.35</ele>
        <time>2017-08-04T06:41:44Z</time>
      </trkpt>
      <trkpt lat="50.90946" lon="2.56395">
        <ele>7.35</ele>
        <time>2017-08-04T06:41:45Z</time>
      </trkpt>
      <trkpt lat="50.90943" lon="2.56349">
        <ele>7.35</ele>
        <time>2017-08-04T06:41:52Z</time>
      </trkpt>
      <trkpt lat="50.9094" lon="2.56337">
        <ele>7.35</ele>
        <time>2017-08-04T06:41:54Z</time>
      </trkpt>
      <trkpt lat="50.90937" lon="2.56332">
        <ele>7.35</ele>
        <time>2017-08-04T06:41:55Z</time>
      </trkpt>
      <trkpt lat="50.90934" lon="2.56326">
        <ele>7.35</ele>
        <time>2017-08-04T06:41:56Z</time>
      </trkpt>
      <trkpt lat="50.90886" lon="2.5622">
        <ele>5.91</ele>
        <time>2017-08-04T06:42:14Z</time>
      </trkpt>
      <trkpt lat="50.90884" lon="2.56214">
        <ele>5.91</ele>
        <time>2017-08-04T06:42:15Z</time>
      </trkpt>
      <trkpt lat="50.9084" lon="2.56082">
        <ele>5.91</ele>
        <time>2017-08-04T06:42:36Z</time>
      </trkpt>
      <trkpt lat="50.90805" lon="2.55968">
        <ele>5.91</ele>
        <time>2017-08-04T06:42:56Z</time>
      </trkpt>
      <trkpt lat="50.90789" lon="2.55897">
        <ele>5.91</ele>
        <time>2017-08-04T06:43:07Z</time>
      </trkpt>
      <trkpt lat="50.90783" lon="2.5587">
        <ele>5.91</ele>
        <time>2017-08-04T06:43:11Z</time>
      </trkpt>
      <trkpt lat="50.90781" lon="2.55864">
        <ele>5.91</ele>
        <time>2017-08-04T06:43:12Z</time>
      </trkpt>
      <trkpt lat="50.90774" lon="2.55846">
        <ele>6.39</ele>
        <time>2017-08-04T06:43:15Z</time>
      </trkpt>
      <trkpt lat="50.90725" lon="2.55739">
        <ele>6.39</ele>
        <time>2017-08-04T06:43:34Z</time>
      </trkpt>
      <trkpt lat="50.90721" lon="2.55712">
        <ele>6.39</ele>
        <time>2017-08-04T06:43:38Z</time>
      </trkpt>
      <trkpt lat="50.9072" lon="2.55706">
        <ele>6.39</ele>
        <time>2017-08-04T06:43:39Z</time>
      </trkpt>
      <trkpt lat="50.9072" lon="2.557">
        <ele>7.35</ele>
        <time>2017-08-04T06:43:40Z</time>
      </trkpt>
      <trkpt lat="50.90702" lon="2.5564">
        <ele>7.83</ele>
        <time>2017-08-04T06:43:52Z</time>
      </trkpt>
      <trkpt lat="50.90689" lon="2.55611">
        <ele>6.39</ele>
        <time>2017-08-04T06:43:57Z</time>
      </trkpt>
      <trkpt lat="50.90635" lon="2.55491">
        <ele>6.39</ele>
        <time>2017-08-04T06:44:18Z</time>
      </trkpt>
      <trkpt lat="50.90609" lon="2.55438">
        <ele>6.39</ele>
        <time>2017-08-04T06:44:27Z</time>
      </trkpt>
      <trkpt lat="50.90606" lon="2.55434">
        <ele>6.39</ele>
        <time>2017-08-04T06:44:28Z</time>
      </trkpt>
      <trkpt lat="50.90594" lon="2.55422">
        <ele>6.39</ele>
        <time>2017-08-04T06:44:31Z</time>
      </trkpt>
      <trkpt lat="50.9059" lon="2.55419">
        <ele>6.39</ele>
        <time>2017-08-04T06:44:32Z</time>
      </trkpt>
      <trkpt lat="50.90585" lon="2.55417">
        <ele>6.39</ele>
        <time>2017-08-04T06:44:33Z</time>
      </trkpt>
      <trkpt lat="50.9058" lon="2.55415">
        <ele>6.39</ele>
        <time>2017-08-04T06:44:34Z</time>
      </trkpt>
      <trkpt lat="50.90576" lon="2.55414">
        <ele>6.39</ele>
        <time>2017-08-04T06:44:35Z</time>
      </trkpt>
      <trkpt lat="50.90495" lon="2.55399">
        <ele>5.42</ele>
        <time>2017-08-04T06:44:51Z</time>
      </trkpt>
      <trkpt lat="50.90465" lon="2.55389">
        <ele>6.87</ele>
        <time>2017-08-04T06:44:57Z</time>
      </trkpt>
      <trkpt lat="50.9036" lon="2.55358">
        <ele>6.87</ele>
        <time>2017-08-04T06:45:19Z</time>
      </trkpt>
      <trkpt lat="50.90271" lon="2.5532">
        <ele>6.87</ele>
        <time>2017-08-04T06:45:38Z</time>
      </trkpt>
      <trkpt lat="50.90187" lon="2.55315">
        <ele>7.35</ele>
        <time>2017-08-04T06:45:56Z</time>
      </trkpt>
      <trkpt lat="50.90175" lon="2.55315">
        <ele>7.35</ele>
        <time>2017-08-04T06:45:59Z</time>
      </trkpt>
      <trkpt lat="50.90167" lon="2.55315">
        <ele>7.35</ele>
        <time>2017-08-04T06:46:01Z</time>
      </trkpt>
      <trkpt lat="50.90163" lon="2.55314">
        <ele>7.35</ele>
        <time>2017-08-04T06:46:02Z</time>
      </trkpt>
      <trkpt lat="50.90154" lon="2.55309">
        <ele>7.35</ele>
        <time>2017-08-04T06:46:04Z</time>
      </trkpt>
      <trkpt lat="50.90151" lon="2.55304">
        <ele>7.35</ele>
        <time>2017-08-04T06:46:05Z</time>
      </trkpt>
      <trkpt lat="50.90149" lon="2.55297">
        <ele>5.91</ele>
        <time>2017-08-04T06:46:06Z</time>
      </trkpt>
      <trkpt lat="50.90148" lon="2.55291">
        <ele>5.91</ele>
        <time>2017-08-04T06:46:07Z</time>
      </trkpt>
      <trkpt lat="50.90148" lon="2.55284">
        <ele>6.39</ele>
        <time>2017-08-04T06:46:08Z</time>
      </trkpt>
      <trkpt lat="50.90142" lon="2.55233">
        <ele>7.35</ele>
        <time>2017-08-04T06:46:16Z</time>
      </trkpt>
      <trkpt lat="50.90134" lon="2.55163">
        <ele>7.35</ele>
        <time>2017-08-04T06:46:27Z</time>
      </trkpt>
      <trkpt lat="50.90132" lon="2.5503">
        <ele>7.35</ele>
        <time>2017-08-04T06:46:44Z</time>
      </trkpt>
      <trkpt lat="50.90131" lon="2.54987">
        <ele>7.35</ele>
        <time>2017-08-04T06:46:50Z</time>
      </trkpt>
      <trkpt lat="50.90129" lon="2.54979">
        <ele>7.35</ele>
        <time>2017-08-04T06:46:51Z</time>
      </trkpt>
      <trkpt lat="50.90125" lon="2.54975">
        <ele>7.83</ele>
        <time>2017-08-04T06:46:52Z</time>
      </trkpt>
      <trkpt lat="50.9012" lon="2.54973">
        <ele>7.83</ele>
        <time>2017-08-04T06:46:53Z</time>
      </trkpt>
      <trkpt lat="50.90116" lon="2.54973">
        <ele>7.83</ele>
        <time>2017-08-04T06:46:54Z</time>
      </trkpt>
      <trkpt lat="50.90111" lon="2.54973">
        <ele>7.83</ele>
        <time>2017-08-04T06:46:55Z</time>
      </trkpt>
      <trkpt lat="50.90106" lon="2.54972">
        <ele>7.83</ele>
        <time>2017-08-04T06:46:56Z</time>
      </trkpt>
      <trkpt lat="50.90101" lon="2.54971">
        <ele>7.83</ele>
        <time>2017-08-04T06:46:57Z</time>
      </trkpt>
      <trkpt lat="50.90003" lon="2.5493">
        <ele>7.83</ele>
        <time>2017-08-04T06:47:17Z</time>
      </trkpt>
      <trkpt lat="50.89924" lon="2.54896">
        <ele>6.39</ele>
        <time>2017-08-04T06:47:33Z</time>
      </trkpt>
      <trkpt lat="50.89839" lon="2.54851">
        <ele>5.91</ele>
        <time>2017-08-04T06:47:49Z</time>
      </trkpt>
      <trkpt lat="50.89775" lon="2.54808">
        <ele>5.91</ele>
        <time>2017-08-04T06:48:03Z</time>
      </trkpt>
      <trkpt lat="50.89746" lon="2.54789">
        <ele>7.35</ele>
        <time>2017-08-04T06:48:09Z</time>
      </trkpt>
      <trkpt lat="50.89658" lon="2.54733">
        <ele>8.31</ele>
        <time>2017-08-04T06:48:28Z</time>
      </trkpt>
      <trkpt lat="50.89566" lon="2.54673">
        <ele>9.75</ele>
        <time>2017-08-04T06:48:49Z</time>
      </trkpt>
      <trkpt lat="50.89493" lon="2.54626">
        <ele>11.67</ele>
        <time>2017-08-04T06:49:06Z</time>
      </trkpt>
      <trkpt lat="50.89487" lon="2.54622">
        <ele>10.23</ele>
        <time>2017-08-04T06:49:07Z</time>
      </trkpt>
      <trkpt lat="50.89483" lon="2.54619">
        <ele>10.23</ele>
        <time>2017-08-04T06:49:08Z</time>
      </trkpt>
      <trkpt lat="50.89451" lon="2.54591">
        <ele>9.75</ele>
        <time>2017-08-04T06:49:15Z</time>
      </trkpt>
      <trkpt lat="50.89447" lon="2.54587">
        <ele>9.75</ele>
        <time>2017-08-04T06:49:16Z</time>
      </trkpt>
      <trkpt lat="50.89397" lon="2.54535">
        <ele>10.71</ele>
        <time>2017-08-04T06:49:27Z</time>
      </trkpt>
      <trkpt lat="50.89331" lon="2.54452">
        <ele>10.71</ele>
        <time>2017-08-04T06:49:44Z</time>
      </trkpt>
      <trkpt lat="50.89272" lon="2.54374">
        <ele>9.27</ele>
        <time>2017-08-04T06:49:59Z</time>
      </trkpt>
      <trkpt lat="50.89201" lon="2.54279">
        <ele>9.27</ele>
        <time>2017-08-04T06:50:18Z</time>
      </trkpt>
      <trkpt lat="50.89151" lon="2.54217">
        <ele>10.71</ele>
        <time>2017-08-04T06:50:31Z</time>
      </trkpt>
      <trkpt lat="50.89086" lon="2.54136">
        <ele>11.67</ele>
        <time>2017-08-04T06:50:48Z</time>
      </trkpt>
      <trkpt lat="50.89039" lon="2.5406">
        <ele>12.15</ele>
        <time>2017-08-04T06:51:02Z</time>
      </trkpt>
      <trkpt lat="50.8898" lon="2.53967">
        <ele>12.63</ele>
        <time>2017-08-04T06:51:20Z</time>
      </trkpt>
      <trkpt lat="50.88902" lon="2.53844">
        <ele>13.12</ele>
        <time>2017-08-04T06:51:42Z</time>
      </trkpt>
      <trkpt lat="50.88834" lon="2.53743">
        <ele>11.67</ele>
        <time>2017-08-04T06:52:00Z</time>
      </trkpt>
      <trkpt lat="50.88799" lon="2.53698">
        <ele>11.19</ele>
        <time>2017-08-04T06:52:09Z</time>
      </trkpt>
      <trkpt lat="50.88751" lon="2.53616">
        <ele>11.19</ele>
        <time>2017-08-04T06:52:24Z</time>
      </trkpt>
      <trkpt lat="50.88694" lon="2.53514">
        <ele>11.19</ele>
        <time>2017-08-04T06:52:43Z</time>
      </trkpt>
      <trkpt lat="50.88682" lon="2.53498">
        <ele>11.19</ele>
        <time>2017-08-04T06:52:47Z</time>
      </trkpt>
      <trkpt lat="50.88675" lon="2.53491">
        <ele>11.19</ele>
        <time>2017-08-04T06:52:49Z</time>
      </trkpt>
      <trkpt lat="50.88672" lon="2.53487">
        <ele>11.19</ele>
        <time>2017-08-04T06:52:50Z</time>
      </trkpt>
      <trkpt lat="50.88669" lon="2.53482">
        <ele>11.19</ele>
        <time>2017-08-04T06:52:51Z</time>
      </trkpt>
      <trkpt lat="50.88666" lon="2.53478">
        <ele>11.19</ele>
        <time>2017-08-04T06:52:52Z</time>
      </trkpt>
      <trkpt lat="50.88663" lon="2.53474">
        <ele>11.19</ele>
        <time>2017-08-04T06:52:53Z</time>
      </trkpt>
      <trkpt lat="50.88659" lon="2.5347">
        <ele>11.19</ele>
        <time>2017-08-04T06:52:54Z</time>
      </trkpt>
      <trkpt lat="50.88625" lon="2.53439">
        <ele>11.19</ele>
        <time>2017-08-04T06:53:06Z</time>
      </trkpt>
      <trkpt lat="50.88624" lon="2.53441">
        <ele>11.19</ele>
        <time>2017-08-04T06:53:07Z</time>
      </trkpt>
      <trkpt lat="50.88624" lon="2.53443">
        <ele>11.19</ele>
        <time>2017-08-04T06:53:08Z</time>
      </trkpt>
      <trkpt lat="50.88623" lon="2.53445">
        <ele>11.19</ele>
        <time>2017-08-04T06:53:09Z</time>
      </trkpt>
      <trkpt lat="50.88622" lon="2.53447">
        <ele>11.19</ele>
        <time>2017-08-04T06:53:10Z</time>
      </trkpt>
      <trkpt lat="50.88621" lon="2.53449">
        <ele>11.19</ele>
        <time>2017-08-04T06:53:11Z</time>
      </trkpt>
      <trkpt lat="50.8862" lon="2.5345">
        <ele>11.19</ele>
        <time>2017-08-04T06:53:12Z</time>
      </trkpt>
      <trkpt lat="50.88624" lon="2.53454">
        <ele>11.19</ele>
        <time>2017-08-04T06:53:24Z</time>
      </trkpt>
      <trkpt lat="50.88624" lon="2.53454">
        <ele>12.63</ele>
        <time>2017-08-04T06:53:40Z</time>
      </trkpt>
      <trkpt lat="50.88625" lon="2.53455">
        <ele>12.63</ele>
        <time>2017-08-04T06:54:03Z</time>
      </trkpt>
      <trkpt lat="50.88626" lon="2.53455">
        <ele>11.19</ele>
        <time>2017-08-04T06:54:08Z</time>
      </trkpt>
      <trkpt lat="50.88624" lon="2.53457">
        <ele>11.19</ele>
        <time>2017-08-04T06:54:21Z</time>
      </trkpt>
      <trkpt lat="50.88626" lon="2.53459">
        <ele>11.19</ele>
        <time>2017-08-04T06:54:36Z</time>
      </trkpt>
      <trkpt lat="50.88626" lon="2.53466">
        <ele>11.19</ele>
        <time>2017-08-04T06:54:56Z</time>
      </trkpt>
      <trkpt lat="50.88623" lon="2.53473">
        <ele>11.19</ele>
        <time>2017-08-04T06:55:16Z</time>
      </trkpt>
      <trkpt lat="50.88622" lon="2.53477">
        <ele>11.19</ele>
        <time>2017-08-04T06:55:30Z</time>
      </trkpt>
      <trkpt lat="50.88624" lon="2.53474">
        <ele>11.19</ele>
        <time>2017-08-04T06:55:47Z</time>
      </trkpt>
      <trkpt lat="50.88624" lon="2.53473">
        <ele>10.71</ele>
        <time>2017-08-04T06:56:00Z</time>
      </trkpt>
      <trkpt lat="50.88623" lon="2.53472">
        <ele>10.71</ele>
        <time>2017-08-04T06:56:14Z</time>
      </trkpt>
      <trkpt lat="50.88626" lon="2.53466">
        <ele>10.71</ele>
        <time>2017-08-04T06:56:27Z</time>
      </trkpt>
      <trkpt lat="50.88628" lon="2.53466">
        <ele>10.71</ele>
        <time>2017-08-04T06:56:45Z</time>
      </trkpt>
      <trkpt lat="50.88631" lon="2.53463">
        <ele>10.71</ele>
        <time>2017-08-04T06:57:06Z</time>
      </trkpt>
      <trkpt lat="50.88631" lon="2.53464">
        <ele>10.71</ele>
        <time>2017-08-04T06:57:27Z</time>
      </trkpt>
      <trkpt lat="50.8863" lon="2.53464">
        <ele>10.71</ele>
        <time>2017-08-04T06:57:50Z</time>
      </trkpt>
      <trkpt lat="50.88629" lon="2.53462">
        <ele>11.19</ele>
        <time>2017-08-04T06:58:16Z</time>
      </trkpt>
      <trkpt lat="50.88625" lon="2.53455">
        <ele>9.75</ele>
        <time>2017-08-04T06:58:24Z</time>
      </trkpt>
      <trkpt lat="50.88623" lon="2.53457">
        <ele>9.75</ele>
        <time>2017-08-04T06:58:39Z</time>
      </trkpt>
      <trkpt lat="50.88622" lon="2.53457">
        <ele>9.27</ele>
        <time>2017-08-04T06:58:53Z</time>
      </trkpt>
      <trkpt lat="50.88622" lon="2.53456">
        <ele>10.23</ele>
        <time>2017-08-04T06:59:22Z</time>
      </trkpt>
      <trkpt lat="50.88621" lon="2.53453">
        <ele>10.23</ele>
        <time>2017-08-04T06:59:53Z</time>
      </trkpt>
      <trkpt lat="50.88621" lon="2.53454">
        <ele>9.27</ele>
        <time>2017-08-04T07:00:15Z</time>
      </trkpt>
      <trkpt lat="50.8862" lon="2.53454">
        <ele>16</ele>
        <time>2017-08-04T07:00:20Z</time>
      </trkpt>
      <trkpt lat="50.8862" lon="2.53454">
        <ele>16</ele>
        <time>2017-08-04T07:00:21Z</time>
      </trkpt>
      <trkpt lat="50.8862" lon="2.53454">
        <ele>13.12</ele>
        <time>2017-08-04T07:00:26Z</time>
      </trkpt>
      <trkpt lat="50.88622" lon="2.53455">
        <ele>13.6</ele>
        <time>2017-08-04T07:00:46Z</time>
      </trkpt>
      <trkpt lat="50.88622" lon="2.53456">
        <ele>13.6</ele>
        <time>2017-08-04T07:01:03Z</time>
      </trkpt>
      <trkpt lat="50.88623" lon="2.53452">
        <ele>13.6</ele>
        <time>2017-08-04T07:01:31Z</time>
      </trkpt>
      <trkpt lat="50.88623" lon="2.53449">
        <ele>13.6</ele>
        <time>2017-08-04T07:01:33Z</time>
      </trkpt>
      <trkpt lat="50.88623" lon="2.53447">
        <ele>13.6</ele>
        <time>2017-08-04T07:01:34Z</time>
      </trkpt>
      <trkpt lat="50.88623" lon="2.53443">
        <ele>13.6</ele>
        <time>2017-08-04T07:01:35Z</time>
      </trkpt>
      <trkpt lat="50.88622" lon="2.53439">
        <ele>13.6</ele>
        <time>2017-08-04T07:01:36Z</time>
      </trkpt>
      <trkpt lat="50.88621" lon="2.53436">
        <ele>13.6</ele>
        <time>2017-08-04T07:01:37Z</time>
      </trkpt>
      <trkpt lat="50.88618" lon="2.53432">
        <ele>13.6</ele>
        <time>2017-08-04T07:01:38Z</time>
      </trkpt>
      <trkpt lat="50.88615" lon="2.53429">
        <ele>13.6</ele>
        <time>2017-08-04T07:01:39Z</time>
      </trkpt>
      <trkpt lat="50.88612" lon="2.53425">
        <ele>13.6</ele>
        <time>2017-08-04T07:01:40Z</time>
      </trkpt>
      <trkpt lat="50.88609" lon="2.53422">
        <ele>13.6</ele>
        <time>2017-08-04T07:01:41Z</time>
      </trkpt>
      <trkpt lat="50.88593" lon="2.53402">
        <ele>12.15</ele>
        <time>2017-08-04T07:01:46Z</time>
      </trkpt>
      <trkpt lat="50.8859" lon="2.53398">
        <ele>12.15</ele>
        <time>2017-08-04T07:01:47Z</time>
      </trkpt>
      <trkpt lat="50.88585" lon="2.53394">
        <ele>12.15</ele>
        <time>2017-08-04T07:01:48Z</time>
      </trkpt>
      <trkpt lat="50.8858" lon="2.53392">
        <ele>12.15</ele>
        <time>2017-08-04T07:01:49Z</time>
      </trkpt>
      <trkpt lat="50.88576" lon="2.53389">
        <ele>12.15</ele>
        <time>2017-08-04T07:01:50Z</time>
      </trkpt>
      <trkpt lat="50.88573" lon="2.53387">
        <ele>12.15</ele>
        <time>2017-08-04T07:01:51Z</time>
      </trkpt>
      <trkpt lat="50.88544" lon="2.53366">
        <ele>12.15</ele>
        <time>2017-08-04T07:01:58Z</time>
      </trkpt>
      <trkpt lat="50.88539" lon="2.53364">
        <ele>13.12</ele>
        <time>2017-08-04T07:01:59Z</time>
      </trkpt>
      <trkpt lat="50.88534" lon="2.53362">
        <ele>13.12</ele>
        <time>2017-08-04T07:02:00Z</time>
      </trkpt>
      <trkpt lat="50.8852" lon="2.53354">
        <ele>13.12</ele>
        <time>2017-08-04T07:02:03Z</time>
      </trkpt>
      <trkpt lat="50.88512" lon="2.53348">
        <ele>13.12</ele>
        <time>2017-08-04T07:02:05Z</time>
      </trkpt>
      <trkpt lat="50.88505" lon="2.5334">
        <ele>13.12</ele>
        <time>2017-08-04T07:02:07Z</time>
      </trkpt>
      <trkpt lat="50.88475" lon="2.533">
        <ele>13.12</ele>
        <time>2017-08-04T07:02:16Z</time>
      </trkpt>
      <trkpt lat="50.88446" lon="2.53245">
        <ele>13.12</ele>
        <time>2017-08-04T07:02:26Z</time>
      </trkpt>
      <trkpt lat="50.88443" lon="2.5324">
        <ele>13.12</ele>
        <time>2017-08-04T07:02:27Z</time>
      </trkpt>
      <trkpt lat="50.88409" lon="2.5319">
        <ele>13.12</ele>
        <time>2017-08-04T07:02:37Z</time>
      </trkpt>
      <trkpt lat="50.88406" lon="2.53184">
        <ele>13.12</ele>
        <time>2017-08-04T07:02:38Z</time>
      </trkpt>
      <trkpt lat="50.88404" lon="2.53181">
        <ele>13.12</ele>
        <time>2017-08-04T07:02:39Z</time>
      </trkpt>
      <trkpt lat="50.88401" lon="2.53177">
        <ele>13.12</ele>
        <time>2017-08-04T07:02:40Z</time>
      </trkpt>
      <trkpt lat="50.88398" lon="2.53173">
        <ele>13.12</ele>
        <time>2017-08-04T07:02:41Z</time>
      </trkpt>
      <trkpt lat="50.88395" lon="2.53169">
        <ele>13.12</ele>
        <time>2017-08-04T07:02:42Z</time>
      </trkpt>
      <trkpt lat="50.88384" lon="2.53156">
        <ele>13.6</ele>
        <time>2017-08-04T07:02:45Z</time>
      </trkpt>
      <trkpt lat="50.88371" lon="2.53147">
        <ele>13.6</ele>
        <time>2017-08-04T07:02:48Z</time>
      </trkpt>
      <trkpt lat="50.8835" lon="2.53138">
        <ele>13.6</ele>
        <time>2017-08-04T07:02:53Z</time>
      </trkpt>
      <trkpt lat="50.88288" lon="2.53123">
        <ele>15.04</ele>
        <time>2017-08-04T07:03:08Z</time>
      </trkpt>
      <trkpt lat="50.88276" lon="2.5312">
        <ele>15.04</ele>
        <time>2017-08-04T07:03:11Z</time>
      </trkpt>
      <trkpt lat="50.88241" lon="2.53088">
        <ele>13.6</ele>
        <time>2017-08-04T07:03:20Z</time>
      </trkpt>
      <trkpt lat="50.88228" lon="2.53071">
        <ele>15.04</ele>
        <time>2017-08-04T07:03:24Z</time>
      </trkpt>
      <trkpt lat="50.88215" lon="2.53055">
        <ele>15.04</ele>
        <time>2017-08-04T07:03:28Z</time>
      </trkpt>
      <trkpt lat="50.88213" lon="2.5305">
        <ele>15.04</ele>
        <time>2017-08-04T07:03:29Z</time>
      </trkpt>
      <trkpt lat="50.88212" lon="2.53043">
        <ele>15.04</ele>
        <time>2017-08-04T07:03:30Z</time>
      </trkpt>
      <trkpt lat="50.88214" lon="2.53037">
        <ele>15.04</ele>
        <time>2017-08-04T07:03:31Z</time>
      </trkpt>
      <trkpt lat="50.88217" lon="2.53032">
        <ele>15.04</ele>
        <time>2017-08-04T07:03:32Z</time>
      </trkpt>
      <trkpt lat="50.88219" lon="2.53027">
        <ele>15.04</ele>
        <time>2017-08-04T07:03:33Z</time>
      </trkpt>
      <trkpt lat="50.88229" lon="2.53008">
        <ele>13.6</ele>
        <time>2017-08-04T07:03:36Z</time>
      </trkpt>
      <trkpt lat="50.88236" lon="2.52991">
        <ele>13.6</ele>
        <time>2017-08-04T07:03:39Z</time>
      </trkpt>
      <trkpt lat="50.88235" lon="2.52983">
        <ele>13.6</ele>
        <time>2017-08-04T07:03:40Z</time>
      </trkpt>
      <trkpt lat="50.88233" lon="2.52976">
        <ele>13.6</ele>
        <time>2017-08-04T07:03:41Z</time>
      </trkpt>
      <trkpt lat="50.88232" lon="2.52973">
        <ele>13.6</ele>
        <time>2017-08-04T07:03:42Z</time>
      </trkpt>
      <trkpt lat="50.88228" lon="2.52968">
        <ele>13.12</ele>
        <time>2017-08-04T07:03:43Z</time>
      </trkpt>
      <trkpt lat="50.88225" lon="2.52963">
        <ele>13.12</ele>
        <time>2017-08-04T07:03:44Z</time>
      </trkpt>
      <trkpt lat="50.8817" lon="2.52872">
        <ele>13.12</ele>
        <time>2017-08-04T07:04:02Z</time>
      </trkpt>
      <trkpt lat="50.88122" lon="2.52766">
        <ele>13.12</ele>
        <time>2017-08-04T07:04:21Z</time>
      </trkpt>
      <trkpt lat="50.88087" lon="2.52673">
        <ele>15.04</ele>
        <time>2017-08-04T07:04:36Z</time>
      </trkpt>
      <trkpt lat="50.88051" lon="2.52607">
        <ele>13.12</ele>
        <time>2017-08-04T07:04:48Z</time>
      </trkpt>
      <trkpt lat="50.88049" lon="2.52602">
        <ele>12.63</ele>
        <time>2017-08-04T07:04:49Z</time>
      </trkpt>
      <trkpt lat="50.88025" lon="2.525">
        <ele>13.6</ele>
        <time>2017-08-04T07:05:07Z</time>
      </trkpt>
      <trkpt lat="50.88004" lon="2.5239">
        <ele>14.56</ele>
        <time>2017-08-04T07:05:26Z</time>
      </trkpt>
      <trkpt lat="50.87979" lon="2.52322">
        <ele>16.96</ele>
        <time>2017-08-04T07:05:43Z</time>
      </trkpt>
      <trkpt lat="50.87953" lon="2.52255">
        <ele>19.84</ele>
        <time>2017-08-04T07:06:03Z</time>
      </trkpt>
      <trkpt lat="50.87926" lon="2.52186">
        <ele>22.25</ele>
        <time>2017-08-04T07:06:23Z</time>
      </trkpt>
      <trkpt lat="50.87901" lon="2.52123">
        <ele>22.73</ele>
        <time>2017-08-04T07:06:39Z</time>
      </trkpt>
      <trkpt lat="50.87894" lon="2.52106">
        <ele>21.77</ele>
        <time>2017-08-04T07:06:43Z</time>
      </trkpt>
      <trkpt lat="50.8788" lon="2.52069">
        <ele>21.77</ele>
        <time>2017-08-04T07:06:50Z</time>
      </trkpt>
      <trkpt lat="50.87856" lon="2.52003">
        <ele>18.88</ele>
        <time>2017-08-04T07:07:00Z</time>
      </trkpt>
      <trkpt lat="50.87839" lon="2.51944">
        <ele>15.52</ele>
        <time>2017-08-04T07:07:06Z</time>
      </trkpt>
      <trkpt lat="50.87827" lon="2.51902">
        <ele>13.12</ele>
        <time>2017-08-04T07:07:10Z</time>
      </trkpt>
      <trkpt lat="50.87789" lon="2.51767">
        <ele>12.63</ele>
        <time>2017-08-04T07:07:24Z</time>
      </trkpt>
      <trkpt lat="50.87787" lon="2.51759">
        <ele>12.63</ele>
        <time>2017-08-04T07:07:25Z</time>
      </trkpt>
      <trkpt lat="50.8778" lon="2.51717">
        <ele>15.04</ele>
        <time>2017-08-04T07:07:30Z</time>
      </trkpt>
      <trkpt lat="50.87769" lon="2.5168">
        <ele>13.12</ele>
        <time>2017-08-04T07:07:35Z</time>
      </trkpt>
      <trkpt lat="50.87748" lon="2.51642">
        <ele>13.12</ele>
        <time>2017-08-04T07:07:41Z</time>
      </trkpt>
      <trkpt lat="50.87687" lon="2.51551">
        <ele>14.56</ele>
        <time>2017-08-04T07:07:58Z</time>
      </trkpt>
      <trkpt lat="50.87627" lon="2.51492">
        <ele>14.56</ele>
        <time>2017-08-04T07:08:15Z</time>
      </trkpt>
      <trkpt lat="50.87553" lon="2.51443">
        <ele>15.04</ele>
        <time>2017-08-04T07:08:34Z</time>
      </trkpt>
      <trkpt lat="50.87493" lon="2.51379">
        <ele>16</ele>
        <time>2017-08-04T07:08:51Z</time>
      </trkpt>
      <trkpt lat="50.87469" lon="2.51348">
        <ele>14.56</ele>
        <time>2017-08-04T07:08:59Z</time>
      </trkpt>
      <trkpt lat="50.87465" lon="2.5135">
        <ele>14.56</ele>
        <time>2017-08-04T07:09:00Z</time>
      </trkpt>
      <trkpt lat="50.87461" lon="2.51355">
        <ele>14.56</ele>
        <time>2017-08-04T07:09:01Z</time>
      </trkpt>
      <trkpt lat="50.87403" lon="2.51451">
        <ele>16</ele>
        <time>2017-08-04T07:09:19Z</time>
      </trkpt>
      <trkpt lat="50.87379" lon="2.5148">
        <ele>14.56</ele>
        <time>2017-08-04T07:09:25Z</time>
      </trkpt>
      <trkpt lat="50.87346" lon="2.51517">
        <ele>16</ele>
        <time>2017-08-04T07:09:33Z</time>
      </trkpt>
      <trkpt lat="50.87297" lon="2.51586">
        <ele>16.96</ele>
        <time>2017-08-04T07:09:46Z</time>
      </trkpt>
      <trkpt lat="50.87251" lon="2.51713">
        <ele>17.44</ele>
        <time>2017-08-04T07:10:03Z</time>
      </trkpt>
      <trkpt lat="50.87248" lon="2.5172">
        <ele>17.44</ele>
        <time>2017-08-04T07:10:04Z</time>
      </trkpt>
      <trkpt lat="50.87215" lon="2.51796">
        <ele>17.44</ele>
        <time>2017-08-04T07:10:15Z</time>
      </trkpt>
      <trkpt lat="50.87213" lon="2.51803">
        <ele>17.44</ele>
        <time>2017-08-04T07:10:16Z</time>
      </trkpt>
      <trkpt lat="50.87212" lon="2.51811">
        <ele>17.44</ele>
        <time>2017-08-04T07:10:17Z</time>
      </trkpt>
      <trkpt lat="50.87213" lon="2.51819">
        <ele>17.44</ele>
        <time>2017-08-04T07:10:18Z</time>
      </trkpt>
      <trkpt lat="50.87215" lon="2.51827">
        <ele>17.44</ele>
        <time>2017-08-04T07:10:19Z</time>
      </trkpt>
      <trkpt lat="50.87218" lon="2.51834">
        <ele>17.44</ele>
        <time>2017-08-04T07:10:20Z</time>
      </trkpt>
      <trkpt lat="50.8722" lon="2.51839">
        <ele>17.44</ele>
        <time>2017-08-04T07:10:21Z</time>
      </trkpt>
      <trkpt lat="50.87223" lon="2.51846">
        <ele>17.44</ele>
        <time>2017-08-04T07:10:22Z</time>
      </trkpt>
      <trkpt lat="50.87226" lon="2.51852">
        <ele>17.44</ele>
        <time>2017-08-04T07:10:23Z</time>
      </trkpt>
      <trkpt lat="50.87227" lon="2.51859">
        <ele>17.44</ele>
        <time>2017-08-04T07:10:24Z</time>
      </trkpt>
      <trkpt lat="50.87228" lon="2.51867">
        <ele>17.44</ele>
        <time>2017-08-04T07:10:25Z</time>
      </trkpt>
      <trkpt lat="50.87228" lon="2.51874">
        <ele>17.44</ele>
        <time>2017-08-04T07:10:26Z</time>
      </trkpt>
      <trkpt lat="50.87226" lon="2.51882">
        <ele>17.44</ele>
        <time>2017-08-04T07:10:27Z</time>
      </trkpt>
      <trkpt lat="50.87224" lon="2.51888">
        <ele>17.44</ele>
        <time>2017-08-04T07:10:28Z</time>
      </trkpt>
      <trkpt lat="50.87222" lon="2.51895">
        <ele>17.44</ele>
        <time>2017-08-04T07:10:29Z</time>
      </trkpt>
      <trkpt lat="50.87219" lon="2.51902">
        <ele>17.44</ele>
        <time>2017-08-04T07:10:30Z</time>
      </trkpt>
      <trkpt lat="50.87216" lon="2.51909">
        <ele>17.44</ele>
        <time>2017-08-04T07:10:31Z</time>
      </trkpt>
      <trkpt lat="50.87211" lon="2.51921">
        <ele>17.44</ele>
        <time>2017-08-04T07:10:33Z</time>
      </trkpt>
      <trkpt lat="50.87209" lon="2.51928">
        <ele>17.44</ele>
        <time>2017-08-04T07:10:34Z</time>
      </trkpt>
      <trkpt lat="50.87155" lon="2.5206">
        <ele>17.44</ele>
        <time>2017-08-04T07:10:53Z</time>
      </trkpt>
      <trkpt lat="50.87151" lon="2.52065">
        <ele>17.44</ele>
        <time>2017-08-04T07:10:54Z</time>
      </trkpt>
      <trkpt lat="50.87147" lon="2.52069">
        <ele>17.44</ele>
        <time>2017-08-04T07:10:55Z</time>
      </trkpt>
      <trkpt lat="50.87142" lon="2.52072">
        <ele>17.44</ele>
        <time>2017-08-04T07:10:56Z</time>
      </trkpt>
      <trkpt lat="50.87138" lon="2.52073">
        <ele>17.44</ele>
        <time>2017-08-04T07:10:57Z</time>
      </trkpt>
      <trkpt lat="50.87133" lon="2.52074">
        <ele>17.44</ele>
        <time>2017-08-04T07:10:58Z</time>
      </trkpt>
      <trkpt lat="50.87128" lon="2.52074">
        <ele>17.44</ele>
        <time>2017-08-04T07:10:59Z</time>
      </trkpt>
      <trkpt lat="50.87123" lon="2.52073">
        <ele>17.44</ele>
        <time>2017-08-04T07:11:00Z</time>
      </trkpt>
      <trkpt lat="50.87114" lon="2.52073">
        <ele>17.44</ele>
        <time>2017-08-04T07:11:02Z</time>
      </trkpt>
      <trkpt lat="50.87109" lon="2.52075">
        <ele>17.44</ele>
        <time>2017-08-04T07:11:03Z</time>
      </trkpt>
      <trkpt lat="50.87104" lon="2.52078">
        <ele>17.44</ele>
        <time>2017-08-04T07:11:04Z</time>
      </trkpt>
      <trkpt lat="50.87101" lon="2.52082">
        <ele>17.44</ele>
        <time>2017-08-04T07:11:05Z</time>
      </trkpt>
      <trkpt lat="50.87096" lon="2.52086">
        <ele>17.44</ele>
        <time>2017-08-04T07:11:06Z</time>
      </trkpt>
      <trkpt lat="50.87092" lon="2.52088">
        <ele>17.44</ele>
        <time>2017-08-04T07:11:07Z</time>
      </trkpt>
      <trkpt lat="50.87087" lon="2.52089">
        <ele>17.44</ele>
        <time>2017-08-04T07:11:08Z</time>
      </trkpt>
      <trkpt lat="50.87082" lon="2.52089">
        <ele>17.44</ele>
        <time>2017-08-04T07:11:09Z</time>
      </trkpt>
      <trkpt lat="50.87079" lon="2.52088">
        <ele>17.44</ele>
        <time>2017-08-04T07:11:10Z</time>
      </trkpt>
      <trkpt lat="50.87074" lon="2.52086">
        <ele>17.44</ele>
        <time>2017-08-04T07:11:11Z</time>
      </trkpt>
      <trkpt lat="50.86995" lon="2.52065">
        <ele>17.92</ele>
        <time>2017-08-04T07:11:28Z</time>
      </trkpt>
      <trkpt lat="50.86933" lon="2.52037">
        <ele>17.44</ele>
        <time>2017-08-04T07:11:42Z</time>
      </trkpt>
      <trkpt lat="50.86873" lon="2.52025">
        <ele>16.48</ele>
        <time>2017-08-04T07:11:53Z</time>
      </trkpt>
      <trkpt lat="50.86863" lon="2.52027">
        <ele>16.48</ele>
        <time>2017-08-04T07:11:55Z</time>
      </trkpt>
      <trkpt lat="50.86859" lon="2.52026">
        <ele>16.48</ele>
        <time>2017-08-04T07:11:56Z</time>
      </trkpt>
      <trkpt lat="50.86847" lon="2.52024">
        <ele>17.92</ele>
        <time>2017-08-04T07:11:59Z</time>
      </trkpt>
      <trkpt lat="50.86803" lon="2.52011">
        <ele>18.88</ele>
        <time>2017-08-04T07:12:13Z</time>
      </trkpt>
      <trkpt lat="50.86765" lon="2.51995">
        <ele>18.88</ele>
        <time>2017-08-04T07:12:27Z</time>
      </trkpt>
      <trkpt lat="50.86726" lon="2.51982">
        <ele>18.88</ele>
        <time>2017-08-04T07:12:43Z</time>
      </trkpt>
      <trkpt lat="50.86683" lon="2.51963">
        <ele>19.36</ele>
        <time>2017-08-04T07:13:00Z</time>
      </trkpt>
      <trkpt lat="50.86642" lon="2.51941">
        <ele>20.32</ele>
        <time>2017-08-04T07:13:17Z</time>
      </trkpt>
      <trkpt lat="50.86594" lon="2.51913">
        <ele>20.32</ele>
        <time>2017-08-04T07:13:34Z</time>
      </trkpt>
      <trkpt lat="50.8655" lon="2.51888">
        <ele>20.81</ele>
        <time>2017-08-04T07:13:47Z</time>
      </trkpt>
      <trkpt lat="50.86537" lon="2.51883">
        <ele>20.81</ele>
        <time>2017-08-04T07:13:53Z</time>
      </trkpt>
      <trkpt lat="50.86536" lon="2.51881">
        <ele>20.81</ele>
        <time>2017-08-04T07:13:54Z</time>
      </trkpt>
      <trkpt lat="50.86535" lon="2.51879">
        <ele>20.81</ele>
        <time>2017-08-04T07:13:55Z</time>
      </trkpt>
      <trkpt lat="50.86534" lon="2.51877">
        <ele>20.81</ele>
        <time>2017-08-04T07:13:56Z</time>
      </trkpt>
      <trkpt lat="50.86532" lon="2.51875">
        <ele>20.81</ele>
        <time>2017-08-04T07:13:57Z</time>
      </trkpt>
      <trkpt lat="50.86529" lon="2.51873">
        <ele>20.81</ele>
        <time>2017-08-04T07:13:58Z</time>
      </trkpt>
      <trkpt lat="50.86526" lon="2.51872">
        <ele>20.81</ele>
        <time>2017-08-04T07:13:59Z</time>
      </trkpt>
      <trkpt lat="50.86523" lon="2.5187">
        <ele>20.81</ele>
        <time>2017-08-04T07:14:00Z</time>
      </trkpt>
      <trkpt lat="50.86475" lon="2.51843">
        <ele>20.81</ele>
        <time>2017-08-04T07:14:17Z</time>
      </trkpt>
      <trkpt lat="50.86473" lon="2.51841">
        <ele>20.81</ele>
        <time>2017-08-04T07:14:18Z</time>
      </trkpt>
      <trkpt lat="50.86471" lon="2.51839">
        <ele>20.81</ele>
        <time>2017-08-04T07:14:19Z</time>
      </trkpt>
      <trkpt lat="50.8647" lon="2.51835">
        <ele>20.81</ele>
        <time>2017-08-04T07:14:20Z</time>
      </trkpt>
      <trkpt lat="50.86468" lon="2.51833">
        <ele>20.81</ele>
        <time>2017-08-04T07:14:21Z</time>
      </trkpt>
      <trkpt lat="50.86451" lon="2.51783">
        <ele>20.81</ele>
        <time>2017-08-04T07:14:35Z</time>
      </trkpt>
      <trkpt lat="50.86434" lon="2.51757">
        <ele>20.81</ele>
        <time>2017-08-04T07:14:45Z</time>
      </trkpt>
      <trkpt lat="50.86408" lon="2.51729">
        <ele>21.29</ele>
        <time>2017-08-04T07:14:59Z</time>
      </trkpt>
      <trkpt lat="50.8638" lon="2.51701">
        <ele>21.29</ele>
        <time>2017-08-04T07:15:13Z</time>
      </trkpt>
      <trkpt lat="50.86352" lon="2.51671">
        <ele>21.29</ele>
        <time>2017-08-04T07:15:27Z</time>
      </trkpt>
      <trkpt lat="50.86327" lon="2.51622">
        <ele>21.29</ele>
        <time>2017-08-04T07:15:41Z</time>
      </trkpt>
      <trkpt lat="50.86305" lon="2.51575">
        <ele>21.77</ele>
        <time>2017-08-04T07:15:55Z</time>
      </trkpt>
      <trkpt lat="50.86274" lon="2.51509">
        <ele>21.77</ele>
        <time>2017-08-04T07:16:14Z</time>
      </trkpt>
      <trkpt lat="50.86243" lon="2.51454">
        <ele>21.77</ele>
        <time>2017-08-04T07:16:30Z</time>
      </trkpt>
      <trkpt lat="50.86234" lon="2.51438">
        <ele>20.32</ele>
        <time>2017-08-04T07:16:34Z</time>
      </trkpt>
      <trkpt lat="50.86194" lon="2.51363">
        <ele>18.88</ele>
        <time>2017-08-04T07:16:53Z</time>
      </trkpt>
      <trkpt lat="50.86178" lon="2.51297">
        <ele>18.88</ele>
        <time>2017-08-04T07:17:08Z</time>
      </trkpt>
      <trkpt lat="50.86159" lon="2.51227">
        <ele>18.88</ele>
        <time>2017-08-04T07:17:24Z</time>
      </trkpt>
      <trkpt lat="50.86134" lon="2.51134">
        <ele>18.4</ele>
        <time>2017-08-04T07:17:43Z</time>
      </trkpt>
      <trkpt lat="50.86104" lon="2.51034">
        <ele>19.36</ele>
        <time>2017-08-04T07:18:04Z</time>
      </trkpt>
      <trkpt lat="50.86085" lon="2.50979">
        <ele>18.4</ele>
        <time>2017-08-04T07:18:14Z</time>
      </trkpt>
      <trkpt lat="50.8606" lon="2.50919">
        <ele>18.4</ele>
        <time>2017-08-04T07:18:25Z</time>
      </trkpt>
      <trkpt lat="50.86024" lon="2.50821">
        <ele>16.96</ele>
        <time>2017-08-04T07:18:42Z</time>
      </trkpt>
      <trkpt lat="50.86024" lon="2.50815">
        <ele>16.96</ele>
        <time>2017-08-04T07:18:43Z</time>
      </trkpt>
      <trkpt lat="50.86022" lon="2.50796">
        <ele>16.96</ele>
        <time>2017-08-04T07:18:46Z</time>
      </trkpt>
      <trkpt lat="50.86013" lon="2.50717">
        <ele>17.44</ele>
        <time>2017-08-04T07:19:00Z</time>
      </trkpt>
      <trkpt lat="50.85994" lon="2.50663">
        <ele>18.4</ele>
        <time>2017-08-04T07:19:12Z</time>
      </trkpt>
      <trkpt lat="50.85991" lon="2.50661">
        <ele>18.4</ele>
        <time>2017-08-04T07:19:13Z</time>
      </trkpt>
      <trkpt lat="50.85987" lon="2.50659">
        <ele>18.4</ele>
        <time>2017-08-04T07:19:14Z</time>
      </trkpt>
      <trkpt lat="50.85984" lon="2.50658">
        <ele>18.4</ele>
        <time>2017-08-04T07:19:15Z</time>
      </trkpt>
      <trkpt lat="50.8598" lon="2.50658">
        <ele>18.4</ele>
        <time>2017-08-04T07:19:16Z</time>
      </trkpt>
      <trkpt lat="50.85977" lon="2.50658">
        <ele>18.4</ele>
        <time>2017-08-04T07:19:17Z</time>
      </trkpt>
      <trkpt lat="50.85973" lon="2.5066">
        <ele>18.4</ele>
        <time>2017-08-04T07:19:18Z</time>
      </trkpt>
      <trkpt lat="50.8597" lon="2.50662">
        <ele>18.4</ele>
        <time>2017-08-04T07:19:19Z</time>
      </trkpt>
      <trkpt lat="50.85966" lon="2.50665">
        <ele>18.4</ele>
        <time>2017-08-04T07:19:20Z</time>
      </trkpt>
      <trkpt lat="50.85962" lon="2.50668">
        <ele>18.4</ele>
        <time>2017-08-04T07:19:21Z</time>
      </trkpt>
      <trkpt lat="50.85958" lon="2.50671">
        <ele>18.4</ele>
        <time>2017-08-04T07:19:22Z</time>
      </trkpt>
      <trkpt lat="50.85955" lon="2.50674">
        <ele>18.4</ele>
        <time>2017-08-04T07:19:23Z</time>
      </trkpt>
      <trkpt lat="50.85951" lon="2.50676">
        <ele>18.4</ele>
        <time>2017-08-04T07:19:24Z</time>
      </trkpt>
      <trkpt lat="50.85932" lon="2.50679">
        <ele>16.96</ele>
        <time>2017-08-04T07:19:28Z</time>
      </trkpt>
      <trkpt lat="50.85922" lon="2.50678">
        <ele>16.96</ele>
        <time>2017-08-04T07:19:30Z</time>
      </trkpt>
      <trkpt lat="50.85919" lon="2.50677">
        <ele>16.96</ele>
        <time>2017-08-04T07:19:31Z</time>
      </trkpt>
      <trkpt lat="50.85897" lon="2.50668">
        <ele>16.96</ele>
        <time>2017-08-04T07:19:36Z</time>
      </trkpt>
      <trkpt lat="50.85888" lon="2.50664">
        <ele>16.48</ele>
        <time>2017-08-04T07:19:38Z</time>
      </trkpt>
      <trkpt lat="50.85808" lon="2.50625">
        <ele>17.44</ele>
        <time>2017-08-04T07:19:55Z</time>
      </trkpt>
      <trkpt lat="50.85803" lon="2.50622">
        <ele>17.44</ele>
        <time>2017-08-04T07:19:56Z</time>
      </trkpt>
      <trkpt lat="50.85714" lon="2.50576">
        <ele>17.44</ele>
        <time>2017-08-04T07:20:15Z</time>
      </trkpt>
      <trkpt lat="50.8563" lon="2.50557">
        <ele>17.44</ele>
        <time>2017-08-04T07:20:31Z</time>
      </trkpt>
      <trkpt lat="50.85626" lon="2.50554">
        <ele>17.44</ele>
        <time>2017-08-04T07:20:32Z</time>
      </trkpt>
      <trkpt lat="50.85621" lon="2.5055">
        <ele>17.44</ele>
        <time>2017-08-04T07:20:33Z</time>
      </trkpt>
      <trkpt lat="50.85618" lon="2.50544">
        <ele>16</ele>
        <time>2017-08-04T07:20:34Z</time>
      </trkpt>
      <trkpt lat="50.85614" lon="2.50539">
        <ele>16</ele>
        <time>2017-08-04T07:20:35Z</time>
      </trkpt>
      <trkpt lat="50.85604" lon="2.50522">
        <ele>16.48</ele>
        <time>2017-08-04T07:20:38Z</time>
      </trkpt>
      <trkpt lat="50.856" lon="2.50518">
        <ele>16</ele>
        <time>2017-08-04T07:20:39Z</time>
      </trkpt>
      <trkpt lat="50.85558" lon="2.50489">
        <ele>17.44</ele>
        <time>2017-08-04T07:20:49Z</time>
      </trkpt>
      <trkpt lat="50.85518" lon="2.50454">
        <ele>17.92</ele>
        <time>2017-08-04T07:21:00Z</time>
      </trkpt>
      <trkpt lat="50.85487" lon="2.50437">
        <ele>16.96</ele>
        <time>2017-08-04T07:21:08Z</time>
      </trkpt>
      <trkpt lat="50.85479" lon="2.50433">
        <ele>16.96</ele>
        <time>2017-08-04T07:21:10Z</time>
      </trkpt>
      <trkpt lat="50.85413" lon="2.5037">
        <ele>17.92</ele>
        <time>2017-08-04T07:21:28Z</time>
      </trkpt>
      <trkpt lat="50.85393" lon="2.50344">
        <ele>18.88</ele>
        <time>2017-08-04T07:21:39Z</time>
      </trkpt>
      <trkpt lat="50.85389" lon="2.50345">
        <ele>18.88</ele>
        <time>2017-08-04T07:21:40Z</time>
      </trkpt>
      <trkpt lat="50.85386" lon="2.50348">
        <ele>18.88</ele>
        <time>2017-08-04T07:21:41Z</time>
      </trkpt>
      <trkpt lat="50.85357" lon="2.50376">
        <ele>18.88</ele>
        <time>2017-08-04T07:21:50Z</time>
      </trkpt>
      <trkpt lat="50.85354" lon="2.5038">
        <ele>18.88</ele>
        <time>2017-08-04T07:21:51Z</time>
      </trkpt>
      <trkpt lat="50.85335" lon="2.50397">
        <ele>19.36</ele>
        <time>2017-08-04T07:21:56Z</time>
      </trkpt>
      <trkpt lat="50.85331" lon="2.50397">
        <ele>19.36</ele>
        <time>2017-08-04T07:21:57Z</time>
      </trkpt>
      <trkpt lat="50.85327" lon="2.50393">
        <ele>19.36</ele>
        <time>2017-08-04T07:21:58Z</time>
      </trkpt>
      <trkpt lat="50.85325" lon="2.50389">
        <ele>19.36</ele>
        <time>2017-08-04T07:21:59Z</time>
      </trkpt>
      <trkpt lat="50.85323" lon="2.50382">
        <ele>19.36</ele>
        <time>2017-08-04T07:22:00Z</time>
      </trkpt>
      <trkpt lat="50.85318" lon="2.50365">
        <ele>19.36</ele>
        <time>2017-08-04T07:22:03Z</time>
      </trkpt>
      <trkpt lat="50.85315" lon="2.50357">
        <ele>19.36</ele>
        <time>2017-08-04T07:22:04Z</time>
      </trkpt>
      <trkpt lat="50.85313" lon="2.50354">
        <ele>19.36</ele>
        <time>2017-08-04T07:22:05Z</time>
      </trkpt>
      <trkpt lat="50.85309" lon="2.50348">
        <ele>17.92</ele>
        <time>2017-08-04T07:22:06Z</time>
      </trkpt>
      <trkpt lat="50.85306" lon="2.50345">
        <ele>17.92</ele>
        <time>2017-08-04T07:22:07Z</time>
      </trkpt>
      <trkpt lat="50.85302" lon="2.5034">
        <ele>17.92</ele>
        <time>2017-08-04T07:22:08Z</time>
      </trkpt>
      <trkpt lat="50.85299" lon="2.50336">
        <ele>17.92</ele>
        <time>2017-08-04T07:22:09Z</time>
      </trkpt>
      <trkpt lat="50.85241" lon="2.50272">
        <ele>17.44</ele>
        <time>2017-08-04T07:22:26Z</time>
      </trkpt>
      <trkpt lat="50.85196" lon="2.50233">
        <ele>19.36</ele>
        <time>2017-08-04T07:22:41Z</time>
      </trkpt>
      <trkpt lat="50.85138" lon="2.50198">
        <ele>19.84</ele>
        <time>2017-08-04T07:23:00Z</time>
      </trkpt>
      <trkpt lat="50.85077" lon="2.50162">
        <ele>20.32</ele>
        <time>2017-08-04T07:23:19Z</time>
      </trkpt>
      <trkpt lat="50.85054" lon="2.50149">
        <ele>18.88</ele>
        <time>2017-08-04T07:23:25Z</time>
      </trkpt>
      <trkpt lat="50.85001" lon="2.50122">
        <ele>19.84</ele>
        <time>2017-08-04T07:23:39Z</time>
      </trkpt>
      <trkpt lat="50.84997" lon="2.50124">
        <ele>19.84</ele>
        <time>2017-08-04T07:23:40Z</time>
      </trkpt>
      <trkpt lat="50.84994" lon="2.50128">
        <ele>20.81</ele>
        <time>2017-08-04T07:23:41Z</time>
      </trkpt>
      <trkpt lat="50.84991" lon="2.50133">
        <ele>20.81</ele>
        <time>2017-08-04T07:23:42Z</time>
      </trkpt>
      <trkpt lat="50.84988" lon="2.50141">
        <ele>20.32</ele>
        <time>2017-08-04T07:23:43Z</time>
      </trkpt>
      <trkpt lat="50.84986" lon="2.50147">
        <ele>20.32</ele>
        <time>2017-08-04T07:23:44Z</time>
      </trkpt>
      <trkpt lat="50.84974" lon="2.50189">
        <ele>20.81</ele>
        <time>2017-08-04T07:23:50Z</time>
      </trkpt>
      <trkpt lat="50.84969" lon="2.50211">
        <ele>20.32</ele>
        <time>2017-08-04T07:23:53Z</time>
      </trkpt>
      <trkpt lat="50.84966" lon="2.50217">
        <ele>20.32</ele>
        <time>2017-08-04T07:23:54Z</time>
      </trkpt>
      <trkpt lat="50.84957" lon="2.50234">
        <ele>20.32</ele>
        <time>2017-08-04T07:23:57Z</time>
      </trkpt>
      <trkpt lat="50.84953" lon="2.50237">
        <ele>19.36</ele>
        <time>2017-08-04T07:23:58Z</time>
      </trkpt>
      <trkpt lat="50.84949" lon="2.50239">
        <ele>17.92</ele>
        <time>2017-08-04T07:23:59Z</time>
      </trkpt>
      <trkpt lat="50.84943" lon="2.50239">
        <ele>17.44</ele>
        <time>2017-08-04T07:24:00Z</time>
      </trkpt>
      <trkpt lat="50.8494" lon="2.50239">
        <ele>17.44</ele>
        <time>2017-08-04T07:24:01Z</time>
      </trkpt>
      <trkpt lat="50.84935" lon="2.50238">
        <ele>17.44</ele>
        <time>2017-08-04T07:24:02Z</time>
      </trkpt>
      <trkpt lat="50.84922" lon="2.50234">
        <ele>18.88</ele>
        <time>2017-08-04T07:24:05Z</time>
      </trkpt>
      <trkpt lat="50.84866" lon="2.50191">
        <ele>20.32</ele>
        <time>2017-08-04T07:24:20Z</time>
      </trkpt>
      <trkpt lat="50.84829" lon="2.50154">
        <ele>21.77</ele>
        <time>2017-08-04T07:24:34Z</time>
      </trkpt>
      <trkpt lat="50.8478" lon="2.50116">
        <ele>22.25</ele>
        <time>2017-08-04T07:24:50Z</time>
      </trkpt>
      <trkpt lat="50.84708" lon="2.50085">
        <ele>22.25</ele>
        <time>2017-08-04T07:25:09Z</time>
      </trkpt>
      <trkpt lat="50.84657" lon="2.50035">
        <ele>22.73</ele>
        <time>2017-08-04T07:25:24Z</time>
      </trkpt>
      <trkpt lat="50.84588" lon="2.49965">
        <ele>22.25</ele>
        <time>2017-08-04T07:25:45Z</time>
      </trkpt>
      <trkpt lat="50.84534" lon="2.49909">
        <ele>22.73</ele>
        <time>2017-08-04T07:26:01Z</time>
      </trkpt>
      <trkpt lat="50.84477" lon="2.49842">
        <ele>22.25</ele>
        <time>2017-08-04T07:26:19Z</time>
      </trkpt>
      <trkpt lat="50.84467" lon="2.49836">
        <ele>22.73</ele>
        <time>2017-08-04T07:26:22Z</time>
      </trkpt>
      <trkpt lat="50.84465" lon="2.49838">
        <ele>22.73</ele>
        <time>2017-08-04T07:26:23Z</time>
      </trkpt>
      <trkpt lat="50.84461" lon="2.49841">
        <ele>22.73</ele>
        <time>2017-08-04T07:26:24Z</time>
      </trkpt>
      <trkpt lat="50.84459" lon="2.49844">
        <ele>22.73</ele>
        <time>2017-08-04T07:26:25Z</time>
      </trkpt>
      <trkpt lat="50.84456" lon="2.49848">
        <ele>22.73</ele>
        <time>2017-08-04T07:26:26Z</time>
      </trkpt>
      <trkpt lat="50.84406" lon="2.49921">
        <ele>23.69</ele>
        <time>2017-08-04T07:26:42Z</time>
      </trkpt>
      <trkpt lat="50.84339" lon="2.50016">
        <ele>24.65</ele>
        <time>2017-08-04T07:27:02Z</time>
      </trkpt>
      <trkpt lat="50.84301" lon="2.5007">
        <ele>23.21</ele>
        <time>2017-08-04T07:27:12Z</time>
      </trkpt>
      <trkpt lat="50.84238" lon="2.50162">
        <ele>23.21</ele>
        <time>2017-08-04T07:27:29Z</time>
      </trkpt>
      <trkpt lat="50.8421" lon="2.50199">
        <ele>23.21</ele>
        <time>2017-08-04T07:27:37Z</time>
      </trkpt>
      <trkpt lat="50.84207" lon="2.50199">
        <ele>23.21</ele>
        <time>2017-08-04T07:27:38Z</time>
      </trkpt>
      <trkpt lat="50.84203" lon="2.50196">
        <ele>23.21</ele>
        <time>2017-08-04T07:27:39Z</time>
      </trkpt>
      <trkpt lat="50.842" lon="2.50193">
        <ele>23.21</ele>
        <time>2017-08-04T07:27:40Z</time>
      </trkpt>
      <trkpt lat="50.84197" lon="2.50188">
        <ele>23.21</ele>
        <time>2017-08-04T07:27:41Z</time>
      </trkpt>
      <trkpt lat="50.84194" lon="2.50185">
        <ele>23.21</ele>
        <time>2017-08-04T07:27:42Z</time>
      </trkpt>
      <trkpt lat="50.84134" lon="2.50116">
        <ele>24.65</ele>
        <time>2017-08-04T07:28:01Z</time>
      </trkpt>
      <trkpt lat="50.8408" lon="2.50056">
        <ele>24.17</ele>
        <time>2017-08-04T07:28:18Z</time>
      </trkpt>
      <trkpt lat="50.84042" lon="2.5005">
        <ele>24.17</ele>
        <time>2017-08-04T07:28:29Z</time>
      </trkpt>
      <trkpt lat="50.83986" lon="2.50073">
        <ele>25.13</ele>
        <time>2017-08-04T07:28:46Z</time>
      </trkpt>
      <trkpt lat="50.83924" lon="2.50074">
        <ele>26.57</ele>
        <time>2017-08-04T07:29:03Z</time>
      </trkpt>
      <trkpt lat="50.83909" lon="2.50082">
        <ele>26.57</ele>
        <time>2017-08-04T07:29:08Z</time>
      </trkpt>
      <trkpt lat="50.83901" lon="2.50094">
        <ele>26.57</ele>
        <time>2017-08-04T07:29:11Z</time>
      </trkpt>
      <trkpt lat="50.83896" lon="2.50096">
        <ele>26.57</ele>
        <time>2017-08-04T07:29:12Z</time>
      </trkpt>
      <trkpt lat="50.83894" lon="2.50097">
        <ele>26.57</ele>
        <time>2017-08-04T07:29:13Z</time>
      </trkpt>
      <trkpt lat="50.83845" lon="2.50085">
        <ele>26.57</ele>
        <time>2017-08-04T07:29:26Z</time>
      </trkpt>
      <trkpt lat="50.83818" lon="2.50088">
        <ele>26.57</ele>
        <time>2017-08-04T07:29:32Z</time>
      </trkpt>
      <trkpt lat="50.83813" lon="2.50089">
        <ele>26.09</ele>
        <time>2017-08-04T07:29:33Z</time>
      </trkpt>
      <trkpt lat="50.83804" lon="2.5009">
        <ele>26.09</ele>
        <time>2017-08-04T07:29:35Z</time>
      </trkpt>
      <trkpt lat="50.83799" lon="2.50092">
        <ele>26.09</ele>
        <time>2017-08-04T07:29:36Z</time>
      </trkpt>
      <trkpt lat="50.8377" lon="2.50104">
        <ele>25.13</ele>
        <time>2017-08-04T07:29:42Z</time>
      </trkpt>
      <trkpt lat="50.83761" lon="2.50107">
        <ele>25.13</ele>
        <time>2017-08-04T07:29:44Z</time>
      </trkpt>
      <trkpt lat="50.83756" lon="2.50107">
        <ele>25.13</ele>
        <time>2017-08-04T07:29:45Z</time>
      </trkpt>
      <trkpt lat="50.8375" lon="2.50107">
        <ele>25.13</ele>
        <time>2017-08-04T07:29:46Z</time>
      </trkpt>
      <trkpt lat="50.83746" lon="2.50105">
        <ele>24.65</ele>
        <time>2017-08-04T07:29:47Z</time>
      </trkpt>
      <trkpt lat="50.83741" lon="2.50104">
        <ele>25.13</ele>
        <time>2017-08-04T07:29:48Z</time>
      </trkpt>
      <trkpt lat="50.83699" lon="2.50094">
        <ele>25.13</ele>
        <time>2017-08-04T07:29:57Z</time>
      </trkpt>
      <trkpt lat="50.83674" lon="2.50101">
        <ele>26.09</ele>
        <time>2017-08-04T07:30:03Z</time>
      </trkpt>
      <trkpt lat="50.83633" lon="2.50109">
        <ele>25.13</ele>
        <time>2017-08-04T07:30:12Z</time>
      </trkpt>
      <trkpt lat="50.83552" lon="2.50115">
        <ele>25.13</ele>
        <time>2017-08-04T07:30:31Z</time>
      </trkpt>
      <trkpt lat="50.83507" lon="2.50126">
        <ele>25.13</ele>
        <time>2017-08-04T07:30:42Z</time>
      </trkpt>
      <trkpt lat="50.83503" lon="2.50126">
        <ele>25.13</ele>
        <time>2017-08-04T07:30:43Z</time>
      </trkpt>
      <trkpt lat="50.83499" lon="2.50126">
        <ele>25.13</ele>
        <time>2017-08-04T07:30:44Z</time>
      </trkpt>
      <trkpt lat="50.83495" lon="2.50126">
        <ele>25.13</ele>
        <time>2017-08-04T07:30:45Z</time>
      </trkpt>
      <trkpt lat="50.8349" lon="2.50125">
        <ele>25.13</ele>
        <time>2017-08-04T07:30:46Z</time>
      </trkpt>
      <trkpt lat="50.83486" lon="2.50125">
        <ele>25.13</ele>
        <time>2017-08-04T07:30:47Z</time>
      </trkpt>
      <trkpt lat="50.83466" lon="2.50122">
        <ele>25.13</ele>
        <time>2017-08-04T07:30:52Z</time>
      </trkpt>
      <trkpt lat="50.83398" lon="2.50122">
        <ele>25.13</ele>
        <time>2017-08-04T07:31:09Z</time>
      </trkpt>
      <trkpt lat="50.83333" lon="2.50113">
        <ele>25.13</ele>
        <time>2017-08-04T07:31:26Z</time>
      </trkpt>
      <trkpt lat="50.83314" lon="2.50108">
        <ele>25.13</ele>
        <time>2017-08-04T07:31:31Z</time>
      </trkpt>
      <trkpt lat="50.8331" lon="2.50105">
        <ele>25.13</ele>
        <time>2017-08-04T07:31:32Z</time>
      </trkpt>
      <trkpt lat="50.83307" lon="2.50102">
        <ele>25.13</ele>
        <time>2017-08-04T07:31:33Z</time>
      </trkpt>
      <trkpt lat="50.83304" lon="2.50098">
        <ele>25.13</ele>
        <time>2017-08-04T07:31:34Z</time>
      </trkpt>
      <trkpt lat="50.83301" lon="2.50095">
        <ele>25.13</ele>
        <time>2017-08-04T07:31:35Z</time>
      </trkpt>
      <trkpt lat="50.83247" lon="2.50021">
        <ele>25.13</ele>
        <time>2017-08-04T07:31:53Z</time>
      </trkpt>
      <trkpt lat="50.83205" lon="2.49958">
        <ele>24.65</ele>
        <time>2017-08-04T07:32:08Z</time>
      </trkpt>
      <trkpt lat="50.83186" lon="2.49931">
        <ele>26.09</ele>
        <time>2017-08-04T07:32:15Z</time>
      </trkpt>
      <trkpt lat="50.83128" lon="2.49872">
        <ele>26.09</ele>
        <time>2017-08-04T07:32:33Z</time>
      </trkpt>
      <trkpt lat="50.83074" lon="2.49826">
        <ele>26.57</ele>
        <time>2017-08-04T07:32:50Z</time>
      </trkpt>
      <trkpt lat="50.83024" lon="2.49781">
        <ele>28.02</ele>
        <time>2017-08-04T07:33:08Z</time>
      </trkpt>
      <trkpt lat="50.82983" lon="2.49735">
        <ele>28.02</ele>
        <time>2017-08-04T07:33:24Z</time>
      </trkpt>
      <trkpt lat="50.82943" lon="2.49673">
        <ele>28.02</ele>
        <time>2017-08-04T07:33:41Z</time>
      </trkpt>
      <trkpt lat="50.82907" lon="2.49616">
        <ele>28.98</ele>
        <time>2017-08-04T07:33:58Z</time>
      </trkpt>
      <trkpt lat="50.82867" lon="2.49547">
        <ele>29.94</ele>
        <time>2017-08-04T07:34:16Z</time>
      </trkpt>
      <trkpt lat="50.82846" lon="2.49498">
        <ele>29.94</ele>
        <time>2017-08-04T07:34:28Z</time>
      </trkpt>
      <trkpt lat="50.82815" lon="2.49421">
        <ele>28.02</ele>
        <time>2017-08-04T07:34:43Z</time>
      </trkpt>
      <trkpt lat="50.82777" lon="2.49346">
        <ele>28.02</ele>
        <time>2017-08-04T07:34:59Z</time>
      </trkpt>
      <trkpt lat="50.8277" lon="2.49333">
        <ele>28.98</ele>
        <time>2017-08-04T07:35:02Z</time>
      </trkpt>
      <trkpt lat="50.82755" lon="2.4929">
        <ele>29.46</ele>
        <time>2017-08-04T07:35:12Z</time>
      </trkpt>
      <trkpt lat="50.82744" lon="2.49234">
        <ele>29.46</ele>
        <time>2017-08-04T07:35:26Z</time>
      </trkpt>
      <trkpt lat="50.8273" lon="2.49165">
        <ele>29.46</ele>
        <time>2017-08-04T07:35:41Z</time>
      </trkpt>
      <trkpt lat="50.82712" lon="2.49096">
        <ele>28.5</ele>
        <time>2017-08-04T07:35:56Z</time>
      </trkpt>
      <trkpt lat="50.82711" lon="2.49091">
        <ele>28.5</ele>
        <time>2017-08-04T07:35:57Z</time>
      </trkpt>
      <trkpt lat="50.82689" lon="2.49032">
        <ele>28.5</ele>
        <time>2017-08-04T07:36:10Z</time>
      </trkpt>
      <trkpt lat="50.82664" lon="2.48977">
        <ele>28.5</ele>
        <time>2017-08-04T07:36:23Z</time>
      </trkpt>
      <trkpt lat="50.82631" lon="2.48904">
        <ele>28.02</ele>
        <time>2017-08-04T07:36:38Z</time>
      </trkpt>
      <trkpt lat="50.82607" lon="2.48851">
        <ele>27.53</ele>
        <time>2017-08-04T07:36:49Z</time>
      </trkpt>
      <trkpt lat="50.82587" lon="2.48808">
        <ele>27.05</ele>
        <time>2017-08-04T07:36:57Z</time>
      </trkpt>
      <trkpt lat="50.82584" lon="2.48803">
        <ele>27.05</ele>
        <time>2017-08-04T07:36:58Z</time>
      </trkpt>
      <trkpt lat="50.82552" lon="2.48729">
        <ele>27.05</ele>
        <time>2017-08-04T07:37:14Z</time>
      </trkpt>
      <trkpt lat="50.82546" lon="2.48715">
        <ele>28.5</ele>
        <time>2017-08-04T07:37:18Z</time>
      </trkpt>
      <trkpt lat="50.82547" lon="2.48711">
        <ele>28.5</ele>
        <time>2017-08-04T07:37:19Z</time>
      </trkpt>
      <trkpt lat="50.8255" lon="2.48709">
        <ele>28.98</ele>
        <time>2017-08-04T07:37:20Z</time>
      </trkpt>
      <trkpt lat="50.82566" lon="2.48702">
        <ele>28.98</ele>
        <time>2017-08-04T07:37:25Z</time>
      </trkpt>
      <trkpt lat="50.82641" lon="2.48665">
        <ele>29.46</ele>
        <time>2017-08-04T07:37:42Z</time>
      </trkpt>
      <trkpt lat="50.82646" lon="2.48662">
        <ele>29.46</ele>
        <time>2017-08-04T07:37:43Z</time>
      </trkpt>
      <trkpt lat="50.82651" lon="2.4866">
        <ele>28.5</ele>
        <time>2017-08-04T07:37:44Z</time>
      </trkpt>
      <trkpt lat="50.8266" lon="2.48655">
        <ele>28.5</ele>
        <time>2017-08-04T07:37:46Z</time>
      </trkpt>
      <trkpt lat="50.82689" lon="2.48642">
        <ele>28.5</ele>
        <time>2017-08-04T07:37:53Z</time>
      </trkpt>
      <trkpt lat="50.82693" lon="2.48639">
        <ele>28.5</ele>
        <time>2017-08-04T07:37:54Z</time>
      </trkpt>
      <trkpt lat="50.82695" lon="2.48633">
        <ele>27.53</ele>
        <time>2017-08-04T07:37:55Z</time>
      </trkpt>
      <trkpt lat="50.82696" lon="2.48625">
        <ele>27.53</ele>
        <time>2017-08-04T07:37:56Z</time>
      </trkpt>
      <trkpt lat="50.82695" lon="2.4862">
        <ele>27.05</ele>
        <time>2017-08-04T07:37:57Z</time>
      </trkpt>
      <trkpt lat="50.82693" lon="2.48613">
        <ele>27.05</ele>
        <time>2017-08-04T07:37:58Z</time>
      </trkpt>
      <trkpt lat="50.82691" lon="2.48609">
        <ele>27.05</ele>
        <time>2017-08-04T07:37:59Z</time>
      </trkpt>
      <trkpt lat="50.82688" lon="2.48602">
        <ele>27.05</ele>
        <time>2017-08-04T07:38:00Z</time>
      </trkpt>
      <trkpt lat="50.82651" lon="2.48531">
        <ele>26.57</ele>
        <time>2017-08-04T07:38:15Z</time>
      </trkpt>
      <trkpt lat="50.82625" lon="2.48476">
        <ele>28.02</ele>
        <time>2017-08-04T07:38:27Z</time>
      </trkpt>
      <trkpt lat="50.82582" lon="2.48395">
        <ele>28.5</ele>
        <time>2017-08-04T07:38:47Z</time>
      </trkpt>
      <trkpt lat="50.82542" lon="2.48317">
        <ele>28.98</ele>
        <time>2017-08-04T07:39:06Z</time>
      </trkpt>
      <trkpt lat="50.82509" lon="2.48251">
        <ele>30.42</ele>
        <time>2017-08-04T07:39:22Z</time>
      </trkpt>
      <trkpt lat="50.82479" lon="2.48196">
        <ele>30.9</ele>
        <time>2017-08-04T07:39:35Z</time>
      </trkpt>
      <trkpt lat="50.82443" lon="2.48124">
        <ele>32.34</ele>
        <time>2017-08-04T07:39:52Z</time>
      </trkpt>
      <trkpt lat="50.82413" lon="2.48063">
        <ele>33.3</ele>
        <time>2017-08-04T07:40:06Z</time>
      </trkpt>
      <trkpt lat="50.82413" lon="2.48057">
        <ele>33.3</ele>
        <time>2017-08-04T07:40:07Z</time>
      </trkpt>
      <trkpt lat="50.82414" lon="2.48054">
        <ele>33.3</ele>
        <time>2017-08-04T07:40:08Z</time>
      </trkpt>
      <trkpt lat="50.82416" lon="2.4805">
        <ele>33.3</ele>
        <time>2017-08-04T07:40:09Z</time>
      </trkpt>
      <trkpt lat="50.82418" lon="2.48046">
        <ele>33.3</ele>
        <time>2017-08-04T07:40:10Z</time>
      </trkpt>
      <trkpt lat="50.82421" lon="2.48043">
        <ele>33.3</ele>
        <time>2017-08-04T07:40:11Z</time>
      </trkpt>
      <trkpt lat="50.82423" lon="2.48039">
        <ele>33.3</ele>
        <time>2017-08-04T07:40:12Z</time>
      </trkpt>
      <trkpt lat="50.82426" lon="2.48033">
        <ele>33.78</ele>
        <time>2017-08-04T07:40:14Z</time>
      </trkpt>
      <trkpt lat="50.82426" lon="2.4803">
        <ele>33.78</ele>
        <time>2017-08-04T07:40:15Z</time>
      </trkpt>
      <trkpt lat="50.82426" lon="2.48027">
        <ele>32.34</ele>
        <time>2017-08-04T07:40:16Z</time>
      </trkpt>
      <trkpt lat="50.82427" lon="2.48025">
        <ele>32.34</ele>
        <time>2017-08-04T07:40:17Z</time>
      </trkpt>
      <trkpt lat="50.82426" lon="2.48016">
        <ele>32.34</ele>
        <time>2017-08-04T07:40:21Z</time>
      </trkpt>
      <trkpt lat="50.82424" lon="2.48013">
        <ele>32.34</ele>
        <time>2017-08-04T07:40:22Z</time>
      </trkpt>
      <trkpt lat="50.82422" lon="2.48012">
        <ele>32.34</ele>
        <time>2017-08-04T07:40:23Z</time>
      </trkpt>
      <trkpt lat="50.8242" lon="2.48011">
        <ele>32.34</ele>
        <time>2017-08-04T07:40:24Z</time>
      </trkpt>
      <trkpt lat="50.82417" lon="2.48011">
        <ele>32.34</ele>
        <time>2017-08-04T07:40:25Z</time>
      </trkpt>
      <trkpt lat="50.82414" lon="2.48012">
        <ele>32.34</ele>
        <time>2017-08-04T07:40:26Z</time>
      </trkpt>
      <trkpt lat="50.82411" lon="2.48012">
        <ele>32.34</ele>
        <time>2017-08-04T07:40:27Z</time>
      </trkpt>
      <trkpt lat="50.8235" lon="2.48013">
        <ele>32.34</ele>
        <time>2017-08-04T07:40:45Z</time>
      </trkpt>
      <trkpt lat="50.82348" lon="2.48009">
        <ele>32.34</ele>
        <time>2017-08-04T07:40:46Z</time>
      </trkpt>
      <trkpt lat="50.82346" lon="2.48005">
        <ele>32.34</ele>
        <time>2017-08-04T07:40:47Z</time>
      </trkpt>
      <trkpt lat="50.82345" lon="2.48">
        <ele>32.34</ele>
        <time>2017-08-04T07:40:48Z</time>
      </trkpt>
      <trkpt lat="50.82345" lon="2.47995">
        <ele>32.34</ele>
        <time>2017-08-04T07:40:49Z</time>
      </trkpt>
      <trkpt lat="50.82344" lon="2.47991">
        <ele>32.34</ele>
        <time>2017-08-04T07:40:50Z</time>
      </trkpt>
      <trkpt lat="50.82342" lon="2.47978">
        <ele>34.26</ele>
        <time>2017-08-04T07:40:53Z</time>
      </trkpt>
      <trkpt lat="50.82336" lon="2.47923">
        <ele>35.23</ele>
        <time>2017-08-04T07:41:05Z</time>
      </trkpt>
      <trkpt lat="50.82334" lon="2.47905">
        <ele>33.78</ele>
        <time>2017-08-04T07:41:09Z</time>
      </trkpt>
      <trkpt lat="50.82325" lon="2.47877">
        <ele>35.23</ele>
        <time>2017-08-04T07:41:16Z</time>
      </trkpt>
      <trkpt lat="50.82292" lon="2.47819">
        <ele>35.71</ele>
        <time>2017-08-04T07:41:33Z</time>
      </trkpt>
      <trkpt lat="50.82251" lon="2.47761">
        <ele>36.67</ele>
        <time>2017-08-04T07:41:52Z</time>
      </trkpt>
      <trkpt lat="50.82215" lon="2.47702">
        <ele>38.11</ele>
        <time>2017-08-04T07:42:10Z</time>
      </trkpt>
      <trkpt lat="50.82191" lon="2.47652">
        <ele>39.07</ele>
        <time>2017-08-04T07:42:23Z</time>
      </trkpt>
      <trkpt lat="50.82158" lon="2.47585">
        <ele>43.4</ele>
        <time>2017-08-04T07:42:40Z</time>
      </trkpt>
      <trkpt lat="50.82157" lon="2.47581">
        <ele>43.4</ele>
        <time>2017-08-04T07:42:41Z</time>
      </trkpt>
      <trkpt lat="50.82149" lon="2.47565">
        <ele>40.03</ele>
        <time>2017-08-04T07:42:45Z</time>
      </trkpt>
      <trkpt lat="50.82114" lon="2.47494">
        <ele>41.47</ele>
        <time>2017-08-04T07:43:03Z</time>
      </trkpt>
      <trkpt lat="50.82111" lon="2.47486">
        <ele>43.4</ele>
        <time>2017-08-04T07:43:05Z</time>
      </trkpt>
      <trkpt lat="50.82074" lon="2.47407">
        <ele>44.36</ele>
        <time>2017-08-04T07:43:24Z</time>
      </trkpt>
      <trkpt lat="50.82048" lon="2.47357">
        <ele>44.84</ele>
        <time>2017-08-04T07:43:39Z</time>
      </trkpt>
      <trkpt lat="50.82022" lon="2.47294">
        <ele>47.72</ele>
        <time>2017-08-04T07:43:56Z</time>
      </trkpt>
      <trkpt lat="50.81994" lon="2.47224">
        <ele>49.16</ele>
        <time>2017-08-04T07:44:15Z</time>
      </trkpt>
      <trkpt lat="50.81972" lon="2.47169">
        <ele>50.13</ele>
        <time>2017-08-04T07:44:30Z</time>
      </trkpt>
      <trkpt lat="50.81945" lon="2.47099">
        <ele>51.09</ele>
        <time>2017-08-04T07:44:48Z</time>
      </trkpt>
      <trkpt lat="50.81921" lon="2.4701">
        <ele>53.49</ele>
        <time>2017-08-04T07:45:09Z</time>
      </trkpt>
      <trkpt lat="50.81902" lon="2.4693">
        <ele>55.89</ele>
        <time>2017-08-04T07:45:28Z</time>
      </trkpt>
      <trkpt lat="50.81881" lon="2.46848">
        <ele>56.37</ele>
        <time>2017-08-04T07:45:48Z</time>
      </trkpt>
      <trkpt lat="50.8188" lon="2.46843">
        <ele>56.37</ele>
        <time>2017-08-04T07:45:49Z</time>
      </trkpt>
      <trkpt lat="50.81859" lon="2.46762">
        <ele>56.37</ele>
        <time>2017-08-04T07:46:08Z</time>
      </trkpt>
      <trkpt lat="50.8182" lon="2.46685">
        <ele>55.41</ele>
        <time>2017-08-04T07:46:24Z</time>
      </trkpt>
      <trkpt lat="50.81789" lon="2.46644">
        <ele>55.41</ele>
        <time>2017-08-04T07:46:33Z</time>
      </trkpt>
      <trkpt lat="50.81737" lon="2.46578">
        <ele>55.41</ele>
        <time>2017-08-04T07:46:49Z</time>
      </trkpt>
      <trkpt lat="50.8172" lon="2.46552">
        <ele>55.41</ele>
        <time>2017-08-04T07:46:55Z</time>
      </trkpt>
      <trkpt lat="50.8169" lon="2.4646">
        <ele>55.89</ele>
        <time>2017-08-04T07:47:12Z</time>
      </trkpt>
      <trkpt lat="50.81671" lon="2.46364">
        <ele>54.45</ele>
        <time>2017-08-04T07:47:27Z</time>
      </trkpt>
      <trkpt lat="50.81664" lon="2.46338">
        <ele>54.45</ele>
        <time>2017-08-04T07:47:31Z</time>
      </trkpt>
      <trkpt lat="50.81658" lon="2.46319">
        <ele>53.97</ele>
        <time>2017-08-04T07:47:34Z</time>
      </trkpt>
      <trkpt lat="50.81655" lon="2.46314">
        <ele>53.01</ele>
        <time>2017-08-04T07:47:35Z</time>
      </trkpt>
      <trkpt lat="50.8165" lon="2.46312">
        <ele>54.45</ele>
        <time>2017-08-04T07:47:36Z</time>
      </trkpt>
      <trkpt lat="50.81645" lon="2.46313">
        <ele>55.41</ele>
        <time>2017-08-04T07:47:37Z</time>
      </trkpt>
      <trkpt lat="50.81642" lon="2.46316">
        <ele>55.41</ele>
        <time>2017-08-04T07:47:38Z</time>
      </trkpt>
      <trkpt lat="50.81639" lon="2.46318">
        <ele>55.41</ele>
        <time>2017-08-04T07:47:39Z</time>
      </trkpt>
      <trkpt lat="50.816" lon="2.46368">
        <ele>57.82</ele>
        <time>2017-08-04T07:47:53Z</time>
      </trkpt>
      <trkpt lat="50.81561" lon="2.4642">
        <ele>58.78</ele>
        <time>2017-08-04T07:48:08Z</time>
      </trkpt>
      <trkpt lat="50.81535" lon="2.46455">
        <ele>57.82</ele>
        <time>2017-08-04T07:48:17Z</time>
      </trkpt>
      <trkpt lat="50.81532" lon="2.4646">
        <ele>57.82</ele>
        <time>2017-08-04T07:48:18Z</time>
      </trkpt>
      <trkpt lat="50.81522" lon="2.46474">
        <ele>57.34</ele>
        <time>2017-08-04T07:48:21Z</time>
      </trkpt>
      <trkpt lat="50.81518" lon="2.46477">
        <ele>57.34</ele>
        <time>2017-08-04T07:48:22Z</time>
      </trkpt>
      <trkpt lat="50.81515" lon="2.46477">
        <ele>57.34</ele>
        <time>2017-08-04T07:48:23Z</time>
      </trkpt>
      <trkpt lat="50.81512" lon="2.46475">
        <ele>57.34</ele>
        <time>2017-08-04T07:48:24Z</time>
      </trkpt>
      <trkpt lat="50.81509" lon="2.46471">
        <ele>57.34</ele>
        <time>2017-08-04T07:48:25Z</time>
      </trkpt>
      <trkpt lat="50.81507" lon="2.46468">
        <ele>57.34</ele>
        <time>2017-08-04T07:48:26Z</time>
      </trkpt>
      <trkpt lat="50.81489" lon="2.4645">
        <ele>56.37</ele>
        <time>2017-08-04T07:48:32Z</time>
      </trkpt>
      <trkpt lat="50.81485" lon="2.46448">
        <ele>56.37</ele>
        <time>2017-08-04T07:48:33Z</time>
      </trkpt>
      <trkpt lat="50.8148" lon="2.46448">
        <ele>55.89</ele>
        <time>2017-08-04T07:48:34Z</time>
      </trkpt>
      <trkpt lat="50.81476" lon="2.46449">
        <ele>55.89</ele>
        <time>2017-08-04T07:48:35Z</time>
      </trkpt>
      <trkpt lat="50.81472" lon="2.46452">
        <ele>55.41</ele>
        <time>2017-08-04T07:48:36Z</time>
      </trkpt>
      <trkpt lat="50.81468" lon="2.46455">
        <ele>55.41</ele>
        <time>2017-08-04T07:48:37Z</time>
      </trkpt>
      <trkpt lat="50.81465" lon="2.4646">
        <ele>55.41</ele>
        <time>2017-08-04T07:48:38Z</time>
      </trkpt>
      <trkpt lat="50.81462" lon="2.46464">
        <ele>54.93</ele>
        <time>2017-08-04T07:48:39Z</time>
      </trkpt>
      <trkpt lat="50.81432" lon="2.46513">
        <ele>54.45</ele>
        <time>2017-08-04T07:48:51Z</time>
      </trkpt>
      <trkpt lat="50.81404" lon="2.4654">
        <ele>54.45</ele>
        <time>2017-08-04T07:49:03Z</time>
      </trkpt>
      <trkpt lat="50.8137" lon="2.46576">
        <ele>55.41</ele>
        <time>2017-08-04T07:49:18Z</time>
      </trkpt>
      <trkpt lat="50.81347" lon="2.46599">
        <ele>56.37</ele>
        <time>2017-08-04T07:49:30Z</time>
      </trkpt>
      <trkpt lat="50.81323" lon="2.46625">
        <ele>58.3</ele>
        <time>2017-08-04T07:49:43Z</time>
      </trkpt>
      <trkpt lat="50.81311" lon="2.46633">
        <ele>58.3</ele>
        <time>2017-08-04T07:49:49Z</time>
      </trkpt>
      <trkpt lat="50.81309" lon="2.46635">
        <ele>58.3</ele>
        <time>2017-08-04T07:49:50Z</time>
      </trkpt>
      <trkpt lat="50.81283" lon="2.46661">
        <ele>59.74</ele>
        <time>2017-08-04T07:50:04Z</time>
      </trkpt>
      <trkpt lat="50.81258" lon="2.46705">
        <ele>61.18</ele>
        <time>2017-08-04T07:50:20Z</time>
      </trkpt>
      <trkpt lat="50.81227" lon="2.46758">
        <ele>61.66</ele>
        <time>2017-08-04T07:50:38Z</time>
      </trkpt>
      <trkpt lat="50.812" lon="2.46791">
        <ele>62.14</ele>
        <time>2017-08-04T07:50:50Z</time>
      </trkpt>
      <trkpt lat="50.81171" lon="2.46783">
        <ele>62.62</ele>
        <time>2017-08-04T07:51:01Z</time>
      </trkpt>
      <trkpt lat="50.81137" lon="2.46745">
        <ele>63.58</ele>
        <time>2017-08-04T07:51:18Z</time>
      </trkpt>
      <trkpt lat="50.81099" lon="2.46702">
        <ele>65.99</ele>
        <time>2017-08-04T07:51:37Z</time>
      </trkpt>
      <trkpt lat="50.8106" lon="2.46664">
        <ele>67.43</ele>
        <time>2017-08-04T07:51:56Z</time>
      </trkpt>
      <trkpt lat="50.81032" lon="2.46622">
        <ele>69.35</ele>
        <time>2017-08-04T07:52:12Z</time>
      </trkpt>
      <trkpt lat="50.81003" lon="2.46588">
        <ele>70.79</ele>
        <time>2017-08-04T07:52:29Z</time>
      </trkpt>
      <trkpt lat="50.80963" lon="2.46558">
        <ele>73.68</ele>
        <time>2017-08-04T07:52:50Z</time>
      </trkpt>
      <trkpt lat="50.80936" lon="2.46542">
        <ele>75.12</ele>
        <time>2017-08-04T07:53:04Z</time>
      </trkpt>
      <trkpt lat="50.80909" lon="2.46523">
        <ele>77.04</ele>
        <time>2017-08-04T07:53:20Z</time>
      </trkpt>
      <trkpt lat="50.80898" lon="2.46504">
        <ele>78.48</ele>
        <time>2017-08-04T07:53:29Z</time>
      </trkpt>
      <trkpt lat="50.80896" lon="2.46503">
        <ele>78.97</ele>
        <time>2017-08-04T07:53:30Z</time>
      </trkpt>
      <trkpt lat="50.80893" lon="2.46503">
        <ele>78.97</ele>
        <time>2017-08-04T07:53:31Z</time>
      </trkpt>
      <trkpt lat="50.80892" lon="2.46503">
        <ele>78.97</ele>
        <time>2017-08-04T07:53:32Z</time>
      </trkpt>
      <trkpt lat="50.80889" lon="2.46503">
        <ele>78.97</ele>
        <time>2017-08-04T07:53:33Z</time>
      </trkpt>
      <trkpt lat="50.80887" lon="2.46504">
        <ele>78.97</ele>
        <time>2017-08-04T07:53:34Z</time>
      </trkpt>
      <trkpt lat="50.80885" lon="2.46505">
        <ele>78.97</ele>
        <time>2017-08-04T07:53:35Z</time>
      </trkpt>
      <trkpt lat="50.80883" lon="2.46505">
        <ele>79.45</ele>
        <time>2017-08-04T07:53:36Z</time>
      </trkpt>
      <trkpt lat="50.80882" lon="2.46506">
        <ele>79.45</ele>
        <time>2017-08-04T07:53:37Z</time>
      </trkpt>
      <trkpt lat="50.80844" lon="2.46526">
        <ele>81.85</ele>
        <time>2017-08-04T07:53:57Z</time>
      </trkpt>
      <trkpt lat="50.80816" lon="2.46536">
        <ele>82.81</ele>
        <time>2017-08-04T07:54:11Z</time>
      </trkpt>
      <trkpt lat="50.80789" lon="2.46548">
        <ele>84.25</ele>
        <time>2017-08-04T07:54:25Z</time>
      </trkpt>
      <trkpt lat="50.80758" lon="2.46568">
        <ele>85.69</ele>
        <time>2017-08-04T07:54:41Z</time>
      </trkpt>
      <trkpt lat="50.80729" lon="2.46593">
        <ele>87.62</ele>
        <time>2017-08-04T07:54:57Z</time>
      </trkpt>
      <trkpt lat="50.80695" lon="2.46632">
        <ele>89.06</ele>
        <time>2017-08-04T07:55:17Z</time>
      </trkpt>
      <trkpt lat="50.80666" lon="2.46676">
        <ele>90.98</ele>
        <time>2017-08-04T07:55:35Z</time>
      </trkpt>
      <trkpt lat="50.80643" lon="2.46721">
        <ele>93.39</ele>
        <time>2017-08-04T07:55:52Z</time>
      </trkpt>
      <trkpt lat="50.80616" lon="2.46772">
        <ele>95.79</ele>
        <time>2017-08-04T07:56:12Z</time>
      </trkpt>
      <trkpt lat="50.80589" lon="2.46818">
        <ele>97.71</ele>
        <time>2017-08-04T07:56:30Z</time>
      </trkpt>
      <trkpt lat="50.80557" lon="2.46872">
        <ele>99.63</ele>
        <time>2017-08-04T07:56:51Z</time>
      </trkpt>
      <trkpt lat="50.80522" lon="2.46898">
        <ele>101.08</ele>
        <time>2017-08-04T07:57:08Z</time>
      </trkpt>
      <trkpt lat="50.80521" lon="2.46862">
        <ele>101.08</ele>
        <time>2017-08-04T07:57:17Z</time>
      </trkpt>
      <trkpt lat="50.80522" lon="2.46855">
        <ele>99.63</ele>
        <time>2017-08-04T07:57:18Z</time>
      </trkpt>
      <trkpt lat="50.80524" lon="2.46849">
        <ele>99.63</ele>
        <time>2017-08-04T07:57:19Z</time>
      </trkpt>
      <trkpt lat="50.80531" lon="2.46822">
        <ele>99.15</ele>
        <time>2017-08-04T07:57:23Z</time>
      </trkpt>
      <trkpt lat="50.80532" lon="2.46816">
        <ele>98.67</ele>
        <time>2017-08-04T07:57:24Z</time>
      </trkpt>
      <trkpt lat="50.80536" lon="2.46796">
        <ele>98.67</ele>
        <time>2017-08-04T07:57:27Z</time>
      </trkpt>
      <trkpt lat="50.80538" lon="2.46791">
        <ele>98.67</ele>
        <time>2017-08-04T07:57:28Z</time>
      </trkpt>
      <trkpt lat="50.80539" lon="2.46785">
        <ele>98.67</ele>
        <time>2017-08-04T07:57:29Z</time>
      </trkpt>
      <trkpt lat="50.80539" lon="2.46783">
        <ele>98.67</ele>
        <time>2017-08-04T07:57:30Z</time>
      </trkpt>
      <trkpt lat="50.80539" lon="2.4678">
        <ele>98.67</ele>
        <time>2017-08-04T07:57:31Z</time>
      </trkpt>
      <trkpt lat="50.80538" lon="2.46777">
        <ele>98.67</ele>
        <time>2017-08-04T07:57:32Z</time>
      </trkpt>
      <trkpt lat="50.80536" lon="2.46777">
        <ele>98.67</ele>
        <time>2017-08-04T07:57:33Z</time>
      </trkpt>
      <trkpt lat="50.80535" lon="2.46779">
        <ele>98.67</ele>
        <time>2017-08-04T07:57:34Z</time>
      </trkpt>
      <trkpt lat="50.80534" lon="2.4678">
        <ele>98.67</ele>
        <time>2017-08-04T07:57:35Z</time>
      </trkpt>
      <trkpt lat="50.80533" lon="2.46782">
        <ele>98.67</ele>
        <time>2017-08-04T07:57:36Z</time>
      </trkpt>
      <trkpt lat="50.80533" lon="2.46784">
        <ele>98.67</ele>
        <time>2017-08-04T07:57:37Z</time>
      </trkpt>
      <trkpt lat="50.80532" lon="2.46786">
        <ele>98.67</ele>
        <time>2017-08-04T07:57:38Z</time>
      </trkpt>
      <trkpt lat="50.80532" lon="2.46789">
        <ele>98.67</ele>
        <time>2017-08-04T07:57:39Z</time>
      </trkpt>
      <trkpt lat="50.80532" lon="2.46791">
        <ele>98.67</ele>
        <time>2017-08-04T07:57:40Z</time>
      </trkpt>
      <trkpt lat="50.80531" lon="2.46795">
        <ele>98.67</ele>
        <time>2017-08-04T07:57:41Z</time>
      </trkpt>
      <trkpt lat="50.8053" lon="2.46798">
        <ele>98.67</ele>
        <time>2017-08-04T07:57:42Z</time>
      </trkpt>
      <trkpt lat="50.80529" lon="2.46803">
        <ele>98.67</ele>
        <time>2017-08-04T07:57:43Z</time>
      </trkpt>
      <trkpt lat="50.80522" lon="2.46863">
        <ele>100.6</ele>
        <time>2017-08-04T07:57:56Z</time>
      </trkpt>
      <trkpt lat="50.80519" lon="2.46884">
        <ele>101.08</ele>
        <time>2017-08-04T07:58:03Z</time>
      </trkpt>
      <trkpt lat="50.80518" lon="2.46886">
        <ele>101.08</ele>
        <time>2017-08-04T07:58:04Z</time>
      </trkpt>
      <trkpt lat="50.80515" lon="2.46887">
        <ele>101.08</ele>
        <time>2017-08-04T07:58:14Z</time>
      </trkpt>
      <trkpt lat="50.8051" lon="2.46887">
        <ele>101.08</ele>
        <time>2017-08-04T07:58:23Z</time>
      </trkpt>
      <trkpt lat="50.80508" lon="2.4689">
        <ele>101.08</ele>
        <time>2017-08-04T07:58:24Z</time>
      </trkpt>
      <trkpt lat="50.80503" lon="2.46902">
        <ele>101.08</ele>
        <time>2017-08-04T07:58:28Z</time>
      </trkpt>
      <trkpt lat="50.80501" lon="2.46903">
        <ele>101.08</ele>
        <time>2017-08-04T07:58:29Z</time>
      </trkpt>
      <trkpt lat="50.805" lon="2.46902">
        <ele>101.08</ele>
        <time>2017-08-04T07:58:30Z</time>
      </trkpt>
      <trkpt lat="50.80498" lon="2.46901">
        <ele>101.08</ele>
        <time>2017-08-04T07:58:31Z</time>
      </trkpt>
      <trkpt lat="50.80495" lon="2.46897">
        <ele>99.63</ele>
        <time>2017-08-04T07:58:32Z</time>
      </trkpt>
      <trkpt lat="50.80492" lon="2.46893">
        <ele>98.67</ele>
        <time>2017-08-04T07:58:33Z</time>
      </trkpt>
      <trkpt lat="50.80489" lon="2.46888">
        <ele>98.19</ele>
        <time>2017-08-04T07:58:34Z</time>
      </trkpt>
      <trkpt lat="50.80471" lon="2.46862">
        <ele>94.35</ele>
        <time>2017-08-04T07:58:38Z</time>
      </trkpt>
      <trkpt lat="50.80464" lon="2.4685">
        <ele>93.87</ele>
        <time>2017-08-04T07:58:40Z</time>
      </trkpt>
      <trkpt lat="50.80451" lon="2.46829">
        <ele>90.98</ele>
        <time>2017-08-04T07:58:44Z</time>
      </trkpt>
      <trkpt lat="50.80444" lon="2.46818">
        <ele>89.54</ele>
        <time>2017-08-04T07:58:46Z</time>
      </trkpt>
      <trkpt lat="50.80438" lon="2.46808">
        <ele>88.58</ele>
        <time>2017-08-04T07:58:48Z</time>
      </trkpt>
      <trkpt lat="50.80428" lon="2.4679">
        <ele>86.66</ele>
        <time>2017-08-04T07:58:51Z</time>
      </trkpt>
      <trkpt lat="50.80424" lon="2.46784">
        <ele>85.21</ele>
        <time>2017-08-04T07:58:52Z</time>
      </trkpt>
      <trkpt lat="50.80411" lon="2.46765">
        <ele>84.73</ele>
        <time>2017-08-04T07:58:59Z</time>
      </trkpt>
      <trkpt lat="50.8041" lon="2.46762">
        <ele>84.25</ele>
        <time>2017-08-04T07:59:00Z</time>
      </trkpt>
      <trkpt lat="50.8041" lon="2.46759">
        <ele>84.25</ele>
        <time>2017-08-04T07:59:01Z</time>
      </trkpt>
      <trkpt lat="50.80409" lon="2.46757">
        <ele>83.77</ele>
        <time>2017-08-04T07:59:02Z</time>
      </trkpt>
      <trkpt lat="50.80408" lon="2.46755">
        <ele>83.77</ele>
        <time>2017-08-04T07:59:03Z</time>
      </trkpt>
      <trkpt lat="50.80407" lon="2.46753">
        <ele>83.29</ele>
        <time>2017-08-04T07:59:04Z</time>
      </trkpt>
      <trkpt lat="50.80405" lon="2.46752">
        <ele>82.81</ele>
        <time>2017-08-04T07:59:05Z</time>
      </trkpt>
      <trkpt lat="50.80404" lon="2.46751">
        <ele>82.81</ele>
        <time>2017-08-04T07:59:06Z</time>
      </trkpt>
      <trkpt lat="50.80402" lon="2.4675">
        <ele>81.85</ele>
        <time>2017-08-04T07:59:07Z</time>
      </trkpt>
      <trkpt lat="50.80401" lon="2.46748">
        <ele>81.37</ele>
        <time>2017-08-04T07:59:08Z</time>
      </trkpt>
      <trkpt lat="50.80393" lon="2.4674">
        <ele>78</ele>
        <time>2017-08-04T07:59:13Z</time>
      </trkpt>
      <trkpt lat="50.80389" lon="2.46738">
        <ele>76.56</ele>
        <time>2017-08-04T07:59:15Z</time>
      </trkpt>
      <trkpt lat="50.80383" lon="2.46725">
        <ele>73.68</ele>
        <time>2017-08-04T07:59:24Z</time>
      </trkpt>
      <trkpt lat="50.80383" lon="2.46718">
        <ele>73.68</ele>
        <time>2017-08-04T07:59:30Z</time>
      </trkpt>
      <trkpt lat="50.80382" lon="2.46716">
        <ele>73.68</ele>
        <time>2017-08-04T07:59:31Z</time>
      </trkpt>
      <trkpt lat="50.80378" lon="2.46705">
        <ele>73.2</ele>
        <time>2017-08-04T07:59:39Z</time>
      </trkpt>
      <trkpt lat="50.80377" lon="2.46703">
        <ele>72.72</ele>
        <time>2017-08-04T07:59:40Z</time>
      </trkpt>
      <trkpt lat="50.80375" lon="2.467">
        <ele>72.24</ele>
        <time>2017-08-04T07:59:41Z</time>
      </trkpt>
      <trkpt lat="50.80374" lon="2.46698">
        <ele>71.76</ele>
        <time>2017-08-04T07:59:42Z</time>
      </trkpt>
      <trkpt lat="50.80373" lon="2.46696">
        <ele>71.76</ele>
        <time>2017-08-04T07:59:43Z</time>
      </trkpt>
      <trkpt lat="50.80372" lon="2.46694">
        <ele>71.76</ele>
        <time>2017-08-04T07:59:44Z</time>
      </trkpt>
      <trkpt lat="50.80371" lon="2.46692">
        <ele>71.76</ele>
        <time>2017-08-04T07:59:45Z</time>
      </trkpt>
      <trkpt lat="50.80368" lon="2.4669">
        <ele>70.79</ele>
        <time>2017-08-04T07:59:46Z</time>
      </trkpt>
      <trkpt lat="50.80365" lon="2.46687">
        <ele>70.79</ele>
        <time>2017-08-04T07:59:47Z</time>
      </trkpt>
      <trkpt lat="50.80361" lon="2.46684">
        <ele>70.79</ele>
        <time>2017-08-04T07:59:48Z</time>
      </trkpt>
      <trkpt lat="50.80357" lon="2.46682">
        <ele>70.79</ele>
        <time>2017-08-04T07:59:49Z</time>
      </trkpt>
      <trkpt lat="50.80353" lon="2.46681">
        <ele>70.79</ele>
        <time>2017-08-04T07:59:50Z</time>
      </trkpt>
      <trkpt lat="50.8035" lon="2.46678">
        <ele>70.79</ele>
        <time>2017-08-04T07:59:51Z</time>
      </trkpt>
      <trkpt lat="50.80347" lon="2.46675">
        <ele>70.79</ele>
        <time>2017-08-04T07:59:52Z</time>
      </trkpt>
      <trkpt lat="50.80344" lon="2.46672">
        <ele>70.79</ele>
        <time>2017-08-04T07:59:53Z</time>
      </trkpt>
      <trkpt lat="50.80342" lon="2.46669">
        <ele>70.79</ele>
        <time>2017-08-04T07:59:54Z</time>
      </trkpt>
      <trkpt lat="50.80339" lon="2.46667">
        <ele>70.79</ele>
        <time>2017-08-04T07:59:55Z</time>
      </trkpt>
      <trkpt lat="50.80337" lon="2.46664">
        <ele>70.79</ele>
        <time>2017-08-04T07:59:56Z</time>
      </trkpt>
      <trkpt lat="50.80335" lon="2.46662">
        <ele>70.79</ele>
        <time>2017-08-04T07:59:57Z</time>
      </trkpt>
      <trkpt lat="50.80333" lon="2.46659">
        <ele>70.79</ele>
        <time>2017-08-04T07:59:58Z</time>
      </trkpt>
      <trkpt lat="50.80332" lon="2.46657">
        <ele>70.79</ele>
        <time>2017-08-04T07:59:59Z</time>
      </trkpt>
      <trkpt lat="50.80327" lon="2.46648">
        <ele>70.79</ele>
        <time>2017-08-04T08:00:04Z</time>
      </trkpt>
      <trkpt lat="50.80326" lon="2.46646">
        <ele>71.76</ele>
        <time>2017-08-04T08:00:05Z</time>
      </trkpt>
      <trkpt lat="50.80325" lon="2.46643">
        <ele>71.76</ele>
        <time>2017-08-04T08:00:06Z</time>
      </trkpt>
      <trkpt lat="50.80324" lon="2.46641">
        <ele>71.76</ele>
        <time>2017-08-04T08:00:07Z</time>
      </trkpt>
      <trkpt lat="50.80323" lon="2.46639">
        <ele>71.76</ele>
        <time>2017-08-04T08:00:08Z</time>
      </trkpt>
      <trkpt lat="50.80321" lon="2.46638">
        <ele>71.76</ele>
        <time>2017-08-04T08:00:09Z</time>
      </trkpt>
      <trkpt lat="50.80311" lon="2.46624">
        <ele>74.64</ele>
        <time>2017-08-04T08:00:19Z</time>
      </trkpt>
      <trkpt lat="50.80301" lon="2.46611">
        <ele>77.04</ele>
        <time>2017-08-04T08:00:30Z</time>
      </trkpt>
      <trkpt lat="50.80299" lon="2.4661">
        <ele>77.04</ele>
        <time>2017-08-04T08:00:31Z</time>
      </trkpt>
      <trkpt lat="50.80298" lon="2.46609">
        <ele>77.52</ele>
        <time>2017-08-04T08:00:32Z</time>
      </trkpt>
      <trkpt lat="50.80283" lon="2.46594">
        <ele>80.41</ele>
        <time>2017-08-04T08:00:43Z</time>
      </trkpt>
      <trkpt lat="50.80281" lon="2.46593">
        <ele>80.89</ele>
        <time>2017-08-04T08:00:44Z</time>
      </trkpt>
      <trkpt lat="50.8028" lon="2.46593">
        <ele>80.89</ele>
        <time>2017-08-04T08:00:45Z</time>
      </trkpt>
      <trkpt lat="50.80277" lon="2.46592">
        <ele>81.37</ele>
        <time>2017-08-04T08:00:46Z</time>
      </trkpt>
      <trkpt lat="50.80253" lon="2.46592">
        <ele>83.77</ele>
        <time>2017-08-04T08:01:01Z</time>
      </trkpt>
      <trkpt lat="50.80247" lon="2.46592">
        <ele>83.77</ele>
        <time>2017-08-04T08:01:04Z</time>
      </trkpt>
      <trkpt lat="50.80228" lon="2.466">
        <ele>86.66</ele>
        <time>2017-08-04T08:01:18Z</time>
      </trkpt>
      <trkpt lat="50.80219" lon="2.46605">
        <ele>88.58</ele>
        <time>2017-08-04T08:01:29Z</time>
      </trkpt>
      <trkpt lat="50.80214" lon="2.46608">
        <ele>89.54</ele>
        <time>2017-08-04T08:01:49Z</time>
      </trkpt>
      <trkpt lat="50.80212" lon="2.46618">
        <ele>90.98</ele>
        <time>2017-08-04T08:02:07Z</time>
      </trkpt>
      <trkpt lat="50.8021" lon="2.46642">
        <ele>93.87</ele>
        <time>2017-08-04T08:02:24Z</time>
      </trkpt>
      <trkpt lat="50.80203" lon="2.46661">
        <ele>95.79</ele>
        <time>2017-08-04T08:02:41Z</time>
      </trkpt>
      <trkpt lat="50.80198" lon="2.46663">
        <ele>95.79</ele>
        <time>2017-08-04T08:02:48Z</time>
      </trkpt>
      <trkpt lat="50.80196" lon="2.46663">
        <ele>95.79</ele>
        <time>2017-08-04T08:02:49Z</time>
      </trkpt>
      <trkpt lat="50.80194" lon="2.46663">
        <ele>95.79</ele>
        <time>2017-08-04T08:02:50Z</time>
      </trkpt>
      <trkpt lat="50.80193" lon="2.46663">
        <ele>95.79</ele>
        <time>2017-08-04T08:02:51Z</time>
      </trkpt>
      <trkpt lat="50.80191" lon="2.46663">
        <ele>95.79</ele>
        <time>2017-08-04T08:02:52Z</time>
      </trkpt>
      <trkpt lat="50.80189" lon="2.46663">
        <ele>95.79</ele>
        <time>2017-08-04T08:02:53Z</time>
      </trkpt>
      <trkpt lat="50.8018" lon="2.46665">
        <ele>95.79</ele>
        <time>2017-08-04T08:02:58Z</time>
      </trkpt>
      <trkpt lat="50.80178" lon="2.46665">
        <ele>95.79</ele>
        <time>2017-08-04T08:02:59Z</time>
      </trkpt>
      <trkpt lat="50.80176" lon="2.46666">
        <ele>95.79</ele>
        <time>2017-08-04T08:03:00Z</time>
      </trkpt>
      <trkpt lat="50.80174" lon="2.46667">
        <ele>96.27</ele>
        <time>2017-08-04T08:03:01Z</time>
      </trkpt>
      <trkpt lat="50.80172" lon="2.46668">
        <ele>96.27</ele>
        <time>2017-08-04T08:03:02Z</time>
      </trkpt>
      <trkpt lat="50.8017" lon="2.46668">
        <ele>96.27</ele>
        <time>2017-08-04T08:03:03Z</time>
      </trkpt>
      <trkpt lat="50.80168" lon="2.46669">
        <ele>96.27</ele>
        <time>2017-08-04T08:03:04Z</time>
      </trkpt>
      <trkpt lat="50.80142" lon="2.46672">
        <ele>97.23</ele>
        <time>2017-08-04T08:03:16Z</time>
      </trkpt>
      <trkpt lat="50.80106" lon="2.46672">
        <ele>97.23</ele>
        <time>2017-08-04T08:03:30Z</time>
      </trkpt>
      <trkpt lat="50.80088" lon="2.46672">
        <ele>95.79</ele>
        <time>2017-08-04T08:03:36Z</time>
      </trkpt>
      <trkpt lat="50.80074" lon="2.46689">
        <ele>95.79</ele>
        <time>2017-08-04T08:03:45Z</time>
      </trkpt>
      <trkpt lat="50.80075" lon="2.46692">
        <ele>95.79</ele>
        <time>2017-08-04T08:03:46Z</time>
      </trkpt>
      <trkpt lat="50.80076" lon="2.46694">
        <ele>95.79</ele>
        <time>2017-08-04T08:03:47Z</time>
      </trkpt>
      <trkpt lat="50.80078" lon="2.46696">
        <ele>97.23</ele>
        <time>2017-08-04T08:03:48Z</time>
      </trkpt>
      <trkpt lat="50.80079" lon="2.46698">
        <ele>97.23</ele>
        <time>2017-08-04T08:03:49Z</time>
      </trkpt>
      <trkpt lat="50.8008" lon="2.467">
        <ele>97.23</ele>
        <time>2017-08-04T08:03:50Z</time>
      </trkpt>
      <trkpt lat="50.80098" lon="2.46727">
        <ele>99.15</ele>
        <time>2017-08-04T08:04:04Z</time>
      </trkpt>
      <trkpt lat="50.80101" lon="2.46736">
        <ele>99.63</ele>
        <time>2017-08-04T08:04:07Z</time>
      </trkpt>
      <trkpt lat="50.80101" lon="2.46739">
        <ele>99.63</ele>
        <time>2017-08-04T08:04:08Z</time>
      </trkpt>
      <trkpt lat="50.80102" lon="2.46743">
        <ele>99.63</ele>
        <time>2017-08-04T08:04:09Z</time>
      </trkpt>
      <trkpt lat="50.80102" lon="2.46746">
        <ele>100.11</ele>
        <time>2017-08-04T08:04:10Z</time>
      </trkpt>
      <trkpt lat="50.80103" lon="2.4675">
        <ele>100.11</ele>
        <time>2017-08-04T08:04:11Z</time>
      </trkpt>
      <trkpt lat="50.80103" lon="2.46752">
        <ele>100.11</ele>
        <time>2017-08-04T08:04:12Z</time>
      </trkpt>
      <trkpt lat="50.80103" lon="2.46756">
        <ele>100.6</ele>
        <time>2017-08-04T08:04:13Z</time>
      </trkpt>
      <trkpt lat="50.80103" lon="2.46758">
        <ele>100.6</ele>
        <time>2017-08-04T08:04:14Z</time>
      </trkpt>
      <trkpt lat="50.80093" lon="2.46795">
        <ele>102.52</ele>
        <time>2017-08-04T08:04:29Z</time>
      </trkpt>
      <trkpt lat="50.80069" lon="2.46836">
        <ele>104.92</ele>
        <time>2017-08-04T08:04:47Z</time>
      </trkpt>
      <trkpt lat="50.80044" lon="2.46874">
        <ele>108.29</ele>
        <time>2017-08-04T08:05:02Z</time>
      </trkpt>
      <trkpt lat="50.8003" lon="2.46921">
        <ele>110.21</ele>
        <time>2017-08-04T08:05:17Z</time>
      </trkpt>
      <trkpt lat="50.80035" lon="2.46972">
        <ele>112.61</ele>
        <time>2017-08-04T08:05:33Z</time>
      </trkpt>
      <trkpt lat="50.80062" lon="2.47005">
        <ele>114.53</ele>
        <time>2017-08-04T08:05:48Z</time>
      </trkpt>
      <trkpt lat="50.80084" lon="2.47037">
        <ele>116.94</ele>
        <time>2017-08-04T08:06:02Z</time>
      </trkpt>
      <trkpt lat="50.80081" lon="2.47076">
        <ele>118.86</ele>
        <time>2017-08-04T08:06:15Z</time>
      </trkpt>
      <trkpt lat="50.80073" lon="2.47111">
        <ele>120.3</ele>
        <time>2017-08-04T08:06:27Z</time>
      </trkpt>
      <trkpt lat="50.80083" lon="2.47156">
        <ele>123.19</ele>
        <time>2017-08-04T08:06:43Z</time>
      </trkpt>
      <trkpt lat="50.80101" lon="2.47195">
        <ele>125.11</ele>
        <time>2017-08-04T08:06:58Z</time>
      </trkpt>
      <trkpt lat="50.801" lon="2.47203">
        <ele>125.59</ele>
        <time>2017-08-04T08:07:01Z</time>
      </trkpt>
      <trkpt lat="50.80099" lon="2.47205">
        <ele>125.59</ele>
        <time>2017-08-04T08:07:02Z</time>
      </trkpt>
      <trkpt lat="50.80085" lon="2.47233">
        <ele>127.99</ele>
        <time>2017-08-04T08:07:16Z</time>
      </trkpt>
      <trkpt lat="50.80062" lon="2.47252">
        <ele>129.92</ele>
        <time>2017-08-04T08:07:31Z</time>
      </trkpt>
      <trkpt lat="50.80042" lon="2.47285">
        <ele>131.84</ele>
        <time>2017-08-04T08:07:47Z</time>
      </trkpt>
      <trkpt lat="50.80043" lon="2.47325">
        <ele>133.76</ele>
        <time>2017-08-04T08:08:01Z</time>
      </trkpt>
      <trkpt lat="50.80057" lon="2.47352">
        <ele>135.2</ele>
        <time>2017-08-04T08:08:14Z</time>
      </trkpt>
      <trkpt lat="50.80058" lon="2.47353">
        <ele>135.2</ele>
        <time>2017-08-04T08:08:15Z</time>
      </trkpt>
      <trkpt lat="50.80059" lon="2.47354">
        <ele>135.68</ele>
        <time>2017-08-04T08:08:16Z</time>
      </trkpt>
      <trkpt lat="50.80061" lon="2.47355">
        <ele>135.68</ele>
        <time>2017-08-04T08:08:17Z</time>
      </trkpt>
      <trkpt lat="50.80063" lon="2.47356">
        <ele>135.68</ele>
        <time>2017-08-04T08:08:18Z</time>
      </trkpt>
      <trkpt lat="50.80064" lon="2.47356">
        <ele>135.68</ele>
        <time>2017-08-04T08:08:19Z</time>
      </trkpt>
      <trkpt lat="50.80084" lon="2.4738">
        <ele>138.09</ele>
        <time>2017-08-04T08:08:33Z</time>
      </trkpt>
      <trkpt lat="50.80092" lon="2.47436">
        <ele>140.49</ele>
        <time>2017-08-04T08:08:53Z</time>
      </trkpt>
      <trkpt lat="50.8009" lon="2.47485">
        <ele>142.41</ele>
        <time>2017-08-04T08:09:10Z</time>
      </trkpt>
      <trkpt lat="50.80104" lon="2.47532">
        <ele>143.37</ele>
        <time>2017-08-04T08:09:25Z</time>
      </trkpt>
      <trkpt lat="50.80127" lon="2.47597">
        <ele>146.26</ele>
        <time>2017-08-04T08:09:45Z</time>
      </trkpt>
      <trkpt lat="50.80147" lon="2.47641">
        <ele>148.66</ele>
        <time>2017-08-04T08:10:00Z</time>
      </trkpt>
      <trkpt lat="50.80169" lon="2.47683">
        <ele>150.58</ele>
        <time>2017-08-04T08:10:18Z</time>
      </trkpt>
      <trkpt lat="50.80187" lon="2.47725">
        <ele>152.51</ele>
        <time>2017-08-04T08:10:34Z</time>
      </trkpt>
      <trkpt lat="50.802" lon="2.4777">
        <ele>153.95</ele>
        <time>2017-08-04T08:10:50Z</time>
      </trkpt>
      <trkpt lat="50.80216" lon="2.47826">
        <ele>155.87</ele>
        <time>2017-08-04T08:11:06Z</time>
      </trkpt>
      <trkpt lat="50.80212" lon="2.4789">
        <ele>158.27</ele>
        <time>2017-08-04T08:11:23Z</time>
      </trkpt>
      <trkpt lat="50.80209" lon="2.47958">
        <ele>159.24</ele>
        <time>2017-08-04T08:11:41Z</time>
      </trkpt>
      <trkpt lat="50.80208" lon="2.48019">
        <ele>160.68</ele>
        <time>2017-08-04T08:11:57Z</time>
      </trkpt>
      <trkpt lat="50.80202" lon="2.48073">
        <ele>161.64</ele>
        <time>2017-08-04T08:12:10Z</time>
      </trkpt>
      <trkpt lat="50.80202" lon="2.481">
        <ele>162.12</ele>
        <time>2017-08-04T08:12:16Z</time>
      </trkpt>
      <trkpt lat="50.80191" lon="2.48179">
        <ele>162.12</ele>
        <time>2017-08-04T08:12:31Z</time>
      </trkpt>
      <trkpt lat="50.80171" lon="2.48206">
        <ele>160.2</ele>
        <time>2017-08-04T08:12:37Z</time>
      </trkpt>
      <trkpt lat="50.80157" lon="2.48222">
        <ele>158.75</ele>
        <time>2017-08-04T08:12:41Z</time>
      </trkpt>
      <trkpt lat="50.80129" lon="2.48245">
        <ele>156.35</ele>
        <time>2017-08-04T08:12:47Z</time>
      </trkpt>
      <trkpt lat="50.80094" lon="2.48272">
        <ele>153.95</ele>
        <time>2017-08-04T08:12:53Z</time>
      </trkpt>
      <trkpt lat="50.80088" lon="2.48279">
        <ele>153.95</ele>
        <time>2017-08-04T08:12:54Z</time>
      </trkpt>
      <trkpt lat="50.80083" lon="2.48286">
        <ele>153.47</ele>
        <time>2017-08-04T08:12:55Z</time>
      </trkpt>
      <trkpt lat="50.80078" lon="2.48295">
        <ele>153.47</ele>
        <time>2017-08-04T08:12:56Z</time>
      </trkpt>
      <trkpt lat="50.80073" lon="2.48304">
        <ele>153.47</ele>
        <time>2017-08-04T08:12:57Z</time>
      </trkpt>
      <trkpt lat="50.80069" lon="2.48314">
        <ele>153.47</ele>
        <time>2017-08-04T08:12:58Z</time>
      </trkpt>
      <trkpt lat="50.80059" lon="2.48346">
        <ele>152.51</ele>
        <time>2017-08-04T08:13:01Z</time>
      </trkpt>
      <trkpt lat="50.80053" lon="2.48378">
        <ele>152.51</ele>
        <time>2017-08-04T08:13:04Z</time>
      </trkpt>
      <trkpt lat="50.80052" lon="2.48387">
        <ele>152.51</ele>
        <time>2017-08-04T08:13:05Z</time>
      </trkpt>
      <trkpt lat="50.80051" lon="2.48397">
        <ele>152.51</ele>
        <time>2017-08-04T08:13:06Z</time>
      </trkpt>
      <trkpt lat="50.80048" lon="2.48428">
        <ele>153.95</ele>
        <time>2017-08-04T08:13:10Z</time>
      </trkpt>
      <trkpt lat="50.80047" lon="2.48435">
        <ele>153.95</ele>
        <time>2017-08-04T08:13:11Z</time>
      </trkpt>
      <trkpt lat="50.80047" lon="2.48441">
        <ele>154.43</ele>
        <time>2017-08-04T08:13:12Z</time>
      </trkpt>
      <trkpt lat="50.80032" lon="2.48497">
        <ele>154.91</ele>
        <time>2017-08-04T08:13:23Z</time>
      </trkpt>
      <trkpt lat="50.80032" lon="2.48501">
        <ele>154.91</ele>
        <time>2017-08-04T08:13:24Z</time>
      </trkpt>
      <trkpt lat="50.80033" lon="2.48505">
        <ele>154.91</ele>
        <time>2017-08-04T08:13:25Z</time>
      </trkpt>
      <trkpt lat="50.80049" lon="2.48518">
        <ele>156.83</ele>
        <time>2017-08-04T08:13:37Z</time>
      </trkpt>
      <trkpt lat="50.80053" lon="2.4852">
        <ele>157.79</ele>
        <time>2017-08-04T08:13:40Z</time>
      </trkpt>
      <trkpt lat="50.80067" lon="2.48506">
        <ele>158.75</ele>
        <time>2017-08-04T08:13:52Z</time>
      </trkpt>
      <trkpt lat="50.80078" lon="2.48482">
        <ele>161.16</ele>
        <time>2017-08-04T08:14:05Z</time>
      </trkpt>
      <trkpt lat="50.8009" lon="2.48454">
        <ele>163.56</ele>
        <time>2017-08-04T08:14:18Z</time>
      </trkpt>
      <trkpt lat="50.80096" lon="2.48441">
        <ele>165.48</ele>
        <time>2017-08-04T08:14:25Z</time>
      </trkpt>
      <trkpt lat="50.80099" lon="2.4844">
        <ele>165.96</ele>
        <time>2017-08-04T08:14:26Z</time>
      </trkpt>
      <trkpt lat="50.801" lon="2.48439">
        <ele>165.96</ele>
        <time>2017-08-04T08:14:27Z</time>
      </trkpt>
      <trkpt lat="50.80102" lon="2.48439">
        <ele>165.96</ele>
        <time>2017-08-04T08:14:28Z</time>
      </trkpt>
      <trkpt lat="50.80103" lon="2.4844">
        <ele>166.93</ele>
        <time>2017-08-04T08:14:29Z</time>
      </trkpt>
      <trkpt lat="50.80105" lon="2.4844">
        <ele>167.41</ele>
        <time>2017-08-04T08:14:30Z</time>
      </trkpt>
      <trkpt lat="50.80106" lon="2.48441">
        <ele>167.41</ele>
        <time>2017-08-04T08:14:31Z</time>
      </trkpt>
      <trkpt lat="50.80108" lon="2.48441">
        <ele>167.89</ele>
        <time>2017-08-04T08:14:32Z</time>
      </trkpt>
      <trkpt lat="50.80109" lon="2.48442">
        <ele>168.37</ele>
        <time>2017-08-04T08:14:33Z</time>
      </trkpt>
      <trkpt lat="50.8011" lon="2.48442">
        <ele>168.37</ele>
        <time>2017-08-04T08:14:34Z</time>
      </trkpt>
      <trkpt lat="50.80112" lon="2.48442">
        <ele>168.85</ele>
        <time>2017-08-04T08:14:35Z</time>
      </trkpt>
      <trkpt lat="50.80113" lon="2.48443">
        <ele>168.85</ele>
        <time>2017-08-04T08:14:36Z</time>
      </trkpt>
      <trkpt lat="50.80114" lon="2.48443">
        <ele>168.85</ele>
        <time>2017-08-04T08:14:37Z</time>
      </trkpt>
      <trkpt lat="50.80115" lon="2.48444">
        <ele>169.81</ele>
        <time>2017-08-04T08:14:38Z</time>
      </trkpt>
      <trkpt lat="50.80119" lon="2.48446">
        <ele>170.29</ele>
        <time>2017-08-04T08:14:41Z</time>
      </trkpt>
      <trkpt lat="50.80122" lon="2.4845">
        <ele>171.73</ele>
        <time>2017-08-04T08:14:43Z</time>
      </trkpt>
      <trkpt lat="50.80129" lon="2.48472">
        <ele>173.17</ele>
        <time>2017-08-04T08:14:53Z</time>
      </trkpt>
      <trkpt lat="50.8013" lon="2.48475">
        <ele>173.66</ele>
        <time>2017-08-04T08:14:54Z</time>
      </trkpt>
      <trkpt lat="50.80129" lon="2.48478">
        <ele>173.66</ele>
        <time>2017-08-04T08:14:55Z</time>
      </trkpt>
      <trkpt lat="50.80129" lon="2.48481">
        <ele>173.66</ele>
        <time>2017-08-04T08:14:56Z</time>
      </trkpt>
      <trkpt lat="50.80129" lon="2.48484">
        <ele>173.66</ele>
        <time>2017-08-04T08:14:57Z</time>
      </trkpt>
      <trkpt lat="50.80129" lon="2.48487">
        <ele>173.66</ele>
        <time>2017-08-04T08:14:58Z</time>
      </trkpt>
      <trkpt lat="50.80128" lon="2.48491">
        <ele>173.66</ele>
        <time>2017-08-04T08:14:59Z</time>
      </trkpt>
      <trkpt lat="50.80128" lon="2.48494">
        <ele>173.66</ele>
        <time>2017-08-04T08:15:00Z</time>
      </trkpt>
      <trkpt lat="50.80127" lon="2.48497">
        <ele>173.66</ele>
        <time>2017-08-04T08:15:01Z</time>
      </trkpt>
      <trkpt lat="50.80118" lon="2.48535">
        <ele>173.17</ele>
        <time>2017-08-04T08:15:16Z</time>
      </trkpt>
      <trkpt lat="50.80113" lon="2.48561">
        <ele>173.17</ele>
        <time>2017-08-04T08:15:31Z</time>
      </trkpt>
      <trkpt lat="50.80113" lon="2.48561">
        <ele>173.17</ele>
        <time>2017-08-04T08:15:56Z</time>
      </trkpt>
      <trkpt lat="50.8011" lon="2.48563">
        <ele>173.66</ele>
        <time>2017-08-04T08:16:34Z</time>
      </trkpt>
      <trkpt lat="50.80109" lon="2.48559">
        <ele>173.66</ele>
        <time>2017-08-04T08:17:18Z</time>
      </trkpt>
      <trkpt lat="50.80108" lon="2.48563">
        <ele>173.66</ele>
        <time>2017-08-04T08:17:59Z</time>
      </trkpt>
      <trkpt lat="50.8011" lon="2.48562">
        <ele>172.69</ele>
        <time>2017-08-04T08:18:31Z</time>
      </trkpt>
      <trkpt lat="50.80109" lon="2.48559">
        <ele>172.69</ele>
        <time>2017-08-04T08:19:05Z</time>
      </trkpt>
      <trkpt lat="50.80112" lon="2.48558">
        <ele>172.21</ele>
        <time>2017-08-04T08:19:56Z</time>
      </trkpt>
      <trkpt lat="50.80113" lon="2.48557">
        <ele>171.73</ele>
        <time>2017-08-04T08:20:27Z</time>
      </trkpt>
      <trkpt lat="50.80113" lon="2.48559">
        <ele>171.73</ele>
        <time>2017-08-04T08:20:48Z</time>
      </trkpt>
      <trkpt lat="50.80115" lon="2.48557">
        <ele>171.73</ele>
        <time>2017-08-04T08:21:13Z</time>
      </trkpt>
      <trkpt lat="50.80114" lon="2.4856">
        <ele>171.73</ele>
        <time>2017-08-04T08:21:39Z</time>
      </trkpt>
      <trkpt lat="50.80115" lon="2.48561">
        <ele>171.73</ele>
        <time>2017-08-04T08:22:03Z</time>
      </trkpt>
      <trkpt lat="50.80115" lon="2.4856">
        <ele>171.73</ele>
        <time>2017-08-04T08:22:24Z</time>
      </trkpt>
      <trkpt lat="50.80114" lon="2.4856">
        <ele>171.73</ele>
        <time>2017-08-04T08:22:39Z</time>
      </trkpt>
      <trkpt lat="50.80113" lon="2.48562">
        <ele>173.17</ele>
        <time>2017-08-04T08:22:59Z</time>
      </trkpt>
      <trkpt lat="50.80113" lon="2.4856">
        <ele>173.17</ele>
        <time>2017-08-04T08:23:14Z</time>
      </trkpt>
      <trkpt lat="50.80117" lon="2.48564">
        <ele>173.17</ele>
        <time>2017-08-04T08:23:22Z</time>
      </trkpt>
      <trkpt lat="50.80118" lon="2.48564">
        <ele>173.17</ele>
        <time>2017-08-04T08:23:23Z</time>
      </trkpt>
      <trkpt lat="50.80121" lon="2.48565">
        <ele>173.17</ele>
        <time>2017-08-04T08:23:24Z</time>
      </trkpt>
      <trkpt lat="50.80132" lon="2.48571">
        <ele>171.73</ele>
        <time>2017-08-04T08:23:27Z</time>
      </trkpt>
      <trkpt lat="50.80135" lon="2.48574">
        <ele>171.25</ele>
        <time>2017-08-04T08:23:28Z</time>
      </trkpt>
      <trkpt lat="50.80138" lon="2.48578">
        <ele>171.25</ele>
        <time>2017-08-04T08:23:29Z</time>
      </trkpt>
      <trkpt lat="50.80141" lon="2.48581">
        <ele>170.77</ele>
        <time>2017-08-04T08:23:30Z</time>
      </trkpt>
      <trkpt lat="50.80142" lon="2.48584">
        <ele>170.29</ele>
        <time>2017-08-04T08:23:31Z</time>
      </trkpt>
      <trkpt lat="50.80143" lon="2.48587">
        <ele>170.29</ele>
        <time>2017-08-04T08:23:32Z</time>
      </trkpt>
      <trkpt lat="50.80143" lon="2.48589">
        <ele>169.33</ele>
        <time>2017-08-04T08:23:33Z</time>
      </trkpt>
      <trkpt lat="50.80142" lon="2.48591">
        <ele>168.85</ele>
        <time>2017-08-04T08:23:34Z</time>
      </trkpt>
      <trkpt lat="50.80141" lon="2.48591">
        <ele>168.37</ele>
        <time>2017-08-04T08:23:35Z</time>
      </trkpt>
      <trkpt lat="50.80139" lon="2.48591">
        <ele>167.41</ele>
        <time>2017-08-04T08:23:36Z</time>
      </trkpt>
      <trkpt lat="50.80136" lon="2.4859">
        <ele>166.93</ele>
        <time>2017-08-04T08:23:37Z</time>
      </trkpt>
      <trkpt lat="50.80134" lon="2.4859">
        <ele>165.96</ele>
        <time>2017-08-04T08:23:38Z</time>
      </trkpt>
      <trkpt lat="50.80131" lon="2.4859">
        <ele>165.48</ele>
        <time>2017-08-04T08:23:39Z</time>
      </trkpt>
      <trkpt lat="50.80129" lon="2.48591">
        <ele>165</ele>
        <time>2017-08-04T08:23:40Z</time>
      </trkpt>
      <trkpt lat="50.80127" lon="2.48594">
        <ele>165</ele>
        <time>2017-08-04T08:23:41Z</time>
      </trkpt>
      <trkpt lat="50.80125" lon="2.48596">
        <ele>164.04</ele>
        <time>2017-08-04T08:23:42Z</time>
      </trkpt>
      <trkpt lat="50.80125" lon="2.48598">
        <ele>163.56</ele>
        <time>2017-08-04T08:23:43Z</time>
      </trkpt>
      <trkpt lat="50.80124" lon="2.48603">
        <ele>163.56</ele>
        <time>2017-08-04T08:23:46Z</time>
      </trkpt>
      <trkpt lat="50.80125" lon="2.48604">
        <ele>163.56</ele>
        <time>2017-08-04T08:23:47Z</time>
      </trkpt>
      <trkpt lat="50.80127" lon="2.48605">
        <ele>163.08</ele>
        <time>2017-08-04T08:23:48Z</time>
      </trkpt>
      <trkpt lat="50.80129" lon="2.48607">
        <ele>162.6</ele>
        <time>2017-08-04T08:23:49Z</time>
      </trkpt>
      <trkpt lat="50.80133" lon="2.4861">
        <ele>162.6</ele>
        <time>2017-08-04T08:23:50Z</time>
      </trkpt>
      <trkpt lat="50.80136" lon="2.48615">
        <ele>161.64</ele>
        <time>2017-08-04T08:23:51Z</time>
      </trkpt>
      <trkpt lat="50.80139" lon="2.4862">
        <ele>160.68</ele>
        <time>2017-08-04T08:23:52Z</time>
      </trkpt>
      <trkpt lat="50.80157" lon="2.48645">
        <ele>156.83</ele>
        <time>2017-08-04T08:23:57Z</time>
      </trkpt>
      <trkpt lat="50.80163" lon="2.48656">
        <ele>155.87</ele>
        <time>2017-08-04T08:24:00Z</time>
      </trkpt>
      <trkpt lat="50.80176" lon="2.48681">
        <ele>152.99</ele>
        <time>2017-08-04T08:24:07Z</time>
      </trkpt>
      <trkpt lat="50.80187" lon="2.48701">
        <ele>150.58</ele>
        <time>2017-08-04T08:24:10Z</time>
      </trkpt>
      <trkpt lat="50.8019" lon="2.48707">
        <ele>149.62</ele>
        <time>2017-08-04T08:24:11Z</time>
      </trkpt>
      <trkpt lat="50.80193" lon="2.48715">
        <ele>148.66</ele>
        <time>2017-08-04T08:24:12Z</time>
      </trkpt>
      <trkpt lat="50.80194" lon="2.48725">
        <ele>147.7</ele>
        <time>2017-08-04T08:24:13Z</time>
      </trkpt>
      <trkpt lat="50.80196" lon="2.48735">
        <ele>146.74</ele>
        <time>2017-08-04T08:24:14Z</time>
      </trkpt>
      <trkpt lat="50.80199" lon="2.48744">
        <ele>146.26</ele>
        <time>2017-08-04T08:24:15Z</time>
      </trkpt>
      <trkpt lat="50.80203" lon="2.48752">
        <ele>145.3</ele>
        <time>2017-08-04T08:24:16Z</time>
      </trkpt>
      <trkpt lat="50.80206" lon="2.4876">
        <ele>144.34</ele>
        <time>2017-08-04T08:24:17Z</time>
      </trkpt>
      <trkpt lat="50.8021" lon="2.48765">
        <ele>143.85</ele>
        <time>2017-08-04T08:24:18Z</time>
      </trkpt>
      <trkpt lat="50.80214" lon="2.48769">
        <ele>143.37</ele>
        <time>2017-08-04T08:24:19Z</time>
      </trkpt>
      <trkpt lat="50.80218" lon="2.48771">
        <ele>142.41</ele>
        <time>2017-08-04T08:24:20Z</time>
      </trkpt>
      <trkpt lat="50.80222" lon="2.4877">
        <ele>141.93</ele>
        <time>2017-08-04T08:24:21Z</time>
      </trkpt>
      <trkpt lat="50.80225" lon="2.48769">
        <ele>141.45</ele>
        <time>2017-08-04T08:24:22Z</time>
      </trkpt>
      <trkpt lat="50.80227" lon="2.4877">
        <ele>141.45</ele>
        <time>2017-08-04T08:24:23Z</time>
      </trkpt>
      <trkpt lat="50.80228" lon="2.48772">
        <ele>140.97</ele>
        <time>2017-08-04T08:24:24Z</time>
      </trkpt>
      <trkpt lat="50.8023" lon="2.48777">
        <ele>140.01</ele>
        <time>2017-08-04T08:24:25Z</time>
      </trkpt>
      <trkpt lat="50.80231" lon="2.48783">
        <ele>140.01</ele>
        <time>2017-08-04T08:24:26Z</time>
      </trkpt>
      <trkpt lat="50.80232" lon="2.48789">
        <ele>139.53</ele>
        <time>2017-08-04T08:24:27Z</time>
      </trkpt>
      <trkpt lat="50.80233" lon="2.48795">
        <ele>139.05</ele>
        <time>2017-08-04T08:24:28Z</time>
      </trkpt>
      <trkpt lat="50.80234" lon="2.48799">
        <ele>139.53</ele>
        <time>2017-08-04T08:24:29Z</time>
      </trkpt>
      <trkpt lat="50.80234" lon="2.48802">
        <ele>139.05</ele>
        <time>2017-08-04T08:24:30Z</time>
      </trkpt>
      <trkpt lat="50.80234" lon="2.48806">
        <ele>139.05</ele>
        <time>2017-08-04T08:24:32Z</time>
      </trkpt>
      <trkpt lat="50.80242" lon="2.48816">
        <ele>138.57</ele>
        <time>2017-08-04T08:24:38Z</time>
      </trkpt>
      <trkpt lat="50.80245" lon="2.48815">
        <ele>138.57</ele>
        <time>2017-08-04T08:24:39Z</time>
      </trkpt>
      <trkpt lat="50.80247" lon="2.48814">
        <ele>138.57</ele>
        <time>2017-08-04T08:24:40Z</time>
      </trkpt>
      <trkpt lat="50.8025" lon="2.48811">
        <ele>138.57</ele>
        <time>2017-08-04T08:24:41Z</time>
      </trkpt>
      <trkpt lat="50.80253" lon="2.48807">
        <ele>138.57</ele>
        <time>2017-08-04T08:24:42Z</time>
      </trkpt>
      <trkpt lat="50.80256" lon="2.48802">
        <ele>138.09</ele>
        <time>2017-08-04T08:24:43Z</time>
      </trkpt>
      <trkpt lat="50.80259" lon="2.48796">
        <ele>138.09</ele>
        <time>2017-08-04T08:24:44Z</time>
      </trkpt>
      <trkpt lat="50.80261" lon="2.48791">
        <ele>138.09</ele>
        <time>2017-08-04T08:24:45Z</time>
      </trkpt>
      <trkpt lat="50.80262" lon="2.48786">
        <ele>138.09</ele>
        <time>2017-08-04T08:24:46Z</time>
      </trkpt>
      <trkpt lat="50.80262" lon="2.48783">
        <ele>138.09</ele>
        <time>2017-08-04T08:24:47Z</time>
      </trkpt>
      <trkpt lat="50.80262" lon="2.48781">
        <ele>138.09</ele>
        <time>2017-08-04T08:24:48Z</time>
      </trkpt>
      <trkpt lat="50.8026" lon="2.4878">
        <ele>138.09</ele>
        <time>2017-08-04T08:24:49Z</time>
      </trkpt>
      <trkpt lat="50.80257" lon="2.48781">
        <ele>138.09</ele>
        <time>2017-08-04T08:24:50Z</time>
      </trkpt>
      <trkpt lat="50.80256" lon="2.48784">
        <ele>138.09</ele>
        <time>2017-08-04T08:24:51Z</time>
      </trkpt>
      <trkpt lat="50.80255" lon="2.48787">
        <ele>138.09</ele>
        <time>2017-08-04T08:24:52Z</time>
      </trkpt>
      <trkpt lat="50.80255" lon="2.48791">
        <ele>138.09</ele>
        <time>2017-08-04T08:24:53Z</time>
      </trkpt>
      <trkpt lat="50.80254" lon="2.48795">
        <ele>138.09</ele>
        <time>2017-08-04T08:24:54Z</time>
      </trkpt>
      <trkpt lat="50.80253" lon="2.48799">
        <ele>138.09</ele>
        <time>2017-08-04T08:24:55Z</time>
      </trkpt>
      <trkpt lat="50.80252" lon="2.48803">
        <ele>138.09</ele>
        <time>2017-08-04T08:24:56Z</time>
      </trkpt>
      <trkpt lat="50.8025" lon="2.48806">
        <ele>138.09</ele>
        <time>2017-08-04T08:24:57Z</time>
      </trkpt>
      <trkpt lat="50.80249" lon="2.48809">
        <ele>138.09</ele>
        <time>2017-08-04T08:24:58Z</time>
      </trkpt>
      <trkpt lat="50.80247" lon="2.48811">
        <ele>138.09</ele>
        <time>2017-08-04T08:24:59Z</time>
      </trkpt>
      <trkpt lat="50.80241" lon="2.48823">
        <ele>138.09</ele>
        <time>2017-08-04T08:25:04Z</time>
      </trkpt>
      <trkpt lat="50.80242" lon="2.48827">
        <ele>138.09</ele>
        <time>2017-08-04T08:25:05Z</time>
      </trkpt>
      <trkpt lat="50.80242" lon="2.4883">
        <ele>138.09</ele>
        <time>2017-08-04T08:25:06Z</time>
      </trkpt>
      <trkpt lat="50.80243" lon="2.48832">
        <ele>138.09</ele>
        <time>2017-08-04T08:25:07Z</time>
      </trkpt>
      <trkpt lat="50.80244" lon="2.48835">
        <ele>137.61</ele>
        <time>2017-08-04T08:25:08Z</time>
      </trkpt>
      <trkpt lat="50.80245" lon="2.48836">
        <ele>137.13</ele>
        <time>2017-08-04T08:25:09Z</time>
      </trkpt>
      <trkpt lat="50.80246" lon="2.48838">
        <ele>137.13</ele>
        <time>2017-08-04T08:25:10Z</time>
      </trkpt>
      <trkpt lat="50.80247" lon="2.4884">
        <ele>136.64</ele>
        <time>2017-08-04T08:25:11Z</time>
      </trkpt>
      <trkpt lat="50.80248" lon="2.48841">
        <ele>136.64</ele>
        <time>2017-08-04T08:25:12Z</time>
      </trkpt>
      <trkpt lat="50.80249" lon="2.48844">
        <ele>135.68</ele>
        <time>2017-08-04T08:25:13Z</time>
      </trkpt>
      <trkpt lat="50.8025" lon="2.48846">
        <ele>135.2</ele>
        <time>2017-08-04T08:25:14Z</time>
      </trkpt>
      <trkpt lat="50.80251" lon="2.48846">
        <ele>134.72</ele>
        <time>2017-08-04T08:25:15Z</time>
      </trkpt>
      <trkpt lat="50.80253" lon="2.48847">
        <ele>134.72</ele>
        <time>2017-08-04T08:25:16Z</time>
      </trkpt>
      <trkpt lat="50.80254" lon="2.48849">
        <ele>134.24</ele>
        <time>2017-08-04T08:25:25Z</time>
      </trkpt>
      <trkpt lat="50.80264" lon="2.4885">
        <ele>130.88</ele>
        <time>2017-08-04T08:25:39Z</time>
      </trkpt>
      <trkpt lat="50.80272" lon="2.48846">
        <ele>127.51</ele>
        <time>2017-08-04T08:25:49Z</time>
      </trkpt>
      <trkpt lat="50.80279" lon="2.48839">
        <ele>125.59</ele>
        <time>2017-08-04T08:26:02Z</time>
      </trkpt>
      <trkpt lat="50.8028" lon="2.48841">
        <ele>125.11</ele>
        <time>2017-08-04T08:26:24Z</time>
      </trkpt>
      <trkpt lat="50.8028" lon="2.48843">
        <ele>124.63</ele>
        <time>2017-08-04T08:26:39Z</time>
      </trkpt>
      <trkpt lat="50.80281" lon="2.48845">
        <ele>124.15</ele>
        <time>2017-08-04T08:26:40Z</time>
      </trkpt>
      <trkpt lat="50.80285" lon="2.4885">
        <ele>122.71</ele>
        <time>2017-08-04T08:26:42Z</time>
      </trkpt>
      <trkpt lat="50.80288" lon="2.48851">
        <ele>122.71</ele>
        <time>2017-08-04T08:26:53Z</time>
      </trkpt>
      <trkpt lat="50.8029" lon="2.4885">
        <ele>122.71</ele>
        <time>2017-08-04T08:26:59Z</time>
      </trkpt>
      <trkpt lat="50.80293" lon="2.48847">
        <ele>121.74</ele>
        <time>2017-08-04T08:27:00Z</time>
      </trkpt>
      <trkpt lat="50.80296" lon="2.48843">
        <ele>121.26</ele>
        <time>2017-08-04T08:27:01Z</time>
      </trkpt>
      <trkpt lat="50.80298" lon="2.48839">
        <ele>120.3</ele>
        <time>2017-08-04T08:27:02Z</time>
      </trkpt>
      <trkpt lat="50.80301" lon="2.48835">
        <ele>119.82</ele>
        <time>2017-08-04T08:27:03Z</time>
      </trkpt>
      <trkpt lat="50.80305" lon="2.48832">
        <ele>119.34</ele>
        <time>2017-08-04T08:27:04Z</time>
      </trkpt>
      <trkpt lat="50.80308" lon="2.4883">
        <ele>117.9</ele>
        <time>2017-08-04T08:27:05Z</time>
      </trkpt>
      <trkpt lat="50.80312" lon="2.48829">
        <ele>116.94</ele>
        <time>2017-08-04T08:27:06Z</time>
      </trkpt>
      <trkpt lat="50.80316" lon="2.48828">
        <ele>116.94</ele>
        <time>2017-08-04T08:27:07Z</time>
      </trkpt>
      <trkpt lat="50.80319" lon="2.48827">
        <ele>115.98</ele>
        <time>2017-08-04T08:27:08Z</time>
      </trkpt>
      <trkpt lat="50.80322" lon="2.48827">
        <ele>115.5</ele>
        <time>2017-08-04T08:27:09Z</time>
      </trkpt>
      <trkpt lat="50.80325" lon="2.48827">
        <ele>115.01</ele>
        <time>2017-08-04T08:27:10Z</time>
      </trkpt>
      <trkpt lat="50.80341" lon="2.48821">
        <ele>112.13</ele>
        <time>2017-08-04T08:27:14Z</time>
      </trkpt>
      <trkpt lat="50.80346" lon="2.48818">
        <ele>111.17</ele>
        <time>2017-08-04T08:27:15Z</time>
      </trkpt>
      <trkpt lat="50.80351" lon="2.48817">
        <ele>111.17</ele>
        <time>2017-08-04T08:27:16Z</time>
      </trkpt>
      <trkpt lat="50.80356" lon="2.48816">
        <ele>110.21</ele>
        <time>2017-08-04T08:27:17Z</time>
      </trkpt>
      <trkpt lat="50.80361" lon="2.48815">
        <ele>110.21</ele>
        <time>2017-08-04T08:27:18Z</time>
      </trkpt>
      <trkpt lat="50.80367" lon="2.48814">
        <ele>109.73</ele>
        <time>2017-08-04T08:27:19Z</time>
      </trkpt>
      <trkpt lat="50.80373" lon="2.48812">
        <ele>109.25</ele>
        <time>2017-08-04T08:27:20Z</time>
      </trkpt>
      <trkpt lat="50.80385" lon="2.48808">
        <ele>108.77</ele>
        <time>2017-08-04T08:27:22Z</time>
      </trkpt>
      <trkpt lat="50.80396" lon="2.48804">
        <ele>108.77</ele>
        <time>2017-08-04T08:27:24Z</time>
      </trkpt>
      <trkpt lat="50.804" lon="2.48801">
        <ele>108.77</ele>
        <time>2017-08-04T08:27:25Z</time>
      </trkpt>
      <trkpt lat="50.80411" lon="2.48793">
        <ele>107.81</ele>
        <time>2017-08-04T08:27:28Z</time>
      </trkpt>
      <trkpt lat="50.80415" lon="2.48795">
        <ele>107.32</ele>
        <time>2017-08-04T08:27:29Z</time>
      </trkpt>
      <trkpt lat="50.80419" lon="2.48797">
        <ele>106.36</ele>
        <time>2017-08-04T08:27:30Z</time>
      </trkpt>
      <trkpt lat="50.80423" lon="2.48799">
        <ele>104.92</ele>
        <time>2017-08-04T08:27:31Z</time>
      </trkpt>
      <trkpt lat="50.80427" lon="2.48802">
        <ele>104.44</ele>
        <time>2017-08-04T08:27:32Z</time>
      </trkpt>
      <trkpt lat="50.80444" lon="2.48814">
        <ele>100.6</ele>
        <time>2017-08-04T08:27:36Z</time>
      </trkpt>
      <trkpt lat="50.80458" lon="2.48823">
        <ele>98.67</ele>
        <time>2017-08-04T08:27:40Z</time>
      </trkpt>
      <trkpt lat="50.80485" lon="2.4883">
        <ele>95.31</ele>
        <time>2017-08-04T08:27:48Z</time>
      </trkpt>
      <trkpt lat="50.80522" lon="2.4884">
        <ele>92.42</ele>
        <time>2017-08-04T08:27:54Z</time>
      </trkpt>
      <trkpt lat="50.8056" lon="2.48852">
        <ele>88.58</ele>
        <time>2017-08-04T08:27:59Z</time>
      </trkpt>
      <trkpt lat="50.80588" lon="2.48861">
        <ele>86.66</ele>
        <time>2017-08-04T08:28:02Z</time>
      </trkpt>
      <trkpt lat="50.80623" lon="2.48878">
        <ele>83.29</ele>
        <time>2017-08-04T08:28:06Z</time>
      </trkpt>
      <trkpt lat="50.80651" lon="2.48898">
        <ele>79.45</ele>
        <time>2017-08-04T08:28:09Z</time>
      </trkpt>
      <trkpt lat="50.80682" lon="2.48918">
        <ele>76.56</ele>
        <time>2017-08-04T08:28:12Z</time>
      </trkpt>
      <trkpt lat="50.80693" lon="2.48923">
        <ele>76.08</ele>
        <time>2017-08-04T08:28:13Z</time>
      </trkpt>
      <trkpt lat="50.80715" lon="2.48932">
        <ele>75.12</ele>
        <time>2017-08-04T08:28:15Z</time>
      </trkpt>
      <trkpt lat="50.80777" lon="2.48955">
        <ele>73.2</ele>
        <time>2017-08-04T08:28:22Z</time>
      </trkpt>
      <trkpt lat="50.80785" lon="2.48957">
        <ele>73.2</ele>
        <time>2017-08-04T08:28:23Z</time>
      </trkpt>
      <trkpt lat="50.80821" lon="2.48957">
        <ele>75.6</ele>
        <time>2017-08-04T08:28:29Z</time>
      </trkpt>
      <trkpt lat="50.80823" lon="2.48958">
        <ele>76.08</ele>
        <time>2017-08-04T08:28:30Z</time>
      </trkpt>
      <trkpt lat="50.80824" lon="2.4896">
        <ele>76.08</ele>
        <time>2017-08-04T08:28:31Z</time>
      </trkpt>
      <trkpt lat="50.80826" lon="2.48962">
        <ele>76.56</ele>
        <time>2017-08-04T08:28:32Z</time>
      </trkpt>
      <trkpt lat="50.80828" lon="2.48962">
        <ele>76.56</ele>
        <time>2017-08-04T08:28:33Z</time>
      </trkpt>
      <trkpt lat="50.80831" lon="2.48961">
        <ele>77.04</ele>
        <time>2017-08-04T08:28:34Z</time>
      </trkpt>
      <trkpt lat="50.80833" lon="2.48958">
        <ele>77.04</ele>
        <time>2017-08-04T08:28:35Z</time>
      </trkpt>
      <trkpt lat="50.80835" lon="2.48956">
        <ele>77.04</ele>
        <time>2017-08-04T08:28:36Z</time>
      </trkpt>
      <trkpt lat="50.80836" lon="2.48953">
        <ele>77.04</ele>
        <time>2017-08-04T08:28:37Z</time>
      </trkpt>
      <trkpt lat="50.80838" lon="2.48951">
        <ele>77.04</ele>
        <time>2017-08-04T08:28:38Z</time>
      </trkpt>
      <trkpt lat="50.8084" lon="2.4895">
        <ele>77.04</ele>
        <time>2017-08-04T08:28:39Z</time>
      </trkpt>
      <trkpt lat="50.80876" lon="2.48949">
        <ele>76.08</ele>
        <time>2017-08-04T08:28:51Z</time>
      </trkpt>
      <trkpt lat="50.80911" lon="2.48955">
        <ele>76.56</ele>
        <time>2017-08-04T08:29:03Z</time>
      </trkpt>
      <trkpt lat="50.80939" lon="2.4897">
        <ele>78.48</ele>
        <time>2017-08-04T08:29:18Z</time>
      </trkpt>
      <trkpt lat="50.80959" lon="2.48992">
        <ele>80.41</ele>
        <time>2017-08-04T08:29:32Z</time>
      </trkpt>
      <trkpt lat="50.80979" lon="2.49013">
        <ele>81.85</ele>
        <time>2017-08-04T08:29:45Z</time>
      </trkpt>
      <trkpt lat="50.81001" lon="2.4905">
        <ele>82.81</ele>
        <time>2017-08-04T08:29:59Z</time>
      </trkpt>
      <trkpt lat="50.81009" lon="2.4907">
        <ele>82.81</ele>
        <time>2017-08-04T08:30:03Z</time>
      </trkpt>
      <trkpt lat="50.81012" lon="2.49076">
        <ele>82.81</ele>
        <time>2017-08-04T08:30:04Z</time>
      </trkpt>
      <trkpt lat="50.81021" lon="2.4909">
        <ele>82.81</ele>
        <time>2017-08-04T08:30:07Z</time>
      </trkpt>
      <trkpt lat="50.81078" lon="2.49142">
        <ele>79.45</ele>
        <time>2017-08-04T08:30:18Z</time>
      </trkpt>
      <trkpt lat="50.81092" lon="2.4915">
        <ele>78</ele>
        <time>2017-08-04T08:30:20Z</time>
      </trkpt>
      <trkpt lat="50.81135" lon="2.49176">
        <ele>74.16</ele>
        <time>2017-08-04T08:30:25Z</time>
      </trkpt>
      <trkpt lat="50.81176" lon="2.49202">
        <ele>70.79</ele>
        <time>2017-08-04T08:30:29Z</time>
      </trkpt>
      <trkpt lat="50.81215" lon="2.49235">
        <ele>67.91</ele>
        <time>2017-08-04T08:30:33Z</time>
      </trkpt>
      <trkpt lat="50.81255" lon="2.49277">
        <ele>64.07</ele>
        <time>2017-08-04T08:30:37Z</time>
      </trkpt>
      <trkpt lat="50.81277" lon="2.49302">
        <ele>63.1</ele>
        <time>2017-08-04T08:30:39Z</time>
      </trkpt>
      <trkpt lat="50.81285" lon="2.49313">
        <ele>62.14</ele>
        <time>2017-08-04T08:30:40Z</time>
      </trkpt>
      <trkpt lat="50.81294" lon="2.49327">
        <ele>61.66</ele>
        <time>2017-08-04T08:30:41Z</time>
      </trkpt>
      <trkpt lat="50.81304" lon="2.49347">
        <ele>60.7</ele>
        <time>2017-08-04T08:30:42Z</time>
      </trkpt>
      <trkpt lat="50.81341" lon="2.49425">
        <ele>56.86</ele>
        <time>2017-08-04T08:30:47Z</time>
      </trkpt>
      <trkpt lat="50.81381" lon="2.49506">
        <ele>54.45</ele>
        <time>2017-08-04T08:30:52Z</time>
      </trkpt>
      <trkpt lat="50.8141" lon="2.49572">
        <ele>51.09</ele>
        <time>2017-08-04T08:30:56Z</time>
      </trkpt>
      <trkpt lat="50.81423" lon="2.49606">
        <ele>50.61</ele>
        <time>2017-08-04T08:30:58Z</time>
      </trkpt>
      <trkpt lat="50.81446" lon="2.49674">
        <ele>48.68</ele>
        <time>2017-08-04T08:31:02Z</time>
      </trkpt>
      <trkpt lat="50.81458" lon="2.49705">
        <ele>47.72</ele>
        <time>2017-08-04T08:31:04Z</time>
      </trkpt>
      <trkpt lat="50.81466" lon="2.49719">
        <ele>47.24</ele>
        <time>2017-08-04T08:31:05Z</time>
      </trkpt>
      <trkpt lat="50.81475" lon="2.49732">
        <ele>46.76</ele>
        <time>2017-08-04T08:31:06Z</time>
      </trkpt>
      <trkpt lat="50.81551" lon="2.49843">
        <ele>43.88</ele>
        <time>2017-08-04T08:31:15Z</time>
      </trkpt>
      <trkpt lat="50.81604" lon="2.49994">
        <ele>41.47</ele>
        <time>2017-08-04T08:31:25Z</time>
      </trkpt>
      <trkpt lat="50.81639" lon="2.50093">
        <ele>44.84</ele>
        <time>2017-08-04T08:31:33Z</time>
      </trkpt>
      <trkpt lat="50.81652" lon="2.50137">
        <ele>47.24</ele>
        <time>2017-08-04T08:31:38Z</time>
      </trkpt>
      <trkpt lat="50.81655" lon="2.50144">
        <ele>47.72</ele>
        <time>2017-08-04T08:31:39Z</time>
      </trkpt>
      <trkpt lat="50.81675" lon="2.50212">
        <ele>50.61</ele>
        <time>2017-08-04T08:31:52Z</time>
      </trkpt>
      <trkpt lat="50.81698" lon="2.50275">
        <ele>52.53</ele>
        <time>2017-08-04T08:32:07Z</time>
      </trkpt>
      <trkpt lat="50.81697" lon="2.5028">
        <ele>52.53</ele>
        <time>2017-08-04T08:32:08Z</time>
      </trkpt>
      <trkpt lat="50.81696" lon="2.50283">
        <ele>52.53</ele>
        <time>2017-08-04T08:32:09Z</time>
      </trkpt>
      <trkpt lat="50.81693" lon="2.50285">
        <ele>52.53</ele>
        <time>2017-08-04T08:32:10Z</time>
      </trkpt>
      <trkpt lat="50.81691" lon="2.50287">
        <ele>52.53</ele>
        <time>2017-08-04T08:32:11Z</time>
      </trkpt>
      <trkpt lat="50.81688" lon="2.50288">
        <ele>52.53</ele>
        <time>2017-08-04T08:32:12Z</time>
      </trkpt>
      <trkpt lat="50.81685" lon="2.5029">
        <ele>52.53</ele>
        <time>2017-08-04T08:32:13Z</time>
      </trkpt>
      <trkpt lat="50.81638" lon="2.50321">
        <ele>54.45</ele>
        <time>2017-08-04T08:32:29Z</time>
      </trkpt>
      <trkpt lat="50.81589" lon="2.50358">
        <ele>55.41</ele>
        <time>2017-08-04T08:32:47Z</time>
      </trkpt>
      <trkpt lat="50.81539" lon="2.50397">
        <ele>56.86</ele>
        <time>2017-08-04T08:33:06Z</time>
      </trkpt>
      <trkpt lat="50.81499" lon="2.50421">
        <ele>58.78</ele>
        <time>2017-08-04T08:33:21Z</time>
      </trkpt>
      <trkpt lat="50.81457" lon="2.50447">
        <ele>60.7</ele>
        <time>2017-08-04T08:33:40Z</time>
      </trkpt>
      <trkpt lat="50.81418" lon="2.50469">
        <ele>62.14</ele>
        <time>2017-08-04T08:33:57Z</time>
      </trkpt>
      <trkpt lat="50.81387" lon="2.50498">
        <ele>63.58</ele>
        <time>2017-08-04T08:34:12Z</time>
      </trkpt>
      <trkpt lat="50.81357" lon="2.50513">
        <ele>65.99</ele>
        <time>2017-08-04T08:34:27Z</time>
      </trkpt>
      <trkpt lat="50.81327" lon="2.50524">
        <ele>67.91</ele>
        <time>2017-08-04T08:34:41Z</time>
      </trkpt>
      <trkpt lat="50.81292" lon="2.50536">
        <ele>69.35</ele>
        <time>2017-08-04T08:34:59Z</time>
      </trkpt>
      <trkpt lat="50.81258" lon="2.50547">
        <ele>71.76</ele>
        <time>2017-08-04T08:35:17Z</time>
      </trkpt>
      <trkpt lat="50.81235" lon="2.50583">
        <ele>74.16</ele>
        <time>2017-08-04T08:35:34Z</time>
      </trkpt>
      <trkpt lat="50.81216" lon="2.5062">
        <ele>75.6</ele>
        <time>2017-08-04T08:35:50Z</time>
      </trkpt>
      <trkpt lat="50.81191" lon="2.50647">
        <ele>77.04</ele>
        <time>2017-08-04T08:36:07Z</time>
      </trkpt>
      <trkpt lat="50.81169" lon="2.50662">
        <ele>79.45</ele>
        <time>2017-08-04T08:36:22Z</time>
      </trkpt>
      <trkpt lat="50.81143" lon="2.50682">
        <ele>81.37</ele>
        <time>2017-08-04T08:36:40Z</time>
      </trkpt>
      <trkpt lat="50.8112" lon="2.50703">
        <ele>82.81</ele>
        <time>2017-08-04T08:36:57Z</time>
      </trkpt>
      <trkpt lat="50.81092" lon="2.50721">
        <ele>85.21</ele>
        <time>2017-08-04T08:37:13Z</time>
      </trkpt>
      <trkpt lat="50.8106" lon="2.5075">
        <ele>83.77</ele>
        <time>2017-08-04T08:37:26Z</time>
      </trkpt>
      <trkpt lat="50.81044" lon="2.50766">
        <ele>81.85</ele>
        <time>2017-08-04T08:37:30Z</time>
      </trkpt>
      <trkpt lat="50.8104" lon="2.5077">
        <ele>81.85</ele>
        <time>2017-08-04T08:37:31Z</time>
      </trkpt>
      <trkpt lat="50.81035" lon="2.50776">
        <ele>81.85</ele>
        <time>2017-08-04T08:37:32Z</time>
      </trkpt>
      <trkpt lat="50.81026" lon="2.50788">
        <ele>81.37</ele>
        <time>2017-08-04T08:37:34Z</time>
      </trkpt>
      <trkpt lat="50.8099" lon="2.50833">
        <ele>78.48</ele>
        <time>2017-08-04T08:37:41Z</time>
      </trkpt>
      <trkpt lat="50.80926" lon="2.50932">
        <ele>76.56</ele>
        <time>2017-08-04T08:37:54Z</time>
      </trkpt>
      <trkpt lat="50.80896" lon="2.50968">
        <ele>78</ele>
        <time>2017-08-04T08:38:01Z</time>
      </trkpt>
      <trkpt lat="50.80893" lon="2.50973">
        <ele>78</ele>
        <time>2017-08-04T08:38:02Z</time>
      </trkpt>
      <trkpt lat="50.80849" lon="2.51009">
        <ele>78.97</ele>
        <time>2017-08-04T08:38:16Z</time>
      </trkpt>
      <trkpt lat="50.80809" lon="2.51038">
        <ele>80.89</ele>
        <time>2017-08-04T08:38:32Z</time>
      </trkpt>
      <trkpt lat="50.8077" lon="2.51062">
        <ele>81.37</ele>
        <time>2017-08-04T08:38:46Z</time>
      </trkpt>
      <trkpt lat="50.80743" lon="2.51096">
        <ele>82.81</ele>
        <time>2017-08-04T08:38:58Z</time>
      </trkpt>
      <trkpt lat="50.80741" lon="2.51102">
        <ele>82.81</ele>
        <time>2017-08-04T08:38:59Z</time>
      </trkpt>
      <trkpt lat="50.80739" lon="2.51108">
        <ele>82.81</ele>
        <time>2017-08-04T08:39:00Z</time>
      </trkpt>
      <trkpt lat="50.80735" lon="2.51123">
        <ele>81.37</ele>
        <time>2017-08-04T08:39:02Z</time>
      </trkpt>
      <trkpt lat="50.80722" lon="2.51198">
        <ele>78.48</ele>
        <time>2017-08-04T08:39:10Z</time>
      </trkpt>
      <trkpt lat="50.80711" lon="2.51254">
        <ele>76.08</ele>
        <time>2017-08-04T08:39:15Z</time>
      </trkpt>
      <trkpt lat="50.80707" lon="2.51264">
        <ele>76.08</ele>
        <time>2017-08-04T08:39:16Z</time>
      </trkpt>
      <trkpt lat="50.80703" lon="2.51275">
        <ele>75.12</ele>
        <time>2017-08-04T08:39:17Z</time>
      </trkpt>
      <trkpt lat="50.80697" lon="2.51283">
        <ele>75.12</ele>
        <time>2017-08-04T08:39:18Z</time>
      </trkpt>
      <trkpt lat="50.8069" lon="2.51291">
        <ele>74.16</ele>
        <time>2017-08-04T08:39:19Z</time>
      </trkpt>
      <trkpt lat="50.80684" lon="2.51297">
        <ele>74.64</ele>
        <time>2017-08-04T08:39:20Z</time>
      </trkpt>
      <trkpt lat="50.80676" lon="2.51303">
        <ele>74.16</ele>
        <time>2017-08-04T08:39:21Z</time>
      </trkpt>
      <trkpt lat="50.8067" lon="2.51307">
        <ele>74.16</ele>
        <time>2017-08-04T08:39:22Z</time>
      </trkpt>
      <trkpt lat="50.80636" lon="2.51327">
        <ele>72.24</ele>
        <time>2017-08-04T08:39:27Z</time>
      </trkpt>
      <trkpt lat="50.80592" lon="2.51345">
        <ele>72.72</ele>
        <time>2017-08-04T08:39:34Z</time>
      </trkpt>
      <trkpt lat="50.80586" lon="2.51345">
        <ele>72.72</ele>
        <time>2017-08-04T08:39:35Z</time>
      </trkpt>
      <trkpt lat="50.8058" lon="2.51344">
        <ele>72.72</ele>
        <time>2017-08-04T08:39:36Z</time>
      </trkpt>
      <trkpt lat="50.80575" lon="2.51344">
        <ele>72.72</ele>
        <time>2017-08-04T08:39:37Z</time>
      </trkpt>
      <trkpt lat="50.8057" lon="2.51345">
        <ele>72.72</ele>
        <time>2017-08-04T08:39:38Z</time>
      </trkpt>
      <trkpt lat="50.80565" lon="2.51347">
        <ele>72.72</ele>
        <time>2017-08-04T08:39:39Z</time>
      </trkpt>
      <trkpt lat="50.80561" lon="2.51351">
        <ele>72.72</ele>
        <time>2017-08-04T08:39:40Z</time>
      </trkpt>
      <trkpt lat="50.80558" lon="2.51355">
        <ele>72.72</ele>
        <time>2017-08-04T08:39:41Z</time>
      </trkpt>
      <trkpt lat="50.80555" lon="2.51361">
        <ele>74.16</ele>
        <time>2017-08-04T08:39:42Z</time>
      </trkpt>
      <trkpt lat="50.80553" lon="2.51366">
        <ele>74.16</ele>
        <time>2017-08-04T08:39:43Z</time>
      </trkpt>
      <trkpt lat="50.8055" lon="2.51372">
        <ele>74.16</ele>
        <time>2017-08-04T08:39:44Z</time>
      </trkpt>
      <trkpt lat="50.8052" lon="2.51448">
        <ele>77.52</ele>
        <time>2017-08-04T08:40:00Z</time>
      </trkpt>
      <trkpt lat="50.80474" lon="2.51518">
        <ele>77.52</ele>
        <time>2017-08-04T08:40:17Z</time>
      </trkpt>
      <trkpt lat="50.8046" lon="2.51536">
        <ele>77.52</ele>
        <time>2017-08-04T08:40:21Z</time>
      </trkpt>
      <trkpt lat="50.80448" lon="2.51544">
        <ele>77.52</ele>
        <time>2017-08-04T08:40:24Z</time>
      </trkpt>
      <trkpt lat="50.80444" lon="2.51545">
        <ele>77.52</ele>
        <time>2017-08-04T08:40:25Z</time>
      </trkpt>
      <trkpt lat="50.80427" lon="2.51548">
        <ele>77.52</ele>
        <time>2017-08-04T08:40:29Z</time>
      </trkpt>
      <trkpt lat="50.80423" lon="2.51548">
        <ele>77.52</ele>
        <time>2017-08-04T08:40:30Z</time>
      </trkpt>
      <trkpt lat="50.80411" lon="2.51544">
        <ele>77.52</ele>
        <time>2017-08-04T08:40:33Z</time>
      </trkpt>
      <trkpt lat="50.80407" lon="2.51544">
        <ele>77.52</ele>
        <time>2017-08-04T08:40:34Z</time>
      </trkpt>
      <trkpt lat="50.80402" lon="2.51544">
        <ele>77.52</ele>
        <time>2017-08-04T08:40:35Z</time>
      </trkpt>
      <trkpt lat="50.80374" lon="2.5154">
        <ele>78</ele>
        <time>2017-08-04T08:40:43Z</time>
      </trkpt>
      <trkpt lat="50.8037" lon="2.51541">
        <ele>78</ele>
        <time>2017-08-04T08:40:44Z</time>
      </trkpt>
      <trkpt lat="50.80353" lon="2.51543">
        <ele>78</ele>
        <time>2017-08-04T08:40:53Z</time>
      </trkpt>
      <trkpt lat="50.80352" lon="2.51544">
        <ele>78</ele>
        <time>2017-08-04T08:40:56Z</time>
      </trkpt>
      <trkpt lat="50.80352" lon="2.51547">
        <ele>78</ele>
        <time>2017-08-04T08:40:57Z</time>
      </trkpt>
      <trkpt lat="50.80352" lon="2.51549">
        <ele>78</ele>
        <time>2017-08-04T08:40:58Z</time>
      </trkpt>
      <trkpt lat="50.80354" lon="2.51569">
        <ele>76.56</ele>
        <time>2017-08-04T08:41:02Z</time>
      </trkpt>
      <trkpt lat="50.80356" lon="2.5158">
        <ele>76.08</ele>
        <time>2017-08-04T08:41:04Z</time>
      </trkpt>
      <trkpt lat="50.80361" lon="2.516">
        <ele>75.12</ele>
        <time>2017-08-04T08:41:07Z</time>
      </trkpt>
      <trkpt lat="50.80361" lon="2.51607">
        <ele>75.12</ele>
        <time>2017-08-04T08:41:08Z</time>
      </trkpt>
      <trkpt lat="50.80359" lon="2.51613">
        <ele>74.16</ele>
        <time>2017-08-04T08:41:09Z</time>
      </trkpt>
      <trkpt lat="50.80356" lon="2.51617">
        <ele>74.16</ele>
        <time>2017-08-04T08:41:10Z</time>
      </trkpt>
      <trkpt lat="50.80353" lon="2.51618">
        <ele>74.16</ele>
        <time>2017-08-04T08:41:11Z</time>
      </trkpt>
      <trkpt lat="50.80349" lon="2.5162">
        <ele>74.16</ele>
        <time>2017-08-04T08:41:12Z</time>
      </trkpt>
      <trkpt lat="50.80315" lon="2.51635">
        <ele>70.79</ele>
        <time>2017-08-04T08:41:19Z</time>
      </trkpt>
      <trkpt lat="50.80303" lon="2.51668">
        <ele>68.87</ele>
        <time>2017-08-04T08:41:26Z</time>
      </trkpt>
      <trkpt lat="50.80287" lon="2.51743">
        <ele>65.51</ele>
        <time>2017-08-04T08:41:35Z</time>
      </trkpt>
      <trkpt lat="50.80286" lon="2.51752">
        <ele>65.99</ele>
        <time>2017-08-04T08:41:36Z</time>
      </trkpt>
      <trkpt lat="50.80285" lon="2.51761">
        <ele>65.99</ele>
        <time>2017-08-04T08:41:37Z</time>
      </trkpt>
      <trkpt lat="50.80285" lon="2.51778">
        <ele>65.03</ele>
        <time>2017-08-04T08:41:39Z</time>
      </trkpt>
      <trkpt lat="50.80285" lon="2.51786">
        <ele>65.03</ele>
        <time>2017-08-04T08:41:40Z</time>
      </trkpt>
      <trkpt lat="50.80286" lon="2.51834">
        <ele>65.03</ele>
        <time>2017-08-04T08:41:46Z</time>
      </trkpt>
      <trkpt lat="50.80312" lon="2.51952">
        <ele>62.14</ele>
        <time>2017-08-04T08:42:01Z</time>
      </trkpt>
      <trkpt lat="50.8032" lon="2.5202">
        <ele>61.18</ele>
        <time>2017-08-04T08:42:08Z</time>
      </trkpt>
      <trkpt lat="50.80318" lon="2.52032">
        <ele>59.74</ele>
        <time>2017-08-04T08:42:09Z</time>
      </trkpt>
      <trkpt lat="50.80315" lon="2.5204">
        <ele>60.22</ele>
        <time>2017-08-04T08:42:10Z</time>
      </trkpt>
      <trkpt lat="50.80312" lon="2.5205">
        <ele>59.26</ele>
        <time>2017-08-04T08:42:11Z</time>
      </trkpt>
      <trkpt lat="50.80308" lon="2.52059">
        <ele>59.26</ele>
        <time>2017-08-04T08:42:12Z</time>
      </trkpt>
      <trkpt lat="50.80294" lon="2.52098">
        <ele>57.34</ele>
        <time>2017-08-04T08:42:16Z</time>
      </trkpt>
      <trkpt lat="50.80291" lon="2.52111">
        <ele>56.37</ele>
        <time>2017-08-04T08:42:17Z</time>
      </trkpt>
      <trkpt lat="50.8029" lon="2.52121">
        <ele>55.89</ele>
        <time>2017-08-04T08:42:18Z</time>
      </trkpt>
      <trkpt lat="50.80289" lon="2.52136">
        <ele>55.41</ele>
        <time>2017-08-04T08:42:19Z</time>
      </trkpt>
      <trkpt lat="50.80288" lon="2.52146">
        <ele>54.93</ele>
        <time>2017-08-04T08:42:20Z</time>
      </trkpt>
      <trkpt lat="50.80283" lon="2.52224">
        <ele>51.57</ele>
        <time>2017-08-04T08:42:26Z</time>
      </trkpt>
      <trkpt lat="50.80279" lon="2.52355">
        <ele>48.2</ele>
        <time>2017-08-04T08:42:36Z</time>
      </trkpt>
      <trkpt lat="50.80283" lon="2.52509">
        <ele>45.8</ele>
        <time>2017-08-04T08:42:50Z</time>
      </trkpt>
      <trkpt lat="50.80287" lon="2.52551">
        <ele>45.32</ele>
        <time>2017-08-04T08:42:55Z</time>
      </trkpt>
      <trkpt lat="50.80287" lon="2.52558">
        <ele>45.32</ele>
        <time>2017-08-04T08:42:56Z</time>
      </trkpt>
      <trkpt lat="50.80286" lon="2.52566">
        <ele>44.84</ele>
        <time>2017-08-04T08:42:57Z</time>
      </trkpt>
      <trkpt lat="50.80283" lon="2.52572">
        <ele>44.84</ele>
        <time>2017-08-04T08:42:58Z</time>
      </trkpt>
      <trkpt lat="50.8028" lon="2.52577">
        <ele>43.88</ele>
        <time>2017-08-04T08:42:59Z</time>
      </trkpt>
      <trkpt lat="50.80275" lon="2.52581">
        <ele>43.88</ele>
        <time>2017-08-04T08:43:00Z</time>
      </trkpt>
      <trkpt lat="50.80271" lon="2.52586">
        <ele>43.88</ele>
        <time>2017-08-04T08:43:01Z</time>
      </trkpt>
      <trkpt lat="50.80267" lon="2.52591">
        <ele>43.4</ele>
        <time>2017-08-04T08:43:02Z</time>
      </trkpt>
      <trkpt lat="50.80263" lon="2.52596">
        <ele>43.4</ele>
        <time>2017-08-04T08:43:03Z</time>
      </trkpt>
      <trkpt lat="50.80258" lon="2.52601">
        <ele>42.92</ele>
        <time>2017-08-04T08:43:04Z</time>
      </trkpt>
      <trkpt lat="50.80254" lon="2.52607">
        <ele>42.92</ele>
        <time>2017-08-04T08:43:05Z</time>
      </trkpt>
      <trkpt lat="50.8025" lon="2.52615">
        <ele>42.92</ele>
        <time>2017-08-04T08:43:06Z</time>
      </trkpt>
      <trkpt lat="50.80225" lon="2.52688">
        <ele>40.51</ele>
        <time>2017-08-04T08:43:15Z</time>
      </trkpt>
      <trkpt lat="50.80196" lon="2.52821">
        <ele>39.55</ele>
        <time>2017-08-04T08:43:30Z</time>
      </trkpt>
      <trkpt lat="50.80193" lon="2.5283">
        <ele>39.55</ele>
        <time>2017-08-04T08:43:31Z</time>
      </trkpt>
      <trkpt lat="50.80191" lon="2.52838">
        <ele>39.55</ele>
        <time>2017-08-04T08:43:32Z</time>
      </trkpt>
      <trkpt lat="50.8019" lon="2.52847">
        <ele>39.55</ele>
        <time>2017-08-04T08:43:33Z</time>
      </trkpt>
      <trkpt lat="50.80189" lon="2.52855">
        <ele>39.55</ele>
        <time>2017-08-04T08:43:34Z</time>
      </trkpt>
      <trkpt lat="50.80188" lon="2.52873">
        <ele>39.55</ele>
        <time>2017-08-04T08:43:36Z</time>
      </trkpt>
      <trkpt lat="50.80186" lon="2.52946">
        <ele>39.55</ele>
        <time>2017-08-04T08:43:44Z</time>
      </trkpt>
      <trkpt lat="50.80184" lon="2.52955">
        <ele>39.55</ele>
        <time>2017-08-04T08:43:45Z</time>
      </trkpt>
      <trkpt lat="50.80136" lon="2.53087">
        <ele>38.59</ele>
        <time>2017-08-04T08:44:02Z</time>
      </trkpt>
      <trkpt lat="50.8007" lon="2.53223">
        <ele>37.15</ele>
        <time>2017-08-04T08:44:20Z</time>
      </trkpt>
      <trkpt lat="50.80016" lon="2.53356">
        <ele>34.74</ele>
        <time>2017-08-04T08:44:36Z</time>
      </trkpt>
      <trkpt lat="50.79969" lon="2.53496">
        <ele>31.38</ele>
        <time>2017-08-04T08:44:51Z</time>
      </trkpt>
      <trkpt lat="50.79939" lon="2.53587">
        <ele>31.38</ele>
        <time>2017-08-04T08:45:01Z</time>
      </trkpt>
      <trkpt lat="50.79935" lon="2.53593">
        <ele>31.38</ele>
        <time>2017-08-04T08:45:02Z</time>
      </trkpt>
      <trkpt lat="50.7993" lon="2.53598">
        <ele>31.38</ele>
        <time>2017-08-04T08:45:03Z</time>
      </trkpt>
      <trkpt lat="50.79875" lon="2.53657">
        <ele>33.3</ele>
        <time>2017-08-04T08:45:18Z</time>
      </trkpt>
      <trkpt lat="50.7987" lon="2.53671">
        <ele>34.26</ele>
        <time>2017-08-04T08:45:21Z</time>
      </trkpt>
      <trkpt lat="50.7987" lon="2.53678">
        <ele>34.26</ele>
        <time>2017-08-04T08:45:22Z</time>
      </trkpt>
      <trkpt lat="50.79871" lon="2.53683">
        <ele>34.26</ele>
        <time>2017-08-04T08:45:23Z</time>
      </trkpt>
      <trkpt lat="50.79871" lon="2.5369">
        <ele>34.26</ele>
        <time>2017-08-04T08:45:24Z</time>
      </trkpt>
      <trkpt lat="50.79872" lon="2.53696">
        <ele>34.26</ele>
        <time>2017-08-04T08:45:25Z</time>
      </trkpt>
      <trkpt lat="50.79873" lon="2.53701">
        <ele>34.26</ele>
        <time>2017-08-04T08:45:26Z</time>
      </trkpt>
      <trkpt lat="50.7989" lon="2.53831">
        <ele>34.26</ele>
        <time>2017-08-04T08:45:44Z</time>
      </trkpt>
      <trkpt lat="50.79893" lon="2.53838">
        <ele>34.26</ele>
        <time>2017-08-04T08:45:45Z</time>
      </trkpt>
      <trkpt lat="50.79895" lon="2.53844">
        <ele>34.26</ele>
        <time>2017-08-04T08:45:46Z</time>
      </trkpt>
      <trkpt lat="50.79899" lon="2.53849">
        <ele>34.26</ele>
        <time>2017-08-04T08:45:47Z</time>
      </trkpt>
      <trkpt lat="50.79902" lon="2.53853">
        <ele>34.26</ele>
        <time>2017-08-04T08:45:48Z</time>
      </trkpt>
      <trkpt lat="50.79906" lon="2.53857">
        <ele>34.26</ele>
        <time>2017-08-04T08:45:49Z</time>
      </trkpt>
      <trkpt lat="50.7991" lon="2.53863">
        <ele>34.26</ele>
        <time>2017-08-04T08:45:50Z</time>
      </trkpt>
      <trkpt lat="50.79913" lon="2.53869">
        <ele>34.26</ele>
        <time>2017-08-04T08:45:51Z</time>
      </trkpt>
      <trkpt lat="50.79916" lon="2.53876">
        <ele>34.26</ele>
        <time>2017-08-04T08:45:52Z</time>
      </trkpt>
      <trkpt lat="50.79918" lon="2.53883">
        <ele>34.26</ele>
        <time>2017-08-04T08:45:53Z</time>
      </trkpt>
      <trkpt lat="50.7992" lon="2.53891">
        <ele>34.26</ele>
        <time>2017-08-04T08:45:54Z</time>
      </trkpt>
      <trkpt lat="50.79922" lon="2.53899">
        <ele>32.82</ele>
        <time>2017-08-04T08:45:55Z</time>
      </trkpt>
      <trkpt lat="50.79923" lon="2.53907">
        <ele>32.82</ele>
        <time>2017-08-04T08:45:56Z</time>
      </trkpt>
      <trkpt lat="50.79924" lon="2.53917">
        <ele>32.82</ele>
        <time>2017-08-04T08:45:57Z</time>
      </trkpt>
      <trkpt lat="50.79924" lon="2.53924">
        <ele>32.82</ele>
        <time>2017-08-04T08:45:58Z</time>
      </trkpt>
      <trkpt lat="50.79923" lon="2.53935">
        <ele>32.34</ele>
        <time>2017-08-04T08:45:59Z</time>
      </trkpt>
      <trkpt lat="50.79921" lon="2.53941">
        <ele>32.34</ele>
        <time>2017-08-04T08:46:00Z</time>
      </trkpt>
      <trkpt lat="50.79918" lon="2.53948">
        <ele>32.34</ele>
        <time>2017-08-04T08:46:01Z</time>
      </trkpt>
      <trkpt lat="50.79913" lon="2.53953">
        <ele>32.34</ele>
        <time>2017-08-04T08:46:02Z</time>
      </trkpt>
      <trkpt lat="50.79909" lon="2.53956">
        <ele>32.34</ele>
        <time>2017-08-04T08:46:03Z</time>
      </trkpt>
      <trkpt lat="50.79882" lon="2.53975">
        <ele>33.78</ele>
        <time>2017-08-04T08:46:10Z</time>
      </trkpt>
      <trkpt lat="50.79869" lon="2.54015">
        <ele>34.26</ele>
        <time>2017-08-04T08:46:20Z</time>
      </trkpt>
      <trkpt lat="50.79867" lon="2.54037">
        <ele>34.26</ele>
        <time>2017-08-04T08:46:24Z</time>
      </trkpt>
      <trkpt lat="50.79865" lon="2.5404">
        <ele>34.26</ele>
        <time>2017-08-04T08:46:25Z</time>
      </trkpt>
      <trkpt lat="50.79862" lon="2.54042">
        <ele>34.26</ele>
        <time>2017-08-04T08:46:26Z</time>
      </trkpt>
      <trkpt lat="50.79859" lon="2.54044">
        <ele>34.26</ele>
        <time>2017-08-04T08:46:27Z</time>
      </trkpt>
      <trkpt lat="50.79856" lon="2.54045">
        <ele>34.26</ele>
        <time>2017-08-04T08:46:28Z</time>
      </trkpt>
      <trkpt lat="50.79798" lon="2.54083">
        <ele>34.74</ele>
        <time>2017-08-04T08:46:44Z</time>
      </trkpt>
      <trkpt lat="50.79794" lon="2.54086">
        <ele>34.74</ele>
        <time>2017-08-04T08:46:45Z</time>
      </trkpt>
      <trkpt lat="50.7979" lon="2.54088">
        <ele>34.74</ele>
        <time>2017-08-04T08:46:46Z</time>
      </trkpt>
      <trkpt lat="50.79762" lon="2.54111">
        <ele>35.71</ele>
        <time>2017-08-04T08:46:53Z</time>
      </trkpt>
      <trkpt lat="50.79739" lon="2.54138">
        <ele>34.26</ele>
        <time>2017-08-04T08:46:59Z</time>
      </trkpt>
      <trkpt lat="50.79735" lon="2.54143">
        <ele>34.26</ele>
        <time>2017-08-04T08:47:00Z</time>
      </trkpt>
      <trkpt lat="50.79731" lon="2.54148">
        <ele>34.26</ele>
        <time>2017-08-04T08:47:01Z</time>
      </trkpt>
      <trkpt lat="50.79668" lon="2.54224">
        <ele>34.26</ele>
        <time>2017-08-04T08:47:17Z</time>
      </trkpt>
      <trkpt lat="50.7959" lon="2.54306">
        <ele>32.34</ele>
        <time>2017-08-04T08:47:33Z</time>
      </trkpt>
      <trkpt lat="50.79576" lon="2.54323">
        <ele>30.9</ele>
        <time>2017-08-04T08:47:36Z</time>
      </trkpt>
      <trkpt lat="50.79572" lon="2.54329">
        <ele>30.9</ele>
        <time>2017-08-04T08:47:37Z</time>
      </trkpt>
      <trkpt lat="50.79568" lon="2.54337">
        <ele>30.9</ele>
        <time>2017-08-04T08:47:38Z</time>
      </trkpt>
      <trkpt lat="50.79567" lon="2.54345">
        <ele>32.34</ele>
        <time>2017-08-04T08:47:39Z</time>
      </trkpt>
      <trkpt lat="50.79567" lon="2.54355">
        <ele>32.34</ele>
        <time>2017-08-04T08:47:40Z</time>
      </trkpt>
      <trkpt lat="50.79567" lon="2.54362">
        <ele>32.34</ele>
        <time>2017-08-04T08:47:41Z</time>
      </trkpt>
      <trkpt lat="50.79568" lon="2.54373">
        <ele>32.34</ele>
        <time>2017-08-04T08:47:42Z</time>
      </trkpt>
      <trkpt lat="50.79569" lon="2.5438">
        <ele>32.34</ele>
        <time>2017-08-04T08:47:43Z</time>
      </trkpt>
      <trkpt lat="50.7958" lon="2.54471">
        <ele>32.34</ele>
        <time>2017-08-04T08:47:53Z</time>
      </trkpt>
      <trkpt lat="50.7958" lon="2.54481">
        <ele>32.34</ele>
        <time>2017-08-04T08:47:54Z</time>
      </trkpt>
      <trkpt lat="50.79578" lon="2.54499">
        <ele>32.34</ele>
        <time>2017-08-04T08:47:56Z</time>
      </trkpt>
      <trkpt lat="50.79576" lon="2.54508">
        <ele>32.34</ele>
        <time>2017-08-04T08:47:57Z</time>
      </trkpt>
      <trkpt lat="50.79558" lon="2.54623">
        <ele>34.26</ele>
        <time>2017-08-04T08:48:11Z</time>
      </trkpt>
      <trkpt lat="50.79559" lon="2.54639">
        <ele>34.74</ele>
        <time>2017-08-04T08:48:13Z</time>
      </trkpt>
      <trkpt lat="50.79561" lon="2.54647">
        <ele>34.74</ele>
        <time>2017-08-04T08:48:14Z</time>
      </trkpt>
      <trkpt lat="50.79583" lon="2.54762">
        <ele>34.74</ele>
        <time>2017-08-04T08:48:28Z</time>
      </trkpt>
      <trkpt lat="50.79618" lon="2.54948">
        <ele>34.74</ele>
        <time>2017-08-04T08:48:47Z</time>
      </trkpt>
      <trkpt lat="50.79661" lon="2.55162">
        <ele>33.3</ele>
        <time>2017-08-04T08:49:08Z</time>
      </trkpt>
      <trkpt lat="50.79686" lon="2.55362">
        <ele>32.34</ele>
        <time>2017-08-04T08:49:26Z</time>
      </trkpt>
      <trkpt lat="50.79696" lon="2.55587">
        <ele>31.38</ele>
        <time>2017-08-04T08:49:46Z</time>
      </trkpt>
      <trkpt lat="50.79695" lon="2.55597">
        <ele>31.38</ele>
        <time>2017-08-04T08:49:47Z</time>
      </trkpt>
      <trkpt lat="50.79694" lon="2.55607">
        <ele>31.38</ele>
        <time>2017-08-04T08:49:48Z</time>
      </trkpt>
      <trkpt lat="50.79687" lon="2.5565">
        <ele>31.38</ele>
        <time>2017-08-04T08:49:53Z</time>
      </trkpt>
      <trkpt lat="50.79688" lon="2.55656">
        <ele>31.38</ele>
        <time>2017-08-04T08:49:54Z</time>
      </trkpt>
      <trkpt lat="50.79692" lon="2.5566">
        <ele>31.38</ele>
        <time>2017-08-04T08:49:55Z</time>
      </trkpt>
      <trkpt lat="50.79694" lon="2.55659">
        <ele>31.38</ele>
        <time>2017-08-04T08:49:56Z</time>
      </trkpt>
      <trkpt lat="50.79699" lon="2.55657">
        <ele>31.38</ele>
        <time>2017-08-04T08:49:57Z</time>
      </trkpt>
      <trkpt lat="50.79702" lon="2.55656">
        <ele>31.38</ele>
        <time>2017-08-04T08:49:58Z</time>
      </trkpt>
      <trkpt lat="50.79706" lon="2.55656">
        <ele>31.38</ele>
        <time>2017-08-04T08:49:59Z</time>
      </trkpt>
      <trkpt lat="50.7971" lon="2.55659">
        <ele>31.38</ele>
        <time>2017-08-04T08:50:00Z</time>
      </trkpt>
      <trkpt lat="50.79713" lon="2.55663">
        <ele>31.38</ele>
        <time>2017-08-04T08:50:01Z</time>
      </trkpt>
      <trkpt lat="50.79716" lon="2.55669">
        <ele>31.38</ele>
        <time>2017-08-04T08:50:02Z</time>
      </trkpt>
      <trkpt lat="50.79718" lon="2.55675">
        <ele>31.38</ele>
        <time>2017-08-04T08:50:03Z</time>
      </trkpt>
      <trkpt lat="50.7972" lon="2.55684">
        <ele>31.38</ele>
        <time>2017-08-04T08:50:04Z</time>
      </trkpt>
      <trkpt lat="50.79762" lon="2.55806">
        <ele>30.9</ele>
        <time>2017-08-04T08:50:21Z</time>
      </trkpt>
      <trkpt lat="50.79776" lon="2.55841">
        <ele>30.9</ele>
        <time>2017-08-04T08:50:26Z</time>
      </trkpt>
      <trkpt lat="50.79794" lon="2.55883">
        <ele>30.9</ele>
        <time>2017-08-04T08:50:32Z</time>
      </trkpt>
      <trkpt lat="50.798" lon="2.55896">
        <ele>30.9</ele>
        <time>2017-08-04T08:50:34Z</time>
      </trkpt>
      <trkpt lat="50.79803" lon="2.55902">
        <ele>30.9</ele>
        <time>2017-08-04T08:50:35Z</time>
      </trkpt>
      <trkpt lat="50.79852" lon="2.56002">
        <ele>29.46</ele>
        <time>2017-08-04T08:50:50Z</time>
      </trkpt>
      <trkpt lat="50.79889" lon="2.5611">
        <ele>28.98</ele>
        <time>2017-08-04T08:51:06Z</time>
      </trkpt>
      <trkpt lat="50.79919" lon="2.56197">
        <ele>28.5</ele>
        <time>2017-08-04T08:51:22Z</time>
      </trkpt>
      <trkpt lat="50.79946" lon="2.5628">
        <ele>27.53</ele>
        <time>2017-08-04T08:51:38Z</time>
      </trkpt>
      <trkpt lat="50.79967" lon="2.56342">
        <ele>26.57</ele>
        <time>2017-08-04T08:51:50Z</time>
      </trkpt>
      <trkpt lat="50.79979" lon="2.56377">
        <ele>26.57</ele>
        <time>2017-08-04T08:51:56Z</time>
      </trkpt>
      <trkpt lat="50.79982" lon="2.5639">
        <ele>26.57</ele>
        <time>2017-08-04T08:51:58Z</time>
      </trkpt>
      <trkpt lat="50.80007" lon="2.56472">
        <ele>26.09</ele>
        <time>2017-08-04T08:52:11Z</time>
      </trkpt>
      <trkpt lat="50.80009" lon="2.56478">
        <ele>26.09</ele>
        <time>2017-08-04T08:52:12Z</time>
      </trkpt>
      <trkpt lat="50.80013" lon="2.56482">
        <ele>25.61</ele>
        <time>2017-08-04T08:52:13Z</time>
      </trkpt>
      <trkpt lat="50.80018" lon="2.56484">
        <ele>25.61</ele>
        <time>2017-08-04T08:52:14Z</time>
      </trkpt>
      <trkpt lat="50.80022" lon="2.56485">
        <ele>25.61</ele>
        <time>2017-08-04T08:52:15Z</time>
      </trkpt>
      <trkpt lat="50.80075" lon="2.56503">
        <ele>24.17</ele>
        <time>2017-08-04T08:52:25Z</time>
      </trkpt>
      <trkpt lat="50.80152" lon="2.5652">
        <ele>25.13</ele>
        <time>2017-08-04T08:52:40Z</time>
      </trkpt>
      <trkpt lat="50.80162" lon="2.56526">
        <ele>25.61</ele>
        <time>2017-08-04T08:52:43Z</time>
      </trkpt>
      <trkpt lat="50.80164" lon="2.56531">
        <ele>25.61</ele>
        <time>2017-08-04T08:52:44Z</time>
      </trkpt>
      <trkpt lat="50.80165" lon="2.56536">
        <ele>25.61</ele>
        <time>2017-08-04T08:52:45Z</time>
      </trkpt>
      <trkpt lat="50.80178" lon="2.56613">
        <ele>25.61</ele>
        <time>2017-08-04T08:53:00Z</time>
      </trkpt>
      <trkpt lat="50.80216" lon="2.567">
        <ele>26.09</ele>
        <time>2017-08-04T08:53:17Z</time>
      </trkpt>
      <trkpt lat="50.80259" lon="2.56788">
        <ele>27.05</ele>
        <time>2017-08-04T08:53:35Z</time>
      </trkpt>
      <trkpt lat="50.80292" lon="2.56871">
        <ele>27.05</ele>
        <time>2017-08-04T08:53:52Z</time>
      </trkpt>
      <trkpt lat="50.80318" lon="2.56949">
        <ele>27.05</ele>
        <time>2017-08-04T08:54:05Z</time>
      </trkpt>
      <trkpt lat="50.80346" lon="2.57031">
        <ele>27.05</ele>
        <time>2017-08-04T08:54:19Z</time>
      </trkpt>
      <trkpt lat="50.80376" lon="2.57115">
        <ele>27.05</ele>
        <time>2017-08-04T08:54:34Z</time>
      </trkpt>
      <trkpt lat="50.8041" lon="2.5721">
        <ele>24.65</ele>
        <time>2017-08-04T08:54:48Z</time>
      </trkpt>
      <trkpt lat="50.80414" lon="2.57217">
        <ele>24.65</ele>
        <time>2017-08-04T08:54:49Z</time>
      </trkpt>
      <trkpt lat="50.80424" lon="2.5724">
        <ele>23.69</ele>
        <time>2017-08-04T08:54:52Z</time>
      </trkpt>
      <trkpt lat="50.80425" lon="2.57248">
        <ele>23.69</ele>
        <time>2017-08-04T08:54:53Z</time>
      </trkpt>
      <trkpt lat="50.80426" lon="2.57257">
        <ele>23.69</ele>
        <time>2017-08-04T08:54:54Z</time>
      </trkpt>
      <trkpt lat="50.80424" lon="2.57263">
        <ele>23.21</ele>
        <time>2017-08-04T08:54:55Z</time>
      </trkpt>
      <trkpt lat="50.80422" lon="2.5727">
        <ele>23.21</ele>
        <time>2017-08-04T08:54:56Z</time>
      </trkpt>
      <trkpt lat="50.80421" lon="2.57279">
        <ele>23.21</ele>
        <time>2017-08-04T08:54:57Z</time>
      </trkpt>
      <trkpt lat="50.80421" lon="2.57286">
        <ele>23.21</ele>
        <time>2017-08-04T08:54:58Z</time>
      </trkpt>
      <trkpt lat="50.80422" lon="2.57293">
        <ele>23.21</ele>
        <time>2017-08-04T08:54:59Z</time>
      </trkpt>
      <trkpt lat="50.80423" lon="2.57301">
        <ele>22.73</ele>
        <time>2017-08-04T08:55:00Z</time>
      </trkpt>
      <trkpt lat="50.80429" lon="2.57334">
        <ele>21.77</ele>
        <time>2017-08-04T08:55:04Z</time>
      </trkpt>
      <trkpt lat="50.80432" lon="2.57343">
        <ele>21.77</ele>
        <time>2017-08-04T08:55:05Z</time>
      </trkpt>
      <trkpt lat="50.80435" lon="2.5735">
        <ele>21.77</ele>
        <time>2017-08-04T08:55:06Z</time>
      </trkpt>
      <trkpt lat="50.80439" lon="2.57357">
        <ele>22.25</ele>
        <time>2017-08-04T08:55:07Z</time>
      </trkpt>
      <trkpt lat="50.80443" lon="2.57363">
        <ele>21.77</ele>
        <time>2017-08-04T08:55:08Z</time>
      </trkpt>
      <trkpt lat="50.80447" lon="2.57369">
        <ele>22.25</ele>
        <time>2017-08-04T08:55:09Z</time>
      </trkpt>
      <trkpt lat="50.80503" lon="2.57437">
        <ele>22.25</ele>
        <time>2017-08-04T08:55:23Z</time>
      </trkpt>
      <trkpt lat="50.80507" lon="2.57442">
        <ele>22.25</ele>
        <time>2017-08-04T08:55:24Z</time>
      </trkpt>
      <trkpt lat="50.80517" lon="2.5746">
        <ele>22.25</ele>
        <time>2017-08-04T08:55:27Z</time>
      </trkpt>
      <trkpt lat="50.80536" lon="2.57485">
        <ele>22.25</ele>
        <time>2017-08-04T08:55:32Z</time>
      </trkpt>
      <trkpt lat="50.8054" lon="2.5749">
        <ele>22.25</ele>
        <time>2017-08-04T08:55:33Z</time>
      </trkpt>
      <trkpt lat="50.80545" lon="2.57494">
        <ele>22.25</ele>
        <time>2017-08-04T08:55:34Z</time>
      </trkpt>
      <trkpt lat="50.8055" lon="2.57498">
        <ele>22.25</ele>
        <time>2017-08-04T08:55:35Z</time>
      </trkpt>
      <trkpt lat="50.80554" lon="2.57501">
        <ele>22.25</ele>
        <time>2017-08-04T08:55:36Z</time>
      </trkpt>
      <trkpt lat="50.80581" lon="2.57519">
        <ele>21.77</ele>
        <time>2017-08-04T08:55:42Z</time>
      </trkpt>
      <trkpt lat="50.80584" lon="2.57523">
        <ele>21.77</ele>
        <time>2017-08-04T08:55:43Z</time>
      </trkpt>
      <trkpt lat="50.80587" lon="2.57527">
        <ele>21.77</ele>
        <time>2017-08-04T08:55:44Z</time>
      </trkpt>
      <trkpt lat="50.8059" lon="2.57532">
        <ele>21.77</ele>
        <time>2017-08-04T08:55:45Z</time>
      </trkpt>
      <trkpt lat="50.80592" lon="2.57536">
        <ele>21.77</ele>
        <time>2017-08-04T08:55:46Z</time>
      </trkpt>
      <trkpt lat="50.80599" lon="2.57549">
        <ele>21.77</ele>
        <time>2017-08-04T08:55:49Z</time>
      </trkpt>
      <trkpt lat="50.80601" lon="2.5755">
        <ele>21.77</ele>
        <time>2017-08-04T08:55:50Z</time>
      </trkpt>
      <trkpt lat="50.80611" lon="2.57537">
        <ele>22.73</ele>
        <time>2017-08-04T08:55:55Z</time>
      </trkpt>
      <trkpt lat="50.80618" lon="2.57523">
        <ele>23.69</ele>
        <time>2017-08-04T08:56:01Z</time>
      </trkpt>
      <trkpt lat="50.80622" lon="2.57519">
        <ele>23.69</ele>
        <time>2017-08-04T08:56:04Z</time>
      </trkpt>
      <trkpt lat="50.80626" lon="2.57518">
        <ele>24.65</ele>
        <time>2017-08-04T08:56:06Z</time>
      </trkpt>
      <trkpt lat="50.80628" lon="2.57519">
        <ele>24.65</ele>
        <time>2017-08-04T08:56:07Z</time>
      </trkpt>
      <trkpt lat="50.80631" lon="2.57522">
        <ele>24.65</ele>
        <time>2017-08-04T08:56:08Z</time>
      </trkpt>
      <trkpt lat="50.80634" lon="2.57525">
        <ele>24.65</ele>
        <time>2017-08-04T08:56:09Z</time>
      </trkpt>
      <trkpt lat="50.80636" lon="2.57528">
        <ele>24.65</ele>
        <time>2017-08-04T08:56:10Z</time>
      </trkpt>
      <trkpt lat="50.80639" lon="2.57532">
        <ele>24.65</ele>
        <time>2017-08-04T08:56:11Z</time>
      </trkpt>
      <trkpt lat="50.80641" lon="2.57537">
        <ele>24.65</ele>
        <time>2017-08-04T08:56:12Z</time>
      </trkpt>
      <trkpt lat="50.80649" lon="2.57555">
        <ele>24.65</ele>
        <time>2017-08-04T08:56:15Z</time>
      </trkpt>
      <trkpt lat="50.80653" lon="2.57567">
        <ele>24.65</ele>
        <time>2017-08-04T08:56:17Z</time>
      </trkpt>
      <trkpt lat="50.80655" lon="2.57575">
        <ele>24.65</ele>
        <time>2017-08-04T08:56:18Z</time>
      </trkpt>
      <trkpt lat="50.80658" lon="2.57605">
        <ele>23.21</ele>
        <time>2017-08-04T08:56:23Z</time>
      </trkpt>
      <trkpt lat="50.8066" lon="2.57609">
        <ele>23.21</ele>
        <time>2017-08-04T08:56:24Z</time>
      </trkpt>
      <trkpt lat="50.80663" lon="2.57612">
        <ele>23.21</ele>
        <time>2017-08-04T08:56:25Z</time>
      </trkpt>
      <trkpt lat="50.80665" lon="2.57613">
        <ele>23.21</ele>
        <time>2017-08-04T08:56:26Z</time>
      </trkpt>
      <trkpt lat="50.8071" lon="2.57627">
        <ele>23.21</ele>
        <time>2017-08-04T08:56:38Z</time>
      </trkpt>
      <trkpt lat="50.80718" lon="2.57632">
        <ele>23.21</ele>
        <time>2017-08-04T08:56:40Z</time>
      </trkpt>
      <trkpt lat="50.80738" lon="2.57646">
        <ele>23.21</ele>
        <time>2017-08-04T08:56:45Z</time>
      </trkpt>
      <trkpt lat="50.80749" lon="2.57656">
        <ele>23.21</ele>
        <time>2017-08-04T08:56:48Z</time>
      </trkpt>
      <trkpt lat="50.80753" lon="2.57659">
        <ele>23.21</ele>
        <time>2017-08-04T08:56:49Z</time>
      </trkpt>
      <trkpt lat="50.80756" lon="2.57662">
        <ele>23.21</ele>
        <time>2017-08-04T08:56:50Z</time>
      </trkpt>
      <trkpt lat="50.80767" lon="2.57671">
        <ele>24.65</ele>
        <time>2017-08-04T08:56:53Z</time>
      </trkpt>
      <trkpt lat="50.80778" lon="2.57694">
        <ele>24.17</ele>
        <time>2017-08-04T08:56:59Z</time>
      </trkpt>
      <trkpt lat="50.80782" lon="2.57697">
        <ele>24.17</ele>
        <time>2017-08-04T08:57:00Z</time>
      </trkpt>
      <trkpt lat="50.80785" lon="2.57698">
        <ele>24.17</ele>
        <time>2017-08-04T08:57:01Z</time>
      </trkpt>
      <trkpt lat="50.8079" lon="2.57699">
        <ele>24.17</ele>
        <time>2017-08-04T08:57:02Z</time>
      </trkpt>
      <trkpt lat="50.80793" lon="2.57699">
        <ele>24.17</ele>
        <time>2017-08-04T08:57:03Z</time>
      </trkpt>
      <trkpt lat="50.80798" lon="2.57699">
        <ele>24.17</ele>
        <time>2017-08-04T08:57:04Z</time>
      </trkpt>
      <trkpt lat="50.80802" lon="2.57699">
        <ele>24.65</ele>
        <time>2017-08-04T08:57:05Z</time>
      </trkpt>
      <trkpt lat="50.80873" lon="2.57717">
        <ele>26.09</ele>
        <time>2017-08-04T08:57:20Z</time>
      </trkpt>
      <trkpt lat="50.80895" lon="2.57726">
        <ele>25.61</ele>
        <time>2017-08-04T08:57:25Z</time>
      </trkpt>
      <trkpt lat="50.80899" lon="2.5773">
        <ele>25.61</ele>
        <time>2017-08-04T08:57:26Z</time>
      </trkpt>
      <trkpt lat="50.80903" lon="2.57737">
        <ele>25.61</ele>
        <time>2017-08-04T08:57:27Z</time>
      </trkpt>
      <trkpt lat="50.80905" lon="2.57744">
        <ele>25.61</ele>
        <time>2017-08-04T08:57:28Z</time>
      </trkpt>
      <trkpt lat="50.80905" lon="2.5775">
        <ele>25.61</ele>
        <time>2017-08-04T08:57:29Z</time>
      </trkpt>
      <trkpt lat="50.80906" lon="2.57759">
        <ele>25.61</ele>
        <time>2017-08-04T08:57:30Z</time>
      </trkpt>
      <trkpt lat="50.8091" lon="2.57811">
        <ele>24.17</ele>
        <time>2017-08-04T08:57:36Z</time>
      </trkpt>
      <trkpt lat="50.80922" lon="2.57944">
        <ele>24.17</ele>
        <time>2017-08-04T08:57:52Z</time>
      </trkpt>
      <trkpt lat="50.80923" lon="2.57952">
        <ele>24.17</ele>
        <time>2017-08-04T08:57:53Z</time>
      </trkpt>
      <trkpt lat="50.80925" lon="2.57999">
        <ele>24.17</ele>
        <time>2017-08-04T08:57:59Z</time>
      </trkpt>
      <trkpt lat="50.80937" lon="2.58142">
        <ele>22.73</ele>
        <time>2017-08-04T08:58:16Z</time>
      </trkpt>
      <trkpt lat="50.80944" lon="2.58255">
        <ele>22.25</ele>
        <time>2017-08-04T08:58:29Z</time>
      </trkpt>
      <trkpt lat="50.80943" lon="2.58265">
        <ele>22.25</ele>
        <time>2017-08-04T08:58:30Z</time>
      </trkpt>
      <trkpt lat="50.80942" lon="2.58273">
        <ele>22.25</ele>
        <time>2017-08-04T08:58:31Z</time>
      </trkpt>
      <trkpt lat="50.8094" lon="2.5829">
        <ele>22.25</ele>
        <time>2017-08-04T08:58:33Z</time>
      </trkpt>
      <trkpt lat="50.80939" lon="2.58298">
        <ele>22.25</ele>
        <time>2017-08-04T08:58:34Z</time>
      </trkpt>
      <trkpt lat="50.8094" lon="2.58306">
        <ele>22.25</ele>
        <time>2017-08-04T08:58:35Z</time>
      </trkpt>
      <trkpt lat="50.80942" lon="2.58346">
        <ele>22.25</ele>
        <time>2017-08-04T08:58:43Z</time>
      </trkpt>
      <trkpt lat="50.80946" lon="2.58429">
        <ele>21.77</ele>
        <time>2017-08-04T08:58:56Z</time>
      </trkpt>
      <trkpt lat="50.80954" lon="2.58531">
        <ele>23.69</ele>
        <time>2017-08-04T08:59:12Z</time>
      </trkpt>
      <trkpt lat="50.80961" lon="2.58643">
        <ele>25.61</ele>
        <time>2017-08-04T08:59:30Z</time>
      </trkpt>
      <trkpt lat="50.80965" lon="2.58698">
        <ele>27.53</ele>
        <time>2017-08-04T08:59:41Z</time>
      </trkpt>
      <trkpt lat="50.80963" lon="2.58701">
        <ele>27.53</ele>
        <time>2017-08-04T08:59:42Z</time>
      </trkpt>
      <trkpt lat="50.80961" lon="2.58704">
        <ele>27.05</ele>
        <time>2017-08-04T08:59:43Z</time>
      </trkpt>
      <trkpt lat="50.80931" lon="2.5875">
        <ele>28.5</ele>
        <time>2017-08-04T08:59:55Z</time>
      </trkpt>
      <trkpt lat="50.80883" lon="2.58846">
        <ele>28.5</ele>
        <time>2017-08-04T09:00:14Z</time>
      </trkpt>
      <trkpt lat="50.80877" lon="2.58866">
        <ele>28.5</ele>
        <time>2017-08-04T09:00:17Z</time>
      </trkpt>
      <trkpt lat="50.80875" lon="2.58872">
        <ele>28.98</ele>
        <time>2017-08-04T09:00:18Z</time>
      </trkpt>
      <trkpt lat="50.80872" lon="2.58879">
        <ele>28.98</ele>
        <time>2017-08-04T09:00:19Z</time>
      </trkpt>
      <trkpt lat="50.80837" lon="2.58987">
        <ele>28.98</ele>
        <time>2017-08-04T09:00:35Z</time>
      </trkpt>
      <trkpt lat="50.80827" lon="2.59012">
        <ele>27.53</ele>
        <time>2017-08-04T09:00:39Z</time>
      </trkpt>
      <trkpt lat="50.80778" lon="2.59118">
        <ele>26.09</ele>
        <time>2017-08-04T09:00:56Z</time>
      </trkpt>
      <trkpt lat="50.80774" lon="2.59117">
        <ele>26.09</ele>
        <time>2017-08-04T09:00:57Z</time>
      </trkpt>
      <trkpt lat="50.8077" lon="2.59114">
        <ele>26.09</ele>
        <time>2017-08-04T09:00:58Z</time>
      </trkpt>
      <trkpt lat="50.80769" lon="2.59111">
        <ele>26.09</ele>
        <time>2017-08-04T09:00:59Z</time>
      </trkpt>
      <trkpt lat="50.80766" lon="2.59106">
        <ele>26.09</ele>
        <time>2017-08-04T09:01:00Z</time>
      </trkpt>
      <trkpt lat="50.80742" lon="2.59065">
        <ele>27.53</ele>
        <time>2017-08-04T09:01:10Z</time>
      </trkpt>
      <trkpt lat="50.80703" lon="2.58999">
        <ele>28.5</ele>
        <time>2017-08-04T09:01:27Z</time>
      </trkpt>
      <trkpt lat="50.80672" lon="2.5894">
        <ele>29.46</ele>
        <time>2017-08-04T09:01:42Z</time>
      </trkpt>
      <trkpt lat="50.80651" lon="2.58894">
        <ele>30.42</ele>
        <time>2017-08-04T09:01:54Z</time>
      </trkpt>
      <trkpt lat="50.80649" lon="2.58891">
        <ele>30.42</ele>
        <time>2017-08-04T09:01:55Z</time>
      </trkpt>
      <trkpt lat="50.80646" lon="2.5889">
        <ele>30.42</ele>
        <time>2017-08-04T09:01:56Z</time>
      </trkpt>
      <trkpt lat="50.80643" lon="2.58891">
        <ele>30.42</ele>
        <time>2017-08-04T09:01:57Z</time>
      </trkpt>
      <trkpt lat="50.80641" lon="2.58893">
        <ele>30.9</ele>
        <time>2017-08-04T09:01:58Z</time>
      </trkpt>
      <trkpt lat="50.80638" lon="2.58896">
        <ele>30.9</ele>
        <time>2017-08-04T09:01:59Z</time>
      </trkpt>
      <trkpt lat="50.80635" lon="2.589">
        <ele>30.9</ele>
        <time>2017-08-04T09:02:00Z</time>
      </trkpt>
      <trkpt lat="50.80589" lon="2.58963">
        <ele>30.9</ele>
        <time>2017-08-04T09:02:16Z</time>
      </trkpt>
      <trkpt lat="50.80564" lon="2.58994">
        <ele>30.9</ele>
        <time>2017-08-04T09:02:24Z</time>
      </trkpt>
      <trkpt lat="50.80561" lon="2.58998">
        <ele>30.9</ele>
        <time>2017-08-04T09:02:25Z</time>
      </trkpt>
      <trkpt lat="50.80538" lon="2.59029">
        <ele>29.94</ele>
        <time>2017-08-04T09:02:32Z</time>
      </trkpt>
      <trkpt lat="50.80518" lon="2.59058">
        <ele>29.94</ele>
        <time>2017-08-04T09:02:38Z</time>
      </trkpt>
      <trkpt lat="50.80514" lon="2.59063">
        <ele>29.94</ele>
        <time>2017-08-04T09:02:39Z</time>
      </trkpt>
      <trkpt lat="50.80489" lon="2.59103">
        <ele>30.42</ele>
        <time>2017-08-04T09:02:51Z</time>
      </trkpt>
      <trkpt lat="50.80488" lon="2.59103">
        <ele>30.42</ele>
        <time>2017-08-04T09:02:52Z</time>
      </trkpt>
      <trkpt lat="50.80472" lon="2.59136">
        <ele>30.42</ele>
        <time>2017-08-04T09:02:59Z</time>
      </trkpt>
      <trkpt lat="50.8045" lon="2.59194">
        <ele>30.42</ele>
        <time>2017-08-04T09:03:08Z</time>
      </trkpt>
      <trkpt lat="50.80446" lon="2.59199">
        <ele>30.42</ele>
        <time>2017-08-04T09:03:09Z</time>
      </trkpt>
      <trkpt lat="50.80443" lon="2.59205">
        <ele>30.42</ele>
        <time>2017-08-04T09:03:10Z</time>
      </trkpt>
      <trkpt lat="50.80388" lon="2.5927">
        <ele>31.86</ele>
        <time>2017-08-04T09:03:25Z</time>
      </trkpt>
      <trkpt lat="50.80381" lon="2.59279">
        <ele>31.86</ele>
        <time>2017-08-04T09:03:27Z</time>
      </trkpt>
      <trkpt lat="50.80378" lon="2.59284">
        <ele>31.86</ele>
        <time>2017-08-04T09:03:28Z</time>
      </trkpt>
      <trkpt lat="50.80313" lon="2.59369">
        <ele>31.86</ele>
        <time>2017-08-04T09:03:45Z</time>
      </trkpt>
      <trkpt lat="50.80259" lon="2.59463">
        <ele>32.82</ele>
        <time>2017-08-04T09:04:03Z</time>
      </trkpt>
      <trkpt lat="50.80258" lon="2.59469">
        <ele>32.82</ele>
        <time>2017-08-04T09:04:04Z</time>
      </trkpt>
      <trkpt lat="50.80233" lon="2.59555">
        <ele>33.3</ele>
        <time>2017-08-04T09:04:18Z</time>
      </trkpt>
      <trkpt lat="50.80193" lon="2.59644">
        <ele>31.86</ele>
        <time>2017-08-04T09:04:32Z</time>
      </trkpt>
      <trkpt lat="50.80144" lon="2.59759">
        <ele>29.94</ele>
        <time>2017-08-04T09:04:46Z</time>
      </trkpt>
      <trkpt lat="50.80097" lon="2.59853">
        <ele>28.98</ele>
        <time>2017-08-04T09:04:59Z</time>
      </trkpt>
      <trkpt lat="50.80059" lon="2.59915">
        <ele>31.86</ele>
        <time>2017-08-04T09:05:10Z</time>
      </trkpt>
      <trkpt lat="50.80001" lon="2.6">
        <ele>32.82</ele>
        <time>2017-08-04T09:05:28Z</time>
      </trkpt>
      <trkpt lat="50.79937" lon="2.60044">
        <ele>34.74</ele>
        <time>2017-08-04T09:05:45Z</time>
      </trkpt>
      <trkpt lat="50.79918" lon="2.60058">
        <ele>34.74</ele>
        <time>2017-08-04T09:05:50Z</time>
      </trkpt>
      <trkpt lat="50.79859" lon="2.60109">
        <ele>36.67</ele>
        <time>2017-08-04T09:06:09Z</time>
      </trkpt>
      <trkpt lat="50.79851" lon="2.60192">
        <ele>36.67</ele>
        <time>2017-08-04T09:06:23Z</time>
      </trkpt>
      <trkpt lat="50.79817" lon="2.60266">
        <ele>38.11</ele>
        <time>2017-08-04T09:06:38Z</time>
      </trkpt>
      <trkpt lat="50.79771" lon="2.60308">
        <ele>39.07</ele>
        <time>2017-08-04T09:06:53Z</time>
      </trkpt>
      <trkpt lat="50.79721" lon="2.60332">
        <ele>40.03</ele>
        <time>2017-08-04T09:07:07Z</time>
      </trkpt>
      <trkpt lat="50.79686" lon="2.60355">
        <ele>40.51</ele>
        <time>2017-08-04T09:07:20Z</time>
      </trkpt>
      <trkpt lat="50.79687" lon="2.60355">
        <ele>40.51</ele>
        <time>2017-08-04T09:07:46Z</time>
      </trkpt>
      <trkpt lat="50.79687" lon="2.60355">
        <ele>40.51</ele>
        <time>2017-08-04T09:08:08Z</time>
      </trkpt>
      <trkpt lat="50.79688" lon="2.60356">
        <ele>40.51</ele>
        <time>2017-08-04T09:08:41Z</time>
      </trkpt>
      <trkpt lat="50.79687" lon="2.60356">
        <ele>40.51</ele>
        <time>2017-08-04T09:09:07Z</time>
      </trkpt>
      <trkpt lat="50.79686" lon="2.60357">
        <ele>40.51</ele>
        <time>2017-08-04T09:09:08Z</time>
      </trkpt>
      <trkpt lat="50.79685" lon="2.60358">
        <ele>40.51</ele>
        <time>2017-08-04T09:09:09Z</time>
      </trkpt>
      <trkpt lat="50.79683" lon="2.6036">
        <ele>40.51</ele>
        <time>2017-08-04T09:09:10Z</time>
      </trkpt>
      <trkpt lat="50.79681" lon="2.60363">
        <ele>40.51</ele>
        <time>2017-08-04T09:09:11Z</time>
      </trkpt>
      <trkpt lat="50.7965" lon="2.6039">
        <ele>39.07</ele>
        <time>2017-08-04T09:09:20Z</time>
      </trkpt>
      <trkpt lat="50.7956" lon="2.60472">
        <ele>36.19</ele>
        <time>2017-08-04T09:09:39Z</time>
      </trkpt>
      <trkpt lat="50.79468" lon="2.60532">
        <ele>34.26</ele>
        <time>2017-08-04T09:09:56Z</time>
      </trkpt>
      <trkpt lat="50.79436" lon="2.60551">
        <ele>35.23</ele>
        <time>2017-08-04T09:10:02Z</time>
      </trkpt>
      <trkpt lat="50.79431" lon="2.60556">
        <ele>35.71</ele>
        <time>2017-08-04T09:10:03Z</time>
      </trkpt>
      <trkpt lat="50.79418" lon="2.60575">
        <ele>35.71</ele>
        <time>2017-08-04T09:10:06Z</time>
      </trkpt>
      <trkpt lat="50.79416" lon="2.60582">
        <ele>35.71</ele>
        <time>2017-08-04T09:10:07Z</time>
      </trkpt>
      <trkpt lat="50.79413" lon="2.6059">
        <ele>35.71</ele>
        <time>2017-08-04T09:10:08Z</time>
      </trkpt>
      <trkpt lat="50.79397" lon="2.60654">
        <ele>35.71</ele>
        <time>2017-08-04T09:10:16Z</time>
      </trkpt>
      <trkpt lat="50.79395" lon="2.60661">
        <ele>35.71</ele>
        <time>2017-08-04T09:10:17Z</time>
      </trkpt>
      <trkpt lat="50.79391" lon="2.60667">
        <ele>35.71</ele>
        <time>2017-08-04T09:10:18Z</time>
      </trkpt>
      <trkpt lat="50.79387" lon="2.60672">
        <ele>35.71</ele>
        <time>2017-08-04T09:10:19Z</time>
      </trkpt>
      <trkpt lat="50.79383" lon="2.60676">
        <ele>35.71</ele>
        <time>2017-08-04T09:10:20Z</time>
      </trkpt>
      <trkpt lat="50.79379" lon="2.60679">
        <ele>35.71</ele>
        <time>2017-08-04T09:10:21Z</time>
      </trkpt>
      <trkpt lat="50.79374" lon="2.60681">
        <ele>35.71</ele>
        <time>2017-08-04T09:10:22Z</time>
      </trkpt>
      <trkpt lat="50.79369" lon="2.60683">
        <ele>35.71</ele>
        <time>2017-08-04T09:10:23Z</time>
      </trkpt>
      <trkpt lat="50.79352" lon="2.6069">
        <ele>35.71</ele>
        <time>2017-08-04T09:10:27Z</time>
      </trkpt>
      <trkpt lat="50.79349" lon="2.60696">
        <ele>36.19</ele>
        <time>2017-08-04T09:10:28Z</time>
      </trkpt>
      <trkpt lat="50.79349" lon="2.60702">
        <ele>37.15</ele>
        <time>2017-08-04T09:10:29Z</time>
      </trkpt>
      <trkpt lat="50.7935" lon="2.60709">
        <ele>37.15</ele>
        <time>2017-08-04T09:10:30Z</time>
      </trkpt>
      <trkpt lat="50.79352" lon="2.60715">
        <ele>37.15</ele>
        <time>2017-08-04T09:10:31Z</time>
      </trkpt>
      <trkpt lat="50.79355" lon="2.60724">
        <ele>37.15</ele>
        <time>2017-08-04T09:10:32Z</time>
      </trkpt>
      <trkpt lat="50.79401" lon="2.60856">
        <ele>35.23</ele>
        <time>2017-08-04T09:10:48Z</time>
      </trkpt>
      <trkpt lat="50.79429" lon="2.60934">
        <ele>33.3</ele>
        <time>2017-08-04T09:10:56Z</time>
      </trkpt>
      <trkpt lat="50.79434" lon="2.60942">
        <ele>32.82</ele>
        <time>2017-08-04T09:10:57Z</time>
      </trkpt>
      <trkpt lat="50.79489" lon="2.6104">
        <ele>33.3</ele>
        <time>2017-08-04T09:11:10Z</time>
      </trkpt>
      <trkpt lat="50.79507" lon="2.61122">
        <ele>34.74</ele>
        <time>2017-08-04T09:11:20Z</time>
      </trkpt>
      <trkpt lat="50.79523" lon="2.61206">
        <ele>36.67</ele>
        <time>2017-08-04T09:11:34Z</time>
      </trkpt>
      <trkpt lat="50.79534" lon="2.61259">
        <ele>38.11</ele>
        <time>2017-08-04T09:11:43Z</time>
      </trkpt>
      <trkpt lat="50.79535" lon="2.61265">
        <ele>38.11</ele>
        <time>2017-08-04T09:11:44Z</time>
      </trkpt>
      <trkpt lat="50.79537" lon="2.61279">
        <ele>38.11</ele>
        <time>2017-08-04T09:11:46Z</time>
      </trkpt>
      <trkpt lat="50.79538" lon="2.61284">
        <ele>38.11</ele>
        <time>2017-08-04T09:11:47Z</time>
      </trkpt>
      <trkpt lat="50.79556" lon="2.61377">
        <ele>36.67</ele>
        <time>2017-08-04T09:11:59Z</time>
      </trkpt>
      <trkpt lat="50.79575" lon="2.61478">
        <ele>33.3</ele>
        <time>2017-08-04T09:12:09Z</time>
      </trkpt>
      <trkpt lat="50.79594" lon="2.61581">
        <ele>29.94</ele>
        <time>2017-08-04T09:12:18Z</time>
      </trkpt>
      <trkpt lat="50.79603" lon="2.61627">
        <ele>29.46</ele>
        <time>2017-08-04T09:12:22Z</time>
      </trkpt>
      <trkpt lat="50.79609" lon="2.61671">
        <ele>28.98</ele>
        <time>2017-08-04T09:12:26Z</time>
      </trkpt>
      <trkpt lat="50.79616" lon="2.6178">
        <ele>30.42</ele>
        <time>2017-08-04T09:12:38Z</time>
      </trkpt>
      <trkpt lat="50.79621" lon="2.61823">
        <ele>33.78</ele>
        <time>2017-08-04T09:12:46Z</time>
      </trkpt>
      <trkpt lat="50.79638" lon="2.61913">
        <ele>35.71</ele>
        <time>2017-08-04T09:13:04Z</time>
      </trkpt>
      <trkpt lat="50.79654" lon="2.6201">
        <ele>37.15</ele>
        <time>2017-08-04T09:13:23Z</time>
      </trkpt>
      <trkpt lat="50.79657" lon="2.62071">
        <ele>39.55</ele>
        <time>2017-08-04T09:13:33Z</time>
      </trkpt>
      <trkpt lat="50.79666" lon="2.62175">
        <ele>39.55</ele>
        <time>2017-08-04T09:13:52Z</time>
      </trkpt>
      <trkpt lat="50.79661" lon="2.62266">
        <ele>40.99</ele>
        <time>2017-08-04T09:14:09Z</time>
      </trkpt>
      <trkpt lat="50.79669" lon="2.62367">
        <ele>42.44</ele>
        <time>2017-08-04T09:14:26Z</time>
      </trkpt>
      <trkpt lat="50.79695" lon="2.62451">
        <ele>44.36</ele>
        <time>2017-08-04T09:14:43Z</time>
      </trkpt>
      <trkpt lat="50.79697" lon="2.62456">
        <ele>44.36</ele>
        <time>2017-08-04T09:14:52Z</time>
      </trkpt>
      <trkpt lat="50.79705" lon="2.62475">
        <ele>44.36</ele>
        <time>2017-08-04T09:15:02Z</time>
      </trkpt>
      <trkpt lat="50.79712" lon="2.62497">
        <ele>45.8</ele>
        <time>2017-08-04T09:15:08Z</time>
      </trkpt>
      <trkpt lat="50.79727" lon="2.62569">
        <ele>47.24</ele>
        <time>2017-08-04T09:15:24Z</time>
      </trkpt>
      <trkpt lat="50.79746" lon="2.62609">
        <ele>48.2</ele>
        <time>2017-08-04T09:15:35Z</time>
      </trkpt>
      <trkpt lat="50.79785" lon="2.62613">
        <ele>46.76</ele>
        <time>2017-08-04T09:15:45Z</time>
      </trkpt>
      <trkpt lat="50.79789" lon="2.62614">
        <ele>46.28</ele>
        <time>2017-08-04T09:15:46Z</time>
      </trkpt>
      <trkpt lat="50.79793" lon="2.62616">
        <ele>46.28</ele>
        <time>2017-08-04T09:15:47Z</time>
      </trkpt>
      <trkpt lat="50.79812" lon="2.62622">
        <ele>44.84</ele>
        <time>2017-08-04T09:15:53Z</time>
      </trkpt>
      <trkpt lat="50.79813" lon="2.62626">
        <ele>44.84</ele>
        <time>2017-08-04T09:15:54Z</time>
      </trkpt>
      <trkpt lat="50.79812" lon="2.62635">
        <ele>44.84</ele>
        <time>2017-08-04T09:15:56Z</time>
      </trkpt>
      <trkpt lat="50.79807" lon="2.62651">
        <ele>46.28</ele>
        <time>2017-08-04T09:16:00Z</time>
      </trkpt>
      <trkpt lat="50.79818" lon="2.62688">
        <ele>46.76</ele>
        <time>2017-08-04T09:16:08Z</time>
      </trkpt>
      <trkpt lat="50.79825" lon="2.62702">
        <ele>44.36</ele>
        <time>2017-08-04T09:16:10Z</time>
      </trkpt>
      <trkpt lat="50.79825" lon="2.62708">
        <ele>44.36</ele>
        <time>2017-08-04T09:16:11Z</time>
      </trkpt>
      <trkpt lat="50.79824" lon="2.62714">
        <ele>44.36</ele>
        <time>2017-08-04T09:16:12Z</time>
      </trkpt>
      <trkpt lat="50.79821" lon="2.62719">
        <ele>44.36</ele>
        <time>2017-08-04T09:16:13Z</time>
      </trkpt>
      <trkpt lat="50.7982" lon="2.62724">
        <ele>44.36</ele>
        <time>2017-08-04T09:16:14Z</time>
      </trkpt>
      <trkpt lat="50.79818" lon="2.62728">
        <ele>44.36</ele>
        <time>2017-08-04T09:16:15Z</time>
      </trkpt>
      <trkpt lat="50.79816" lon="2.62733">
        <ele>44.36</ele>
        <time>2017-08-04T09:16:16Z</time>
      </trkpt>
      <trkpt lat="50.79813" lon="2.62741">
        <ele>45.8</ele>
        <time>2017-08-04T09:16:18Z</time>
      </trkpt>
      <trkpt lat="50.7979" lon="2.62809">
        <ele>49.16</ele>
        <time>2017-08-04T09:16:36Z</time>
      </trkpt>
      <trkpt lat="50.7976" lon="2.62893">
        <ele>51.09</ele>
        <time>2017-08-04T09:16:58Z</time>
      </trkpt>
      <trkpt lat="50.79735" lon="2.6297">
        <ele>52.53</ele>
        <time>2017-08-04T09:17:15Z</time>
      </trkpt>
      <trkpt lat="50.79707" lon="2.63063">
        <ele>52.53</ele>
        <time>2017-08-04T09:17:32Z</time>
      </trkpt>
      <trkpt lat="50.7969" lon="2.63115">
        <ele>51.57</ele>
        <time>2017-08-04T09:17:40Z</time>
      </trkpt>
      <trkpt lat="50.79648" lon="2.63238">
        <ele>50.61</ele>
        <time>2017-08-04T09:17:57Z</time>
      </trkpt>
      <trkpt lat="50.79606" lon="2.63365">
        <ele>48.68</ele>
        <time>2017-08-04T09:18:13Z</time>
      </trkpt>
      <trkpt lat="50.79573" lon="2.63504">
        <ele>50.13</ele>
        <time>2017-08-04T09:18:31Z</time>
      </trkpt>
      <trkpt lat="50.79537" lon="2.63639">
        <ele>51.57</ele>
        <time>2017-08-04T09:18:52Z</time>
      </trkpt>
      <trkpt lat="50.79533" lon="2.6365">
        <ele>51.57</ele>
        <time>2017-08-04T09:18:54Z</time>
      </trkpt>
      <trkpt lat="50.79491" lon="2.63771">
        <ele>52.05</ele>
        <time>2017-08-04T09:19:13Z</time>
      </trkpt>
      <trkpt lat="50.7948" lon="2.63803">
        <ele>52.53</ele>
        <time>2017-08-04T09:19:18Z</time>
      </trkpt>
      <trkpt lat="50.79436" lon="2.63909">
        <ele>52.53</ele>
        <time>2017-08-04T09:19:34Z</time>
      </trkpt>
      <trkpt lat="50.79422" lon="2.63946">
        <ele>51.09</ele>
        <time>2017-08-04T09:19:39Z</time>
      </trkpt>
      <trkpt lat="50.79382" lon="2.6405">
        <ele>48.2</ele>
        <time>2017-08-04T09:19:53Z</time>
      </trkpt>
      <trkpt lat="50.79348" lon="2.64158">
        <ele>47.24</ele>
        <time>2017-08-04T09:20:07Z</time>
      </trkpt>
      <trkpt lat="50.79327" lon="2.64219">
        <ele>45.32</ele>
        <time>2017-08-04T09:20:14Z</time>
      </trkpt>
      <trkpt lat="50.7932" lon="2.64238">
        <ele>45.32</ele>
        <time>2017-08-04T09:20:17Z</time>
      </trkpt>
      <trkpt lat="50.79315" lon="2.64252">
        <ele>45.32</ele>
        <time>2017-08-04T09:20:24Z</time>
      </trkpt>
      <trkpt lat="50.79318" lon="2.64265">
        <ele>45.32</ele>
        <time>2017-08-04T09:20:29Z</time>
      </trkpt>
      <trkpt lat="50.79357" lon="2.64292">
        <ele>43.88</ele>
        <time>2017-08-04T09:20:40Z</time>
      </trkpt>
      <trkpt lat="50.79361" lon="2.64295">
        <ele>43.88</ele>
        <time>2017-08-04T09:20:41Z</time>
      </trkpt>
      <trkpt lat="50.79365" lon="2.64298">
        <ele>43.88</ele>
        <time>2017-08-04T09:20:42Z</time>
      </trkpt>
      <trkpt lat="50.79366" lon="2.64303">
        <ele>43.88</ele>
        <time>2017-08-04T09:20:43Z</time>
      </trkpt>
      <trkpt lat="50.79365" lon="2.6431">
        <ele>43.4</ele>
        <time>2017-08-04T09:20:44Z</time>
      </trkpt>
      <trkpt lat="50.79363" lon="2.64315">
        <ele>43.4</ele>
        <time>2017-08-04T09:20:45Z</time>
      </trkpt>
      <trkpt lat="50.79361" lon="2.6432">
        <ele>43.4</ele>
        <time>2017-08-04T09:20:46Z</time>
      </trkpt>
      <trkpt lat="50.79336" lon="2.64394">
        <ele>41.95</ele>
        <time>2017-08-04T09:20:56Z</time>
      </trkpt>
      <trkpt lat="50.79333" lon="2.64401">
        <ele>41.95</ele>
        <time>2017-08-04T09:20:57Z</time>
      </trkpt>
      <trkpt lat="50.79329" lon="2.64408">
        <ele>41.95</ele>
        <time>2017-08-04T09:20:58Z</time>
      </trkpt>
      <trkpt lat="50.79325" lon="2.64414">
        <ele>40.99</ele>
        <time>2017-08-04T09:20:59Z</time>
      </trkpt>
      <trkpt lat="50.7932" lon="2.64419">
        <ele>40.99</ele>
        <time>2017-08-04T09:21:00Z</time>
      </trkpt>
      <trkpt lat="50.79263" lon="2.64492">
        <ele>42.44</ele>
        <time>2017-08-04T09:21:16Z</time>
      </trkpt>
      <trkpt lat="50.79239" lon="2.64538">
        <ele>42.92</ele>
        <time>2017-08-04T09:21:27Z</time>
      </trkpt>
      <trkpt lat="50.79239" lon="2.64545">
        <ele>42.92</ele>
        <time>2017-08-04T09:21:28Z</time>
      </trkpt>
      <trkpt lat="50.79241" lon="2.64549">
        <ele>42.92</ele>
        <time>2017-08-04T09:21:29Z</time>
      </trkpt>
      <trkpt lat="50.79281" lon="2.64598">
        <ele>43.88</ele>
        <time>2017-08-04T09:21:42Z</time>
      </trkpt>
      <trkpt lat="50.7933" lon="2.64652">
        <ele>45.32</ele>
        <time>2017-08-04T09:21:58Z</time>
      </trkpt>
      <trkpt lat="50.79331" lon="2.64654">
        <ele>45.8</ele>
        <time>2017-08-04T09:22:05Z</time>
      </trkpt>
      <trkpt lat="50.7933" lon="2.64653">
        <ele>45.8</ele>
        <time>2017-08-04T09:22:06Z</time>
      </trkpt>
      <trkpt lat="50.79329" lon="2.64651">
        <ele>45.8</ele>
        <time>2017-08-04T09:22:07Z</time>
      </trkpt>
      <trkpt lat="50.79327" lon="2.64649">
        <ele>45.8</ele>
        <time>2017-08-04T09:22:08Z</time>
      </trkpt>
      <trkpt lat="50.79326" lon="2.64646">
        <ele>45.8</ele>
        <time>2017-08-04T09:22:09Z</time>
      </trkpt>
      <trkpt lat="50.79325" lon="2.64641">
        <ele>45.8</ele>
        <time>2017-08-04T09:22:10Z</time>
      </trkpt>
      <trkpt lat="50.79325" lon="2.64637">
        <ele>45.8</ele>
        <time>2017-08-04T09:22:11Z</time>
      </trkpt>
      <trkpt lat="50.79326" lon="2.64634">
        <ele>45.8</ele>
        <time>2017-08-04T09:22:12Z</time>
      </trkpt>
      <trkpt lat="50.79328" lon="2.64631">
        <ele>45.8</ele>
        <time>2017-08-04T09:22:13Z</time>
      </trkpt>
      <trkpt lat="50.79331" lon="2.64629">
        <ele>45.8</ele>
        <time>2017-08-04T09:22:14Z</time>
      </trkpt>
      <trkpt lat="50.79332" lon="2.64628">
        <ele>44.36</ele>
        <time>2017-08-04T09:22:15Z</time>
      </trkpt>
      <trkpt lat="50.79334" lon="2.64627">
        <ele>44.36</ele>
        <time>2017-08-04T09:22:16Z</time>
      </trkpt>
      <trkpt lat="50.79339" lon="2.64625">
        <ele>43.4</ele>
        <time>2017-08-04T09:22:18Z</time>
      </trkpt>
      <trkpt lat="50.79342" lon="2.64626">
        <ele>42.92</ele>
        <time>2017-08-04T09:22:19Z</time>
      </trkpt>
      <trkpt lat="50.79345" lon="2.64628">
        <ele>42.92</ele>
        <time>2017-08-04T09:22:20Z</time>
      </trkpt>
      <trkpt lat="50.79368" lon="2.64655">
        <ele>42.92</ele>
        <time>2017-08-04T09:22:34Z</time>
      </trkpt>
      <trkpt lat="50.79367" lon="2.64655">
        <ele>42.92</ele>
        <time>2017-08-04T09:22:35Z</time>
      </trkpt>
      <trkpt lat="50.79337" lon="2.64623">
        <ele>42.92</ele>
        <time>2017-08-04T09:22:51Z</time>
      </trkpt>
      <trkpt lat="50.79332" lon="2.64623">
        <ele>42.92</ele>
        <time>2017-08-04T09:22:53Z</time>
      </trkpt>
      <trkpt lat="50.79331" lon="2.64625">
        <ele>42.92</ele>
        <time>2017-08-04T09:22:54Z</time>
      </trkpt>
      <trkpt lat="50.79329" lon="2.64626">
        <ele>42.92</ele>
        <time>2017-08-04T09:22:55Z</time>
      </trkpt>
      <trkpt lat="50.79328" lon="2.64628">
        <ele>44.36</ele>
        <time>2017-08-04T09:22:56Z</time>
      </trkpt>
      <trkpt lat="50.79327" lon="2.6463">
        <ele>44.36</ele>
        <time>2017-08-04T09:22:57Z</time>
      </trkpt>
      <trkpt lat="50.79327" lon="2.64631">
        <ele>44.36</ele>
        <time>2017-08-04T09:22:58Z</time>
      </trkpt>
      <trkpt lat="50.79327" lon="2.64635">
        <ele>44.84</ele>
        <time>2017-08-04T09:23:00Z</time>
      </trkpt>
      <trkpt lat="50.79327" lon="2.6464">
        <ele>44.84</ele>
        <time>2017-08-04T09:23:04Z</time>
      </trkpt>
      <trkpt lat="50.79326" lon="2.6464">
        <ele>44.84</ele>
        <time>2017-08-04T09:23:05Z</time>
      </trkpt>
      <trkpt lat="50.79325" lon="2.64641">
        <ele>44.84</ele>
        <time>2017-08-04T09:23:06Z</time>
      </trkpt>
      <trkpt lat="50.79324" lon="2.64642">
        <ele>44.84</ele>
        <time>2017-08-04T09:23:07Z</time>
      </trkpt>
      <trkpt lat="50.79323" lon="2.64645">
        <ele>45.32</ele>
        <time>2017-08-04T09:23:21Z</time>
      </trkpt>
      <trkpt lat="50.79326" lon="2.64642">
        <ele>45.32</ele>
        <time>2017-08-04T09:23:29Z</time>
      </trkpt>
      <trkpt lat="50.79327" lon="2.64641">
        <ele>44.84</ele>
        <time>2017-08-04T09:23:30Z</time>
      </trkpt>
      <trkpt lat="50.7933" lon="2.64638">
        <ele>44.84</ele>
        <time>2017-08-04T09:23:31Z</time>
      </trkpt>
      <trkpt lat="50.79331" lon="2.64637">
        <ele>44.84</ele>
        <time>2017-08-04T09:23:32Z</time>
      </trkpt>
      <trkpt lat="50.79332" lon="2.64635">
        <ele>44.84</ele>
        <time>2017-08-04T09:23:33Z</time>
      </trkpt>
      <trkpt lat="50.79333" lon="2.64634">
        <ele>44.84</ele>
        <time>2017-08-04T09:23:34Z</time>
      </trkpt>
      <trkpt lat="50.79334" lon="2.6463">
        <ele>43.88</ele>
        <time>2017-08-04T09:23:47Z</time>
      </trkpt>
      <trkpt lat="50.79335" lon="2.64629">
        <ele>43.4</ele>
        <time>2017-08-04T09:23:57Z</time>
      </trkpt>
      <trkpt lat="50.79336" lon="2.64626">
        <ele>43.4</ele>
        <time>2017-08-04T09:23:58Z</time>
      </trkpt>
      <trkpt lat="50.79338" lon="2.64624">
        <ele>42.44</ele>
        <time>2017-08-04T09:23:59Z</time>
      </trkpt>
      <trkpt lat="50.79342" lon="2.64624">
        <ele>42.44</ele>
        <time>2017-08-04T09:24:00Z</time>
      </trkpt>
      <trkpt lat="50.79346" lon="2.64625">
        <ele>42.44</ele>
        <time>2017-08-04T09:24:01Z</time>
      </trkpt>
      <trkpt lat="50.79348" lon="2.64628">
        <ele>42.44</ele>
        <time>2017-08-04T09:24:02Z</time>
      </trkpt>
      <trkpt lat="50.79351" lon="2.64632">
        <ele>42.44</ele>
        <time>2017-08-04T09:24:03Z</time>
      </trkpt>
      <trkpt lat="50.79354" lon="2.64636">
        <ele>42.44</ele>
        <time>2017-08-04T09:24:04Z</time>
      </trkpt>
      <trkpt lat="50.79401" lon="2.64694">
        <ele>42.44</ele>
        <time>2017-08-04T09:24:18Z</time>
      </trkpt>
      <trkpt lat="50.7945" lon="2.64745">
        <ele>42.44</ele>
        <time>2017-08-04T09:24:32Z</time>
      </trkpt>
      <trkpt lat="50.79479" lon="2.64775">
        <ele>42.44</ele>
        <time>2017-08-04T09:24:44Z</time>
      </trkpt>
      <trkpt lat="50.7949" lon="2.64792">
        <ele>42.44</ele>
        <time>2017-08-04T09:24:55Z</time>
      </trkpt>
      <trkpt lat="50.79489" lon="2.64787">
        <ele>42.44</ele>
        <time>2017-08-04T09:25:00Z</time>
      </trkpt>
      <trkpt lat="50.79488" lon="2.64785">
        <ele>42.44</ele>
        <time>2017-08-04T09:25:01Z</time>
      </trkpt>
      <trkpt lat="50.79487" lon="2.64783">
        <ele>42.44</ele>
        <time>2017-08-04T09:25:02Z</time>
      </trkpt>
      <trkpt lat="50.79485" lon="2.64781">
        <ele>42.44</ele>
        <time>2017-08-04T09:25:03Z</time>
      </trkpt>
      <trkpt lat="50.79483" lon="2.64778">
        <ele>42.44</ele>
        <time>2017-08-04T09:25:04Z</time>
      </trkpt>
      <trkpt lat="50.79481" lon="2.64775">
        <ele>42.44</ele>
        <time>2017-08-04T09:25:05Z</time>
      </trkpt>
      <trkpt lat="50.79468" lon="2.64758">
        <ele>42.44</ele>
        <time>2017-08-04T09:25:11Z</time>
      </trkpt>
      <trkpt lat="50.79467" lon="2.64754">
        <ele>42.44</ele>
        <time>2017-08-04T09:25:12Z</time>
      </trkpt>
      <trkpt lat="50.79468" lon="2.64752">
        <ele>42.44</ele>
        <time>2017-08-04T09:25:13Z</time>
      </trkpt>
      <trkpt lat="50.7947" lon="2.6475">
        <ele>41.95</ele>
        <time>2017-08-04T09:25:24Z</time>
      </trkpt>
      <trkpt lat="50.79474" lon="2.64749">
        <ele>43.4</ele>
        <time>2017-08-04T09:25:39Z</time>
      </trkpt>
      <trkpt lat="50.79473" lon="2.64747">
        <ele>43.4</ele>
        <time>2017-08-04T09:25:40Z</time>
      </trkpt>
      <trkpt lat="50.79473" lon="2.64754">
        <ele>41.95</ele>
        <time>2017-08-04T09:25:52Z</time>
      </trkpt>
      <trkpt lat="50.79474" lon="2.64756">
        <ele>41.95</ele>
        <time>2017-08-04T09:25:56Z</time>
      </trkpt>
      <trkpt lat="50.79476" lon="2.64757">
        <ele>41.95</ele>
        <time>2017-08-04T09:25:57Z</time>
      </trkpt>
      <trkpt lat="50.79479" lon="2.64758">
        <ele>41.95</ele>
        <time>2017-08-04T09:25:58Z</time>
      </trkpt>
      <trkpt lat="50.79481" lon="2.64759">
        <ele>41.95</ele>
        <time>2017-08-04T09:25:59Z</time>
      </trkpt>
      <trkpt lat="50.79484" lon="2.6476">
        <ele>42.44</ele>
        <time>2017-08-04T09:26:08Z</time>
      </trkpt>
      <trkpt lat="50.79507" lon="2.64787">
        <ele>40.99</ele>
        <time>2017-08-04T09:26:17Z</time>
      </trkpt>
      <trkpt lat="50.79517" lon="2.64808">
        <ele>41.47</ele>
        <time>2017-08-04T09:26:21Z</time>
      </trkpt>
      <trkpt lat="50.7955" lon="2.6485">
        <ele>41.95</ele>
        <time>2017-08-04T09:26:31Z</time>
      </trkpt>
      <trkpt lat="50.79554" lon="2.64853">
        <ele>41.95</ele>
        <time>2017-08-04T09:26:32Z</time>
      </trkpt>
      <trkpt lat="50.79557" lon="2.64856">
        <ele>41.95</ele>
        <time>2017-08-04T09:26:33Z</time>
      </trkpt>
      <trkpt lat="50.79561" lon="2.6486">
        <ele>41.95</ele>
        <time>2017-08-04T09:26:34Z</time>
      </trkpt>
      <trkpt lat="50.79564" lon="2.64862">
        <ele>41.95</ele>
        <time>2017-08-04T09:26:35Z</time>
      </trkpt>
      <trkpt lat="50.79595" lon="2.64883">
        <ele>41.95</ele>
        <time>2017-08-04T09:26:43Z</time>
      </trkpt>
      <trkpt lat="50.79635" lon="2.64927">
        <ele>41.95</ele>
        <time>2017-08-04T09:26:54Z</time>
      </trkpt>
      <trkpt lat="50.79654" lon="2.64954">
        <ele>41.95</ele>
        <time>2017-08-04T09:27:00Z</time>
      </trkpt>
      <trkpt lat="50.79657" lon="2.64959">
        <ele>41.95</ele>
        <time>2017-08-04T09:27:01Z</time>
      </trkpt>
      <trkpt lat="50.79691" lon="2.64995">
        <ele>41.95</ele>
        <time>2017-08-04T09:27:13Z</time>
      </trkpt>
      <trkpt lat="50.79728" lon="2.65036">
        <ele>41.95</ele>
        <time>2017-08-04T09:27:26Z</time>
      </trkpt>
      <trkpt lat="50.79738" lon="2.65053">
        <ele>41.95</ele>
        <time>2017-08-04T09:27:30Z</time>
      </trkpt>
      <trkpt lat="50.79738" lon="2.65058">
        <ele>41.95</ele>
        <time>2017-08-04T09:27:31Z</time>
      </trkpt>
      <trkpt lat="50.79737" lon="2.65062">
        <ele>41.95</ele>
        <time>2017-08-04T09:27:32Z</time>
      </trkpt>
      <trkpt lat="50.79736" lon="2.65066">
        <ele>41.95</ele>
        <time>2017-08-04T09:27:33Z</time>
      </trkpt>
      <trkpt lat="50.79734" lon="2.65069">
        <ele>41.95</ele>
        <time>2017-08-04T09:27:34Z</time>
      </trkpt>
      <trkpt lat="50.79731" lon="2.65071">
        <ele>41.95</ele>
        <time>2017-08-04T09:27:35Z</time>
      </trkpt>
      <trkpt lat="50.79698" lon="2.6512">
        <ele>43.4</ele>
        <time>2017-08-04T09:27:49Z</time>
      </trkpt>
      <trkpt lat="50.79667" lon="2.65171">
        <ele>45.32</ele>
        <time>2017-08-04T09:28:02Z</time>
      </trkpt>
      <trkpt lat="50.7963" lon="2.65227">
        <ele>46.76</ele>
        <time>2017-08-04T09:28:18Z</time>
      </trkpt>
      <trkpt lat="50.79599" lon="2.65272">
        <ele>48.68</ele>
        <time>2017-08-04T09:28:33Z</time>
      </trkpt>
      <trkpt lat="50.7959" lon="2.65288">
        <ele>49.16</ele>
        <time>2017-08-04T09:28:39Z</time>
      </trkpt>
      <trkpt lat="50.79589" lon="2.65289">
        <ele>50.13</ele>
        <time>2017-08-04T09:28:40Z</time>
      </trkpt>
      <trkpt lat="50.79588" lon="2.6529">
        <ele>50.13</ele>
        <time>2017-08-04T09:28:41Z</time>
      </trkpt>
      <trkpt lat="50.79587" lon="2.6529">
        <ele>50.13</ele>
        <time>2017-08-04T09:28:42Z</time>
      </trkpt>
      <trkpt lat="50.79585" lon="2.65291">
        <ele>50.13</ele>
        <time>2017-08-04T09:28:44Z</time>
      </trkpt>
      <trkpt lat="50.79583" lon="2.65291">
        <ele>50.13</ele>
        <time>2017-08-04T09:28:45Z</time>
      </trkpt>
      <trkpt lat="50.79555" lon="2.65277">
        <ele>50.13</ele>
        <time>2017-08-04T09:28:56Z</time>
      </trkpt>
      <trkpt lat="50.79553" lon="2.65272">
        <ele>50.13</ele>
        <time>2017-08-04T09:28:57Z</time>
      </trkpt>
      <trkpt lat="50.79551" lon="2.65268">
        <ele>48.68</ele>
        <time>2017-08-04T09:28:58Z</time>
      </trkpt>
      <trkpt lat="50.79547" lon="2.65256">
        <ele>47.72</ele>
        <time>2017-08-04T09:29:00Z</time>
      </trkpt>
      <trkpt lat="50.79544" lon="2.6525">
        <ele>47.72</ele>
        <time>2017-08-04T09:29:01Z</time>
      </trkpt>
      <trkpt lat="50.79541" lon="2.65245">
        <ele>47.24</ele>
        <time>2017-08-04T09:29:02Z</time>
      </trkpt>
      <trkpt lat="50.79537" lon="2.65241">
        <ele>46.28</ele>
        <time>2017-08-04T09:29:03Z</time>
      </trkpt>
      <trkpt lat="50.79533" lon="2.6524">
        <ele>46.28</ele>
        <time>2017-08-04T09:29:04Z</time>
      </trkpt>
      <trkpt lat="50.79528" lon="2.65241">
        <ele>45.8</ele>
        <time>2017-08-04T09:29:05Z</time>
      </trkpt>
      <trkpt lat="50.79522" lon="2.65244">
        <ele>45.8</ele>
        <time>2017-08-04T09:29:06Z</time>
      </trkpt>
      <trkpt lat="50.79518" lon="2.65247">
        <ele>45.8</ele>
        <time>2017-08-04T09:29:07Z</time>
      </trkpt>
      <trkpt lat="50.79513" lon="2.65253">
        <ele>45.32</ele>
        <time>2017-08-04T09:29:08Z</time>
      </trkpt>
      <trkpt lat="50.79509" lon="2.65259">
        <ele>45.32</ele>
        <time>2017-08-04T09:29:09Z</time>
      </trkpt>
      <trkpt lat="50.79506" lon="2.65265">
        <ele>45.32</ele>
        <time>2017-08-04T09:29:10Z</time>
      </trkpt>
      <trkpt lat="50.79502" lon="2.65271">
        <ele>45.32</ele>
        <time>2017-08-04T09:29:11Z</time>
      </trkpt>
      <trkpt lat="50.79497" lon="2.65275">
        <ele>44.84</ele>
        <time>2017-08-04T09:29:12Z</time>
      </trkpt>
      <trkpt lat="50.79493" lon="2.65279">
        <ele>44.84</ele>
        <time>2017-08-04T09:29:13Z</time>
      </trkpt>
      <trkpt lat="50.79477" lon="2.65293">
        <ele>44.84</ele>
        <time>2017-08-04T09:29:16Z</time>
      </trkpt>
      <trkpt lat="50.79473" lon="2.65297">
        <ele>44.84</ele>
        <time>2017-08-04T09:29:17Z</time>
      </trkpt>
      <trkpt lat="50.79469" lon="2.65304">
        <ele>44.84</ele>
        <time>2017-08-04T09:29:18Z</time>
      </trkpt>
      <trkpt lat="50.79463" lon="2.65316">
        <ele>44.84</ele>
        <time>2017-08-04T09:29:20Z</time>
      </trkpt>
      <trkpt lat="50.79454" lon="2.65337">
        <ele>46.76</ele>
        <time>2017-08-04T09:29:24Z</time>
      </trkpt>
      <trkpt lat="50.79431" lon="2.65381">
        <ele>49.16</ele>
        <time>2017-08-04T09:29:36Z</time>
      </trkpt>
      <trkpt lat="50.79405" lon="2.65401">
        <ele>51.09</ele>
        <time>2017-08-04T09:29:49Z</time>
      </trkpt>
      <trkpt lat="50.79376" lon="2.6542">
        <ele>52.53</ele>
        <time>2017-08-04T09:30:03Z</time>
      </trkpt>
      <trkpt lat="50.79341" lon="2.65441">
        <ele>53.97</ele>
        <time>2017-08-04T09:30:19Z</time>
      </trkpt>
      <trkpt lat="50.79306" lon="2.65459">
        <ele>55.89</ele>
        <time>2017-08-04T09:30:34Z</time>
      </trkpt>
      <trkpt lat="50.79279" lon="2.65476">
        <ele>58.3</ele>
        <time>2017-08-04T09:30:48Z</time>
      </trkpt>
      <trkpt lat="50.79253" lon="2.6549">
        <ele>59.74</ele>
        <time>2017-08-04T09:31:01Z</time>
      </trkpt>
      <trkpt lat="50.79226" lon="2.65507">
        <ele>61.66</ele>
        <time>2017-08-04T09:31:16Z</time>
      </trkpt>
      <trkpt lat="50.79206" lon="2.6552">
        <ele>63.58</ele>
        <time>2017-08-04T09:31:27Z</time>
      </trkpt>
      <trkpt lat="50.792" lon="2.65525">
        <ele>64.07</ele>
        <time>2017-08-04T09:31:31Z</time>
      </trkpt>
      <trkpt lat="50.79198" lon="2.65527">
        <ele>64.07</ele>
        <time>2017-08-04T09:31:32Z</time>
      </trkpt>
      <trkpt lat="50.79196" lon="2.65528">
        <ele>64.07</ele>
        <time>2017-08-04T09:31:33Z</time>
      </trkpt>
      <trkpt lat="50.79194" lon="2.65529">
        <ele>64.07</ele>
        <time>2017-08-04T09:31:34Z</time>
      </trkpt>
      <trkpt lat="50.79192" lon="2.6553">
        <ele>64.55</ele>
        <time>2017-08-04T09:31:35Z</time>
      </trkpt>
      <trkpt lat="50.7919" lon="2.65531">
        <ele>64.55</ele>
        <time>2017-08-04T09:31:36Z</time>
      </trkpt>
      <trkpt lat="50.79188" lon="2.65531">
        <ele>64.55</ele>
        <time>2017-08-04T09:31:37Z</time>
      </trkpt>
      <trkpt lat="50.79159" lon="2.65548">
        <ele>67.91</ele>
        <time>2017-08-04T09:31:52Z</time>
      </trkpt>
      <trkpt lat="50.79138" lon="2.65567">
        <ele>70.31</ele>
        <time>2017-08-04T09:32:07Z</time>
      </trkpt>
      <trkpt lat="50.79119" lon="2.65583">
        <ele>73.2</ele>
        <time>2017-08-04T09:32:20Z</time>
      </trkpt>
      <trkpt lat="50.79117" lon="2.65584">
        <ele>73.2</ele>
        <time>2017-08-04T09:32:21Z</time>
      </trkpt>
      <trkpt lat="50.79116" lon="2.65585">
        <ele>73.2</ele>
        <time>2017-08-04T09:32:22Z</time>
      </trkpt>
      <trkpt lat="50.79114" lon="2.65587">
        <ele>73.68</ele>
        <time>2017-08-04T09:32:23Z</time>
      </trkpt>
      <trkpt lat="50.79113" lon="2.65588">
        <ele>73.68</ele>
        <time>2017-08-04T09:32:24Z</time>
      </trkpt>
      <trkpt lat="50.79112" lon="2.65589">
        <ele>74.16</ele>
        <time>2017-08-04T09:32:25Z</time>
      </trkpt>
      <trkpt lat="50.7911" lon="2.6559">
        <ele>74.16</ele>
        <time>2017-08-04T09:32:26Z</time>
      </trkpt>
      <trkpt lat="50.79109" lon="2.65591">
        <ele>74.16</ele>
        <time>2017-08-04T09:32:27Z</time>
      </trkpt>
      <trkpt lat="50.79107" lon="2.65593">
        <ele>74.64</ele>
        <time>2017-08-04T09:32:28Z</time>
      </trkpt>
      <trkpt lat="50.79106" lon="2.65594">
        <ele>74.64</ele>
        <time>2017-08-04T09:32:29Z</time>
      </trkpt>
      <trkpt lat="50.79105" lon="2.65595">
        <ele>75.12</ele>
        <time>2017-08-04T09:32:30Z</time>
      </trkpt>
      <trkpt lat="50.79103" lon="2.65597">
        <ele>75.12</ele>
        <time>2017-08-04T09:32:31Z</time>
      </trkpt>
      <trkpt lat="50.79102" lon="2.65598">
        <ele>75.6</ele>
        <time>2017-08-04T09:32:32Z</time>
      </trkpt>
      <trkpt lat="50.791" lon="2.65599">
        <ele>75.6</ele>
        <time>2017-08-04T09:32:33Z</time>
      </trkpt>
      <trkpt lat="50.79099" lon="2.65601">
        <ele>75.6</ele>
        <time>2017-08-04T09:32:34Z</time>
      </trkpt>
      <trkpt lat="50.79079" lon="2.65616">
        <ele>77.04</ele>
        <time>2017-08-04T09:32:47Z</time>
      </trkpt>
      <trkpt lat="50.7904" lon="2.65646">
        <ele>77.04</ele>
        <time>2017-08-04T09:33:01Z</time>
      </trkpt>
      <trkpt lat="50.78997" lon="2.65674">
        <ele>77.52</ele>
        <time>2017-08-04T09:33:17Z</time>
      </trkpt>
      <trkpt lat="50.78978" lon="2.6569">
        <ele>79.45</ele>
        <time>2017-08-04T09:33:29Z</time>
      </trkpt>
      <trkpt lat="50.78958" lon="2.65698">
        <ele>81.85</ele>
        <time>2017-08-04T09:33:40Z</time>
      </trkpt>
      <trkpt lat="50.78956" lon="2.65699">
        <ele>81.85</ele>
        <time>2017-08-04T09:33:41Z</time>
      </trkpt>
      <trkpt lat="50.78955" lon="2.65699">
        <ele>81.85</ele>
        <time>2017-08-04T09:33:42Z</time>
      </trkpt>
      <trkpt lat="50.78933" lon="2.657">
        <ele>84.25</ele>
        <time>2017-08-04T09:33:55Z</time>
      </trkpt>
      <trkpt lat="50.78924" lon="2.65701">
        <ele>84.73</ele>
        <time>2017-08-04T09:34:01Z</time>
      </trkpt>
      <trkpt lat="50.78923" lon="2.65702">
        <ele>84.73</ele>
        <time>2017-08-04T09:34:02Z</time>
      </trkpt>
      <trkpt lat="50.78921" lon="2.65703">
        <ele>84.73</ele>
        <time>2017-08-04T09:34:03Z</time>
      </trkpt>
      <trkpt lat="50.78919" lon="2.65703">
        <ele>85.21</ele>
        <time>2017-08-04T09:34:04Z</time>
      </trkpt>
      <trkpt lat="50.78917" lon="2.65703">
        <ele>85.69</ele>
        <time>2017-08-04T09:34:05Z</time>
      </trkpt>
      <trkpt lat="50.78913" lon="2.65704">
        <ele>86.18</ele>
        <time>2017-08-04T09:34:08Z</time>
      </trkpt>
      <trkpt lat="50.78912" lon="2.65705">
        <ele>86.18</ele>
        <time>2017-08-04T09:34:09Z</time>
      </trkpt>
      <trkpt lat="50.78906" lon="2.65709">
        <ele>86.66</ele>
        <time>2017-08-04T09:34:13Z</time>
      </trkpt>
      <trkpt lat="50.78904" lon="2.6571">
        <ele>86.66</ele>
        <time>2017-08-04T09:34:14Z</time>
      </trkpt>
      <trkpt lat="50.78903" lon="2.65711">
        <ele>86.66</ele>
        <time>2017-08-04T09:34:15Z</time>
      </trkpt>
      <trkpt lat="50.78901" lon="2.65711">
        <ele>86.66</ele>
        <time>2017-08-04T09:34:16Z</time>
      </trkpt>
      <trkpt lat="50.78899" lon="2.65712">
        <ele>87.14</ele>
        <time>2017-08-04T09:34:17Z</time>
      </trkpt>
      <trkpt lat="50.78887" lon="2.6572">
        <ele>88.1</ele>
        <time>2017-08-04T09:34:28Z</time>
      </trkpt>
      <trkpt lat="50.78865" lon="2.65727">
        <ele>90.02</ele>
        <time>2017-08-04T09:34:41Z</time>
      </trkpt>
      <trkpt lat="50.78847" lon="2.65732">
        <ele>91.46</ele>
        <time>2017-08-04T09:34:53Z</time>
      </trkpt>
      <trkpt lat="50.78825" lon="2.65746">
        <ele>93.87</ele>
        <time>2017-08-04T09:35:05Z</time>
      </trkpt>
      <trkpt lat="50.78809" lon="2.65744">
        <ele>96.27</ele>
        <time>2017-08-04T09:35:16Z</time>
      </trkpt>
      <trkpt lat="50.78807" lon="2.65743">
        <ele>96.75</ele>
        <time>2017-08-04T09:35:17Z</time>
      </trkpt>
      <trkpt lat="50.78806" lon="2.65742">
        <ele>97.23</ele>
        <time>2017-08-04T09:35:18Z</time>
      </trkpt>
      <trkpt lat="50.78803" lon="2.65742">
        <ele>96.75</ele>
        <time>2017-08-04T09:35:19Z</time>
      </trkpt>
      <trkpt lat="50.78801" lon="2.65741">
        <ele>97.71</ele>
        <time>2017-08-04T09:35:20Z</time>
      </trkpt>
      <trkpt lat="50.78799" lon="2.6574">
        <ele>97.71</ele>
        <time>2017-08-04T09:35:21Z</time>
      </trkpt>
      <trkpt lat="50.78798" lon="2.65739">
        <ele>97.71</ele>
        <time>2017-08-04T09:35:22Z</time>
      </trkpt>
      <trkpt lat="50.78796" lon="2.65737">
        <ele>97.71</ele>
        <time>2017-08-04T09:35:23Z</time>
      </trkpt>
      <trkpt lat="50.78785" lon="2.6572">
        <ele>99.63</ele>
        <time>2017-08-04T09:35:32Z</time>
      </trkpt>
      <trkpt lat="50.78783" lon="2.65718">
        <ele>99.63</ele>
        <time>2017-08-04T09:35:33Z</time>
      </trkpt>
      <trkpt lat="50.78782" lon="2.65717">
        <ele>99.63</ele>
        <time>2017-08-04T09:35:34Z</time>
      </trkpt>
      <trkpt lat="50.78781" lon="2.65716">
        <ele>99.63</ele>
        <time>2017-08-04T09:35:35Z</time>
      </trkpt>
      <trkpt lat="50.7878" lon="2.65715">
        <ele>99.63</ele>
        <time>2017-08-04T09:35:36Z</time>
      </trkpt>
      <trkpt lat="50.78774" lon="2.6571">
        <ele>101.08</ele>
        <time>2017-08-04T09:35:40Z</time>
      </trkpt>
      <trkpt lat="50.78761" lon="2.65713">
        <ele>102.04</ele>
        <time>2017-08-04T09:35:51Z</time>
      </trkpt>
      <trkpt lat="50.78746" lon="2.65729">
        <ele>103.96</ele>
        <time>2017-08-04T09:36:06Z</time>
      </trkpt>
      <trkpt lat="50.78732" lon="2.65737">
        <ele>105.88</ele>
        <time>2017-08-04T09:36:18Z</time>
      </trkpt>
      <trkpt lat="50.78731" lon="2.65739">
        <ele>106.36</ele>
        <time>2017-08-04T09:36:19Z</time>
      </trkpt>
      <trkpt lat="50.7873" lon="2.6574">
        <ele>106.36</ele>
        <time>2017-08-04T09:36:20Z</time>
      </trkpt>
      <trkpt lat="50.78729" lon="2.65742">
        <ele>106.84</ele>
        <time>2017-08-04T09:36:21Z</time>
      </trkpt>
      <trkpt lat="50.78728" lon="2.65744">
        <ele>106.36</ele>
        <time>2017-08-04T09:36:22Z</time>
      </trkpt>
      <trkpt lat="50.78727" lon="2.65746">
        <ele>106.84</ele>
        <time>2017-08-04T09:36:23Z</time>
      </trkpt>
      <trkpt lat="50.78727" lon="2.65748">
        <ele>107.32</ele>
        <time>2017-08-04T09:36:24Z</time>
      </trkpt>
      <trkpt lat="50.78722" lon="2.6576">
        <ele>107.81</ele>
        <time>2017-08-04T09:36:38Z</time>
      </trkpt>
      <trkpt lat="50.78717" lon="2.65764">
        <ele>108.29</ele>
        <time>2017-08-04T09:37:04Z</time>
      </trkpt>
      <trkpt lat="50.78715" lon="2.65768">
        <ele>108.77</ele>
        <time>2017-08-04T09:37:33Z</time>
      </trkpt>
      <trkpt lat="50.78715" lon="2.65767">
        <ele>108.77</ele>
        <time>2017-08-04T09:37:56Z</time>
      </trkpt>
      <trkpt lat="50.78714" lon="2.65767">
        <ele>109.25</ele>
        <time>2017-08-04T09:38:10Z</time>
      </trkpt>
      <trkpt lat="50.78716" lon="2.6577">
        <ele>109.25</ele>
        <time>2017-08-04T09:38:24Z</time>
      </trkpt>
      <trkpt lat="50.78716" lon="2.65772">
        <ele>109.25</ele>
        <time>2017-08-04T09:38:25Z</time>
      </trkpt>
      <trkpt lat="50.78717" lon="2.65819">
        <ele>111.17</ele>
        <time>2017-08-04T09:38:43Z</time>
      </trkpt>
      <trkpt lat="50.78705" lon="2.65854">
        <ele>114.53</ele>
        <time>2017-08-04T09:39:00Z</time>
      </trkpt>
      <trkpt lat="50.78692" lon="2.65885">
        <ele>116.46</ele>
        <time>2017-08-04T09:39:17Z</time>
      </trkpt>
      <trkpt lat="50.78681" lon="2.65911">
        <ele>118.38</ele>
        <time>2017-08-04T09:39:30Z</time>
      </trkpt>
      <trkpt lat="50.78667" lon="2.65943">
        <ele>120.78</ele>
        <time>2017-08-04T09:39:45Z</time>
      </trkpt>
      <trkpt lat="50.78649" lon="2.65983">
        <ele>123.67</ele>
        <time>2017-08-04T09:40:03Z</time>
      </trkpt>
      <trkpt lat="50.78638" lon="2.66018">
        <ele>126.07</ele>
        <time>2017-08-04T09:40:18Z</time>
      </trkpt>
      <trkpt lat="50.78628" lon="2.66052">
        <ele>127.99</ele>
        <time>2017-08-04T09:40:33Z</time>
      </trkpt>
      <trkpt lat="50.78614" lon="2.66093">
        <ele>129.92</ele>
        <time>2017-08-04T09:40:51Z</time>
      </trkpt>
      <trkpt lat="50.78614" lon="2.66097">
        <ele>129.92</ele>
        <time>2017-08-04T09:40:52Z</time>
      </trkpt>
      <trkpt lat="50.78613" lon="2.66099">
        <ele>129.92</ele>
        <time>2017-08-04T09:40:53Z</time>
      </trkpt>
      <trkpt lat="50.78613" lon="2.66102">
        <ele>130.4</ele>
        <time>2017-08-04T09:40:54Z</time>
      </trkpt>
      <trkpt lat="50.78613" lon="2.66104">
        <ele>130.4</ele>
        <time>2017-08-04T09:40:55Z</time>
      </trkpt>
      <trkpt lat="50.78614" lon="2.66108">
        <ele>130.4</ele>
        <time>2017-08-04T09:40:56Z</time>
      </trkpt>
      <trkpt lat="50.78614" lon="2.6611">
        <ele>130.88</ele>
        <time>2017-08-04T09:40:57Z</time>
      </trkpt>
      <trkpt lat="50.7862" lon="2.66155">
        <ele>132.32</ele>
        <time>2017-08-04T09:41:15Z</time>
      </trkpt>
      <trkpt lat="50.78629" lon="2.66202">
        <ele>133.76</ele>
        <time>2017-08-04T09:41:30Z</time>
      </trkpt>
      <trkpt lat="50.78635" lon="2.6624">
        <ele>135.2</ele>
        <time>2017-08-04T09:41:41Z</time>
      </trkpt>
      <trkpt lat="50.7864" lon="2.66288">
        <ele>136.64</ele>
        <time>2017-08-04T09:41:54Z</time>
      </trkpt>
      <trkpt lat="50.78642" lon="2.66349">
        <ele>139.05</ele>
        <time>2017-08-04T09:42:12Z</time>
      </trkpt>
      <trkpt lat="50.78644" lon="2.66406">
        <ele>140.97</ele>
        <time>2017-08-04T09:42:29Z</time>
      </trkpt>
      <trkpt lat="50.78647" lon="2.66467">
        <ele>143.85</ele>
        <time>2017-08-04T09:42:49Z</time>
      </trkpt>
      <trkpt lat="50.78648" lon="2.66523">
        <ele>145.78</ele>
        <time>2017-08-04T09:43:08Z</time>
      </trkpt>
      <trkpt lat="50.78649" lon="2.6657">
        <ele>148.18</ele>
        <time>2017-08-04T09:43:24Z</time>
      </trkpt>
      <trkpt lat="50.78637" lon="2.66603">
        <ele>150.58</ele>
        <time>2017-08-04T09:43:38Z</time>
      </trkpt>
      <trkpt lat="50.7861" lon="2.66622">
        <ele>152.99</ele>
        <time>2017-08-04T09:43:55Z</time>
      </trkpt>
      <trkpt lat="50.78588" lon="2.66615">
        <ele>154.43</ele>
        <time>2017-08-04T09:44:09Z</time>
      </trkpt>
      <trkpt lat="50.78562" lon="2.66604">
        <ele>156.83</ele>
        <time>2017-08-04T09:44:25Z</time>
      </trkpt>
      <trkpt lat="50.78554" lon="2.66603">
        <ele>157.31</ele>
        <time>2017-08-04T09:44:30Z</time>
      </trkpt>
      <trkpt lat="50.78552" lon="2.66603">
        <ele>157.79</ele>
        <time>2017-08-04T09:44:31Z</time>
      </trkpt>
      <trkpt lat="50.78521" lon="2.66604">
        <ele>158.75</ele>
        <time>2017-08-04T09:44:45Z</time>
      </trkpt>
      <trkpt lat="50.78487" lon="2.66609">
        <ele>160.2</ele>
        <time>2017-08-04T09:45:01Z</time>
      </trkpt>
      <trkpt lat="50.78453" lon="2.66631">
        <ele>161.16</ele>
        <time>2017-08-04T09:45:18Z</time>
      </trkpt>
      <trkpt lat="50.78434" lon="2.66685">
        <ele>161.16</ele>
        <time>2017-08-04T09:45:32Z</time>
      </trkpt>
      <trkpt lat="50.78416" lon="2.66741">
        <ele>161.64</ele>
        <time>2017-08-04T09:45:46Z</time>
      </trkpt>
      <trkpt lat="50.78396" lon="2.66759">
        <ele>162.12</ele>
        <time>2017-08-04T09:45:56Z</time>
      </trkpt>
      <trkpt lat="50.78395" lon="2.66761">
        <ele>162.12</ele>
        <time>2017-08-04T09:45:57Z</time>
      </trkpt>
      <trkpt lat="50.78395" lon="2.66763">
        <ele>162.12</ele>
        <time>2017-08-04T09:45:58Z</time>
      </trkpt>
      <trkpt lat="50.78396" lon="2.66765">
        <ele>162.12</ele>
        <time>2017-08-04T09:45:59Z</time>
      </trkpt>
      <trkpt lat="50.78397" lon="2.66766">
        <ele>162.12</ele>
        <time>2017-08-04T09:46:00Z</time>
      </trkpt>
      <trkpt lat="50.78399" lon="2.66765">
        <ele>162.12</ele>
        <time>2017-08-04T09:46:01Z</time>
      </trkpt>
      <trkpt lat="50.78406" lon="2.66761">
        <ele>162.12</ele>
        <time>2017-08-04T09:46:06Z</time>
      </trkpt>
      <trkpt lat="50.78407" lon="2.66759">
        <ele>162.12</ele>
        <time>2017-08-04T09:46:07Z</time>
      </trkpt>
      <trkpt lat="50.78407" lon="2.66757">
        <ele>162.12</ele>
        <time>2017-08-04T09:46:08Z</time>
      </trkpt>
      <trkpt lat="50.78409" lon="2.66755">
        <ele>162.12</ele>
        <time>2017-08-04T09:46:09Z</time>
      </trkpt>
      <trkpt lat="50.7841" lon="2.66754">
        <ele>162.12</ele>
        <time>2017-08-04T09:46:10Z</time>
      </trkpt>
      <trkpt lat="50.78415" lon="2.6675">
        <ele>162.12</ele>
        <time>2017-08-04T09:46:14Z</time>
      </trkpt>
      <trkpt lat="50.78416" lon="2.66752">
        <ele>162.12</ele>
        <time>2017-08-04T09:46:16Z</time>
      </trkpt>
      <trkpt lat="50.78417" lon="2.66757">
        <ele>162.12</ele>
        <time>2017-08-04T09:46:30Z</time>
      </trkpt>
      <trkpt lat="50.78413" lon="2.6676">
        <ele>162.12</ele>
        <time>2017-08-04T09:46:54Z</time>
      </trkpt>
      <trkpt lat="50.78412" lon="2.66765">
        <ele>162.12</ele>
        <time>2017-08-04T09:47:12Z</time>
      </trkpt>
      <trkpt lat="50.78411" lon="2.66767">
        <ele>162.12</ele>
        <time>2017-08-04T09:47:13Z</time>
      </trkpt>
      <trkpt lat="50.78411" lon="2.66769">
        <ele>162.12</ele>
        <time>2017-08-04T09:47:14Z</time>
      </trkpt>
      <trkpt lat="50.78412" lon="2.66772">
        <ele>160.68</ele>
        <time>2017-08-04T09:47:15Z</time>
      </trkpt>
      <trkpt lat="50.78411" lon="2.66773">
        <ele>160.68</ele>
        <time>2017-08-04T09:47:16Z</time>
      </trkpt>
      <trkpt lat="50.78407" lon="2.668">
        <ele>159.24</ele>
        <time>2017-08-04T09:47:27Z</time>
      </trkpt>
      <trkpt lat="50.78404" lon="2.66838">
        <ele>158.27</ele>
        <time>2017-08-04T09:47:36Z</time>
      </trkpt>
      <trkpt lat="50.78405" lon="2.66859">
        <ele>156.35</ele>
        <time>2017-08-04T09:47:39Z</time>
      </trkpt>
      <trkpt lat="50.78403" lon="2.66865">
        <ele>156.35</ele>
        <time>2017-08-04T09:47:40Z</time>
      </trkpt>
      <trkpt lat="50.78399" lon="2.66886">
        <ele>155.39</ele>
        <time>2017-08-04T09:47:43Z</time>
      </trkpt>
      <trkpt lat="50.78399" lon="2.66892">
        <ele>155.39</ele>
        <time>2017-08-04T09:47:44Z</time>
      </trkpt>
      <trkpt lat="50.78399" lon="2.66899">
        <ele>155.39</ele>
        <time>2017-08-04T09:47:45Z</time>
      </trkpt>
      <trkpt lat="50.78396" lon="2.66933">
        <ele>158.27</ele>
        <time>2017-08-04T09:47:52Z</time>
      </trkpt>
      <trkpt lat="50.78395" lon="2.66935">
        <ele>158.27</ele>
        <time>2017-08-04T09:47:53Z</time>
      </trkpt>
      <trkpt lat="50.78394" lon="2.66938">
        <ele>158.27</ele>
        <time>2017-08-04T09:47:54Z</time>
      </trkpt>
      <trkpt lat="50.78393" lon="2.66941">
        <ele>158.27</ele>
        <time>2017-08-04T09:47:55Z</time>
      </trkpt>
      <trkpt lat="50.7839" lon="2.66955">
        <ele>159.24</ele>
        <time>2017-08-04T09:48:08Z</time>
      </trkpt>
      <trkpt lat="50.78385" lon="2.66966">
        <ele>159.24</ele>
        <time>2017-08-04T09:48:24Z</time>
      </trkpt>
      <trkpt lat="50.78384" lon="2.6697">
        <ele>159.24</ele>
        <time>2017-08-04T09:48:25Z</time>
      </trkpt>
      <trkpt lat="50.78384" lon="2.66973">
        <ele>159.24</ele>
        <time>2017-08-04T09:48:26Z</time>
      </trkpt>
      <trkpt lat="50.78382" lon="2.66976">
        <ele>159.24</ele>
        <time>2017-08-04T09:48:27Z</time>
      </trkpt>
      <trkpt lat="50.78381" lon="2.6698">
        <ele>159.24</ele>
        <time>2017-08-04T09:48:28Z</time>
      </trkpt>
      <trkpt lat="50.78381" lon="2.66985">
        <ele>159.24</ele>
        <time>2017-08-04T09:48:29Z</time>
      </trkpt>
      <trkpt lat="50.7838" lon="2.6699">
        <ele>159.24</ele>
        <time>2017-08-04T09:48:30Z</time>
      </trkpt>
      <trkpt lat="50.78378" lon="2.66996">
        <ele>159.24</ele>
        <time>2017-08-04T09:48:31Z</time>
      </trkpt>
      <trkpt lat="50.78378" lon="2.67002">
        <ele>159.24</ele>
        <time>2017-08-04T09:48:32Z</time>
      </trkpt>
      <trkpt lat="50.78377" lon="2.67007">
        <ele>157.79</ele>
        <time>2017-08-04T09:48:33Z</time>
      </trkpt>
      <trkpt lat="50.78377" lon="2.67012">
        <ele>157.31</ele>
        <time>2017-08-04T09:48:34Z</time>
      </trkpt>
      <trkpt lat="50.78377" lon="2.67018">
        <ele>156.83</ele>
        <time>2017-08-04T09:48:35Z</time>
      </trkpt>
      <trkpt lat="50.78376" lon="2.67023">
        <ele>156.35</ele>
        <time>2017-08-04T09:48:36Z</time>
      </trkpt>
      <trkpt lat="50.78376" lon="2.67029">
        <ele>155.39</ele>
        <time>2017-08-04T09:48:37Z</time>
      </trkpt>
      <trkpt lat="50.78376" lon="2.67034">
        <ele>154.43</ele>
        <time>2017-08-04T09:48:38Z</time>
      </trkpt>
      <trkpt lat="50.78375" lon="2.6704">
        <ele>154.43</ele>
        <time>2017-08-04T09:48:39Z</time>
      </trkpt>
      <trkpt lat="50.78375" lon="2.67045">
        <ele>154.43</ele>
        <time>2017-08-04T09:48:40Z</time>
      </trkpt>
      <trkpt lat="50.78375" lon="2.67049">
        <ele>153.95</ele>
        <time>2017-08-04T09:48:41Z</time>
      </trkpt>
      <trkpt lat="50.78377" lon="2.67053">
        <ele>153.95</ele>
        <time>2017-08-04T09:48:42Z</time>
      </trkpt>
      <trkpt lat="50.78378" lon="2.67056">
        <ele>153.47</ele>
        <time>2017-08-04T09:48:43Z</time>
      </trkpt>
      <trkpt lat="50.78379" lon="2.6706">
        <ele>152.99</ele>
        <time>2017-08-04T09:48:44Z</time>
      </trkpt>
      <trkpt lat="50.78381" lon="2.67064">
        <ele>152.51</ele>
        <time>2017-08-04T09:48:45Z</time>
      </trkpt>
      <trkpt lat="50.78382" lon="2.67068">
        <ele>151.54</ele>
        <time>2017-08-04T09:48:46Z</time>
      </trkpt>
      <trkpt lat="50.78382" lon="2.67071">
        <ele>151.54</ele>
        <time>2017-08-04T09:48:47Z</time>
      </trkpt>
      <trkpt lat="50.78383" lon="2.67074">
        <ele>151.06</ele>
        <time>2017-08-04T09:48:48Z</time>
      </trkpt>
      <trkpt lat="50.78384" lon="2.67082">
        <ele>150.58</ele>
        <time>2017-08-04T09:48:51Z</time>
      </trkpt>
      <trkpt lat="50.78383" lon="2.67095">
        <ele>149.62</ele>
        <time>2017-08-04T09:49:04Z</time>
      </trkpt>
      <trkpt lat="50.78382" lon="2.67101">
        <ele>149.14</ele>
        <time>2017-08-04T09:49:25Z</time>
      </trkpt>
      <trkpt lat="50.78381" lon="2.67101">
        <ele>150.58</ele>
        <time>2017-08-04T09:49:31Z</time>
      </trkpt>
      <trkpt lat="50.78378" lon="2.67102">
        <ele>150.58</ele>
        <time>2017-08-04T09:49:53Z</time>
      </trkpt>
      <trkpt lat="50.78379" lon="2.67104">
        <ele>150.58</ele>
        <time>2017-08-04T09:49:54Z</time>
      </trkpt>
      <trkpt lat="50.7838" lon="2.67107">
        <ele>149.62</ele>
        <time>2017-08-04T09:49:55Z</time>
      </trkpt>
      <trkpt lat="50.7838" lon="2.67111">
        <ele>149.62</ele>
        <time>2017-08-04T09:49:56Z</time>
      </trkpt>
      <trkpt lat="50.78379" lon="2.67118">
        <ele>148.66</ele>
        <time>2017-08-04T09:49:58Z</time>
      </trkpt>
      <trkpt lat="50.78381" lon="2.6712">
        <ele>148.66</ele>
        <time>2017-08-04T09:49:59Z</time>
      </trkpt>
      <trkpt lat="50.78389" lon="2.67123">
        <ele>146.74</ele>
        <time>2017-08-04T09:50:02Z</time>
      </trkpt>
      <trkpt lat="50.78392" lon="2.67122">
        <ele>146.74</ele>
        <time>2017-08-04T09:50:03Z</time>
      </trkpt>
      <trkpt lat="50.78402" lon="2.67127">
        <ele>145.3</ele>
        <time>2017-08-04T09:50:12Z</time>
      </trkpt>
      <trkpt lat="50.78403" lon="2.67133">
        <ele>145.3</ele>
        <time>2017-08-04T09:50:19Z</time>
      </trkpt>
      <trkpt lat="50.78403" lon="2.67135">
        <ele>145.3</ele>
        <time>2017-08-04T09:50:20Z</time>
      </trkpt>
      <trkpt lat="50.78403" lon="2.67137">
        <ele>145.3</ele>
        <time>2017-08-04T09:50:21Z</time>
      </trkpt>
      <trkpt lat="50.78402" lon="2.67139">
        <ele>145.3</ele>
        <time>2017-08-04T09:50:22Z</time>
      </trkpt>
      <trkpt lat="50.784" lon="2.6715">
        <ele>144.34</ele>
        <time>2017-08-04T09:50:34Z</time>
      </trkpt>
      <trkpt lat="50.78403" lon="2.67153">
        <ele>143.37</ele>
        <time>2017-08-04T09:50:40Z</time>
      </trkpt>
      <trkpt lat="50.78404" lon="2.6716">
        <ele>141.93</ele>
        <time>2017-08-04T09:50:44Z</time>
      </trkpt>
      <trkpt lat="50.78404" lon="2.67164">
        <ele>140.01</ele>
        <time>2017-08-04T09:50:45Z</time>
      </trkpt>
      <trkpt lat="50.78403" lon="2.67168">
        <ele>139.05</ele>
        <time>2017-08-04T09:50:46Z</time>
      </trkpt>
      <trkpt lat="50.78403" lon="2.67171">
        <ele>139.05</ele>
        <time>2017-08-04T09:50:47Z</time>
      </trkpt>
      <trkpt lat="50.78402" lon="2.67173">
        <ele>139.05</ele>
        <time>2017-08-04T09:50:48Z</time>
      </trkpt>
      <trkpt lat="50.78399" lon="2.67177">
        <ele>138.57</ele>
        <time>2017-08-04T09:50:49Z</time>
      </trkpt>
      <trkpt lat="50.78397" lon="2.67181">
        <ele>138.57</ele>
        <time>2017-08-04T09:50:50Z</time>
      </trkpt>
      <trkpt lat="50.78394" lon="2.67185">
        <ele>138.09</ele>
        <time>2017-08-04T09:50:51Z</time>
      </trkpt>
      <trkpt lat="50.78392" lon="2.67188">
        <ele>138.09</ele>
        <time>2017-08-04T09:50:52Z</time>
      </trkpt>
      <trkpt lat="50.7839" lon="2.6719">
        <ele>138.09</ele>
        <time>2017-08-04T09:50:53Z</time>
      </trkpt>
      <trkpt lat="50.78388" lon="2.67191">
        <ele>138.09</ele>
        <time>2017-08-04T09:50:54Z</time>
      </trkpt>
      <trkpt lat="50.78386" lon="2.6719">
        <ele>138.09</ele>
        <time>2017-08-04T09:50:56Z</time>
      </trkpt>
      <trkpt lat="50.78383" lon="2.67189">
        <ele>139.53</ele>
        <time>2017-08-04T09:50:59Z</time>
      </trkpt>
      <trkpt lat="50.78382" lon="2.67188">
        <ele>139.53</ele>
        <time>2017-08-04T09:51:00Z</time>
      </trkpt>
      <trkpt lat="50.78381" lon="2.67187">
        <ele>139.53</ele>
        <time>2017-08-04T09:51:01Z</time>
      </trkpt>
      <trkpt lat="50.78366" lon="2.67175">
        <ele>141.93</ele>
        <time>2017-08-04T09:51:13Z</time>
      </trkpt>
      <trkpt lat="50.78347" lon="2.67157">
        <ele>145.3</ele>
        <time>2017-08-04T09:51:26Z</time>
      </trkpt>
      <trkpt lat="50.7834" lon="2.6715">
        <ele>147.22</ele>
        <time>2017-08-04T09:51:31Z</time>
      </trkpt>
      <trkpt lat="50.78338" lon="2.67148">
        <ele>147.22</ele>
        <time>2017-08-04T09:51:32Z</time>
      </trkpt>
      <trkpt lat="50.78336" lon="2.67147">
        <ele>147.7</ele>
        <time>2017-08-04T09:51:33Z</time>
      </trkpt>
      <trkpt lat="50.78321" lon="2.67138">
        <ele>149.14</ele>
        <time>2017-08-04T09:51:43Z</time>
      </trkpt>
      <trkpt lat="50.78319" lon="2.67137">
        <ele>149.14</ele>
        <time>2017-08-04T09:51:44Z</time>
      </trkpt>
      <trkpt lat="50.78318" lon="2.67137">
        <ele>149.14</ele>
        <time>2017-08-04T09:51:45Z</time>
      </trkpt>
      <trkpt lat="50.78317" lon="2.67136">
        <ele>149.14</ele>
        <time>2017-08-04T09:51:46Z</time>
      </trkpt>
      <trkpt lat="50.78316" lon="2.67136">
        <ele>149.62</ele>
        <time>2017-08-04T09:51:47Z</time>
      </trkpt>
      <trkpt lat="50.78305" lon="2.67129">
        <ele>150.58</ele>
        <time>2017-08-04T09:51:56Z</time>
      </trkpt>
      <trkpt lat="50.78304" lon="2.67129">
        <ele>151.54</ele>
        <time>2017-08-04T09:51:57Z</time>
      </trkpt>
      <trkpt lat="50.78302" lon="2.67128">
        <ele>151.54</ele>
        <time>2017-08-04T09:51:58Z</time>
      </trkpt>
      <trkpt lat="50.78301" lon="2.67127">
        <ele>151.54</ele>
        <time>2017-08-04T09:51:59Z</time>
      </trkpt>
      <trkpt lat="50.78299" lon="2.67126">
        <ele>151.54</ele>
        <time>2017-08-04T09:52:00Z</time>
      </trkpt>
      <trkpt lat="50.78298" lon="2.67125">
        <ele>152.03</ele>
        <time>2017-08-04T09:52:01Z</time>
      </trkpt>
      <trkpt lat="50.78296" lon="2.67124">
        <ele>152.03</ele>
        <time>2017-08-04T09:52:02Z</time>
      </trkpt>
      <trkpt lat="50.78278" lon="2.67106">
        <ele>153.47</ele>
        <time>2017-08-04T09:52:14Z</time>
      </trkpt>
      <trkpt lat="50.7827" lon="2.67102">
        <ele>153.47</ele>
        <time>2017-08-04T09:52:18Z</time>
      </trkpt>
      <trkpt lat="50.78268" lon="2.67099">
        <ele>153.47</ele>
        <time>2017-08-04T09:52:19Z</time>
      </trkpt>
      <trkpt lat="50.78265" lon="2.67096">
        <ele>153.47</ele>
        <time>2017-08-04T09:52:20Z</time>
      </trkpt>
      <trkpt lat="50.78262" lon="2.67095">
        <ele>153.47</ele>
        <time>2017-08-04T09:52:21Z</time>
      </trkpt>
      <trkpt lat="50.78258" lon="2.67093">
        <ele>153.47</ele>
        <time>2017-08-04T09:52:22Z</time>
      </trkpt>
      <trkpt lat="50.78255" lon="2.67094">
        <ele>152.03</ele>
        <time>2017-08-04T09:52:23Z</time>
      </trkpt>
      <trkpt lat="50.78253" lon="2.67096">
        <ele>152.03</ele>
        <time>2017-08-04T09:52:24Z</time>
      </trkpt>
      <trkpt lat="50.78251" lon="2.67098">
        <ele>151.54</ele>
        <time>2017-08-04T09:52:25Z</time>
      </trkpt>
      <trkpt lat="50.7825" lon="2.67102">
        <ele>151.54</ele>
        <time>2017-08-04T09:52:26Z</time>
      </trkpt>
      <trkpt lat="50.7825" lon="2.67106">
        <ele>151.54</ele>
        <time>2017-08-04T09:52:27Z</time>
      </trkpt>
      <trkpt lat="50.78249" lon="2.67109">
        <ele>151.54</ele>
        <time>2017-08-04T09:52:28Z</time>
      </trkpt>
      <trkpt lat="50.78249" lon="2.67113">
        <ele>151.54</ele>
        <time>2017-08-04T09:52:29Z</time>
      </trkpt>
      <trkpt lat="50.78248" lon="2.67118">
        <ele>151.54</ele>
        <time>2017-08-04T09:52:30Z</time>
      </trkpt>
      <trkpt lat="50.78247" lon="2.67121">
        <ele>151.54</ele>
        <time>2017-08-04T09:52:31Z</time>
      </trkpt>
      <trkpt lat="50.78247" lon="2.67125">
        <ele>151.54</ele>
        <time>2017-08-04T09:52:32Z</time>
      </trkpt>
      <trkpt lat="50.78247" lon="2.67131">
        <ele>151.54</ele>
        <time>2017-08-04T09:52:33Z</time>
      </trkpt>
      <trkpt lat="50.78244" lon="2.67148">
        <ele>151.06</ele>
        <time>2017-08-04T09:52:43Z</time>
      </trkpt>
      <trkpt lat="50.78242" lon="2.67178">
        <ele>151.06</ele>
        <time>2017-08-04T09:52:52Z</time>
      </trkpt>
      <trkpt lat="50.7824" lon="2.67188">
        <ele>151.06</ele>
        <time>2017-08-04T09:52:55Z</time>
      </trkpt>
      <trkpt lat="50.78238" lon="2.67189">
        <ele>151.06</ele>
        <time>2017-08-04T09:52:56Z</time>
      </trkpt>
      <trkpt lat="50.78237" lon="2.67189">
        <ele>151.06</ele>
        <time>2017-08-04T09:52:57Z</time>
      </trkpt>
      <trkpt lat="50.78235" lon="2.67186">
        <ele>151.06</ele>
        <time>2017-08-04T09:53:09Z</time>
      </trkpt>
      <trkpt lat="50.78236" lon="2.67177">
        <ele>150.58</ele>
        <time>2017-08-04T09:53:21Z</time>
      </trkpt>
      <trkpt lat="50.78238" lon="2.67173">
        <ele>150.58</ele>
        <time>2017-08-04T09:53:28Z</time>
      </trkpt>
      <trkpt lat="50.7824" lon="2.67173">
        <ele>149.62</ele>
        <time>2017-08-04T09:53:42Z</time>
      </trkpt>
      <trkpt lat="50.7824" lon="2.67175">
        <ele>151.06</ele>
        <time>2017-08-04T09:54:05Z</time>
      </trkpt>
      <trkpt lat="50.78241" lon="2.67174">
        <ele>151.06</ele>
        <time>2017-08-04T09:54:34Z</time>
      </trkpt>
      <trkpt lat="50.7824" lon="2.67174">
        <ele>151.06</ele>
        <time>2017-08-04T09:55:01Z</time>
      </trkpt>
      <trkpt lat="50.78241" lon="2.67172">
        <ele>151.06</ele>
        <time>2017-08-04T09:55:44Z</time>
      </trkpt>
      <trkpt lat="50.78239" lon="2.67172">
        <ele>151.06</ele>
        <time>2017-08-04T09:56:17Z</time>
      </trkpt>
      <trkpt lat="50.78241" lon="2.67173">
        <ele>150.58</ele>
        <time>2017-08-04T09:56:52Z</time>
      </trkpt>
      <trkpt lat="50.78238" lon="2.67172">
        <ele>150.58</ele>
        <time>2017-08-04T09:57:27Z</time>
      </trkpt>
      <trkpt lat="50.78237" lon="2.67173">
        <ele>150.58</ele>
        <time>2017-08-04T09:57:28Z</time>
      </trkpt>
      <trkpt lat="50.78237" lon="2.67175">
        <ele>150.58</ele>
        <time>2017-08-04T09:57:29Z</time>
      </trkpt>
      <trkpt lat="50.78237" lon="2.67176">
        <ele>150.58</ele>
        <time>2017-08-04T09:57:30Z</time>
      </trkpt>
      <trkpt lat="50.78236" lon="2.67183">
        <ele>150.58</ele>
        <time>2017-08-04T09:57:40Z</time>
      </trkpt>
      <trkpt lat="50.78237" lon="2.67185">
        <ele>150.58</ele>
        <time>2017-08-04T09:57:41Z</time>
      </trkpt>
      <trkpt lat="50.78237" lon="2.67187">
        <ele>150.58</ele>
        <time>2017-08-04T09:57:42Z</time>
      </trkpt>
      <trkpt lat="50.78238" lon="2.67189">
        <ele>150.58</ele>
        <time>2017-08-04T09:57:44Z</time>
      </trkpt>
      <trkpt lat="50.78239" lon="2.67191">
        <ele>150.58</ele>
        <time>2017-08-04T09:57:45Z</time>
      </trkpt>
      <trkpt lat="50.78239" lon="2.67194">
        <ele>150.58</ele>
        <time>2017-08-04T09:57:46Z</time>
      </trkpt>
      <trkpt lat="50.78239" lon="2.67197">
        <ele>150.58</ele>
        <time>2017-08-04T09:57:47Z</time>
      </trkpt>
      <trkpt lat="50.78238" lon="2.67202">
        <ele>149.62</ele>
        <time>2017-08-04T09:57:48Z</time>
      </trkpt>
      <trkpt lat="50.78237" lon="2.67207">
        <ele>149.14</ele>
        <time>2017-08-04T09:57:49Z</time>
      </trkpt>
      <trkpt lat="50.78232" lon="2.67226">
        <ele>149.14</ele>
        <time>2017-08-04T09:57:52Z</time>
      </trkpt>
      <trkpt lat="50.78231" lon="2.67232">
        <ele>148.18</ele>
        <time>2017-08-04T09:57:53Z</time>
      </trkpt>
      <trkpt lat="50.78223" lon="2.6725">
        <ele>145.78</ele>
        <time>2017-08-04T09:57:56Z</time>
      </trkpt>
      <trkpt lat="50.78195" lon="2.67263">
        <ele>140.49</ele>
        <time>2017-08-04T09:58:03Z</time>
      </trkpt>
      <trkpt lat="50.78186" lon="2.67265">
        <ele>138.09</ele>
        <time>2017-08-04T09:58:06Z</time>
      </trkpt>
      <trkpt lat="50.78184" lon="2.67268">
        <ele>137.61</ele>
        <time>2017-08-04T09:58:07Z</time>
      </trkpt>
      <trkpt lat="50.78183" lon="2.67271">
        <ele>137.13</ele>
        <time>2017-08-04T09:58:08Z</time>
      </trkpt>
      <trkpt lat="50.78181" lon="2.67274">
        <ele>136.64</ele>
        <time>2017-08-04T09:58:09Z</time>
      </trkpt>
      <trkpt lat="50.78181" lon="2.67277">
        <ele>136.16</ele>
        <time>2017-08-04T09:58:10Z</time>
      </trkpt>
      <trkpt lat="50.78179" lon="2.67279">
        <ele>135.2</ele>
        <time>2017-08-04T09:58:11Z</time>
      </trkpt>
      <trkpt lat="50.78175" lon="2.67281">
        <ele>134.24</ele>
        <time>2017-08-04T09:58:12Z</time>
      </trkpt>
      <trkpt lat="50.7817" lon="2.67284">
        <ele>132.8</ele>
        <time>2017-08-04T09:58:13Z</time>
      </trkpt>
      <trkpt lat="50.78162" lon="2.67287">
        <ele>131.36</ele>
        <time>2017-08-04T09:58:14Z</time>
      </trkpt>
      <trkpt lat="50.78153" lon="2.6729">
        <ele>129.92</ele>
        <time>2017-08-04T09:58:15Z</time>
      </trkpt>
      <trkpt lat="50.78135" lon="2.67298">
        <ele>126.07</ele>
        <time>2017-08-04T09:58:17Z</time>
      </trkpt>
      <trkpt lat="50.7812" lon="2.67304">
        <ele>124.15</ele>
        <time>2017-08-04T09:58:19Z</time>
      </trkpt>
      <trkpt lat="50.78115" lon="2.67305">
        <ele>124.15</ele>
        <time>2017-08-04T09:58:20Z</time>
      </trkpt>
      <trkpt lat="50.78108" lon="2.67309">
        <ele>123.67</ele>
        <time>2017-08-04T09:58:23Z</time>
      </trkpt>
      <trkpt lat="50.78106" lon="2.67314">
        <ele>123.19</ele>
        <time>2017-08-04T09:58:24Z</time>
      </trkpt>
      <trkpt lat="50.78105" lon="2.67322">
        <ele>122.71</ele>
        <time>2017-08-04T09:58:25Z</time>
      </trkpt>
      <trkpt lat="50.78105" lon="2.67329">
        <ele>122.22</ele>
        <time>2017-08-04T09:58:26Z</time>
      </trkpt>
      <trkpt lat="50.78105" lon="2.6734">
        <ele>121.74</ele>
        <time>2017-08-04T09:58:27Z</time>
      </trkpt>
      <trkpt lat="50.78104" lon="2.67346">
        <ele>121.74</ele>
        <time>2017-08-04T09:58:28Z</time>
      </trkpt>
      <trkpt lat="50.78105" lon="2.67392">
        <ele>119.34</ele>
        <time>2017-08-04T09:58:32Z</time>
      </trkpt>
      <trkpt lat="50.78106" lon="2.67403">
        <ele>118.86</ele>
        <time>2017-08-04T09:58:33Z</time>
      </trkpt>
      <trkpt lat="50.78109" lon="2.67419">
        <ele>117.42</ele>
        <time>2017-08-04T09:58:34Z</time>
      </trkpt>
      <trkpt lat="50.78111" lon="2.6743">
        <ele>116.94</ele>
        <time>2017-08-04T09:58:35Z</time>
      </trkpt>
      <trkpt lat="50.78116" lon="2.67445">
        <ele>115.5</ele>
        <time>2017-08-04T09:58:36Z</time>
      </trkpt>
      <trkpt lat="50.78121" lon="2.67458">
        <ele>114.05</ele>
        <time>2017-08-04T09:58:37Z</time>
      </trkpt>
      <trkpt lat="50.78127" lon="2.67471">
        <ele>112.61</ele>
        <time>2017-08-04T09:58:38Z</time>
      </trkpt>
      <trkpt lat="50.78134" lon="2.67484">
        <ele>111.17</ele>
        <time>2017-08-04T09:58:39Z</time>
      </trkpt>
      <trkpt lat="50.78142" lon="2.67496">
        <ele>111.17</ele>
        <time>2017-08-04T09:58:40Z</time>
      </trkpt>
      <trkpt lat="50.7815" lon="2.67508">
        <ele>110.21</ele>
        <time>2017-08-04T09:58:41Z</time>
      </trkpt>
      <trkpt lat="50.78167" lon="2.67534">
        <ele>106.84</ele>
        <time>2017-08-04T09:58:43Z</time>
      </trkpt>
      <trkpt lat="50.78174" lon="2.6755">
        <ele>105.88</ele>
        <time>2017-08-04T09:58:44Z</time>
      </trkpt>
      <trkpt lat="50.7818" lon="2.67566">
        <ele>103.96</ele>
        <time>2017-08-04T09:58:45Z</time>
      </trkpt>
      <trkpt lat="50.78184" lon="2.67584">
        <ele>103</ele>
        <time>2017-08-04T09:58:46Z</time>
      </trkpt>
      <trkpt lat="50.78186" lon="2.67603">
        <ele>102.52</ele>
        <time>2017-08-04T09:58:47Z</time>
      </trkpt>
      <trkpt lat="50.78188" lon="2.67622">
        <ele>101.08</ele>
        <time>2017-08-04T09:58:48Z</time>
      </trkpt>
      <trkpt lat="50.78191" lon="2.67684">
        <ele>98.19</ele>
        <time>2017-08-04T09:58:51Z</time>
      </trkpt>
      <trkpt lat="50.7819" lon="2.67698">
        <ele>98.19</ele>
        <time>2017-08-04T09:58:52Z</time>
      </trkpt>
      <trkpt lat="50.78187" lon="2.67716">
        <ele>97.71</ele>
        <time>2017-08-04T09:58:53Z</time>
      </trkpt>
      <trkpt lat="50.78183" lon="2.6773">
        <ele>97.23</ele>
        <time>2017-08-04T09:58:54Z</time>
      </trkpt>
      <trkpt lat="50.78177" lon="2.67743">
        <ele>96.27</ele>
        <time>2017-08-04T09:58:55Z</time>
      </trkpt>
      <trkpt lat="50.78169" lon="2.67755">
        <ele>95.31</ele>
        <time>2017-08-04T09:58:56Z</time>
      </trkpt>
      <trkpt lat="50.78162" lon="2.67766">
        <ele>95.31</ele>
        <time>2017-08-04T09:58:57Z</time>
      </trkpt>
      <trkpt lat="50.78099" lon="2.67843">
        <ele>92.42</ele>
        <time>2017-08-04T09:59:05Z</time>
      </trkpt>
      <trkpt lat="50.78047" lon="2.67895">
        <ele>92.42</ele>
        <time>2017-08-04T09:59:12Z</time>
      </trkpt>
      <trkpt lat="50.78021" lon="2.67916">
        <ele>90.98</ele>
        <time>2017-08-04T09:59:17Z</time>
      </trkpt>
      <trkpt lat="50.78019" lon="2.6792">
        <ele>92.42</ele>
        <time>2017-08-04T09:59:18Z</time>
      </trkpt>
      <trkpt lat="50.78018" lon="2.67928">
        <ele>91.94</ele>
        <time>2017-08-04T09:59:19Z</time>
      </trkpt>
      <trkpt lat="50.78018" lon="2.67931">
        <ele>93.39</ele>
        <time>2017-08-04T09:59:20Z</time>
      </trkpt>
      <trkpt lat="50.78019" lon="2.67936">
        <ele>94.35</ele>
        <time>2017-08-04T09:59:21Z</time>
      </trkpt>
      <trkpt lat="50.78019" lon="2.67941">
        <ele>94.35</ele>
        <time>2017-08-04T09:59:22Z</time>
      </trkpt>
      <trkpt lat="50.78024" lon="2.67973">
        <ele>94.83</ele>
        <time>2017-08-04T09:59:28Z</time>
      </trkpt>
      <trkpt lat="50.78028" lon="2.68018">
        <ele>91.46</ele>
        <time>2017-08-04T09:59:33Z</time>
      </trkpt>
      <trkpt lat="50.78033" lon="2.68054">
        <ele>87.14</ele>
        <time>2017-08-04T09:59:36Z</time>
      </trkpt>
      <trkpt lat="50.78034" lon="2.68066">
        <ele>85.69</ele>
        <time>2017-08-04T09:59:37Z</time>
      </trkpt>
      <trkpt lat="50.78039" lon="2.68132">
        <ele>82.33</ele>
        <time>2017-08-04T09:59:42Z</time>
      </trkpt>
      <trkpt lat="50.78046" lon="2.68197">
        <ele>78.97</ele>
        <time>2017-08-04T09:59:47Z</time>
      </trkpt>
      <trkpt lat="50.78052" lon="2.68284">
        <ele>75.6</ele>
        <time>2017-08-04T09:59:53Z</time>
      </trkpt>
      <trkpt lat="50.78054" lon="2.68353">
        <ele>73.2</ele>
        <time>2017-08-04T09:59:58Z</time>
      </trkpt>
      <trkpt lat="50.78056" lon="2.68367">
        <ele>72.24</ele>
        <time>2017-08-04T09:59:59Z</time>
      </trkpt>
      <trkpt lat="50.78068" lon="2.68486">
        <ele>69.35</ele>
        <time>2017-08-04T10:00:08Z</time>
      </trkpt>
      <trkpt lat="50.78073" lon="2.68541">
        <ele>66.95</ele>
        <time>2017-08-04T10:00:12Z</time>
      </trkpt>
      <trkpt lat="50.78078" lon="2.68638">
        <ele>64.55</ele>
        <time>2017-08-04T10:00:19Z</time>
      </trkpt>
      <trkpt lat="50.78073" lon="2.68715">
        <ele>63.58</ele>
        <time>2017-08-04T10:00:25Z</time>
      </trkpt>
      <trkpt lat="50.7807" lon="2.68862">
        <ele>59.74</ele>
        <time>2017-08-04T10:00:37Z</time>
      </trkpt>
      <trkpt lat="50.7806" lon="2.68971">
        <ele>57.34</ele>
        <time>2017-08-04T10:00:47Z</time>
      </trkpt>
      <trkpt lat="50.78059" lon="2.68981">
        <ele>57.34</ele>
        <time>2017-08-04T10:00:48Z</time>
      </trkpt>
      <trkpt lat="50.78058" lon="2.6899">
        <ele>56.86</ele>
        <time>2017-08-04T10:00:49Z</time>
      </trkpt>
      <trkpt lat="50.78052" lon="2.69013">
        <ele>56.37</ele>
        <time>2017-08-04T10:00:52Z</time>
      </trkpt>
      <trkpt lat="50.78052" lon="2.6902">
        <ele>55.41</ele>
        <time>2017-08-04T10:00:53Z</time>
      </trkpt>
      <trkpt lat="50.78053" lon="2.69026">
        <ele>55.41</ele>
        <time>2017-08-04T10:00:54Z</time>
      </trkpt>
      <trkpt lat="50.78055" lon="2.69033">
        <ele>55.41</ele>
        <time>2017-08-04T10:00:55Z</time>
      </trkpt>
      <trkpt lat="50.78057" lon="2.69037">
        <ele>55.41</ele>
        <time>2017-08-04T10:00:56Z</time>
      </trkpt>
      <trkpt lat="50.7806" lon="2.69042">
        <ele>55.41</ele>
        <time>2017-08-04T10:00:57Z</time>
      </trkpt>
      <trkpt lat="50.78064" lon="2.69046">
        <ele>55.41</ele>
        <time>2017-08-04T10:00:58Z</time>
      </trkpt>
      <trkpt lat="50.78067" lon="2.69052">
        <ele>55.41</ele>
        <time>2017-08-04T10:00:59Z</time>
      </trkpt>
      <trkpt lat="50.78073" lon="2.69063">
        <ele>55.41</ele>
        <time>2017-08-04T10:01:01Z</time>
      </trkpt>
      <trkpt lat="50.78077" lon="2.69075">
        <ele>55.41</ele>
        <time>2017-08-04T10:01:03Z</time>
      </trkpt>
      <trkpt lat="50.78083" lon="2.69099">
        <ele>56.86</ele>
        <time>2017-08-04T10:01:07Z</time>
      </trkpt>
      <trkpt lat="50.78096" lon="2.69152">
        <ele>60.22</ele>
        <time>2017-08-04T10:01:20Z</time>
      </trkpt>
      <trkpt lat="50.78104" lon="2.69185">
        <ele>62.62</ele>
        <time>2017-08-04T10:01:29Z</time>
      </trkpt>
      <trkpt lat="50.78119" lon="2.69226">
        <ele>63.1</ele>
        <time>2017-08-04T10:01:40Z</time>
      </trkpt>
      <trkpt lat="50.78142" lon="2.69283">
        <ele>63.1</ele>
        <time>2017-08-04T10:01:53Z</time>
      </trkpt>
      <trkpt lat="50.78177" lon="2.69367">
        <ele>61.18</ele>
        <time>2017-08-04T10:02:09Z</time>
      </trkpt>
      <trkpt lat="50.78201" lon="2.69419">
        <ele>60.22</ele>
        <time>2017-08-04T10:02:17Z</time>
      </trkpt>
      <trkpt lat="50.78205" lon="2.69426">
        <ele>60.22</ele>
        <time>2017-08-04T10:02:18Z</time>
      </trkpt>
      <trkpt lat="50.78247" lon="2.69514">
        <ele>58.3</ele>
        <time>2017-08-04T10:02:33Z</time>
      </trkpt>
      <trkpt lat="50.78253" lon="2.69526">
        <ele>57.82</ele>
        <time>2017-08-04T10:02:38Z</time>
      </trkpt>
      <trkpt lat="50.78253" lon="2.69528">
        <ele>57.82</ele>
        <time>2017-08-04T10:02:39Z</time>
      </trkpt>
      <trkpt lat="50.78252" lon="2.69529">
        <ele>57.82</ele>
        <time>2017-08-04T10:02:40Z</time>
      </trkpt>
      <trkpt lat="50.7823" lon="2.69559">
        <ele>56.86</ele>
        <time>2017-08-04T10:02:49Z</time>
      </trkpt>
      <trkpt lat="50.78179" lon="2.69621">
        <ele>55.89</ele>
        <time>2017-08-04T10:03:02Z</time>
      </trkpt>
      <trkpt lat="50.78175" lon="2.69625">
        <ele>55.41</ele>
        <time>2017-08-04T10:03:03Z</time>
      </trkpt>
      <trkpt lat="50.7817" lon="2.69631">
        <ele>55.41</ele>
        <time>2017-08-04T10:03:04Z</time>
      </trkpt>
      <trkpt lat="50.78166" lon="2.69636">
        <ele>54.93</ele>
        <time>2017-08-04T10:03:05Z</time>
      </trkpt>
      <trkpt lat="50.78162" lon="2.69641">
        <ele>54.45</ele>
        <time>2017-08-04T10:03:06Z</time>
      </trkpt>
      <trkpt lat="50.78081" lon="2.69735">
        <ele>52.05</ele>
        <time>2017-08-04T10:03:24Z</time>
      </trkpt>
      <trkpt lat="50.77997" lon="2.69835">
        <ele>49.65</ele>
        <time>2017-08-04T10:03:42Z</time>
      </trkpt>
      <trkpt lat="50.77923" lon="2.69923">
        <ele>46.28</ele>
        <time>2017-08-04T10:03:57Z</time>
      </trkpt>
      <trkpt lat="50.77835" lon="2.70029">
        <ele>42.92</ele>
        <time>2017-08-04T10:04:12Z</time>
      </trkpt>
      <trkpt lat="50.77745" lon="2.70136">
        <ele>40.99</ele>
        <time>2017-08-04T10:04:29Z</time>
      </trkpt>
      <trkpt lat="50.77687" lon="2.70182">
        <ele>42.44</ele>
        <time>2017-08-04T10:04:40Z</time>
      </trkpt>
      <trkpt lat="50.77626" lon="2.7022">
        <ele>43.4</ele>
        <time>2017-08-04T10:04:53Z</time>
      </trkpt>
      <trkpt lat="50.77623" lon="2.70223">
        <ele>44.36</ele>
        <time>2017-08-04T10:04:54Z</time>
      </trkpt>
      <trkpt lat="50.77616" lon="2.70231">
        <ele>44.36</ele>
        <time>2017-08-04T10:04:56Z</time>
      </trkpt>
      <trkpt lat="50.77615" lon="2.70237">
        <ele>44.36</ele>
        <time>2017-08-04T10:04:57Z</time>
      </trkpt>
      <trkpt lat="50.77616" lon="2.70244">
        <ele>44.36</ele>
        <time>2017-08-04T10:04:58Z</time>
      </trkpt>
      <trkpt lat="50.77617" lon="2.7025">
        <ele>44.36</ele>
        <time>2017-08-04T10:04:59Z</time>
      </trkpt>
      <trkpt lat="50.77618" lon="2.70256">
        <ele>44.36</ele>
        <time>2017-08-04T10:05:00Z</time>
      </trkpt>
      <trkpt lat="50.77623" lon="2.70277">
        <ele>44.36</ele>
        <time>2017-08-04T10:05:03Z</time>
      </trkpt>
      <trkpt lat="50.77626" lon="2.70289">
        <ele>44.36</ele>
        <time>2017-08-04T10:05:05Z</time>
      </trkpt>
      <trkpt lat="50.77627" lon="2.70296">
        <ele>44.36</ele>
        <time>2017-08-04T10:05:06Z</time>
      </trkpt>
      <trkpt lat="50.77629" lon="2.70302">
        <ele>44.36</ele>
        <time>2017-08-04T10:05:07Z</time>
      </trkpt>
      <trkpt lat="50.77649" lon="2.70411">
        <ele>42.44</ele>
        <time>2017-08-04T10:05:23Z</time>
      </trkpt>
      <trkpt lat="50.77672" lon="2.70526">
        <ele>40.03</ele>
        <time>2017-08-04T10:05:38Z</time>
      </trkpt>
      <trkpt lat="50.77676" lon="2.70537">
        <ele>39.55</ele>
        <time>2017-08-04T10:05:40Z</time>
      </trkpt>
      <trkpt lat="50.7768" lon="2.70539">
        <ele>39.07</ele>
        <time>2017-08-04T10:05:41Z</time>
      </trkpt>
      <trkpt lat="50.77684" lon="2.7054">
        <ele>39.07</ele>
        <time>2017-08-04T10:05:42Z</time>
      </trkpt>
      <trkpt lat="50.77688" lon="2.70541">
        <ele>38.59</ele>
        <time>2017-08-04T10:05:43Z</time>
      </trkpt>
      <trkpt lat="50.77692" lon="2.70542">
        <ele>38.59</ele>
        <time>2017-08-04T10:05:44Z</time>
      </trkpt>
      <trkpt lat="50.77695" lon="2.70545">
        <ele>38.59</ele>
        <time>2017-08-04T10:05:45Z</time>
      </trkpt>
      <trkpt lat="50.77698" lon="2.7055">
        <ele>38.59</ele>
        <time>2017-08-04T10:05:46Z</time>
      </trkpt>
      <trkpt lat="50.77701" lon="2.70557">
        <ele>38.11</ele>
        <time>2017-08-04T10:05:47Z</time>
      </trkpt>
      <trkpt lat="50.77703" lon="2.70564">
        <ele>38.11</ele>
        <time>2017-08-04T10:05:48Z</time>
      </trkpt>
      <trkpt lat="50.77705" lon="2.70572">
        <ele>38.11</ele>
        <time>2017-08-04T10:05:49Z</time>
      </trkpt>
      <trkpt lat="50.77726" lon="2.70671">
        <ele>37.15</ele>
        <time>2017-08-04T10:06:03Z</time>
      </trkpt>
      <trkpt lat="50.77733" lon="2.7075">
        <ele>37.15</ele>
        <time>2017-08-04T10:06:18Z</time>
      </trkpt>
      <trkpt lat="50.77734" lon="2.70803">
        <ele>40.03</ele>
        <time>2017-08-04T10:06:33Z</time>
      </trkpt>
      <trkpt lat="50.77735" lon="2.70806">
        <ele>40.03</ele>
        <time>2017-08-04T10:06:34Z</time>
      </trkpt>
      <trkpt lat="50.77735" lon="2.70809">
        <ele>40.51</ele>
        <time>2017-08-04T10:06:35Z</time>
      </trkpt>
      <trkpt lat="50.77735" lon="2.70811">
        <ele>40.51</ele>
        <time>2017-08-04T10:06:36Z</time>
      </trkpt>
      <trkpt lat="50.77736" lon="2.70813">
        <ele>40.99</ele>
        <time>2017-08-04T10:06:37Z</time>
      </trkpt>
      <trkpt lat="50.77736" lon="2.70816">
        <ele>40.99</ele>
        <time>2017-08-04T10:06:38Z</time>
      </trkpt>
      <trkpt lat="50.77736" lon="2.70818">
        <ele>40.99</ele>
        <time>2017-08-04T10:06:39Z</time>
      </trkpt>
      <trkpt lat="50.77737" lon="2.7082">
        <ele>41.47</ele>
        <time>2017-08-04T10:06:40Z</time>
      </trkpt>
      <trkpt lat="50.77737" lon="2.70823">
        <ele>41.95</ele>
        <time>2017-08-04T10:06:41Z</time>
      </trkpt>
      <trkpt lat="50.77738" lon="2.70825">
        <ele>41.95</ele>
        <time>2017-08-04T10:06:42Z</time>
      </trkpt>
      <trkpt lat="50.77738" lon="2.70828">
        <ele>42.44</ele>
        <time>2017-08-04T10:06:43Z</time>
      </trkpt>
      <trkpt lat="50.77739" lon="2.7083">
        <ele>42.92</ele>
        <time>2017-08-04T10:06:44Z</time>
      </trkpt>
      <trkpt lat="50.77739" lon="2.70832">
        <ele>43.4</ele>
        <time>2017-08-04T10:06:45Z</time>
      </trkpt>
      <trkpt lat="50.7774" lon="2.70835">
        <ele>43.4</ele>
        <time>2017-08-04T10:06:46Z</time>
      </trkpt>
      <trkpt lat="50.7774" lon="2.70837">
        <ele>43.4</ele>
        <time>2017-08-04T10:06:47Z</time>
      </trkpt>
      <trkpt lat="50.77741" lon="2.7084">
        <ele>43.88</ele>
        <time>2017-08-04T10:06:48Z</time>
      </trkpt>
      <trkpt lat="50.77741" lon="2.70842">
        <ele>43.88</ele>
        <time>2017-08-04T10:06:49Z</time>
      </trkpt>
      <trkpt lat="50.77742" lon="2.70844">
        <ele>44.36</ele>
        <time>2017-08-04T10:06:50Z</time>
      </trkpt>
      <trkpt lat="50.77742" lon="2.70846">
        <ele>44.36</ele>
        <time>2017-08-04T10:06:51Z</time>
      </trkpt>
      <trkpt lat="50.77743" lon="2.70848">
        <ele>44.36</ele>
        <time>2017-08-04T10:06:52Z</time>
      </trkpt>
      <trkpt lat="50.77743" lon="2.70851">
        <ele>44.84</ele>
        <time>2017-08-04T10:06:53Z</time>
      </trkpt>
      <trkpt lat="50.77744" lon="2.70853">
        <ele>45.32</ele>
        <time>2017-08-04T10:06:54Z</time>
      </trkpt>
      <trkpt lat="50.77752" lon="2.70884">
        <ele>48.2</ele>
        <time>2017-08-04T10:07:08Z</time>
      </trkpt>
      <trkpt lat="50.77757" lon="2.70925">
        <ele>49.65</ele>
        <time>2017-08-04T10:07:22Z</time>
      </trkpt>
      <trkpt lat="50.77763" lon="2.70967">
        <ele>51.57</ele>
        <time>2017-08-04T10:07:37Z</time>
      </trkpt>
      <trkpt lat="50.77768" lon="2.71002">
        <ele>54.45</ele>
        <time>2017-08-04T10:07:51Z</time>
      </trkpt>
      <trkpt lat="50.77775" lon="2.7104">
        <ele>57.34</ele>
        <time>2017-08-04T10:08:07Z</time>
      </trkpt>
      <trkpt lat="50.77777" lon="2.71074">
        <ele>59.74</ele>
        <time>2017-08-04T10:08:21Z</time>
      </trkpt>
      <trkpt lat="50.77781" lon="2.71106">
        <ele>63.1</ele>
        <time>2017-08-04T10:08:35Z</time>
      </trkpt>
      <trkpt lat="50.77787" lon="2.71143">
        <ele>65.99</ele>
        <time>2017-08-04T10:08:51Z</time>
      </trkpt>
      <trkpt lat="50.77794" lon="2.71177">
        <ele>68.39</ele>
        <time>2017-08-04T10:09:06Z</time>
      </trkpt>
      <trkpt lat="50.77797" lon="2.7119">
        <ele>69.35</ele>
        <time>2017-08-04T10:09:17Z</time>
      </trkpt>
      <trkpt lat="50.77797" lon="2.7119">
        <ele>69.83</ele>
        <time>2017-08-04T10:09:38Z</time>
      </trkpt>
      <trkpt lat="50.77797" lon="2.71191">
        <ele>69.83</ele>
        <time>2017-08-04T10:10:06Z</time>
      </trkpt>
      <trkpt lat="50.77799" lon="2.71191">
        <ele>69.83</ele>
        <time>2017-08-04T10:10:26Z</time>
      </trkpt>
      <trkpt lat="50.77805" lon="2.7121">
        <ele>69.83</ele>
        <time>2017-08-04T10:10:40Z</time>
      </trkpt>
      <trkpt lat="50.77814" lon="2.71237">
        <ele>70.31</ele>
        <time>2017-08-04T10:10:53Z</time>
      </trkpt>
      <trkpt lat="50.77827" lon="2.71273">
        <ele>71.76</ele>
        <time>2017-08-04T10:11:09Z</time>
      </trkpt>
      <trkpt lat="50.7784" lon="2.71319">
        <ele>72.24</ele>
        <time>2017-08-04T10:11:23Z</time>
      </trkpt>
      <trkpt lat="50.7786" lon="2.71375">
        <ele>72.72</ele>
        <time>2017-08-04T10:11:37Z</time>
      </trkpt>
      <trkpt lat="50.77881" lon="2.71435">
        <ele>73.2</ele>
        <time>2017-08-04T10:11:51Z</time>
      </trkpt>
      <trkpt lat="50.77901" lon="2.71485">
        <ele>74.16</ele>
        <time>2017-08-04T10:12:02Z</time>
      </trkpt>
      <trkpt lat="50.77917" lon="2.71559">
        <ele>74.16</ele>
        <time>2017-08-04T10:12:16Z</time>
      </trkpt>
      <trkpt lat="50.77927" lon="2.71613">
        <ele>74.64</ele>
        <time>2017-08-04T10:12:28Z</time>
      </trkpt>
      <trkpt lat="50.77931" lon="2.71652">
        <ele>75.6</ele>
        <time>2017-08-04T10:12:38Z</time>
      </trkpt>
      <trkpt lat="50.77946" lon="2.71713">
        <ele>76.08</ele>
        <time>2017-08-04T10:12:52Z</time>
      </trkpt>
      <trkpt lat="50.77958" lon="2.71768">
        <ele>77.52</ele>
        <time>2017-08-04T10:13:06Z</time>
      </trkpt>
      <trkpt lat="50.77966" lon="2.71805">
        <ele>80.89</ele>
        <time>2017-08-04T10:13:17Z</time>
      </trkpt>
      <trkpt lat="50.77966" lon="2.71808">
        <ele>80.89</ele>
        <time>2017-08-04T10:13:18Z</time>
      </trkpt>
      <trkpt lat="50.77974" lon="2.71851">
        <ele>84.25</ele>
        <time>2017-08-04T10:13:33Z</time>
      </trkpt>
      <trkpt lat="50.77978" lon="2.7189">
        <ele>87.14</ele>
        <time>2017-08-04T10:13:46Z</time>
      </trkpt>
      <trkpt lat="50.7798" lon="2.7193">
        <ele>87.62</ele>
        <time>2017-08-04T10:13:59Z</time>
      </trkpt>
      <trkpt lat="50.77979" lon="2.7194">
        <ele>85.69</ele>
        <time>2017-08-04T10:14:01Z</time>
      </trkpt>
      <trkpt lat="50.77985" lon="2.71968">
        <ele>87.14</ele>
        <time>2017-08-04T10:14:11Z</time>
      </trkpt>
      <trkpt lat="50.77999" lon="2.72008">
        <ele>89.54</ele>
        <time>2017-08-04T10:14:29Z</time>
      </trkpt>
      <trkpt lat="50.78003" lon="2.72048">
        <ele>91.46</ele>
        <time>2017-08-04T10:14:45Z</time>
      </trkpt>
      <trkpt lat="50.78" lon="2.72081">
        <ele>94.35</ele>
        <time>2017-08-04T10:14:58Z</time>
      </trkpt>
      <trkpt lat="50.77995" lon="2.72125">
        <ele>97.23</ele>
        <time>2017-08-04T10:15:16Z</time>
      </trkpt>
      <trkpt lat="50.77998" lon="2.7216">
        <ele>100.11</ele>
        <time>2017-08-04T10:15:30Z</time>
      </trkpt>
      <trkpt lat="50.78008" lon="2.72207">
        <ele>103.48</ele>
        <time>2017-08-04T10:15:50Z</time>
      </trkpt>
      <trkpt lat="50.7802" lon="2.72246">
        <ele>106.36</ele>
        <time>2017-08-04T10:16:07Z</time>
      </trkpt>
      <trkpt lat="50.78024" lon="2.72258">
        <ele>107.32</ele>
        <time>2017-08-04T10:16:12Z</time>
      </trkpt>
      <trkpt lat="50.78025" lon="2.72262">
        <ele>107.32</ele>
        <time>2017-08-04T10:16:14Z</time>
      </trkpt>
      <trkpt lat="50.78024" lon="2.72264">
        <ele>107.32</ele>
        <time>2017-08-04T10:16:15Z</time>
      </trkpt>
      <trkpt lat="50.78023" lon="2.72265">
        <ele>106.36</ele>
        <time>2017-08-04T10:16:16Z</time>
      </trkpt>
      <trkpt lat="50.78021" lon="2.72265">
        <ele>106.36</ele>
        <time>2017-08-04T10:16:17Z</time>
      </trkpt>
      <trkpt lat="50.78019" lon="2.72264">
        <ele>106.36</ele>
        <time>2017-08-04T10:16:18Z</time>
      </trkpt>
      <trkpt lat="50.78015" lon="2.72264">
        <ele>104.92</ele>
        <time>2017-08-04T10:16:19Z</time>
      </trkpt>
      <trkpt lat="50.78012" lon="2.72264">
        <ele>103.48</ele>
        <time>2017-08-04T10:16:20Z</time>
      </trkpt>
      <trkpt lat="50.78003" lon="2.72264">
        <ele>103</ele>
        <time>2017-08-04T10:16:22Z</time>
      </trkpt>
      <trkpt lat="50.77989" lon="2.72266">
        <ele>102.04</ele>
        <time>2017-08-04T10:16:29Z</time>
      </trkpt>
      <trkpt lat="50.77987" lon="2.72268">
        <ele>101.56</ele>
        <time>2017-08-04T10:16:34Z</time>
      </trkpt>
      <trkpt lat="50.77986" lon="2.7227">
        <ele>101.56</ele>
        <time>2017-08-04T10:16:35Z</time>
      </trkpt>
      <trkpt lat="50.77984" lon="2.72272">
        <ele>101.08</ele>
        <time>2017-08-04T10:16:36Z</time>
      </trkpt>
      <trkpt lat="50.77983" lon="2.72274">
        <ele>100.6</ele>
        <time>2017-08-04T10:16:37Z</time>
      </trkpt>
      <trkpt lat="50.77981" lon="2.72276">
        <ele>99.63</ele>
        <time>2017-08-04T10:16:38Z</time>
      </trkpt>
      <trkpt lat="50.7798" lon="2.72278">
        <ele>99.15</ele>
        <time>2017-08-04T10:16:39Z</time>
      </trkpt>
      <trkpt lat="50.77979" lon="2.7228">
        <ele>98.67</ele>
        <time>2017-08-04T10:16:40Z</time>
      </trkpt>
      <trkpt lat="50.77977" lon="2.72281">
        <ele>98.19</ele>
        <time>2017-08-04T10:16:41Z</time>
      </trkpt>
      <trkpt lat="50.77974" lon="2.72282">
        <ele>97.71</ele>
        <time>2017-08-04T10:16:42Z</time>
      </trkpt>
      <trkpt lat="50.77971" lon="2.72281">
        <ele>96.75</ele>
        <time>2017-08-04T10:16:43Z</time>
      </trkpt>
      <trkpt lat="50.77966" lon="2.72279">
        <ele>95.31</ele>
        <time>2017-08-04T10:16:44Z</time>
      </trkpt>
      <trkpt lat="50.77961" lon="2.72278">
        <ele>94.35</ele>
        <time>2017-08-04T10:16:45Z</time>
      </trkpt>
      <trkpt lat="50.77955" lon="2.72278">
        <ele>93.39</ele>
        <time>2017-08-04T10:16:46Z</time>
      </trkpt>
      <trkpt lat="50.77949" lon="2.72278">
        <ele>93.39</ele>
        <time>2017-08-04T10:16:47Z</time>
      </trkpt>
      <trkpt lat="50.77919" lon="2.72279">
        <ele>90.02</ele>
        <time>2017-08-04T10:16:51Z</time>
      </trkpt>
      <trkpt lat="50.77895" lon="2.7228">
        <ele>87.62</ele>
        <time>2017-08-04T10:16:54Z</time>
      </trkpt>
      <trkpt lat="50.77871" lon="2.72281">
        <ele>84.25</ele>
        <time>2017-08-04T10:16:57Z</time>
      </trkpt>
      <trkpt lat="50.77864" lon="2.72282">
        <ele>83.77</ele>
        <time>2017-08-04T10:16:58Z</time>
      </trkpt>
      <trkpt lat="50.77823" lon="2.72276">
        <ele>81.37</ele>
        <time>2017-08-04T10:17:06Z</time>
      </trkpt>
      <trkpt lat="50.77817" lon="2.72273">
        <ele>80.89</ele>
        <time>2017-08-04T10:17:07Z</time>
      </trkpt>
      <trkpt lat="50.7781" lon="2.72269">
        <ele>80.89</ele>
        <time>2017-08-04T10:17:08Z</time>
      </trkpt>
      <trkpt lat="50.77791" lon="2.72256">
        <ele>76.56</ele>
        <time>2017-08-04T10:17:11Z</time>
      </trkpt>
      <trkpt lat="50.77778" lon="2.72249">
        <ele>74.64</ele>
        <time>2017-08-04T10:17:13Z</time>
      </trkpt>
      <trkpt lat="50.77774" lon="2.72245">
        <ele>74.64</ele>
        <time>2017-08-04T10:17:14Z</time>
      </trkpt>
      <trkpt lat="50.77767" lon="2.7224">
        <ele>73.68</ele>
        <time>2017-08-04T10:17:15Z</time>
      </trkpt>
      <trkpt lat="50.77762" lon="2.72236">
        <ele>73.2</ele>
        <time>2017-08-04T10:17:16Z</time>
      </trkpt>
      <trkpt lat="50.77756" lon="2.72231">
        <ele>72.24</ele>
        <time>2017-08-04T10:17:17Z</time>
      </trkpt>
      <trkpt lat="50.77745" lon="2.7222">
        <ele>69.35</ele>
        <time>2017-08-04T10:17:19Z</time>
      </trkpt>
      <trkpt lat="50.77739" lon="2.72212">
        <ele>68.39</ele>
        <time>2017-08-04T10:17:20Z</time>
      </trkpt>
      <trkpt lat="50.77733" lon="2.72204">
        <ele>66.95</ele>
        <time>2017-08-04T10:17:21Z</time>
      </trkpt>
      <trkpt lat="50.77726" lon="2.72196">
        <ele>65.03</ele>
        <time>2017-08-04T10:17:22Z</time>
      </trkpt>
      <trkpt lat="50.77718" lon="2.72189">
        <ele>65.03</ele>
        <time>2017-08-04T10:17:23Z</time>
      </trkpt>
      <trkpt lat="50.77709" lon="2.72181">
        <ele>64.07</ele>
        <time>2017-08-04T10:17:24Z</time>
      </trkpt>
      <trkpt lat="50.77671" lon="2.72154">
        <ele>60.7</ele>
        <time>2017-08-04T10:17:28Z</time>
      </trkpt>
      <trkpt lat="50.7766" lon="2.72149">
        <ele>59.26</ele>
        <time>2017-08-04T10:17:29Z</time>
      </trkpt>
      <trkpt lat="50.77652" lon="2.72147">
        <ele>59.26</ele>
        <time>2017-08-04T10:17:30Z</time>
      </trkpt>
      <trkpt lat="50.77641" lon="2.72145">
        <ele>57.82</ele>
        <time>2017-08-04T10:17:31Z</time>
      </trkpt>
      <trkpt lat="50.77611" lon="2.72142">
        <ele>54.45</ele>
        <time>2017-08-04T10:17:34Z</time>
      </trkpt>
      <trkpt lat="50.77591" lon="2.72141">
        <ele>53.49</ele>
        <time>2017-08-04T10:17:36Z</time>
      </trkpt>
      <trkpt lat="50.77571" lon="2.72139">
        <ele>52.05</ele>
        <time>2017-08-04T10:17:38Z</time>
      </trkpt>
      <trkpt lat="50.77549" lon="2.72139">
        <ele>48.68</ele>
        <time>2017-08-04T10:17:40Z</time>
      </trkpt>
      <trkpt lat="50.77505" lon="2.72142">
        <ele>45.8</ele>
        <time>2017-08-04T10:17:46Z</time>
      </trkpt>
      <trkpt lat="50.77465" lon="2.72152">
        <ele>41.95</ele>
        <time>2017-08-04T10:17:51Z</time>
      </trkpt>
      <trkpt lat="50.7746" lon="2.72153">
        <ele>41.95</ele>
        <time>2017-08-04T10:17:52Z</time>
      </trkpt>
      <trkpt lat="50.77453" lon="2.72154">
        <ele>41.95</ele>
        <time>2017-08-04T10:17:53Z</time>
      </trkpt>
      <trkpt lat="50.77447" lon="2.72151">
        <ele>40.99</ele>
        <time>2017-08-04T10:17:54Z</time>
      </trkpt>
      <trkpt lat="50.77441" lon="2.72146">
        <ele>40.99</ele>
        <time>2017-08-04T10:17:55Z</time>
      </trkpt>
      <trkpt lat="50.77438" lon="2.72138">
        <ele>40.51</ele>
        <time>2017-08-04T10:17:56Z</time>
      </trkpt>
      <trkpt lat="50.77436" lon="2.72128">
        <ele>40.03</ele>
        <time>2017-08-04T10:17:57Z</time>
      </trkpt>
      <trkpt lat="50.77436" lon="2.7212">
        <ele>40.51</ele>
        <time>2017-08-04T10:17:58Z</time>
      </trkpt>
      <trkpt lat="50.77436" lon="2.7211">
        <ele>40.51</ele>
        <time>2017-08-04T10:17:59Z</time>
      </trkpt>
      <trkpt lat="50.77437" lon="2.72071">
        <ele>41.47</ele>
        <time>2017-08-04T10:18:04Z</time>
      </trkpt>
      <trkpt lat="50.77434" lon="2.72038">
        <ele>41.95</ele>
        <time>2017-08-04T10:18:09Z</time>
      </trkpt>
      <trkpt lat="50.7743" lon="2.72035">
        <ele>41.47</ele>
        <time>2017-08-04T10:18:10Z</time>
      </trkpt>
      <trkpt lat="50.77427" lon="2.72035">
        <ele>41.95</ele>
        <time>2017-08-04T10:18:11Z</time>
      </trkpt>
      <trkpt lat="50.77423" lon="2.72035">
        <ele>41.47</ele>
        <time>2017-08-04T10:18:12Z</time>
      </trkpt>
      <trkpt lat="50.77418" lon="2.72037">
        <ele>40.51</ele>
        <time>2017-08-04T10:18:13Z</time>
      </trkpt>
      <trkpt lat="50.77413" lon="2.72039">
        <ele>40.51</ele>
        <time>2017-08-04T10:18:14Z</time>
      </trkpt>
      <trkpt lat="50.77396" lon="2.72045">
        <ele>39.07</ele>
        <time>2017-08-04T10:18:17Z</time>
      </trkpt>
      <trkpt lat="50.7738" lon="2.72051">
        <ele>37.63</ele>
        <time>2017-08-04T10:18:20Z</time>
      </trkpt>
      <trkpt lat="50.77307" lon="2.72077">
        <ele>37.15</ele>
        <time>2017-08-04T10:18:33Z</time>
      </trkpt>
      <trkpt lat="50.77303" lon="2.72082">
        <ele>37.15</ele>
        <time>2017-08-04T10:18:34Z</time>
      </trkpt>
      <trkpt lat="50.77301" lon="2.72088">
        <ele>37.15</ele>
        <time>2017-08-04T10:18:35Z</time>
      </trkpt>
      <trkpt lat="50.77301" lon="2.72094">
        <ele>37.15</ele>
        <time>2017-08-04T10:18:36Z</time>
      </trkpt>
      <trkpt lat="50.77302" lon="2.72103">
        <ele>38.59</ele>
        <time>2017-08-04T10:18:37Z</time>
      </trkpt>
      <trkpt lat="50.77302" lon="2.72106">
        <ele>38.59</ele>
        <time>2017-08-04T10:18:38Z</time>
      </trkpt>
      <trkpt lat="50.77298" lon="2.72202">
        <ele>37.63</ele>
        <time>2017-08-04T10:18:52Z</time>
      </trkpt>
      <trkpt lat="50.77298" lon="2.72209">
        <ele>37.63</ele>
        <time>2017-08-04T10:18:53Z</time>
      </trkpt>
      <trkpt lat="50.77299" lon="2.72217">
        <ele>37.63</ele>
        <time>2017-08-04T10:18:54Z</time>
      </trkpt>
      <trkpt lat="50.77301" lon="2.72223">
        <ele>37.63</ele>
        <time>2017-08-04T10:18:55Z</time>
      </trkpt>
      <trkpt lat="50.77304" lon="2.72229">
        <ele>37.63</ele>
        <time>2017-08-04T10:18:56Z</time>
      </trkpt>
      <trkpt lat="50.77307" lon="2.72234">
        <ele>37.63</ele>
        <time>2017-08-04T10:18:57Z</time>
      </trkpt>
      <trkpt lat="50.77319" lon="2.72254">
        <ele>37.63</ele>
        <time>2017-08-04T10:19:01Z</time>
      </trkpt>
      <trkpt lat="50.77327" lon="2.72269">
        <ele>38.59</ele>
        <time>2017-08-04T10:19:04Z</time>
      </trkpt>
      <trkpt lat="50.77329" lon="2.72275">
        <ele>38.59</ele>
        <time>2017-08-04T10:19:05Z</time>
      </trkpt>
      <trkpt lat="50.77331" lon="2.7228">
        <ele>38.59</ele>
        <time>2017-08-04T10:19:06Z</time>
      </trkpt>
      <trkpt lat="50.77333" lon="2.72286">
        <ele>38.59</ele>
        <time>2017-08-04T10:19:07Z</time>
      </trkpt>
      <trkpt lat="50.77335" lon="2.72291">
        <ele>39.07</ele>
        <time>2017-08-04T10:19:08Z</time>
      </trkpt>
      <trkpt lat="50.77346" lon="2.72373">
        <ele>41.47</ele>
        <time>2017-08-04T10:19:23Z</time>
      </trkpt>
      <trkpt lat="50.77349" lon="2.7243">
        <ele>42.92</ele>
        <time>2017-08-04T10:19:35Z</time>
      </trkpt>
      <trkpt lat="50.77357" lon="2.72508">
        <ele>43.4</ele>
        <time>2017-08-04T10:19:55Z</time>
      </trkpt>
      <trkpt lat="50.77359" lon="2.72557">
        <ele>45.32</ele>
        <time>2017-08-04T10:20:09Z</time>
      </trkpt>
      <trkpt lat="50.77372" lon="2.72601">
        <ele>47.24</ele>
        <time>2017-08-04T10:20:23Z</time>
      </trkpt>
      <trkpt lat="50.7739" lon="2.72634">
        <ele>47.72</ele>
        <time>2017-08-04T10:20:34Z</time>
      </trkpt>
      <trkpt lat="50.77394" lon="2.72648">
        <ele>48.2</ele>
        <time>2017-08-04T10:20:39Z</time>
      </trkpt>
      <trkpt lat="50.77395" lon="2.72652">
        <ele>48.68</ele>
        <time>2017-08-04T10:20:41Z</time>
      </trkpt>
      <trkpt lat="50.77394" lon="2.72654">
        <ele>48.68</ele>
        <time>2017-08-04T10:20:42Z</time>
      </trkpt>
      <trkpt lat="50.77393" lon="2.72656">
        <ele>49.16</ele>
        <time>2017-08-04T10:20:43Z</time>
      </trkpt>
      <trkpt lat="50.77392" lon="2.72657">
        <ele>49.16</ele>
        <time>2017-08-04T10:20:44Z</time>
      </trkpt>
      <trkpt lat="50.77391" lon="2.72659">
        <ele>50.13</ele>
        <time>2017-08-04T10:20:45Z</time>
      </trkpt>
      <trkpt lat="50.77384" lon="2.72672">
        <ele>52.05</ele>
        <time>2017-08-04T10:20:52Z</time>
      </trkpt>
      <trkpt lat="50.77376" lon="2.72704">
        <ele>54.93</ele>
        <time>2017-08-04T10:21:06Z</time>
      </trkpt>
      <trkpt lat="50.77375" lon="2.72706">
        <ele>54.93</ele>
        <time>2017-08-04T10:21:07Z</time>
      </trkpt>
      <trkpt lat="50.77374" lon="2.72708">
        <ele>54.93</ele>
        <time>2017-08-04T10:21:08Z</time>
      </trkpt>
      <trkpt lat="50.77363" lon="2.7274">
        <ele>58.3</ele>
        <time>2017-08-04T10:21:23Z</time>
      </trkpt>
      <trkpt lat="50.77359" lon="2.72743">
        <ele>59.26</ele>
        <time>2017-08-04T10:21:34Z</time>
      </trkpt>
      <trkpt lat="50.7736" lon="2.72741">
        <ele>59.26</ele>
        <time>2017-08-04T10:22:02Z</time>
      </trkpt>
      <trkpt lat="50.7736" lon="2.72742">
        <ele>59.74</ele>
        <time>2017-08-04T10:22:21Z</time>
      </trkpt>
      <trkpt lat="50.7736" lon="2.72746">
        <ele>59.74</ele>
        <time>2017-08-04T10:22:27Z</time>
      </trkpt>
      <trkpt lat="50.7736" lon="2.72747">
        <ele>59.74</ele>
        <time>2017-08-04T10:22:28Z</time>
      </trkpt>
      <trkpt lat="50.77358" lon="2.7275">
        <ele>60.22</ele>
        <time>2017-08-04T10:22:30Z</time>
      </trkpt>
      <trkpt lat="50.77356" lon="2.72751">
        <ele>60.22</ele>
        <time>2017-08-04T10:22:31Z</time>
      </trkpt>
      <trkpt lat="50.77354" lon="2.72753">
        <ele>60.7</ele>
        <time>2017-08-04T10:22:32Z</time>
      </trkpt>
      <trkpt lat="50.77353" lon="2.72755">
        <ele>60.7</ele>
        <time>2017-08-04T10:22:33Z</time>
      </trkpt>
      <trkpt lat="50.77352" lon="2.72757">
        <ele>61.18</ele>
        <time>2017-08-04T10:22:34Z</time>
      </trkpt>
      <trkpt lat="50.77352" lon="2.72759">
        <ele>61.18</ele>
        <time>2017-08-04T10:22:35Z</time>
      </trkpt>
      <trkpt lat="50.77351" lon="2.7276">
        <ele>61.18</ele>
        <time>2017-08-04T10:22:36Z</time>
      </trkpt>
      <trkpt lat="50.77345" lon="2.72769">
        <ele>62.14</ele>
        <time>2017-08-04T10:22:42Z</time>
      </trkpt>
      <trkpt lat="50.77344" lon="2.7277">
        <ele>62.14</ele>
        <time>2017-08-04T10:22:43Z</time>
      </trkpt>
      <trkpt lat="50.77343" lon="2.72771">
        <ele>62.62</ele>
        <time>2017-08-04T10:22:44Z</time>
      </trkpt>
      <trkpt lat="50.77342" lon="2.72772">
        <ele>62.62</ele>
        <time>2017-08-04T10:22:45Z</time>
      </trkpt>
      <trkpt lat="50.77341" lon="2.72773">
        <ele>63.1</ele>
        <time>2017-08-04T10:22:46Z</time>
      </trkpt>
      <trkpt lat="50.7734" lon="2.72774">
        <ele>63.1</ele>
        <time>2017-08-04T10:22:47Z</time>
      </trkpt>
      <trkpt lat="50.77338" lon="2.72775">
        <ele>63.1</ele>
        <time>2017-08-04T10:22:48Z</time>
      </trkpt>
      <trkpt lat="50.77337" lon="2.72776">
        <ele>63.1</ele>
        <time>2017-08-04T10:22:49Z</time>
      </trkpt>
      <trkpt lat="50.77336" lon="2.72777">
        <ele>63.58</ele>
        <time>2017-08-04T10:22:50Z</time>
      </trkpt>
      <trkpt lat="50.77336" lon="2.7278">
        <ele>64.55</ele>
        <time>2017-08-04T10:22:52Z</time>
      </trkpt>
      <trkpt lat="50.77332" lon="2.72786">
        <ele>65.99</ele>
        <time>2017-08-04T10:22:57Z</time>
      </trkpt>
      <trkpt lat="50.77329" lon="2.72791">
        <ele>66.47</ele>
        <time>2017-08-04T10:23:00Z</time>
      </trkpt>
      <trkpt lat="50.77329" lon="2.72793">
        <ele>66.95</ele>
        <time>2017-08-04T10:23:01Z</time>
      </trkpt>
      <trkpt lat="50.77329" lon="2.72795">
        <ele>66.95</ele>
        <time>2017-08-04T10:23:02Z</time>
      </trkpt>
      <trkpt lat="50.77329" lon="2.72797">
        <ele>66.95</ele>
        <time>2017-08-04T10:23:03Z</time>
      </trkpt>
      <trkpt lat="50.77329" lon="2.72799">
        <ele>67.43</ele>
        <time>2017-08-04T10:23:04Z</time>
      </trkpt>
      <trkpt lat="50.7733" lon="2.72801">
        <ele>67.43</ele>
        <time>2017-08-04T10:23:05Z</time>
      </trkpt>
      <trkpt lat="50.7733" lon="2.72803">
        <ele>67.43</ele>
        <time>2017-08-04T10:23:06Z</time>
      </trkpt>
      <trkpt lat="50.7733" lon="2.72805">
        <ele>67.43</ele>
        <time>2017-08-04T10:23:07Z</time>
      </trkpt>
      <trkpt lat="50.7733" lon="2.72807">
        <ele>67.91</ele>
        <time>2017-08-04T10:23:08Z</time>
      </trkpt>
      <trkpt lat="50.77333" lon="2.72828">
        <ele>70.31</ele>
        <time>2017-08-04T10:23:20Z</time>
      </trkpt>
      <trkpt lat="50.77338" lon="2.7285">
        <ele>71.76</ele>
        <time>2017-08-04T10:23:33Z</time>
      </trkpt>
      <trkpt lat="50.77339" lon="2.7286">
        <ele>72.24</ele>
        <time>2017-08-04T10:23:55Z</time>
      </trkpt>
      <trkpt lat="50.7734" lon="2.72868">
        <ele>72.72</ele>
        <time>2017-08-04T10:24:23Z</time>
      </trkpt>
      <trkpt lat="50.77339" lon="2.7288">
        <ele>74.64</ele>
        <time>2017-08-04T10:24:30Z</time>
      </trkpt>
      <trkpt lat="50.77338" lon="2.72882">
        <ele>74.64</ele>
        <time>2017-08-04T10:24:31Z</time>
      </trkpt>
      <trkpt lat="50.77337" lon="2.72888">
        <ele>75.12</ele>
        <time>2017-08-04T10:24:34Z</time>
      </trkpt>
      <trkpt lat="50.77337" lon="2.72891">
        <ele>75.6</ele>
        <time>2017-08-04T10:24:35Z</time>
      </trkpt>
      <trkpt lat="50.77336" lon="2.72893">
        <ele>75.6</ele>
        <time>2017-08-04T10:24:36Z</time>
      </trkpt>
      <trkpt lat="50.77336" lon="2.72895">
        <ele>75.6</ele>
        <time>2017-08-04T10:24:37Z</time>
      </trkpt>
      <trkpt lat="50.77325" lon="2.72918">
        <ele>78.97</ele>
        <time>2017-08-04T10:24:49Z</time>
      </trkpt>
      <trkpt lat="50.77315" lon="2.72945">
        <ele>79.93</ele>
        <time>2017-08-04T10:25:03Z</time>
      </trkpt>
      <trkpt lat="50.77308" lon="2.72977">
        <ele>81.37</ele>
        <time>2017-08-04T10:25:15Z</time>
      </trkpt>
      <trkpt lat="50.77308" lon="2.72986">
        <ele>81.37</ele>
        <time>2017-08-04T10:25:18Z</time>
      </trkpt>
      <trkpt lat="50.77306" lon="2.73014">
        <ele>81.37</ele>
        <time>2017-08-04T10:25:30Z</time>
      </trkpt>
      <trkpt lat="50.77299" lon="2.73049">
        <ele>81.37</ele>
        <time>2017-08-04T10:25:46Z</time>
      </trkpt>
      <trkpt lat="50.77303" lon="2.73093">
        <ele>82.33</ele>
        <time>2017-08-04T10:26:01Z</time>
      </trkpt>
      <trkpt lat="50.77305" lon="2.73122">
        <ele>83.29</ele>
        <time>2017-08-04T10:26:10Z</time>
      </trkpt>
      <trkpt lat="50.77306" lon="2.73125">
        <ele>83.29</ele>
        <time>2017-08-04T10:26:11Z</time>
      </trkpt>
      <trkpt lat="50.77312" lon="2.73182">
        <ele>85.21</ele>
        <time>2017-08-04T10:26:25Z</time>
      </trkpt>
      <trkpt lat="50.77319" lon="2.73232">
        <ele>87.14</ele>
        <time>2017-08-04T10:26:40Z</time>
      </trkpt>
      <trkpt lat="50.77322" lon="2.73292">
        <ele>87.14</ele>
        <time>2017-08-04T10:26:56Z</time>
      </trkpt>
      <trkpt lat="50.77324" lon="2.7336">
        <ele>89.06</ele>
        <time>2017-08-04T10:27:13Z</time>
      </trkpt>
      <trkpt lat="50.77304" lon="2.73397">
        <ele>88.58</ele>
        <time>2017-08-04T10:27:24Z</time>
      </trkpt>
      <trkpt lat="50.77289" lon="2.73461">
        <ele>89.54</ele>
        <time>2017-08-04T10:27:37Z</time>
      </trkpt>
      <trkpt lat="50.77264" lon="2.73527">
        <ele>89.54</ele>
        <time>2017-08-04T10:27:51Z</time>
      </trkpt>
      <trkpt lat="50.77238" lon="2.73602">
        <ele>90.5</ele>
        <time>2017-08-04T10:28:09Z</time>
      </trkpt>
      <trkpt lat="50.77223" lon="2.73662">
        <ele>91.94</ele>
        <time>2017-08-04T10:28:23Z</time>
      </trkpt>
      <trkpt lat="50.77216" lon="2.73729">
        <ele>92.9</ele>
        <time>2017-08-04T10:28:37Z</time>
      </trkpt>
      <trkpt lat="50.772" lon="2.7378">
        <ele>92.42</ele>
        <time>2017-08-04T10:28:49Z</time>
      </trkpt>
      <trkpt lat="50.77188" lon="2.73849">
        <ele>92.42</ele>
        <time>2017-08-04T10:29:03Z</time>
      </trkpt>
      <trkpt lat="50.77192" lon="2.7392">
        <ele>92.42</ele>
        <time>2017-08-04T10:29:17Z</time>
      </trkpt>
      <trkpt lat="50.77195" lon="2.73957">
        <ele>92.42</ele>
        <time>2017-08-04T10:29:28Z</time>
      </trkpt>
      <trkpt lat="50.77194" lon="2.73957">
        <ele>92.9</ele>
        <time>2017-08-04T10:29:54Z</time>
      </trkpt>
      <trkpt lat="50.77195" lon="2.73963">
        <ele>91.46</ele>
        <time>2017-08-04T10:29:59Z</time>
      </trkpt>
      <trkpt lat="50.77196" lon="2.73965">
        <ele>91.46</ele>
        <time>2017-08-04T10:30:00Z</time>
      </trkpt>
      <trkpt lat="50.77198" lon="2.73968">
        <ele>91.46</ele>
        <time>2017-08-04T10:30:01Z</time>
      </trkpt>
      <trkpt lat="50.77201" lon="2.73969">
        <ele>91.46</ele>
        <time>2017-08-04T10:30:02Z</time>
      </trkpt>
      <trkpt lat="50.77203" lon="2.73969">
        <ele>91.46</ele>
        <time>2017-08-04T10:30:03Z</time>
      </trkpt>
      <trkpt lat="50.77205" lon="2.73969">
        <ele>92.9</ele>
        <time>2017-08-04T10:30:04Z</time>
      </trkpt>
      <trkpt lat="50.77208" lon="2.73968">
        <ele>92.9</ele>
        <time>2017-08-04T10:30:05Z</time>
      </trkpt>
      <trkpt lat="50.77211" lon="2.73966">
        <ele>92.9</ele>
        <time>2017-08-04T10:30:06Z</time>
      </trkpt>
      <trkpt lat="50.77213" lon="2.73965">
        <ele>92.9</ele>
        <time>2017-08-04T10:30:07Z</time>
      </trkpt>
      <trkpt lat="50.77216" lon="2.73963">
        <ele>92.9</ele>
        <time>2017-08-04T10:30:08Z</time>
      </trkpt>
      <trkpt lat="50.77219" lon="2.73962">
        <ele>92.9</ele>
        <time>2017-08-04T10:30:09Z</time>
      </trkpt>
      <trkpt lat="50.77221" lon="2.7396">
        <ele>92.9</ele>
        <time>2017-08-04T10:30:10Z</time>
      </trkpt>
      <trkpt lat="50.77224" lon="2.73959">
        <ele>92.9</ele>
        <time>2017-08-04T10:30:11Z</time>
      </trkpt>
      <trkpt lat="50.77265" lon="2.7394">
        <ele>93.87</ele>
        <time>2017-08-04T10:30:25Z</time>
      </trkpt>
      <trkpt lat="50.77327" lon="2.73912">
        <ele>95.79</ele>
        <time>2017-08-04T10:30:47Z</time>
      </trkpt>
      <trkpt lat="50.77377" lon="2.73896">
        <ele>96.75</ele>
        <time>2017-08-04T10:31:05Z</time>
      </trkpt>
      <trkpt lat="50.77436" lon="2.7388">
        <ele>98.19</ele>
        <time>2017-08-04T10:31:26Z</time>
      </trkpt>
      <trkpt lat="50.77482" lon="2.73868">
        <ele>100.11</ele>
        <time>2017-08-04T10:31:42Z</time>
      </trkpt>
      <trkpt lat="50.77539" lon="2.73854">
        <ele>102.04</ele>
        <time>2017-08-04T10:32:02Z</time>
      </trkpt>
      <trkpt lat="50.7759" lon="2.73844">
        <ele>103</ele>
        <time>2017-08-04T10:32:20Z</time>
      </trkpt>
      <trkpt lat="50.77603" lon="2.73846">
        <ele>103.96</ele>
        <time>2017-08-04T10:32:26Z</time>
      </trkpt>
      <trkpt lat="50.77604" lon="2.73849">
        <ele>103.96</ele>
        <time>2017-08-04T10:32:27Z</time>
      </trkpt>
      <trkpt lat="50.77606" lon="2.73854">
        <ele>103.96</ele>
        <time>2017-08-04T10:32:29Z</time>
      </trkpt>
      <trkpt lat="50.77633" lon="2.73891">
        <ele>103.96</ele>
        <time>2017-08-04T10:32:41Z</time>
      </trkpt>
      <trkpt lat="50.77648" lon="2.7391">
        <ele>101.56</ele>
        <time>2017-08-04T10:32:45Z</time>
      </trkpt>
      <trkpt lat="50.7766" lon="2.73932">
        <ele>98.19</ele>
        <time>2017-08-04T10:32:48Z</time>
      </trkpt>
      <trkpt lat="50.7768" lon="2.73967">
        <ele>95.31</ele>
        <time>2017-08-04T10:32:52Z</time>
      </trkpt>
      <trkpt lat="50.7769" lon="2.73987">
        <ele>94.83</ele>
        <time>2017-08-04T10:32:54Z</time>
      </trkpt>
      <trkpt lat="50.77732" lon="2.74078">
        <ele>93.39</ele>
        <time>2017-08-04T10:33:04Z</time>
      </trkpt>
      <trkpt lat="50.77736" lon="2.74083">
        <ele>93.39</ele>
        <time>2017-08-04T10:33:05Z</time>
      </trkpt>
      <trkpt lat="50.77742" lon="2.7409">
        <ele>93.39</ele>
        <time>2017-08-04T10:33:06Z</time>
      </trkpt>
      <trkpt lat="50.77746" lon="2.74093">
        <ele>93.39</ele>
        <time>2017-08-04T10:33:07Z</time>
      </trkpt>
      <trkpt lat="50.77751" lon="2.74097">
        <ele>93.39</ele>
        <time>2017-08-04T10:33:08Z</time>
      </trkpt>
      <trkpt lat="50.77786" lon="2.74124">
        <ele>96.27</ele>
        <time>2017-08-04T10:33:19Z</time>
      </trkpt>
      <trkpt lat="50.77788" lon="2.74127">
        <ele>96.27</ele>
        <time>2017-08-04T10:33:21Z</time>
      </trkpt>
      <trkpt lat="50.7779" lon="2.74127">
        <ele>96.75</ele>
        <time>2017-08-04T10:33:22Z</time>
      </trkpt>
      <trkpt lat="50.77791" lon="2.74128">
        <ele>96.75</ele>
        <time>2017-08-04T10:33:23Z</time>
      </trkpt>
      <trkpt lat="50.77795" lon="2.7413">
        <ele>97.23</ele>
        <time>2017-08-04T10:33:26Z</time>
      </trkpt>
      <trkpt lat="50.7781" lon="2.7414">
        <ele>98.67</ele>
        <time>2017-08-04T10:33:39Z</time>
      </trkpt>
      <trkpt lat="50.77811" lon="2.7414">
        <ele>99.63</ele>
        <time>2017-08-04T10:33:40Z</time>
      </trkpt>
      <trkpt lat="50.77814" lon="2.7414">
        <ele>100.6</ele>
        <time>2017-08-04T10:33:42Z</time>
      </trkpt>
      <trkpt lat="50.77832" lon="2.74147">
        <ele>103</ele>
        <time>2017-08-04T10:33:55Z</time>
      </trkpt>
      <trkpt lat="50.77851" lon="2.74153">
        <ele>105.88</ele>
        <time>2017-08-04T10:34:07Z</time>
      </trkpt>
      <trkpt lat="50.77874" lon="2.74164">
        <ele>107.32</ele>
        <time>2017-08-04T10:34:21Z</time>
      </trkpt>
      <trkpt lat="50.77898" lon="2.74182">
        <ele>109.73</ele>
        <time>2017-08-04T10:34:35Z</time>
      </trkpt>
      <trkpt lat="50.77925" lon="2.74207">
        <ele>110.69</ele>
        <time>2017-08-04T10:34:51Z</time>
      </trkpt>
      <trkpt lat="50.77931" lon="2.74211">
        <ele>111.17</ele>
        <time>2017-08-04T10:34:55Z</time>
      </trkpt>
      <trkpt lat="50.77952" lon="2.74226">
        <ele>113.57</ele>
        <time>2017-08-04T10:35:10Z</time>
      </trkpt>
      <trkpt lat="50.7797" lon="2.7424">
        <ele>114.05</ele>
        <time>2017-08-04T10:35:23Z</time>
      </trkpt>
      <trkpt lat="50.77971" lon="2.74241">
        <ele>114.05</ele>
        <time>2017-08-04T10:35:24Z</time>
      </trkpt>
      <trkpt lat="50.77973" lon="2.74242">
        <ele>115.01</ele>
        <time>2017-08-04T10:35:25Z</time>
      </trkpt>
      <trkpt lat="50.77975" lon="2.74243">
        <ele>115.01</ele>
        <time>2017-08-04T10:35:26Z</time>
      </trkpt>
      <trkpt lat="50.77977" lon="2.74244">
        <ele>115.01</ele>
        <time>2017-08-04T10:35:27Z</time>
      </trkpt>
      <trkpt lat="50.77979" lon="2.74246">
        <ele>115.01</ele>
        <time>2017-08-04T10:35:28Z</time>
      </trkpt>
      <trkpt lat="50.7798" lon="2.74248">
        <ele>115.01</ele>
        <time>2017-08-04T10:35:29Z</time>
      </trkpt>
      <trkpt lat="50.77986" lon="2.74252">
        <ele>115.01</ele>
        <time>2017-08-04T10:35:32Z</time>
      </trkpt>
      <trkpt lat="50.77988" lon="2.74253">
        <ele>115.01</ele>
        <time>2017-08-04T10:35:33Z</time>
      </trkpt>
      <trkpt lat="50.77989" lon="2.74254">
        <ele>115.01</ele>
        <time>2017-08-04T10:35:34Z</time>
      </trkpt>
      <trkpt lat="50.78022" lon="2.74273">
        <ele>113.57</ele>
        <time>2017-08-04T10:35:49Z</time>
      </trkpt>
      <trkpt lat="50.78045" lon="2.74274">
        <ele>113.57</ele>
        <time>2017-08-04T10:35:55Z</time>
      </trkpt>
      <trkpt lat="50.78048" lon="2.74271">
        <ele>113.57</ele>
        <time>2017-08-04T10:35:56Z</time>
      </trkpt>
      <trkpt lat="50.78052" lon="2.74267">
        <ele>113.09</ele>
        <time>2017-08-04T10:35:57Z</time>
      </trkpt>
      <trkpt lat="50.78054" lon="2.74263">
        <ele>113.09</ele>
        <time>2017-08-04T10:35:58Z</time>
      </trkpt>
      <trkpt lat="50.78056" lon="2.74259">
        <ele>113.09</ele>
        <time>2017-08-04T10:35:59Z</time>
      </trkpt>
      <trkpt lat="50.78059" lon="2.74256">
        <ele>113.09</ele>
        <time>2017-08-04T10:36:00Z</time>
      </trkpt>
      <trkpt lat="50.78088" lon="2.74208">
        <ele>113.57</ele>
        <time>2017-08-04T10:36:14Z</time>
      </trkpt>
      <trkpt lat="50.78111" lon="2.74183">
        <ele>113.57</ele>
        <time>2017-08-04T10:36:27Z</time>
      </trkpt>
      <trkpt lat="50.78115" lon="2.74177">
        <ele>115.01</ele>
        <time>2017-08-04T10:36:30Z</time>
      </trkpt>
      <trkpt lat="50.78126" lon="2.74166">
        <ele>117.9</ele>
        <time>2017-08-04T10:36:37Z</time>
      </trkpt>
      <trkpt lat="50.78148" lon="2.74138">
        <ele>120.3</ele>
        <time>2017-08-04T10:36:51Z</time>
      </trkpt>
      <trkpt lat="50.78165" lon="2.74126">
        <ele>120.3</ele>
        <time>2017-08-04T10:36:59Z</time>
      </trkpt>
      <trkpt lat="50.78167" lon="2.74126">
        <ele>120.3</ele>
        <time>2017-08-04T10:37:00Z</time>
      </trkpt>
      <trkpt lat="50.78169" lon="2.74127">
        <ele>120.3</ele>
        <time>2017-08-04T10:37:01Z</time>
      </trkpt>
      <trkpt lat="50.78171" lon="2.74129">
        <ele>120.3</ele>
        <time>2017-08-04T10:37:02Z</time>
      </trkpt>
      <trkpt lat="50.78172" lon="2.74131">
        <ele>120.3</ele>
        <time>2017-08-04T10:37:03Z</time>
      </trkpt>
      <trkpt lat="50.78174" lon="2.74133">
        <ele>119.34</ele>
        <time>2017-08-04T10:37:04Z</time>
      </trkpt>
      <trkpt lat="50.78175" lon="2.74135">
        <ele>119.34</ele>
        <time>2017-08-04T10:37:05Z</time>
      </trkpt>
      <trkpt lat="50.78176" lon="2.74138">
        <ele>119.34</ele>
        <time>2017-08-04T10:37:06Z</time>
      </trkpt>
      <trkpt lat="50.78191" lon="2.74171">
        <ele>119.34</ele>
        <time>2017-08-04T10:37:18Z</time>
      </trkpt>
      <trkpt lat="50.78191" lon="2.74172">
        <ele>119.34</ele>
        <time>2017-08-04T10:37:19Z</time>
      </trkpt>
      <trkpt lat="50.78188" lon="2.74171">
        <ele>119.34</ele>
        <time>2017-08-04T10:37:27Z</time>
      </trkpt>
      <trkpt lat="50.78188" lon="2.74171">
        <ele>118.38</ele>
        <time>2017-08-04T10:37:43Z</time>
      </trkpt>
      <trkpt lat="50.7819" lon="2.74169">
        <ele>118.38</ele>
        <time>2017-08-04T10:38:23Z</time>
      </trkpt>
      <trkpt lat="50.78189" lon="2.74172">
        <ele>118.38</ele>
        <time>2017-08-04T10:39:00Z</time>
      </trkpt>
      <trkpt lat="50.78189" lon="2.74173">
        <ele>119.82</ele>
        <time>2017-08-04T10:39:03Z</time>
      </trkpt>
      <trkpt lat="50.7819" lon="2.74171">
        <ele>119.82</ele>
        <time>2017-08-04T10:39:34Z</time>
      </trkpt>
      <trkpt lat="50.78189" lon="2.74172">
        <ele>118.38</ele>
        <time>2017-08-04T10:40:00Z</time>
      </trkpt>
      <trkpt lat="50.7819" lon="2.7417">
        <ele>119.82</ele>
        <time>2017-08-04T10:40:13Z</time>
      </trkpt>
      <trkpt lat="50.7819" lon="2.74165">
        <ele>118.86</ele>
        <time>2017-08-04T10:40:34Z</time>
      </trkpt>
      <trkpt lat="50.78191" lon="2.74165">
        <ele>118.38</ele>
        <time>2017-08-04T10:41:03Z</time>
      </trkpt>
      <trkpt lat="50.78193" lon="2.74168">
        <ele>118.38</ele>
        <time>2017-08-04T10:41:07Z</time>
      </trkpt>
      <trkpt lat="50.78209" lon="2.74211">
        <ele>118.38</ele>
        <time>2017-08-04T10:41:20Z</time>
      </trkpt>
      <trkpt lat="50.78228" lon="2.74263">
        <ele>118.38</ele>
        <time>2017-08-04T10:41:33Z</time>
      </trkpt>
      <trkpt lat="50.78243" lon="2.743">
        <ele>119.82</ele>
        <time>2017-08-04T10:41:43Z</time>
      </trkpt>
      <trkpt lat="50.7827" lon="2.74373">
        <ele>120.78</ele>
        <time>2017-08-04T10:42:02Z</time>
      </trkpt>
      <trkpt lat="50.78297" lon="2.7444">
        <ele>122.71</ele>
        <time>2017-08-04T10:42:20Z</time>
      </trkpt>
      <trkpt lat="50.78312" lon="2.74495">
        <ele>124.15</ele>
        <time>2017-08-04T10:42:34Z</time>
      </trkpt>
      <trkpt lat="50.78316" lon="2.74566">
        <ele>124.63</ele>
        <time>2017-08-04T10:42:50Z</time>
      </trkpt>
      <trkpt lat="50.78317" lon="2.74624">
        <ele>124.63</ele>
        <time>2017-08-04T10:43:03Z</time>
      </trkpt>
      <trkpt lat="50.78319" lon="2.74713">
        <ele>123.67</ele>
        <time>2017-08-04T10:43:17Z</time>
      </trkpt>
      <trkpt lat="50.78332" lon="2.74808">
        <ele>120.3</ele>
        <time>2017-08-04T10:43:27Z</time>
      </trkpt>
      <trkpt lat="50.78356" lon="2.74899">
        <ele>116.46</ele>
        <time>2017-08-04T10:43:35Z</time>
      </trkpt>
      <trkpt lat="50.7836" lon="2.74912">
        <ele>116.46</ele>
        <time>2017-08-04T10:43:36Z</time>
      </trkpt>
      <trkpt lat="50.78372" lon="2.74947">
        <ele>115.01</ele>
        <time>2017-08-04T10:43:39Z</time>
      </trkpt>
      <trkpt lat="50.78408" lon="2.75028">
        <ele>111.17</ele>
        <time>2017-08-04T10:43:46Z</time>
      </trkpt>
      <trkpt lat="50.78429" lon="2.75075">
        <ele>108.29</ele>
        <time>2017-08-04T10:43:50Z</time>
      </trkpt>
      <trkpt lat="50.78438" lon="2.751">
        <ele>107.81</ele>
        <time>2017-08-04T10:43:52Z</time>
      </trkpt>
      <trkpt lat="50.78441" lon="2.75112">
        <ele>107.81</ele>
        <time>2017-08-04T10:43:53Z</time>
      </trkpt>
      <trkpt lat="50.78443" lon="2.75126">
        <ele>107.81</ele>
        <time>2017-08-04T10:43:54Z</time>
      </trkpt>
      <trkpt lat="50.78445" lon="2.7514">
        <ele>107.81</ele>
        <time>2017-08-04T10:43:55Z</time>
      </trkpt>
      <trkpt lat="50.78447" lon="2.75153">
        <ele>107.81</ele>
        <time>2017-08-04T10:43:56Z</time>
      </trkpt>
      <trkpt lat="50.78451" lon="2.75265">
        <ele>109.73</ele>
        <time>2017-08-04T10:44:07Z</time>
      </trkpt>
      <trkpt lat="50.7844" lon="2.75332">
        <ele>112.13</ele>
        <time>2017-08-04T10:44:22Z</time>
      </trkpt>
      <trkpt lat="50.78434" lon="2.7539">
        <ele>113.57</ele>
        <time>2017-08-04T10:44:38Z</time>
      </trkpt>
      <trkpt lat="50.78438" lon="2.75445">
        <ele>115.5</ele>
        <time>2017-08-04T10:44:53Z</time>
      </trkpt>
      <trkpt lat="50.7845" lon="2.75503">
        <ele>117.9</ele>
        <time>2017-08-04T10:45:09Z</time>
      </trkpt>
      <trkpt lat="50.78455" lon="2.7553">
        <ele>117.9</ele>
        <time>2017-08-04T10:45:17Z</time>
      </trkpt>
      <trkpt lat="50.78454" lon="2.75532">
        <ele>117.9</ele>
        <time>2017-08-04T10:45:18Z</time>
      </trkpt>
      <trkpt lat="50.78453" lon="2.75534">
        <ele>117.9</ele>
        <time>2017-08-04T10:45:19Z</time>
      </trkpt>
      <trkpt lat="50.78452" lon="2.75536">
        <ele>118.38</ele>
        <time>2017-08-04T10:45:20Z</time>
      </trkpt>
      <trkpt lat="50.78451" lon="2.75536">
        <ele>118.86</ele>
        <time>2017-08-04T10:45:21Z</time>
      </trkpt>
      <trkpt lat="50.78445" lon="2.75532">
        <ele>119.34</ele>
        <time>2017-08-04T10:45:26Z</time>
      </trkpt>
      <trkpt lat="50.78424" lon="2.75511">
        <ele>120.3</ele>
        <time>2017-08-04T10:45:41Z</time>
      </trkpt>
      <trkpt lat="50.78399" lon="2.75502">
        <ele>122.71</ele>
        <time>2017-08-04T10:45:56Z</time>
      </trkpt>
      <trkpt lat="50.78396" lon="2.75504">
        <ele>122.71</ele>
        <time>2017-08-04T10:45:59Z</time>
      </trkpt>
      <trkpt lat="50.78393" lon="2.75505">
        <ele>123.19</ele>
        <time>2017-08-04T10:46:01Z</time>
      </trkpt>
      <trkpt lat="50.78376" lon="2.75522">
        <ele>123.67</ele>
        <time>2017-08-04T10:46:14Z</time>
      </trkpt>
      <trkpt lat="50.78372" lon="2.75532">
        <ele>125.11</ele>
        <time>2017-08-04T10:46:19Z</time>
      </trkpt>
      <trkpt lat="50.78376" lon="2.75553">
        <ele>128.95</ele>
        <time>2017-08-04T10:46:29Z</time>
      </trkpt>
      <trkpt lat="50.78379" lon="2.75558">
        <ele>129.92</ele>
        <time>2017-08-04T10:46:41Z</time>
      </trkpt>
      <trkpt lat="50.78378" lon="2.75558">
        <ele>129.92</ele>
        <time>2017-08-04T10:46:43Z</time>
      </trkpt>
      <trkpt lat="50.78374" lon="2.75556">
        <ele>128.47</ele>
        <time>2017-08-04T10:46:45Z</time>
      </trkpt>
      <trkpt lat="50.78373" lon="2.75554">
        <ele>128.47</ele>
        <time>2017-08-04T10:46:46Z</time>
      </trkpt>
      <trkpt lat="50.78372" lon="2.75553">
        <ele>128.47</ele>
        <time>2017-08-04T10:46:47Z</time>
      </trkpt>
      <trkpt lat="50.7837" lon="2.7555">
        <ele>128.47</ele>
        <time>2017-08-04T10:46:48Z</time>
      </trkpt>
      <trkpt lat="50.78367" lon="2.75548">
        <ele>128.47</ele>
        <time>2017-08-04T10:46:50Z</time>
      </trkpt>
      <trkpt lat="50.78366" lon="2.75548">
        <ele>127.99</ele>
        <time>2017-08-04T10:46:51Z</time>
      </trkpt>
      <trkpt lat="50.78362" lon="2.75554">
        <ele>127.03</ele>
        <time>2017-08-04T10:47:03Z</time>
      </trkpt>
      <trkpt lat="50.7836" lon="2.75562">
        <ele>128.47</ele>
        <time>2017-08-04T10:47:10Z</time>
      </trkpt>
      <trkpt lat="50.78355" lon="2.75573">
        <ele>131.36</ele>
        <time>2017-08-04T10:47:29Z</time>
      </trkpt>
      <trkpt lat="50.7835" lon="2.75587">
        <ele>133.28</ele>
        <time>2017-08-04T10:47:45Z</time>
      </trkpt>
      <trkpt lat="50.78349" lon="2.75601">
        <ele>136.16</ele>
        <time>2017-08-04T10:48:03Z</time>
      </trkpt>
      <trkpt lat="50.78352" lon="2.75615">
        <ele>139.05</ele>
        <time>2017-08-04T10:48:19Z</time>
      </trkpt>
      <trkpt lat="50.78358" lon="2.75634">
        <ele>140.01</ele>
        <time>2017-08-04T10:48:33Z</time>
      </trkpt>
      <trkpt lat="50.78358" lon="2.75636">
        <ele>140.01</ele>
        <time>2017-08-04T10:48:34Z</time>
      </trkpt>
      <trkpt lat="50.78363" lon="2.7565">
        <ele>140.97</ele>
        <time>2017-08-04T10:48:50Z</time>
      </trkpt>
      <trkpt lat="50.78365" lon="2.75653">
        <ele>140.97</ele>
        <time>2017-08-04T10:49:11Z</time>
      </trkpt>
      <trkpt lat="50.78365" lon="2.75655">
        <ele>140.97</ele>
        <time>2017-08-04T10:49:12Z</time>
      </trkpt>
      <trkpt lat="50.78367" lon="2.75655">
        <ele>140.97</ele>
        <time>2017-08-04T10:49:13Z</time>
      </trkpt>
      <trkpt lat="50.78368" lon="2.75656">
        <ele>140.97</ele>
        <time>2017-08-04T10:49:14Z</time>
      </trkpt>
      <trkpt lat="50.78369" lon="2.75657">
        <ele>140.97</ele>
        <time>2017-08-04T10:49:15Z</time>
      </trkpt>
      <trkpt lat="50.7837" lon="2.75659">
        <ele>140.97</ele>
        <time>2017-08-04T10:49:16Z</time>
      </trkpt>
      <trkpt lat="50.78371" lon="2.75662">
        <ele>140.97</ele>
        <time>2017-08-04T10:49:17Z</time>
      </trkpt>
      <trkpt lat="50.78372" lon="2.75664">
        <ele>140.97</ele>
        <time>2017-08-04T10:49:18Z</time>
      </trkpt>
      <trkpt lat="50.78373" lon="2.75667">
        <ele>140.97</ele>
        <time>2017-08-04T10:49:19Z</time>
      </trkpt>
      <trkpt lat="50.78388" lon="2.75718">
        <ele>138.09</ele>
        <time>2017-08-04T10:49:29Z</time>
      </trkpt>
      <trkpt lat="50.78402" lon="2.75765">
        <ele>135.2</ele>
        <time>2017-08-04T10:49:34Z</time>
      </trkpt>
      <trkpt lat="50.78414" lon="2.75798">
        <ele>133.28</ele>
        <time>2017-08-04T10:49:37Z</time>
      </trkpt>
      <trkpt lat="50.7844" lon="2.75844">
        <ele>134.24</ele>
        <time>2017-08-04T10:49:45Z</time>
      </trkpt>
      <trkpt lat="50.78439" lon="2.75848">
        <ele>134.24</ele>
        <time>2017-08-04T10:49:46Z</time>
      </trkpt>
      <trkpt lat="50.78438" lon="2.75851">
        <ele>134.72</ele>
        <time>2017-08-04T10:49:47Z</time>
      </trkpt>
      <trkpt lat="50.78436" lon="2.75854">
        <ele>134.72</ele>
        <time>2017-08-04T10:49:48Z</time>
      </trkpt>
      <trkpt lat="50.78434" lon="2.75856">
        <ele>134.72</ele>
        <time>2017-08-04T10:49:49Z</time>
      </trkpt>
      <trkpt lat="50.7843" lon="2.75859">
        <ele>133.28</ele>
        <time>2017-08-04T10:49:50Z</time>
      </trkpt>
      <trkpt lat="50.78427" lon="2.75862">
        <ele>133.28</ele>
        <time>2017-08-04T10:49:51Z</time>
      </trkpt>
      <trkpt lat="50.78412" lon="2.75875">
        <ele>132.32</ele>
        <time>2017-08-04T10:50:00Z</time>
      </trkpt>
      <trkpt lat="50.78398" lon="2.7589">
        <ele>131.84</ele>
        <time>2017-08-04T10:50:19Z</time>
      </trkpt>
      <trkpt lat="50.78392" lon="2.75899">
        <ele>131.36</ele>
        <time>2017-08-04T10:50:21Z</time>
      </trkpt>
      <trkpt lat="50.78388" lon="2.75905">
        <ele>130.88</ele>
        <time>2017-08-04T10:50:22Z</time>
      </trkpt>
      <trkpt lat="50.78374" lon="2.75937">
        <ele>127.99</ele>
        <time>2017-08-04T10:50:28Z</time>
      </trkpt>
      <trkpt lat="50.7836" lon="2.75994">
        <ele>124.63</ele>
        <time>2017-08-04T10:50:39Z</time>
      </trkpt>
      <trkpt lat="50.78363" lon="2.76073">
        <ele>121.74</ele>
        <time>2017-08-04T10:50:52Z</time>
      </trkpt>
      <trkpt lat="50.7836" lon="2.76123">
        <ele>120.3</ele>
        <time>2017-08-04T10:51:03Z</time>
      </trkpt>
      <trkpt lat="50.7836" lon="2.76128">
        <ele>120.3</ele>
        <time>2017-08-04T10:51:11Z</time>
      </trkpt>
      <trkpt lat="50.78361" lon="2.76131">
        <ele>119.82</ele>
        <time>2017-08-04T10:51:12Z</time>
      </trkpt>
      <trkpt lat="50.78361" lon="2.76135">
        <ele>119.34</ele>
        <time>2017-08-04T10:51:13Z</time>
      </trkpt>
      <trkpt lat="50.78363" lon="2.76154">
        <ele>118.38</ele>
        <time>2017-08-04T10:51:16Z</time>
      </trkpt>
      <trkpt lat="50.78364" lon="2.76161">
        <ele>118.38</ele>
        <time>2017-08-04T10:51:17Z</time>
      </trkpt>
      <trkpt lat="50.78367" lon="2.76197">
        <ele>114.53</ele>
        <time>2017-08-04T10:51:21Z</time>
      </trkpt>
      <trkpt lat="50.78367" lon="2.76206">
        <ele>115.01</ele>
        <time>2017-08-04T10:51:22Z</time>
      </trkpt>
      <trkpt lat="50.78369" lon="2.76217">
        <ele>114.05</ele>
        <time>2017-08-04T10:51:23Z</time>
      </trkpt>
      <trkpt lat="50.78372" lon="2.76227">
        <ele>113.57</ele>
        <time>2017-08-04T10:51:24Z</time>
      </trkpt>
      <trkpt lat="50.78375" lon="2.76237">
        <ele>113.57</ele>
        <time>2017-08-04T10:51:25Z</time>
      </trkpt>
      <trkpt lat="50.78378" lon="2.76246">
        <ele>112.61</ele>
        <time>2017-08-04T10:51:26Z</time>
      </trkpt>
      <trkpt lat="50.78381" lon="2.76257">
        <ele>111.65</ele>
        <time>2017-08-04T10:51:27Z</time>
      </trkpt>
      <trkpt lat="50.78382" lon="2.76267">
        <ele>111.65</ele>
        <time>2017-08-04T10:51:28Z</time>
      </trkpt>
      <trkpt lat="50.78384" lon="2.76278">
        <ele>110.69</ele>
        <time>2017-08-04T10:51:29Z</time>
      </trkpt>
      <trkpt lat="50.78387" lon="2.76297">
        <ele>110.21</ele>
        <time>2017-08-04T10:51:31Z</time>
      </trkpt>
      <trkpt lat="50.78391" lon="2.76316">
        <ele>109.25</ele>
        <time>2017-08-04T10:51:33Z</time>
      </trkpt>
      <trkpt lat="50.78391" lon="2.76325">
        <ele>109.25</ele>
        <time>2017-08-04T10:51:34Z</time>
      </trkpt>
      <trkpt lat="50.78392" lon="2.76335">
        <ele>108.77</ele>
        <time>2017-08-04T10:51:35Z</time>
      </trkpt>
      <trkpt lat="50.78391" lon="2.76343">
        <ele>108.77</ele>
        <time>2017-08-04T10:51:36Z</time>
      </trkpt>
      <trkpt lat="50.78389" lon="2.76354">
        <ele>108.29</ele>
        <time>2017-08-04T10:51:37Z</time>
      </trkpt>
      <trkpt lat="50.78389" lon="2.76362">
        <ele>107.81</ele>
        <time>2017-08-04T10:51:38Z</time>
      </trkpt>
      <trkpt lat="50.78387" lon="2.76383">
        <ele>107.81</ele>
        <time>2017-08-04T10:51:40Z</time>
      </trkpt>
      <trkpt lat="50.78386" lon="2.76392">
        <ele>107.32</ele>
        <time>2017-08-04T10:51:41Z</time>
      </trkpt>
      <trkpt lat="50.78383" lon="2.76403">
        <ele>106.36</ele>
        <time>2017-08-04T10:51:42Z</time>
      </trkpt>
      <trkpt lat="50.78381" lon="2.76412">
        <ele>106.36</ele>
        <time>2017-08-04T10:51:43Z</time>
      </trkpt>
      <trkpt lat="50.78377" lon="2.76434">
        <ele>103.96</ele>
        <time>2017-08-04T10:51:45Z</time>
      </trkpt>
      <trkpt lat="50.78375" lon="2.76445">
        <ele>103.96</ele>
        <time>2017-08-04T10:51:46Z</time>
      </trkpt>
      <trkpt lat="50.78372" lon="2.76482">
        <ele>103.48</ele>
        <time>2017-08-04T10:51:49Z</time>
      </trkpt>
      <trkpt lat="50.78372" lon="2.76507">
        <ele>102.52</ele>
        <time>2017-08-04T10:51:51Z</time>
      </trkpt>
      <trkpt lat="50.78371" lon="2.76573">
        <ele>99.63</ele>
        <time>2017-08-04T10:51:56Z</time>
      </trkpt>
      <trkpt lat="50.78368" lon="2.76638">
        <ele>99.63</ele>
        <time>2017-08-04T10:52:04Z</time>
      </trkpt>
      <trkpt lat="50.78377" lon="2.76701">
        <ele>97.23</ele>
        <time>2017-08-04T10:52:12Z</time>
      </trkpt>
      <trkpt lat="50.78376" lon="2.76708">
        <ele>96.27</ele>
        <time>2017-08-04T10:52:13Z</time>
      </trkpt>
      <trkpt lat="50.78372" lon="2.76715">
        <ele>96.27</ele>
        <time>2017-08-04T10:52:14Z</time>
      </trkpt>
      <trkpt lat="50.78368" lon="2.7672">
        <ele>96.27</ele>
        <time>2017-08-04T10:52:15Z</time>
      </trkpt>
      <trkpt lat="50.78362" lon="2.76727">
        <ele>95.79</ele>
        <time>2017-08-04T10:52:16Z</time>
      </trkpt>
      <trkpt lat="50.78342" lon="2.76752">
        <ele>93.87</ele>
        <time>2017-08-04T10:52:20Z</time>
      </trkpt>
      <trkpt lat="50.78309" lon="2.76783">
        <ele>90.5</ele>
        <time>2017-08-04T10:52:25Z</time>
      </trkpt>
      <trkpt lat="50.7821" lon="2.76846">
        <ele>87.62</ele>
        <time>2017-08-04T10:52:38Z</time>
      </trkpt>
      <trkpt lat="50.7817" lon="2.76874">
        <ele>84.73</ele>
        <time>2017-08-04T10:52:44Z</time>
      </trkpt>
      <trkpt lat="50.78079" lon="2.76957">
        <ele>83.29</ele>
        <time>2017-08-04T10:52:59Z</time>
      </trkpt>
      <trkpt lat="50.78062" lon="2.76976">
        <ele>82.81</ele>
        <time>2017-08-04T10:53:02Z</time>
      </trkpt>
      <trkpt lat="50.78057" lon="2.76984">
        <ele>82.81</ele>
        <time>2017-08-04T10:53:03Z</time>
      </trkpt>
      <trkpt lat="50.78053" lon="2.76992">
        <ele>82.81</ele>
        <time>2017-08-04T10:53:04Z</time>
      </trkpt>
      <trkpt lat="50.78049" lon="2.77001">
        <ele>82.81</ele>
        <time>2017-08-04T10:53:05Z</time>
      </trkpt>
      <trkpt lat="50.78046" lon="2.77009">
        <ele>82.81</ele>
        <time>2017-08-04T10:53:06Z</time>
      </trkpt>
      <trkpt lat="50.78044" lon="2.77017">
        <ele>82.81</ele>
        <time>2017-08-04T10:53:07Z</time>
      </trkpt>
      <trkpt lat="50.78017" lon="2.77117">
        <ele>82.33</ele>
        <time>2017-08-04T10:53:19Z</time>
      </trkpt>
      <trkpt lat="50.78014" lon="2.77122">
        <ele>81.85</ele>
        <time>2017-08-04T10:53:20Z</time>
      </trkpt>
      <trkpt lat="50.78011" lon="2.77126">
        <ele>81.85</ele>
        <time>2017-08-04T10:53:21Z</time>
      </trkpt>
      <trkpt lat="50.77998" lon="2.77142">
        <ele>80.89</ele>
        <time>2017-08-04T10:53:29Z</time>
      </trkpt>
      <trkpt lat="50.77968" lon="2.77187">
        <ele>80.89</ele>
        <time>2017-08-04T10:53:40Z</time>
      </trkpt>
      <trkpt lat="50.77961" lon="2.77197">
        <ele>82.33</ele>
        <time>2017-08-04T10:53:42Z</time>
      </trkpt>
      <trkpt lat="50.77919" lon="2.77258">
        <ele>79.45</ele>
        <time>2017-08-04T10:53:53Z</time>
      </trkpt>
      <trkpt lat="50.77843" lon="2.77339">
        <ele>78.48</ele>
        <time>2017-08-04T10:54:10Z</time>
      </trkpt>
      <trkpt lat="50.77838" lon="2.77343">
        <ele>78.48</ele>
        <time>2017-08-04T10:54:11Z</time>
      </trkpt>
      <trkpt lat="50.77833" lon="2.77346">
        <ele>78.48</ele>
        <time>2017-08-04T10:54:12Z</time>
      </trkpt>
      <trkpt lat="50.77747" lon="2.77382">
        <ele>75.6</ele>
        <time>2017-08-04T10:54:28Z</time>
      </trkpt>
      <trkpt lat="50.77726" lon="2.77386">
        <ele>73.68</ele>
        <time>2017-08-04T10:54:32Z</time>
      </trkpt>
      <trkpt lat="50.77695" lon="2.77392">
        <ele>72.72</ele>
        <time>2017-08-04T10:54:38Z</time>
      </trkpt>
      <trkpt lat="50.7768" lon="2.77395">
        <ele>76.08</ele>
        <time>2017-08-04T10:54:41Z</time>
      </trkpt>
      <trkpt lat="50.77676" lon="2.77395">
        <ele>76.08</ele>
        <time>2017-08-04T10:54:42Z</time>
      </trkpt>
      <trkpt lat="50.77666" lon="2.77396">
        <ele>74.64</ele>
        <time>2017-08-04T10:54:44Z</time>
      </trkpt>
      <trkpt lat="50.77647" lon="2.77397">
        <ele>73.68</ele>
        <time>2017-08-04T10:54:48Z</time>
      </trkpt>
      <trkpt lat="50.77643" lon="2.77398">
        <ele>75.6</ele>
        <time>2017-08-04T10:54:49Z</time>
      </trkpt>
      <trkpt lat="50.77639" lon="2.77398">
        <ele>75.6</ele>
        <time>2017-08-04T10:54:50Z</time>
      </trkpt>
      <trkpt lat="50.77608" lon="2.77411">
        <ele>74.64</ele>
        <time>2017-08-04T10:55:01Z</time>
      </trkpt>
      <trkpt lat="50.77561" lon="2.77439">
        <ele>75.12</ele>
        <time>2017-08-04T10:55:16Z</time>
      </trkpt>
      <trkpt lat="50.77559" lon="2.7744">
        <ele>75.12</ele>
        <time>2017-08-04T10:55:17Z</time>
      </trkpt>
      <trkpt lat="50.77555" lon="2.77444">
        <ele>73.68</ele>
        <time>2017-08-04T10:55:19Z</time>
      </trkpt>
      <trkpt lat="50.77544" lon="2.77453">
        <ele>75.12</ele>
        <time>2017-08-04T10:55:24Z</time>
      </trkpt>
      <trkpt lat="50.77514" lon="2.77484">
        <ele>77.52</ele>
        <time>2017-08-04T10:55:38Z</time>
      </trkpt>
      <trkpt lat="50.77512" lon="2.77487">
        <ele>77.04</ele>
        <time>2017-08-04T10:55:39Z</time>
      </trkpt>
      <trkpt lat="50.77481" lon="2.77523">
        <ele>77.04</ele>
        <time>2017-08-04T10:55:52Z</time>
      </trkpt>
      <trkpt lat="50.77479" lon="2.77526">
        <ele>77.04</ele>
        <time>2017-08-04T10:55:53Z</time>
      </trkpt>
      <trkpt lat="50.77464" lon="2.77545">
        <ele>77.52</ele>
        <time>2017-08-04T10:55:59Z</time>
      </trkpt>
      <trkpt lat="50.77461" lon="2.77555">
        <ele>77.52</ele>
        <time>2017-08-04T10:56:02Z</time>
      </trkpt>
      <trkpt lat="50.77461" lon="2.77558">
        <ele>79.45</ele>
        <time>2017-08-04T10:56:03Z</time>
      </trkpt>
      <trkpt lat="50.77463" lon="2.7756">
        <ele>79.45</ele>
        <time>2017-08-04T10:56:04Z</time>
      </trkpt>
      <trkpt lat="50.77465" lon="2.77562">
        <ele>79.45</ele>
        <time>2017-08-04T10:56:05Z</time>
      </trkpt>
      <trkpt lat="50.77468" lon="2.77562">
        <ele>79.45</ele>
        <time>2017-08-04T10:56:06Z</time>
      </trkpt>
      <trkpt lat="50.7747" lon="2.77562">
        <ele>79.45</ele>
        <time>2017-08-04T10:56:07Z</time>
      </trkpt>
      <trkpt lat="50.77473" lon="2.77561">
        <ele>79.93</ele>
        <time>2017-08-04T10:56:08Z</time>
      </trkpt>
      <trkpt lat="50.77479" lon="2.77557">
        <ele>79.93</ele>
        <time>2017-08-04T10:56:11Z</time>
      </trkpt>
      <trkpt lat="50.7748" lon="2.77554">
        <ele>78.97</ele>
        <time>2017-08-04T10:56:12Z</time>
      </trkpt>
      <trkpt lat="50.77478" lon="2.77553">
        <ele>77.52</ele>
        <time>2017-08-04T10:56:13Z</time>
      </trkpt>
      <trkpt lat="50.77476" lon="2.77554">
        <ele>77.52</ele>
        <time>2017-08-04T10:56:14Z</time>
      </trkpt>
      <trkpt lat="50.77475" lon="2.77555">
        <ele>77.52</ele>
        <time>2017-08-04T10:56:15Z</time>
      </trkpt>
      <trkpt lat="50.77458" lon="2.77572">
        <ele>77.52</ele>
        <time>2017-08-04T10:56:22Z</time>
      </trkpt>
      <trkpt lat="50.77457" lon="2.77576">
        <ele>77.52</ele>
        <time>2017-08-04T10:56:23Z</time>
      </trkpt>
      <trkpt lat="50.77458" lon="2.7758">
        <ele>77.52</ele>
        <time>2017-08-04T10:56:24Z</time>
      </trkpt>
      <trkpt lat="50.77459" lon="2.77584">
        <ele>77.52</ele>
        <time>2017-08-04T10:56:25Z</time>
      </trkpt>
      <trkpt lat="50.77461" lon="2.77589">
        <ele>77.52</ele>
        <time>2017-08-04T10:56:26Z</time>
      </trkpt>
      <trkpt lat="50.77464" lon="2.77592">
        <ele>77.52</ele>
        <time>2017-08-04T10:56:27Z</time>
      </trkpt>
      <trkpt lat="50.77467" lon="2.77596">
        <ele>77.52</ele>
        <time>2017-08-04T10:56:28Z</time>
      </trkpt>
      <trkpt lat="50.7747" lon="2.77599">
        <ele>77.52</ele>
        <time>2017-08-04T10:56:29Z</time>
      </trkpt>
      <trkpt lat="50.77472" lon="2.77603">
        <ele>77.04</ele>
        <time>2017-08-04T10:56:30Z</time>
      </trkpt>
      <trkpt lat="50.77508" lon="2.77648">
        <ele>76.08</ele>
        <time>2017-08-04T10:56:41Z</time>
      </trkpt>
      <trkpt lat="50.77539" lon="2.77692">
        <ele>74.16</ele>
        <time>2017-08-04T10:56:49Z</time>
      </trkpt>
      <trkpt lat="50.77543" lon="2.77701">
        <ele>74.16</ele>
        <time>2017-08-04T10:56:50Z</time>
      </trkpt>
      <trkpt lat="50.77547" lon="2.77709">
        <ele>74.16</ele>
        <time>2017-08-04T10:56:51Z</time>
      </trkpt>
      <trkpt lat="50.77549" lon="2.77719">
        <ele>73.68</ele>
        <time>2017-08-04T10:56:52Z</time>
      </trkpt>
      <trkpt lat="50.77552" lon="2.7773">
        <ele>72.24</ele>
        <time>2017-08-04T10:56:53Z</time>
      </trkpt>
      <trkpt lat="50.77557" lon="2.77751">
        <ele>71.27</ele>
        <time>2017-08-04T10:56:55Z</time>
      </trkpt>
      <trkpt lat="50.77583" lon="2.7787">
        <ele>68.39</ele>
        <time>2017-08-04T10:57:05Z</time>
      </trkpt>
      <trkpt lat="50.77612" lon="2.78023">
        <ele>64.55</ele>
        <time>2017-08-04T10:57:18Z</time>
      </trkpt>
      <trkpt lat="50.7764" lon="2.7811">
        <ele>61.66</ele>
        <time>2017-08-04T10:57:25Z</time>
      </trkpt>
      <trkpt lat="50.77667" lon="2.78191">
        <ele>57.82</ele>
        <time>2017-08-04T10:57:31Z</time>
      </trkpt>
      <trkpt lat="50.77671" lon="2.78205">
        <ele>57.82</ele>
        <time>2017-08-04T10:57:32Z</time>
      </trkpt>
      <trkpt lat="50.77691" lon="2.78303">
        <ele>55.89</ele>
        <time>2017-08-04T10:57:39Z</time>
      </trkpt>
      <trkpt lat="50.77717" lon="2.78454">
        <ele>53.49</ele>
        <time>2017-08-04T10:57:50Z</time>
      </trkpt>
      <trkpt lat="50.77737" lon="2.78601">
        <ele>51.57</ele>
        <time>2017-08-04T10:58:04Z</time>
      </trkpt>
      <trkpt lat="50.77738" lon="2.78617">
        <ele>51.09</ele>
        <time>2017-08-04T10:58:06Z</time>
      </trkpt>
      <trkpt lat="50.7774" lon="2.78624">
        <ele>53.01</ele>
        <time>2017-08-04T10:58:07Z</time>
      </trkpt>
      <trkpt lat="50.77741" lon="2.78631">
        <ele>53.01</ele>
        <time>2017-08-04T10:58:08Z</time>
      </trkpt>
      <trkpt lat="50.77744" lon="2.78636">
        <ele>53.01</ele>
        <time>2017-08-04T10:58:09Z</time>
      </trkpt>
      <trkpt lat="50.77746" lon="2.7864">
        <ele>53.01</ele>
        <time>2017-08-04T10:58:10Z</time>
      </trkpt>
      <trkpt lat="50.7775" lon="2.78644">
        <ele>53.01</ele>
        <time>2017-08-04T10:58:11Z</time>
      </trkpt>
      <trkpt lat="50.77752" lon="2.78646">
        <ele>53.01</ele>
        <time>2017-08-04T10:58:12Z</time>
      </trkpt>
      <trkpt lat="50.77783" lon="2.78664">
        <ele>55.41</ele>
        <time>2017-08-04T10:58:26Z</time>
      </trkpt>
      <trkpt lat="50.77806" lon="2.78675">
        <ele>56.37</ele>
        <time>2017-08-04T10:58:39Z</time>
      </trkpt>
      <trkpt lat="50.77821" lon="2.78687">
        <ele>58.78</ele>
        <time>2017-08-04T10:58:49Z</time>
      </trkpt>
      <trkpt lat="50.77839" lon="2.78708">
        <ele>61.18</ele>
        <time>2017-08-04T10:59:03Z</time>
      </trkpt>
      <trkpt lat="50.77858" lon="2.78728">
        <ele>61.66</ele>
        <time>2017-08-04T10:59:18Z</time>
      </trkpt>
      <trkpt lat="50.77862" lon="2.78732">
        <ele>62.14</ele>
        <time>2017-08-04T10:59:21Z</time>
      </trkpt>
      <trkpt lat="50.77864" lon="2.78733">
        <ele>63.1</ele>
        <time>2017-08-04T10:59:22Z</time>
      </trkpt>
      <trkpt lat="50.77865" lon="2.78735">
        <ele>63.1</ele>
        <time>2017-08-04T10:59:23Z</time>
      </trkpt>
      <trkpt lat="50.77893" lon="2.78762">
        <ele>64.55</ele>
        <time>2017-08-04T10:59:42Z</time>
      </trkpt>
      <trkpt lat="50.77895" lon="2.78767">
        <ele>64.55</ele>
        <time>2017-08-04T10:59:44Z</time>
      </trkpt>
      <trkpt lat="50.77895" lon="2.7877">
        <ele>64.55</ele>
        <time>2017-08-04T10:59:45Z</time>
      </trkpt>
      <trkpt lat="50.77895" lon="2.78772">
        <ele>64.55</ele>
        <time>2017-08-04T10:59:46Z</time>
      </trkpt>
      <trkpt lat="50.77895" lon="2.78776">
        <ele>65.51</ele>
        <time>2017-08-04T10:59:47Z</time>
      </trkpt>
      <trkpt lat="50.77895" lon="2.78779">
        <ele>65.51</ele>
        <time>2017-08-04T10:59:48Z</time>
      </trkpt>
      <trkpt lat="50.77894" lon="2.78824">
        <ele>66.95</ele>
        <time>2017-08-04T11:00:02Z</time>
      </trkpt>
      <trkpt lat="50.77893" lon="2.78877">
        <ele>68.39</ele>
        <time>2017-08-04T11:00:17Z</time>
      </trkpt>
      <trkpt lat="50.77892" lon="2.78947">
        <ele>70.79</ele>
        <time>2017-08-04T11:00:34Z</time>
      </trkpt>
      <trkpt lat="50.77899" lon="2.79025">
        <ele>72.24</ele>
        <time>2017-08-04T11:00:52Z</time>
      </trkpt>
      <trkpt lat="50.77914" lon="2.79104">
        <ele>73.2</ele>
        <time>2017-08-04T11:01:09Z</time>
      </trkpt>
      <trkpt lat="50.77927" lon="2.79167">
        <ele>71.76</ele>
        <time>2017-08-04T11:01:18Z</time>
      </trkpt>
      <trkpt lat="50.77932" lon="2.79233">
        <ele>70.31</ele>
        <time>2017-08-04T11:01:25Z</time>
      </trkpt>
      <trkpt lat="50.77933" lon="2.79242">
        <ele>70.31</ele>
        <time>2017-08-04T11:01:26Z</time>
      </trkpt>
      <trkpt lat="50.77942" lon="2.79293">
        <ele>71.27</ele>
        <time>2017-08-04T11:01:33Z</time>
      </trkpt>
      <trkpt lat="50.77949" lon="2.79408">
        <ele>72.24</ele>
        <time>2017-08-04T11:01:49Z</time>
      </trkpt>
      <trkpt lat="50.77948" lon="2.79425">
        <ele>70.79</ele>
        <time>2017-08-04T11:01:51Z</time>
      </trkpt>
      <trkpt lat="50.77947" lon="2.79524">
        <ele>69.83</ele>
        <time>2017-08-04T11:02:02Z</time>
      </trkpt>
      <trkpt lat="50.77947" lon="2.79532">
        <ele>69.83</ele>
        <time>2017-08-04T11:02:03Z</time>
      </trkpt>
      <trkpt lat="50.77947" lon="2.7954">
        <ele>69.83</ele>
        <time>2017-08-04T11:02:04Z</time>
      </trkpt>
      <trkpt lat="50.77928" lon="2.79647">
        <ele>71.76</ele>
        <time>2017-08-04T11:02:20Z</time>
      </trkpt>
      <trkpt lat="50.77921" lon="2.79728">
        <ele>72.72</ele>
        <time>2017-08-04T11:02:35Z</time>
      </trkpt>
      <trkpt lat="50.77932" lon="2.79813">
        <ele>74.16</ele>
        <time>2017-08-04T11:02:52Z</time>
      </trkpt>
      <trkpt lat="50.77948" lon="2.79905">
        <ele>76.56</ele>
        <time>2017-08-04T11:03:11Z</time>
      </trkpt>
      <trkpt lat="50.77964" lon="2.79981">
        <ele>78.97</ele>
        <time>2017-08-04T11:03:30Z</time>
      </trkpt>
      <trkpt lat="50.7798" lon="2.80061">
        <ele>80.89</ele>
        <time>2017-08-04T11:03:50Z</time>
      </trkpt>
      <trkpt lat="50.77986" lon="2.80114">
        <ele>81.37</ele>
        <time>2017-08-04T11:04:05Z</time>
      </trkpt>
      <trkpt lat="50.77952" lon="2.80142">
        <ele>82.33</ele>
        <time>2017-08-04T11:04:20Z</time>
      </trkpt>
      <trkpt lat="50.77911" lon="2.80176">
        <ele>84.25</ele>
        <time>2017-08-04T11:04:37Z</time>
      </trkpt>
      <trkpt lat="50.77879" lon="2.80205">
        <ele>85.69</ele>
        <time>2017-08-04T11:04:51Z</time>
      </trkpt>
      <trkpt lat="50.77878" lon="2.80209">
        <ele>85.69</ele>
        <time>2017-08-04T11:04:52Z</time>
      </trkpt>
      <trkpt lat="50.77878" lon="2.80212">
        <ele>85.69</ele>
        <time>2017-08-04T11:04:53Z</time>
      </trkpt>
      <trkpt lat="50.7788" lon="2.80264">
        <ele>86.66</ele>
        <time>2017-08-04T11:05:09Z</time>
      </trkpt>
      <trkpt lat="50.7788" lon="2.80319">
        <ele>88.1</ele>
        <time>2017-08-04T11:05:27Z</time>
      </trkpt>
      <trkpt lat="50.77876" lon="2.80368">
        <ele>89.54</ele>
        <time>2017-08-04T11:05:43Z</time>
      </trkpt>
      <trkpt lat="50.77872" lon="2.80424">
        <ele>92.9</ele>
        <time>2017-08-04T11:06:02Z</time>
      </trkpt>
      <trkpt lat="50.77872" lon="2.80426">
        <ele>92.9</ele>
        <time>2017-08-04T11:06:03Z</time>
      </trkpt>
      <trkpt lat="50.77871" lon="2.80429">
        <ele>92.9</ele>
        <time>2017-08-04T11:06:04Z</time>
      </trkpt>
      <trkpt lat="50.77871" lon="2.80431">
        <ele>92.9</ele>
        <time>2017-08-04T11:06:05Z</time>
      </trkpt>
      <trkpt lat="50.77871" lon="2.80434">
        <ele>92.9</ele>
        <time>2017-08-04T11:06:06Z</time>
      </trkpt>
      <trkpt lat="50.77871" lon="2.80459">
        <ele>94.35</ele>
        <time>2017-08-04T11:06:22Z</time>
      </trkpt>
      <trkpt lat="50.77872" lon="2.8046">
        <ele>94.35</ele>
        <time>2017-08-04T11:06:44Z</time>
      </trkpt>
      <trkpt lat="50.77873" lon="2.80459">
        <ele>92.9</ele>
        <time>2017-08-04T11:07:12Z</time>
      </trkpt>
      <trkpt lat="50.77871" lon="2.80459">
        <ele>93.87</ele>
        <time>2017-08-04T11:07:29Z</time>
      </trkpt>
      <trkpt lat="50.77871" lon="2.8046">
        <ele>94.83</ele>
        <time>2017-08-04T11:07:47Z</time>
      </trkpt>
      <trkpt lat="50.77872" lon="2.80462">
        <ele>94.35</ele>
        <time>2017-08-04T11:08:09Z</time>
      </trkpt>
      <trkpt lat="50.77874" lon="2.80484">
        <ele>94.35</ele>
        <time>2017-08-04T11:08:20Z</time>
      </trkpt>
      <trkpt lat="50.77877" lon="2.80501">
        <ele>95.79</ele>
        <time>2017-08-04T11:08:27Z</time>
      </trkpt>
      <trkpt lat="50.77881" lon="2.80529">
        <ele>97.71</ele>
        <time>2017-08-04T11:08:38Z</time>
      </trkpt>
      <trkpt lat="50.77882" lon="2.80531">
        <ele>97.71</ele>
        <time>2017-08-04T11:08:39Z</time>
      </trkpt>
      <trkpt lat="50.77882" lon="2.80534">
        <ele>97.71</ele>
        <time>2017-08-04T11:08:40Z</time>
      </trkpt>
      <trkpt lat="50.77883" lon="2.80537">
        <ele>97.71</ele>
        <time>2017-08-04T11:08:41Z</time>
      </trkpt>
      <trkpt lat="50.77883" lon="2.80539">
        <ele>98.19</ele>
        <time>2017-08-04T11:08:42Z</time>
      </trkpt>
      <trkpt lat="50.77883" lon="2.80541">
        <ele>98.19</ele>
        <time>2017-08-04T11:08:43Z</time>
      </trkpt>
      <trkpt lat="50.77886" lon="2.80573">
        <ele>101.56</ele>
        <time>2017-08-04T11:08:55Z</time>
      </trkpt>
      <trkpt lat="50.77887" lon="2.80618">
        <ele>103.96</ele>
        <time>2017-08-04T11:09:13Z</time>
      </trkpt>
      <trkpt lat="50.77885" lon="2.80654">
        <ele>106.36</ele>
        <time>2017-08-04T11:09:27Z</time>
      </trkpt>
      <trkpt lat="50.77881" lon="2.80682">
        <ele>108.77</ele>
        <time>2017-08-04T11:09:40Z</time>
      </trkpt>
      <trkpt lat="50.77879" lon="2.8071">
        <ele>112.13</ele>
        <time>2017-08-04T11:09:52Z</time>
      </trkpt>
      <trkpt lat="50.77877" lon="2.80724">
        <ele>112.13</ele>
        <time>2017-08-04T11:09:58Z</time>
      </trkpt>
      <trkpt lat="50.77877" lon="2.80727">
        <ele>112.13</ele>
        <time>2017-08-04T11:09:59Z</time>
      </trkpt>
      <trkpt lat="50.77876" lon="2.8073">
        <ele>113.09</ele>
        <time>2017-08-04T11:10:00Z</time>
      </trkpt>
      <trkpt lat="50.77876" lon="2.80732">
        <ele>113.57</ele>
        <time>2017-08-04T11:10:01Z</time>
      </trkpt>
      <trkpt lat="50.77876" lon="2.80735">
        <ele>113.57</ele>
        <time>2017-08-04T11:10:02Z</time>
      </trkpt>
      <trkpt lat="50.77876" lon="2.80738">
        <ele>114.05</ele>
        <time>2017-08-04T11:10:03Z</time>
      </trkpt>
      <trkpt lat="50.77877" lon="2.80744">
        <ele>115.01</ele>
        <time>2017-08-04T11:10:11Z</time>
      </trkpt>
      <trkpt lat="50.77881" lon="2.80775">
        <ele>117.9</ele>
        <time>2017-08-04T11:10:30Z</time>
      </trkpt>
      <trkpt lat="50.77883" lon="2.80806">
        <ele>119.82</ele>
        <time>2017-08-04T11:10:50Z</time>
      </trkpt>
      <trkpt lat="50.77884" lon="2.80808">
        <ele>120.3</ele>
        <time>2017-08-04T11:11:09Z</time>
      </trkpt>
      <trkpt lat="50.77888" lon="2.80807">
        <ele>119.34</ele>
        <time>2017-08-04T11:11:37Z</time>
      </trkpt>
      <trkpt lat="50.77889" lon="2.80807">
        <ele>119.34</ele>
        <time>2017-08-04T11:12:03Z</time>
      </trkpt>
      <trkpt lat="50.7789" lon="2.80807">
        <ele>119.34</ele>
        <time>2017-08-04T11:12:34Z</time>
      </trkpt>
      <trkpt lat="50.77886" lon="2.80805">
        <ele>119.34</ele>
        <time>2017-08-04T11:13:05Z</time>
      </trkpt>
      <trkpt lat="50.77885" lon="2.80803">
        <ele>119.82</ele>
        <time>2017-08-04T11:13:44Z</time>
      </trkpt>
      <trkpt lat="50.77886" lon="2.80803">
        <ele>119.82</ele>
        <time>2017-08-04T11:14:31Z</time>
      </trkpt>
      <trkpt lat="50.77885" lon="2.80803">
        <ele>120.3</ele>
        <time>2017-08-04T11:15:14Z</time>
      </trkpt>
      <trkpt lat="50.77883" lon="2.808">
        <ele>120.3</ele>
        <time>2017-08-04T11:15:36Z</time>
      </trkpt>
      <trkpt lat="50.77885" lon="2.80801">
        <ele>120.3</ele>
        <time>2017-08-04T11:15:49Z</time>
      </trkpt>
      <trkpt lat="50.77888" lon="2.80802">
        <ele>120.78</ele>
        <time>2017-08-04T11:16:19Z</time>
      </trkpt>
      <trkpt lat="50.77889" lon="2.80807">
        <ele>120.78</ele>
        <time>2017-08-04T11:16:43Z</time>
      </trkpt>
      <trkpt lat="50.77888" lon="2.80812">
        <ele>121.26</ele>
        <time>2017-08-04T11:17:12Z</time>
      </trkpt>
      <trkpt lat="50.77889" lon="2.80814">
        <ele>121.26</ele>
        <time>2017-08-04T11:17:13Z</time>
      </trkpt>
      <trkpt lat="50.7789" lon="2.80816">
        <ele>121.26</ele>
        <time>2017-08-04T11:17:14Z</time>
      </trkpt>
      <trkpt lat="50.7789" lon="2.80818">
        <ele>121.26</ele>
        <time>2017-08-04T11:17:15Z</time>
      </trkpt>
      <trkpt lat="50.7789" lon="2.80819">
        <ele>121.26</ele>
        <time>2017-08-04T11:17:16Z</time>
      </trkpt>
      <trkpt lat="50.77889" lon="2.80821">
        <ele>121.26</ele>
        <time>2017-08-04T11:17:17Z</time>
      </trkpt>
      <trkpt lat="50.77888" lon="2.80822">
        <ele>121.26</ele>
        <time>2017-08-04T11:17:18Z</time>
      </trkpt>
      <trkpt lat="50.77887" lon="2.80823">
        <ele>121.26</ele>
        <time>2017-08-04T11:17:19Z</time>
      </trkpt>
      <trkpt lat="50.77886" lon="2.80823">
        <ele>121.26</ele>
        <time>2017-08-04T11:17:20Z</time>
      </trkpt>
      <trkpt lat="50.77884" lon="2.80823">
        <ele>121.26</ele>
        <time>2017-08-04T11:17:21Z</time>
      </trkpt>
      <trkpt lat="50.77883" lon="2.80824">
        <ele>121.26</ele>
        <time>2017-08-04T11:17:22Z</time>
      </trkpt>
      <trkpt lat="50.77881" lon="2.80826">
        <ele>122.71</ele>
        <time>2017-08-04T11:17:23Z</time>
      </trkpt>
      <trkpt lat="50.7788" lon="2.80829">
        <ele>123.19</ele>
        <time>2017-08-04T11:17:24Z</time>
      </trkpt>
      <trkpt lat="50.7788" lon="2.8083">
        <ele>123.19</ele>
        <time>2017-08-04T11:17:25Z</time>
      </trkpt>
      <trkpt lat="50.7788" lon="2.80832">
        <ele>123.67</ele>
        <time>2017-08-04T11:17:26Z</time>
      </trkpt>
      <trkpt lat="50.7788" lon="2.80835">
        <ele>123.67</ele>
        <time>2017-08-04T11:17:27Z</time>
      </trkpt>
      <trkpt lat="50.7788" lon="2.80837">
        <ele>124.15</ele>
        <time>2017-08-04T11:17:28Z</time>
      </trkpt>
      <trkpt lat="50.77879" lon="2.80838">
        <ele>124.15</ele>
        <time>2017-08-04T11:17:29Z</time>
      </trkpt>
      <trkpt lat="50.77878" lon="2.8084">
        <ele>124.63</ele>
        <time>2017-08-04T11:17:30Z</time>
      </trkpt>
      <trkpt lat="50.77877" lon="2.8084">
        <ele>124.63</ele>
        <time>2017-08-04T11:17:31Z</time>
      </trkpt>
      <trkpt lat="50.77876" lon="2.80841">
        <ele>125.11</ele>
        <time>2017-08-04T11:17:32Z</time>
      </trkpt>
      <trkpt lat="50.77874" lon="2.80843">
        <ele>125.11</ele>
        <time>2017-08-04T11:17:33Z</time>
      </trkpt>
      <trkpt lat="50.77873" lon="2.80844">
        <ele>125.59</ele>
        <time>2017-08-04T11:17:34Z</time>
      </trkpt>
      <trkpt lat="50.77872" lon="2.80846">
        <ele>126.07</ele>
        <time>2017-08-04T11:17:35Z</time>
      </trkpt>
      <trkpt lat="50.77872" lon="2.80848">
        <ele>126.07</ele>
        <time>2017-08-04T11:17:36Z</time>
      </trkpt>
      <trkpt lat="50.77871" lon="2.80853">
        <ele>126.55</ele>
        <time>2017-08-04T11:17:39Z</time>
      </trkpt>
      <trkpt lat="50.77871" lon="2.80855">
        <ele>127.03</ele>
        <time>2017-08-04T11:17:40Z</time>
      </trkpt>
      <trkpt lat="50.77868" lon="2.8086">
        <ele>127.99</ele>
        <time>2017-08-04T11:17:44Z</time>
      </trkpt>
      <trkpt lat="50.77867" lon="2.80867">
        <ele>128.47</ele>
        <time>2017-08-04T11:17:48Z</time>
      </trkpt>
      <trkpt lat="50.77866" lon="2.80868">
        <ele>128.47</ele>
        <time>2017-08-04T11:17:49Z</time>
      </trkpt>
      <trkpt lat="50.77865" lon="2.80869">
        <ele>128.95</ele>
        <time>2017-08-04T11:17:50Z</time>
      </trkpt>
      <trkpt lat="50.77864" lon="2.80871">
        <ele>128.95</ele>
        <time>2017-08-04T11:17:51Z</time>
      </trkpt>
      <trkpt lat="50.77863" lon="2.80873">
        <ele>129.43</ele>
        <time>2017-08-04T11:17:52Z</time>
      </trkpt>
      <trkpt lat="50.77863" lon="2.80882">
        <ele>129.92</ele>
        <time>2017-08-04T11:17:58Z</time>
      </trkpt>
      <trkpt lat="50.77862" lon="2.80883">
        <ele>130.4</ele>
        <time>2017-08-04T11:17:59Z</time>
      </trkpt>
      <trkpt lat="50.77861" lon="2.80885">
        <ele>130.4</ele>
        <time>2017-08-04T11:18:00Z</time>
      </trkpt>
      <trkpt lat="50.7786" lon="2.80886">
        <ele>131.36</ele>
        <time>2017-08-04T11:18:01Z</time>
      </trkpt>
      <trkpt lat="50.77858" lon="2.80894">
        <ele>132.32</ele>
        <time>2017-08-04T11:18:12Z</time>
      </trkpt>
      <trkpt lat="50.77856" lon="2.80898">
        <ele>132.32</ele>
        <time>2017-08-04T11:18:40Z</time>
      </trkpt>
      <trkpt lat="50.77852" lon="2.80902">
        <ele>132.8</ele>
        <time>2017-08-04T11:18:45Z</time>
      </trkpt>
      <trkpt lat="50.77852" lon="2.80904">
        <ele>133.28</ele>
        <time>2017-08-04T11:18:46Z</time>
      </trkpt>
      <trkpt lat="50.77852" lon="2.80907">
        <ele>133.28</ele>
        <time>2017-08-04T11:18:48Z</time>
      </trkpt>
      <trkpt lat="50.77852" lon="2.8091">
        <ele>133.76</ele>
        <time>2017-08-04T11:18:50Z</time>
      </trkpt>
      <trkpt lat="50.77852" lon="2.80912">
        <ele>133.76</ele>
        <time>2017-08-04T11:18:51Z</time>
      </trkpt>
      <trkpt lat="50.77851" lon="2.80913">
        <ele>134.24</ele>
        <time>2017-08-04T11:18:52Z</time>
      </trkpt>
      <trkpt lat="50.7785" lon="2.80914">
        <ele>134.72</ele>
        <time>2017-08-04T11:18:53Z</time>
      </trkpt>
      <trkpt lat="50.77849" lon="2.80915">
        <ele>134.72</ele>
        <time>2017-08-04T11:18:54Z</time>
      </trkpt>
      <trkpt lat="50.77848" lon="2.80916">
        <ele>135.2</ele>
        <time>2017-08-04T11:18:55Z</time>
      </trkpt>
      <trkpt lat="50.77847" lon="2.80918">
        <ele>135.2</ele>
        <time>2017-08-04T11:18:56Z</time>
      </trkpt>
      <trkpt lat="50.77847" lon="2.8092">
        <ele>135.68</ele>
        <time>2017-08-04T11:18:57Z</time>
      </trkpt>
      <trkpt lat="50.77847" lon="2.80922">
        <ele>135.68</ele>
        <time>2017-08-04T11:18:58Z</time>
      </trkpt>
      <trkpt lat="50.77845" lon="2.80927">
        <ele>137.13</ele>
        <time>2017-08-04T11:19:02Z</time>
      </trkpt>
      <trkpt lat="50.77844" lon="2.80928">
        <ele>137.13</ele>
        <time>2017-08-04T11:19:03Z</time>
      </trkpt>
      <trkpt lat="50.77843" lon="2.8093">
        <ele>137.13</ele>
        <time>2017-08-04T11:19:04Z</time>
      </trkpt>
      <trkpt lat="50.77841" lon="2.80936">
        <ele>137.61</ele>
        <time>2017-08-04T11:19:08Z</time>
      </trkpt>
      <trkpt lat="50.7784" lon="2.80938">
        <ele>138.09</ele>
        <time>2017-08-04T11:19:10Z</time>
      </trkpt>
      <trkpt lat="50.77839" lon="2.80939">
        <ele>138.57</ele>
        <time>2017-08-04T11:19:11Z</time>
      </trkpt>
      <trkpt lat="50.77838" lon="2.80941">
        <ele>138.57</ele>
        <time>2017-08-04T11:19:12Z</time>
      </trkpt>
      <trkpt lat="50.77838" lon="2.80947">
        <ele>140.49</ele>
        <time>2017-08-04T11:19:17Z</time>
      </trkpt>
      <trkpt lat="50.77837" lon="2.80948">
        <ele>140.49</ele>
        <time>2017-08-04T11:19:18Z</time>
      </trkpt>
      <trkpt lat="50.77836" lon="2.8095">
        <ele>140.97</ele>
        <time>2017-08-04T11:19:19Z</time>
      </trkpt>
      <trkpt lat="50.77829" lon="2.80967">
        <ele>144.34</ele>
        <time>2017-08-04T11:19:30Z</time>
      </trkpt>
      <trkpt lat="50.77821" lon="2.80993">
        <ele>147.22</ele>
        <time>2017-08-04T11:19:43Z</time>
      </trkpt>
      <trkpt lat="50.77819" lon="2.81001">
        <ele>147.7</ele>
        <time>2017-08-04T11:19:48Z</time>
      </trkpt>
      <trkpt lat="50.77815" lon="2.8101">
        <ele>148.18</ele>
        <time>2017-08-04T11:20:02Z</time>
      </trkpt>
      <trkpt lat="50.77812" lon="2.81019">
        <ele>148.66</ele>
        <time>2017-08-04T11:20:23Z</time>
      </trkpt>
      <trkpt lat="50.77814" lon="2.81027">
        <ele>149.14</ele>
        <time>2017-08-04T11:20:44Z</time>
      </trkpt>
      <trkpt lat="50.77823" lon="2.81058">
        <ele>151.06</ele>
        <time>2017-08-04T11:20:59Z</time>
      </trkpt>
      <trkpt lat="50.77835" lon="2.81097">
        <ele>152.03</ele>
        <time>2017-08-04T11:21:11Z</time>
      </trkpt>
      <trkpt lat="50.77848" lon="2.81138">
        <ele>150.58</ele>
        <time>2017-08-04T11:21:22Z</time>
      </trkpt>
      <trkpt lat="50.77864" lon="2.81191">
        <ele>150.58</ele>
        <time>2017-08-04T11:21:34Z</time>
      </trkpt>
      <trkpt lat="50.77877" lon="2.81263">
        <ele>151.06</ele>
        <time>2017-08-04T11:21:47Z</time>
      </trkpt>
      <trkpt lat="50.77885" lon="2.81308">
        <ele>152.03</ele>
        <time>2017-08-04T11:21:56Z</time>
      </trkpt>
      <trkpt lat="50.779" lon="2.81372">
        <ele>153.47</ele>
        <time>2017-08-04T11:22:08Z</time>
      </trkpt>
      <trkpt lat="50.77906" lon="2.814">
        <ele>152.03</ele>
        <time>2017-08-04T11:22:12Z</time>
      </trkpt>
      <trkpt lat="50.77908" lon="2.81407">
        <ele>152.03</ele>
        <time>2017-08-04T11:22:13Z</time>
      </trkpt>
      <trkpt lat="50.77911" lon="2.81423">
        <ele>151.54</ele>
        <time>2017-08-04T11:22:15Z</time>
      </trkpt>
      <trkpt lat="50.77913" lon="2.8143">
        <ele>151.54</ele>
        <time>2017-08-04T11:22:16Z</time>
      </trkpt>
      <trkpt lat="50.77915" lon="2.81438">
        <ele>151.06</ele>
        <time>2017-08-04T11:22:17Z</time>
      </trkpt>
      <trkpt lat="50.77917" lon="2.81444">
        <ele>151.06</ele>
        <time>2017-08-04T11:22:18Z</time>
      </trkpt>
      <trkpt lat="50.77919" lon="2.81453">
        <ele>151.06</ele>
        <time>2017-08-04T11:22:19Z</time>
      </trkpt>
      <trkpt lat="50.77923" lon="2.81471">
        <ele>150.58</ele>
        <time>2017-08-04T11:22:21Z</time>
      </trkpt>
      <trkpt lat="50.77925" lon="2.8148">
        <ele>150.1</ele>
        <time>2017-08-04T11:22:22Z</time>
      </trkpt>
      <trkpt lat="50.77938" lon="2.81549">
        <ele>147.7</ele>
        <time>2017-08-04T11:22:31Z</time>
      </trkpt>
      <trkpt lat="50.77939" lon="2.81557">
        <ele>147.22</ele>
        <time>2017-08-04T11:22:32Z</time>
      </trkpt>
      <trkpt lat="50.77944" lon="2.81574">
        <ele>143.85</ele>
        <time>2017-08-04T11:22:34Z</time>
      </trkpt>
      <trkpt lat="50.77946" lon="2.81582">
        <ele>143.85</ele>
        <time>2017-08-04T11:22:35Z</time>
      </trkpt>
      <trkpt lat="50.77947" lon="2.81592">
        <ele>140.97</ele>
        <time>2017-08-04T11:22:36Z</time>
      </trkpt>
      <trkpt lat="50.77948" lon="2.81604">
        <ele>140.01</ele>
        <time>2017-08-04T11:22:37Z</time>
      </trkpt>
      <trkpt lat="50.77948" lon="2.81617">
        <ele>138.57</ele>
        <time>2017-08-04T11:22:38Z</time>
      </trkpt>
      <trkpt lat="50.77947" lon="2.8163">
        <ele>137.13</ele>
        <time>2017-08-04T11:22:39Z</time>
      </trkpt>
      <trkpt lat="50.77943" lon="2.81646">
        <ele>135.68</ele>
        <time>2017-08-04T11:22:40Z</time>
      </trkpt>
      <trkpt lat="50.7794" lon="2.81658">
        <ele>134.72</ele>
        <time>2017-08-04T11:22:41Z</time>
      </trkpt>
      <trkpt lat="50.77935" lon="2.81671">
        <ele>134.24</ele>
        <time>2017-08-04T11:22:42Z</time>
      </trkpt>
      <trkpt lat="50.77928" lon="2.81684">
        <ele>132.8</ele>
        <time>2017-08-04T11:22:43Z</time>
      </trkpt>
      <trkpt lat="50.77922" lon="2.81693">
        <ele>131.84</ele>
        <time>2017-08-04T11:22:44Z</time>
      </trkpt>
      <trkpt lat="50.77915" lon="2.81702">
        <ele>132.32</ele>
        <time>2017-08-04T11:22:45Z</time>
      </trkpt>
      <trkpt lat="50.77907" lon="2.8171">
        <ele>132.32</ele>
        <time>2017-08-04T11:22:46Z</time>
      </trkpt>
      <trkpt lat="50.77898" lon="2.81717">
        <ele>131.36</ele>
        <time>2017-08-04T11:22:47Z</time>
      </trkpt>
      <trkpt lat="50.7789" lon="2.81721">
        <ele>130.88</ele>
        <time>2017-08-04T11:22:48Z</time>
      </trkpt>
      <trkpt lat="50.77884" lon="2.81723">
        <ele>129.92</ele>
        <time>2017-08-04T11:22:49Z</time>
      </trkpt>
      <trkpt lat="50.77876" lon="2.81725">
        <ele>128.47</ele>
        <time>2017-08-04T11:22:50Z</time>
      </trkpt>
      <trkpt lat="50.77867" lon="2.81726">
        <ele>127.51</ele>
        <time>2017-08-04T11:22:51Z</time>
      </trkpt>
      <trkpt lat="50.77851" lon="2.8173">
        <ele>124.15</ele>
        <time>2017-08-04T11:22:53Z</time>
      </trkpt>
      <trkpt lat="50.77823" lon="2.81736">
        <ele>120.78</ele>
        <time>2017-08-04T11:22:56Z</time>
      </trkpt>
      <trkpt lat="50.77798" lon="2.81741">
        <ele>116.94</ele>
        <time>2017-08-04T11:22:59Z</time>
      </trkpt>
      <trkpt lat="50.77791" lon="2.81743">
        <ele>116.94</ele>
        <time>2017-08-04T11:23:00Z</time>
      </trkpt>
      <trkpt lat="50.77777" lon="2.81748">
        <ele>115.5</ele>
        <time>2017-08-04T11:23:02Z</time>
      </trkpt>
      <trkpt lat="50.7777" lon="2.81752">
        <ele>114.53</ele>
        <time>2017-08-04T11:23:03Z</time>
      </trkpt>
      <trkpt lat="50.77751" lon="2.8177">
        <ele>110.21</ele>
        <time>2017-08-04T11:23:06Z</time>
      </trkpt>
      <trkpt lat="50.77737" lon="2.81785">
        <ele>108.29</ele>
        <time>2017-08-04T11:23:08Z</time>
      </trkpt>
      <trkpt lat="50.77714" lon="2.81812">
        <ele>104.92</ele>
        <time>2017-08-04T11:23:12Z</time>
      </trkpt>
      <trkpt lat="50.7771" lon="2.81817">
        <ele>104.92</ele>
        <time>2017-08-04T11:23:13Z</time>
      </trkpt>
      <trkpt lat="50.77697" lon="2.81838">
        <ele>103.48</ele>
        <time>2017-08-04T11:23:20Z</time>
      </trkpt>
      <trkpt lat="50.77697" lon="2.81843">
        <ele>103.48</ele>
        <time>2017-08-04T11:23:21Z</time>
      </trkpt>
      <trkpt lat="50.77698" lon="2.81848">
        <ele>103.48</ele>
        <time>2017-08-04T11:23:22Z</time>
      </trkpt>
      <trkpt lat="50.777" lon="2.81851">
        <ele>103</ele>
        <time>2017-08-04T11:23:23Z</time>
      </trkpt>
      <trkpt lat="50.77702" lon="2.81854">
        <ele>103.48</ele>
        <time>2017-08-04T11:23:24Z</time>
      </trkpt>
      <trkpt lat="50.77702" lon="2.81856">
        <ele>103</ele>
        <time>2017-08-04T11:23:25Z</time>
      </trkpt>
      <trkpt lat="50.77701" lon="2.81857">
        <ele>103.48</ele>
        <time>2017-08-04T11:23:26Z</time>
      </trkpt>
      <trkpt lat="50.777" lon="2.81857">
        <ele>103.48</ele>
        <time>2017-08-04T11:23:27Z</time>
      </trkpt>
      <trkpt lat="50.77699" lon="2.81856">
        <ele>103.48</ele>
        <time>2017-08-04T11:23:28Z</time>
      </trkpt>
      <trkpt lat="50.77698" lon="2.81853">
        <ele>103</ele>
        <time>2017-08-04T11:23:29Z</time>
      </trkpt>
      <trkpt lat="50.77697" lon="2.8185">
        <ele>103</ele>
        <time>2017-08-04T11:23:30Z</time>
      </trkpt>
      <trkpt lat="50.77697" lon="2.81847">
        <ele>103</ele>
        <time>2017-08-04T11:23:31Z</time>
      </trkpt>
      <trkpt lat="50.77696" lon="2.81843">
        <ele>103</ele>
        <time>2017-08-04T11:23:32Z</time>
      </trkpt>
      <trkpt lat="50.77695" lon="2.81839">
        <ele>103</ele>
        <time>2017-08-04T11:23:33Z</time>
      </trkpt>
      <trkpt lat="50.77686" lon="2.81824">
        <ele>102.52</ele>
        <time>2017-08-04T11:23:38Z</time>
      </trkpt>
      <trkpt lat="50.77684" lon="2.81824">
        <ele>102.52</ele>
        <time>2017-08-04T11:23:39Z</time>
      </trkpt>
      <trkpt lat="50.77681" lon="2.81825">
        <ele>102.04</ele>
        <time>2017-08-04T11:23:40Z</time>
      </trkpt>
      <trkpt lat="50.77679" lon="2.81826">
        <ele>102.04</ele>
        <time>2017-08-04T11:23:41Z</time>
      </trkpt>
      <trkpt lat="50.77678" lon="2.8183">
        <ele>102.04</ele>
        <time>2017-08-04T11:23:42Z</time>
      </trkpt>
      <trkpt lat="50.77678" lon="2.81834">
        <ele>101.56</ele>
        <time>2017-08-04T11:23:43Z</time>
      </trkpt>
      <trkpt lat="50.77678" lon="2.81839">
        <ele>101.56</ele>
        <time>2017-08-04T11:23:44Z</time>
      </trkpt>
      <trkpt lat="50.77677" lon="2.81845">
        <ele>100.6</ele>
        <time>2017-08-04T11:23:45Z</time>
      </trkpt>
      <trkpt lat="50.77678" lon="2.81851">
        <ele>100.6</ele>
        <time>2017-08-04T11:23:46Z</time>
      </trkpt>
      <trkpt lat="50.77678" lon="2.81857">
        <ele>100.6</ele>
        <time>2017-08-04T11:23:47Z</time>
      </trkpt>
      <trkpt lat="50.7768" lon="2.81865">
        <ele>100.11</ele>
        <time>2017-08-04T11:23:48Z</time>
      </trkpt>
      <trkpt lat="50.77682" lon="2.81872">
        <ele>99.63</ele>
        <time>2017-08-04T11:23:49Z</time>
      </trkpt>
      <trkpt lat="50.77685" lon="2.81879">
        <ele>99.63</ele>
        <time>2017-08-04T11:23:50Z</time>
      </trkpt>
      <trkpt lat="50.77688" lon="2.81885">
        <ele>99.63</ele>
        <time>2017-08-04T11:23:51Z</time>
      </trkpt>
      <trkpt lat="50.77702" lon="2.81915">
        <ele>97.71</ele>
        <time>2017-08-04T11:23:55Z</time>
      </trkpt>
      <trkpt lat="50.77705" lon="2.81925">
        <ele>96.75</ele>
        <time>2017-08-04T11:23:56Z</time>
      </trkpt>
      <trkpt lat="50.77707" lon="2.81935">
        <ele>95.79</ele>
        <time>2017-08-04T11:23:57Z</time>
      </trkpt>
      <trkpt lat="50.77707" lon="2.81946">
        <ele>95.79</ele>
        <time>2017-08-04T11:23:58Z</time>
      </trkpt>
      <trkpt lat="50.77708" lon="2.81959">
        <ele>94.83</ele>
        <time>2017-08-04T11:23:59Z</time>
      </trkpt>
      <trkpt lat="50.7771" lon="2.81994">
        <ele>93.39</ele>
        <time>2017-08-04T11:24:02Z</time>
      </trkpt>
      <trkpt lat="50.77709" lon="2.82006">
        <ele>92.42</ele>
        <time>2017-08-04T11:24:03Z</time>
      </trkpt>
      <trkpt lat="50.77707" lon="2.82018">
        <ele>91.46</ele>
        <time>2017-08-04T11:24:04Z</time>
      </trkpt>
      <trkpt lat="50.77705" lon="2.82028">
        <ele>91.46</ele>
        <time>2017-08-04T11:24:05Z</time>
      </trkpt>
      <trkpt lat="50.77702" lon="2.82036">
        <ele>91.46</ele>
        <time>2017-08-04T11:24:06Z</time>
      </trkpt>
      <trkpt lat="50.77699" lon="2.82046">
        <ele>91.46</ele>
        <time>2017-08-04T11:24:07Z</time>
      </trkpt>
      <trkpt lat="50.77697" lon="2.82052">
        <ele>91.46</ele>
        <time>2017-08-04T11:24:08Z</time>
      </trkpt>
      <trkpt lat="50.77672" lon="2.82145">
        <ele>88.1</ele>
        <time>2017-08-04T11:24:17Z</time>
      </trkpt>
      <trkpt lat="50.77651" lon="2.82267">
        <ele>86.66</ele>
        <time>2017-08-04T11:24:27Z</time>
      </trkpt>
      <trkpt lat="50.77646" lon="2.82317">
        <ele>86.66</ele>
        <time>2017-08-04T11:24:31Z</time>
      </trkpt>
      <trkpt lat="50.77622" lon="2.82468">
        <ele>83.29</ele>
        <time>2017-08-04T11:24:44Z</time>
      </trkpt>
      <trkpt lat="50.77588" lon="2.82649">
        <ele>81.85</ele>
        <time>2017-08-04T11:25:01Z</time>
      </trkpt>
      <trkpt lat="50.77586" lon="2.82751">
        <ele>79.45</ele>
        <time>2017-08-04T11:25:13Z</time>
      </trkpt>
      <trkpt lat="50.77586" lon="2.82749">
        <ele>79.45</ele>
        <time>2017-08-04T11:25:26Z</time>
      </trkpt>
      <trkpt lat="50.77584" lon="2.82751">
        <ele>79.45</ele>
        <time>2017-08-04T11:25:37Z</time>
      </trkpt>
      <trkpt lat="50.77584" lon="2.82752">
        <ele>78.97</ele>
        <time>2017-08-04T11:26:00Z</time>
      </trkpt>
      <trkpt lat="50.77583" lon="2.82752">
        <ele>78.97</ele>
        <time>2017-08-04T11:26:03Z</time>
      </trkpt>
      <trkpt lat="50.77581" lon="2.82752">
        <ele>78.97</ele>
        <time>2017-08-04T11:26:04Z</time>
      </trkpt>
      <trkpt lat="50.7758" lon="2.82752">
        <ele>78.97</ele>
        <time>2017-08-04T11:26:05Z</time>
      </trkpt>
      <trkpt lat="50.77578" lon="2.82753">
        <ele>78.97</ele>
        <time>2017-08-04T11:26:06Z</time>
      </trkpt>
      <trkpt lat="50.77576" lon="2.82753">
        <ele>79.93</ele>
        <time>2017-08-04T11:26:07Z</time>
      </trkpt>
      <trkpt lat="50.77574" lon="2.82753">
        <ele>79.93</ele>
        <time>2017-08-04T11:26:08Z</time>
      </trkpt>
      <trkpt lat="50.7756" lon="2.82755">
        <ele>78.48</ele>
        <time>2017-08-04T11:26:13Z</time>
      </trkpt>
      <trkpt lat="50.77533" lon="2.82756">
        <ele>76.08</ele>
        <time>2017-08-04T11:26:21Z</time>
      </trkpt>
      <trkpt lat="50.77525" lon="2.82756">
        <ele>76.08</ele>
        <time>2017-08-04T11:26:23Z</time>
      </trkpt>
      <trkpt lat="50.77515" lon="2.82758">
        <ele>76.08</ele>
        <time>2017-08-04T11:26:25Z</time>
      </trkpt>
      <trkpt lat="50.77462" lon="2.8276">
        <ele>73.2</ele>
        <time>2017-08-04T11:26:35Z</time>
      </trkpt>
      <trkpt lat="50.77448" lon="2.8276">
        <ele>71.76</ele>
        <time>2017-08-04T11:26:38Z</time>
      </trkpt>
      <trkpt lat="50.77433" lon="2.82761">
        <ele>73.2</ele>
        <time>2017-08-04T11:26:41Z</time>
      </trkpt>
      <trkpt lat="50.77405" lon="2.82762">
        <ele>72.24</ele>
        <time>2017-08-04T11:26:47Z</time>
      </trkpt>
      <trkpt lat="50.77401" lon="2.82763">
        <ele>72.24</ele>
        <time>2017-08-04T11:26:48Z</time>
      </trkpt>
      <trkpt lat="50.77396" lon="2.82765">
        <ele>72.24</ele>
        <time>2017-08-04T11:26:49Z</time>
      </trkpt>
      <trkpt lat="50.77392" lon="2.82768">
        <ele>72.24</ele>
        <time>2017-08-04T11:26:50Z</time>
      </trkpt>
      <trkpt lat="50.77388" lon="2.82769">
        <ele>72.24</ele>
        <time>2017-08-04T11:26:51Z</time>
      </trkpt>
      <trkpt lat="50.77384" lon="2.8277">
        <ele>72.24</ele>
        <time>2017-08-04T11:26:52Z</time>
      </trkpt>
      <trkpt lat="50.77379" lon="2.8277">
        <ele>73.68</ele>
        <time>2017-08-04T11:26:53Z</time>
      </trkpt>
      <trkpt lat="50.77375" lon="2.8277">
        <ele>73.68</ele>
        <time>2017-08-04T11:26:54Z</time>
      </trkpt>
      <trkpt lat="50.77353" lon="2.82769">
        <ele>71.76</ele>
        <time>2017-08-04T11:26:59Z</time>
      </trkpt>
      <trkpt lat="50.7735" lon="2.82765">
        <ele>70.79</ele>
        <time>2017-08-04T11:27:00Z</time>
      </trkpt>
      <trkpt lat="50.77347" lon="2.8276">
        <ele>68.87</ele>
        <time>2017-08-04T11:27:01Z</time>
      </trkpt>
      <trkpt lat="50.77344" lon="2.82753">
        <ele>68.87</ele>
        <time>2017-08-04T11:27:02Z</time>
      </trkpt>
      <trkpt lat="50.77337" lon="2.82739">
        <ele>67.91</ele>
        <time>2017-08-04T11:27:04Z</time>
      </trkpt>
      <trkpt lat="50.77324" lon="2.82715">
        <ele>64.55</ele>
        <time>2017-08-04T11:27:07Z</time>
      </trkpt>
      <trkpt lat="50.77272" lon="2.82625">
        <ele>61.18</ele>
        <time>2017-08-04T11:27:19Z</time>
      </trkpt>
      <trkpt lat="50.77226" lon="2.82574">
        <ele>58.3</ele>
        <time>2017-08-04T11:27:28Z</time>
      </trkpt>
      <trkpt lat="50.77191" lon="2.82529">
        <ele>56.37</ele>
        <time>2017-08-04T11:27:36Z</time>
      </trkpt>
      <trkpt lat="50.77139" lon="2.82441">
        <ele>53.49</ele>
        <time>2017-08-04T11:27:51Z</time>
      </trkpt>
      <trkpt lat="50.77136" lon="2.82435">
        <ele>53.49</ele>
        <time>2017-08-04T11:27:52Z</time>
      </trkpt>
      <trkpt lat="50.7713" lon="2.82423">
        <ele>53.49</ele>
        <time>2017-08-04T11:27:54Z</time>
      </trkpt>
      <trkpt lat="50.77128" lon="2.82417">
        <ele>52.53</ele>
        <time>2017-08-04T11:27:55Z</time>
      </trkpt>
      <trkpt lat="50.771" lon="2.82351">
        <ele>51.57</ele>
        <time>2017-08-04T11:28:06Z</time>
      </trkpt>
      <trkpt lat="50.77097" lon="2.82346">
        <ele>51.57</ele>
        <time>2017-08-04T11:28:07Z</time>
      </trkpt>
      <trkpt lat="50.77095" lon="2.82341">
        <ele>51.57</ele>
        <time>2017-08-04T11:28:08Z</time>
      </trkpt>
      <trkpt lat="50.77072" lon="2.82282">
        <ele>53.01</ele>
        <time>2017-08-04T11:28:22Z</time>
      </trkpt>
      <trkpt lat="50.77072" lon="2.82196">
        <ele>51.57</ele>
        <time>2017-08-04T11:28:37Z</time>
      </trkpt>
      <trkpt lat="50.77061" lon="2.82101">
        <ele>51.09</ele>
        <time>2017-08-04T11:28:55Z</time>
      </trkpt>
      <trkpt lat="50.77054" lon="2.82072">
        <ele>53.01</ele>
        <time>2017-08-04T11:29:02Z</time>
      </trkpt>
      <trkpt lat="50.77042" lon="2.8203">
        <ele>53.97</ele>
        <time>2017-08-04T11:29:13Z</time>
      </trkpt>
      <trkpt lat="50.77018" lon="2.8197">
        <ele>54.45</ele>
        <time>2017-08-04T11:29:29Z</time>
      </trkpt>
      <trkpt lat="50.76981" lon="2.81898">
        <ele>54.93</ele>
        <time>2017-08-04T11:29:49Z</time>
      </trkpt>
      <trkpt lat="50.76944" lon="2.81827">
        <ele>55.41</ele>
        <time>2017-08-04T11:30:06Z</time>
      </trkpt>
      <trkpt lat="50.769" lon="2.8174">
        <ele>53.49</ele>
        <time>2017-08-04T11:30:24Z</time>
      </trkpt>
      <trkpt lat="50.76856" lon="2.81648">
        <ele>52.05</ele>
        <time>2017-08-04T11:30:41Z</time>
      </trkpt>
      <trkpt lat="50.76824" lon="2.81556">
        <ele>50.13</ele>
        <time>2017-08-04T11:30:57Z</time>
      </trkpt>
      <trkpt lat="50.76812" lon="2.81522">
        <ele>49.65</ele>
        <time>2017-08-04T11:31:03Z</time>
      </trkpt>
      <trkpt lat="50.76808" lon="2.81518">
        <ele>49.16</ele>
        <time>2017-08-04T11:31:04Z</time>
      </trkpt>
      <trkpt lat="50.76804" lon="2.81518">
        <ele>49.16</ele>
        <time>2017-08-04T11:31:05Z</time>
      </trkpt>
      <trkpt lat="50.768" lon="2.8152">
        <ele>49.16</ele>
        <time>2017-08-04T11:31:06Z</time>
      </trkpt>
      <trkpt lat="50.76795" lon="2.81522">
        <ele>48.2</ele>
        <time>2017-08-04T11:31:07Z</time>
      </trkpt>
      <trkpt lat="50.76727" lon="2.81573">
        <ele>46.28</ele>
        <time>2017-08-04T11:31:20Z</time>
      </trkpt>
      <trkpt lat="50.7667" lon="2.81612">
        <ele>46.28</ele>
        <time>2017-08-04T11:31:34Z</time>
      </trkpt>
      <trkpt lat="50.76656" lon="2.81623">
        <ele>46.28</ele>
        <time>2017-08-04T11:31:37Z</time>
      </trkpt>
      <trkpt lat="50.76624" lon="2.81643">
        <ele>44.36</ele>
        <time>2017-08-04T11:31:43Z</time>
      </trkpt>
      <trkpt lat="50.76596" lon="2.8166">
        <ele>41.95</ele>
        <time>2017-08-04T11:31:48Z</time>
      </trkpt>
      <trkpt lat="50.76579" lon="2.81669">
        <ele>41.95</ele>
        <time>2017-08-04T11:31:51Z</time>
      </trkpt>
      <trkpt lat="50.76502" lon="2.81722">
        <ele>40.03</ele>
        <time>2017-08-04T11:32:06Z</time>
      </trkpt>
      <trkpt lat="50.76499" lon="2.81727">
        <ele>40.03</ele>
        <time>2017-08-04T11:32:07Z</time>
      </trkpt>
      <trkpt lat="50.76468" lon="2.81773">
        <ele>40.03</ele>
        <time>2017-08-04T11:32:16Z</time>
      </trkpt>
      <trkpt lat="50.76428" lon="2.81835">
        <ele>41.47</ele>
        <time>2017-08-04T11:32:29Z</time>
      </trkpt>
      <trkpt lat="50.76409" lon="2.81857">
        <ele>39.55</ele>
        <time>2017-08-04T11:32:34Z</time>
      </trkpt>
      <trkpt lat="50.7634" lon="2.81934">
        <ele>38.11</ele>
        <time>2017-08-04T11:32:51Z</time>
      </trkpt>
      <trkpt lat="50.76319" lon="2.81963">
        <ele>36.19</ele>
        <time>2017-08-04T11:32:57Z</time>
      </trkpt>
      <trkpt lat="50.76248" lon="2.82019">
        <ele>34.74</ele>
        <time>2017-08-04T11:33:14Z</time>
      </trkpt>
      <trkpt lat="50.76188" lon="2.82056">
        <ele>33.3</ele>
        <time>2017-08-04T11:33:30Z</time>
      </trkpt>
      <trkpt lat="50.76171" lon="2.82069">
        <ele>34.74</ele>
        <time>2017-08-04T11:33:35Z</time>
      </trkpt>
      <trkpt lat="50.76153" lon="2.82083">
        <ele>34.74</ele>
        <time>2017-08-04T11:33:40Z</time>
      </trkpt>
      <trkpt lat="50.76121" lon="2.82108">
        <ele>33.3</ele>
        <time>2017-08-04T11:33:49Z</time>
      </trkpt>
      <trkpt lat="50.76071" lon="2.82137">
        <ele>34.74</ele>
        <time>2017-08-04T11:34:04Z</time>
      </trkpt>
      <trkpt lat="50.76051" lon="2.82136">
        <ele>34.74</ele>
        <time>2017-08-04T11:34:11Z</time>
      </trkpt>
      <trkpt lat="50.7605" lon="2.82132">
        <ele>34.74</ele>
        <time>2017-08-04T11:34:12Z</time>
      </trkpt>
      <trkpt lat="50.7605" lon="2.82129">
        <ele>34.74</ele>
        <time>2017-08-04T11:34:13Z</time>
      </trkpt>
      <trkpt lat="50.76052" lon="2.82049">
        <ele>34.74</ele>
        <time>2017-08-04T11:34:28Z</time>
      </trkpt>
      <trkpt lat="50.76057" lon="2.82007">
        <ele>32.34</ele>
        <time>2017-08-04T11:34:36Z</time>
      </trkpt>
      <trkpt lat="50.76058" lon="2.81993">
        <ele>33.78</ele>
        <time>2017-08-04T11:34:39Z</time>
      </trkpt>
      <trkpt lat="50.76058" lon="2.81984">
        <ele>32.34</ele>
        <time>2017-08-04T11:34:41Z</time>
      </trkpt>
      <trkpt lat="50.76061" lon="2.81947">
        <ele>35.23</ele>
        <time>2017-08-04T11:34:48Z</time>
      </trkpt>
      <trkpt lat="50.76062" lon="2.81855">
        <ele>34.26</ele>
        <time>2017-08-04T11:35:04Z</time>
      </trkpt>
      <trkpt lat="50.76055" lon="2.81771">
        <ele>35.23</ele>
        <time>2017-08-04T11:35:21Z</time>
      </trkpt>
      <trkpt lat="50.76046" lon="2.81676">
        <ele>35.23</ele>
        <time>2017-08-04T11:35:39Z</time>
      </trkpt>
      <trkpt lat="50.76043" lon="2.81666">
        <ele>33.78</ele>
        <time>2017-08-04T11:35:41Z</time>
      </trkpt>
      <trkpt lat="50.76022" lon="2.81638">
        <ele>34.74</ele>
        <time>2017-08-04T11:35:52Z</time>
      </trkpt>
      <trkpt lat="50.75995" lon="2.81598">
        <ele>34.26</ele>
        <time>2017-08-04T11:36:07Z</time>
      </trkpt>
      <trkpt lat="50.75991" lon="2.81589">
        <ele>35.71</ele>
        <time>2017-08-04T11:36:10Z</time>
      </trkpt>
      <trkpt lat="50.75981" lon="2.81564">
        <ele>34.74</ele>
        <time>2017-08-04T11:36:18Z</time>
      </trkpt>
      <trkpt lat="50.75961" lon="2.8152">
        <ele>35.23</ele>
        <time>2017-08-04T11:36:32Z</time>
      </trkpt>
      <trkpt lat="50.75952" lon="2.81505">
        <ele>36.67</ele>
        <time>2017-08-04T11:36:44Z</time>
      </trkpt>
      <trkpt lat="50.75952" lon="2.81505">
        <ele>36.67</ele>
        <time>2017-08-04T11:37:09Z</time>
      </trkpt>
      <trkpt lat="50.75942" lon="2.81489">
        <ele>35.23</ele>
        <time>2017-08-04T11:37:21Z</time>
      </trkpt>
      <trkpt lat="50.75941" lon="2.81487">
        <ele>35.23</ele>
        <time>2017-08-04T11:37:22Z</time>
      </trkpt>
      <trkpt lat="50.75926" lon="2.81462">
        <ele>35.23</ele>
        <time>2017-08-04T11:37:34Z</time>
      </trkpt>
      <trkpt lat="50.75923" lon="2.81455">
        <ele>35.23</ele>
        <time>2017-08-04T11:37:38Z</time>
      </trkpt>
      <trkpt lat="50.75922" lon="2.81453">
        <ele>35.23</ele>
        <time>2017-08-04T11:37:39Z</time>
      </trkpt>
      <trkpt lat="50.75895" lon="2.81399">
        <ele>36.19</ele>
        <time>2017-08-04T11:37:59Z</time>
      </trkpt>
      <trkpt lat="50.7587" lon="2.81343">
        <ele>36.19</ele>
        <time>2017-08-04T11:38:17Z</time>
      </trkpt>
      <trkpt lat="50.75848" lon="2.81299">
        <ele>37.15</ele>
        <time>2017-08-04T11:38:32Z</time>
      </trkpt>
      <trkpt lat="50.75831" lon="2.81266">
        <ele>37.63</ele>
        <time>2017-08-04T11:38:43Z</time>
      </trkpt>
      <trkpt lat="50.75806" lon="2.81224">
        <ele>37.63</ele>
        <time>2017-08-04T11:38:59Z</time>
      </trkpt>
      <trkpt lat="50.75773" lon="2.81172">
        <ele>38.11</ele>
        <time>2017-08-04T11:39:18Z</time>
      </trkpt>
      <trkpt lat="50.75743" lon="2.81115">
        <ele>39.07</ele>
        <time>2017-08-04T11:39:37Z</time>
      </trkpt>
      <trkpt lat="50.75708" lon="2.81042">
        <ele>39.55</ele>
        <time>2017-08-04T11:40:00Z</time>
      </trkpt>
      <trkpt lat="50.75677" lon="2.8098">
        <ele>40.51</ele>
        <time>2017-08-04T11:40:20Z</time>
      </trkpt>
      <trkpt lat="50.75671" lon="2.80969">
        <ele>39.07</ele>
        <time>2017-08-04T11:40:24Z</time>
      </trkpt>
      <trkpt lat="50.75667" lon="2.8096">
        <ele>40.51</ele>
        <time>2017-08-04T11:40:27Z</time>
      </trkpt>
      <trkpt lat="50.75639" lon="2.80906">
        <ele>40.99</ele>
        <time>2017-08-04T11:40:46Z</time>
      </trkpt>
      <trkpt lat="50.75617" lon="2.80866">
        <ele>41.95</ele>
        <time>2017-08-04T11:41:03Z</time>
      </trkpt>
      <trkpt lat="50.75613" lon="2.80864">
        <ele>42.44</ele>
        <time>2017-08-04T11:41:14Z</time>
      </trkpt>
      <trkpt lat="50.75614" lon="2.80864">
        <ele>41.47</ele>
        <time>2017-08-04T11:41:28Z</time>
      </trkpt>
      <trkpt lat="50.75615" lon="2.80865">
        <ele>40.99</ele>
        <time>2017-08-04T11:41:44Z</time>
      </trkpt>
      <trkpt lat="50.75615" lon="2.80865">
        <ele>42.44</ele>
        <time>2017-08-04T11:41:47Z</time>
      </trkpt>
      <trkpt lat="50.75615" lon="2.80865">
        <ele>42.44</ele>
        <time>2017-08-04T11:41:51Z</time>
      </trkpt>
      <trkpt lat="50.75612" lon="2.80865">
        <ele>43.4</ele>
        <time>2017-08-04T11:41:54Z</time>
      </trkpt>
      <trkpt lat="50.75611" lon="2.80864">
        <ele>43.4</ele>
        <time>2017-08-04T11:41:55Z</time>
      </trkpt>
      <trkpt lat="50.75582" lon="2.8089">
        <ele>43.4</ele>
        <time>2017-08-04T11:42:08Z</time>
      </trkpt>
      <trkpt lat="50.75538" lon="2.80946">
        <ele>45.32</ele>
        <time>2017-08-04T11:42:27Z</time>
      </trkpt>
      <trkpt lat="50.75502" lon="2.81">
        <ele>46.28</ele>
        <time>2017-08-04T11:42:44Z</time>
      </trkpt>
      <trkpt lat="50.75451" lon="2.81083">
        <ele>46.28</ele>
        <time>2017-08-04T11:43:03Z</time>
      </trkpt>
      <trkpt lat="50.75398" lon="2.81164">
        <ele>46.76</ele>
        <time>2017-08-04T11:43:20Z</time>
      </trkpt>
      <trkpt lat="50.75387" lon="2.81177">
        <ele>45.8</ele>
        <time>2017-08-04T11:43:23Z</time>
      </trkpt>
      <trkpt lat="50.75383" lon="2.8118">
        <ele>45.8</ele>
        <time>2017-08-04T11:43:24Z</time>
      </trkpt>
      <trkpt lat="50.75378" lon="2.81183">
        <ele>45.8</ele>
        <time>2017-08-04T11:43:25Z</time>
      </trkpt>
      <trkpt lat="50.75374" lon="2.81185">
        <ele>45.8</ele>
        <time>2017-08-04T11:43:26Z</time>
      </trkpt>
      <trkpt lat="50.7537" lon="2.81187">
        <ele>44.84</ele>
        <time>2017-08-04T11:43:27Z</time>
      </trkpt>
      <trkpt lat="50.75339" lon="2.81201">
        <ele>44.84</ele>
        <time>2017-08-04T11:43:34Z</time>
      </trkpt>
      <trkpt lat="50.75314" lon="2.8122">
        <ele>44.36</ele>
        <time>2017-08-04T11:43:40Z</time>
      </trkpt>
      <trkpt lat="50.7531" lon="2.81221">
        <ele>44.36</ele>
        <time>2017-08-04T11:43:41Z</time>
      </trkpt>
      <trkpt lat="50.75305" lon="2.8122">
        <ele>44.36</ele>
        <time>2017-08-04T11:43:42Z</time>
      </trkpt>
      <trkpt lat="50.75301" lon="2.81217">
        <ele>44.36</ele>
        <time>2017-08-04T11:43:43Z</time>
      </trkpt>
      <trkpt lat="50.75296" lon="2.81213">
        <ele>44.36</ele>
        <time>2017-08-04T11:43:44Z</time>
      </trkpt>
      <trkpt lat="50.75293" lon="2.81208">
        <ele>43.4</ele>
        <time>2017-08-04T11:43:45Z</time>
      </trkpt>
      <trkpt lat="50.75289" lon="2.81202">
        <ele>43.4</ele>
        <time>2017-08-04T11:43:46Z</time>
      </trkpt>
      <trkpt lat="50.75273" lon="2.8118">
        <ele>44.84</ele>
        <time>2017-08-04T11:43:51Z</time>
      </trkpt>
      <trkpt lat="50.75222" lon="2.81116">
        <ele>42.92</ele>
        <time>2017-08-04T11:44:08Z</time>
      </trkpt>
      <trkpt lat="50.7521" lon="2.811">
        <ele>44.36</ele>
        <time>2017-08-04T11:44:12Z</time>
      </trkpt>
      <trkpt lat="50.75168" lon="2.81074">
        <ele>44.36</ele>
        <time>2017-08-04T11:44:24Z</time>
      </trkpt>
      <trkpt lat="50.75164" lon="2.81077">
        <ele>44.36</ele>
        <time>2017-08-04T11:44:25Z</time>
      </trkpt>
      <trkpt lat="50.75161" lon="2.81081">
        <ele>44.36</ele>
        <time>2017-08-04T11:44:26Z</time>
      </trkpt>
      <trkpt lat="50.75159" lon="2.81086">
        <ele>44.36</ele>
        <time>2017-08-04T11:44:27Z</time>
      </trkpt>
      <trkpt lat="50.75157" lon="2.81092">
        <ele>44.36</ele>
        <time>2017-08-04T11:44:28Z</time>
      </trkpt>
      <trkpt lat="50.75155" lon="2.81098">
        <ele>44.36</ele>
        <time>2017-08-04T11:44:29Z</time>
      </trkpt>
      <trkpt lat="50.75153" lon="2.81105">
        <ele>44.36</ele>
        <time>2017-08-04T11:44:30Z</time>
      </trkpt>
      <trkpt lat="50.75151" lon="2.81111">
        <ele>44.36</ele>
        <time>2017-08-04T11:44:31Z</time>
      </trkpt>
      <trkpt lat="50.75147" lon="2.81124">
        <ele>42.92</ele>
        <time>2017-08-04T11:44:33Z</time>
      </trkpt>
      <trkpt lat="50.75115" lon="2.81192">
        <ele>41.47</ele>
        <time>2017-08-04T11:44:46Z</time>
      </trkpt>
      <trkpt lat="50.75101" lon="2.81221">
        <ele>42.92</ele>
        <time>2017-08-04T11:44:52Z</time>
      </trkpt>
      <trkpt lat="50.7508" lon="2.81275">
        <ele>44.36</ele>
        <time>2017-08-04T11:45:06Z</time>
      </trkpt>
      <trkpt lat="50.75079" lon="2.81279">
        <ele>44.36</ele>
        <time>2017-08-04T11:45:07Z</time>
      </trkpt>
      <trkpt lat="50.75073" lon="2.81293">
        <ele>42.92</ele>
        <time>2017-08-04T11:45:11Z</time>
      </trkpt>
      <trkpt lat="50.75067" lon="2.81305">
        <ele>44.36</ele>
        <time>2017-08-04T11:45:15Z</time>
      </trkpt>
      <trkpt lat="50.7505" lon="2.81348">
        <ele>44.84</ele>
        <time>2017-08-04T11:45:29Z</time>
      </trkpt>
      <trkpt lat="50.75042" lon="2.81374">
        <ele>47.24</ele>
        <time>2017-08-04T11:45:39Z</time>
      </trkpt>
      <trkpt lat="50.75029" lon="2.8141">
        <ele>49.65</ele>
        <time>2017-08-04T11:45:54Z</time>
      </trkpt>
      <trkpt lat="50.75019" lon="2.81448">
        <ele>52.05</ele>
        <time>2017-08-04T11:46:10Z</time>
      </trkpt>
      <trkpt lat="50.75009" lon="2.81485">
        <ele>54.45</ele>
        <time>2017-08-04T11:46:26Z</time>
      </trkpt>
      <trkpt lat="50.75004" lon="2.81511">
        <ele>56.86</ele>
        <time>2017-08-04T11:46:38Z</time>
      </trkpt>
      <trkpt lat="50.75003" lon="2.81513">
        <ele>55.41</ele>
        <time>2017-08-04T11:46:39Z</time>
      </trkpt>
      <trkpt lat="50.75002" lon="2.81515">
        <ele>55.41</ele>
        <time>2017-08-04T11:46:40Z</time>
      </trkpt>
      <trkpt lat="50.75001" lon="2.8152">
        <ele>55.41</ele>
        <time>2017-08-04T11:46:42Z</time>
      </trkpt>
      <trkpt lat="50.75" lon="2.81522">
        <ele>55.41</ele>
        <time>2017-08-04T11:46:43Z</time>
      </trkpt>
      <trkpt lat="50.75" lon="2.81525">
        <ele>55.41</ele>
        <time>2017-08-04T11:46:44Z</time>
      </trkpt>
      <trkpt lat="50.75" lon="2.81527">
        <ele>55.41</ele>
        <time>2017-08-04T11:46:45Z</time>
      </trkpt>
      <trkpt lat="50.75" lon="2.8153">
        <ele>55.41</ele>
        <time>2017-08-04T11:46:46Z</time>
      </trkpt>
      <trkpt lat="50.75" lon="2.81532">
        <ele>55.41</ele>
        <time>2017-08-04T11:46:47Z</time>
      </trkpt>
      <trkpt lat="50.74999" lon="2.81535">
        <ele>56.86</ele>
        <time>2017-08-04T11:46:48Z</time>
      </trkpt>
      <trkpt lat="50.74999" lon="2.81538">
        <ele>56.86</ele>
        <time>2017-08-04T11:46:49Z</time>
      </trkpt>
      <trkpt lat="50.7499" lon="2.81581">
        <ele>58.3</ele>
        <time>2017-08-04T11:47:05Z</time>
      </trkpt>
      <trkpt lat="50.7498" lon="2.81621">
        <ele>59.26</ele>
        <time>2017-08-04T11:47:19Z</time>
      </trkpt>
      <trkpt lat="50.74978" lon="2.81661">
        <ele>60.7</ele>
        <time>2017-08-04T11:47:32Z</time>
      </trkpt>
      <trkpt lat="50.7499" lon="2.81706">
        <ele>62.14</ele>
        <time>2017-08-04T11:47:47Z</time>
      </trkpt>
      <trkpt lat="50.74983" lon="2.81747">
        <ele>63.58</ele>
        <time>2017-08-04T11:48:02Z</time>
      </trkpt>
      <trkpt lat="50.74975" lon="2.81784">
        <ele>64.07</ele>
        <time>2017-08-04T11:48:14Z</time>
      </trkpt>
      <trkpt lat="50.74967" lon="2.81831">
        <ele>65.99</ele>
        <time>2017-08-04T11:48:31Z</time>
      </trkpt>
      <trkpt lat="50.74958" lon="2.81876">
        <ele>66.47</ele>
        <time>2017-08-04T11:48:46Z</time>
      </trkpt>
      <trkpt lat="50.7496" lon="2.81922">
        <ele>68.87</ele>
        <time>2017-08-04T11:49:01Z</time>
      </trkpt>
      <trkpt lat="50.7496" lon="2.81992">
        <ele>67.43</ele>
        <time>2017-08-04T11:49:14Z</time>
      </trkpt>
      <trkpt lat="50.7496" lon="2.82005">
        <ele>67.43</ele>
        <time>2017-08-04T11:49:16Z</time>
      </trkpt>
      <trkpt lat="50.7496" lon="2.82012">
        <ele>66.95</ele>
        <time>2017-08-04T11:49:17Z</time>
      </trkpt>
      <trkpt lat="50.74958" lon="2.82057">
        <ele>65.51</ele>
        <time>2017-08-04T11:49:24Z</time>
      </trkpt>
      <trkpt lat="50.74957" lon="2.82152">
        <ele>65.51</ele>
        <time>2017-08-04T11:49:39Z</time>
      </trkpt>
      <trkpt lat="50.74951" lon="2.82186">
        <ele>65.51</ele>
        <time>2017-08-04T11:49:45Z</time>
      </trkpt>
      <trkpt lat="50.74949" lon="2.8219">
        <ele>65.51</ele>
        <time>2017-08-04T11:49:46Z</time>
      </trkpt>
      <trkpt lat="50.74945" lon="2.82193">
        <ele>65.51</ele>
        <time>2017-08-04T11:49:47Z</time>
      </trkpt>
      <trkpt lat="50.74942" lon="2.82194">
        <ele>64.55</ele>
        <time>2017-08-04T11:49:48Z</time>
      </trkpt>
      <trkpt lat="50.74939" lon="2.82194">
        <ele>64.55</ele>
        <time>2017-08-04T11:49:49Z</time>
      </trkpt>
      <trkpt lat="50.74937" lon="2.82194">
        <ele>64.55</ele>
        <time>2017-08-04T11:49:50Z</time>
      </trkpt>
      <trkpt lat="50.74934" lon="2.82194">
        <ele>63.1</ele>
        <time>2017-08-04T11:49:51Z</time>
      </trkpt>
      <trkpt lat="50.74912" lon="2.82192">
        <ele>66.47</ele>
        <time>2017-08-04T11:50:00Z</time>
      </trkpt>
      <trkpt lat="50.74863" lon="2.82186">
        <ele>67.91</ele>
        <time>2017-08-04T11:50:20Z</time>
      </trkpt>
      <trkpt lat="50.74822" lon="2.82187">
        <ele>68.87</ele>
        <time>2017-08-04T11:50:36Z</time>
      </trkpt>
      <trkpt lat="50.7477" lon="2.82195">
        <ele>69.35</ele>
        <time>2017-08-04T11:50:54Z</time>
      </trkpt>
      <trkpt lat="50.74729" lon="2.82202">
        <ele>69.83</ele>
        <time>2017-08-04T11:51:10Z</time>
      </trkpt>
      <trkpt lat="50.74719" lon="2.822">
        <ele>69.83</ele>
        <time>2017-08-04T11:51:14Z</time>
      </trkpt>
      <trkpt lat="50.74683" lon="2.82218">
        <ele>68.39</ele>
        <time>2017-08-04T11:51:24Z</time>
      </trkpt>
      <trkpt lat="50.7462" lon="2.82244">
        <ele>67.43</ele>
        <time>2017-08-04T11:51:39Z</time>
      </trkpt>
      <trkpt lat="50.74596" lon="2.82255">
        <ele>65.99</ele>
        <time>2017-08-04T11:51:44Z</time>
      </trkpt>
      <trkpt lat="50.74545" lon="2.82286">
        <ele>65.03</ele>
        <time>2017-08-04T11:51:56Z</time>
      </trkpt>
      <trkpt lat="50.74523" lon="2.82299">
        <ele>65.51</ele>
        <time>2017-08-04T11:52:04Z</time>
      </trkpt>
      <trkpt lat="50.74521" lon="2.82297">
        <ele>65.51</ele>
        <time>2017-08-04T11:52:05Z</time>
      </trkpt>
      <trkpt lat="50.7452" lon="2.82294">
        <ele>65.51</ele>
        <time>2017-08-04T11:52:06Z</time>
      </trkpt>
      <trkpt lat="50.74507" lon="2.82244">
        <ele>66.47</ele>
        <time>2017-08-04T11:52:20Z</time>
      </trkpt>
      <trkpt lat="50.74498" lon="2.82208">
        <ele>66.95</ele>
        <time>2017-08-04T11:52:29Z</time>
      </trkpt>
      <trkpt lat="50.7447" lon="2.82131">
        <ele>68.87</ele>
        <time>2017-08-04T11:52:49Z</time>
      </trkpt>
      <trkpt lat="50.74441" lon="2.82059">
        <ele>69.35</ele>
        <time>2017-08-04T11:53:08Z</time>
      </trkpt>
      <trkpt lat="50.74421" lon="2.82003">
        <ele>71.27</ele>
        <time>2017-08-04T11:53:24Z</time>
      </trkpt>
      <trkpt lat="50.74398" lon="2.8195">
        <ele>71.27</ele>
        <time>2017-08-04T11:53:42Z</time>
      </trkpt>
      <trkpt lat="50.74376" lon="2.819">
        <ele>73.2</ele>
        <time>2017-08-04T11:53:59Z</time>
      </trkpt>
      <trkpt lat="50.74354" lon="2.81839">
        <ele>74.64</ele>
        <time>2017-08-04T11:54:18Z</time>
      </trkpt>
      <trkpt lat="50.74334" lon="2.81778">
        <ele>74.16</ele>
        <time>2017-08-04T11:54:36Z</time>
      </trkpt>
      <trkpt lat="50.74333" lon="2.81775">
        <ele>74.16</ele>
        <time>2017-08-04T11:54:37Z</time>
      </trkpt>
      <trkpt lat="50.74329" lon="2.81761">
        <ele>75.6</ele>
        <time>2017-08-04T11:54:41Z</time>
      </trkpt>
      <trkpt lat="50.74316" lon="2.81724">
        <ele>75.6</ele>
        <time>2017-08-04T11:54:53Z</time>
      </trkpt>
      <trkpt lat="50.74312" lon="2.81712">
        <ele>76.56</ele>
        <time>2017-08-04T11:54:57Z</time>
      </trkpt>
      <trkpt lat="50.74291" lon="2.81657">
        <ele>78.48</ele>
        <time>2017-08-04T11:55:14Z</time>
      </trkpt>
      <trkpt lat="50.74277" lon="2.81623">
        <ele>77.52</ele>
        <time>2017-08-04T11:55:25Z</time>
      </trkpt>
      <trkpt lat="50.74273" lon="2.81614">
        <ele>78.97</ele>
        <time>2017-08-04T11:55:28Z</time>
      </trkpt>
      <trkpt lat="50.74264" lon="2.81596">
        <ele>78.97</ele>
        <time>2017-08-04T11:55:34Z</time>
      </trkpt>
      <trkpt lat="50.74263" lon="2.81593">
        <ele>78.97</ele>
        <time>2017-08-04T11:55:35Z</time>
      </trkpt>
      <trkpt lat="50.74262" lon="2.8159">
        <ele>78.97</ele>
        <time>2017-08-04T11:55:36Z</time>
      </trkpt>
      <trkpt lat="50.74229" lon="2.81523">
        <ele>79.45</ele>
        <time>2017-08-04T11:55:55Z</time>
      </trkpt>
      <trkpt lat="50.74208" lon="2.81452">
        <ele>79.45</ele>
        <time>2017-08-04T11:56:10Z</time>
      </trkpt>
      <trkpt lat="50.74201" lon="2.81417">
        <ele>78.48</ele>
        <time>2017-08-04T11:56:17Z</time>
      </trkpt>
      <trkpt lat="50.74187" lon="2.81343">
        <ele>76.08</ele>
        <time>2017-08-04T11:56:30Z</time>
      </trkpt>
      <trkpt lat="50.74167" lon="2.81227">
        <ele>74.64</ele>
        <time>2017-08-04T11:56:46Z</time>
      </trkpt>
      <trkpt lat="50.74156" lon="2.81175">
        <ele>73.2</ele>
        <time>2017-08-04T11:56:54Z</time>
      </trkpt>
      <trkpt lat="50.74155" lon="2.81173">
        <ele>73.2</ele>
        <time>2017-08-04T11:56:55Z</time>
      </trkpt>
      <trkpt lat="50.74152" lon="2.81172">
        <ele>74.16</ele>
        <time>2017-08-04T11:56:56Z</time>
      </trkpt>
      <trkpt lat="50.7415" lon="2.81172">
        <ele>74.16</ele>
        <time>2017-08-04T11:56:57Z</time>
      </trkpt>
      <trkpt lat="50.74129" lon="2.81181">
        <ele>72.72</ele>
        <time>2017-08-04T11:57:04Z</time>
      </trkpt>
      <trkpt lat="50.74111" lon="2.81191">
        <ele>72.24</ele>
        <time>2017-08-04T11:57:08Z</time>
      </trkpt>
      <trkpt lat="50.74095" lon="2.81203">
        <ele>68.39</ele>
        <time>2017-08-04T11:57:11Z</time>
      </trkpt>
      <trkpt lat="50.74089" lon="2.81208">
        <ele>68.39</ele>
        <time>2017-08-04T11:57:12Z</time>
      </trkpt>
      <trkpt lat="50.74071" lon="2.81224">
        <ele>66.95</ele>
        <time>2017-08-04T11:57:15Z</time>
      </trkpt>
      <trkpt lat="50.7404" lon="2.81249">
        <ele>65.51</ele>
        <time>2017-08-04T11:57:20Z</time>
      </trkpt>
      <trkpt lat="50.74021" lon="2.81261">
        <ele>64.07</ele>
        <time>2017-08-04T11:57:23Z</time>
      </trkpt>
      <trkpt lat="50.74014" lon="2.81264">
        <ele>63.1</ele>
        <time>2017-08-04T11:57:24Z</time>
      </trkpt>
      <trkpt lat="50.74008" lon="2.81267">
        <ele>63.1</ele>
        <time>2017-08-04T11:57:25Z</time>
      </trkpt>
      <trkpt lat="50.74001" lon="2.81268">
        <ele>62.14</ele>
        <time>2017-08-04T11:57:26Z</time>
      </trkpt>
      <trkpt lat="50.73994" lon="2.8127">
        <ele>62.14</ele>
        <time>2017-08-04T11:57:27Z</time>
      </trkpt>
      <trkpt lat="50.73988" lon="2.81271">
        <ele>62.14</ele>
        <time>2017-08-04T11:57:28Z</time>
      </trkpt>
      <trkpt lat="50.73938" lon="2.81278">
        <ele>59.26</ele>
        <time>2017-08-04T11:57:36Z</time>
      </trkpt>
      <trkpt lat="50.73924" lon="2.8128">
        <ele>59.26</ele>
        <time>2017-08-04T11:57:39Z</time>
      </trkpt>
      <trkpt lat="50.7392" lon="2.81279">
        <ele>59.26</ele>
        <time>2017-08-04T11:57:40Z</time>
      </trkpt>
      <trkpt lat="50.73916" lon="2.81277">
        <ele>58.3</ele>
        <time>2017-08-04T11:57:41Z</time>
      </trkpt>
      <trkpt lat="50.73912" lon="2.81276">
        <ele>58.3</ele>
        <time>2017-08-04T11:57:42Z</time>
      </trkpt>
      <trkpt lat="50.73907" lon="2.81275">
        <ele>58.3</ele>
        <time>2017-08-04T11:57:43Z</time>
      </trkpt>
      <trkpt lat="50.73902" lon="2.81274">
        <ele>58.3</ele>
        <time>2017-08-04T11:57:44Z</time>
      </trkpt>
      <trkpt lat="50.73861" lon="2.81271">
        <ele>54.93</ele>
        <time>2017-08-04T11:57:52Z</time>
      </trkpt>
      <trkpt lat="50.73836" lon="2.81272">
        <ele>53.49</ele>
        <time>2017-08-04T11:57:56Z</time>
      </trkpt>
      <trkpt lat="50.73818" lon="2.81273">
        <ele>52.05</ele>
        <time>2017-08-04T11:57:59Z</time>
      </trkpt>
      <trkpt lat="50.7377" lon="2.81276">
        <ele>49.65</ele>
        <time>2017-08-04T11:58:07Z</time>
      </trkpt>
      <trkpt lat="50.73737" lon="2.81284">
        <ele>47.72</ele>
        <time>2017-08-04T11:58:13Z</time>
      </trkpt>
      <trkpt lat="50.73733" lon="2.81287">
        <ele>47.72</ele>
        <time>2017-08-04T11:58:14Z</time>
      </trkpt>
      <trkpt lat="50.73728" lon="2.81289">
        <ele>47.72</ele>
        <time>2017-08-04T11:58:15Z</time>
      </trkpt>
      <trkpt lat="50.73719" lon="2.81293">
        <ele>46.76</ele>
        <time>2017-08-04T11:58:17Z</time>
      </trkpt>
      <trkpt lat="50.73711" lon="2.81297">
        <ele>48.2</ele>
        <time>2017-08-04T11:58:19Z</time>
      </trkpt>
      <trkpt lat="50.73702" lon="2.81302">
        <ele>46.76</ele>
        <time>2017-08-04T11:58:21Z</time>
      </trkpt>
      <trkpt lat="50.73693" lon="2.81307">
        <ele>45.8</ele>
        <time>2017-08-04T11:58:23Z</time>
      </trkpt>
      <trkpt lat="50.73684" lon="2.81311">
        <ele>46.76</ele>
        <time>2017-08-04T11:58:25Z</time>
      </trkpt>
      <trkpt lat="50.73667" lon="2.81322">
        <ele>44.84</ele>
        <time>2017-08-04T11:58:29Z</time>
      </trkpt>
      <trkpt lat="50.73663" lon="2.81325">
        <ele>45.32</ele>
        <time>2017-08-04T11:58:30Z</time>
      </trkpt>
      <trkpt lat="50.73659" lon="2.81327">
        <ele>44.84</ele>
        <time>2017-08-04T11:58:31Z</time>
      </trkpt>
      <trkpt lat="50.73654" lon="2.81329">
        <ele>45.32</ele>
        <time>2017-08-04T11:58:32Z</time>
      </trkpt>
      <trkpt lat="50.7365" lon="2.81332">
        <ele>44.84</ele>
        <time>2017-08-04T11:58:33Z</time>
      </trkpt>
      <trkpt lat="50.73645" lon="2.81335">
        <ele>44.84</ele>
        <time>2017-08-04T11:58:34Z</time>
      </trkpt>
      <trkpt lat="50.73635" lon="2.81342">
        <ele>45.32</ele>
        <time>2017-08-04T11:58:36Z</time>
      </trkpt>
      <trkpt lat="50.73631" lon="2.81343">
        <ele>44.84</ele>
        <time>2017-08-04T11:58:37Z</time>
      </trkpt>
      <trkpt lat="50.73601" lon="2.81353">
        <ele>45.32</ele>
        <time>2017-08-04T11:58:43Z</time>
      </trkpt>
      <trkpt lat="50.73596" lon="2.8135">
        <ele>43.4</ele>
        <time>2017-08-04T11:58:44Z</time>
      </trkpt>
      <trkpt lat="50.73594" lon="2.81343">
        <ele>43.4</ele>
        <time>2017-08-04T11:58:45Z</time>
      </trkpt>
      <trkpt lat="50.73594" lon="2.81337">
        <ele>44.84</ele>
        <time>2017-08-04T11:58:46Z</time>
      </trkpt>
      <trkpt lat="50.73593" lon="2.8133">
        <ele>44.84</ele>
        <time>2017-08-04T11:58:47Z</time>
      </trkpt>
      <trkpt lat="50.73593" lon="2.81324">
        <ele>44.84</ele>
        <time>2017-08-04T11:58:48Z</time>
      </trkpt>
      <trkpt lat="50.73579" lon="2.8123">
        <ele>43.88</ele>
        <time>2017-08-04T11:59:02Z</time>
      </trkpt>
      <trkpt lat="50.73564" lon="2.81129">
        <ele>45.32</ele>
        <time>2017-08-04T11:59:19Z</time>
      </trkpt>
      <trkpt lat="50.7356" lon="2.81105">
        <ele>43.88</ele>
        <time>2017-08-04T11:59:23Z</time>
      </trkpt>
      <trkpt lat="50.73552" lon="2.81065">
        <ele>42.92</ele>
        <time>2017-08-04T11:59:31Z</time>
      </trkpt>
      <trkpt lat="50.73549" lon="2.81063">
        <ele>42.92</ele>
        <time>2017-08-04T11:59:32Z</time>
      </trkpt>
      <trkpt lat="50.73546" lon="2.81061">
        <ele>42.92</ele>
        <time>2017-08-04T11:59:33Z</time>
      </trkpt>
      <trkpt lat="50.73542" lon="2.81061">
        <ele>42.44</ele>
        <time>2017-08-04T11:59:34Z</time>
      </trkpt>
      <trkpt lat="50.73539" lon="2.81062">
        <ele>42.92</ele>
        <time>2017-08-04T11:59:35Z</time>
      </trkpt>
      <trkpt lat="50.73534" lon="2.81063">
        <ele>42.92</ele>
        <time>2017-08-04T11:59:36Z</time>
      </trkpt>
      <trkpt lat="50.7353" lon="2.81064">
        <ele>42.92</ele>
        <time>2017-08-04T11:59:37Z</time>
      </trkpt>
      <trkpt lat="50.73525" lon="2.81066">
        <ele>42.92</ele>
        <time>2017-08-04T11:59:38Z</time>
      </trkpt>
      <trkpt lat="50.73438" lon="2.81078">
        <ele>41.47</ele>
        <time>2017-08-04T11:59:56Z</time>
      </trkpt>
      <trkpt lat="50.73422" lon="2.81076">
        <ele>41.47</ele>
        <time>2017-08-04T11:59:59Z</time>
      </trkpt>
      <trkpt lat="50.73417" lon="2.81075">
        <ele>40.99</ele>
        <time>2017-08-04T12:00:00Z</time>
      </trkpt>
      <trkpt lat="50.73411" lon="2.81072">
        <ele>40.99</ele>
        <time>2017-08-04T12:00:01Z</time>
      </trkpt>
      <trkpt lat="50.73407" lon="2.8107">
        <ele>40.03</ele>
        <time>2017-08-04T12:00:02Z</time>
      </trkpt>
      <trkpt lat="50.73403" lon="2.81067">
        <ele>39.07</ele>
        <time>2017-08-04T12:00:03Z</time>
      </trkpt>
      <trkpt lat="50.73399" lon="2.81064">
        <ele>39.07</ele>
        <time>2017-08-04T12:00:04Z</time>
      </trkpt>
      <trkpt lat="50.73375" lon="2.81049">
        <ele>39.07</ele>
        <time>2017-08-04T12:00:10Z</time>
      </trkpt>
      <trkpt lat="50.73347" lon="2.81021">
        <ele>37.15</ele>
        <time>2017-08-04T12:00:17Z</time>
      </trkpt>
      <trkpt lat="50.73335" lon="2.81007">
        <ele>37.15</ele>
        <time>2017-08-04T12:00:20Z</time>
      </trkpt>
      <trkpt lat="50.73326" lon="2.80998">
        <ele>36.19</ele>
        <time>2017-08-04T12:00:22Z</time>
      </trkpt>
      <trkpt lat="50.73322" lon="2.80994">
        <ele>36.19</ele>
        <time>2017-08-04T12:00:23Z</time>
      </trkpt>
      <trkpt lat="50.73318" lon="2.80992">
        <ele>35.71</ele>
        <time>2017-08-04T12:00:24Z</time>
      </trkpt>
      <trkpt lat="50.73315" lon="2.8099">
        <ele>35.71</ele>
        <time>2017-08-04T12:00:25Z</time>
      </trkpt>
      <trkpt lat="50.73312" lon="2.80987">
        <ele>35.71</ele>
        <time>2017-08-04T12:00:26Z</time>
      </trkpt>
      <trkpt lat="50.73311" lon="2.80985">
        <ele>35.23</ele>
        <time>2017-08-04T12:00:27Z</time>
      </trkpt>
      <trkpt lat="50.73308" lon="2.8098">
        <ele>34.26</ele>
        <time>2017-08-04T12:00:28Z</time>
      </trkpt>
      <trkpt lat="50.73307" lon="2.80977">
        <ele>34.26</ele>
        <time>2017-08-04T12:00:29Z</time>
      </trkpt>
      <trkpt lat="50.73304" lon="2.80973">
        <ele>33.78</ele>
        <time>2017-08-04T12:00:30Z</time>
      </trkpt>
      <trkpt lat="50.73276" lon="2.80946">
        <ele>31.38</ele>
        <time>2017-08-04T12:00:40Z</time>
      </trkpt>
      <trkpt lat="50.73264" lon="2.80932">
        <ele>28.98</ele>
        <time>2017-08-04T12:00:44Z</time>
      </trkpt>
      <trkpt lat="50.7326" lon="2.80928">
        <ele>28.02</ele>
        <time>2017-08-04T12:00:45Z</time>
      </trkpt>
      <trkpt lat="50.73255" lon="2.80924">
        <ele>27.53</ele>
        <time>2017-08-04T12:00:46Z</time>
      </trkpt>
      <trkpt lat="50.73251" lon="2.8092">
        <ele>27.53</ele>
        <time>2017-08-04T12:00:47Z</time>
      </trkpt>
      <trkpt lat="50.73247" lon="2.80915">
        <ele>27.05</ele>
        <time>2017-08-04T12:00:48Z</time>
      </trkpt>
      <trkpt lat="50.73241" lon="2.80911">
        <ele>27.05</ele>
        <time>2017-08-04T12:00:49Z</time>
      </trkpt>
      <trkpt lat="50.73235" lon="2.80907">
        <ele>26.09</ele>
        <time>2017-08-04T12:00:50Z</time>
      </trkpt>
      <trkpt lat="50.73172" lon="2.80864">
        <ele>22.73</ele>
        <time>2017-08-04T12:01:02Z</time>
      </trkpt>
      <trkpt lat="50.73168" lon="2.80861">
        <ele>22.73</ele>
        <time>2017-08-04T12:01:03Z</time>
      </trkpt>
      <trkpt lat="50.73145" lon="2.8085">
        <ele>23.69</ele>
        <time>2017-08-04T12:01:09Z</time>
      </trkpt>
      <trkpt lat="50.73106" lon="2.80823">
        <ele>22.73</ele>
        <time>2017-08-04T12:01:22Z</time>
      </trkpt>
      <trkpt lat="50.73098" lon="2.80815">
        <ele>22.73</ele>
        <time>2017-08-04T12:01:30Z</time>
      </trkpt>
      <trkpt lat="50.73099" lon="2.80814">
        <ele>22.73</ele>
        <time>2017-08-04T12:01:59Z</time>
      </trkpt>
      <trkpt lat="50.73099" lon="2.80814">
        <ele>22.73</ele>
        <time>2017-08-04T12:02:18Z</time>
      </trkpt>
      <trkpt lat="50.73098" lon="2.80814">
        <ele>22.73</ele>
        <time>2017-08-04T12:02:38Z</time>
      </trkpt>
      <trkpt lat="50.73098" lon="2.80814">
        <ele>22.73</ele>
        <time>2017-08-04T12:03:09Z</time>
      </trkpt>
      <trkpt lat="50.73098" lon="2.80814">
        <ele>22.73</ele>
        <time>2017-08-04T12:03:40Z</time>
      </trkpt>
      <trkpt lat="50.7309" lon="2.808">
        <ele>22.73</ele>
        <time>2017-08-04T12:03:47Z</time>
      </trkpt>
      <trkpt lat="50.73088" lon="2.80798">
        <ele>22.73</ele>
        <time>2017-08-04T12:03:48Z</time>
      </trkpt>
      <trkpt lat="50.73088" lon="2.80796">
        <ele>22.73</ele>
        <time>2017-08-04T12:03:49Z</time>
      </trkpt>
      <trkpt lat="50.73088" lon="2.80794">
        <ele>22.73</ele>
        <time>2017-08-04T12:03:50Z</time>
      </trkpt>
      <trkpt lat="50.73088" lon="2.80791">
        <ele>22.73</ele>
        <time>2017-08-04T12:03:51Z</time>
      </trkpt>
      <trkpt lat="50.73087" lon="2.80788">
        <ele>22.73</ele>
        <time>2017-08-04T12:03:52Z</time>
      </trkpt>
      <trkpt lat="50.73086" lon="2.80784">
        <ele>22.73</ele>
        <time>2017-08-04T12:03:53Z</time>
      </trkpt>
      <trkpt lat="50.73064" lon="2.8075">
        <ele>22.25</ele>
        <time>2017-08-04T12:04:05Z</time>
      </trkpt>
      <trkpt lat="50.73032" lon="2.80722">
        <ele>22.25</ele>
        <time>2017-08-04T12:04:18Z</time>
      </trkpt>
      <trkpt lat="50.72989" lon="2.80679">
        <ele>20.32</ele>
        <time>2017-08-04T12:04:36Z</time>
      </trkpt>
      <trkpt lat="50.72953" lon="2.80645">
        <ele>21.77</ele>
        <time>2017-08-04T12:04:51Z</time>
      </trkpt>
      <trkpt lat="50.72917" lon="2.80612">
        <ele>20.32</ele>
        <time>2017-08-04T12:05:06Z</time>
      </trkpt>
      <trkpt lat="50.72884" lon="2.80588">
        <ele>21.29</ele>
        <time>2017-08-04T12:05:20Z</time>
      </trkpt>
      <trkpt lat="50.72859" lon="2.8057">
        <ele>19.84</ele>
        <time>2017-08-04T12:05:30Z</time>
      </trkpt>
      <trkpt lat="50.72844" lon="2.80557">
        <ele>20.81</ele>
        <time>2017-08-04T12:05:37Z</time>
      </trkpt>
      <trkpt lat="50.72818" lon="2.80532">
        <ele>19.36</ele>
        <time>2017-08-04T12:05:49Z</time>
      </trkpt>
      <trkpt lat="50.72809" lon="2.80524">
        <ele>20.81</ele>
        <time>2017-08-04T12:05:53Z</time>
      </trkpt>
      <trkpt lat="50.72774" lon="2.80502">
        <ele>20.81</ele>
        <time>2017-08-04T12:06:08Z</time>
      </trkpt>
      <trkpt lat="50.72731" lon="2.80488">
        <ele>21.29</ele>
        <time>2017-08-04T12:06:26Z</time>
      </trkpt>
      <trkpt lat="50.7271" lon="2.8048">
        <ele>21.29</ele>
        <time>2017-08-04T12:06:35Z</time>
      </trkpt>
      <trkpt lat="50.72709" lon="2.80476">
        <ele>21.29</ele>
        <time>2017-08-04T12:06:36Z</time>
      </trkpt>
      <trkpt lat="50.7271" lon="2.80472">
        <ele>21.29</ele>
        <time>2017-08-04T12:06:37Z</time>
      </trkpt>
      <trkpt lat="50.7271" lon="2.80468">
        <ele>21.29</ele>
        <time>2017-08-04T12:06:38Z</time>
      </trkpt>
      <trkpt lat="50.72711" lon="2.80463">
        <ele>21.29</ele>
        <time>2017-08-04T12:06:39Z</time>
      </trkpt>
      <trkpt lat="50.72711" lon="2.80459">
        <ele>21.29</ele>
        <time>2017-08-04T12:06:40Z</time>
      </trkpt>
      <trkpt lat="50.72711" lon="2.80454">
        <ele>21.29</ele>
        <time>2017-08-04T12:06:41Z</time>
      </trkpt>
      <trkpt lat="50.72712" lon="2.8045">
        <ele>21.77</ele>
        <time>2017-08-04T12:06:42Z</time>
      </trkpt>
      <trkpt lat="50.72712" lon="2.80445">
        <ele>21.77</ele>
        <time>2017-08-04T12:06:43Z</time>
      </trkpt>
      <trkpt lat="50.72718" lon="2.80386">
        <ele>21.77</ele>
        <time>2017-08-04T12:06:56Z</time>
      </trkpt>
      <trkpt lat="50.72725" lon="2.80311">
        <ele>21.77</ele>
        <time>2017-08-04T12:07:09Z</time>
      </trkpt>
      <trkpt lat="50.72733" lon="2.80257">
        <ele>20.32</ele>
        <time>2017-08-04T12:07:18Z</time>
      </trkpt>
      <trkpt lat="50.72751" lon="2.80147">
        <ele>22.25</ele>
        <time>2017-08-04T12:07:38Z</time>
      </trkpt>
      <trkpt lat="50.72755" lon="2.8012">
        <ele>20.81</ele>
        <time>2017-08-04T12:07:43Z</time>
      </trkpt>
      <trkpt lat="50.72765" lon="2.80053">
        <ele>20.81</ele>
        <time>2017-08-04T12:07:56Z</time>
      </trkpt>
      <trkpt lat="50.72764" lon="2.8005">
        <ele>19.36</ele>
        <time>2017-08-04T12:07:57Z</time>
      </trkpt>
      <trkpt lat="50.72762" lon="2.80048">
        <ele>18.88</ele>
        <time>2017-08-04T12:07:58Z</time>
      </trkpt>
      <trkpt lat="50.72761" lon="2.80046">
        <ele>18.88</ele>
        <time>2017-08-04T12:07:59Z</time>
      </trkpt>
      <trkpt lat="50.72759" lon="2.80045">
        <ele>18.88</ele>
        <time>2017-08-04T12:08:00Z</time>
      </trkpt>
      <trkpt lat="50.72757" lon="2.80044">
        <ele>18.4</ele>
        <time>2017-08-04T12:08:01Z</time>
      </trkpt>
      <trkpt lat="50.72719" lon="2.80036">
        <ele>19.36</ele>
        <time>2017-08-04T12:08:15Z</time>
      </trkpt>
      <trkpt lat="50.72697" lon="2.8003">
        <ele>20.81</ele>
        <time>2017-08-04T12:08:23Z</time>
      </trkpt>
      <trkpt lat="50.72642" lon="2.80005">
        <ele>20.81</ele>
        <time>2017-08-04T12:08:43Z</time>
      </trkpt>
      <trkpt lat="50.72605" lon="2.79977">
        <ele>19.36</ele>
        <time>2017-08-04T12:08:56Z</time>
      </trkpt>
      <trkpt lat="50.72568" lon="2.79946">
        <ele>20.81</ele>
        <time>2017-08-04T12:09:09Z</time>
      </trkpt>
      <trkpt lat="50.72529" lon="2.79907">
        <ele>19.36</ele>
        <time>2017-08-04T12:09:23Z</time>
      </trkpt>
      <trkpt lat="50.72508" lon="2.7989">
        <ele>21.29</ele>
        <time>2017-08-04T12:09:30Z</time>
      </trkpt>
      <trkpt lat="50.72451" lon="2.79858">
        <ele>21.29</ele>
        <time>2017-08-04T12:09:46Z</time>
      </trkpt>
      <trkpt lat="50.72399" lon="2.79804">
        <ele>21.77</ele>
        <time>2017-08-04T12:10:02Z</time>
      </trkpt>
      <trkpt lat="50.72382" lon="2.7979">
        <ele>22.25</ele>
        <time>2017-08-04T12:10:07Z</time>
      </trkpt>
      <trkpt lat="50.72378" lon="2.79787">
        <ele>22.25</ele>
        <time>2017-08-04T12:10:08Z</time>
      </trkpt>
      <trkpt lat="50.72334" lon="2.79756">
        <ele>21.29</ele>
        <time>2017-08-04T12:10:21Z</time>
      </trkpt>
      <trkpt lat="50.72294" lon="2.79726">
        <ele>21.29</ele>
        <time>2017-08-04T12:10:34Z</time>
      </trkpt>
      <trkpt lat="50.72284" lon="2.7972">
        <ele>21.29</ele>
        <time>2017-08-04T12:10:44Z</time>
      </trkpt>
      <trkpt lat="50.72283" lon="2.7972">
        <ele>22.25</ele>
        <time>2017-08-04T12:10:47Z</time>
      </trkpt>
      <trkpt lat="50.72282" lon="2.79718">
        <ele>22.25</ele>
        <time>2017-08-04T12:11:11Z</time>
      </trkpt>
      <trkpt lat="50.7228" lon="2.79715">
        <ele>22.25</ele>
        <time>2017-08-04T12:11:28Z</time>
      </trkpt>
      <trkpt lat="50.7228" lon="2.79713">
        <ele>22.25</ele>
        <time>2017-08-04T12:11:29Z</time>
      </trkpt>
      <trkpt lat="50.72281" lon="2.7971">
        <ele>22.25</ele>
        <time>2017-08-04T12:11:30Z</time>
      </trkpt>
      <trkpt lat="50.72282" lon="2.79707">
        <ele>22.25</ele>
        <time>2017-08-04T12:11:31Z</time>
      </trkpt>
      <trkpt lat="50.72283" lon="2.79705">
        <ele>22.25</ele>
        <time>2017-08-04T12:11:32Z</time>
      </trkpt>
      <trkpt lat="50.7229" lon="2.7969">
        <ele>21.29</ele>
        <time>2017-08-04T12:11:36Z</time>
      </trkpt>
      <trkpt lat="50.72316" lon="2.79622">
        <ele>20.81</ele>
        <time>2017-08-04T12:11:51Z</time>
      </trkpt>
      <trkpt lat="50.72334" lon="2.79564">
        <ele>20.32</ele>
        <time>2017-08-04T12:12:05Z</time>
      </trkpt>
      <trkpt lat="50.72333" lon="2.79554">
        <ele>20.32</ele>
        <time>2017-08-04T12:12:07Z</time>
      </trkpt>
      <trkpt lat="50.7233" lon="2.7955">
        <ele>20.32</ele>
        <time>2017-08-04T12:12:08Z</time>
      </trkpt>
      <trkpt lat="50.72327" lon="2.79549">
        <ele>20.32</ele>
        <time>2017-08-04T12:12:09Z</time>
      </trkpt>
      <trkpt lat="50.72323" lon="2.7955">
        <ele>20.32</ele>
        <time>2017-08-04T12:12:10Z</time>
      </trkpt>
      <trkpt lat="50.72319" lon="2.79551">
        <ele>20.32</ele>
        <time>2017-08-04T12:12:11Z</time>
      </trkpt>
      <trkpt lat="50.72315" lon="2.79552">
        <ele>19.84</ele>
        <time>2017-08-04T12:12:12Z</time>
      </trkpt>
      <trkpt lat="50.72249" lon="2.79592">
        <ele>19.36</ele>
        <time>2017-08-04T12:12:29Z</time>
      </trkpt>
      <trkpt lat="50.72186" lon="2.79632">
        <ele>18.4</ele>
        <time>2017-08-04T12:12:46Z</time>
      </trkpt>
      <trkpt lat="50.72139" lon="2.79654">
        <ele>17.92</ele>
        <time>2017-08-04T12:12:58Z</time>
      </trkpt>
      <trkpt lat="50.72113" lon="2.79663">
        <ele>18.4</ele>
        <time>2017-08-04T12:13:05Z</time>
      </trkpt>
      <trkpt lat="50.72065" lon="2.79673">
        <ele>19.36</ele>
        <time>2017-08-04T12:13:16Z</time>
      </trkpt>
      <trkpt lat="50.72057" lon="2.79675">
        <ele>19.84</ele>
        <time>2017-08-04T12:13:18Z</time>
      </trkpt>
      <trkpt lat="50.71973" lon="2.79702">
        <ele>19.84</ele>
        <time>2017-08-04T12:13:37Z</time>
      </trkpt>
      <trkpt lat="50.71883" lon="2.79722">
        <ele>19.84</ele>
        <time>2017-08-04T12:13:57Z</time>
      </trkpt>
      <trkpt lat="50.71862" lon="2.79725">
        <ele>19.84</ele>
        <time>2017-08-04T12:14:02Z</time>
      </trkpt>
      <trkpt lat="50.71857" lon="2.79725">
        <ele>19.84</ele>
        <time>2017-08-04T12:14:03Z</time>
      </trkpt>
      <trkpt lat="50.71853" lon="2.79725">
        <ele>19.84</ele>
        <time>2017-08-04T12:14:04Z</time>
      </trkpt>
      <trkpt lat="50.71804" lon="2.79735">
        <ele>19.84</ele>
        <time>2017-08-04T12:14:16Z</time>
      </trkpt>
      <trkpt lat="50.718" lon="2.79737">
        <ele>19.84</ele>
        <time>2017-08-04T12:14:17Z</time>
      </trkpt>
      <trkpt lat="50.71796" lon="2.7974">
        <ele>19.84</ele>
        <time>2017-08-04T12:14:18Z</time>
      </trkpt>
      <trkpt lat="50.71728" lon="2.79788">
        <ele>19.84</ele>
        <time>2017-08-04T12:14:35Z</time>
      </trkpt>
      <trkpt lat="50.71678" lon="2.79813">
        <ele>19.84</ele>
        <time>2017-08-04T12:14:47Z</time>
      </trkpt>
      <trkpt lat="50.71675" lon="2.79817">
        <ele>19.84</ele>
        <time>2017-08-04T12:14:48Z</time>
      </trkpt>
      <trkpt lat="50.71672" lon="2.79822">
        <ele>19.84</ele>
        <time>2017-08-04T12:14:49Z</time>
      </trkpt>
      <trkpt lat="50.71669" lon="2.79828">
        <ele>19.84</ele>
        <time>2017-08-04T12:14:50Z</time>
      </trkpt>
      <trkpt lat="50.71667" lon="2.79834">
        <ele>19.84</ele>
        <time>2017-08-04T12:14:51Z</time>
      </trkpt>
      <trkpt lat="50.71659" lon="2.7986">
        <ele>19.84</ele>
        <time>2017-08-04T12:14:55Z</time>
      </trkpt>
      <trkpt lat="50.71636" lon="2.79914">
        <ele>20.32</ele>
        <time>2017-08-04T12:15:07Z</time>
      </trkpt>
      <trkpt lat="50.71633" lon="2.79914">
        <ele>20.32</ele>
        <time>2017-08-04T12:15:08Z</time>
      </trkpt>
      <trkpt lat="50.71631" lon="2.79913">
        <ele>20.32</ele>
        <time>2017-08-04T12:15:09Z</time>
      </trkpt>
      <trkpt lat="50.71607" lon="2.79901">
        <ele>18.88</ele>
        <time>2017-08-04T12:15:16Z</time>
      </trkpt>
      <trkpt lat="50.7156" lon="2.7985">
        <ele>17.44</ele>
        <time>2017-08-04T12:15:31Z</time>
      </trkpt>
      <trkpt lat="50.71558" lon="2.79846">
        <ele>17.44</ele>
        <time>2017-08-04T12:15:32Z</time>
      </trkpt>
      <trkpt lat="50.71533" lon="2.79762">
        <ele>19.84</ele>
        <time>2017-08-04T12:15:49Z</time>
      </trkpt>
      <trkpt lat="50.71523" lon="2.7972">
        <ele>18.4</ele>
        <time>2017-08-04T12:15:57Z</time>
      </trkpt>
      <trkpt lat="50.71516" lon="2.797">
        <ele>19.84</ele>
        <time>2017-08-04T12:16:01Z</time>
      </trkpt>
      <trkpt lat="50.71501" lon="2.79659">
        <ele>16.48</ele>
        <time>2017-08-04T12:16:09Z</time>
      </trkpt>
      <trkpt lat="50.71476" lon="2.79598">
        <ele>18.88</ele>
        <time>2017-08-04T12:16:25Z</time>
      </trkpt>
      <trkpt lat="50.71467" lon="2.79575">
        <ele>17.92</ele>
        <time>2017-08-04T12:16:31Z</time>
      </trkpt>
      <trkpt lat="50.71455" lon="2.79541">
        <ele>19.36</ele>
        <time>2017-08-04T12:16:40Z</time>
      </trkpt>
      <trkpt lat="50.71432" lon="2.79478">
        <ele>16.96</ele>
        <time>2017-08-04T12:16:56Z</time>
      </trkpt>
      <trkpt lat="50.71422" lon="2.79448">
        <ele>18.4</ele>
        <time>2017-08-04T12:17:04Z</time>
      </trkpt>
      <trkpt lat="50.71416" lon="2.79424">
        <ele>17.44</ele>
        <time>2017-08-04T12:17:10Z</time>
      </trkpt>
      <trkpt lat="50.71409" lon="2.79395">
        <ele>18.88</ele>
        <time>2017-08-04T12:17:17Z</time>
      </trkpt>
      <trkpt lat="50.71407" lon="2.79386">
        <ele>17.44</ele>
        <time>2017-08-04T12:17:19Z</time>
      </trkpt>
      <trkpt lat="50.71401" lon="2.79352">
        <ele>18.88</ele>
        <time>2017-08-04T12:17:27Z</time>
      </trkpt>
      <trkpt lat="50.71385" lon="2.79276">
        <ele>16.96</ele>
        <time>2017-08-04T12:17:45Z</time>
      </trkpt>
      <trkpt lat="50.71384" lon="2.79268">
        <ele>18.4</ele>
        <time>2017-08-04T12:17:47Z</time>
      </trkpt>
      <trkpt lat="50.71369" lon="2.79196">
        <ele>18.4</ele>
        <time>2017-08-04T12:18:04Z</time>
      </trkpt>
      <trkpt lat="50.71353" lon="2.79119">
        <ele>18.4</ele>
        <time>2017-08-04T12:18:22Z</time>
      </trkpt>
      <trkpt lat="50.71339" lon="2.79045">
        <ele>18.4</ele>
        <time>2017-08-04T12:18:38Z</time>
      </trkpt>
      <trkpt lat="50.71316" lon="2.78935">
        <ele>19.36</ele>
        <time>2017-08-04T12:19:00Z</time>
      </trkpt>
      <trkpt lat="50.71298" lon="2.78834">
        <ele>19.36</ele>
        <time>2017-08-04T12:19:20Z</time>
      </trkpt>
      <trkpt lat="50.71296" lon="2.788">
        <ele>20.32</ele>
        <time>2017-08-04T12:19:28Z</time>
      </trkpt>
      <trkpt lat="50.71295" lon="2.78799">
        <ele>20.81</ele>
        <time>2017-08-04T12:19:29Z</time>
      </trkpt>
      <trkpt lat="50.71293" lon="2.788">
        <ele>20.81</ele>
        <time>2017-08-04T12:19:30Z</time>
      </trkpt>
      <trkpt lat="50.71291" lon="2.78801">
        <ele>20.81</ele>
        <time>2017-08-04T12:19:31Z</time>
      </trkpt>
      <trkpt lat="50.71289" lon="2.78802">
        <ele>20.81</ele>
        <time>2017-08-04T12:19:32Z</time>
      </trkpt>
      <trkpt lat="50.71286" lon="2.78802">
        <ele>20.81</ele>
        <time>2017-08-04T12:19:33Z</time>
      </trkpt>
      <trkpt lat="50.71284" lon="2.78803">
        <ele>20.81</ele>
        <time>2017-08-04T12:19:34Z</time>
      </trkpt>
      <trkpt lat="50.71261" lon="2.78831">
        <ele>19.36</ele>
        <time>2017-08-04T12:19:44Z</time>
      </trkpt>
      <trkpt lat="50.71225" lon="2.78919">
        <ele>18.88</ele>
        <time>2017-08-04T12:20:02Z</time>
      </trkpt>
      <trkpt lat="50.71194" lon="2.78994">
        <ele>18.88</ele>
        <time>2017-08-04T12:20:18Z</time>
      </trkpt>
      <trkpt lat="50.71174" lon="2.79046">
        <ele>18.88</ele>
        <time>2017-08-04T12:20:30Z</time>
      </trkpt>
      <trkpt lat="50.71137" lon="2.79142">
        <ele>18.88</ele>
        <time>2017-08-04T12:20:47Z</time>
      </trkpt>
      <trkpt lat="50.71135" lon="2.79147">
        <ele>18.88</ele>
        <time>2017-08-04T12:20:48Z</time>
      </trkpt>
      <trkpt lat="50.71108" lon="2.7922">
        <ele>19.84</ele>
        <time>2017-08-04T12:21:02Z</time>
      </trkpt>
      <trkpt lat="50.71066" lon="2.79332">
        <ele>19.84</ele>
        <time>2017-08-04T12:21:24Z</time>
      </trkpt>
      <trkpt lat="50.71028" lon="2.79428">
        <ele>19.84</ele>
        <time>2017-08-04T12:21:43Z</time>
      </trkpt>
      <trkpt lat="50.70993" lon="2.79516">
        <ele>19.84</ele>
        <time>2017-08-04T12:22:02Z</time>
      </trkpt>
      <trkpt lat="50.70958" lon="2.79598">
        <ele>19.84</ele>
        <time>2017-08-04T12:22:19Z</time>
      </trkpt>
      <trkpt lat="50.70926" lon="2.79682">
        <ele>20.32</ele>
        <time>2017-08-04T12:22:37Z</time>
      </trkpt>
      <trkpt lat="50.70891" lon="2.79772">
        <ele>20.81</ele>
        <time>2017-08-04T12:22:53Z</time>
      </trkpt>
      <trkpt lat="50.70853" lon="2.79869">
        <ele>20.81</ele>
        <time>2017-08-04T12:23:11Z</time>
      </trkpt>
      <trkpt lat="50.70849" lon="2.7988">
        <ele>20.81</ele>
        <time>2017-08-04T12:23:13Z</time>
      </trkpt>
      <trkpt lat="50.70847" lon="2.79885">
        <ele>20.81</ele>
        <time>2017-08-04T12:23:14Z</time>
      </trkpt>
      <trkpt lat="50.70813" lon="2.7997">
        <ele>20.81</ele>
        <time>2017-08-04T12:23:30Z</time>
      </trkpt>
      <trkpt lat="50.70806" lon="2.79986">
        <ele>19.84</ele>
        <time>2017-08-04T12:23:33Z</time>
      </trkpt>
      <trkpt lat="50.70804" lon="2.79993">
        <ele>19.84</ele>
        <time>2017-08-04T12:23:34Z</time>
      </trkpt>
      <trkpt lat="50.70762" lon="2.80099">
        <ele>19.84</ele>
        <time>2017-08-04T12:23:51Z</time>
      </trkpt>
      <trkpt lat="50.70717" lon="2.80213">
        <ele>20.81</ele>
        <time>2017-08-04T12:24:08Z</time>
      </trkpt>
      <trkpt lat="50.70715" lon="2.8022">
        <ele>20.81</ele>
        <time>2017-08-04T12:24:09Z</time>
      </trkpt>
      <trkpt lat="50.70666" lon="2.80346">
        <ele>19.84</ele>
        <time>2017-08-04T12:24:27Z</time>
      </trkpt>
      <trkpt lat="50.70625" lon="2.80452">
        <ele>19.84</ele>
        <time>2017-08-04T12:24:42Z</time>
      </trkpt>
      <trkpt lat="50.7061" lon="2.80492">
        <ele>19.84</ele>
        <time>2017-08-04T12:24:48Z</time>
      </trkpt>
      <trkpt lat="50.70598" lon="2.80525">
        <ele>19.84</ele>
        <time>2017-08-04T12:24:53Z</time>
      </trkpt>
      <trkpt lat="50.70591" lon="2.80543">
        <ele>19.84</ele>
        <time>2017-08-04T12:24:57Z</time>
      </trkpt>
      <trkpt lat="50.70589" lon="2.80543">
        <ele>20.81</ele>
        <time>2017-08-04T12:24:58Z</time>
      </trkpt>
      <trkpt lat="50.70587" lon="2.80543">
        <ele>21.77</ele>
        <time>2017-08-04T12:24:59Z</time>
      </trkpt>
      <trkpt lat="50.70586" lon="2.80542">
        <ele>21.77</ele>
        <time>2017-08-04T12:25:00Z</time>
      </trkpt>
      <trkpt lat="50.70584" lon="2.80541">
        <ele>21.77</ele>
        <time>2017-08-04T12:25:01Z</time>
      </trkpt>
      <trkpt lat="50.70582" lon="2.80539">
        <ele>21.77</ele>
        <time>2017-08-04T12:25:02Z</time>
      </trkpt>
      <trkpt lat="50.7058" lon="2.80537">
        <ele>21.77</ele>
        <time>2017-08-04T12:25:03Z</time>
      </trkpt>
      <trkpt lat="50.70579" lon="2.80536">
        <ele>21.77</ele>
        <time>2017-08-04T12:25:04Z</time>
      </trkpt>
      <trkpt lat="50.70577" lon="2.80534">
        <ele>21.77</ele>
        <time>2017-08-04T12:25:05Z</time>
      </trkpt>
      <trkpt lat="50.70575" lon="2.80532">
        <ele>21.77</ele>
        <time>2017-08-04T12:25:06Z</time>
      </trkpt>
      <trkpt lat="50.70573" lon="2.8053">
        <ele>21.77</ele>
        <time>2017-08-04T12:25:07Z</time>
      </trkpt>
      <trkpt lat="50.7057" lon="2.80527">
        <ele>21.77</ele>
        <time>2017-08-04T12:25:08Z</time>
      </trkpt>
      <trkpt lat="50.70567" lon="2.80524">
        <ele>21.29</ele>
        <time>2017-08-04T12:25:09Z</time>
      </trkpt>
      <trkpt lat="50.70564" lon="2.80521">
        <ele>19.36</ele>
        <time>2017-08-04T12:25:10Z</time>
      </trkpt>
      <trkpt lat="50.70561" lon="2.80518">
        <ele>19.36</ele>
        <time>2017-08-04T12:25:11Z</time>
      </trkpt>
      <trkpt lat="50.70531" lon="2.80488">
        <ele>19.36</ele>
        <time>2017-08-04T12:25:21Z</time>
      </trkpt>
      <trkpt lat="50.70527" lon="2.8049">
        <ele>19.36</ele>
        <time>2017-08-04T12:25:22Z</time>
      </trkpt>
      <trkpt lat="50.70525" lon="2.80494">
        <ele>19.36</ele>
        <time>2017-08-04T12:25:23Z</time>
      </trkpt>
      <trkpt lat="50.70524" lon="2.80498">
        <ele>19.36</ele>
        <time>2017-08-04T12:25:24Z</time>
      </trkpt>
      <trkpt lat="50.70523" lon="2.80504">
        <ele>19.36</ele>
        <time>2017-08-04T12:25:25Z</time>
      </trkpt>
      <trkpt lat="50.70522" lon="2.80509">
        <ele>19.36</ele>
        <time>2017-08-04T12:25:26Z</time>
      </trkpt>
      <trkpt lat="50.70522" lon="2.80515">
        <ele>19.36</ele>
        <time>2017-08-04T12:25:27Z</time>
      </trkpt>
      <trkpt lat="50.70522" lon="2.80521">
        <ele>19.36</ele>
        <time>2017-08-04T12:25:28Z</time>
      </trkpt>
      <trkpt lat="50.70522" lon="2.80597">
        <ele>19.36</ele>
        <time>2017-08-04T12:25:41Z</time>
      </trkpt>
      <trkpt lat="50.70518" lon="2.80661">
        <ele>18.88</ele>
        <time>2017-08-04T12:25:51Z</time>
      </trkpt>
      <trkpt lat="50.70516" lon="2.80667">
        <ele>18.88</ele>
        <time>2017-08-04T12:25:52Z</time>
      </trkpt>
      <trkpt lat="50.70487" lon="2.80741">
        <ele>17.92</ele>
        <time>2017-08-04T12:26:07Z</time>
      </trkpt>
      <trkpt lat="50.70474" lon="2.80762">
        <ele>17.44</ele>
        <time>2017-08-04T12:26:12Z</time>
      </trkpt>
      <trkpt lat="50.70411" lon="2.80801">
        <ele>16.96</ele>
        <time>2017-08-04T12:26:29Z</time>
      </trkpt>
      <trkpt lat="50.7036" lon="2.80833">
        <ele>16.48</ele>
        <time>2017-08-04T12:26:44Z</time>
      </trkpt>
      <trkpt lat="50.70318" lon="2.80866">
        <ele>18.4</ele>
        <time>2017-08-04T12:26:59Z</time>
      </trkpt>
      <trkpt lat="50.70317" lon="2.80866">
        <ele>18.4</ele>
        <time>2017-08-04T12:27:00Z</time>
      </trkpt>
      <trkpt lat="50.70316" lon="2.80866">
        <ele>18.4</ele>
        <time>2017-08-04T12:27:01Z</time>
      </trkpt>
      <trkpt lat="50.7031" lon="2.80866">
        <ele>16.96</ele>
        <time>2017-08-04T12:27:06Z</time>
      </trkpt>
      <trkpt lat="50.70308" lon="2.80868">
        <ele>16.96</ele>
        <time>2017-08-04T12:27:07Z</time>
      </trkpt>
      <trkpt lat="50.70306" lon="2.80869">
        <ele>16.96</ele>
        <time>2017-08-04T12:27:08Z</time>
      </trkpt>
      <trkpt lat="50.70304" lon="2.80871">
        <ele>16.96</ele>
        <time>2017-08-04T12:27:09Z</time>
      </trkpt>
      <trkpt lat="50.70301" lon="2.80873">
        <ele>16.96</ele>
        <time>2017-08-04T12:27:10Z</time>
      </trkpt>
      <trkpt lat="50.70298" lon="2.80875">
        <ele>16.96</ele>
        <time>2017-08-04T12:27:11Z</time>
      </trkpt>
      <trkpt lat="50.70295" lon="2.80876">
        <ele>16.96</ele>
        <time>2017-08-04T12:27:12Z</time>
      </trkpt>
      <trkpt lat="50.70292" lon="2.80878">
        <ele>16.96</ele>
        <time>2017-08-04T12:27:13Z</time>
      </trkpt>
      <trkpt lat="50.70289" lon="2.8088">
        <ele>16.96</ele>
        <time>2017-08-04T12:27:14Z</time>
      </trkpt>
      <trkpt lat="50.70286" lon="2.80881">
        <ele>16.96</ele>
        <time>2017-08-04T12:27:15Z</time>
      </trkpt>
      <trkpt lat="50.70241" lon="2.80891">
        <ele>16</ele>
        <time>2017-08-04T12:27:30Z</time>
      </trkpt>
      <trkpt lat="50.7023" lon="2.80893">
        <ele>17.44</ele>
        <time>2017-08-04T12:27:33Z</time>
      </trkpt>
      <trkpt lat="50.70194" lon="2.80905">
        <ele>17.44</ele>
        <time>2017-08-04T12:27:46Z</time>
      </trkpt>
      <trkpt lat="50.70144" lon="2.80926">
        <ele>17.92</ele>
        <time>2017-08-04T12:28:03Z</time>
      </trkpt>
      <trkpt lat="50.70104" lon="2.8094">
        <ele>16.96</ele>
        <time>2017-08-04T12:28:16Z</time>
      </trkpt>
      <trkpt lat="50.70053" lon="2.80964">
        <ele>16.96</ele>
        <time>2017-08-04T12:28:33Z</time>
      </trkpt>
      <trkpt lat="50.69998" lon="2.8099">
        <ele>17.44</ele>
        <time>2017-08-04T12:28:53Z</time>
      </trkpt>
      <trkpt lat="50.69952" lon="2.81015">
        <ele>18.88</ele>
        <time>2017-08-04T12:29:11Z</time>
      </trkpt>
      <trkpt lat="50.69951" lon="2.81018">
        <ele>18.88</ele>
        <time>2017-08-04T12:29:12Z</time>
      </trkpt>
      <trkpt lat="50.69951" lon="2.81022">
        <ele>18.88</ele>
        <time>2017-08-04T12:29:13Z</time>
      </trkpt>
      <trkpt lat="50.69952" lon="2.81026">
        <ele>18.88</ele>
        <time>2017-08-04T12:29:14Z</time>
      </trkpt>
      <trkpt lat="50.69953" lon="2.81029">
        <ele>18.88</ele>
        <time>2017-08-04T12:29:15Z</time>
      </trkpt>
      <trkpt lat="50.69957" lon="2.81033">
        <ele>18.88</ele>
        <time>2017-08-04T12:29:16Z</time>
      </trkpt>
      <trkpt lat="50.69959" lon="2.81034">
        <ele>18.88</ele>
        <time>2017-08-04T12:29:17Z</time>
      </trkpt>
      <trkpt lat="50.69962" lon="2.81037">
        <ele>18.88</ele>
        <time>2017-08-04T12:29:18Z</time>
      </trkpt>
      <trkpt lat="50.7002" lon="2.81073">
        <ele>18.88</ele>
        <time>2017-08-04T12:29:34Z</time>
      </trkpt>
      <trkpt lat="50.70031" lon="2.81084">
        <ele>17.44</ele>
        <time>2017-08-04T12:29:37Z</time>
      </trkpt>
      <trkpt lat="50.70034" lon="2.81089">
        <ele>17.44</ele>
        <time>2017-08-04T12:29:38Z</time>
      </trkpt>
      <trkpt lat="50.70036" lon="2.81094">
        <ele>17.44</ele>
        <time>2017-08-04T12:29:39Z</time>
      </trkpt>
      <trkpt lat="50.70039" lon="2.81099">
        <ele>17.44</ele>
        <time>2017-08-04T12:29:40Z</time>
      </trkpt>
      <trkpt lat="50.70041" lon="2.81104">
        <ele>17.44</ele>
        <time>2017-08-04T12:29:41Z</time>
      </trkpt>
      <trkpt lat="50.7006" lon="2.81181">
        <ele>18.88</ele>
        <time>2017-08-04T12:29:54Z</time>
      </trkpt>
      <trkpt lat="50.70079" lon="2.81287">
        <ele>18.88</ele>
        <time>2017-08-04T12:30:10Z</time>
      </trkpt>
      <trkpt lat="50.70094" lon="2.81423">
        <ele>18.88</ele>
        <time>2017-08-04T12:30:29Z</time>
      </trkpt>
      <trkpt lat="50.70117" lon="2.81569">
        <ele>17.44</ele>
        <time>2017-08-04T12:30:49Z</time>
      </trkpt>
      <trkpt lat="50.70126" lon="2.81617">
        <ele>17.44</ele>
        <time>2017-08-04T12:30:56Z</time>
      </trkpt>
      <trkpt lat="50.70128" lon="2.81629">
        <ele>18.88</ele>
        <time>2017-08-04T12:30:58Z</time>
      </trkpt>
      <trkpt lat="50.70144" lon="2.81665">
        <ele>20.32</ele>
        <time>2017-08-04T12:31:07Z</time>
      </trkpt>
      <trkpt lat="50.70141" lon="2.81675">
        <ele>4.46</ele>
        <time>2017-08-04T12:35:09Z</time>
      </trkpt>
      <trkpt lat="50.70142" lon="2.81678">
        <ele>4.46</ele>
        <time>2017-08-04T12:35:10Z</time>
      </trkpt>
      <trkpt lat="50.70152" lon="2.81675">
        <ele>5.42</ele>
        <time>2017-08-04T12:35:34Z</time>
      </trkpt>
      <trkpt lat="50.70151" lon="2.81675">
        <ele>8.79</ele>
        <time>2017-08-04T12:35:44Z</time>
      </trkpt>
      <trkpt lat="50.70151" lon="2.81675">
        <ele>11.67</ele>
        <time>2017-08-04T12:35:54Z</time>
      </trkpt>
      <trkpt lat="50.7015" lon="2.81676">
        <ele>15.04</ele>
        <time>2017-08-04T12:36:07Z</time>
      </trkpt>
      <trkpt lat="50.7015" lon="2.81677">
        <ele>18.4</ele>
        <time>2017-08-04T12:36:23Z</time>
      </trkpt>
      <trkpt lat="50.7015" lon="2.81677">
        <ele>19.36</ele>
        <time>2017-08-04T12:36:27Z</time>
      </trkpt>
      <trkpt lat="50.7015" lon="2.81677">
        <ele>18.4</ele>
        <time>2017-08-04T12:36:36Z</time>
      </trkpt>
      <trkpt lat="50.7015" lon="2.81678">
        <ele>20.32</ele>
        <time>2017-08-04T12:36:41Z</time>
      </trkpt>
      <trkpt lat="50.7015" lon="2.81678">
        <ele>22.73</ele>
        <time>2017-08-04T12:37:16Z</time>
      </trkpt>
      <trkpt lat="50.7015" lon="2.81677">
        <ele>20.32</ele>
        <time>2017-08-04T12:37:30Z</time>
      </trkpt>
      <trkpt lat="50.7015" lon="2.81677">
        <ele>21.77</ele>
        <time>2017-08-04T12:37:32Z</time>
      </trkpt>
      <trkpt lat="50.70152" lon="2.81676">
        <ele>22.25</ele>
        <time>2017-08-04T12:37:42Z</time>
      </trkpt>
      <trkpt lat="50.70152" lon="2.81676">
        <ele>22.25</ele>
        <time>2017-08-04T12:37:46Z</time>
      </trkpt>
      <trkpt lat="50.70163" lon="2.81688">
        <ele>20.81</ele>
        <time>2017-08-04T12:37:52Z</time>
      </trkpt>
      <trkpt lat="50.70164" lon="2.81692">
        <ele>20.81</ele>
        <time>2017-08-04T12:37:53Z</time>
      </trkpt>
      <trkpt lat="50.70163" lon="2.81696">
        <ele>20.81</ele>
        <time>2017-08-04T12:37:54Z</time>
      </trkpt>
      <trkpt lat="50.70161" lon="2.81702">
        <ele>19.84</ele>
        <time>2017-08-04T12:37:55Z</time>
      </trkpt>
      <trkpt lat="50.70159" lon="2.81704">
        <ele>19.84</ele>
        <time>2017-08-04T12:37:56Z</time>
      </trkpt>
      <trkpt lat="50.70157" lon="2.81707">
        <ele>19.84</ele>
        <time>2017-08-04T12:37:57Z</time>
      </trkpt>
      <trkpt lat="50.70132" lon="2.8174">
        <ele>19.84</ele>
        <time>2017-08-04T12:38:05Z</time>
      </trkpt>
      <trkpt lat="50.7013" lon="2.81746">
        <ele>19.84</ele>
        <time>2017-08-04T12:38:06Z</time>
      </trkpt>
      <trkpt lat="50.70087" lon="2.81852">
        <ele>18.88</ele>
        <time>2017-08-04T12:38:24Z</time>
      </trkpt>
      <trkpt lat="50.70056" lon="2.81929">
        <ele>20.32</ele>
        <time>2017-08-04T12:38:40Z</time>
      </trkpt>
      <trkpt lat="50.70053" lon="2.81935">
        <ele>20.32</ele>
        <time>2017-08-04T12:38:41Z</time>
      </trkpt>
      <trkpt lat="50.70051" lon="2.8194">
        <ele>20.32</ele>
        <time>2017-08-04T12:38:42Z</time>
      </trkpt>
      <trkpt lat="50.70049" lon="2.81946">
        <ele>20.32</ele>
        <time>2017-08-04T12:38:43Z</time>
      </trkpt>
      <trkpt lat="50.70014" lon="2.8204">
        <ele>20.32</ele>
        <time>2017-08-04T12:39:00Z</time>
      </trkpt>
      <trkpt lat="50.69981" lon="2.82126">
        <ele>21.29</ele>
        <time>2017-08-04T12:39:16Z</time>
      </trkpt>
      <trkpt lat="50.69943" lon="2.82222">
        <ele>19.84</ele>
        <time>2017-08-04T12:39:34Z</time>
      </trkpt>
      <trkpt lat="50.69907" lon="2.82317">
        <ele>19.84</ele>
        <time>2017-08-04T12:39:51Z</time>
      </trkpt>
      <trkpt lat="50.69869" lon="2.82416">
        <ele>19.36</ele>
        <time>2017-08-04T12:40:09Z</time>
      </trkpt>
      <trkpt lat="50.69832" lon="2.82511">
        <ele>19.36</ele>
        <time>2017-08-04T12:40:27Z</time>
      </trkpt>
      <trkpt lat="50.69795" lon="2.82608">
        <ele>18.88</ele>
        <time>2017-08-04T12:40:45Z</time>
      </trkpt>
      <trkpt lat="50.69787" lon="2.82629">
        <ele>18.88</ele>
        <time>2017-08-04T12:40:49Z</time>
      </trkpt>
      <trkpt lat="50.69785" lon="2.82635">
        <ele>18.88</ele>
        <time>2017-08-04T12:40:50Z</time>
      </trkpt>
      <trkpt lat="50.69783" lon="2.8264">
        <ele>18.88</ele>
        <time>2017-08-04T12:40:51Z</time>
      </trkpt>
      <trkpt lat="50.69781" lon="2.82646">
        <ele>18.88</ele>
        <time>2017-08-04T12:40:52Z</time>
      </trkpt>
      <trkpt lat="50.69779" lon="2.82651">
        <ele>18.88</ele>
        <time>2017-08-04T12:40:53Z</time>
      </trkpt>
      <trkpt lat="50.69763" lon="2.82692">
        <ele>20.32</ele>
        <time>2017-08-04T12:41:01Z</time>
      </trkpt>
      <trkpt lat="50.69742" lon="2.82743">
        <ele>20.32</ele>
        <time>2017-08-04T12:41:12Z</time>
      </trkpt>
      <trkpt lat="50.6974" lon="2.82748">
        <ele>20.32</ele>
        <time>2017-08-04T12:41:13Z</time>
      </trkpt>
      <trkpt lat="50.69717" lon="2.8281">
        <ele>20.32</ele>
        <time>2017-08-04T12:41:23Z</time>
      </trkpt>
      <trkpt lat="50.69715" lon="2.82816">
        <ele>20.32</ele>
        <time>2017-08-04T12:41:24Z</time>
      </trkpt>
      <trkpt lat="50.69698" lon="2.82858">
        <ele>20.32</ele>
        <time>2017-08-04T12:41:32Z</time>
      </trkpt>
      <trkpt lat="50.69696" lon="2.8286">
        <ele>20.32</ele>
        <time>2017-08-04T12:41:33Z</time>
      </trkpt>
      <trkpt lat="50.69694" lon="2.82859">
        <ele>20.32</ele>
        <time>2017-08-04T12:41:34Z</time>
      </trkpt>
      <trkpt lat="50.69692" lon="2.82857">
        <ele>20.32</ele>
        <time>2017-08-04T12:41:35Z</time>
      </trkpt>
      <trkpt lat="50.69691" lon="2.82855">
        <ele>20.32</ele>
        <time>2017-08-04T12:41:36Z</time>
      </trkpt>
      <trkpt lat="50.6969" lon="2.82852">
        <ele>20.32</ele>
        <time>2017-08-04T12:41:37Z</time>
      </trkpt>
      <trkpt lat="50.6969" lon="2.8285">
        <ele>20.32</ele>
        <time>2017-08-04T12:41:38Z</time>
      </trkpt>
      <trkpt lat="50.69689" lon="2.82847">
        <ele>20.32</ele>
        <time>2017-08-04T12:41:39Z</time>
      </trkpt>
      <trkpt lat="50.69683" lon="2.82833">
        <ele>20.81</ele>
        <time>2017-08-04T12:41:46Z</time>
      </trkpt>
      <trkpt lat="50.69681" lon="2.82833">
        <ele>20.81</ele>
        <time>2017-08-04T12:41:47Z</time>
      </trkpt>
      <trkpt lat="50.6968" lon="2.82835">
        <ele>20.81</ele>
        <time>2017-08-04T12:41:48Z</time>
      </trkpt>
      <trkpt lat="50.69677" lon="2.82838">
        <ele>19.84</ele>
        <time>2017-08-04T12:41:50Z</time>
      </trkpt>
      <trkpt lat="50.69658" lon="2.82879">
        <ele>19.84</ele>
        <time>2017-08-04T12:42:01Z</time>
      </trkpt>
      <trkpt lat="50.69652" lon="2.82895">
        <ele>19.84</ele>
        <time>2017-08-04T12:42:04Z</time>
      </trkpt>
      <trkpt lat="50.69649" lon="2.82901">
        <ele>18.88</ele>
        <time>2017-08-04T12:42:05Z</time>
      </trkpt>
      <trkpt lat="50.69639" lon="2.82929">
        <ele>18.88</ele>
        <time>2017-08-04T12:42:10Z</time>
      </trkpt>
      <trkpt lat="50.69607" lon="2.83016">
        <ele>19.36</ele>
        <time>2017-08-04T12:42:26Z</time>
      </trkpt>
      <trkpt lat="50.69568" lon="2.83117">
        <ele>20.32</ele>
        <time>2017-08-04T12:42:46Z</time>
      </trkpt>
      <trkpt lat="50.69537" lon="2.83199">
        <ele>19.36</ele>
        <time>2017-08-04T12:43:02Z</time>
      </trkpt>
      <trkpt lat="50.69504" lon="2.83287">
        <ele>19.36</ele>
        <time>2017-08-04T12:43:19Z</time>
      </trkpt>
      <trkpt lat="50.69463" lon="2.83393">
        <ele>18.88</ele>
        <time>2017-08-04T12:43:39Z</time>
      </trkpt>
      <trkpt lat="50.69425" lon="2.83491">
        <ele>18.88</ele>
        <time>2017-08-04T12:43:58Z</time>
      </trkpt>
      <trkpt lat="50.69389" lon="2.83582">
        <ele>17.92</ele>
        <time>2017-08-04T12:44:16Z</time>
      </trkpt>
      <trkpt lat="50.69366" lon="2.83641">
        <ele>17.92</ele>
        <time>2017-08-04T12:44:27Z</time>
      </trkpt>
      <trkpt lat="50.69336" lon="2.83717">
        <ele>17.44</ele>
        <time>2017-08-04T12:44:41Z</time>
      </trkpt>
      <trkpt lat="50.69302" lon="2.83793">
        <ele>16.48</ele>
        <time>2017-08-04T12:44:57Z</time>
      </trkpt>
      <trkpt lat="50.69273" lon="2.8384">
        <ele>15.52</ele>
        <time>2017-08-04T12:45:08Z</time>
      </trkpt>
      <trkpt lat="50.69246" lon="2.83855">
        <ele>16.96</ele>
        <time>2017-08-04T12:45:16Z</time>
      </trkpt>
      <trkpt lat="50.69209" lon="2.839">
        <ele>17.44</ele>
        <time>2017-08-04T12:45:32Z</time>
      </trkpt>
      <trkpt lat="50.69168" lon="2.83959">
        <ele>18.88</ele>
        <time>2017-08-04T12:45:49Z</time>
      </trkpt>
      <trkpt lat="50.69125" lon="2.83986">
        <ele>17.44</ele>
        <time>2017-08-04T12:46:03Z</time>
      </trkpt>
      <trkpt lat="50.69069" lon="2.83969">
        <ele>17.44</ele>
        <time>2017-08-04T12:46:19Z</time>
      </trkpt>
      <trkpt lat="50.69006" lon="2.83946">
        <ele>16</ele>
        <time>2017-08-04T12:46:35Z</time>
      </trkpt>
      <trkpt lat="50.69001" lon="2.83946">
        <ele>17.44</ele>
        <time>2017-08-04T12:46:36Z</time>
      </trkpt>
      <trkpt lat="50.68997" lon="2.83948">
        <ele>17.44</ele>
        <time>2017-08-04T12:46:37Z</time>
      </trkpt>
      <trkpt lat="50.68994" lon="2.83951">
        <ele>17.44</ele>
        <time>2017-08-04T12:46:38Z</time>
      </trkpt>
      <trkpt lat="50.6899" lon="2.83955">
        <ele>17.44</ele>
        <time>2017-08-04T12:46:39Z</time>
      </trkpt>
      <trkpt lat="50.68987" lon="2.83959">
        <ele>17.44</ele>
        <time>2017-08-04T12:46:40Z</time>
      </trkpt>
      <trkpt lat="50.68983" lon="2.83964">
        <ele>17.44</ele>
        <time>2017-08-04T12:46:41Z</time>
      </trkpt>
      <trkpt lat="50.68958" lon="2.83998">
        <ele>17.92</ele>
        <time>2017-08-04T12:46:48Z</time>
      </trkpt>
      <trkpt lat="50.68898" lon="2.84057">
        <ele>17.92</ele>
        <time>2017-08-04T12:47:05Z</time>
      </trkpt>
      <trkpt lat="50.68896" lon="2.84053">
        <ele>17.92</ele>
        <time>2017-08-04T12:47:06Z</time>
      </trkpt>
      <trkpt lat="50.68894" lon="2.84049">
        <ele>17.92</ele>
        <time>2017-08-04T12:47:07Z</time>
      </trkpt>
      <trkpt lat="50.68866" lon="2.83964">
        <ele>18.88</ele>
        <time>2017-08-04T12:47:25Z</time>
      </trkpt>
      <trkpt lat="50.68848" lon="2.83909">
        <ele>17.44</ele>
        <time>2017-08-04T12:47:37Z</time>
      </trkpt>
      <trkpt lat="50.68842" lon="2.83892">
        <ele>18.88</ele>
        <time>2017-08-04T12:47:41Z</time>
      </trkpt>
      <trkpt lat="50.6883" lon="2.83858">
        <ele>17.44</ele>
        <time>2017-08-04T12:47:48Z</time>
      </trkpt>
      <trkpt lat="50.68804" lon="2.83767">
        <ele>17.44</ele>
        <time>2017-08-04T12:48:05Z</time>
      </trkpt>
      <trkpt lat="50.68782" lon="2.83659">
        <ele>17.44</ele>
        <time>2017-08-04T12:48:24Z</time>
      </trkpt>
      <trkpt lat="50.68764" lon="2.83568">
        <ele>18.4</ele>
        <time>2017-08-04T12:48:40Z</time>
      </trkpt>
      <trkpt lat="50.68744" lon="2.83473">
        <ele>18.4</ele>
        <time>2017-08-04T12:48:57Z</time>
      </trkpt>
      <trkpt lat="50.68721" lon="2.83396">
        <ele>18.4</ele>
        <time>2017-08-04T12:49:13Z</time>
      </trkpt>
      <trkpt lat="50.68698" lon="2.8331">
        <ele>18.88</ele>
        <time>2017-08-04T12:49:30Z</time>
      </trkpt>
      <trkpt lat="50.68701" lon="2.83267">
        <ele>22.25</ele>
        <time>2017-08-04T12:49:42Z</time>
      </trkpt>
      <trkpt lat="50.68726" lon="2.83229">
        <ele>24.65</ele>
        <time>2017-08-04T12:49:57Z</time>
      </trkpt>
      <trkpt lat="50.68737" lon="2.83208">
        <ele>24.65</ele>
        <time>2017-08-04T12:50:05Z</time>
      </trkpt>
      <trkpt lat="50.68737" lon="2.83203">
        <ele>25.13</ele>
        <time>2017-08-04T12:50:06Z</time>
      </trkpt>
      <trkpt lat="50.68736" lon="2.832">
        <ele>25.13</ele>
        <time>2017-08-04T12:50:07Z</time>
      </trkpt>
      <trkpt lat="50.68733" lon="2.83196">
        <ele>25.13</ele>
        <time>2017-08-04T12:50:08Z</time>
      </trkpt>
      <trkpt lat="50.68731" lon="2.83193">
        <ele>25.13</ele>
        <time>2017-08-04T12:50:09Z</time>
      </trkpt>
      <trkpt lat="50.68729" lon="2.83193">
        <ele>25.61</ele>
        <time>2017-08-04T12:50:10Z</time>
      </trkpt>
      <trkpt lat="50.68726" lon="2.83192">
        <ele>25.61</ele>
        <time>2017-08-04T12:50:11Z</time>
      </trkpt>
      <trkpt lat="50.68724" lon="2.83192">
        <ele>25.61</ele>
        <time>2017-08-04T12:50:12Z</time>
      </trkpt>
      <trkpt lat="50.6872" lon="2.83192">
        <ele>25.61</ele>
        <time>2017-08-04T12:50:13Z</time>
      </trkpt>
      <trkpt lat="50.68718" lon="2.83192">
        <ele>26.09</ele>
        <time>2017-08-04T12:50:14Z</time>
      </trkpt>
      <trkpt lat="50.68665" lon="2.83181">
        <ele>26.57</ele>
        <time>2017-08-04T12:50:32Z</time>
      </trkpt>
      <trkpt lat="50.68616" lon="2.83184">
        <ele>23.69</ele>
        <time>2017-08-04T12:50:45Z</time>
      </trkpt>
      <trkpt lat="50.68613" lon="2.83188">
        <ele>23.69</ele>
        <time>2017-08-04T12:50:46Z</time>
      </trkpt>
      <trkpt lat="50.6861" lon="2.83194">
        <ele>23.69</ele>
        <time>2017-08-04T12:50:47Z</time>
      </trkpt>
      <trkpt lat="50.68608" lon="2.83199">
        <ele>23.69</ele>
        <time>2017-08-04T12:50:48Z</time>
      </trkpt>
      <trkpt lat="50.68601" lon="2.8322">
        <ele>22.73</ele>
        <time>2017-08-04T12:50:51Z</time>
      </trkpt>
      <trkpt lat="50.68598" lon="2.83226">
        <ele>23.21</ele>
        <time>2017-08-04T12:50:52Z</time>
      </trkpt>
      <trkpt lat="50.68594" lon="2.83233">
        <ele>22.25</ele>
        <time>2017-08-04T12:50:53Z</time>
      </trkpt>
      <trkpt lat="50.68563" lon="2.83284">
        <ele>18.4</ele>
        <time>2017-08-04T12:51:00Z</time>
      </trkpt>
      <trkpt lat="50.68557" lon="2.83292">
        <ele>17.92</ele>
        <time>2017-08-04T12:51:01Z</time>
      </trkpt>
      <trkpt lat="50.68551" lon="2.83298">
        <ele>16.96</ele>
        <time>2017-08-04T12:51:02Z</time>
      </trkpt>
      <trkpt lat="50.68545" lon="2.83305">
        <ele>16.96</ele>
        <time>2017-08-04T12:51:03Z</time>
      </trkpt>
      <trkpt lat="50.68524" lon="2.8332">
        <ele>16.96</ele>
        <time>2017-08-04T12:51:06Z</time>
      </trkpt>
      <trkpt lat="50.68439" lon="2.83369">
        <ele>16.96</ele>
        <time>2017-08-04T12:51:21Z</time>
      </trkpt>
      <trkpt lat="50.68417" lon="2.83385">
        <ele>18.88</ele>
        <time>2017-08-04T12:51:26Z</time>
      </trkpt>
      <trkpt lat="50.68371" lon="2.83423">
        <ele>17.44</ele>
        <time>2017-08-04T12:51:37Z</time>
      </trkpt>
      <trkpt lat="50.68288" lon="2.83487">
        <ele>17.44</ele>
        <time>2017-08-04T12:51:56Z</time>
      </trkpt>
      <trkpt lat="50.68187" lon="2.83557">
        <ele>16.48</ele>
        <time>2017-08-04T12:52:17Z</time>
      </trkpt>
      <trkpt lat="50.68092" lon="2.83604">
        <ele>14.56</ele>
        <time>2017-08-04T12:52:36Z</time>
      </trkpt>
      <trkpt lat="50.6801" lon="2.83646">
        <ele>14.56</ele>
        <time>2017-08-04T12:52:53Z</time>
      </trkpt>
      <trkpt lat="50.67949" lon="2.83675">
        <ele>14.56</ele>
        <time>2017-08-04T12:53:09Z</time>
      </trkpt>
      <trkpt lat="50.67909" lon="2.83672">
        <ele>14.56</ele>
        <time>2017-08-04T12:53:21Z</time>
      </trkpt>
      <trkpt lat="50.679" lon="2.83679">
        <ele>15.04</ele>
        <time>2017-08-04T12:53:26Z</time>
      </trkpt>
      <trkpt lat="50.67898" lon="2.83681">
        <ele>16</ele>
        <time>2017-08-04T12:53:38Z</time>
      </trkpt>
      <trkpt lat="50.67896" lon="2.83687">
        <ele>16</ele>
        <time>2017-08-04T12:53:51Z</time>
      </trkpt>
      <trkpt lat="50.67895" lon="2.83696">
        <ele>16</ele>
        <time>2017-08-04T12:53:53Z</time>
      </trkpt>
      <trkpt lat="50.67894" lon="2.8371">
        <ele>16</ele>
        <time>2017-08-04T12:53:56Z</time>
      </trkpt>
      <trkpt lat="50.67891" lon="2.83714">
        <ele>16</ele>
        <time>2017-08-04T12:53:57Z</time>
      </trkpt>
      <trkpt lat="50.67889" lon="2.83717">
        <ele>16</ele>
        <time>2017-08-04T12:53:58Z</time>
      </trkpt>
      <trkpt lat="50.67885" lon="2.83719">
        <ele>16</ele>
        <time>2017-08-04T12:53:59Z</time>
      </trkpt>
      <trkpt lat="50.67882" lon="2.83721">
        <ele>16</ele>
        <time>2017-08-04T12:54:00Z</time>
      </trkpt>
      <trkpt lat="50.6786" lon="2.83735">
        <ele>16</ele>
        <time>2017-08-04T12:54:11Z</time>
      </trkpt>
      <trkpt lat="50.67874" lon="2.83727">
        <ele>16</ele>
        <time>2017-08-04T12:54:18Z</time>
      </trkpt>
      <trkpt lat="50.679" lon="2.83708">
        <ele>16.96</ele>
        <time>2017-08-04T12:54:29Z</time>
      </trkpt>
      <trkpt lat="50.67899" lon="2.83707">
        <ele>16.96</ele>
        <time>2017-08-04T12:54:40Z</time>
      </trkpt>
      <trkpt lat="50.679" lon="2.83705">
        <ele>16.96</ele>
        <time>2017-08-04T12:55:22Z</time>
      </trkpt>
      <trkpt lat="50.67898" lon="2.83709">
        <ele>16.48</ele>
        <time>2017-08-04T12:55:49Z</time>
      </trkpt>
      <trkpt lat="50.67899" lon="2.83708">
        <ele>17.44</ele>
        <time>2017-08-04T12:55:57Z</time>
      </trkpt>
      <trkpt lat="50.67899" lon="2.83708">
        <ele>16</ele>
        <time>2017-08-04T12:55:59Z</time>
      </trkpt>
      <trkpt lat="50.679" lon="2.83706">
        <ele>16</ele>
        <time>2017-08-04T12:56:07Z</time>
      </trkpt>
      <trkpt lat="50.679" lon="2.83703">
        <ele>15.04</ele>
        <time>2017-08-04T12:56:08Z</time>
      </trkpt>
      <trkpt lat="50.67897" lon="2.83683">
        <ele>15.04</ele>
        <time>2017-08-04T12:56:13Z</time>
      </trkpt>
      <trkpt lat="50.67895" lon="2.8368">
        <ele>15.04</ele>
        <time>2017-08-04T12:56:14Z</time>
      </trkpt>
      <trkpt lat="50.67892" lon="2.83678">
        <ele>14.56</ele>
        <time>2017-08-04T12:56:15Z</time>
      </trkpt>
      <trkpt lat="50.67858" lon="2.83636">
        <ele>14.56</ele>
        <time>2017-08-04T12:56:30Z</time>
      </trkpt>
      <trkpt lat="50.6784" lon="2.83614">
        <ele>16</ele>
        <time>2017-08-04T12:56:38Z</time>
      </trkpt>
      <trkpt lat="50.67801" lon="2.83568">
        <ele>18.4</ele>
        <time>2017-08-04T12:56:56Z</time>
      </trkpt>
      <trkpt lat="50.67751" lon="2.83528">
        <ele>19.84</ele>
        <time>2017-08-04T12:57:16Z</time>
      </trkpt>
      <trkpt lat="50.67689" lon="2.83491">
        <ele>18.4</ele>
        <time>2017-08-04T12:57:35Z</time>
      </trkpt>
      <trkpt lat="50.67643" lon="2.83462">
        <ele>17.92</ele>
        <time>2017-08-04T12:57:47Z</time>
      </trkpt>
      <trkpt lat="50.67576" lon="2.83418">
        <ele>16.96</ele>
        <time>2017-08-04T12:58:02Z</time>
      </trkpt>
      <trkpt lat="50.67567" lon="2.83408">
        <ele>16.48</ele>
        <time>2017-08-04T12:58:04Z</time>
      </trkpt>
      <trkpt lat="50.67564" lon="2.83405">
        <ele>16.48</ele>
        <time>2017-08-04T12:58:05Z</time>
      </trkpt>
      <trkpt lat="50.67561" lon="2.834">
        <ele>16.48</ele>
        <time>2017-08-04T12:58:06Z</time>
      </trkpt>
      <trkpt lat="50.67555" lon="2.83387">
        <ele>16.48</ele>
        <time>2017-08-04T12:58:08Z</time>
      </trkpt>
      <trkpt lat="50.67552" lon="2.83374">
        <ele>16.48</ele>
        <time>2017-08-04T12:58:10Z</time>
      </trkpt>
      <trkpt lat="50.67551" lon="2.83366">
        <ele>16.48</ele>
        <time>2017-08-04T12:58:11Z</time>
      </trkpt>
      <trkpt lat="50.67548" lon="2.83353">
        <ele>16</ele>
        <time>2017-08-04T12:58:13Z</time>
      </trkpt>
      <trkpt lat="50.67542" lon="2.83343">
        <ele>16</ele>
        <time>2017-08-04T12:58:15Z</time>
      </trkpt>
      <trkpt lat="50.67539" lon="2.83339">
        <ele>16</ele>
        <time>2017-08-04T12:58:16Z</time>
      </trkpt>
      <trkpt lat="50.6753" lon="2.83337">
        <ele>16</ele>
        <time>2017-08-04T12:58:18Z</time>
      </trkpt>
      <trkpt lat="50.67522" lon="2.83339">
        <ele>16</ele>
        <time>2017-08-04T12:58:20Z</time>
      </trkpt>
      <trkpt lat="50.67518" lon="2.83342">
        <ele>16</ele>
        <time>2017-08-04T12:58:21Z</time>
      </trkpt>
      <trkpt lat="50.67514" lon="2.83346">
        <ele>16</ele>
        <time>2017-08-04T12:58:22Z</time>
      </trkpt>
      <trkpt lat="50.67511" lon="2.83351">
        <ele>16.96</ele>
        <time>2017-08-04T12:58:23Z</time>
      </trkpt>
      <trkpt lat="50.67504" lon="2.8337">
        <ele>16.96</ele>
        <time>2017-08-04T12:58:26Z</time>
      </trkpt>
      <trkpt lat="50.67499" lon="2.83382">
        <ele>16.96</ele>
        <time>2017-08-04T12:58:28Z</time>
      </trkpt>
      <trkpt lat="50.67489" lon="2.83391">
        <ele>16.96</ele>
        <time>2017-08-04T12:58:31Z</time>
      </trkpt>
      <trkpt lat="50.6748" lon="2.83397">
        <ele>16.96</ele>
        <time>2017-08-04T12:58:33Z</time>
      </trkpt>
      <trkpt lat="50.67395" lon="2.83447">
        <ele>16</ele>
        <time>2017-08-04T12:58:53Z</time>
      </trkpt>
      <trkpt lat="50.67318" lon="2.83495">
        <ele>15.52</ele>
        <time>2017-08-04T12:59:10Z</time>
      </trkpt>
      <trkpt lat="50.67308" lon="2.83501">
        <ele>16.48</ele>
        <time>2017-08-04T12:59:12Z</time>
      </trkpt>
      <trkpt lat="50.67212" lon="2.83563">
        <ele>17.92</ele>
        <time>2017-08-04T12:59:33Z</time>
      </trkpt>
      <trkpt lat="50.67141" lon="2.83612">
        <ele>16.48</ele>
        <time>2017-08-04T12:59:48Z</time>
      </trkpt>
      <trkpt lat="50.67066" lon="2.83668">
        <ele>17.92</ele>
        <time>2017-08-04T13:00:05Z</time>
      </trkpt>
      <trkpt lat="50.67037" lon="2.83698">
        <ele>16.96</ele>
        <time>2017-08-04T13:00:13Z</time>
      </trkpt>
      <trkpt lat="50.67018" lon="2.83726">
        <ele>17.92</ele>
        <time>2017-08-04T13:00:19Z</time>
      </trkpt>
      <trkpt lat="50.67004" lon="2.83748">
        <ele>17.92</ele>
        <time>2017-08-04T13:00:23Z</time>
      </trkpt>
      <trkpt lat="50.66981" lon="2.83798">
        <ele>18.4</ele>
        <time>2017-08-04T13:00:31Z</time>
      </trkpt>
      <trkpt lat="50.66978" lon="2.83811">
        <ele>18.4</ele>
        <time>2017-08-04T13:00:33Z</time>
      </trkpt>
      <trkpt lat="50.66968" lon="2.83849">
        <ele>18.4</ele>
        <time>2017-08-04T13:00:38Z</time>
      </trkpt>
      <trkpt lat="50.66968" lon="2.83858">
        <ele>18.4</ele>
        <time>2017-08-04T13:00:39Z</time>
      </trkpt>
      <trkpt lat="50.66969" lon="2.83865">
        <ele>18.4</ele>
        <time>2017-08-04T13:00:40Z</time>
      </trkpt>
      <trkpt lat="50.6697" lon="2.83872">
        <ele>18.4</ele>
        <time>2017-08-04T13:00:41Z</time>
      </trkpt>
      <trkpt lat="50.66972" lon="2.8388">
        <ele>18.4</ele>
        <time>2017-08-04T13:00:42Z</time>
      </trkpt>
      <trkpt lat="50.66979" lon="2.83896">
        <ele>18.4</ele>
        <time>2017-08-04T13:00:46Z</time>
      </trkpt>
      <trkpt lat="50.67002" lon="2.83954">
        <ele>18.4</ele>
        <time>2017-08-04T13:00:59Z</time>
      </trkpt>
      <trkpt lat="50.6701" lon="2.83975">
        <ele>18.4</ele>
        <time>2017-08-04T13:01:03Z</time>
      </trkpt>
      <trkpt lat="50.67036" lon="2.84045">
        <ele>18.4</ele>
        <time>2017-08-04T13:01:16Z</time>
      </trkpt>
      <trkpt lat="50.67072" lon="2.84137">
        <ele>18.4</ele>
        <time>2017-08-04T13:01:33Z</time>
      </trkpt>
      <trkpt lat="50.67084" lon="2.84168">
        <ele>18.4</ele>
        <time>2017-08-04T13:01:39Z</time>
      </trkpt>
      <trkpt lat="50.67092" lon="2.84193">
        <ele>18.4</ele>
        <time>2017-08-04T13:01:43Z</time>
      </trkpt>
      <trkpt lat="50.67097" lon="2.84205">
        <ele>18.4</ele>
        <time>2017-08-04T13:01:45Z</time>
      </trkpt>
      <trkpt lat="50.6711" lon="2.84246">
        <ele>18.4</ele>
        <time>2017-08-04T13:01:52Z</time>
      </trkpt>
      <trkpt lat="50.67121" lon="2.84267">
        <ele>18.4</ele>
        <time>2017-08-04T13:01:56Z</time>
      </trkpt>
      <trkpt lat="50.67156" lon="2.84369">
        <ele>18.4</ele>
        <time>2017-08-04T13:02:13Z</time>
      </trkpt>
      <trkpt lat="50.67177" lon="2.84428">
        <ele>17.92</ele>
        <time>2017-08-04T13:02:23Z</time>
      </trkpt>
      <trkpt lat="50.67212" lon="2.84525">
        <ele>16.96</ele>
        <time>2017-08-04T13:02:40Z</time>
      </trkpt>
      <trkpt lat="50.67217" lon="2.84542">
        <ele>16.96</ele>
        <time>2017-08-04T13:02:44Z</time>
      </trkpt>
      <trkpt lat="50.67222" lon="2.84548">
        <ele>16.96</ele>
        <time>2017-08-04T13:02:48Z</time>
      </trkpt>
      <trkpt lat="50.67224" lon="2.84556">
        <ele>16.96</ele>
        <time>2017-08-04T13:02:51Z</time>
      </trkpt>
      <trkpt lat="50.67225" lon="2.84559">
        <ele>16.96</ele>
        <time>2017-08-04T13:02:52Z</time>
      </trkpt>
      <trkpt lat="50.67226" lon="2.84562">
        <ele>16.96</ele>
        <time>2017-08-04T13:02:53Z</time>
      </trkpt>
      <trkpt lat="50.67228" lon="2.84565">
        <ele>16.96</ele>
        <time>2017-08-04T13:02:54Z</time>
      </trkpt>
      <trkpt lat="50.6723" lon="2.84568">
        <ele>16.96</ele>
        <time>2017-08-04T13:02:55Z</time>
      </trkpt>
      <trkpt lat="50.67241" lon="2.84606">
        <ele>17.92</ele>
        <time>2017-08-04T13:03:02Z</time>
      </trkpt>
      <trkpt lat="50.67245" lon="2.84618">
        <ele>16.96</ele>
        <time>2017-08-04T13:03:04Z</time>
      </trkpt>
      <trkpt lat="50.67247" lon="2.84624">
        <ele>16.96</ele>
        <time>2017-08-04T13:03:05Z</time>
      </trkpt>
      <trkpt lat="50.67253" lon="2.84636">
        <ele>16.48</ele>
        <time>2017-08-04T13:03:07Z</time>
      </trkpt>
      <trkpt lat="50.67271" lon="2.84684">
        <ele>16.48</ele>
        <time>2017-08-04T13:03:15Z</time>
      </trkpt>
      <trkpt lat="50.67281" lon="2.84708">
        <ele>17.92</ele>
        <time>2017-08-04T13:03:24Z</time>
      </trkpt>
      <trkpt lat="50.67281" lon="2.84707">
        <ele>17.44</ele>
        <time>2017-08-04T13:03:43Z</time>
      </trkpt>
      <trkpt lat="50.67281" lon="2.84709">
        <ele>17.44</ele>
        <time>2017-08-04T13:04:15Z</time>
      </trkpt>
      <trkpt lat="50.6728" lon="2.84711">
        <ele>17.44</ele>
        <time>2017-08-04T13:04:48Z</time>
      </trkpt>
      <trkpt lat="50.67288" lon="2.84734">
        <ele>17.44</ele>
        <time>2017-08-04T13:04:55Z</time>
      </trkpt>
      <trkpt lat="50.67296" lon="2.8476">
        <ele>17.44</ele>
        <time>2017-08-04T13:04:59Z</time>
      </trkpt>
      <trkpt lat="50.67307" lon="2.84783">
        <ele>17.44</ele>
        <time>2017-08-04T13:05:03Z</time>
      </trkpt>
      <trkpt lat="50.67312" lon="2.84797">
        <ele>16.48</ele>
        <time>2017-08-04T13:05:05Z</time>
      </trkpt>
      <trkpt lat="50.67328" lon="2.84837">
        <ele>16</ele>
        <time>2017-08-04T13:05:11Z</time>
      </trkpt>
      <trkpt lat="50.67334" lon="2.84857">
        <ele>16</ele>
        <time>2017-08-04T13:05:14Z</time>
      </trkpt>
      <trkpt lat="50.67347" lon="2.84888">
        <ele>16</ele>
        <time>2017-08-04T13:05:19Z</time>
      </trkpt>
      <trkpt lat="50.67361" lon="2.84928">
        <ele>16</ele>
        <time>2017-08-04T13:05:25Z</time>
      </trkpt>
      <trkpt lat="50.67375" lon="2.84969">
        <ele>16</ele>
        <time>2017-08-04T13:05:31Z</time>
      </trkpt>
      <trkpt lat="50.67386" lon="2.84999">
        <ele>15.52</ele>
        <time>2017-08-04T13:05:36Z</time>
      </trkpt>
      <trkpt lat="50.67398" lon="2.85048">
        <ele>14.56</ele>
        <time>2017-08-04T13:05:49Z</time>
      </trkpt>
      <trkpt lat="50.67398" lon="2.85051">
        <ele>14.56</ele>
        <time>2017-08-04T13:05:50Z</time>
      </trkpt>
      <trkpt lat="50.67396" lon="2.85058">
        <ele>14.56</ele>
        <time>2017-08-04T13:05:52Z</time>
      </trkpt>
      <trkpt lat="50.67395" lon="2.85059">
        <ele>14.56</ele>
        <time>2017-08-04T13:05:53Z</time>
      </trkpt>
      <trkpt lat="50.67392" lon="2.85061">
        <ele>13.6</ele>
        <time>2017-08-04T13:05:54Z</time>
      </trkpt>
      <trkpt lat="50.67389" lon="2.85062">
        <ele>13.6</ele>
        <time>2017-08-04T13:05:55Z</time>
      </trkpt>
      <trkpt lat="50.67328" lon="2.851">
        <ele>12.15</ele>
        <time>2017-08-04T13:06:10Z</time>
      </trkpt>
      <trkpt lat="50.67277" lon="2.85171">
        <ele>14.56</ele>
        <time>2017-08-04T13:06:25Z</time>
      </trkpt>
      <trkpt lat="50.67232" lon="2.85241">
        <ele>15.04</ele>
        <time>2017-08-04T13:06:40Z</time>
      </trkpt>
      <trkpt lat="50.6716" lon="2.85347">
        <ele>15.52</ele>
        <time>2017-08-04T13:07:02Z</time>
      </trkpt>
      <trkpt lat="50.67133" lon="2.8539">
        <ele>14.08</ele>
        <time>2017-08-04T13:07:10Z</time>
      </trkpt>
      <trkpt lat="50.67061" lon="2.85485">
        <ele>14.08</ele>
        <time>2017-08-04T13:07:29Z</time>
      </trkpt>
      <trkpt lat="50.66985" lon="2.8555">
        <ele>16.48</ele>
        <time>2017-08-04T13:07:47Z</time>
      </trkpt>
      <trkpt lat="50.66931" lon="2.85641">
        <ele>15.04</ele>
        <time>2017-08-04T13:08:03Z</time>
      </trkpt>
      <trkpt lat="50.66927" lon="2.85646">
        <ele>15.04</ele>
        <time>2017-08-04T13:08:04Z</time>
      </trkpt>
      <trkpt lat="50.66856" lon="2.85708">
        <ele>15.04</ele>
        <time>2017-08-04T13:08:21Z</time>
      </trkpt>
      <trkpt lat="50.66807" lon="2.85742">
        <ele>16.48</ele>
        <time>2017-08-04T13:08:32Z</time>
      </trkpt>
      <trkpt lat="50.66794" lon="2.8575">
        <ele>15.04</ele>
        <time>2017-08-04T13:08:35Z</time>
      </trkpt>
      <trkpt lat="50.66757" lon="2.85766">
        <ele>16</ele>
        <time>2017-08-04T13:08:44Z</time>
      </trkpt>
      <trkpt lat="50.6675" lon="2.85768">
        <ele>13.12</ele>
        <time>2017-08-04T13:08:46Z</time>
      </trkpt>
      <trkpt lat="50.66682" lon="2.85791">
        <ele>16</ele>
        <time>2017-08-04T13:09:04Z</time>
      </trkpt>
      <trkpt lat="50.66666" lon="2.85797">
        <ele>15.04</ele>
        <time>2017-08-04T13:09:08Z</time>
      </trkpt>
      <trkpt lat="50.66654" lon="2.85802">
        <ele>16</ele>
        <time>2017-08-04T13:09:11Z</time>
      </trkpt>
      <trkpt lat="50.66569" lon="2.85849">
        <ele>15.04</ele>
        <time>2017-08-04T13:09:32Z</time>
      </trkpt>
      <trkpt lat="50.66503" lon="2.85902">
        <ele>17.44</ele>
        <time>2017-08-04T13:09:48Z</time>
      </trkpt>
      <trkpt lat="50.66491" lon="2.85913">
        <ele>15.52</ele>
        <time>2017-08-04T13:09:51Z</time>
      </trkpt>
      <trkpt lat="50.6642" lon="2.85948">
        <ele>14.56</ele>
        <time>2017-08-04T13:10:06Z</time>
      </trkpt>
      <trkpt lat="50.66396" lon="2.85953">
        <ele>15.52</ele>
        <time>2017-08-04T13:10:11Z</time>
      </trkpt>
      <trkpt lat="50.66314" lon="2.85963">
        <ele>16</ele>
        <time>2017-08-04T13:10:28Z</time>
      </trkpt>
      <trkpt lat="50.66258" lon="2.85977">
        <ele>16.48</ele>
        <time>2017-08-04T13:10:41Z</time>
      </trkpt>
      <trkpt lat="50.66254" lon="2.85979">
        <ele>16</ele>
        <time>2017-08-04T13:10:42Z</time>
      </trkpt>
      <trkpt lat="50.6625" lon="2.85982">
        <ele>16</ele>
        <time>2017-08-04T13:10:43Z</time>
      </trkpt>
      <trkpt lat="50.66246" lon="2.85984">
        <ele>16</ele>
        <time>2017-08-04T13:10:44Z</time>
      </trkpt>
      <trkpt lat="50.66242" lon="2.85986">
        <ele>16</ele>
        <time>2017-08-04T13:10:45Z</time>
      </trkpt>
      <trkpt lat="50.66167" lon="2.8603">
        <ele>16</ele>
        <time>2017-08-04T13:11:03Z</time>
      </trkpt>
      <trkpt lat="50.66105" lon="2.86065">
        <ele>16</ele>
        <time>2017-08-04T13:11:20Z</time>
      </trkpt>
      <trkpt lat="50.66069" lon="2.86079">
        <ele>16</ele>
        <time>2017-08-04T13:11:31Z</time>
      </trkpt>
      <trkpt lat="50.66067" lon="2.86075">
        <ele>16</ele>
        <time>2017-08-04T13:11:32Z</time>
      </trkpt>
      <trkpt lat="50.66066" lon="2.86072">
        <ele>16</ele>
        <time>2017-08-04T13:11:33Z</time>
      </trkpt>
      <trkpt lat="50.66064" lon="2.86067">
        <ele>16</ele>
        <time>2017-08-04T13:11:34Z</time>
      </trkpt>
      <trkpt lat="50.66063" lon="2.86063">
        <ele>16</ele>
        <time>2017-08-04T13:11:35Z</time>
      </trkpt>
      <trkpt lat="50.66062" lon="2.86058">
        <ele>16</ele>
        <time>2017-08-04T13:11:36Z</time>
      </trkpt>
      <trkpt lat="50.66059" lon="2.86045">
        <ele>15.04</ele>
        <time>2017-08-04T13:11:39Z</time>
      </trkpt>
      <trkpt lat="50.66057" lon="2.86035">
        <ele>16.48</ele>
        <time>2017-08-04T13:11:41Z</time>
      </trkpt>
      <trkpt lat="50.6603" lon="2.85957">
        <ele>16.48</ele>
        <time>2017-08-04T13:11:59Z</time>
      </trkpt>
      <trkpt lat="50.65996" lon="2.85892">
        <ele>16.96</ele>
        <time>2017-08-04T13:12:15Z</time>
      </trkpt>
      <trkpt lat="50.65978" lon="2.85865">
        <ele>15.52</ele>
        <time>2017-08-04T13:12:22Z</time>
      </trkpt>
      <trkpt lat="50.65966" lon="2.85865">
        <ele>15.52</ele>
        <time>2017-08-04T13:12:25Z</time>
      </trkpt>
      <trkpt lat="50.65964" lon="2.85868">
        <ele>16.48</ele>
        <time>2017-08-04T13:12:26Z</time>
      </trkpt>
      <trkpt lat="50.65963" lon="2.85872">
        <ele>16.96</ele>
        <time>2017-08-04T13:12:27Z</time>
      </trkpt>
      <trkpt lat="50.65962" lon="2.85876">
        <ele>16.96</ele>
        <time>2017-08-04T13:12:28Z</time>
      </trkpt>
      <trkpt lat="50.65962" lon="2.85883">
        <ele>17.44</ele>
        <time>2017-08-04T13:12:29Z</time>
      </trkpt>
      <trkpt lat="50.65966" lon="2.85939">
        <ele>17.44</ele>
        <time>2017-08-04T13:12:39Z</time>
      </trkpt>
      <trkpt lat="50.65979" lon="2.85986">
        <ele>17.44</ele>
        <time>2017-08-04T13:12:47Z</time>
      </trkpt>
      <trkpt lat="50.65981" lon="2.85994">
        <ele>17.44</ele>
        <time>2017-08-04T13:12:48Z</time>
      </trkpt>
      <trkpt lat="50.65981" lon="2.85999">
        <ele>17.44</ele>
        <time>2017-08-04T13:12:49Z</time>
      </trkpt>
      <trkpt lat="50.6598" lon="2.86008">
        <ele>17.44</ele>
        <time>2017-08-04T13:12:50Z</time>
      </trkpt>
      <trkpt lat="50.65979" lon="2.86014">
        <ele>17.44</ele>
        <time>2017-08-04T13:12:51Z</time>
      </trkpt>
      <trkpt lat="50.65977" lon="2.8602">
        <ele>17.44</ele>
        <time>2017-08-04T13:12:52Z</time>
      </trkpt>
      <trkpt lat="50.65974" lon="2.86027">
        <ele>17.44</ele>
        <time>2017-08-04T13:12:53Z</time>
      </trkpt>
      <trkpt lat="50.65973" lon="2.86035">
        <ele>17.44</ele>
        <time>2017-08-04T13:12:54Z</time>
      </trkpt>
      <trkpt lat="50.65968" lon="2.86051">
        <ele>16</ele>
        <time>2017-08-04T13:12:56Z</time>
      </trkpt>
      <trkpt lat="50.65966" lon="2.86058">
        <ele>16</ele>
        <time>2017-08-04T13:12:57Z</time>
      </trkpt>
      <trkpt lat="50.65962" lon="2.86067">
        <ele>15.52</ele>
        <time>2017-08-04T13:12:58Z</time>
      </trkpt>
      <trkpt lat="50.65958" lon="2.86073">
        <ele>15.04</ele>
        <time>2017-08-04T13:12:59Z</time>
      </trkpt>
      <trkpt lat="50.65954" lon="2.86078">
        <ele>14.56</ele>
        <time>2017-08-04T13:13:00Z</time>
      </trkpt>
      <trkpt lat="50.6595" lon="2.86083">
        <ele>14.56</ele>
        <time>2017-08-04T13:13:01Z</time>
      </trkpt>
      <trkpt lat="50.65944" lon="2.86088">
        <ele>14.08</ele>
        <time>2017-08-04T13:13:02Z</time>
      </trkpt>
      <trkpt lat="50.65862" lon="2.86161">
        <ele>14.56</ele>
        <time>2017-08-04T13:13:20Z</time>
      </trkpt>
      <trkpt lat="50.65794" lon="2.86224">
        <ele>15.04</ele>
        <time>2017-08-04T13:13:34Z</time>
      </trkpt>
      <trkpt lat="50.65686" lon="2.86324">
        <ele>15.52</ele>
        <time>2017-08-04T13:13:55Z</time>
      </trkpt>
      <trkpt lat="50.65592" lon="2.86411">
        <ele>16</ele>
        <time>2017-08-04T13:14:14Z</time>
      </trkpt>
      <trkpt lat="50.65521" lon="2.86476">
        <ele>15.04</ele>
        <time>2017-08-04T13:14:28Z</time>
      </trkpt>
      <trkpt lat="50.65508" lon="2.86489">
        <ele>16.96</ele>
        <time>2017-08-04T13:14:31Z</time>
      </trkpt>
      <trkpt lat="50.65472" lon="2.8652">
        <ele>16.48</ele>
        <time>2017-08-04T13:14:39Z</time>
      </trkpt>
      <trkpt lat="50.65392" lon="2.86585">
        <ele>16</ele>
        <time>2017-08-04T13:14:56Z</time>
      </trkpt>
      <trkpt lat="50.6535" lon="2.86625">
        <ele>16.96</ele>
        <time>2017-08-04T13:15:06Z</time>
      </trkpt>
      <trkpt lat="50.65276" lon="2.86698">
        <ele>16.96</ele>
        <time>2017-08-04T13:15:25Z</time>
      </trkpt>
      <trkpt lat="50.65248" lon="2.86727">
        <ele>16</ele>
        <time>2017-08-04T13:15:32Z</time>
      </trkpt>
      <trkpt lat="50.65201" lon="2.86778">
        <ele>17.44</ele>
        <time>2017-08-04T13:15:44Z</time>
      </trkpt>
      <trkpt lat="50.65131" lon="2.86842">
        <ele>17.92</ele>
        <time>2017-08-04T13:16:01Z</time>
      </trkpt>
      <trkpt lat="50.65064" lon="2.86901">
        <ele>17.92</ele>
        <time>2017-08-04T13:16:18Z</time>
      </trkpt>
      <trkpt lat="50.65023" lon="2.86929">
        <ele>16.48</ele>
        <time>2017-08-04T13:16:30Z</time>
      </trkpt>
      <trkpt lat="50.64961" lon="2.86975">
        <ele>15.52</ele>
        <time>2017-08-04T13:16:47Z</time>
      </trkpt>
      <trkpt lat="50.64953" lon="2.8698">
        <ele>15.52</ele>
        <time>2017-08-04T13:16:49Z</time>
      </trkpt>
      <trkpt lat="50.64949" lon="2.86983">
        <ele>15.52</ele>
        <time>2017-08-04T13:16:50Z</time>
      </trkpt>
      <trkpt lat="50.64884" lon="2.87029">
        <ele>17.44</ele>
        <time>2017-08-04T13:17:08Z</time>
      </trkpt>
      <trkpt lat="50.64869" lon="2.8703">
        <ele>17.44</ele>
        <time>2017-08-04T13:17:17Z</time>
      </trkpt>
      <trkpt lat="50.64867" lon="2.87032">
        <ele>17.44</ele>
        <time>2017-08-04T13:17:18Z</time>
      </trkpt>
      <trkpt lat="50.64865" lon="2.87034">
        <ele>17.44</ele>
        <time>2017-08-04T13:17:19Z</time>
      </trkpt>
      <trkpt lat="50.64835" lon="2.87043">
        <ele>18.4</ele>
        <time>2017-08-04T13:17:31Z</time>
      </trkpt>
      <trkpt lat="50.64799" lon="2.87064">
        <ele>18.88</ele>
        <time>2017-08-04T13:17:43Z</time>
      </trkpt>
      <trkpt lat="50.64758" lon="2.871">
        <ele>17.92</ele>
        <time>2017-08-04T13:17:57Z</time>
      </trkpt>
      <trkpt lat="50.64737" lon="2.87121">
        <ele>17.92</ele>
        <time>2017-08-04T13:18:03Z</time>
      </trkpt>
      <trkpt lat="50.64734" lon="2.87126">
        <ele>17.92</ele>
        <time>2017-08-04T13:18:04Z</time>
      </trkpt>
      <trkpt lat="50.64732" lon="2.87132">
        <ele>17.92</ele>
        <time>2017-08-04T13:18:05Z</time>
      </trkpt>
      <trkpt lat="50.6471" lon="2.87166">
        <ele>17.92</ele>
        <time>2017-08-04T13:18:15Z</time>
      </trkpt>
      <trkpt lat="50.64694" lon="2.87177">
        <ele>19.36</ele>
        <time>2017-08-04T13:18:20Z</time>
      </trkpt>
      <trkpt lat="50.64669" lon="2.87203">
        <ele>19.36</ele>
        <time>2017-08-04T13:18:27Z</time>
      </trkpt>
      <trkpt lat="50.64645" lon="2.87224">
        <ele>17.92</ele>
        <time>2017-08-04T13:18:33Z</time>
      </trkpt>
      <trkpt lat="50.64629" lon="2.8724">
        <ele>18.4</ele>
        <time>2017-08-04T13:18:37Z</time>
      </trkpt>
      <trkpt lat="50.64626" lon="2.87245">
        <ele>18.4</ele>
        <time>2017-08-04T13:18:38Z</time>
      </trkpt>
      <trkpt lat="50.64624" lon="2.87252">
        <ele>18.4</ele>
        <time>2017-08-04T13:18:39Z</time>
      </trkpt>
      <trkpt lat="50.64622" lon="2.87258">
        <ele>18.4</ele>
        <time>2017-08-04T13:18:40Z</time>
      </trkpt>
      <trkpt lat="50.6462" lon="2.87267">
        <ele>18.4</ele>
        <time>2017-08-04T13:18:41Z</time>
      </trkpt>
      <trkpt lat="50.64608" lon="2.87316">
        <ele>18.4</ele>
        <time>2017-08-04T13:18:48Z</time>
      </trkpt>
      <trkpt lat="50.64598" lon="2.87364">
        <ele>18.4</ele>
        <time>2017-08-04T13:18:55Z</time>
      </trkpt>
      <trkpt lat="50.64584" lon="2.87422">
        <ele>17.44</ele>
        <time>2017-08-04T13:19:04Z</time>
      </trkpt>
      <trkpt lat="50.64584" lon="2.87429">
        <ele>17.44</ele>
        <time>2017-08-04T13:19:05Z</time>
      </trkpt>
      <trkpt lat="50.64585" lon="2.87435">
        <ele>17.44</ele>
        <time>2017-08-04T13:19:06Z</time>
      </trkpt>
      <trkpt lat="50.64587" lon="2.87441">
        <ele>17.44</ele>
        <time>2017-08-04T13:19:07Z</time>
      </trkpt>
      <trkpt lat="50.6459" lon="2.87448">
        <ele>17.44</ele>
        <time>2017-08-04T13:19:08Z</time>
      </trkpt>
      <trkpt lat="50.64592" lon="2.87453">
        <ele>17.44</ele>
        <time>2017-08-04T13:19:09Z</time>
      </trkpt>
      <trkpt lat="50.64597" lon="2.87464">
        <ele>17.44</ele>
        <time>2017-08-04T13:19:11Z</time>
      </trkpt>
      <trkpt lat="50.64599" lon="2.8747">
        <ele>17.44</ele>
        <time>2017-08-04T13:19:12Z</time>
      </trkpt>
      <trkpt lat="50.64601" lon="2.87475">
        <ele>17.44</ele>
        <time>2017-08-04T13:19:13Z</time>
      </trkpt>
      <trkpt lat="50.64603" lon="2.87479">
        <ele>17.44</ele>
        <time>2017-08-04T13:19:14Z</time>
      </trkpt>
      <trkpt lat="50.64605" lon="2.87482">
        <ele>17.44</ele>
        <time>2017-08-04T13:19:15Z</time>
      </trkpt>
      <trkpt lat="50.64618" lon="2.87519">
        <ele>17.44</ele>
        <time>2017-08-04T13:19:22Z</time>
      </trkpt>
      <trkpt lat="50.64621" lon="2.87524">
        <ele>17.44</ele>
        <time>2017-08-04T13:19:23Z</time>
      </trkpt>
      <trkpt lat="50.64657" lon="2.87622">
        <ele>17.44</ele>
        <time>2017-08-04T13:19:41Z</time>
      </trkpt>
      <trkpt lat="50.64664" lon="2.87646">
        <ele>17.44</ele>
        <time>2017-08-04T13:19:46Z</time>
      </trkpt>
      <trkpt lat="50.64663" lon="2.8765">
        <ele>17.44</ele>
        <time>2017-08-04T13:19:47Z</time>
      </trkpt>
      <trkpt lat="50.64662" lon="2.87651">
        <ele>17.44</ele>
        <time>2017-08-04T13:19:48Z</time>
      </trkpt>
      <trkpt lat="50.64647" lon="2.87667">
        <ele>16.96</ele>
        <time>2017-08-04T13:19:59Z</time>
      </trkpt>
      <trkpt lat="50.64647" lon="2.87666">
        <ele>17.92</ele>
        <time>2017-08-04T13:20:24Z</time>
      </trkpt>
      <trkpt lat="50.64648" lon="2.87666">
        <ele>17.92</ele>
        <time>2017-08-04T13:20:48Z</time>
      </trkpt>
      <trkpt lat="50.64647" lon="2.87668">
        <ele>17.92</ele>
        <time>2017-08-04T13:21:12Z</time>
      </trkpt>
      <trkpt lat="50.64646" lon="2.87666">
        <ele>17.92</ele>
        <time>2017-08-04T13:21:34Z</time>
      </trkpt>
      <trkpt lat="50.64647" lon="2.87667">
        <ele>17.92</ele>
        <time>2017-08-04T13:21:57Z</time>
      </trkpt>
      <trkpt lat="50.64634" lon="2.87678">
        <ele>17.92</ele>
        <time>2017-08-04T13:22:11Z</time>
      </trkpt>
      <trkpt lat="50.64574" lon="2.87733">
        <ele>17.92</ele>
        <time>2017-08-04T13:22:29Z</time>
      </trkpt>
      <trkpt lat="50.64504" lon="2.87796">
        <ele>18.4</ele>
        <time>2017-08-04T13:22:48Z</time>
      </trkpt>
      <trkpt lat="50.64442" lon="2.87852">
        <ele>16.48</ele>
        <time>2017-08-04T13:23:04Z</time>
      </trkpt>
      <trkpt lat="50.64401" lon="2.87892">
        <ele>16.48</ele>
        <time>2017-08-04T13:23:16Z</time>
      </trkpt>
      <trkpt lat="50.64321" lon="2.87938">
        <ele>16</ele>
        <time>2017-08-04T13:23:33Z</time>
      </trkpt>
      <trkpt lat="50.64223" lon="2.87996">
        <ele>15.52</ele>
        <time>2017-08-04T13:23:54Z</time>
      </trkpt>
      <trkpt lat="50.64193" lon="2.88013">
        <ele>16.96</ele>
        <time>2017-08-04T13:24:01Z</time>
      </trkpt>
      <trkpt lat="50.64131" lon="2.88048">
        <ele>15.04</ele>
        <time>2017-08-04T13:24:16Z</time>
      </trkpt>
      <trkpt lat="50.6412" lon="2.88055">
        <ele>17.92</ele>
        <time>2017-08-04T13:24:19Z</time>
      </trkpt>
      <trkpt lat="50.64046" lon="2.88097">
        <ele>16</ele>
        <time>2017-08-04T13:24:36Z</time>
      </trkpt>
      <trkpt lat="50.64042" lon="2.88099">
        <ele>16</ele>
        <time>2017-08-04T13:24:37Z</time>
      </trkpt>
      <trkpt lat="50.64013" lon="2.88121">
        <ele>16</ele>
        <time>2017-08-04T13:24:44Z</time>
      </trkpt>
      <trkpt lat="50.64009" lon="2.88127">
        <ele>16</ele>
        <time>2017-08-04T13:24:45Z</time>
      </trkpt>
      <trkpt lat="50.64006" lon="2.88132">
        <ele>16</ele>
        <time>2017-08-04T13:24:46Z</time>
      </trkpt>
      <trkpt lat="50.64004" lon="2.88138">
        <ele>17.44</ele>
        <time>2017-08-04T13:24:47Z</time>
      </trkpt>
      <trkpt lat="50.64001" lon="2.88145">
        <ele>17.44</ele>
        <time>2017-08-04T13:24:48Z</time>
      </trkpt>
      <trkpt lat="50.63999" lon="2.88152">
        <ele>17.92</ele>
        <time>2017-08-04T13:24:49Z</time>
      </trkpt>
      <trkpt lat="50.6397" lon="2.88302">
        <ele>18.4</ele>
        <time>2017-08-04T13:25:08Z</time>
      </trkpt>
      <trkpt lat="50.63922" lon="2.88465">
        <ele>18.4</ele>
        <time>2017-08-04T13:25:27Z</time>
      </trkpt>
      <trkpt lat="50.63877" lon="2.88546">
        <ele>17.92</ele>
        <time>2017-08-04T13:25:39Z</time>
      </trkpt>
      <trkpt lat="50.63797" lon="2.88673">
        <ele>17.92</ele>
        <time>2017-08-04T13:26:00Z</time>
      </trkpt>
      <trkpt lat="50.63712" lon="2.88814">
        <ele>16.48</ele>
        <time>2017-08-04T13:26:22Z</time>
      </trkpt>
      <trkpt lat="50.63677" lon="2.88871">
        <ele>17.44</ele>
        <time>2017-08-04T13:26:31Z</time>
      </trkpt>
      <trkpt lat="50.63592" lon="2.89008">
        <ele>18.4</ele>
        <time>2017-08-04T13:26:53Z</time>
      </trkpt>
      <trkpt lat="50.63508" lon="2.89145">
        <ele>16</ele>
        <time>2017-08-04T13:27:15Z</time>
      </trkpt>
      <trkpt lat="50.6344" lon="2.89258">
        <ele>17.92</ele>
        <time>2017-08-04T13:27:34Z</time>
      </trkpt>
      <trkpt lat="50.63414" lon="2.89291">
        <ele>18.4</ele>
        <time>2017-08-04T13:27:43Z</time>
      </trkpt>
      <trkpt lat="50.63383" lon="2.89327">
        <ele>18.4</ele>
        <time>2017-08-04T13:27:57Z</time>
      </trkpt>
      <trkpt lat="50.63358" lon="2.89348">
        <ele>17.92</ele>
        <time>2017-08-04T13:28:06Z</time>
      </trkpt>
      <trkpt lat="50.63334" lon="2.8937">
        <ele>16.48</ele>
        <time>2017-08-04T13:28:13Z</time>
      </trkpt>
      <trkpt lat="50.63268" lon="2.89437">
        <ele>15.52</ele>
        <time>2017-08-04T13:28:31Z</time>
      </trkpt>
      <trkpt lat="50.63209" lon="2.89497">
        <ele>15.52</ele>
        <time>2017-08-04T13:28:47Z</time>
      </trkpt>
      <trkpt lat="50.63137" lon="2.89564">
        <ele>16</ele>
        <time>2017-08-04T13:29:06Z</time>
      </trkpt>
      <trkpt lat="50.63134" lon="2.89567">
        <ele>16</ele>
        <time>2017-08-04T13:29:07Z</time>
      </trkpt>
      <trkpt lat="50.63072" lon="2.89637">
        <ele>17.44</ele>
        <time>2017-08-04T13:29:25Z</time>
      </trkpt>
      <trkpt lat="50.6304" lon="2.89679">
        <ele>17.44</ele>
        <time>2017-08-04T13:29:34Z</time>
      </trkpt>
      <trkpt lat="50.62966" lon="2.89783">
        <ele>17.44</ele>
        <time>2017-08-04T13:29:55Z</time>
      </trkpt>
      <trkpt lat="50.6289" lon="2.89891">
        <ele>16.96</ele>
        <time>2017-08-04T13:30:16Z</time>
      </trkpt>
      <trkpt lat="50.62824" lon="2.90001">
        <ele>16.96</ele>
        <time>2017-08-04T13:30:35Z</time>
      </trkpt>
      <trkpt lat="50.62759" lon="2.90107">
        <ele>17.44</ele>
        <time>2017-08-04T13:30:55Z</time>
      </trkpt>
      <trkpt lat="50.62756" lon="2.90112">
        <ele>17.44</ele>
        <time>2017-08-04T13:30:56Z</time>
      </trkpt>
      <trkpt lat="50.62725" lon="2.90163">
        <ele>18.88</ele>
        <time>2017-08-04T13:31:06Z</time>
      </trkpt>
      <trkpt lat="50.62663" lon="2.90253">
        <ele>17.44</ele>
        <time>2017-08-04T13:31:24Z</time>
      </trkpt>
      <trkpt lat="50.62595" lon="2.9033">
        <ele>19.36</ele>
        <time>2017-08-04T13:31:43Z</time>
      </trkpt>
      <trkpt lat="50.62565" lon="2.90363">
        <ele>17.92</ele>
        <time>2017-08-04T13:31:51Z</time>
      </trkpt>
      <trkpt lat="50.62501" lon="2.90433">
        <ele>17.92</ele>
        <time>2017-08-04T13:32:08Z</time>
      </trkpt>
      <trkpt lat="50.62425" lon="2.90501">
        <ele>17.92</ele>
        <time>2017-08-04T13:32:27Z</time>
      </trkpt>
      <trkpt lat="50.62354" lon="2.90537">
        <ele>19.36</ele>
        <time>2017-08-04T13:32:43Z</time>
      </trkpt>
      <trkpt lat="50.62283" lon="2.90563">
        <ele>19.36</ele>
        <time>2017-08-04T13:32:59Z</time>
      </trkpt>
      <trkpt lat="50.62216" lon="2.90611">
        <ele>20.32</ele>
        <time>2017-08-04T13:33:17Z</time>
      </trkpt>
      <trkpt lat="50.62163" lon="2.90659">
        <ele>20.81</ele>
        <time>2017-08-04T13:33:33Z</time>
      </trkpt>
      <trkpt lat="50.62144" lon="2.90701">
        <ele>22.25</ele>
        <time>2017-08-04T13:33:42Z</time>
      </trkpt>
      <trkpt lat="50.62144" lon="2.90707">
        <ele>22.25</ele>
        <time>2017-08-04T13:33:43Z</time>
      </trkpt>
      <trkpt lat="50.62144" lon="2.90784">
        <ele>22.25</ele>
        <time>2017-08-04T13:33:53Z</time>
      </trkpt>
      <trkpt lat="50.62144" lon="2.908">
        <ele>22.25</ele>
        <time>2017-08-04T13:33:55Z</time>
      </trkpt>
      <trkpt lat="50.62143" lon="2.90834">
        <ele>20.81</ele>
        <time>2017-08-04T13:33:59Z</time>
      </trkpt>
      <trkpt lat="50.62144" lon="2.90842">
        <ele>20.81</ele>
        <time>2017-08-04T13:34:00Z</time>
      </trkpt>
      <trkpt lat="50.62146" lon="2.90851">
        <ele>20.81</ele>
        <time>2017-08-04T13:34:01Z</time>
      </trkpt>
      <trkpt lat="50.62148" lon="2.90859">
        <ele>20.81</ele>
        <time>2017-08-04T13:34:02Z</time>
      </trkpt>
      <trkpt lat="50.6215" lon="2.90867">
        <ele>20.81</ele>
        <time>2017-08-04T13:34:03Z</time>
      </trkpt>
      <trkpt lat="50.62179" lon="2.90965">
        <ele>20.81</ele>
        <time>2017-08-04T13:34:15Z</time>
      </trkpt>
      <trkpt lat="50.62181" lon="2.90973">
        <ele>20.81</ele>
        <time>2017-08-04T13:34:16Z</time>
      </trkpt>
      <trkpt lat="50.62183" lon="2.90982">
        <ele>20.81</ele>
        <time>2017-08-04T13:34:17Z</time>
      </trkpt>
      <trkpt lat="50.62215" lon="2.9111">
        <ele>20.81</ele>
        <time>2017-08-04T13:34:33Z</time>
      </trkpt>
      <trkpt lat="50.62252" lon="2.91188">
        <ele>20.81</ele>
        <time>2017-08-04T13:34:45Z</time>
      </trkpt>
      <trkpt lat="50.62258" lon="2.91199">
        <ele>20.81</ele>
        <time>2017-08-04T13:34:47Z</time>
      </trkpt>
      <trkpt lat="50.6226" lon="2.91205">
        <ele>20.81</ele>
        <time>2017-08-04T13:34:48Z</time>
      </trkpt>
      <trkpt lat="50.62259" lon="2.91212">
        <ele>20.81</ele>
        <time>2017-08-04T13:34:49Z</time>
      </trkpt>
      <trkpt lat="50.62257" lon="2.91217">
        <ele>20.81</ele>
        <time>2017-08-04T13:34:50Z</time>
      </trkpt>
      <trkpt lat="50.62255" lon="2.91222">
        <ele>20.81</ele>
        <time>2017-08-04T13:34:51Z</time>
      </trkpt>
      <trkpt lat="50.62253" lon="2.91225">
        <ele>21.77</ele>
        <time>2017-08-04T13:34:52Z</time>
      </trkpt>
      <trkpt lat="50.62251" lon="2.91228">
        <ele>21.77</ele>
        <time>2017-08-04T13:34:53Z</time>
      </trkpt>
      <trkpt lat="50.62208" lon="2.91277">
        <ele>23.69</ele>
        <time>2017-08-04T13:35:11Z</time>
      </trkpt>
      <trkpt lat="50.62174" lon="2.91305">
        <ele>25.13</ele>
        <time>2017-08-04T13:35:26Z</time>
      </trkpt>
      <trkpt lat="50.62138" lon="2.91328">
        <ele>26.57</ele>
        <time>2017-08-04T13:35:41Z</time>
      </trkpt>
      <trkpt lat="50.62091" lon="2.91354">
        <ele>27.53</ele>
        <time>2017-08-04T13:35:59Z</time>
      </trkpt>
      <trkpt lat="50.62045" lon="2.91373">
        <ele>27.53</ele>
        <time>2017-08-04T13:36:15Z</time>
      </trkpt>
      <trkpt lat="50.62004" lon="2.91388">
        <ele>28.5</ele>
        <time>2017-08-04T13:36:29Z</time>
      </trkpt>
      <trkpt lat="50.61954" lon="2.91413">
        <ele>28.98</ele>
        <time>2017-08-04T13:36:45Z</time>
      </trkpt>
      <trkpt lat="50.61904" lon="2.91443">
        <ele>29.46</ele>
        <time>2017-08-04T13:37:01Z</time>
      </trkpt>
      <trkpt lat="50.61867" lon="2.91468">
        <ele>29.94</ele>
        <time>2017-08-04T13:37:14Z</time>
      </trkpt>
      <trkpt lat="50.61831" lon="2.91489">
        <ele>29.94</ele>
        <time>2017-08-04T13:37:27Z</time>
      </trkpt>
      <trkpt lat="50.61794" lon="2.91526">
        <ele>30.42</ele>
        <time>2017-08-04T13:37:43Z</time>
      </trkpt>
      <trkpt lat="50.61757" lon="2.91551">
        <ele>31.38</ele>
        <time>2017-08-04T13:37:59Z</time>
      </trkpt>
      <trkpt lat="50.6174" lon="2.91561">
        <ele>31.86</ele>
        <time>2017-08-04T13:38:13Z</time>
      </trkpt>
      <trkpt lat="50.61739" lon="2.91561">
        <ele>30.9</ele>
        <time>2017-08-04T13:38:24Z</time>
      </trkpt>
      <trkpt lat="50.6174" lon="2.9156">
        <ele>31.86</ele>
        <time>2017-08-04T13:38:30Z</time>
      </trkpt>
      <trkpt lat="50.61739" lon="2.9156">
        <ele>31.86</ele>
        <time>2017-08-04T13:38:45Z</time>
      </trkpt>
      <trkpt lat="50.61739" lon="2.9156">
        <ele>32.82</ele>
        <time>2017-08-04T13:39:03Z</time>
      </trkpt>
      <trkpt lat="50.6174" lon="2.9156">
        <ele>31.38</ele>
        <time>2017-08-04T13:39:12Z</time>
      </trkpt>
      <trkpt lat="50.61733" lon="2.91563">
        <ele>30.9</ele>
        <time>2017-08-04T13:39:29Z</time>
      </trkpt>
      <trkpt lat="50.61731" lon="2.91567">
        <ele>32.82</ele>
        <time>2017-08-04T13:39:30Z</time>
      </trkpt>
      <trkpt lat="50.6173" lon="2.9157">
        <ele>32.82</ele>
        <time>2017-08-04T13:39:31Z</time>
      </trkpt>
      <trkpt lat="50.6173" lon="2.91582">
        <ele>32.82</ele>
        <time>2017-08-04T13:39:34Z</time>
      </trkpt>
      <trkpt lat="50.61732" lon="2.91651">
        <ele>31.38</ele>
        <time>2017-08-04T13:39:45Z</time>
      </trkpt>
      <trkpt lat="50.61739" lon="2.91788">
        <ele>32.34</ele>
        <time>2017-08-04T13:40:05Z</time>
      </trkpt>
      <trkpt lat="50.61746" lon="2.9192">
        <ele>33.78</ele>
        <time>2017-08-04T13:40:25Z</time>
      </trkpt>
      <trkpt lat="50.61752" lon="2.92067">
        <ele>34.74</ele>
        <time>2017-08-04T13:40:47Z</time>
      </trkpt>
      <trkpt lat="50.61756" lon="2.92225">
        <ele>35.23</ele>
        <time>2017-08-04T13:41:09Z</time>
      </trkpt>
      <trkpt lat="50.61766" lon="2.92386">
        <ele>36.19</ele>
        <time>2017-08-04T13:41:31Z</time>
      </trkpt>
      <trkpt lat="50.61804" lon="2.92516">
        <ele>36.67</ele>
        <time>2017-08-04T13:41:50Z</time>
      </trkpt>
      <trkpt lat="50.61825" lon="2.92558">
        <ele>36.67</ele>
        <time>2017-08-04T13:41:57Z</time>
      </trkpt>
      <trkpt lat="50.61833" lon="2.92576">
        <ele>36.67</ele>
        <time>2017-08-04T13:42:00Z</time>
      </trkpt>
      <trkpt lat="50.61834" lon="2.92583">
        <ele>36.67</ele>
        <time>2017-08-04T13:42:01Z</time>
      </trkpt>
      <trkpt lat="50.61833" lon="2.92591">
        <ele>36.67</ele>
        <time>2017-08-04T13:42:02Z</time>
      </trkpt>
      <trkpt lat="50.61831" lon="2.92598">
        <ele>36.67</ele>
        <time>2017-08-04T13:42:03Z</time>
      </trkpt>
      <trkpt lat="50.61827" lon="2.92603">
        <ele>36.67</ele>
        <time>2017-08-04T13:42:04Z</time>
      </trkpt>
      <trkpt lat="50.61825" lon="2.92607">
        <ele>36.67</ele>
        <time>2017-08-04T13:42:05Z</time>
      </trkpt>
      <trkpt lat="50.6182" lon="2.92612">
        <ele>36.67</ele>
        <time>2017-08-04T13:42:06Z</time>
      </trkpt>
      <trkpt lat="50.61803" lon="2.9263">
        <ele>36.67</ele>
        <time>2017-08-04T13:42:11Z</time>
      </trkpt>
      <trkpt lat="50.61777" lon="2.92648">
        <ele>36.67</ele>
        <time>2017-08-04T13:42:17Z</time>
      </trkpt>
      <trkpt lat="50.61775" lon="2.92653">
        <ele>36.67</ele>
        <time>2017-08-04T13:42:18Z</time>
      </trkpt>
      <trkpt lat="50.61774" lon="2.9266">
        <ele>36.67</ele>
        <time>2017-08-04T13:42:19Z</time>
      </trkpt>
      <trkpt lat="50.61775" lon="2.92666">
        <ele>36.67</ele>
        <time>2017-08-04T13:42:20Z</time>
      </trkpt>
      <trkpt lat="50.61776" lon="2.92671">
        <ele>36.67</ele>
        <time>2017-08-04T13:42:21Z</time>
      </trkpt>
      <trkpt lat="50.61777" lon="2.92675">
        <ele>36.67</ele>
        <time>2017-08-04T13:42:22Z</time>
      </trkpt>
      <trkpt lat="50.61779" lon="2.92679">
        <ele>37.15</ele>
        <time>2017-08-04T13:42:23Z</time>
      </trkpt>
      <trkpt lat="50.6178" lon="2.92684">
        <ele>37.15</ele>
        <time>2017-08-04T13:42:24Z</time>
      </trkpt>
      <trkpt lat="50.6178" lon="2.92688">
        <ele>37.15</ele>
        <time>2017-08-04T13:42:25Z</time>
      </trkpt>
      <trkpt lat="50.6178" lon="2.92693">
        <ele>37.15</ele>
        <time>2017-08-04T13:42:26Z</time>
      </trkpt>
      <trkpt lat="50.6179" lon="2.92729">
        <ele>37.15</ele>
        <time>2017-08-04T13:42:37Z</time>
      </trkpt>
      <trkpt lat="50.6179" lon="2.9273">
        <ele>37.15</ele>
        <time>2017-08-04T13:42:38Z</time>
      </trkpt>
      <trkpt lat="50.61791" lon="2.92733">
        <ele>37.15</ele>
        <time>2017-08-04T13:42:39Z</time>
      </trkpt>
      <trkpt lat="50.6179" lon="2.92735">
        <ele>37.15</ele>
        <time>2017-08-04T13:42:40Z</time>
      </trkpt>
      <trkpt lat="50.61789" lon="2.92736">
        <ele>37.15</ele>
        <time>2017-08-04T13:42:41Z</time>
      </trkpt>
      <trkpt lat="50.61788" lon="2.92736">
        <ele>37.15</ele>
        <time>2017-08-04T13:42:42Z</time>
      </trkpt>
      <trkpt lat="50.61787" lon="2.92735">
        <ele>37.15</ele>
        <time>2017-08-04T13:42:43Z</time>
      </trkpt>
      <trkpt lat="50.61785" lon="2.92733">
        <ele>37.15</ele>
        <time>2017-08-04T13:42:44Z</time>
      </trkpt>
      <trkpt lat="50.61782" lon="2.92732">
        <ele>37.15</ele>
        <time>2017-08-04T13:42:45Z</time>
      </trkpt>
      <trkpt lat="50.6178" lon="2.92731">
        <ele>37.15</ele>
        <time>2017-08-04T13:42:46Z</time>
      </trkpt>
      <trkpt lat="50.61778" lon="2.92729">
        <ele>37.15</ele>
        <time>2017-08-04T13:42:47Z</time>
      </trkpt>
      <trkpt lat="50.61776" lon="2.92727">
        <ele>37.15</ele>
        <time>2017-08-04T13:42:48Z</time>
      </trkpt>
      <trkpt lat="50.61775" lon="2.92724">
        <ele>37.15</ele>
        <time>2017-08-04T13:42:49Z</time>
      </trkpt>
      <trkpt lat="50.61774" lon="2.92721">
        <ele>37.15</ele>
        <time>2017-08-04T13:42:50Z</time>
      </trkpt>
      <trkpt lat="50.61774" lon="2.92718">
        <ele>37.15</ele>
        <time>2017-08-04T13:42:51Z</time>
      </trkpt>
      <trkpt lat="50.61773" lon="2.92715">
        <ele>37.15</ele>
        <time>2017-08-04T13:42:52Z</time>
      </trkpt>
      <trkpt lat="50.61778" lon="2.92679">
        <ele>37.63</ele>
        <time>2017-08-04T13:43:03Z</time>
      </trkpt>
      <trkpt lat="50.61772" lon="2.92659">
        <ele>36.19</ele>
        <time>2017-08-04T13:43:09Z</time>
      </trkpt>
      <trkpt lat="50.61769" lon="2.92657">
        <ele>36.19</ele>
        <time>2017-08-04T13:43:10Z</time>
      </trkpt>
      <trkpt lat="50.61766" lon="2.92656">
        <ele>36.19</ele>
        <time>2017-08-04T13:43:11Z</time>
      </trkpt>
      <trkpt lat="50.61763" lon="2.92657">
        <ele>36.19</ele>
        <time>2017-08-04T13:43:12Z</time>
      </trkpt>
      <trkpt lat="50.6176" lon="2.92659">
        <ele>36.19</ele>
        <time>2017-08-04T13:43:13Z</time>
      </trkpt>
      <trkpt lat="50.61707" lon="2.92697">
        <ele>37.63</ele>
        <time>2017-08-04T13:43:30Z</time>
      </trkpt>
      <trkpt lat="50.61672" lon="2.92719">
        <ele>37.63</ele>
        <time>2017-08-04T13:43:39Z</time>
      </trkpt>
      <trkpt lat="50.61669" lon="2.92721">
        <ele>38.11</ele>
        <time>2017-08-04T13:43:40Z</time>
      </trkpt>
      <trkpt lat="50.61656" lon="2.92724">
        <ele>37.63</ele>
        <time>2017-08-04T13:43:43Z</time>
      </trkpt>
      <trkpt lat="50.61623" lon="2.92742">
        <ele>37.63</ele>
        <time>2017-08-04T13:43:51Z</time>
      </trkpt>
      <trkpt lat="50.61619" lon="2.92745">
        <ele>37.63</ele>
        <time>2017-08-04T13:43:52Z</time>
      </trkpt>
      <trkpt lat="50.61615" lon="2.92749">
        <ele>37.63</ele>
        <time>2017-08-04T13:43:53Z</time>
      </trkpt>
      <trkpt lat="50.61546" lon="2.92796">
        <ele>38.59</ele>
        <time>2017-08-04T13:44:09Z</time>
      </trkpt>
      <trkpt lat="50.61542" lon="2.928">
        <ele>38.59</ele>
        <time>2017-08-04T13:44:10Z</time>
      </trkpt>
      <trkpt lat="50.61528" lon="2.92825">
        <ele>38.59</ele>
        <time>2017-08-04T13:44:19Z</time>
      </trkpt>
      <trkpt lat="50.61527" lon="2.92825">
        <ele>38.59</ele>
        <time>2017-08-04T13:44:42Z</time>
      </trkpt>
      <trkpt lat="50.61526" lon="2.92827">
        <ele>38.59</ele>
        <time>2017-08-04T13:44:49Z</time>
      </trkpt>
      <trkpt lat="50.61524" lon="2.92827">
        <ele>38.59</ele>
        <time>2017-08-04T13:44:50Z</time>
      </trkpt>
      <trkpt lat="50.61523" lon="2.92828">
        <ele>38.59</ele>
        <time>2017-08-04T13:44:51Z</time>
      </trkpt>
      <trkpt lat="50.6152" lon="2.92828">
        <ele>38.59</ele>
        <time>2017-08-04T13:44:52Z</time>
      </trkpt>
      <trkpt lat="50.61517" lon="2.92828">
        <ele>38.59</ele>
        <time>2017-08-04T13:44:53Z</time>
      </trkpt>
      <trkpt lat="50.61514" lon="2.92829">
        <ele>38.59</ele>
        <time>2017-08-04T13:44:54Z</time>
      </trkpt>
      <trkpt lat="50.61512" lon="2.9283">
        <ele>38.59</ele>
        <time>2017-08-04T13:44:55Z</time>
      </trkpt>
      <trkpt lat="50.61509" lon="2.92833">
        <ele>38.59</ele>
        <time>2017-08-04T13:44:56Z</time>
      </trkpt>
      <trkpt lat="50.61507" lon="2.92836">
        <ele>38.59</ele>
        <time>2017-08-04T13:44:57Z</time>
      </trkpt>
      <trkpt lat="50.61504" lon="2.92839">
        <ele>38.59</ele>
        <time>2017-08-04T13:44:58Z</time>
      </trkpt>
      <trkpt lat="50.61501" lon="2.92842">
        <ele>38.59</ele>
        <time>2017-08-04T13:44:59Z</time>
      </trkpt>
      <trkpt lat="50.61454" lon="2.92891">
        <ele>38.59</ele>
        <time>2017-08-04T13:45:15Z</time>
      </trkpt>
      <trkpt lat="50.61447" lon="2.92902">
        <ele>37.15</ele>
        <time>2017-08-04T13:45:20Z</time>
      </trkpt>
      <trkpt lat="50.61433" lon="2.92936">
        <ele>39.07</ele>
        <time>2017-08-04T13:45:30Z</time>
      </trkpt>
      <trkpt lat="50.61408" lon="2.92948">
        <ele>38.11</ele>
        <time>2017-08-04T13:45:38Z</time>
      </trkpt>
      <trkpt lat="50.61383" lon="2.9296">
        <ele>38.11</ele>
        <time>2017-08-04T13:45:45Z</time>
      </trkpt>
      <trkpt lat="50.61379" lon="2.92962">
        <ele>38.11</ele>
        <time>2017-08-04T13:45:46Z</time>
      </trkpt>
      <trkpt lat="50.61309" lon="2.93003">
        <ele>36.19</ele>
        <time>2017-08-04T13:46:02Z</time>
      </trkpt>
      <trkpt lat="50.61295" lon="2.93012">
        <ele>34.74</ele>
        <time>2017-08-04T13:46:05Z</time>
      </trkpt>
      <trkpt lat="50.61226" lon="2.93048">
        <ele>31.86</ele>
        <time>2017-08-04T13:46:19Z</time>
      </trkpt>
      <trkpt lat="50.61176" lon="2.93076">
        <ele>28.98</ele>
        <time>2017-08-04T13:46:29Z</time>
      </trkpt>
      <trkpt lat="50.61156" lon="2.93086">
        <ele>30.9</ele>
        <time>2017-08-04T13:46:33Z</time>
      </trkpt>
      <trkpt lat="50.6114" lon="2.93094">
        <ele>29.94</ele>
        <time>2017-08-04T13:46:36Z</time>
      </trkpt>
      <trkpt lat="50.61112" lon="2.93111">
        <ele>28.98</ele>
        <time>2017-08-04T13:46:43Z</time>
      </trkpt>
      <trkpt lat="50.61108" lon="2.93114">
        <ele>28.98</ele>
        <time>2017-08-04T13:46:44Z</time>
      </trkpt>
      <trkpt lat="50.6105" lon="2.93144">
        <ele>29.46</ele>
        <time>2017-08-04T13:47:00Z</time>
      </trkpt>
      <trkpt lat="50.61046" lon="2.93146">
        <ele>29.46</ele>
        <time>2017-08-04T13:47:01Z</time>
      </trkpt>
      <trkpt lat="50.61032" lon="2.93151">
        <ele>28.02</ele>
        <time>2017-08-04T13:47:04Z</time>
      </trkpt>
      <trkpt lat="50.61018" lon="2.93153">
        <ele>27.53</ele>
        <time>2017-08-04T13:47:07Z</time>
      </trkpt>
      <trkpt lat="50.61013" lon="2.93155">
        <ele>27.53</ele>
        <time>2017-08-04T13:47:08Z</time>
      </trkpt>
      <trkpt lat="50.60998" lon="2.93166">
        <ele>27.53</ele>
        <time>2017-08-04T13:47:12Z</time>
      </trkpt>
      <trkpt lat="50.60937" lon="2.93206">
        <ele>26.09</ele>
        <time>2017-08-04T13:47:29Z</time>
      </trkpt>
      <trkpt lat="50.60908" lon="2.93223">
        <ele>28.02</ele>
        <time>2017-08-04T13:47:36Z</time>
      </trkpt>
      <trkpt lat="50.60827" lon="2.93268">
        <ele>25.61</ele>
        <time>2017-08-04T13:47:52Z</time>
      </trkpt>
      <trkpt lat="50.60791" lon="2.9329">
        <ele>27.05</ele>
        <time>2017-08-04T13:47:59Z</time>
      </trkpt>
      <trkpt lat="50.60709" lon="2.93339">
        <ele>27.53</ele>
        <time>2017-08-04T13:48:17Z</time>
      </trkpt>
      <trkpt lat="50.60633" lon="2.93382">
        <ele>27.53</ele>
        <time>2017-08-04T13:48:34Z</time>
      </trkpt>
      <trkpt lat="50.60549" lon="2.93431">
        <ele>27.53</ele>
        <time>2017-08-04T13:48:53Z</time>
      </trkpt>
      <trkpt lat="50.60467" lon="2.93475">
        <ele>26.09</ele>
        <time>2017-08-04T13:49:11Z</time>
      </trkpt>
      <trkpt lat="50.60395" lon="2.93516">
        <ele>26.09</ele>
        <time>2017-08-04T13:49:27Z</time>
      </trkpt>
      <trkpt lat="50.60329" lon="2.93545">
        <ele>26.09</ele>
        <time>2017-08-04T13:49:43Z</time>
      </trkpt>
      <trkpt lat="50.60321" lon="2.93532">
        <ele>27.05</ele>
        <time>2017-08-04T13:49:48Z</time>
      </trkpt>
      <trkpt lat="50.6032" lon="2.9353">
        <ele>27.05</ele>
        <time>2017-08-04T13:49:49Z</time>
      </trkpt>
      <trkpt lat="50.60318" lon="2.93528">
        <ele>28.02</ele>
        <time>2017-08-04T13:49:50Z</time>
      </trkpt>
      <trkpt lat="50.60316" lon="2.93529">
        <ele>28.02</ele>
        <time>2017-08-04T13:49:51Z</time>
      </trkpt>
      <trkpt lat="50.60315" lon="2.93532">
        <ele>28.02</ele>
        <time>2017-08-04T13:49:52Z</time>
      </trkpt>
      <trkpt lat="50.60315" lon="2.93537">
        <ele>29.46</ele>
        <time>2017-08-04T13:49:53Z</time>
      </trkpt>
      <trkpt lat="50.60316" lon="2.93539">
        <ele>28.02</ele>
        <time>2017-08-04T13:49:54Z</time>
      </trkpt>
      <trkpt lat="50.60316" lon="2.93543">
        <ele>28.02</ele>
        <time>2017-08-04T13:49:55Z</time>
      </trkpt>
      <trkpt lat="50.60318" lon="2.93569">
        <ele>28.5</ele>
        <time>2017-08-04T13:50:01Z</time>
      </trkpt>
      <trkpt lat="50.60317" lon="2.93573">
        <ele>28.5</ele>
        <time>2017-08-04T13:50:02Z</time>
      </trkpt>
      <trkpt lat="50.60315" lon="2.93576">
        <ele>28.5</ele>
        <time>2017-08-04T13:50:03Z</time>
      </trkpt>
      <trkpt lat="50.60273" lon="2.93605">
        <ele>29.46</ele>
        <time>2017-08-04T13:50:17Z</time>
      </trkpt>
      <trkpt lat="50.6025" lon="2.93619">
        <ele>28.5</ele>
        <time>2017-08-04T13:50:26Z</time>
      </trkpt>
      <trkpt lat="50.60204" lon="2.93648">
        <ele>28.5</ele>
        <time>2017-08-04T13:50:40Z</time>
      </trkpt>
      <trkpt lat="50.60174" lon="2.93665">
        <ele>27.05</ele>
        <time>2017-08-04T13:50:47Z</time>
      </trkpt>
      <trkpt lat="50.60169" lon="2.93667">
        <ele>27.05</ele>
        <time>2017-08-04T13:50:48Z</time>
      </trkpt>
      <trkpt lat="50.60143" lon="2.9368">
        <ele>26.09</ele>
        <time>2017-08-04T13:50:54Z</time>
      </trkpt>
      <trkpt lat="50.60099" lon="2.93706">
        <ele>26.09</ele>
        <time>2017-08-04T13:51:04Z</time>
      </trkpt>
      <trkpt lat="50.6009" lon="2.9371">
        <ele>26.09</ele>
        <time>2017-08-04T13:51:06Z</time>
      </trkpt>
      <trkpt lat="50.60071" lon="2.93722">
        <ele>25.61</ele>
        <time>2017-08-04T13:51:11Z</time>
      </trkpt>
      <trkpt lat="50.60044" lon="2.93733">
        <ele>25.13</ele>
        <time>2017-08-04T13:51:17Z</time>
      </trkpt>
      <trkpt lat="50.60039" lon="2.93737">
        <ele>25.13</ele>
        <time>2017-08-04T13:51:18Z</time>
      </trkpt>
      <trkpt lat="50.60035" lon="2.9374">
        <ele>25.13</ele>
        <time>2017-08-04T13:51:19Z</time>
      </trkpt>
      <trkpt lat="50.6003" lon="2.93743">
        <ele>25.13</ele>
        <time>2017-08-04T13:51:20Z</time>
      </trkpt>
      <trkpt lat="50.60025" lon="2.93745">
        <ele>25.13</ele>
        <time>2017-08-04T13:51:21Z</time>
      </trkpt>
      <trkpt lat="50.60006" lon="2.93753">
        <ele>24.65</ele>
        <time>2017-08-04T13:51:25Z</time>
      </trkpt>
      <trkpt lat="50.60003" lon="2.93757">
        <ele>24.65</ele>
        <time>2017-08-04T13:51:26Z</time>
      </trkpt>
      <trkpt lat="50.6" lon="2.9376">
        <ele>24.65</ele>
        <time>2017-08-04T13:51:27Z</time>
      </trkpt>
      <trkpt lat="50.59997" lon="2.9376">
        <ele>25.61</ele>
        <time>2017-08-04T13:51:28Z</time>
      </trkpt>
      <trkpt lat="50.59995" lon="2.93758">
        <ele>25.61</ele>
        <time>2017-08-04T13:51:29Z</time>
      </trkpt>
      <trkpt lat="50.59993" lon="2.93754">
        <ele>25.61</ele>
        <time>2017-08-04T13:51:30Z</time>
      </trkpt>
      <trkpt lat="50.5999" lon="2.93748">
        <ele>22.73</ele>
        <time>2017-08-04T13:51:31Z</time>
      </trkpt>
      <trkpt lat="50.59987" lon="2.93742">
        <ele>22.25</ele>
        <time>2017-08-04T13:51:32Z</time>
      </trkpt>
      <trkpt lat="50.59983" lon="2.93736">
        <ele>22.25</ele>
        <time>2017-08-04T13:51:33Z</time>
      </trkpt>
      <trkpt lat="50.59972" lon="2.93721">
        <ele>21.77</ele>
        <time>2017-08-04T13:51:36Z</time>
      </trkpt>
      <trkpt lat="50.5997" lon="2.93715">
        <ele>21.77</ele>
        <time>2017-08-04T13:51:37Z</time>
      </trkpt>
      <trkpt lat="50.59968" lon="2.93709">
        <ele>21.77</ele>
        <time>2017-08-04T13:51:38Z</time>
      </trkpt>
      <trkpt lat="50.59967" lon="2.93702">
        <ele>21.77</ele>
        <time>2017-08-04T13:51:39Z</time>
      </trkpt>
      <trkpt lat="50.59967" lon="2.93696">
        <ele>21.77</ele>
        <time>2017-08-04T13:51:40Z</time>
      </trkpt>
      <trkpt lat="50.5996" lon="2.93613">
        <ele>21.77</ele>
        <time>2017-08-04T13:51:54Z</time>
      </trkpt>
      <trkpt lat="50.59953" lon="2.93528">
        <ele>23.21</ele>
        <time>2017-08-04T13:52:11Z</time>
      </trkpt>
      <trkpt lat="50.59945" lon="2.93447">
        <ele>23.21</ele>
        <time>2017-08-04T13:52:27Z</time>
      </trkpt>
      <trkpt lat="50.59941" lon="2.93379">
        <ele>23.69</ele>
        <time>2017-08-04T13:52:40Z</time>
      </trkpt>
      <trkpt lat="50.59934" lon="2.93307">
        <ele>24.17</ele>
        <time>2017-08-04T13:52:53Z</time>
      </trkpt>
      <trkpt lat="50.59931" lon="2.93267">
        <ele>22.25</ele>
        <time>2017-08-04T13:53:00Z</time>
      </trkpt>
      <trkpt lat="50.59927" lon="2.93197">
        <ele>23.21</ele>
        <time>2017-08-04T13:53:13Z</time>
      </trkpt>
      <trkpt lat="50.59922" lon="2.93134">
        <ele>23.21</ele>
        <time>2017-08-04T13:53:26Z</time>
      </trkpt>
      <trkpt lat="50.59898" lon="2.93091">
        <ele>23.69</ele>
        <time>2017-08-04T13:53:38Z</time>
      </trkpt>
      <trkpt lat="50.59897" lon="2.93091">
        <ele>23.69</ele>
        <time>2017-08-04T13:53:48Z</time>
      </trkpt>
      <trkpt lat="50.59898" lon="2.93091">
        <ele>23.69</ele>
        <time>2017-08-04T13:54:13Z</time>
      </trkpt>
      <trkpt lat="50.59898" lon="2.93091">
        <ele>22.73</ele>
        <time>2017-08-04T13:54:15Z</time>
      </trkpt>
      <trkpt lat="50.59898" lon="2.93091">
        <ele>24.17</ele>
        <time>2017-08-04T13:54:20Z</time>
      </trkpt>
      <trkpt lat="50.59899" lon="2.93091">
        <ele>22.73</ele>
        <time>2017-08-04T13:54:32Z</time>
      </trkpt>
      <trkpt lat="50.59899" lon="2.9309">
        <ele>22.73</ele>
        <time>2017-08-04T13:54:35Z</time>
      </trkpt>
      <trkpt lat="50.59899" lon="2.9309">
        <ele>23.69</ele>
        <time>2017-08-04T13:54:47Z</time>
      </trkpt>
      <trkpt lat="50.59899" lon="2.93091">
        <ele>24.17</ele>
        <time>2017-08-04T13:55:11Z</time>
      </trkpt>
      <trkpt lat="50.599" lon="2.9309">
        <ele>24.17</ele>
        <time>2017-08-04T13:55:34Z</time>
      </trkpt>
      <trkpt lat="50.599" lon="2.93089">
        <ele>22.73</ele>
        <time>2017-08-04T13:56:06Z</time>
      </trkpt>
      <trkpt lat="50.59901" lon="2.93088">
        <ele>24.17</ele>
        <time>2017-08-04T13:56:35Z</time>
      </trkpt>
      <trkpt lat="50.59899" lon="2.93088">
        <ele>24.17</ele>
        <time>2017-08-04T13:56:51Z</time>
      </trkpt>
      <trkpt lat="50.59899" lon="2.93086">
        <ele>22.25</ele>
        <time>2017-08-04T13:56:53Z</time>
      </trkpt>
      <trkpt lat="50.59898" lon="2.93088">
        <ele>23.69</ele>
        <time>2017-08-04T13:56:56Z</time>
      </trkpt>
      <trkpt lat="50.59897" lon="2.93089">
        <ele>23.69</ele>
        <time>2017-08-04T13:57:20Z</time>
      </trkpt>
      <trkpt lat="50.59898" lon="2.9309">
        <ele>23.69</ele>
        <time>2017-08-04T13:57:46Z</time>
      </trkpt>
      <trkpt lat="50.59897" lon="2.93088">
        <ele>23.69</ele>
        <time>2017-08-04T13:58:11Z</time>
      </trkpt>
      <trkpt lat="50.59877" lon="2.93056">
        <ele>23.69</ele>
        <time>2017-08-04T13:58:22Z</time>
      </trkpt>
      <trkpt lat="50.59844" lon="2.93">
        <ele>24.65</ele>
        <time>2017-08-04T13:58:38Z</time>
      </trkpt>
      <trkpt lat="50.5981" lon="2.92945">
        <ele>24.65</ele>
        <time>2017-08-04T13:58:54Z</time>
      </trkpt>
      <trkpt lat="50.59772" lon="2.92881">
        <ele>25.13</ele>
        <time>2017-08-04T13:59:11Z</time>
      </trkpt>
      <trkpt lat="50.59733" lon="2.92814">
        <ele>25.13</ele>
        <time>2017-08-04T13:59:29Z</time>
      </trkpt>
      <trkpt lat="50.59693" lon="2.92745">
        <ele>26.57</ele>
        <time>2017-08-04T13:59:49Z</time>
      </trkpt>
      <trkpt lat="50.59683" lon="2.92727">
        <ele>26.09</ele>
        <time>2017-08-04T13:59:54Z</time>
      </trkpt>
      <trkpt lat="50.5965" lon="2.92672">
        <ele>26.09</ele>
        <time>2017-08-04T14:00:10Z</time>
      </trkpt>
      <trkpt lat="50.59645" lon="2.92665">
        <ele>27.53</ele>
        <time>2017-08-04T14:00:12Z</time>
      </trkpt>
      <trkpt lat="50.59623" lon="2.92628">
        <ele>28.02</ele>
        <time>2017-08-04T14:00:23Z</time>
      </trkpt>
      <trkpt lat="50.59621" lon="2.92627">
        <ele>28.02</ele>
        <time>2017-08-04T14:00:24Z</time>
      </trkpt>
      <trkpt lat="50.5962" lon="2.92624">
        <ele>28.02</ele>
        <time>2017-08-04T14:00:25Z</time>
      </trkpt>
      <trkpt lat="50.59594" lon="2.92575">
        <ele>28.5</ele>
        <time>2017-08-04T14:00:40Z</time>
      </trkpt>
      <trkpt lat="50.59577" lon="2.92552">
        <ele>28.5</ele>
        <time>2017-08-04T14:00:50Z</time>
      </trkpt>
      <trkpt lat="50.59574" lon="2.92553">
        <ele>28.5</ele>
        <time>2017-08-04T14:00:51Z</time>
      </trkpt>
      <trkpt lat="50.59571" lon="2.92555">
        <ele>27.05</ele>
        <time>2017-08-04T14:00:52Z</time>
      </trkpt>
      <trkpt lat="50.59569" lon="2.92558">
        <ele>27.05</ele>
        <time>2017-08-04T14:00:53Z</time>
      </trkpt>
      <trkpt lat="50.59566" lon="2.9256">
        <ele>27.05</ele>
        <time>2017-08-04T14:00:54Z</time>
      </trkpt>
      <trkpt lat="50.59503" lon="2.92599">
        <ele>28.02</ele>
        <time>2017-08-04T14:01:12Z</time>
      </trkpt>
      <trkpt lat="50.59499" lon="2.92601">
        <ele>28.02</ele>
        <time>2017-08-04T14:01:13Z</time>
      </trkpt>
      <trkpt lat="50.59449" lon="2.92622">
        <ele>27.53</ele>
        <time>2017-08-04T14:01:26Z</time>
      </trkpt>
      <trkpt lat="50.59377" lon="2.92651">
        <ele>29.46</ele>
        <time>2017-08-04T14:01:44Z</time>
      </trkpt>
      <trkpt lat="50.59291" lon="2.92685">
        <ele>29.46</ele>
        <time>2017-08-04T14:02:04Z</time>
      </trkpt>
      <trkpt lat="50.59209" lon="2.92702">
        <ele>30.42</ele>
        <time>2017-08-04T14:02:23Z</time>
      </trkpt>
      <trkpt lat="50.59154" lon="2.92701">
        <ele>28.98</ele>
        <time>2017-08-04T14:02:34Z</time>
      </trkpt>
      <trkpt lat="50.59149" lon="2.92701">
        <ele>28.98</ele>
        <time>2017-08-04T14:02:35Z</time>
      </trkpt>
      <trkpt lat="50.59144" lon="2.92701">
        <ele>28.98</ele>
        <time>2017-08-04T14:02:36Z</time>
      </trkpt>
      <trkpt lat="50.59139" lon="2.92702">
        <ele>28.98</ele>
        <time>2017-08-04T14:02:37Z</time>
      </trkpt>
      <trkpt lat="50.59098" lon="2.92707">
        <ele>28.98</ele>
        <time>2017-08-04T14:02:45Z</time>
      </trkpt>
      <trkpt lat="50.59093" lon="2.92706">
        <ele>28.98</ele>
        <time>2017-08-04T14:02:46Z</time>
      </trkpt>
      <trkpt lat="50.5909" lon="2.92704">
        <ele>28.98</ele>
        <time>2017-08-04T14:02:47Z</time>
      </trkpt>
      <trkpt lat="50.59066" lon="2.92681">
        <ele>29.94</ele>
        <time>2017-08-04T14:02:54Z</time>
      </trkpt>
      <trkpt lat="50.59062" lon="2.92681">
        <ele>29.94</ele>
        <time>2017-08-04T14:02:55Z</time>
      </trkpt>
      <trkpt lat="50.59058" lon="2.92682">
        <ele>29.94</ele>
        <time>2017-08-04T14:02:56Z</time>
      </trkpt>
      <trkpt lat="50.59042" lon="2.92685">
        <ele>28.98</ele>
        <time>2017-08-04T14:03:00Z</time>
      </trkpt>
      <trkpt lat="50.59038" lon="2.92689">
        <ele>29.94</ele>
        <time>2017-08-04T14:03:01Z</time>
      </trkpt>
      <trkpt lat="50.59035" lon="2.92695">
        <ele>29.94</ele>
        <time>2017-08-04T14:03:02Z</time>
      </trkpt>
      <trkpt lat="50.59033" lon="2.92703">
        <ele>29.94</ele>
        <time>2017-08-04T14:03:03Z</time>
      </trkpt>
      <trkpt lat="50.59032" lon="2.92711">
        <ele>29.94</ele>
        <time>2017-08-04T14:03:04Z</time>
      </trkpt>
      <trkpt lat="50.59031" lon="2.92718">
        <ele>30.9</ele>
        <time>2017-08-04T14:03:05Z</time>
      </trkpt>
      <trkpt lat="50.59029" lon="2.92725">
        <ele>30.9</ele>
        <time>2017-08-04T14:03:06Z</time>
      </trkpt>
      <trkpt lat="50.59026" lon="2.92733">
        <ele>30.42</ele>
        <time>2017-08-04T14:03:07Z</time>
      </trkpt>
      <trkpt lat="50.59023" lon="2.9274">
        <ele>30.42</ele>
        <time>2017-08-04T14:03:08Z</time>
      </trkpt>
      <trkpt lat="50.59018" lon="2.92747">
        <ele>30.9</ele>
        <time>2017-08-04T14:03:09Z</time>
      </trkpt>
      <trkpt lat="50.59013" lon="2.92752">
        <ele>30.42</ele>
        <time>2017-08-04T14:03:10Z</time>
      </trkpt>
      <trkpt lat="50.59007" lon="2.92756">
        <ele>29.46</ele>
        <time>2017-08-04T14:03:11Z</time>
      </trkpt>
      <trkpt lat="50.59002" lon="2.92761">
        <ele>29.46</ele>
        <time>2017-08-04T14:03:12Z</time>
      </trkpt>
      <trkpt lat="50.58985" lon="2.92776">
        <ele>30.9</ele>
        <time>2017-08-04T14:03:15Z</time>
      </trkpt>
      <trkpt lat="50.58962" lon="2.92791">
        <ele>29.46</ele>
        <time>2017-08-04T14:03:19Z</time>
      </trkpt>
      <trkpt lat="50.58956" lon="2.92793">
        <ele>29.46</ele>
        <time>2017-08-04T14:03:20Z</time>
      </trkpt>
      <trkpt lat="50.5895" lon="2.92791">
        <ele>29.46</ele>
        <time>2017-08-04T14:03:21Z</time>
      </trkpt>
      <trkpt lat="50.58946" lon="2.92789">
        <ele>28.98</ele>
        <time>2017-08-04T14:03:22Z</time>
      </trkpt>
      <trkpt lat="50.5894" lon="2.92784">
        <ele>28.5</ele>
        <time>2017-08-04T14:03:23Z</time>
      </trkpt>
      <trkpt lat="50.58935" lon="2.92781">
        <ele>28.5</ele>
        <time>2017-08-04T14:03:24Z</time>
      </trkpt>
      <trkpt lat="50.58928" lon="2.92779">
        <ele>27.53</ele>
        <time>2017-08-04T14:03:25Z</time>
      </trkpt>
      <trkpt lat="50.58924" lon="2.9278">
        <ele>27.53</ele>
        <time>2017-08-04T14:03:26Z</time>
      </trkpt>
      <trkpt lat="50.58919" lon="2.92785">
        <ele>27.53</ele>
        <time>2017-08-04T14:03:27Z</time>
      </trkpt>
      <trkpt lat="50.58914" lon="2.92792">
        <ele>27.53</ele>
        <time>2017-08-04T14:03:28Z</time>
      </trkpt>
      <trkpt lat="50.58911" lon="2.92797">
        <ele>27.53</ele>
        <time>2017-08-04T14:03:29Z</time>
      </trkpt>
      <trkpt lat="50.58908" lon="2.92804">
        <ele>27.53</ele>
        <time>2017-08-04T14:03:30Z</time>
      </trkpt>
      <trkpt lat="50.58905" lon="2.92812">
        <ele>27.53</ele>
        <time>2017-08-04T14:03:31Z</time>
      </trkpt>
      <trkpt lat="50.589" lon="2.9283">
        <ele>27.53</ele>
        <time>2017-08-04T14:03:33Z</time>
      </trkpt>
      <trkpt lat="50.58896" lon="2.92839">
        <ele>27.53</ele>
        <time>2017-08-04T14:03:34Z</time>
      </trkpt>
      <trkpt lat="50.5889" lon="2.92845">
        <ele>27.53</ele>
        <time>2017-08-04T14:03:35Z</time>
      </trkpt>
      <trkpt lat="50.58875" lon="2.9286">
        <ele>27.53</ele>
        <time>2017-08-04T14:03:38Z</time>
      </trkpt>
      <trkpt lat="50.5887" lon="2.92867">
        <ele>27.53</ele>
        <time>2017-08-04T14:03:39Z</time>
      </trkpt>
      <trkpt lat="50.58866" lon="2.9287">
        <ele>27.05</ele>
        <time>2017-08-04T14:03:40Z</time>
      </trkpt>
      <trkpt lat="50.58862" lon="2.92873">
        <ele>27.53</ele>
        <time>2017-08-04T14:03:41Z</time>
      </trkpt>
      <trkpt lat="50.58857" lon="2.92877">
        <ele>27.53</ele>
        <time>2017-08-04T14:03:42Z</time>
      </trkpt>
      <trkpt lat="50.58787" lon="2.92923">
        <ele>26.09</ele>
        <time>2017-08-04T14:03:57Z</time>
      </trkpt>
      <trkpt lat="50.58756" lon="2.92934">
        <ele>26.09</ele>
        <time>2017-08-04T14:04:07Z</time>
      </trkpt>
      <trkpt lat="50.58754" lon="2.92938">
        <ele>25.61</ele>
        <time>2017-08-04T14:04:08Z</time>
      </trkpt>
      <trkpt lat="50.58753" lon="2.92944">
        <ele>25.61</ele>
        <time>2017-08-04T14:04:09Z</time>
      </trkpt>
      <trkpt lat="50.58752" lon="2.92956">
        <ele>25.61</ele>
        <time>2017-08-04T14:04:11Z</time>
      </trkpt>
      <trkpt lat="50.58752" lon="2.92963">
        <ele>25.61</ele>
        <time>2017-08-04T14:04:12Z</time>
      </trkpt>
      <trkpt lat="50.58755" lon="2.93083">
        <ele>24.17</ele>
        <time>2017-08-04T14:04:26Z</time>
      </trkpt>
      <trkpt lat="50.58755" lon="2.93092">
        <ele>24.17</ele>
        <time>2017-08-04T14:04:27Z</time>
      </trkpt>
      <trkpt lat="50.58755" lon="2.931">
        <ele>24.17</ele>
        <time>2017-08-04T14:04:28Z</time>
      </trkpt>
      <trkpt lat="50.58756" lon="2.93123">
        <ele>24.17</ele>
        <time>2017-08-04T14:04:31Z</time>
      </trkpt>
      <trkpt lat="50.58757" lon="2.9313">
        <ele>24.65</ele>
        <time>2017-08-04T14:04:32Z</time>
      </trkpt>
      <trkpt lat="50.58758" lon="2.93144">
        <ele>24.65</ele>
        <time>2017-08-04T14:04:34Z</time>
      </trkpt>
      <trkpt lat="50.58758" lon="2.9315">
        <ele>24.65</ele>
        <time>2017-08-04T14:04:35Z</time>
      </trkpt>
      <trkpt lat="50.58758" lon="2.93155">
        <ele>24.65</ele>
        <time>2017-08-04T14:04:36Z</time>
      </trkpt>
      <trkpt lat="50.58758" lon="2.9316">
        <ele>24.65</ele>
        <time>2017-08-04T14:04:37Z</time>
      </trkpt>
      <trkpt lat="50.58757" lon="2.93163">
        <ele>24.65</ele>
        <time>2017-08-04T14:04:38Z</time>
      </trkpt>
      <trkpt lat="50.58757" lon="2.93169">
        <ele>25.61</ele>
        <time>2017-08-04T14:04:44Z</time>
      </trkpt>
      <trkpt lat="50.58759" lon="2.93169">
        <ele>26.57</ele>
        <time>2017-08-04T14:05:12Z</time>
      </trkpt>
      <trkpt lat="50.58759" lon="2.9317">
        <ele>27.53</ele>
        <time>2017-08-04T14:05:41Z</time>
      </trkpt>
      <trkpt lat="50.58759" lon="2.9317">
        <ele>27.53</ele>
        <time>2017-08-04T14:06:03Z</time>
      </trkpt>
      <trkpt lat="50.58759" lon="2.9317">
        <ele>27.53</ele>
        <time>2017-08-04T14:06:10Z</time>
      </trkpt>
      <trkpt lat="50.5876" lon="2.93169">
        <ele>27.53</ele>
        <time>2017-08-04T14:06:41Z</time>
      </trkpt>
      <trkpt lat="50.58759" lon="2.9317">
        <ele>27.53</ele>
        <time>2017-08-04T14:07:06Z</time>
      </trkpt>
      <trkpt lat="50.58759" lon="2.9317">
        <ele>27.53</ele>
        <time>2017-08-04T14:07:28Z</time>
      </trkpt>
      <trkpt lat="50.58759" lon="2.9317">
        <ele>28.02</ele>
        <time>2017-08-04T14:07:45Z</time>
      </trkpt>
      <trkpt lat="50.58758" lon="2.93171">
        <ele>28.02</ele>
        <time>2017-08-04T14:08:01Z</time>
      </trkpt>
      <trkpt lat="50.58758" lon="2.9317">
        <ele>28.02</ele>
        <time>2017-08-04T14:08:21Z</time>
      </trkpt>
      <trkpt lat="50.58758" lon="2.93169">
        <ele>28.02</ele>
        <time>2017-08-04T14:08:40Z</time>
      </trkpt>
      <trkpt lat="50.5876" lon="2.93173">
        <ele>28.02</ele>
        <time>2017-08-04T14:08:46Z</time>
      </trkpt>
      <trkpt lat="50.5876" lon="2.93176">
        <ele>28.02</ele>
        <time>2017-08-04T14:08:47Z</time>
      </trkpt>
      <trkpt lat="50.5876" lon="2.93179">
        <ele>28.02</ele>
        <time>2017-08-04T14:08:48Z</time>
      </trkpt>
      <trkpt lat="50.58761" lon="2.93182">
        <ele>28.02</ele>
        <time>2017-08-04T14:08:49Z</time>
      </trkpt>
      <trkpt lat="50.58761" lon="2.93186">
        <ele>28.02</ele>
        <time>2017-08-04T14:08:50Z</time>
      </trkpt>
      <trkpt lat="50.58761" lon="2.93191">
        <ele>28.02</ele>
        <time>2017-08-04T14:08:51Z</time>
      </trkpt>
      <trkpt lat="50.5876" lon="2.93202">
        <ele>28.02</ele>
        <time>2017-08-04T14:08:53Z</time>
      </trkpt>
      <trkpt lat="50.58761" lon="2.93209">
        <ele>26.57</ele>
        <time>2017-08-04T14:08:54Z</time>
      </trkpt>
      <trkpt lat="50.58762" lon="2.93217">
        <ele>26.57</ele>
        <time>2017-08-04T14:08:55Z</time>
      </trkpt>
      <trkpt lat="50.58763" lon="2.93234">
        <ele>26.57</ele>
        <time>2017-08-04T14:08:57Z</time>
      </trkpt>
      <trkpt lat="50.58768" lon="2.93297">
        <ele>26.09</ele>
        <time>2017-08-04T14:09:04Z</time>
      </trkpt>
      <trkpt lat="50.5877" lon="2.93306">
        <ele>25.61</ele>
        <time>2017-08-04T14:09:05Z</time>
      </trkpt>
      <trkpt lat="50.58778" lon="2.93337">
        <ele>26.09</ele>
        <time>2017-08-04T14:09:09Z</time>
      </trkpt>
      <trkpt lat="50.5878" lon="2.93345">
        <ele>26.09</ele>
        <time>2017-08-04T14:09:10Z</time>
      </trkpt>
      <trkpt lat="50.58812" lon="2.93425">
        <ele>25.61</ele>
        <time>2017-08-04T14:09:22Z</time>
      </trkpt>
      <trkpt lat="50.5888" lon="2.93496">
        <ele>25.61</ele>
        <time>2017-08-04T14:09:37Z</time>
      </trkpt>
      <trkpt lat="50.5895" lon="2.93589">
        <ele>25.61</ele>
        <time>2017-08-04T14:09:53Z</time>
      </trkpt>
      <trkpt lat="50.5904" lon="2.93722">
        <ele>24.65</ele>
        <time>2017-08-04T14:10:14Z</time>
      </trkpt>
      <trkpt lat="50.59106" lon="2.93815">
        <ele>24.65</ele>
        <time>2017-08-04T14:10:28Z</time>
      </trkpt>
      <trkpt lat="50.59112" lon="2.93821">
        <ele>24.65</ele>
        <time>2017-08-04T14:10:29Z</time>
      </trkpt>
      <trkpt lat="50.59119" lon="2.93826">
        <ele>24.65</ele>
        <time>2017-08-04T14:10:30Z</time>
      </trkpt>
      <trkpt lat="50.59125" lon="2.93829">
        <ele>24.65</ele>
        <time>2017-08-04T14:10:31Z</time>
      </trkpt>
      <trkpt lat="50.59131" lon="2.93832">
        <ele>24.65</ele>
        <time>2017-08-04T14:10:32Z</time>
      </trkpt>
      <trkpt lat="50.5924" lon="2.93896">
        <ele>24.65</ele>
        <time>2017-08-04T14:10:48Z</time>
      </trkpt>
      <trkpt lat="50.59283" lon="2.93922">
        <ele>25.13</ele>
        <time>2017-08-04T14:10:55Z</time>
      </trkpt>
      <trkpt lat="50.59287" lon="2.9393">
        <ele>25.13</ele>
        <time>2017-08-04T14:10:56Z</time>
      </trkpt>
      <trkpt lat="50.59289" lon="2.9394">
        <ele>25.13</ele>
        <time>2017-08-04T14:10:57Z</time>
      </trkpt>
      <trkpt lat="50.59289" lon="2.9395">
        <ele>25.13</ele>
        <time>2017-08-04T14:10:58Z</time>
      </trkpt>
      <trkpt lat="50.59288" lon="2.9396">
        <ele>25.13</ele>
        <time>2017-08-04T14:10:59Z</time>
      </trkpt>
      <trkpt lat="50.59287" lon="2.93969">
        <ele>25.13</ele>
        <time>2017-08-04T14:11:00Z</time>
      </trkpt>
      <trkpt lat="50.59273" lon="2.94082">
        <ele>24.17</ele>
        <time>2017-08-04T14:11:11Z</time>
      </trkpt>
      <trkpt lat="50.59257" lon="2.94208">
        <ele>23.69</ele>
        <time>2017-08-04T14:11:22Z</time>
      </trkpt>
      <trkpt lat="50.59258" lon="2.94221">
        <ele>23.69</ele>
        <time>2017-08-04T14:11:23Z</time>
      </trkpt>
      <trkpt lat="50.5926" lon="2.94233">
        <ele>23.69</ele>
        <time>2017-08-04T14:11:24Z</time>
      </trkpt>
      <trkpt lat="50.59262" lon="2.94244">
        <ele>23.69</ele>
        <time>2017-08-04T14:11:25Z</time>
      </trkpt>
      <trkpt lat="50.59264" lon="2.94256">
        <ele>23.69</ele>
        <time>2017-08-04T14:11:26Z</time>
      </trkpt>
      <trkpt lat="50.59315" lon="2.94508">
        <ele>23.21</ele>
        <time>2017-08-04T14:11:48Z</time>
      </trkpt>
      <trkpt lat="50.59329" lon="2.94598">
        <ele>24.17</ele>
        <time>2017-08-04T14:11:56Z</time>
      </trkpt>
      <trkpt lat="50.59329" lon="2.94607">
        <ele>24.17</ele>
        <time>2017-08-04T14:11:57Z</time>
      </trkpt>
      <trkpt lat="50.59326" lon="2.94615">
        <ele>24.17</ele>
        <time>2017-08-04T14:11:58Z</time>
      </trkpt>
      <trkpt lat="50.59323" lon="2.94621">
        <ele>24.17</ele>
        <time>2017-08-04T14:11:59Z</time>
      </trkpt>
      <trkpt lat="50.59318" lon="2.94626">
        <ele>24.17</ele>
        <time>2017-08-04T14:12:00Z</time>
      </trkpt>
      <trkpt lat="50.59314" lon="2.94629">
        <ele>22.73</ele>
        <time>2017-08-04T14:12:01Z</time>
      </trkpt>
      <trkpt lat="50.59309" lon="2.94634">
        <ele>22.73</ele>
        <time>2017-08-04T14:12:02Z</time>
      </trkpt>
      <trkpt lat="50.59247" lon="2.94695">
        <ele>22.25</ele>
        <time>2017-08-04T14:12:16Z</time>
      </trkpt>
      <trkpt lat="50.59186" lon="2.94773">
        <ele>21.29</ele>
        <time>2017-08-04T14:12:32Z</time>
      </trkpt>
      <trkpt lat="50.5918" lon="2.94783">
        <ele>21.29</ele>
        <time>2017-08-04T14:12:34Z</time>
      </trkpt>
      <trkpt lat="50.59178" lon="2.94789">
        <ele>21.29</ele>
        <time>2017-08-04T14:12:35Z</time>
      </trkpt>
      <trkpt lat="50.59177" lon="2.94794">
        <ele>21.29</ele>
        <time>2017-08-04T14:12:36Z</time>
      </trkpt>
      <trkpt lat="50.59177" lon="2.948">
        <ele>22.73</ele>
        <time>2017-08-04T14:12:37Z</time>
      </trkpt>
      <trkpt lat="50.59177" lon="2.94805">
        <ele>22.73</ele>
        <time>2017-08-04T14:12:38Z</time>
      </trkpt>
      <trkpt lat="50.59175" lon="2.94812">
        <ele>22.73</ele>
        <time>2017-08-04T14:12:43Z</time>
      </trkpt>
      <trkpt lat="50.59174" lon="2.94814">
        <ele>22.73</ele>
        <time>2017-08-04T14:12:44Z</time>
      </trkpt>
      <trkpt lat="50.59174" lon="2.94816">
        <ele>22.73</ele>
        <time>2017-08-04T14:12:45Z</time>
      </trkpt>
      <trkpt lat="50.59174" lon="2.9482">
        <ele>22.73</ele>
        <time>2017-08-04T14:12:46Z</time>
      </trkpt>
      <trkpt lat="50.59176" lon="2.94824">
        <ele>22.73</ele>
        <time>2017-08-04T14:12:47Z</time>
      </trkpt>
      <trkpt lat="50.59177" lon="2.94826">
        <ele>22.73</ele>
        <time>2017-08-04T14:12:48Z</time>
      </trkpt>
      <trkpt lat="50.5918" lon="2.94829">
        <ele>23.21</ele>
        <time>2017-08-04T14:12:49Z</time>
      </trkpt>
      <trkpt lat="50.59183" lon="2.94831">
        <ele>23.21</ele>
        <time>2017-08-04T14:12:50Z</time>
      </trkpt>
      <trkpt lat="50.59186" lon="2.94833">
        <ele>23.21</ele>
        <time>2017-08-04T14:12:51Z</time>
      </trkpt>
      <trkpt lat="50.59189" lon="2.94837">
        <ele>23.21</ele>
        <time>2017-08-04T14:12:52Z</time>
      </trkpt>
      <trkpt lat="50.59191" lon="2.94842">
        <ele>23.21</ele>
        <time>2017-08-04T14:12:53Z</time>
      </trkpt>
      <trkpt lat="50.59192" lon="2.94847">
        <ele>23.21</ele>
        <time>2017-08-04T14:12:54Z</time>
      </trkpt>
      <trkpt lat="50.59191" lon="2.94855">
        <ele>23.21</ele>
        <time>2017-08-04T14:12:55Z</time>
      </trkpt>
      <trkpt lat="50.5919" lon="2.94861">
        <ele>21.77</ele>
        <time>2017-08-04T14:12:56Z</time>
      </trkpt>
      <trkpt lat="50.59188" lon="2.94868">
        <ele>21.77</ele>
        <time>2017-08-04T14:12:57Z</time>
      </trkpt>
      <trkpt lat="50.59185" lon="2.94874">
        <ele>21.29</ele>
        <time>2017-08-04T14:12:58Z</time>
      </trkpt>
      <trkpt lat="50.59119" lon="2.94954">
        <ele>20.32</ele>
        <time>2017-08-04T14:13:12Z</time>
      </trkpt>
      <trkpt lat="50.59108" lon="2.94965">
        <ele>21.77</ele>
        <time>2017-08-04T14:13:14Z</time>
      </trkpt>
      <trkpt lat="50.5904" lon="2.95068">
        <ele>22.25</ele>
        <time>2017-08-04T14:13:28Z</time>
      </trkpt>
      <trkpt lat="50.58956" lon="2.95202">
        <ele>22.73</ele>
        <time>2017-08-04T14:13:47Z</time>
      </trkpt>
      <trkpt lat="50.58891" lon="2.95268">
        <ele>23.69</ele>
        <time>2017-08-04T14:14:00Z</time>
      </trkpt>
      <trkpt lat="50.58809" lon="2.95344">
        <ele>23.69</ele>
        <time>2017-08-04T14:14:17Z</time>
      </trkpt>
      <trkpt lat="50.58753" lon="2.95405">
        <ele>22.73</ele>
        <time>2017-08-04T14:14:29Z</time>
      </trkpt>
      <trkpt lat="50.58726" lon="2.95441">
        <ele>23.69</ele>
        <time>2017-08-04T14:14:36Z</time>
      </trkpt>
      <trkpt lat="50.58694" lon="2.95486">
        <ele>23.69</ele>
        <time>2017-08-04T14:14:47Z</time>
      </trkpt>
      <trkpt lat="50.58691" lon="2.95491">
        <ele>24.17</ele>
        <time>2017-08-04T14:14:48Z</time>
      </trkpt>
      <trkpt lat="50.5868" lon="2.95505">
        <ele>24.17</ele>
        <time>2017-08-04T14:14:51Z</time>
      </trkpt>
      <trkpt lat="50.58675" lon="2.95509">
        <ele>24.17</ele>
        <time>2017-08-04T14:14:52Z</time>
      </trkpt>
      <trkpt lat="50.58662" lon="2.95525">
        <ele>23.21</ele>
        <time>2017-08-04T14:14:55Z</time>
      </trkpt>
      <trkpt lat="50.58636" lon="2.95551">
        <ele>21.77</ele>
        <time>2017-08-04T14:15:01Z</time>
      </trkpt>
      <trkpt lat="50.58631" lon="2.95554">
        <ele>21.77</ele>
        <time>2017-08-04T14:15:02Z</time>
      </trkpt>
      <trkpt lat="50.58625" lon="2.95556">
        <ele>21.77</ele>
        <time>2017-08-04T14:15:03Z</time>
      </trkpt>
      <trkpt lat="50.58621" lon="2.95556">
        <ele>21.77</ele>
        <time>2017-08-04T14:15:04Z</time>
      </trkpt>
      <trkpt lat="50.58616" lon="2.95555">
        <ele>21.77</ele>
        <time>2017-08-04T14:15:05Z</time>
      </trkpt>
      <trkpt lat="50.58611" lon="2.95553">
        <ele>21.77</ele>
        <time>2017-08-04T14:15:06Z</time>
      </trkpt>
      <trkpt lat="50.58606" lon="2.9555">
        <ele>21.77</ele>
        <time>2017-08-04T14:15:07Z</time>
      </trkpt>
      <trkpt lat="50.58603" lon="2.95545">
        <ele>21.77</ele>
        <time>2017-08-04T14:15:08Z</time>
      </trkpt>
      <trkpt lat="50.58599" lon="2.9554">
        <ele>21.77</ele>
        <time>2017-08-04T14:15:09Z</time>
      </trkpt>
      <trkpt lat="50.58596" lon="2.95535">
        <ele>21.77</ele>
        <time>2017-08-04T14:15:10Z</time>
      </trkpt>
      <trkpt lat="50.58578" lon="2.95514">
        <ele>21.29</ele>
        <time>2017-08-04T14:15:15Z</time>
      </trkpt>
      <trkpt lat="50.58575" lon="2.95513">
        <ele>21.29</ele>
        <time>2017-08-04T14:15:16Z</time>
      </trkpt>
      <trkpt lat="50.58571" lon="2.95513">
        <ele>22.25</ele>
        <time>2017-08-04T14:15:17Z</time>
      </trkpt>
      <trkpt lat="50.58568" lon="2.95514">
        <ele>22.25</ele>
        <time>2017-08-04T14:15:18Z</time>
      </trkpt>
      <trkpt lat="50.58565" lon="2.95517">
        <ele>22.73</ele>
        <time>2017-08-04T14:15:19Z</time>
      </trkpt>
      <trkpt lat="50.58519" lon="2.95564">
        <ele>22.73</ele>
        <time>2017-08-04T14:15:34Z</time>
      </trkpt>
      <trkpt lat="50.58503" lon="2.9558">
        <ele>21.77</ele>
        <time>2017-08-04T14:15:38Z</time>
      </trkpt>
      <trkpt lat="50.58449" lon="2.95638">
        <ele>21.77</ele>
        <time>2017-08-04T14:15:51Z</time>
      </trkpt>
      <trkpt lat="50.58444" lon="2.95642">
        <ele>20.81</ele>
        <time>2017-08-04T14:15:52Z</time>
      </trkpt>
      <trkpt lat="50.58439" lon="2.95642">
        <ele>20.81</ele>
        <time>2017-08-04T14:15:53Z</time>
      </trkpt>
      <trkpt lat="50.58435" lon="2.95639">
        <ele>19.84</ele>
        <time>2017-08-04T14:15:54Z</time>
      </trkpt>
      <trkpt lat="50.58431" lon="2.95635">
        <ele>19.84</ele>
        <time>2017-08-04T14:15:55Z</time>
      </trkpt>
      <trkpt lat="50.58428" lon="2.9563">
        <ele>19.84</ele>
        <time>2017-08-04T14:15:56Z</time>
      </trkpt>
      <trkpt lat="50.58425" lon="2.95624">
        <ele>19.84</ele>
        <time>2017-08-04T14:15:57Z</time>
      </trkpt>
      <trkpt lat="50.58422" lon="2.95619">
        <ele>19.84</ele>
        <time>2017-08-04T14:15:58Z</time>
      </trkpt>
      <trkpt lat="50.58419" lon="2.95614">
        <ele>19.84</ele>
        <time>2017-08-04T14:15:59Z</time>
      </trkpt>
      <trkpt lat="50.58389" lon="2.95567">
        <ele>19.84</ele>
        <time>2017-08-04T14:16:10Z</time>
      </trkpt>
      <trkpt lat="50.58384" lon="2.95566">
        <ele>19.84</ele>
        <time>2017-08-04T14:16:11Z</time>
      </trkpt>
      <trkpt lat="50.58379" lon="2.95568">
        <ele>19.84</ele>
        <time>2017-08-04T14:16:12Z</time>
      </trkpt>
      <trkpt lat="50.58376" lon="2.9557">
        <ele>19.84</ele>
        <time>2017-08-04T14:16:13Z</time>
      </trkpt>
      <trkpt lat="50.58372" lon="2.95575">
        <ele>19.84</ele>
        <time>2017-08-04T14:16:14Z</time>
      </trkpt>
      <trkpt lat="50.58369" lon="2.9558">
        <ele>19.84</ele>
        <time>2017-08-04T14:16:15Z</time>
      </trkpt>
      <trkpt lat="50.58363" lon="2.95591">
        <ele>19.84</ele>
        <time>2017-08-04T14:16:17Z</time>
      </trkpt>
      <trkpt lat="50.58342" lon="2.95633">
        <ele>19.84</ele>
        <time>2017-08-04T14:16:24Z</time>
      </trkpt>
      <trkpt lat="50.58286" lon="2.95706">
        <ele>19.84</ele>
        <time>2017-08-04T14:16:39Z</time>
      </trkpt>
      <trkpt lat="50.58281" lon="2.95709">
        <ele>19.84</ele>
        <time>2017-08-04T14:16:40Z</time>
      </trkpt>
      <trkpt lat="50.58277" lon="2.95712">
        <ele>19.84</ele>
        <time>2017-08-04T14:16:41Z</time>
      </trkpt>
      <trkpt lat="50.58272" lon="2.95714">
        <ele>19.84</ele>
        <time>2017-08-04T14:16:42Z</time>
      </trkpt>
      <trkpt lat="50.58267" lon="2.95716">
        <ele>19.84</ele>
        <time>2017-08-04T14:16:43Z</time>
      </trkpt>
      <trkpt lat="50.58262" lon="2.95717">
        <ele>19.84</ele>
        <time>2017-08-04T14:16:44Z</time>
      </trkpt>
      <trkpt lat="50.58257" lon="2.95719">
        <ele>19.84</ele>
        <time>2017-08-04T14:16:45Z</time>
      </trkpt>
      <trkpt lat="50.58252" lon="2.95721">
        <ele>19.84</ele>
        <time>2017-08-04T14:16:46Z</time>
      </trkpt>
      <trkpt lat="50.58247" lon="2.95723">
        <ele>19.84</ele>
        <time>2017-08-04T14:16:47Z</time>
      </trkpt>
      <trkpt lat="50.58205" lon="2.95747">
        <ele>19.36</ele>
        <time>2017-08-04T14:16:56Z</time>
      </trkpt>
      <trkpt lat="50.582" lon="2.95748">
        <ele>19.36</ele>
        <time>2017-08-04T14:16:57Z</time>
      </trkpt>
      <trkpt lat="50.58195" lon="2.95748">
        <ele>19.36</ele>
        <time>2017-08-04T14:16:58Z</time>
      </trkpt>
      <trkpt lat="50.5819" lon="2.95746">
        <ele>19.36</ele>
        <time>2017-08-04T14:16:59Z</time>
      </trkpt>
      <trkpt lat="50.58186" lon="2.95743">
        <ele>19.36</ele>
        <time>2017-08-04T14:17:00Z</time>
      </trkpt>
      <trkpt lat="50.58181" lon="2.9574">
        <ele>19.36</ele>
        <time>2017-08-04T14:17:01Z</time>
      </trkpt>
      <trkpt lat="50.58177" lon="2.95738">
        <ele>19.36</ele>
        <time>2017-08-04T14:17:02Z</time>
      </trkpt>
      <trkpt lat="50.58173" lon="2.95736">
        <ele>19.36</ele>
        <time>2017-08-04T14:17:03Z</time>
      </trkpt>
      <trkpt lat="50.58164" lon="2.95732">
        <ele>19.36</ele>
        <time>2017-08-04T14:17:05Z</time>
      </trkpt>
      <trkpt lat="50.5816" lon="2.95732">
        <ele>19.36</ele>
        <time>2017-08-04T14:17:06Z</time>
      </trkpt>
      <trkpt lat="50.58156" lon="2.95733">
        <ele>19.36</ele>
        <time>2017-08-04T14:17:07Z</time>
      </trkpt>
      <trkpt lat="50.58143" lon="2.95738">
        <ele>19.36</ele>
        <time>2017-08-04T14:17:10Z</time>
      </trkpt>
      <trkpt lat="50.58138" lon="2.95741">
        <ele>19.36</ele>
        <time>2017-08-04T14:17:11Z</time>
      </trkpt>
      <trkpt lat="50.58134" lon="2.95744">
        <ele>19.36</ele>
        <time>2017-08-04T14:17:12Z</time>
      </trkpt>
      <trkpt lat="50.58125" lon="2.9575">
        <ele>19.36</ele>
        <time>2017-08-04T14:17:14Z</time>
      </trkpt>
      <trkpt lat="50.58053" lon="2.9582">
        <ele>18.4</ele>
        <time>2017-08-04T14:17:31Z</time>
      </trkpt>
      <trkpt lat="50.58046" lon="2.95831">
        <ele>18.4</ele>
        <time>2017-08-04T14:17:33Z</time>
      </trkpt>
      <trkpt lat="50.58043" lon="2.95839">
        <ele>18.4</ele>
        <time>2017-08-04T14:17:34Z</time>
      </trkpt>
      <trkpt lat="50.58041" lon="2.95846">
        <ele>18.4</ele>
        <time>2017-08-04T14:17:35Z</time>
      </trkpt>
      <trkpt lat="50.58037" lon="2.9586">
        <ele>18.4</ele>
        <time>2017-08-04T14:17:37Z</time>
      </trkpt>
      <trkpt lat="50.58012" lon="2.9597">
        <ele>18.4</ele>
        <time>2017-08-04T14:17:53Z</time>
      </trkpt>
      <trkpt lat="50.58005" lon="2.95992">
        <ele>19.84</ele>
        <time>2017-08-04T14:17:57Z</time>
      </trkpt>
      <trkpt lat="50.58001" lon="2.96004">
        <ele>19.84</ele>
        <time>2017-08-04T14:17:59Z</time>
      </trkpt>
      <trkpt lat="50.5796" lon="2.96115">
        <ele>19.84</ele>
        <time>2017-08-04T14:18:15Z</time>
      </trkpt>
      <trkpt lat="50.5792" lon="2.96199">
        <ele>19.84</ele>
        <time>2017-08-04T14:18:28Z</time>
      </trkpt>
      <trkpt lat="50.57916" lon="2.96206">
        <ele>19.84</ele>
        <time>2017-08-04T14:18:29Z</time>
      </trkpt>
      <trkpt lat="50.57848" lon="2.96291">
        <ele>19.84</ele>
        <time>2017-08-04T14:18:46Z</time>
      </trkpt>
      <trkpt lat="50.57839" lon="2.96304">
        <ele>19.84</ele>
        <time>2017-08-04T14:18:49Z</time>
      </trkpt>
      <trkpt lat="50.57837" lon="2.9631">
        <ele>19.84</ele>
        <time>2017-08-04T14:18:50Z</time>
      </trkpt>
      <trkpt lat="50.57835" lon="2.96315">
        <ele>19.84</ele>
        <time>2017-08-04T14:18:51Z</time>
      </trkpt>
      <trkpt lat="50.57834" lon="2.96321">
        <ele>19.84</ele>
        <time>2017-08-04T14:18:52Z</time>
      </trkpt>
      <trkpt lat="50.57834" lon="2.96326">
        <ele>19.84</ele>
        <time>2017-08-04T14:18:53Z</time>
      </trkpt>
      <trkpt lat="50.57833" lon="2.96331">
        <ele>19.84</ele>
        <time>2017-08-04T14:18:54Z</time>
      </trkpt>
      <trkpt lat="50.57833" lon="2.96336">
        <ele>19.84</ele>
        <time>2017-08-04T14:18:55Z</time>
      </trkpt>
      <trkpt lat="50.57838" lon="2.9638">
        <ele>19.84</ele>
        <time>2017-08-04T14:19:03Z</time>
      </trkpt>
      <trkpt lat="50.57838" lon="2.96394">
        <ele>19.84</ele>
        <time>2017-08-04T14:19:05Z</time>
      </trkpt>
      <trkpt lat="50.57838" lon="2.964">
        <ele>19.84</ele>
        <time>2017-08-04T14:19:06Z</time>
      </trkpt>
      <trkpt lat="50.57838" lon="2.96407">
        <ele>19.84</ele>
        <time>2017-08-04T14:19:07Z</time>
      </trkpt>
      <trkpt lat="50.57837" lon="2.96429">
        <ele>19.84</ele>
        <time>2017-08-04T14:19:10Z</time>
      </trkpt>
      <trkpt lat="50.57838" lon="2.96435">
        <ele>19.84</ele>
        <time>2017-08-04T14:19:11Z</time>
      </trkpt>
      <trkpt lat="50.57839" lon="2.96442">
        <ele>20.32</ele>
        <time>2017-08-04T14:19:12Z</time>
      </trkpt>
      <trkpt lat="50.57841" lon="2.96448">
        <ele>20.32</ele>
        <time>2017-08-04T14:19:13Z</time>
      </trkpt>
      <trkpt lat="50.57844" lon="2.96454">
        <ele>20.81</ele>
        <time>2017-08-04T14:19:14Z</time>
      </trkpt>
      <trkpt lat="50.57846" lon="2.96459">
        <ele>20.81</ele>
        <time>2017-08-04T14:19:15Z</time>
      </trkpt>
      <trkpt lat="50.57849" lon="2.96465">
        <ele>20.81</ele>
        <time>2017-08-04T14:19:16Z</time>
      </trkpt>
      <trkpt lat="50.57872" lon="2.96497">
        <ele>20.81</ele>
        <time>2017-08-04T14:19:23Z</time>
      </trkpt>
      <trkpt lat="50.57882" lon="2.96512">
        <ele>20.81</ele>
        <time>2017-08-04T14:19:26Z</time>
      </trkpt>
      <trkpt lat="50.57885" lon="2.96517">
        <ele>20.81</ele>
        <time>2017-08-04T14:19:27Z</time>
      </trkpt>
      <trkpt lat="50.57891" lon="2.96527">
        <ele>20.81</ele>
        <time>2017-08-04T14:19:29Z</time>
      </trkpt>
      <trkpt lat="50.57913" lon="2.96567">
        <ele>20.81</ele>
        <time>2017-08-04T14:19:37Z</time>
      </trkpt>
      <trkpt lat="50.57917" lon="2.9658">
        <ele>20.81</ele>
        <time>2017-08-04T14:19:39Z</time>
      </trkpt>
      <trkpt lat="50.57919" lon="2.96587">
        <ele>20.81</ele>
        <time>2017-08-04T14:19:40Z</time>
      </trkpt>
      <trkpt lat="50.5792" lon="2.96594">
        <ele>20.81</ele>
        <time>2017-08-04T14:19:41Z</time>
      </trkpt>
      <trkpt lat="50.5792" lon="2.96602">
        <ele>20.81</ele>
        <time>2017-08-04T14:19:42Z</time>
      </trkpt>
      <trkpt lat="50.57919" lon="2.9661">
        <ele>20.81</ele>
        <time>2017-08-04T14:19:43Z</time>
      </trkpt>
      <trkpt lat="50.57918" lon="2.96617">
        <ele>20.81</ele>
        <time>2017-08-04T14:19:44Z</time>
      </trkpt>
      <trkpt lat="50.57918" lon="2.96624">
        <ele>20.81</ele>
        <time>2017-08-04T14:19:45Z</time>
      </trkpt>
      <trkpt lat="50.57916" lon="2.9664">
        <ele>20.81</ele>
        <time>2017-08-04T14:19:47Z</time>
      </trkpt>
      <trkpt lat="50.57915" lon="2.96647">
        <ele>20.81</ele>
        <time>2017-08-04T14:19:48Z</time>
      </trkpt>
      <trkpt lat="50.57914" lon="2.96661">
        <ele>20.81</ele>
        <time>2017-08-04T14:19:50Z</time>
      </trkpt>
      <trkpt lat="50.57913" lon="2.967">
        <ele>20.81</ele>
        <time>2017-08-04T14:19:55Z</time>
      </trkpt>
      <trkpt lat="50.57912" lon="2.96709">
        <ele>20.81</ele>
        <time>2017-08-04T14:19:56Z</time>
      </trkpt>
      <trkpt lat="50.57911" lon="2.96715">
        <ele>20.81</ele>
        <time>2017-08-04T14:19:57Z</time>
      </trkpt>
      <trkpt lat="50.5791" lon="2.96722">
        <ele>20.81</ele>
        <time>2017-08-04T14:19:58Z</time>
      </trkpt>
      <trkpt lat="50.57908" lon="2.96729">
        <ele>20.81</ele>
        <time>2017-08-04T14:19:59Z</time>
      </trkpt>
      <trkpt lat="50.57906" lon="2.96736">
        <ele>20.81</ele>
        <time>2017-08-04T14:20:00Z</time>
      </trkpt>
      <trkpt lat="50.57903" lon="2.96742">
        <ele>20.81</ele>
        <time>2017-08-04T14:20:01Z</time>
      </trkpt>
      <trkpt lat="50.579" lon="2.96748">
        <ele>20.81</ele>
        <time>2017-08-04T14:20:02Z</time>
      </trkpt>
      <trkpt lat="50.57897" lon="2.96754">
        <ele>20.81</ele>
        <time>2017-08-04T14:20:03Z</time>
      </trkpt>
      <trkpt lat="50.57893" lon="2.96759">
        <ele>20.81</ele>
        <time>2017-08-04T14:20:04Z</time>
      </trkpt>
      <trkpt lat="50.57838" lon="2.9681">
        <ele>20.81</ele>
        <time>2017-08-04T14:20:16Z</time>
      </trkpt>
      <trkpt lat="50.57833" lon="2.96813">
        <ele>20.81</ele>
        <time>2017-08-04T14:20:17Z</time>
      </trkpt>
      <trkpt lat="50.57817" lon="2.96823">
        <ele>20.81</ele>
        <time>2017-08-04T14:20:21Z</time>
      </trkpt>
      <trkpt lat="50.57815" lon="2.96828">
        <ele>20.81</ele>
        <time>2017-08-04T14:20:22Z</time>
      </trkpt>
      <trkpt lat="50.57813" lon="2.96834">
        <ele>20.81</ele>
        <time>2017-08-04T14:20:23Z</time>
      </trkpt>
      <trkpt lat="50.57814" lon="2.96839">
        <ele>20.81</ele>
        <time>2017-08-04T14:20:24Z</time>
      </trkpt>
      <trkpt lat="50.57815" lon="2.96844">
        <ele>20.81</ele>
        <time>2017-08-04T14:20:25Z</time>
      </trkpt>
      <trkpt lat="50.57817" lon="2.96848">
        <ele>20.81</ele>
        <time>2017-08-04T14:20:26Z</time>
      </trkpt>
      <trkpt lat="50.5782" lon="2.96852">
        <ele>20.81</ele>
        <time>2017-08-04T14:20:27Z</time>
      </trkpt>
      <trkpt lat="50.57838" lon="2.96899">
        <ele>23.69</ele>
        <time>2017-08-04T14:20:39Z</time>
      </trkpt>
      <trkpt lat="50.57848" lon="2.96931">
        <ele>21.29</ele>
        <time>2017-08-04T14:20:44Z</time>
      </trkpt>
      <trkpt lat="50.57855" lon="2.96947">
        <ele>20.32</ele>
        <time>2017-08-04T14:20:46Z</time>
      </trkpt>
      <trkpt lat="50.57867" lon="2.96969">
        <ele>20.32</ele>
        <time>2017-08-04T14:20:49Z</time>
      </trkpt>
      <trkpt lat="50.57871" lon="2.96974">
        <ele>20.32</ele>
        <time>2017-08-04T14:20:50Z</time>
      </trkpt>
      <trkpt lat="50.57876" lon="2.96979">
        <ele>20.32</ele>
        <time>2017-08-04T14:20:51Z</time>
      </trkpt>
      <trkpt lat="50.5788" lon="2.96985">
        <ele>20.32</ele>
        <time>2017-08-04T14:20:52Z</time>
      </trkpt>
      <trkpt lat="50.57884" lon="2.96991">
        <ele>20.32</ele>
        <time>2017-08-04T14:20:53Z</time>
      </trkpt>
      <trkpt lat="50.57887" lon="2.96998">
        <ele>20.32</ele>
        <time>2017-08-04T14:20:54Z</time>
      </trkpt>
      <trkpt lat="50.57889" lon="2.97007">
        <ele>20.32</ele>
        <time>2017-08-04T14:20:55Z</time>
      </trkpt>
      <trkpt lat="50.5789" lon="2.97016">
        <ele>20.32</ele>
        <time>2017-08-04T14:20:56Z</time>
      </trkpt>
      <trkpt lat="50.57891" lon="2.97026">
        <ele>19.84</ele>
        <time>2017-08-04T14:20:57Z</time>
      </trkpt>
      <trkpt lat="50.5789" lon="2.97037">
        <ele>19.36</ele>
        <time>2017-08-04T14:20:58Z</time>
      </trkpt>
      <trkpt lat="50.57887" lon="2.97046">
        <ele>19.36</ele>
        <time>2017-08-04T14:20:59Z</time>
      </trkpt>
      <trkpt lat="50.57885" lon="2.97054">
        <ele>19.36</ele>
        <time>2017-08-04T14:21:00Z</time>
      </trkpt>
      <trkpt lat="50.57881" lon="2.97063">
        <ele>19.36</ele>
        <time>2017-08-04T14:21:01Z</time>
      </trkpt>
      <trkpt lat="50.57871" lon="2.97091">
        <ele>19.36</ele>
        <time>2017-08-04T14:21:05Z</time>
      </trkpt>
      <trkpt lat="50.57856" lon="2.97139">
        <ele>19.36</ele>
        <time>2017-08-04T14:21:12Z</time>
      </trkpt>
      <trkpt lat="50.5785" lon="2.97159">
        <ele>20.81</ele>
        <time>2017-08-04T14:21:15Z</time>
      </trkpt>
      <trkpt lat="50.57849" lon="2.97166">
        <ele>20.81</ele>
        <time>2017-08-04T14:21:16Z</time>
      </trkpt>
      <trkpt lat="50.57848" lon="2.97173">
        <ele>20.81</ele>
        <time>2017-08-04T14:21:17Z</time>
      </trkpt>
      <trkpt lat="50.57847" lon="2.9718">
        <ele>20.81</ele>
        <time>2017-08-04T14:21:18Z</time>
      </trkpt>
      <trkpt lat="50.57846" lon="2.97187">
        <ele>20.81</ele>
        <time>2017-08-04T14:21:19Z</time>
      </trkpt>
      <trkpt lat="50.57846" lon="2.97194">
        <ele>20.81</ele>
        <time>2017-08-04T14:21:20Z</time>
      </trkpt>
      <trkpt lat="50.57845" lon="2.97228">
        <ele>21.29</ele>
        <time>2017-08-04T14:21:25Z</time>
      </trkpt>
      <trkpt lat="50.57834" lon="2.97292">
        <ele>21.77</ele>
        <time>2017-08-04T14:21:35Z</time>
      </trkpt>
      <trkpt lat="50.5782" lon="2.97339">
        <ele>22.73</ele>
        <time>2017-08-04T14:21:43Z</time>
      </trkpt>
      <trkpt lat="50.57817" lon="2.97345">
        <ele>22.73</ele>
        <time>2017-08-04T14:21:44Z</time>
      </trkpt>
      <trkpt lat="50.57804" lon="2.97366">
        <ele>22.73</ele>
        <time>2017-08-04T14:21:48Z</time>
      </trkpt>
      <trkpt lat="50.57794" lon="2.97378">
        <ele>22.73</ele>
        <time>2017-08-04T14:21:51Z</time>
      </trkpt>
      <trkpt lat="50.57791" lon="2.97383">
        <ele>22.73</ele>
        <time>2017-08-04T14:21:52Z</time>
      </trkpt>
      <trkpt lat="50.57789" lon="2.97389">
        <ele>22.73</ele>
        <time>2017-08-04T14:21:53Z</time>
      </trkpt>
      <trkpt lat="50.57788" lon="2.97395">
        <ele>22.73</ele>
        <time>2017-08-04T14:21:54Z</time>
      </trkpt>
      <trkpt lat="50.57788" lon="2.974">
        <ele>22.73</ele>
        <time>2017-08-04T14:21:55Z</time>
      </trkpt>
      <trkpt lat="50.57788" lon="2.97406">
        <ele>22.73</ele>
        <time>2017-08-04T14:21:56Z</time>
      </trkpt>
      <trkpt lat="50.57788" lon="2.97411">
        <ele>22.73</ele>
        <time>2017-08-04T14:21:57Z</time>
      </trkpt>
      <trkpt lat="50.57788" lon="2.97418">
        <ele>22.73</ele>
        <time>2017-08-04T14:21:58Z</time>
      </trkpt>
      <trkpt lat="50.57788" lon="2.97426">
        <ele>21.29</ele>
        <time>2017-08-04T14:21:59Z</time>
      </trkpt>
      <trkpt lat="50.57787" lon="2.97435">
        <ele>21.29</ele>
        <time>2017-08-04T14:22:00Z</time>
      </trkpt>
      <trkpt lat="50.57786" lon="2.97444">
        <ele>20.32</ele>
        <time>2017-08-04T14:22:01Z</time>
      </trkpt>
      <trkpt lat="50.57785" lon="2.9748">
        <ele>20.32</ele>
        <time>2017-08-04T14:22:05Z</time>
      </trkpt>
      <trkpt lat="50.57786" lon="2.97488">
        <ele>20.32</ele>
        <time>2017-08-04T14:22:06Z</time>
      </trkpt>
      <trkpt lat="50.57788" lon="2.97496">
        <ele>20.32</ele>
        <time>2017-08-04T14:22:07Z</time>
      </trkpt>
      <trkpt lat="50.57791" lon="2.97502">
        <ele>20.32</ele>
        <time>2017-08-04T14:22:08Z</time>
      </trkpt>
      <trkpt lat="50.57794" lon="2.97508">
        <ele>20.32</ele>
        <time>2017-08-04T14:22:09Z</time>
      </trkpt>
      <trkpt lat="50.57797" lon="2.97512">
        <ele>19.84</ele>
        <time>2017-08-04T14:22:10Z</time>
      </trkpt>
      <trkpt lat="50.57801" lon="2.97517">
        <ele>20.32</ele>
        <time>2017-08-04T14:22:11Z</time>
      </trkpt>
      <trkpt lat="50.57807" lon="2.97526">
        <ele>19.36</ele>
        <time>2017-08-04T14:22:13Z</time>
      </trkpt>
      <trkpt lat="50.57815" lon="2.97533">
        <ele>19.36</ele>
        <time>2017-08-04T14:22:15Z</time>
      </trkpt>
      <trkpt lat="50.57818" lon="2.97537">
        <ele>19.36</ele>
        <time>2017-08-04T14:22:16Z</time>
      </trkpt>
      <trkpt lat="50.57884" lon="2.97603">
        <ele>19.36</ele>
        <time>2017-08-04T14:22:33Z</time>
      </trkpt>
      <trkpt lat="50.57945" lon="2.97648">
        <ele>21.29</ele>
        <time>2017-08-04T14:22:50Z</time>
      </trkpt>
      <trkpt lat="50.57954" lon="2.97654">
        <ele>21.29</ele>
        <time>2017-08-04T14:22:52Z</time>
      </trkpt>
      <trkpt lat="50.57986" lon="2.97681">
        <ele>24.17</ele>
        <time>2017-08-04T14:23:05Z</time>
      </trkpt>
      <trkpt lat="50.57988" lon="2.97686">
        <ele>24.65</ele>
        <time>2017-08-04T14:23:07Z</time>
      </trkpt>
      <trkpt lat="50.57988" lon="2.97689">
        <ele>24.65</ele>
        <time>2017-08-04T14:23:08Z</time>
      </trkpt>
      <trkpt lat="50.57988" lon="2.97693">
        <ele>24.65</ele>
        <time>2017-08-04T14:23:09Z</time>
      </trkpt>
      <trkpt lat="50.57988" lon="2.97722">
        <ele>25.61</ele>
        <time>2017-08-04T14:23:17Z</time>
      </trkpt>
      <trkpt lat="50.57988" lon="2.97725">
        <ele>25.61</ele>
        <time>2017-08-04T14:23:18Z</time>
      </trkpt>
      <trkpt lat="50.57975" lon="2.97795">
        <ele>27.05</ele>
        <time>2017-08-04T14:23:34Z</time>
      </trkpt>
      <trkpt lat="50.57962" lon="2.97853">
        <ele>27.53</ele>
        <time>2017-08-04T14:23:46Z</time>
      </trkpt>
      <trkpt lat="50.57951" lon="2.97899">
        <ele>27.53</ele>
        <time>2017-08-04T14:23:53Z</time>
      </trkpt>
      <trkpt lat="50.57947" lon="2.97905">
        <ele>26.09</ele>
        <time>2017-08-04T14:23:54Z</time>
      </trkpt>
      <trkpt lat="50.57943" lon="2.97908">
        <ele>25.13</ele>
        <time>2017-08-04T14:23:55Z</time>
      </trkpt>
      <trkpt lat="50.57928" lon="2.97916">
        <ele>23.69</ele>
        <time>2017-08-04T14:23:58Z</time>
      </trkpt>
      <trkpt lat="50.57904" lon="2.97919">
        <ele>20.81</ele>
        <time>2017-08-04T14:24:02Z</time>
      </trkpt>
      <trkpt lat="50.57895" lon="2.9792">
        <ele>20.81</ele>
        <time>2017-08-04T14:24:03Z</time>
      </trkpt>
      <trkpt lat="50.57829" lon="2.97908">
        <ele>21.77</ele>
        <time>2017-08-04T14:24:14Z</time>
      </trkpt>
      <trkpt lat="50.57824" lon="2.97907">
        <ele>22.25</ele>
        <time>2017-08-04T14:24:15Z</time>
      </trkpt>
      <trkpt lat="50.57819" lon="2.97907">
        <ele>22.25</ele>
        <time>2017-08-04T14:24:16Z</time>
      </trkpt>
      <trkpt lat="50.57814" lon="2.97905">
        <ele>22.25</ele>
        <time>2017-08-04T14:24:17Z</time>
      </trkpt>
      <trkpt lat="50.5781" lon="2.97904">
        <ele>22.25</ele>
        <time>2017-08-04T14:24:18Z</time>
      </trkpt>
      <trkpt lat="50.57806" lon="2.97902">
        <ele>22.25</ele>
        <time>2017-08-04T14:24:19Z</time>
      </trkpt>
      <trkpt lat="50.57779" lon="2.97886">
        <ele>22.25</ele>
        <time>2017-08-04T14:24:26Z</time>
      </trkpt>
      <trkpt lat="50.57751" lon="2.97864">
        <ele>20.81</ele>
        <time>2017-08-04T14:24:33Z</time>
      </trkpt>
      <trkpt lat="50.57698" lon="2.97819">
        <ele>20.32</ele>
        <time>2017-08-04T14:24:46Z</time>
      </trkpt>
      <trkpt lat="50.57663" lon="2.97754">
        <ele>20.32</ele>
        <time>2017-08-04T14:25:00Z</time>
      </trkpt>
      <trkpt lat="50.57654" lon="2.97738">
        <ele>21.29</ele>
        <time>2017-08-04T14:25:03Z</time>
      </trkpt>
      <trkpt lat="50.57647" lon="2.97728">
        <ele>21.29</ele>
        <time>2017-08-04T14:25:05Z</time>
      </trkpt>
      <trkpt lat="50.57643" lon="2.97724">
        <ele>21.29</ele>
        <time>2017-08-04T14:25:06Z</time>
      </trkpt>
      <trkpt lat="50.57619" lon="2.97699">
        <ele>21.29</ele>
        <time>2017-08-04T14:25:12Z</time>
      </trkpt>
      <trkpt lat="50.57615" lon="2.97694">
        <ele>21.29</ele>
        <time>2017-08-04T14:25:13Z</time>
      </trkpt>
      <trkpt lat="50.57569" lon="2.97619">
        <ele>20.32</ele>
        <time>2017-08-04T14:25:27Z</time>
      </trkpt>
      <trkpt lat="50.57522" lon="2.9756">
        <ele>20.32</ele>
        <time>2017-08-04T14:25:39Z</time>
      </trkpt>
      <trkpt lat="50.57489" lon="2.97525">
        <ele>20.81</ele>
        <time>2017-08-04T14:25:50Z</time>
      </trkpt>
      <trkpt lat="50.57437" lon="2.97463">
        <ele>20.81</ele>
        <time>2017-08-04T14:26:04Z</time>
      </trkpt>
      <trkpt lat="50.57434" lon="2.97458">
        <ele>20.81</ele>
        <time>2017-08-04T14:26:05Z</time>
      </trkpt>
      <trkpt lat="50.5743" lon="2.97453">
        <ele>20.81</ele>
        <time>2017-08-04T14:26:06Z</time>
      </trkpt>
      <trkpt lat="50.5738" lon="2.97387">
        <ele>20.81</ele>
        <time>2017-08-04T14:26:20Z</time>
      </trkpt>
      <trkpt lat="50.57348" lon="2.97346">
        <ele>20.81</ele>
        <time>2017-08-04T14:26:29Z</time>
      </trkpt>
      <trkpt lat="50.57345" lon="2.97341">
        <ele>20.81</ele>
        <time>2017-08-04T14:26:30Z</time>
      </trkpt>
      <trkpt lat="50.573" lon="2.97286">
        <ele>20.81</ele>
        <time>2017-08-04T14:26:42Z</time>
      </trkpt>
      <trkpt lat="50.57296" lon="2.97281">
        <ele>20.81</ele>
        <time>2017-08-04T14:26:43Z</time>
      </trkpt>
      <trkpt lat="50.57221" lon="2.97185">
        <ele>22.25</ele>
        <time>2017-08-04T14:27:03Z</time>
      </trkpt>
      <trkpt lat="50.57218" lon="2.9718">
        <ele>22.25</ele>
        <time>2017-08-04T14:27:04Z</time>
      </trkpt>
      <trkpt lat="50.57206" lon="2.97162">
        <ele>22.25</ele>
        <time>2017-08-04T14:27:08Z</time>
      </trkpt>
      <trkpt lat="50.57203" lon="2.97158">
        <ele>22.25</ele>
        <time>2017-08-04T14:27:09Z</time>
      </trkpt>
      <trkpt lat="50.57199" lon="2.97156">
        <ele>20.81</ele>
        <time>2017-08-04T14:27:10Z</time>
      </trkpt>
      <trkpt lat="50.57194" lon="2.97156">
        <ele>20.81</ele>
        <time>2017-08-04T14:27:11Z</time>
      </trkpt>
      <trkpt lat="50.5719" lon="2.97158">
        <ele>20.81</ele>
        <time>2017-08-04T14:27:12Z</time>
      </trkpt>
      <trkpt lat="50.57186" lon="2.97163">
        <ele>20.81</ele>
        <time>2017-08-04T14:27:13Z</time>
      </trkpt>
      <trkpt lat="50.57182" lon="2.97169">
        <ele>20.32</ele>
        <time>2017-08-04T14:27:14Z</time>
      </trkpt>
      <trkpt lat="50.57179" lon="2.97174">
        <ele>20.32</ele>
        <time>2017-08-04T14:27:15Z</time>
      </trkpt>
      <trkpt lat="50.57175" lon="2.97179">
        <ele>20.32</ele>
        <time>2017-08-04T14:27:16Z</time>
      </trkpt>
      <trkpt lat="50.57162" lon="2.97196">
        <ele>20.32</ele>
        <time>2017-08-04T14:27:20Z</time>
      </trkpt>
      <trkpt lat="50.57159" lon="2.97196">
        <ele>20.32</ele>
        <time>2017-08-04T14:27:21Z</time>
      </trkpt>
      <trkpt lat="50.57156" lon="2.97194">
        <ele>19.84</ele>
        <time>2017-08-04T14:27:22Z</time>
      </trkpt>
      <trkpt lat="50.57155" lon="2.97192">
        <ele>20.32</ele>
        <time>2017-08-04T14:27:23Z</time>
      </trkpt>
      <trkpt lat="50.57154" lon="2.97189">
        <ele>20.32</ele>
        <time>2017-08-04T14:27:24Z</time>
      </trkpt>
      <trkpt lat="50.57151" lon="2.97182">
        <ele>20.32</ele>
        <time>2017-08-04T14:27:28Z</time>
      </trkpt>
      <trkpt lat="50.57151" lon="2.97178">
        <ele>20.32</ele>
        <time>2017-08-04T14:27:29Z</time>
      </trkpt>
      <trkpt lat="50.57151" lon="2.97176">
        <ele>20.32</ele>
        <time>2017-08-04T14:27:30Z</time>
      </trkpt>
      <trkpt lat="50.57151" lon="2.97173">
        <ele>20.32</ele>
        <time>2017-08-04T14:27:31Z</time>
      </trkpt>
      <trkpt lat="50.57151" lon="2.9717">
        <ele>20.32</ele>
        <time>2017-08-04T14:27:32Z</time>
      </trkpt>
      <trkpt lat="50.5715" lon="2.97166">
        <ele>20.32</ele>
        <time>2017-08-04T14:27:33Z</time>
      </trkpt>
      <trkpt lat="50.5715" lon="2.97162">
        <ele>20.32</ele>
        <time>2017-08-04T14:27:34Z</time>
      </trkpt>
      <trkpt lat="50.57151" lon="2.97157">
        <ele>21.77</ele>
        <time>2017-08-04T14:27:35Z</time>
      </trkpt>
      <trkpt lat="50.57152" lon="2.97153">
        <ele>21.77</ele>
        <time>2017-08-04T14:27:36Z</time>
      </trkpt>
      <trkpt lat="50.57157" lon="2.97137">
        <ele>22.25</ele>
        <time>2017-08-04T14:27:40Z</time>
      </trkpt>
      <trkpt lat="50.57158" lon="2.97133">
        <ele>22.25</ele>
        <time>2017-08-04T14:27:41Z</time>
      </trkpt>
      <trkpt lat="50.57159" lon="2.9713">
        <ele>22.25</ele>
        <time>2017-08-04T14:27:42Z</time>
      </trkpt>
      <trkpt lat="50.5716" lon="2.97126">
        <ele>22.25</ele>
        <time>2017-08-04T14:27:43Z</time>
      </trkpt>
      <trkpt lat="50.57161" lon="2.97123">
        <ele>22.73</ele>
        <time>2017-08-04T14:27:44Z</time>
      </trkpt>
      <trkpt lat="50.57162" lon="2.9712">
        <ele>22.73</ele>
        <time>2017-08-04T14:27:45Z</time>
      </trkpt>
      <trkpt lat="50.57171" lon="2.97102">
        <ele>23.21</ele>
        <time>2017-08-04T14:27:50Z</time>
      </trkpt>
      <trkpt lat="50.57172" lon="2.97095">
        <ele>21.77</ele>
        <time>2017-08-04T14:27:51Z</time>
      </trkpt>
      <trkpt lat="50.57171" lon="2.97087">
        <ele>21.77</ele>
        <time>2017-08-04T14:27:52Z</time>
      </trkpt>
      <trkpt lat="50.57169" lon="2.9708">
        <ele>20.81</ele>
        <time>2017-08-04T14:27:53Z</time>
      </trkpt>
      <trkpt lat="50.57167" lon="2.97075">
        <ele>20.81</ele>
        <time>2017-08-04T14:27:54Z</time>
      </trkpt>
      <trkpt lat="50.5716" lon="2.97057">
        <ele>20.81</ele>
        <time>2017-08-04T14:27:57Z</time>
      </trkpt>
      <trkpt lat="50.57121" lon="2.96978">
        <ele>20.81</ele>
        <time>2017-08-04T14:28:12Z</time>
      </trkpt>
      <trkpt lat="50.5708" lon="2.96897">
        <ele>19.84</ele>
        <time>2017-08-04T14:28:29Z</time>
      </trkpt>
      <trkpt lat="50.57071" lon="2.9688">
        <ele>21.29</ele>
        <time>2017-08-04T14:28:33Z</time>
      </trkpt>
      <trkpt lat="50.57043" lon="2.96834">
        <ele>22.25</ele>
        <time>2017-08-04T14:28:46Z</time>
      </trkpt>
      <trkpt lat="50.57042" lon="2.96831">
        <ele>22.25</ele>
        <time>2017-08-04T14:28:47Z</time>
      </trkpt>
      <trkpt lat="50.57041" lon="2.96827">
        <ele>22.25</ele>
        <time>2017-08-04T14:28:48Z</time>
      </trkpt>
      <trkpt lat="50.57039" lon="2.96823">
        <ele>20.81</ele>
        <time>2017-08-04T14:28:49Z</time>
      </trkpt>
      <trkpt lat="50.57036" lon="2.96819">
        <ele>20.32</ele>
        <time>2017-08-04T14:28:50Z</time>
      </trkpt>
      <trkpt lat="50.57034" lon="2.96814">
        <ele>20.32</ele>
        <time>2017-08-04T14:28:51Z</time>
      </trkpt>
      <trkpt lat="50.5703" lon="2.9681">
        <ele>20.32</ele>
        <time>2017-08-04T14:28:52Z</time>
      </trkpt>
      <trkpt lat="50.57027" lon="2.96806">
        <ele>20.32</ele>
        <time>2017-08-04T14:28:53Z</time>
      </trkpt>
      <trkpt lat="50.57024" lon="2.96803">
        <ele>20.32</ele>
        <time>2017-08-04T14:28:54Z</time>
      </trkpt>
      <trkpt lat="50.56991" lon="2.96752">
        <ele>21.29</ele>
        <time>2017-08-04T14:29:06Z</time>
      </trkpt>
      <trkpt lat="50.56955" lon="2.967">
        <ele>21.29</ele>
        <time>2017-08-04T14:29:20Z</time>
      </trkpt>
      <trkpt lat="50.56923" lon="2.96646">
        <ele>20.81</ele>
        <time>2017-08-04T14:29:34Z</time>
      </trkpt>
      <trkpt lat="50.5692" lon="2.96644">
        <ele>20.32</ele>
        <time>2017-08-04T14:29:35Z</time>
      </trkpt>
      <trkpt lat="50.56893" lon="2.96622">
        <ele>21.29</ele>
        <time>2017-08-04T14:29:44Z</time>
      </trkpt>
      <trkpt lat="50.5685" lon="2.96567">
        <ele>20.32</ele>
        <time>2017-08-04T14:29:59Z</time>
      </trkpt>
      <trkpt lat="50.56807" lon="2.96509">
        <ele>20.81</ele>
        <time>2017-08-04T14:30:14Z</time>
      </trkpt>
      <trkpt lat="50.5675" lon="2.96428">
        <ele>20.81</ele>
        <time>2017-08-04T14:30:33Z</time>
      </trkpt>
      <trkpt lat="50.56706" lon="2.96357">
        <ele>19.84</ele>
        <time>2017-08-04T14:30:49Z</time>
      </trkpt>
      <trkpt lat="50.56662" lon="2.96288">
        <ele>20.81</ele>
        <time>2017-08-04T14:31:05Z</time>
      </trkpt>
      <trkpt lat="50.56624" lon="2.9623">
        <ele>21.77</ele>
        <time>2017-08-04T14:31:20Z</time>
      </trkpt>
      <trkpt lat="50.56607" lon="2.962">
        <ele>19.84</ele>
        <time>2017-08-04T14:31:27Z</time>
      </trkpt>
      <trkpt lat="50.5657" lon="2.96141">
        <ele>21.29</ele>
        <time>2017-08-04T14:31:41Z</time>
      </trkpt>
      <trkpt lat="50.56561" lon="2.96126">
        <ele>21.29</ele>
        <time>2017-08-04T14:31:44Z</time>
      </trkpt>
      <trkpt lat="50.56531" lon="2.96077">
        <ele>21.29</ele>
        <time>2017-08-04T14:31:54Z</time>
      </trkpt>
      <trkpt lat="50.56499" lon="2.96022">
        <ele>21.77</ele>
        <time>2017-08-04T14:32:06Z</time>
      </trkpt>
      <trkpt lat="50.56482" lon="2.95994">
        <ele>19.84</ele>
        <time>2017-08-04T14:32:12Z</time>
      </trkpt>
      <trkpt lat="50.56472" lon="2.95978">
        <ele>21.29</ele>
        <time>2017-08-04T14:32:16Z</time>
      </trkpt>
      <trkpt lat="50.56428" lon="2.95911">
        <ele>21.29</ele>
        <time>2017-08-04T14:32:31Z</time>
      </trkpt>
      <trkpt lat="50.56409" lon="2.95885">
        <ele>20.32</ele>
        <time>2017-08-04T14:32:37Z</time>
      </trkpt>
      <trkpt lat="50.56359" lon="2.95821">
        <ele>20.32</ele>
        <time>2017-08-04T14:32:53Z</time>
      </trkpt>
      <trkpt lat="50.56322" lon="2.95777">
        <ele>18.88</ele>
        <time>2017-08-04T14:33:05Z</time>
      </trkpt>
      <trkpt lat="50.56311" lon="2.95763">
        <ele>21.29</ele>
        <time>2017-08-04T14:33:09Z</time>
      </trkpt>
      <trkpt lat="50.56265" lon="2.95713">
        <ele>21.77</ele>
        <time>2017-08-04T14:33:24Z</time>
      </trkpt>
      <trkpt lat="50.56211" lon="2.95655">
        <ele>20.32</ele>
        <time>2017-08-04T14:33:42Z</time>
      </trkpt>
      <trkpt lat="50.56199" lon="2.95642">
        <ele>21.77</ele>
        <time>2017-08-04T14:33:46Z</time>
      </trkpt>
      <trkpt lat="50.56178" lon="2.95621">
        <ele>21.77</ele>
        <time>2017-08-04T14:33:52Z</time>
      </trkpt>
      <trkpt lat="50.56175" lon="2.95618">
        <ele>21.77</ele>
        <time>2017-08-04T14:33:53Z</time>
      </trkpt>
      <trkpt lat="50.5615" lon="2.95597">
        <ele>20.32</ele>
        <time>2017-08-04T14:34:00Z</time>
      </trkpt>
      <trkpt lat="50.56116" lon="2.95569">
        <ele>18.88</ele>
        <time>2017-08-04T14:34:10Z</time>
      </trkpt>
      <trkpt lat="50.56083" lon="2.95541">
        <ele>19.84</ele>
        <time>2017-08-04T14:34:24Z</time>
      </trkpt>
      <trkpt lat="50.56048" lon="2.95509">
        <ele>20.32</ele>
        <time>2017-08-04T14:34:38Z</time>
      </trkpt>
      <trkpt lat="50.56006" lon="2.9547">
        <ele>19.84</ele>
        <time>2017-08-04T14:34:54Z</time>
      </trkpt>
      <trkpt lat="50.55958" lon="2.95421">
        <ele>20.81</ele>
        <time>2017-08-04T14:35:11Z</time>
      </trkpt>
      <trkpt lat="50.5595" lon="2.95412">
        <ele>19.84</ele>
        <time>2017-08-04T14:35:14Z</time>
      </trkpt>
      <trkpt lat="50.55896" lon="2.9535">
        <ele>20.81</ele>
        <time>2017-08-04T14:35:33Z</time>
      </trkpt>
      <trkpt lat="50.55863" lon="2.95303">
        <ele>20.81</ele>
        <time>2017-08-04T14:35:47Z</time>
      </trkpt>
      <trkpt lat="50.55814" lon="2.95226">
        <ele>21.77</ele>
        <time>2017-08-04T14:36:06Z</time>
      </trkpt>
      <trkpt lat="50.55772" lon="2.95151">
        <ele>20.32</ele>
        <time>2017-08-04T14:36:22Z</time>
      </trkpt>
      <trkpt lat="50.55742" lon="2.95092">
        <ele>20.32</ele>
        <time>2017-08-04T14:36:39Z</time>
      </trkpt>
      <trkpt lat="50.5574" lon="2.95093">
        <ele>20.32</ele>
        <time>2017-08-04T14:36:48Z</time>
      </trkpt>
      <trkpt lat="50.5574" lon="2.95096">
        <ele>20.32</ele>
        <time>2017-08-04T14:36:49Z</time>
      </trkpt>
      <trkpt lat="50.55741" lon="2.95098">
        <ele>20.32</ele>
        <time>2017-08-04T14:36:50Z</time>
      </trkpt>
      <trkpt lat="50.55742" lon="2.951">
        <ele>20.32</ele>
        <time>2017-08-04T14:36:51Z</time>
      </trkpt>
      <trkpt lat="50.55744" lon="2.95103">
        <ele>20.32</ele>
        <time>2017-08-04T14:36:52Z</time>
      </trkpt>
      <trkpt lat="50.55746" lon="2.95106">
        <ele>20.32</ele>
        <time>2017-08-04T14:36:53Z</time>
      </trkpt>
      <trkpt lat="50.55776" lon="2.95162">
        <ele>21.77</ele>
        <time>2017-08-04T14:37:06Z</time>
      </trkpt>
      <trkpt lat="50.55779" lon="2.95167">
        <ele>21.77</ele>
        <time>2017-08-04T14:37:07Z</time>
      </trkpt>
      <trkpt lat="50.55782" lon="2.95172">
        <ele>21.77</ele>
        <time>2017-08-04T14:37:08Z</time>
      </trkpt>
      <trkpt lat="50.55826" lon="2.95247">
        <ele>21.77</ele>
        <time>2017-08-04T14:37:23Z</time>
      </trkpt>
      <trkpt lat="50.55829" lon="2.95252">
        <ele>21.77</ele>
        <time>2017-08-04T14:37:24Z</time>
      </trkpt>
      <trkpt lat="50.55839" lon="2.95266">
        <ele>21.77</ele>
        <time>2017-08-04T14:37:27Z</time>
      </trkpt>
      <trkpt lat="50.55889" lon="2.95337">
        <ele>21.77</ele>
        <time>2017-08-04T14:37:43Z</time>
      </trkpt>
      <trkpt lat="50.55898" lon="2.95351">
        <ele>21.77</ele>
        <time>2017-08-04T14:37:48Z</time>
      </trkpt>
      <trkpt lat="50.55895" lon="2.95349">
        <ele>20.81</ele>
        <time>2017-08-04T14:37:52Z</time>
      </trkpt>
      <trkpt lat="50.55895" lon="2.95347">
        <ele>20.81</ele>
        <time>2017-08-04T14:37:53Z</time>
      </trkpt>
      <trkpt lat="50.55893" lon="2.95346">
        <ele>20.81</ele>
        <time>2017-08-04T14:37:54Z</time>
      </trkpt>
      <trkpt lat="50.55892" lon="2.95344">
        <ele>20.81</ele>
        <time>2017-08-04T14:37:55Z</time>
      </trkpt>
      <trkpt lat="50.55891" lon="2.95344">
        <ele>20.81</ele>
        <time>2017-08-04T14:37:56Z</time>
      </trkpt>
      <trkpt lat="50.5589" lon="2.95343">
        <ele>20.81</ele>
        <time>2017-08-04T14:37:58Z</time>
      </trkpt>
      <trkpt lat="50.55889" lon="2.95341">
        <ele>20.81</ele>
        <time>2017-08-04T14:37:59Z</time>
      </trkpt>
      <trkpt lat="50.55887" lon="2.95342">
        <ele>20.81</ele>
        <time>2017-08-04T14:38:00Z</time>
      </trkpt>
      <trkpt lat="50.55886" lon="2.95344">
        <ele>20.81</ele>
        <time>2017-08-04T14:38:01Z</time>
      </trkpt>
      <trkpt lat="50.55885" lon="2.95347">
        <ele>20.81</ele>
        <time>2017-08-04T14:38:02Z</time>
      </trkpt>
      <trkpt lat="50.55884" lon="2.9535">
        <ele>20.81</ele>
        <time>2017-08-04T14:38:03Z</time>
      </trkpt>
      <trkpt lat="50.55884" lon="2.95353">
        <ele>20.81</ele>
        <time>2017-08-04T14:38:04Z</time>
      </trkpt>
      <trkpt lat="50.55884" lon="2.95357">
        <ele>20.81</ele>
        <time>2017-08-04T14:38:05Z</time>
      </trkpt>
      <trkpt lat="50.55884" lon="2.9536">
        <ele>20.81</ele>
        <time>2017-08-04T14:38:06Z</time>
      </trkpt>
      <trkpt lat="50.55883" lon="2.95364">
        <ele>20.81</ele>
        <time>2017-08-04T14:38:07Z</time>
      </trkpt>
      <trkpt lat="50.55882" lon="2.95368">
        <ele>20.81</ele>
        <time>2017-08-04T14:38:08Z</time>
      </trkpt>
      <trkpt lat="50.55881" lon="2.95371">
        <ele>20.81</ele>
        <time>2017-08-04T14:38:09Z</time>
      </trkpt>
      <trkpt lat="50.55862" lon="2.954">
        <ele>20.81</ele>
        <time>2017-08-04T14:38:18Z</time>
      </trkpt>
      <trkpt lat="50.55845" lon="2.95427">
        <ele>20.81</ele>
        <time>2017-08-04T14:38:24Z</time>
      </trkpt>
      <trkpt lat="50.5584" lon="2.95436">
        <ele>22.25</ele>
        <time>2017-08-04T14:38:26Z</time>
      </trkpt>
      <trkpt lat="50.55833" lon="2.95445">
        <ele>22.25</ele>
        <time>2017-08-04T14:38:28Z</time>
      </trkpt>
      <trkpt lat="50.55829" lon="2.95449">
        <ele>22.25</ele>
        <time>2017-08-04T14:38:29Z</time>
      </trkpt>
      <trkpt lat="50.5579" lon="2.95511">
        <ele>22.25</ele>
        <time>2017-08-04T14:38:42Z</time>
      </trkpt>
      <trkpt lat="50.55762" lon="2.95557">
        <ele>22.25</ele>
        <time>2017-08-04T14:38:52Z</time>
      </trkpt>
      <trkpt lat="50.55759" lon="2.95562">
        <ele>22.25</ele>
        <time>2017-08-04T14:38:53Z</time>
      </trkpt>
      <trkpt lat="50.55713" lon="2.9563">
        <ele>22.25</ele>
        <time>2017-08-04T14:39:07Z</time>
      </trkpt>
      <trkpt lat="50.55666" lon="2.95694">
        <ele>22.25</ele>
        <time>2017-08-04T14:39:22Z</time>
      </trkpt>
      <trkpt lat="50.55642" lon="2.9573">
        <ele>22.25</ele>
        <time>2017-08-04T14:39:30Z</time>
      </trkpt>
      <trkpt lat="50.55639" lon="2.95735">
        <ele>22.25</ele>
        <time>2017-08-04T14:39:31Z</time>
      </trkpt>
      <trkpt lat="50.55636" lon="2.95739">
        <ele>22.25</ele>
        <time>2017-08-04T14:39:32Z</time>
      </trkpt>
      <trkpt lat="50.55633" lon="2.95743">
        <ele>22.25</ele>
        <time>2017-08-04T14:39:33Z</time>
      </trkpt>
      <trkpt lat="50.5563" lon="2.95748">
        <ele>22.25</ele>
        <time>2017-08-04T14:39:34Z</time>
      </trkpt>
      <trkpt lat="50.55582" lon="2.95819">
        <ele>22.73</ele>
        <time>2017-08-04T14:39:50Z</time>
      </trkpt>
      <trkpt lat="50.55571" lon="2.9584">
        <ele>22.73</ele>
        <time>2017-08-04T14:39:54Z</time>
      </trkpt>
      <trkpt lat="50.55569" lon="2.95846">
        <ele>22.73</ele>
        <time>2017-08-04T14:39:55Z</time>
      </trkpt>
      <trkpt lat="50.55567" lon="2.95852">
        <ele>22.73</ele>
        <time>2017-08-04T14:39:56Z</time>
      </trkpt>
      <trkpt lat="50.55566" lon="2.95859">
        <ele>22.73</ele>
        <time>2017-08-04T14:39:57Z</time>
      </trkpt>
      <trkpt lat="50.55565" lon="2.95865">
        <ele>22.73</ele>
        <time>2017-08-04T14:39:58Z</time>
      </trkpt>
      <trkpt lat="50.55564" lon="2.95885">
        <ele>22.73</ele>
        <time>2017-08-04T14:40:01Z</time>
      </trkpt>
      <trkpt lat="50.55557" lon="2.95931">
        <ele>22.73</ele>
        <time>2017-08-04T14:40:08Z</time>
      </trkpt>
      <trkpt lat="50.55555" lon="2.95937">
        <ele>22.73</ele>
        <time>2017-08-04T14:40:09Z</time>
      </trkpt>
      <trkpt lat="50.55553" lon="2.95942">
        <ele>22.73</ele>
        <time>2017-08-04T14:40:10Z</time>
      </trkpt>
      <trkpt lat="50.55551" lon="2.95948">
        <ele>22.73</ele>
        <time>2017-08-04T14:40:11Z</time>
      </trkpt>
      <trkpt lat="50.55549" lon="2.95953">
        <ele>22.73</ele>
        <time>2017-08-04T14:40:12Z</time>
      </trkpt>
      <trkpt lat="50.55512" lon="2.9601">
        <ele>22.73</ele>
        <time>2017-08-04T14:40:25Z</time>
      </trkpt>
      <trkpt lat="50.55494" lon="2.96054">
        <ele>22.73</ele>
        <time>2017-08-04T14:40:34Z</time>
      </trkpt>
      <trkpt lat="50.55495" lon="2.96057">
        <ele>22.73</ele>
        <time>2017-08-04T14:40:35Z</time>
      </trkpt>
      <trkpt lat="50.55495" lon="2.96059">
        <ele>22.73</ele>
        <time>2017-08-04T14:40:36Z</time>
      </trkpt>
      <trkpt lat="50.55502" lon="2.96068">
        <ele>22.73</ele>
        <time>2017-08-04T14:40:40Z</time>
      </trkpt>
      <trkpt lat="50.55502" lon="2.96071">
        <ele>22.73</ele>
        <time>2017-08-04T14:40:41Z</time>
      </trkpt>
      <trkpt lat="50.555" lon="2.96074">
        <ele>22.73</ele>
        <time>2017-08-04T14:40:42Z</time>
      </trkpt>
      <trkpt lat="50.55499" lon="2.96077">
        <ele>22.73</ele>
        <time>2017-08-04T14:40:43Z</time>
      </trkpt>
      <trkpt lat="50.55497" lon="2.96082">
        <ele>22.73</ele>
        <time>2017-08-04T14:40:44Z</time>
      </trkpt>
      <trkpt lat="50.55496" lon="2.96085">
        <ele>22.73</ele>
        <time>2017-08-04T14:40:45Z</time>
      </trkpt>
      <trkpt lat="50.55466" lon="2.96161">
        <ele>22.73</ele>
        <time>2017-08-04T14:41:02Z</time>
      </trkpt>
      <trkpt lat="50.55436" lon="2.96234">
        <ele>22.73</ele>
        <time>2017-08-04T14:41:18Z</time>
      </trkpt>
      <trkpt lat="50.55407" lon="2.96304">
        <ele>21.29</ele>
        <time>2017-08-04T14:41:33Z</time>
      </trkpt>
      <trkpt lat="50.55374" lon="2.96359">
        <ele>21.29</ele>
        <time>2017-08-04T14:41:47Z</time>
      </trkpt>
      <trkpt lat="50.55348" lon="2.96367">
        <ele>22.73</ele>
        <time>2017-08-04T14:41:55Z</time>
      </trkpt>
      <trkpt lat="50.55298" lon="2.96383">
        <ele>22.25</ele>
        <time>2017-08-04T14:42:12Z</time>
      </trkpt>
      <trkpt lat="50.5527" lon="2.96393">
        <ele>21.77</ele>
        <time>2017-08-04T14:42:23Z</time>
      </trkpt>
      <trkpt lat="50.55242" lon="2.96401">
        <ele>22.73</ele>
        <time>2017-08-04T14:42:31Z</time>
      </trkpt>
      <trkpt lat="50.55218" lon="2.964">
        <ele>21.77</ele>
        <time>2017-08-04T14:42:37Z</time>
      </trkpt>
      <trkpt lat="50.55164" lon="2.96389">
        <ele>21.77</ele>
        <time>2017-08-04T14:42:51Z</time>
      </trkpt>
      <trkpt lat="50.55114" lon="2.96385">
        <ele>23.21</ele>
        <time>2017-08-04T14:43:03Z</time>
      </trkpt>
      <trkpt lat="50.55106" lon="2.96386">
        <ele>21.29</ele>
        <time>2017-08-04T14:43:05Z</time>
      </trkpt>
      <trkpt lat="50.55102" lon="2.96385">
        <ele>21.29</ele>
        <time>2017-08-04T14:43:06Z</time>
      </trkpt>
      <trkpt lat="50.5508" lon="2.96386">
        <ele>22.25</ele>
        <time>2017-08-04T14:43:11Z</time>
      </trkpt>
      <trkpt lat="50.5501" lon="2.96388">
        <ele>22.73</ele>
        <time>2017-08-04T14:43:28Z</time>
      </trkpt>
      <trkpt lat="50.55002" lon="2.96389">
        <ele>22.73</ele>
        <time>2017-08-04T14:43:30Z</time>
      </trkpt>
      <trkpt lat="50.54985" lon="2.96392">
        <ele>22.73</ele>
        <time>2017-08-04T14:43:34Z</time>
      </trkpt>
      <trkpt lat="50.54905" lon="2.9641">
        <ele>23.21</ele>
        <time>2017-08-04T14:43:53Z</time>
      </trkpt>
      <trkpt lat="50.54885" lon="2.9642">
        <ele>23.21</ele>
        <time>2017-08-04T14:43:58Z</time>
      </trkpt>
      <trkpt lat="50.5488" lon="2.96421">
        <ele>23.21</ele>
        <time>2017-08-04T14:43:59Z</time>
      </trkpt>
      <trkpt lat="50.5481" lon="2.96456">
        <ele>24.65</ele>
        <time>2017-08-04T14:44:16Z</time>
      </trkpt>
      <trkpt lat="50.54739" lon="2.96489">
        <ele>23.21</ele>
        <time>2017-08-04T14:44:33Z</time>
      </trkpt>
      <trkpt lat="50.54735" lon="2.96491">
        <ele>23.21</ele>
        <time>2017-08-04T14:44:34Z</time>
      </trkpt>
      <trkpt lat="50.54728" lon="2.96495">
        <ele>24.65</ele>
        <time>2017-08-04T14:44:36Z</time>
      </trkpt>
      <trkpt lat="50.54706" lon="2.96503">
        <ele>24.65</ele>
        <time>2017-08-04T14:44:41Z</time>
      </trkpt>
      <trkpt lat="50.54635" lon="2.96509">
        <ele>25.13</ele>
        <time>2017-08-04T14:44:58Z</time>
      </trkpt>
      <trkpt lat="50.54627" lon="2.96509">
        <ele>25.13</ele>
        <time>2017-08-04T14:45:00Z</time>
      </trkpt>
      <trkpt lat="50.54552" lon="2.96514">
        <ele>25.61</ele>
        <time>2017-08-04T14:45:18Z</time>
      </trkpt>
      <trkpt lat="50.54515" lon="2.96517">
        <ele>25.61</ele>
        <time>2017-08-04T14:45:27Z</time>
      </trkpt>
      <trkpt lat="50.54511" lon="2.96519">
        <ele>26.09</ele>
        <time>2017-08-04T14:45:28Z</time>
      </trkpt>
      <trkpt lat="50.54507" lon="2.96521">
        <ele>26.57</ele>
        <time>2017-08-04T14:45:29Z</time>
      </trkpt>
      <trkpt lat="50.54503" lon="2.96525">
        <ele>26.57</ele>
        <time>2017-08-04T14:45:30Z</time>
      </trkpt>
      <trkpt lat="50.545" lon="2.96528">
        <ele>26.57</ele>
        <time>2017-08-04T14:45:31Z</time>
      </trkpt>
      <trkpt lat="50.54496" lon="2.96532">
        <ele>25.61</ele>
        <time>2017-08-04T14:45:32Z</time>
      </trkpt>
      <trkpt lat="50.54478" lon="2.96551">
        <ele>26.57</ele>
        <time>2017-08-04T14:45:37Z</time>
      </trkpt>
      <trkpt lat="50.54468" lon="2.96564">
        <ele>26.57</ele>
        <time>2017-08-04T14:45:40Z</time>
      </trkpt>
      <trkpt lat="50.54445" lon="2.96588">
        <ele>26.57</ele>
        <time>2017-08-04T14:45:46Z</time>
      </trkpt>
      <trkpt lat="50.54408" lon="2.96627">
        <ele>25.61</ele>
        <time>2017-08-04T14:45:56Z</time>
      </trkpt>
      <trkpt lat="50.54384" lon="2.96649">
        <ele>25.61</ele>
        <time>2017-08-04T14:46:03Z</time>
      </trkpt>
      <trkpt lat="50.54381" lon="2.96648">
        <ele>25.61</ele>
        <time>2017-08-04T14:46:04Z</time>
      </trkpt>
      <trkpt lat="50.54377" lon="2.96645">
        <ele>25.61</ele>
        <time>2017-08-04T14:46:05Z</time>
      </trkpt>
      <trkpt lat="50.54374" lon="2.96641">
        <ele>25.61</ele>
        <time>2017-08-04T14:46:06Z</time>
      </trkpt>
      <trkpt lat="50.54372" lon="2.96638">
        <ele>25.61</ele>
        <time>2017-08-04T14:46:07Z</time>
      </trkpt>
      <trkpt lat="50.5437" lon="2.96633">
        <ele>25.61</ele>
        <time>2017-08-04T14:46:08Z</time>
      </trkpt>
      <trkpt lat="50.54368" lon="2.96628">
        <ele>25.61</ele>
        <time>2017-08-04T14:46:09Z</time>
      </trkpt>
      <trkpt lat="50.54366" lon="2.96623">
        <ele>25.61</ele>
        <time>2017-08-04T14:46:10Z</time>
      </trkpt>
      <trkpt lat="50.54364" lon="2.96618">
        <ele>25.61</ele>
        <time>2017-08-04T14:46:11Z</time>
      </trkpt>
      <trkpt lat="50.54363" lon="2.96613">
        <ele>25.61</ele>
        <time>2017-08-04T14:46:12Z</time>
      </trkpt>
      <trkpt lat="50.54346" lon="2.96574">
        <ele>25.61</ele>
        <time>2017-08-04T14:46:22Z</time>
      </trkpt>
      <trkpt lat="50.54343" lon="2.96575">
        <ele>25.61</ele>
        <time>2017-08-04T14:46:23Z</time>
      </trkpt>
      <trkpt lat="50.54342" lon="2.96578">
        <ele>25.61</ele>
        <time>2017-08-04T14:46:24Z</time>
      </trkpt>
      <trkpt lat="50.5434" lon="2.96581">
        <ele>25.61</ele>
        <time>2017-08-04T14:46:25Z</time>
      </trkpt>
      <trkpt lat="50.54339" lon="2.96583">
        <ele>25.61</ele>
        <time>2017-08-04T14:46:26Z</time>
      </trkpt>
      <trkpt lat="50.54338" lon="2.96586">
        <ele>25.61</ele>
        <time>2017-08-04T14:46:27Z</time>
      </trkpt>
      <trkpt lat="50.54336" lon="2.96587">
        <ele>25.61</ele>
        <time>2017-08-04T14:46:28Z</time>
      </trkpt>
      <trkpt lat="50.54334" lon="2.96587">
        <ele>25.61</ele>
        <time>2017-08-04T14:46:29Z</time>
      </trkpt>
      <trkpt lat="50.54333" lon="2.96587">
        <ele>25.61</ele>
        <time>2017-08-04T14:46:30Z</time>
      </trkpt>
      <trkpt lat="50.54324" lon="2.96588">
        <ele>27.05</ele>
        <time>2017-08-04T14:46:41Z</time>
      </trkpt>
      <trkpt lat="50.54312" lon="2.96592">
        <ele>26.09</ele>
        <time>2017-08-04T14:46:52Z</time>
      </trkpt>
      <trkpt lat="50.54301" lon="2.96595">
        <ele>25.61</ele>
        <time>2017-08-04T14:47:05Z</time>
      </trkpt>
      <trkpt lat="50.54294" lon="2.96597">
        <ele>25.61</ele>
        <time>2017-08-04T14:47:12Z</time>
      </trkpt>
      <trkpt lat="50.54293" lon="2.96593">
        <ele>26.57</ele>
        <time>2017-08-04T14:47:15Z</time>
      </trkpt>
      <trkpt lat="50.54291" lon="2.96575">
        <ele>25.61</ele>
        <time>2017-08-04T14:47:25Z</time>
      </trkpt>
      <trkpt lat="50.54291" lon="2.96571">
        <ele>25.61</ele>
        <time>2017-08-04T14:47:27Z</time>
      </trkpt>
      <trkpt lat="50.54304" lon="2.96568">
        <ele>25.61</ele>
        <time>2017-08-04T14:47:41Z</time>
      </trkpt>
      <trkpt lat="50.54307" lon="2.96568">
        <ele>25.61</ele>
        <time>2017-08-04T14:47:44Z</time>
      </trkpt>
      <trkpt lat="50.54309" lon="2.96565">
        <ele>25.61</ele>
        <time>2017-08-04T14:47:46Z</time>
      </trkpt>
      <trkpt lat="50.54311" lon="2.9655">
        <ele>26.09</ele>
        <time>2017-08-04T14:47:56Z</time>
      </trkpt>
      <trkpt lat="50.5431" lon="2.96546">
        <ele>26.57</ele>
        <time>2017-08-04T14:48:14Z</time>
      </trkpt>
      <trkpt lat="50.5431" lon="2.96544">
        <ele>25.61</ele>
        <time>2017-08-04T14:48:30Z</time>
      </trkpt>
      <trkpt lat="50.54308" lon="2.9654">
        <ele>25.61</ele>
        <time>2017-08-04T14:48:47Z</time>
      </trkpt>
      <trkpt lat="50.54308" lon="2.9654">
        <ele>25.61</ele>
        <time>2017-08-04T14:48:51Z</time>
      </trkpt>
      <trkpt lat="50.54304" lon="2.96538">
        <ele>27.05</ele>
        <time>2017-08-04T14:48:54Z</time>
      </trkpt>
      <trkpt lat="50.54301" lon="2.96538">
        <ele>25.61</ele>
        <time>2017-08-04T14:48:55Z</time>
      </trkpt>
      <trkpt lat="50.54299" lon="2.96538">
        <ele>25.61</ele>
        <time>2017-08-04T14:48:56Z</time>
      </trkpt>
      <trkpt lat="50.54296" lon="2.96539">
        <ele>27.05</ele>
        <time>2017-08-04T14:48:57Z</time>
      </trkpt>
      <trkpt lat="50.54294" lon="2.9654">
        <ele>27.05</ele>
        <time>2017-08-04T14:48:58Z</time>
      </trkpt>
      <trkpt lat="50.54287" lon="2.96543">
        <ele>27.05</ele>
        <time>2017-08-04T14:49:01Z</time>
      </trkpt>
      <trkpt lat="50.54286" lon="2.96546">
        <ele>27.05</ele>
        <time>2017-08-04T14:49:02Z</time>
      </trkpt>
      <trkpt lat="50.54284" lon="2.96553">
        <ele>27.05</ele>
        <time>2017-08-04T14:49:12Z</time>
      </trkpt>
      <trkpt lat="50.54284" lon="2.96553">
        <ele>26.09</ele>
        <time>2017-08-04T14:49:39Z</time>
      </trkpt>
      <trkpt lat="50.54279" lon="2.96551">
        <ele>26.09</ele>
        <time>2017-08-04T14:49:42Z</time>
      </trkpt>
      <trkpt lat="50.54276" lon="2.9655">
        <ele>26.09</ele>
        <time>2017-08-04T14:49:43Z</time>
      </trkpt>
      <trkpt lat="50.54273" lon="2.96551">
        <ele>25.13</ele>
        <time>2017-08-04T14:49:44Z</time>
      </trkpt>
      <trkpt lat="50.5427" lon="2.96551">
        <ele>25.13</ele>
        <time>2017-08-04T14:49:45Z</time>
      </trkpt>
      <trkpt lat="50.54267" lon="2.96553">
        <ele>25.13</ele>
        <time>2017-08-04T14:49:46Z</time>
      </trkpt>
      <trkpt lat="50.54214" lon="2.96582">
        <ele>27.53</ele>
        <time>2017-08-04T14:50:02Z</time>
      </trkpt>
      <trkpt lat="50.54153" lon="2.96623">
        <ele>25.61</ele>
        <time>2017-08-04T14:50:21Z</time>
      </trkpt>
      <trkpt lat="50.54088" lon="2.96655">
        <ele>27.53</ele>
        <time>2017-08-04T14:50:41Z</time>
      </trkpt>
      <trkpt lat="50.54033" lon="2.96672">
        <ele>27.53</ele>
        <time>2017-08-04T14:50:57Z</time>
      </trkpt>
      <trkpt lat="50.53981" lon="2.96685">
        <ele>28.02</ele>
        <time>2017-08-04T14:51:12Z</time>
      </trkpt>
      <trkpt lat="50.53967" lon="2.96689">
        <ele>26.57</ele>
        <time>2017-08-04T14:51:16Z</time>
      </trkpt>
      <trkpt lat="50.53917" lon="2.96703">
        <ele>28.02</ele>
        <time>2017-08-04T14:51:31Z</time>
      </trkpt>
      <trkpt lat="50.53865" lon="2.96718">
        <ele>28.98</ele>
        <time>2017-08-04T14:51:47Z</time>
      </trkpt>
      <trkpt lat="50.53815" lon="2.96731">
        <ele>28.98</ele>
        <time>2017-08-04T14:52:00Z</time>
      </trkpt>
      <trkpt lat="50.53788" lon="2.96739">
        <ele>27.53</ele>
        <time>2017-08-04T14:52:07Z</time>
      </trkpt>
      <trkpt lat="50.53729" lon="2.96753">
        <ele>27.53</ele>
        <time>2017-08-04T14:52:23Z</time>
      </trkpt>
      <trkpt lat="50.5371" lon="2.96781">
        <ele>29.46</ele>
        <time>2017-08-04T14:52:34Z</time>
      </trkpt>
      <trkpt lat="50.53729" lon="2.96859">
        <ele>29.46</ele>
        <time>2017-08-04T14:52:49Z</time>
      </trkpt>
      <trkpt lat="50.53746" lon="2.96931">
        <ele>29.46</ele>
        <time>2017-08-04T14:53:03Z</time>
      </trkpt>
      <trkpt lat="50.53763" lon="2.97011">
        <ele>29.46</ele>
        <time>2017-08-04T14:53:18Z</time>
      </trkpt>
      <trkpt lat="50.53788" lon="2.97132">
        <ele>29.46</ele>
        <time>2017-08-04T14:53:37Z</time>
      </trkpt>
      <trkpt lat="50.53803" lon="2.97219">
        <ele>29.46</ele>
        <time>2017-08-04T14:53:52Z</time>
      </trkpt>
      <trkpt lat="50.53826" lon="2.97323">
        <ele>29.46</ele>
        <time>2017-08-04T14:54:09Z</time>
      </trkpt>
      <trkpt lat="50.53851" lon="2.9744">
        <ele>29.46</ele>
        <time>2017-08-04T14:54:28Z</time>
      </trkpt>
      <trkpt lat="50.53875" lon="2.97547">
        <ele>29.46</ele>
        <time>2017-08-04T14:54:44Z</time>
      </trkpt>
      <trkpt lat="50.53897" lon="2.97664">
        <ele>29.46</ele>
        <time>2017-08-04T14:55:01Z</time>
      </trkpt>
      <trkpt lat="50.53908" lon="2.97734">
        <ele>29.46</ele>
        <time>2017-08-04T14:55:15Z</time>
      </trkpt>
      <trkpt lat="50.53908" lon="2.97737">
        <ele>29.46</ele>
        <time>2017-08-04T14:55:28Z</time>
      </trkpt>
      <trkpt lat="50.53907" lon="2.97745">
        <ele>29.46</ele>
        <time>2017-08-04T14:55:30Z</time>
      </trkpt>
      <trkpt lat="50.53908" lon="2.97749">
        <ele>29.46</ele>
        <time>2017-08-04T14:55:31Z</time>
      </trkpt>
      <trkpt lat="50.5391" lon="2.97755">
        <ele>29.46</ele>
        <time>2017-08-04T14:55:32Z</time>
      </trkpt>
      <trkpt lat="50.53912" lon="2.9776">
        <ele>29.46</ele>
        <time>2017-08-04T14:55:33Z</time>
      </trkpt>
      <trkpt lat="50.53913" lon="2.97765">
        <ele>29.46</ele>
        <time>2017-08-04T14:55:34Z</time>
      </trkpt>
      <trkpt lat="50.53914" lon="2.9777">
        <ele>29.46</ele>
        <time>2017-08-04T14:55:35Z</time>
      </trkpt>
      <trkpt lat="50.53933" lon="2.9788">
        <ele>29.46</ele>
        <time>2017-08-04T14:55:50Z</time>
      </trkpt>
      <trkpt lat="50.53937" lon="2.97904">
        <ele>28.02</ele>
        <time>2017-08-04T14:55:53Z</time>
      </trkpt>
      <trkpt lat="50.53958" lon="2.98066">
        <ele>27.53</ele>
        <time>2017-08-04T14:56:12Z</time>
      </trkpt>
      <trkpt lat="50.53962" lon="2.98151">
        <ele>27.53</ele>
        <time>2017-08-04T14:56:23Z</time>
      </trkpt>
      <trkpt lat="50.53964" lon="2.98156">
        <ele>27.53</ele>
        <time>2017-08-04T14:56:24Z</time>
      </trkpt>
      <trkpt lat="50.53968" lon="2.98159">
        <ele>27.53</ele>
        <time>2017-08-04T14:56:25Z</time>
      </trkpt>
      <trkpt lat="50.53971" lon="2.9816">
        <ele>27.53</ele>
        <time>2017-08-04T14:56:26Z</time>
      </trkpt>
      <trkpt lat="50.53975" lon="2.98162">
        <ele>27.53</ele>
        <time>2017-08-04T14:56:27Z</time>
      </trkpt>
      <trkpt lat="50.53991" lon="2.98171">
        <ele>27.53</ele>
        <time>2017-08-04T14:56:32Z</time>
      </trkpt>
      <trkpt lat="50.53992" lon="2.98175">
        <ele>27.53</ele>
        <time>2017-08-04T14:56:33Z</time>
      </trkpt>
      <trkpt lat="50.53992" lon="2.98178">
        <ele>27.53</ele>
        <time>2017-08-04T14:56:34Z</time>
      </trkpt>
      <trkpt lat="50.53995" lon="2.98212">
        <ele>27.53</ele>
        <time>2017-08-04T14:56:40Z</time>
      </trkpt>
      <trkpt lat="50.53996" lon="2.98224">
        <ele>27.53</ele>
        <time>2017-08-04T14:56:42Z</time>
      </trkpt>
      <trkpt lat="50.54" lon="2.98264">
        <ele>27.53</ele>
        <time>2017-08-04T14:56:48Z</time>
      </trkpt>
      <trkpt lat="50.54008" lon="2.98327">
        <ele>27.05</ele>
        <time>2017-08-04T14:56:57Z</time>
      </trkpt>
      <trkpt lat="50.54011" lon="2.9835">
        <ele>27.05</ele>
        <time>2017-08-04T14:57:00Z</time>
      </trkpt>
      <trkpt lat="50.54015" lon="2.98389">
        <ele>27.05</ele>
        <time>2017-08-04T14:57:06Z</time>
      </trkpt>
      <trkpt lat="50.54016" lon="2.98396">
        <ele>27.05</ele>
        <time>2017-08-04T14:57:07Z</time>
      </trkpt>
      <trkpt lat="50.54016" lon="2.98402">
        <ele>27.05</ele>
        <time>2017-08-04T14:57:08Z</time>
      </trkpt>
      <trkpt lat="50.54015" lon="2.98408">
        <ele>27.05</ele>
        <time>2017-08-04T14:57:09Z</time>
      </trkpt>
      <trkpt lat="50.54015" lon="2.98414">
        <ele>27.05</ele>
        <time>2017-08-04T14:57:10Z</time>
      </trkpt>
      <trkpt lat="50.54016" lon="2.98419">
        <ele>27.05</ele>
        <time>2017-08-04T14:57:11Z</time>
      </trkpt>
      <trkpt lat="50.54016" lon="2.98423">
        <ele>27.05</ele>
        <time>2017-08-04T14:57:12Z</time>
      </trkpt>
      <trkpt lat="50.54016" lon="2.98427">
        <ele>27.05</ele>
        <time>2017-08-04T14:57:13Z</time>
      </trkpt>
      <trkpt lat="50.54015" lon="2.98429">
        <ele>27.05</ele>
        <time>2017-08-04T14:57:14Z</time>
      </trkpt>
      <trkpt lat="50.54014" lon="2.98431">
        <ele>27.05</ele>
        <time>2017-08-04T14:57:15Z</time>
      </trkpt>
      <trkpt lat="50.54012" lon="2.98433">
        <ele>27.05</ele>
        <time>2017-08-04T14:57:16Z</time>
      </trkpt>
      <trkpt lat="50.54011" lon="2.98433">
        <ele>27.05</ele>
        <time>2017-08-04T14:57:17Z</time>
      </trkpt>
      <trkpt lat="50.5401" lon="2.98432">
        <ele>27.05</ele>
        <time>2017-08-04T14:57:18Z</time>
      </trkpt>
      <trkpt lat="50.54007" lon="2.98431">
        <ele>27.05</ele>
        <time>2017-08-04T14:57:20Z</time>
      </trkpt>
      <trkpt lat="50.54005" lon="2.98432">
        <ele>27.05</ele>
        <time>2017-08-04T14:57:21Z</time>
      </trkpt>
      <trkpt lat="50.54001" lon="2.98434">
        <ele>27.05</ele>
        <time>2017-08-04T14:57:24Z</time>
      </trkpt>
      <trkpt lat="50.54" lon="2.98437">
        <ele>27.05</ele>
        <time>2017-08-04T14:57:25Z</time>
      </trkpt>
      <trkpt lat="50.54001" lon="2.98444">
        <ele>27.05</ele>
        <time>2017-08-04T14:57:27Z</time>
      </trkpt>
      <trkpt lat="50.54002" lon="2.9845">
        <ele>27.05</ele>
        <time>2017-08-04T14:57:28Z</time>
      </trkpt>
      <trkpt lat="50.54002" lon="2.98455">
        <ele>27.05</ele>
        <time>2017-08-04T14:57:29Z</time>
      </trkpt>
      <trkpt lat="50.53999" lon="2.98552">
        <ele>27.05</ele>
        <time>2017-08-04T14:57:45Z</time>
      </trkpt>
      <trkpt lat="50.53999" lon="2.98581">
        <ele>27.05</ele>
        <time>2017-08-04T14:57:50Z</time>
      </trkpt>
      <trkpt lat="50.53998" lon="2.98587">
        <ele>27.05</ele>
        <time>2017-08-04T14:57:51Z</time>
      </trkpt>
      <trkpt lat="50.53998" lon="2.98594">
        <ele>27.05</ele>
        <time>2017-08-04T14:57:52Z</time>
      </trkpt>
      <trkpt lat="50.53996" lon="2.98664">
        <ele>27.05</ele>
        <time>2017-08-04T14:58:02Z</time>
      </trkpt>
      <trkpt lat="50.53996" lon="2.9867">
        <ele>27.05</ele>
        <time>2017-08-04T14:58:03Z</time>
      </trkpt>
      <trkpt lat="50.53996" lon="2.98691">
        <ele>28.5</ele>
        <time>2017-08-04T14:58:06Z</time>
      </trkpt>
      <trkpt lat="50.53993" lon="2.98723">
        <ele>28.5</ele>
        <time>2017-08-04T14:58:14Z</time>
      </trkpt>
      <trkpt lat="50.53994" lon="2.98726">
        <ele>28.5</ele>
        <time>2017-08-04T14:58:15Z</time>
      </trkpt>
      <trkpt lat="50.53996" lon="2.98752">
        <ele>27.05</ele>
        <time>2017-08-04T14:58:20Z</time>
      </trkpt>
      <trkpt lat="50.53996" lon="2.98758">
        <ele>27.05</ele>
        <time>2017-08-04T14:58:21Z</time>
      </trkpt>
      <trkpt lat="50.54" lon="2.98844">
        <ele>27.05</ele>
        <time>2017-08-04T14:58:34Z</time>
      </trkpt>
      <trkpt lat="50.54001" lon="2.98858">
        <ele>27.53</ele>
        <time>2017-08-04T14:58:36Z</time>
      </trkpt>
      <trkpt lat="50.54016" lon="2.98946">
        <ele>27.53</ele>
        <time>2017-08-04T14:58:50Z</time>
      </trkpt>
      <trkpt lat="50.54018" lon="2.98966">
        <ele>27.53</ele>
        <time>2017-08-04T14:58:54Z</time>
      </trkpt>
      <trkpt lat="50.54017" lon="2.98969">
        <ele>27.53</ele>
        <time>2017-08-04T14:58:55Z</time>
      </trkpt>
      <trkpt lat="50.54018" lon="2.98978">
        <ele>27.53</ele>
        <time>2017-08-04T14:59:05Z</time>
      </trkpt>
      <trkpt lat="50.5403" lon="2.99031">
        <ele>27.53</ele>
        <time>2017-08-04T14:59:14Z</time>
      </trkpt>
      <trkpt lat="50.54034" lon="2.99045">
        <ele>27.53</ele>
        <time>2017-08-04T14:59:16Z</time>
      </trkpt>
      <trkpt lat="50.54037" lon="2.99059">
        <ele>27.05</ele>
        <time>2017-08-04T14:59:18Z</time>
      </trkpt>
      <trkpt lat="50.54039" lon="2.99065">
        <ele>27.05</ele>
        <time>2017-08-04T14:59:19Z</time>
      </trkpt>
      <trkpt lat="50.54063" lon="2.99123">
        <ele>27.05</ele>
        <time>2017-08-04T14:59:29Z</time>
      </trkpt>
      <trkpt lat="50.54066" lon="2.99125">
        <ele>27.05</ele>
        <time>2017-08-04T14:59:30Z</time>
      </trkpt>
      <trkpt lat="50.54067" lon="2.99128">
        <ele>27.05</ele>
        <time>2017-08-04T14:59:31Z</time>
      </trkpt>
      <trkpt lat="50.54068" lon="2.99132">
        <ele>27.05</ele>
        <time>2017-08-04T14:59:32Z</time>
      </trkpt>
      <trkpt lat="50.54069" lon="2.99138">
        <ele>27.05</ele>
        <time>2017-08-04T14:59:34Z</time>
      </trkpt>
      <trkpt lat="50.54074" lon="2.99161">
        <ele>26.57</ele>
        <time>2017-08-04T14:59:39Z</time>
      </trkpt>
      <trkpt lat="50.54076" lon="2.99162">
        <ele>26.57</ele>
        <time>2017-08-04T14:59:40Z</time>
      </trkpt>
      <trkpt lat="50.54084" lon="2.99161">
        <ele>26.57</ele>
        <time>2017-08-04T14:59:43Z</time>
      </trkpt>
      <trkpt lat="50.54085" lon="2.99158">
        <ele>26.57</ele>
        <time>2017-08-04T14:59:44Z</time>
      </trkpt>
      <trkpt lat="50.54087" lon="2.99155">
        <ele>26.57</ele>
        <time>2017-08-04T14:59:45Z</time>
      </trkpt>
      <trkpt lat="50.54088" lon="2.99151">
        <ele>26.57</ele>
        <time>2017-08-04T14:59:46Z</time>
      </trkpt>
      <trkpt lat="50.5409" lon="2.99147">
        <ele>26.57</ele>
        <time>2017-08-04T14:59:47Z</time>
      </trkpt>
      <trkpt lat="50.54091" lon="2.99133">
        <ele>26.57</ele>
        <time>2017-08-04T14:59:50Z</time>
      </trkpt>
      <trkpt lat="50.54092" lon="2.99128">
        <ele>26.57</ele>
        <time>2017-08-04T14:59:51Z</time>
      </trkpt>
      <trkpt lat="50.54092" lon="2.99121">
        <ele>26.57</ele>
        <time>2017-08-04T14:59:53Z</time>
      </trkpt>
      <trkpt lat="50.54094" lon="2.99119">
        <ele>26.57</ele>
        <time>2017-08-04T14:59:54Z</time>
      </trkpt>
      <trkpt lat="50.54096" lon="2.99118">
        <ele>26.57</ele>
        <time>2017-08-04T14:59:55Z</time>
      </trkpt>
      <trkpt lat="50.54099" lon="2.99118">
        <ele>26.57</ele>
        <time>2017-08-04T14:59:56Z</time>
      </trkpt>
      <trkpt lat="50.54101" lon="2.99118">
        <ele>26.57</ele>
        <time>2017-08-04T14:59:57Z</time>
      </trkpt>
      <trkpt lat="50.54104" lon="2.99118">
        <ele>26.57</ele>
        <time>2017-08-04T14:59:58Z</time>
      </trkpt>
      <trkpt lat="50.54106" lon="2.99117">
        <ele>26.57</ele>
        <time>2017-08-04T14:59:59Z</time>
      </trkpt>
      <trkpt lat="50.54116" lon="2.99111">
        <ele>26.57</ele>
        <time>2017-08-04T15:00:03Z</time>
      </trkpt>
      <trkpt lat="50.54117" lon="2.99108">
        <ele>26.57</ele>
        <time>2017-08-04T15:00:04Z</time>
      </trkpt>
      <trkpt lat="50.54117" lon="2.99105">
        <ele>26.57</ele>
        <time>2017-08-04T15:00:05Z</time>
      </trkpt>
      <trkpt lat="50.54117" lon="2.99102">
        <ele>26.57</ele>
        <time>2017-08-04T15:00:06Z</time>
      </trkpt>
      <trkpt lat="50.54117" lon="2.99098">
        <ele>26.57</ele>
        <time>2017-08-04T15:00:07Z</time>
      </trkpt>
      <trkpt lat="50.5412" lon="2.9906">
        <ele>27.53</ele>
        <time>2017-08-04T15:00:19Z</time>
      </trkpt>
      <trkpt lat="50.5412" lon="2.99057">
        <ele>27.53</ele>
        <time>2017-08-04T15:00:20Z</time>
      </trkpt>
      <trkpt lat="50.54118" lon="2.99053">
        <ele>25.61</ele>
        <time>2017-08-04T15:00:22Z</time>
      </trkpt>
      <trkpt lat="50.54117" lon="2.99053">
        <ele>26.09</ele>
        <time>2017-08-04T15:00:23Z</time>
      </trkpt>
      <trkpt lat="50.54115" lon="2.99053">
        <ele>28.02</ele>
        <time>2017-08-04T15:00:24Z</time>
      </trkpt>
      <trkpt lat="50.54114" lon="2.99053">
        <ele>28.02</ele>
        <time>2017-08-04T15:00:25Z</time>
      </trkpt>
      <trkpt lat="50.54114" lon="2.99057">
        <ele>28.02</ele>
        <time>2017-08-04T15:00:36Z</time>
      </trkpt>
      <trkpt lat="50.54113" lon="2.99057">
        <ele>28.02</ele>
        <time>2017-08-04T15:01:09Z</time>
      </trkpt>
      <trkpt lat="50.54116" lon="2.99055">
        <ele>28.02</ele>
        <time>2017-08-04T15:01:42Z</time>
      </trkpt>
      <trkpt lat="50.54113" lon="2.99061">
        <ele>28.02</ele>
        <time>2017-08-04T15:02:10Z</time>
      </trkpt>
      <trkpt lat="50.54115" lon="2.99057">
        <ele>28.02</ele>
        <time>2017-08-04T15:02:38Z</time>
      </trkpt>
      <trkpt lat="50.54116" lon="2.99055">
        <ele>28.02</ele>
        <time>2017-08-04T15:03:05Z</time>
      </trkpt>
      <trkpt lat="50.54112" lon="2.99058">
        <ele>28.5</ele>
        <time>2017-08-04T15:03:46Z</time>
      </trkpt>
      <trkpt lat="50.54116" lon="2.99055">
        <ele>28.5</ele>
        <time>2017-08-04T15:04:16Z</time>
      </trkpt>
      <trkpt lat="50.54117" lon="2.99056">
        <ele>28.5</ele>
        <time>2017-08-04T15:04:44Z</time>
      </trkpt>
      <trkpt lat="50.54115" lon="2.99057">
        <ele>28.5</ele>
        <time>2017-08-04T15:05:06Z</time>
      </trkpt>
      <trkpt lat="50.54116" lon="2.99057">
        <ele>28.5</ele>
        <time>2017-08-04T15:05:35Z</time>
      </trkpt>
      <trkpt lat="50.5412" lon="2.99052">
        <ele>28.98</ele>
        <time>2017-08-04T15:06:05Z</time>
      </trkpt>
      <trkpt lat="50.54117" lon="2.99054">
        <ele>28.02</ele>
        <time>2017-08-04T15:06:33Z</time>
      </trkpt>
      <trkpt lat="50.54113" lon="2.99057">
        <ele>28.02</ele>
        <time>2017-08-04T15:06:54Z</time>
      </trkpt>
      <trkpt lat="50.54117" lon="2.99054">
        <ele>28.02</ele>
        <time>2017-08-04T15:07:25Z</time>
      </trkpt>
      <trkpt lat="50.54116" lon="2.99053">
        <ele>28.02</ele>
        <time>2017-08-04T15:07:42Z</time>
      </trkpt>
      <trkpt lat="50.54117" lon="2.99053">
        <ele>28.02</ele>
        <time>2017-08-04T15:07:43Z</time>
      </trkpt>
      <trkpt lat="50.54119" lon="2.99058">
        <ele>28.02</ele>
        <time>2017-08-04T15:07:50Z</time>
      </trkpt>
      <trkpt lat="50.5412" lon="2.99061">
        <ele>28.02</ele>
        <time>2017-08-04T15:07:52Z</time>
      </trkpt>
      <trkpt lat="50.5412" lon="2.99066">
        <ele>28.02</ele>
        <time>2017-08-04T15:07:53Z</time>
      </trkpt>
      <trkpt lat="50.54119" lon="2.99069">
        <ele>28.02</ele>
        <time>2017-08-04T15:07:54Z</time>
      </trkpt>
      <trkpt lat="50.54119" lon="2.99072">
        <ele>28.02</ele>
        <time>2017-08-04T15:07:55Z</time>
      </trkpt>
      <trkpt lat="50.54118" lon="2.99076">
        <ele>28.02</ele>
        <time>2017-08-04T15:07:56Z</time>
      </trkpt>
      <trkpt lat="50.54117" lon="2.99079">
        <ele>28.02</ele>
        <time>2017-08-04T15:07:57Z</time>
      </trkpt>
      <trkpt lat="50.54117" lon="2.99089">
        <ele>28.02</ele>
        <time>2017-08-04T15:07:59Z</time>
      </trkpt>
      <trkpt lat="50.54118" lon="2.99093">
        <ele>28.02</ele>
        <time>2017-08-04T15:08:00Z</time>
      </trkpt>
      <trkpt lat="50.54117" lon="2.99097">
        <ele>28.02</ele>
        <time>2017-08-04T15:08:01Z</time>
      </trkpt>
      <trkpt lat="50.54117" lon="2.99102">
        <ele>28.02</ele>
        <time>2017-08-04T15:08:02Z</time>
      </trkpt>
      <trkpt lat="50.54116" lon="2.99107">
        <ele>28.02</ele>
        <time>2017-08-04T15:08:03Z</time>
      </trkpt>
      <trkpt lat="50.54114" lon="2.99111">
        <ele>28.02</ele>
        <time>2017-08-04T15:08:04Z</time>
      </trkpt>
      <trkpt lat="50.54111" lon="2.99114">
        <ele>28.02</ele>
        <time>2017-08-04T15:08:05Z</time>
      </trkpt>
      <trkpt lat="50.54108" lon="2.99116">
        <ele>28.02</ele>
        <time>2017-08-04T15:08:06Z</time>
      </trkpt>
      <trkpt lat="50.54105" lon="2.99117">
        <ele>28.02</ele>
        <time>2017-08-04T15:08:07Z</time>
      </trkpt>
      <trkpt lat="50.54102" lon="2.99117">
        <ele>28.02</ele>
        <time>2017-08-04T15:08:08Z</time>
      </trkpt>
      <trkpt lat="50.54099" lon="2.99117">
        <ele>28.02</ele>
        <time>2017-08-04T15:08:09Z</time>
      </trkpt>
      <trkpt lat="50.54095" lon="2.99118">
        <ele>28.02</ele>
        <time>2017-08-04T15:08:10Z</time>
      </trkpt>
      <trkpt lat="50.54073" lon="2.99127">
        <ele>27.53</ele>
        <time>2017-08-04T15:08:18Z</time>
      </trkpt>
      <trkpt lat="50.54072" lon="2.99133">
        <ele>27.53</ele>
        <time>2017-08-04T15:08:19Z</time>
      </trkpt>
      <trkpt lat="50.54072" lon="2.99139">
        <ele>27.53</ele>
        <time>2017-08-04T15:08:20Z</time>
      </trkpt>
      <trkpt lat="50.54072" lon="2.99141">
        <ele>27.53</ele>
        <time>2017-08-04T15:08:21Z</time>
      </trkpt>
      <trkpt lat="50.54072" lon="2.99146">
        <ele>27.53</ele>
        <time>2017-08-04T15:08:22Z</time>
      </trkpt>
      <trkpt lat="50.54073" lon="2.99151">
        <ele>27.53</ele>
        <time>2017-08-04T15:08:23Z</time>
      </trkpt>
      <trkpt lat="50.54076" lon="2.99175">
        <ele>27.53</ele>
        <time>2017-08-04T15:08:27Z</time>
      </trkpt>
      <trkpt lat="50.54082" lon="2.99252">
        <ele>27.53</ele>
        <time>2017-08-04T15:08:38Z</time>
      </trkpt>
      <trkpt lat="50.54083" lon="2.99259">
        <ele>27.53</ele>
        <time>2017-08-04T15:08:39Z</time>
      </trkpt>
      <trkpt lat="50.54083" lon="2.99265">
        <ele>27.53</ele>
        <time>2017-08-04T15:08:40Z</time>
      </trkpt>
      <trkpt lat="50.54094" lon="2.9939">
        <ele>27.53</ele>
        <time>2017-08-04T15:08:57Z</time>
      </trkpt>
      <trkpt lat="50.54095" lon="2.99426">
        <ele>27.53</ele>
        <time>2017-08-04T15:09:02Z</time>
      </trkpt>
      <trkpt lat="50.54091" lon="2.99573">
        <ele>27.53</ele>
        <time>2017-08-04T15:09:22Z</time>
      </trkpt>
      <trkpt lat="50.54079" lon="2.99717">
        <ele>27.05</ele>
        <time>2017-08-04T15:09:40Z</time>
      </trkpt>
      <trkpt lat="50.54072" lon="2.99804">
        <ele>27.53</ele>
        <time>2017-08-04T15:09:51Z</time>
      </trkpt>
      <trkpt lat="50.54072" lon="2.99811">
        <ele>27.53</ele>
        <time>2017-08-04T15:09:52Z</time>
      </trkpt>
      <trkpt lat="50.54074" lon="2.99819">
        <ele>27.53</ele>
        <time>2017-08-04T15:09:53Z</time>
      </trkpt>
      <trkpt lat="50.54075" lon="2.99825">
        <ele>27.53</ele>
        <time>2017-08-04T15:09:54Z</time>
      </trkpt>
      <trkpt lat="50.54076" lon="2.99831">
        <ele>27.53</ele>
        <time>2017-08-04T15:09:55Z</time>
      </trkpt>
      <trkpt lat="50.54075" lon="2.99838">
        <ele>27.53</ele>
        <time>2017-08-04T15:09:56Z</time>
      </trkpt>
      <trkpt lat="50.54074" lon="2.99845">
        <ele>27.53</ele>
        <time>2017-08-04T15:09:57Z</time>
      </trkpt>
      <trkpt lat="50.54073" lon="2.99852">
        <ele>27.53</ele>
        <time>2017-08-04T15:09:58Z</time>
      </trkpt>
      <trkpt lat="50.5406" lon="2.99993">
        <ele>27.53</ele>
        <time>2017-08-04T15:10:18Z</time>
      </trkpt>
      <trkpt lat="50.54048" lon="3.00136">
        <ele>27.53</ele>
        <time>2017-08-04T15:10:37Z</time>
      </trkpt>
      <trkpt lat="50.54037" lon="3.00259">
        <ele>27.53</ele>
        <time>2017-08-04T15:10:54Z</time>
      </trkpt>
      <trkpt lat="50.54029" lon="3.00355">
        <ele>28.02</ele>
        <time>2017-08-04T15:11:08Z</time>
      </trkpt>
      <trkpt lat="50.54028" lon="3.00368">
        <ele>28.02</ele>
        <time>2017-08-04T15:11:10Z</time>
      </trkpt>
      <trkpt lat="50.54027" lon="3.0038">
        <ele>28.02</ele>
        <time>2017-08-04T15:11:12Z</time>
      </trkpt>
      <trkpt lat="50.54026" lon="3.00387">
        <ele>28.02</ele>
        <time>2017-08-04T15:11:13Z</time>
      </trkpt>
      <trkpt lat="50.54019" lon="3.00468">
        <ele>26.57</ele>
        <time>2017-08-04T15:11:25Z</time>
      </trkpt>
      <trkpt lat="50.54018" lon="3.00487">
        <ele>28.02</ele>
        <time>2017-08-04T15:11:28Z</time>
      </trkpt>
      <trkpt lat="50.54004" lon="3.00635">
        <ele>28.02</ele>
        <time>2017-08-04T15:11:50Z</time>
      </trkpt>
      <trkpt lat="50.54" lon="3.00681">
        <ele>28.02</ele>
        <time>2017-08-04T15:11:57Z</time>
      </trkpt>
      <trkpt lat="50.53999" lon="3.00687">
        <ele>28.02</ele>
        <time>2017-08-04T15:11:58Z</time>
      </trkpt>
      <trkpt lat="50.53998" lon="3.00701">
        <ele>28.02</ele>
        <time>2017-08-04T15:12:00Z</time>
      </trkpt>
      <trkpt lat="50.53998" lon="3.00708">
        <ele>28.02</ele>
        <time>2017-08-04T15:12:01Z</time>
      </trkpt>
      <trkpt lat="50.53988" lon="3.00797">
        <ele>28.5</ele>
        <time>2017-08-04T15:12:16Z</time>
      </trkpt>
      <trkpt lat="50.53988" lon="3.00801">
        <ele>28.98</ele>
        <time>2017-08-04T15:12:22Z</time>
      </trkpt>
      <trkpt lat="50.53988" lon="3.00806">
        <ele>29.46</ele>
        <time>2017-08-04T15:12:25Z</time>
      </trkpt>
      <trkpt lat="50.53989" lon="3.00819">
        <ele>27.53</ele>
        <time>2017-08-04T15:12:32Z</time>
      </trkpt>
      <trkpt lat="50.53989" lon="3.00821">
        <ele>27.53</ele>
        <time>2017-08-04T15:12:33Z</time>
      </trkpt>
      <trkpt lat="50.53987" lon="3.00825">
        <ele>27.53</ele>
        <time>2017-08-04T15:12:37Z</time>
      </trkpt>
      <trkpt lat="50.53987" lon="3.00827">
        <ele>27.53</ele>
        <time>2017-08-04T15:12:38Z</time>
      </trkpt>
      <trkpt lat="50.53983" lon="3.00878">
        <ele>28.02</ele>
        <time>2017-08-04T15:12:51Z</time>
      </trkpt>
      <trkpt lat="50.53977" lon="3.00944">
        <ele>28.02</ele>
        <time>2017-08-04T15:13:04Z</time>
      </trkpt>
      <trkpt lat="50.53969" lon="3.01035">
        <ele>28.02</ele>
        <time>2017-08-04T15:13:20Z</time>
      </trkpt>
      <trkpt lat="50.53958" lon="3.01149">
        <ele>28.02</ele>
        <time>2017-08-04T15:13:37Z</time>
      </trkpt>
      <trkpt lat="50.53949" lon="3.01254">
        <ele>28.02</ele>
        <time>2017-08-04T15:13:53Z</time>
      </trkpt>
      <trkpt lat="50.53939" lon="3.01361">
        <ele>28.02</ele>
        <time>2017-08-04T15:14:10Z</time>
      </trkpt>
      <trkpt lat="50.53929" lon="3.0147">
        <ele>28.02</ele>
        <time>2017-08-04T15:14:28Z</time>
      </trkpt>
      <trkpt lat="50.53923" lon="3.01553">
        <ele>28.02</ele>
        <time>2017-08-04T15:14:42Z</time>
      </trkpt>
      <trkpt lat="50.53915" lon="3.01638">
        <ele>28.02</ele>
        <time>2017-08-04T15:14:56Z</time>
      </trkpt>
      <trkpt lat="50.53905" lon="3.01752">
        <ele>28.02</ele>
        <time>2017-08-04T15:15:14Z</time>
      </trkpt>
      <trkpt lat="50.539" lon="3.01817">
        <ele>28.02</ele>
        <time>2017-08-04T15:15:26Z</time>
      </trkpt>
      <trkpt lat="50.53893" lon="3.01854">
        <ele>29.46</ele>
        <time>2017-08-04T15:15:36Z</time>
      </trkpt>
      <trkpt lat="50.53891" lon="3.01856">
        <ele>29.94</ele>
        <time>2017-08-04T15:15:52Z</time>
      </trkpt>
      <trkpt lat="50.53892" lon="3.01858">
        <ele>29.94</ele>
        <time>2017-08-04T15:16:06Z</time>
      </trkpt>
      <trkpt lat="50.53892" lon="3.01859">
        <ele>29.94</ele>
        <time>2017-08-04T15:16:07Z</time>
      </trkpt>
      <trkpt lat="50.5389" lon="3.01861">
        <ele>29.94</ele>
        <time>2017-08-04T15:16:08Z</time>
      </trkpt>
      <trkpt lat="50.53889" lon="3.01864">
        <ele>30.42</ele>
        <time>2017-08-04T15:16:09Z</time>
      </trkpt>
      <trkpt lat="50.53887" lon="3.01868">
        <ele>30.42</ele>
        <time>2017-08-04T15:16:10Z</time>
      </trkpt>
      <trkpt lat="50.53886" lon="3.01872">
        <ele>30.42</ele>
        <time>2017-08-04T15:16:11Z</time>
      </trkpt>
      <trkpt lat="50.53885" lon="3.01877">
        <ele>29.94</ele>
        <time>2017-08-04T15:16:12Z</time>
      </trkpt>
      <trkpt lat="50.5387" lon="3.01923">
        <ele>29.94</ele>
        <time>2017-08-04T15:16:22Z</time>
      </trkpt>
      <trkpt lat="50.53867" lon="3.01931">
        <ele>30.42</ele>
        <time>2017-08-04T15:16:24Z</time>
      </trkpt>
      <trkpt lat="50.53867" lon="3.01936">
        <ele>30.42</ele>
        <time>2017-08-04T15:16:25Z</time>
      </trkpt>
      <trkpt lat="50.5387" lon="3.01958">
        <ele>30.42</ele>
        <time>2017-08-04T15:16:29Z</time>
      </trkpt>
      <trkpt lat="50.53872" lon="3.01962">
        <ele>30.42</ele>
        <time>2017-08-04T15:16:30Z</time>
      </trkpt>
      <trkpt lat="50.53875" lon="3.01966">
        <ele>30.42</ele>
        <time>2017-08-04T15:16:31Z</time>
      </trkpt>
      <trkpt lat="50.53878" lon="3.01968">
        <ele>30.42</ele>
        <time>2017-08-04T15:16:32Z</time>
      </trkpt>
      <trkpt lat="50.53881" lon="3.01971">
        <ele>30.42</ele>
        <time>2017-08-04T15:16:33Z</time>
      </trkpt>
      <trkpt lat="50.53892" lon="3.01982">
        <ele>30.42</ele>
        <time>2017-08-04T15:16:37Z</time>
      </trkpt>
      <trkpt lat="50.53892" lon="3.01984">
        <ele>30.42</ele>
        <time>2017-08-04T15:16:38Z</time>
      </trkpt>
      <trkpt lat="50.53889" lon="3.01989">
        <ele>28.5</ele>
        <time>2017-08-04T15:16:40Z</time>
      </trkpt>
      <trkpt lat="50.53884" lon="3.02004">
        <ele>29.94</ele>
        <time>2017-08-04T15:16:44Z</time>
      </trkpt>
      <trkpt lat="50.53879" lon="3.02071">
        <ele>30.42</ele>
        <time>2017-08-04T15:16:56Z</time>
      </trkpt>
      <trkpt lat="50.53869" lon="3.02126">
        <ele>30.42</ele>
        <time>2017-08-04T15:17:07Z</time>
      </trkpt>
      <trkpt lat="50.53861" lon="3.0216">
        <ele>30.42</ele>
        <time>2017-08-04T15:17:14Z</time>
      </trkpt>
      <trkpt lat="50.53861" lon="3.02219">
        <ele>30.9</ele>
        <time>2017-08-04T15:17:25Z</time>
      </trkpt>
      <trkpt lat="50.5386" lon="3.02266">
        <ele>31.86</ele>
        <time>2017-08-04T15:17:34Z</time>
      </trkpt>
      <trkpt lat="50.53852" lon="3.02346">
        <ele>31.86</ele>
        <time>2017-08-04T15:17:48Z</time>
      </trkpt>
      <trkpt lat="50.53845" lon="3.02422">
        <ele>31.86</ele>
        <time>2017-08-04T15:18:01Z</time>
      </trkpt>
      <trkpt lat="50.53845" lon="3.02513">
        <ele>32.34</ele>
        <time>2017-08-04T15:18:17Z</time>
      </trkpt>
      <trkpt lat="50.53846" lon="3.02597">
        <ele>32.82</ele>
        <time>2017-08-04T15:18:33Z</time>
      </trkpt>
      <trkpt lat="50.53856" lon="3.02676">
        <ele>33.3</ele>
        <time>2017-08-04T15:18:48Z</time>
      </trkpt>
      <trkpt lat="50.53881" lon="3.02768">
        <ele>33.78</ele>
        <time>2017-08-04T15:19:07Z</time>
      </trkpt>
      <trkpt lat="50.53884" lon="3.02782">
        <ele>33.78</ele>
        <time>2017-08-04T15:19:11Z</time>
      </trkpt>
      <trkpt lat="50.53885" lon="3.02783">
        <ele>33.78</ele>
        <time>2017-08-04T15:19:12Z</time>
      </trkpt>
      <trkpt lat="50.53887" lon="3.02782">
        <ele>33.78</ele>
        <time>2017-08-04T15:19:13Z</time>
      </trkpt>
      <trkpt lat="50.53887" lon="3.02778">
        <ele>33.78</ele>
        <time>2017-08-04T15:19:21Z</time>
      </trkpt>
      <trkpt lat="50.53889" lon="3.02776">
        <ele>33.78</ele>
        <time>2017-08-04T15:19:34Z</time>
      </trkpt>
      <trkpt lat="50.53889" lon="3.02777">
        <ele>33.78</ele>
        <time>2017-08-04T15:20:06Z</time>
      </trkpt>
      <trkpt lat="50.5389" lon="3.02778">
        <ele>34.26</ele>
        <time>2017-08-04T15:20:33Z</time>
      </trkpt>
      <trkpt lat="50.53889" lon="3.02778">
        <ele>34.26</ele>
        <time>2017-08-04T15:21:00Z</time>
      </trkpt>
      <trkpt lat="50.53889" lon="3.02779">
        <ele>34.74</ele>
        <time>2017-08-04T15:21:27Z</time>
      </trkpt>
      <trkpt lat="50.53889" lon="3.0278">
        <ele>34.74</ele>
        <time>2017-08-04T15:21:51Z</time>
      </trkpt>
      <trkpt lat="50.53888" lon="3.0278">
        <ele>34.74</ele>
        <time>2017-08-04T15:22:16Z</time>
      </trkpt>
      <trkpt lat="50.53888" lon="3.02779">
        <ele>34.74</ele>
        <time>2017-08-04T15:22:37Z</time>
      </trkpt>
      <trkpt lat="50.53889" lon="3.02779">
        <ele>34.74</ele>
        <time>2017-08-04T15:23:04Z</time>
      </trkpt>
      <trkpt lat="50.53887" lon="3.0278">
        <ele>34.74</ele>
        <time>2017-08-04T15:23:27Z</time>
      </trkpt>
      <trkpt lat="50.53887" lon="3.0278">
        <ele>35.23</ele>
        <time>2017-08-04T15:23:43Z</time>
      </trkpt>
      <trkpt lat="50.53887" lon="3.02779">
        <ele>35.23</ele>
        <time>2017-08-04T15:24:09Z</time>
      </trkpt>
      <trkpt lat="50.53887" lon="3.02779">
        <ele>35.23</ele>
        <time>2017-08-04T15:24:42Z</time>
      </trkpt>
      <trkpt lat="50.53888" lon="3.0278">
        <ele>34.26</ele>
        <time>2017-08-04T15:25:04Z</time>
      </trkpt>
      <trkpt lat="50.53887" lon="3.02788">
        <ele>35.23</ele>
        <time>2017-08-04T15:25:17Z</time>
      </trkpt>
      <trkpt lat="50.53887" lon="3.0279">
        <ele>35.23</ele>
        <time>2017-08-04T15:25:18Z</time>
      </trkpt>
      <trkpt lat="50.53888" lon="3.02793">
        <ele>35.23</ele>
        <time>2017-08-04T15:25:20Z</time>
      </trkpt>
      <trkpt lat="50.53889" lon="3.02794">
        <ele>35.23</ele>
        <time>2017-08-04T15:25:21Z</time>
      </trkpt>
      <trkpt lat="50.53892" lon="3.028">
        <ele>35.23</ele>
        <time>2017-08-04T15:25:26Z</time>
      </trkpt>
      <trkpt lat="50.5391" lon="3.02833">
        <ele>35.23</ele>
        <time>2017-08-04T15:25:34Z</time>
      </trkpt>
      <trkpt lat="50.53946" lon="3.02885">
        <ele>35.23</ele>
        <time>2017-08-04T15:25:44Z</time>
      </trkpt>
      <trkpt lat="50.53947" lon="3.02892">
        <ele>35.23</ele>
        <time>2017-08-04T15:25:45Z</time>
      </trkpt>
      <trkpt lat="50.53945" lon="3.02901">
        <ele>35.23</ele>
        <time>2017-08-04T15:25:47Z</time>
      </trkpt>
      <trkpt lat="50.5394" lon="3.02908">
        <ele>35.23</ele>
        <time>2017-08-04T15:25:48Z</time>
      </trkpt>
      <trkpt lat="50.53937" lon="3.0291">
        <ele>35.23</ele>
        <time>2017-08-04T15:25:49Z</time>
      </trkpt>
      <trkpt lat="50.53933" lon="3.02912">
        <ele>35.23</ele>
        <time>2017-08-04T15:25:50Z</time>
      </trkpt>
      <trkpt lat="50.53851" lon="3.02949">
        <ele>35.71</ele>
        <time>2017-08-04T15:26:09Z</time>
      </trkpt>
      <trkpt lat="50.5382" lon="3.02955">
        <ele>35.71</ele>
        <time>2017-08-04T15:26:16Z</time>
      </trkpt>
      <trkpt lat="50.53815" lon="3.02954">
        <ele>35.71</ele>
        <time>2017-08-04T15:26:17Z</time>
      </trkpt>
      <trkpt lat="50.53807" lon="3.02951">
        <ele>35.71</ele>
        <time>2017-08-04T15:26:19Z</time>
      </trkpt>
      <trkpt lat="50.53786" lon="3.02941">
        <ele>35.71</ele>
        <time>2017-08-04T15:26:24Z</time>
      </trkpt>
      <trkpt lat="50.53781" lon="3.0294">
        <ele>35.71</ele>
        <time>2017-08-04T15:26:25Z</time>
      </trkpt>
      <trkpt lat="50.53776" lon="3.02939">
        <ele>35.71</ele>
        <time>2017-08-04T15:26:26Z</time>
      </trkpt>
      <trkpt lat="50.53771" lon="3.02937">
        <ele>35.71</ele>
        <time>2017-08-04T15:26:27Z</time>
      </trkpt>
      <trkpt lat="50.53767" lon="3.02936">
        <ele>35.71</ele>
        <time>2017-08-04T15:26:28Z</time>
      </trkpt>
      <trkpt lat="50.53754" lon="3.02929">
        <ele>35.71</ele>
        <time>2017-08-04T15:26:31Z</time>
      </trkpt>
      <trkpt lat="50.53722" lon="3.02909">
        <ele>36.19</ele>
        <time>2017-08-04T15:26:41Z</time>
      </trkpt>
      <trkpt lat="50.53714" lon="3.02907">
        <ele>36.67</ele>
        <time>2017-08-04T15:26:52Z</time>
      </trkpt>
      <trkpt lat="50.53718" lon="3.02906">
        <ele>36.67</ele>
        <time>2017-08-04T15:26:59Z</time>
      </trkpt>
      <trkpt lat="50.53747" lon="3.02925">
        <ele>36.67</ele>
        <time>2017-08-04T15:27:10Z</time>
      </trkpt>
      <trkpt lat="50.53809" lon="3.02952">
        <ele>36.67</ele>
        <time>2017-08-04T15:27:26Z</time>
      </trkpt>
      <trkpt lat="50.53813" lon="3.02954">
        <ele>36.67</ele>
        <time>2017-08-04T15:27:27Z</time>
      </trkpt>
      <trkpt lat="50.53817" lon="3.02955">
        <ele>36.67</ele>
        <time>2017-08-04T15:27:28Z</time>
      </trkpt>
      <trkpt lat="50.53822" lon="3.02956">
        <ele>36.67</ele>
        <time>2017-08-04T15:27:29Z</time>
      </trkpt>
      <trkpt lat="50.53827" lon="3.02956">
        <ele>36.67</ele>
        <time>2017-08-04T15:27:30Z</time>
      </trkpt>
      <trkpt lat="50.53832" lon="3.02954">
        <ele>36.67</ele>
        <time>2017-08-04T15:27:31Z</time>
      </trkpt>
      <trkpt lat="50.53837" lon="3.02953">
        <ele>36.67</ele>
        <time>2017-08-04T15:27:32Z</time>
      </trkpt>
      <trkpt lat="50.53842" lon="3.02952">
        <ele>36.67</ele>
        <time>2017-08-04T15:27:33Z</time>
      </trkpt>
      <trkpt lat="50.53853" lon="3.02949">
        <ele>35.71</ele>
        <time>2017-08-04T15:27:35Z</time>
      </trkpt>
      <trkpt lat="50.53943" lon="3.0291">
        <ele>34.74</ele>
        <time>2017-08-04T15:27:53Z</time>
      </trkpt>
      <trkpt lat="50.53946" lon="3.02906">
        <ele>34.74</ele>
        <time>2017-08-04T15:27:54Z</time>
      </trkpt>
      <trkpt lat="50.53949" lon="3.02901">
        <ele>34.74</ele>
        <time>2017-08-04T15:27:55Z</time>
      </trkpt>
      <trkpt lat="50.5395" lon="3.02898">
        <ele>34.74</ele>
        <time>2017-08-04T15:27:56Z</time>
      </trkpt>
      <trkpt lat="50.53951" lon="3.02893">
        <ele>34.74</ele>
        <time>2017-08-04T15:27:57Z</time>
      </trkpt>
      <trkpt lat="50.53951" lon="3.02889">
        <ele>34.74</ele>
        <time>2017-08-04T15:27:58Z</time>
      </trkpt>
      <trkpt lat="50.53949" lon="3.02878">
        <ele>34.74</ele>
        <time>2017-08-04T15:28:00Z</time>
      </trkpt>
      <trkpt lat="50.53946" lon="3.02874">
        <ele>34.74</ele>
        <time>2017-08-04T15:28:01Z</time>
      </trkpt>
      <trkpt lat="50.5389" lon="3.02801">
        <ele>35.71</ele>
        <time>2017-08-04T15:28:16Z</time>
      </trkpt>
      <trkpt lat="50.53882" lon="3.02793">
        <ele>34.26</ele>
        <time>2017-08-04T15:28:18Z</time>
      </trkpt>
      <trkpt lat="50.53845" lon="3.02773">
        <ele>35.71</ele>
        <time>2017-08-04T15:28:26Z</time>
      </trkpt>
      <trkpt lat="50.53841" lon="3.02772">
        <ele>35.71</ele>
        <time>2017-08-04T15:28:27Z</time>
      </trkpt>
      <trkpt lat="50.53836" lon="3.02771">
        <ele>35.71</ele>
        <time>2017-08-04T15:28:28Z</time>
      </trkpt>
      <trkpt lat="50.53788" lon="3.02767">
        <ele>37.63</ele>
        <time>2017-08-04T15:28:40Z</time>
      </trkpt>
      <trkpt lat="50.53746" lon="3.02778">
        <ele>40.51</ele>
        <time>2017-08-04T15:28:52Z</time>
      </trkpt>
      <trkpt lat="50.53705" lon="3.028">
        <ele>42.44</ele>
        <time>2017-08-04T15:29:07Z</time>
      </trkpt>
      <trkpt lat="50.53702" lon="3.02805">
        <ele>42.44</ele>
        <time>2017-08-04T15:29:09Z</time>
      </trkpt>
      <trkpt lat="50.53698" lon="3.02816">
        <ele>42.44</ele>
        <time>2017-08-04T15:29:13Z</time>
      </trkpt>
      <trkpt lat="50.53698" lon="3.02821">
        <ele>42.44</ele>
        <time>2017-08-04T15:29:14Z</time>
      </trkpt>
      <trkpt lat="50.53699" lon="3.02826">
        <ele>42.44</ele>
        <time>2017-08-04T15:29:15Z</time>
      </trkpt>
      <trkpt lat="50.537" lon="3.02831">
        <ele>42.44</ele>
        <time>2017-08-04T15:29:16Z</time>
      </trkpt>
      <trkpt lat="50.53701" lon="3.02836">
        <ele>42.44</ele>
        <time>2017-08-04T15:29:17Z</time>
      </trkpt>
      <trkpt lat="50.53703" lon="3.0284">
        <ele>42.44</ele>
        <time>2017-08-04T15:29:18Z</time>
      </trkpt>
      <trkpt lat="50.53736" lon="3.02953">
        <ele>43.4</ele>
        <time>2017-08-04T15:29:39Z</time>
      </trkpt>
      <trkpt lat="50.53762" lon="3.0304">
        <ele>43.4</ele>
        <time>2017-08-04T15:29:56Z</time>
      </trkpt>
      <trkpt lat="50.53785" lon="3.03118">
        <ele>43.88</ele>
        <time>2017-08-04T15:30:10Z</time>
      </trkpt>
      <trkpt lat="50.53791" lon="3.03134">
        <ele>43.4</ele>
        <time>2017-08-04T15:30:15Z</time>
      </trkpt>
      <trkpt lat="50.53794" lon="3.03135">
        <ele>43.4</ele>
        <time>2017-08-04T15:30:16Z</time>
      </trkpt>
      <trkpt lat="50.53796" lon="3.03134">
        <ele>43.4</ele>
        <time>2017-08-04T15:30:17Z</time>
      </trkpt>
      <trkpt lat="50.53799" lon="3.0313">
        <ele>43.88</ele>
        <time>2017-08-04T15:30:18Z</time>
      </trkpt>
      <trkpt lat="50.53801" lon="3.03125">
        <ele>41.95</ele>
        <time>2017-08-04T15:30:19Z</time>
      </trkpt>
      <trkpt lat="50.538" lon="3.03119">
        <ele>41.95</ele>
        <time>2017-08-04T15:30:20Z</time>
      </trkpt>
      <trkpt lat="50.53799" lon="3.03114">
        <ele>41.95</ele>
        <time>2017-08-04T15:30:21Z</time>
      </trkpt>
      <trkpt lat="50.53782" lon="3.03036">
        <ele>38.11</ele>
        <time>2017-08-04T15:30:31Z</time>
      </trkpt>
      <trkpt lat="50.53776" lon="3.03009">
        <ele>35.23</ele>
        <time>2017-08-04T15:30:34Z</time>
      </trkpt>
      <trkpt lat="50.53776" lon="3.03002">
        <ele>35.23</ele>
        <time>2017-08-04T15:30:35Z</time>
      </trkpt>
      <trkpt lat="50.53774" lon="3.02999">
        <ele>35.23</ele>
        <time>2017-08-04T15:30:36Z</time>
      </trkpt>
      <trkpt lat="50.53772" lon="3.02997">
        <ele>34.74</ele>
        <time>2017-08-04T15:30:37Z</time>
      </trkpt>
      <trkpt lat="50.53769" lon="3.02996">
        <ele>34.74</ele>
        <time>2017-08-04T15:30:38Z</time>
      </trkpt>
      <trkpt lat="50.53757" lon="3.02995">
        <ele>34.74</ele>
        <time>2017-08-04T15:30:41Z</time>
      </trkpt>
      <trkpt lat="50.53753" lon="3.02997">
        <ele>34.74</ele>
        <time>2017-08-04T15:30:42Z</time>
      </trkpt>
      <trkpt lat="50.53676" lon="3.03037">
        <ele>33.78</ele>
        <time>2017-08-04T15:30:58Z</time>
      </trkpt>
      <trkpt lat="50.53672" lon="3.03041">
        <ele>33.78</ele>
        <time>2017-08-04T15:30:59Z</time>
      </trkpt>
      <trkpt lat="50.53668" lon="3.03044">
        <ele>33.78</ele>
        <time>2017-08-04T15:31:00Z</time>
      </trkpt>
      <trkpt lat="50.53645" lon="3.03057">
        <ele>33.78</ele>
        <time>2017-08-04T15:31:05Z</time>
      </trkpt>
      <trkpt lat="50.53542" lon="3.03139">
        <ele>36.19</ele>
        <time>2017-08-04T15:31:28Z</time>
      </trkpt>
      <trkpt lat="50.53451" lon="3.0319">
        <ele>37.15</ele>
        <time>2017-08-04T15:31:47Z</time>
      </trkpt>
      <trkpt lat="50.53437" lon="3.032">
        <ele>37.15</ele>
        <time>2017-08-04T15:31:50Z</time>
      </trkpt>
      <trkpt lat="50.53414" lon="3.03215">
        <ele>37.15</ele>
        <time>2017-08-04T15:31:55Z</time>
      </trkpt>
      <trkpt lat="50.53409" lon="3.03216">
        <ele>37.15</ele>
        <time>2017-08-04T15:31:56Z</time>
      </trkpt>
      <trkpt lat="50.53335" lon="3.03213">
        <ele>37.63</ele>
        <time>2017-08-04T15:32:13Z</time>
      </trkpt>
      <trkpt lat="50.53289" lon="3.03189">
        <ele>38.11</ele>
        <time>2017-08-04T15:32:26Z</time>
      </trkpt>
      <trkpt lat="50.5328" lon="3.03177">
        <ele>38.59</ele>
        <time>2017-08-04T15:32:29Z</time>
      </trkpt>
      <trkpt lat="50.53276" lon="3.03174">
        <ele>38.59</ele>
        <time>2017-08-04T15:32:30Z</time>
      </trkpt>
      <trkpt lat="50.53271" lon="3.03172">
        <ele>38.59</ele>
        <time>2017-08-04T15:32:31Z</time>
      </trkpt>
      <trkpt lat="50.53267" lon="3.03171">
        <ele>39.07</ele>
        <time>2017-08-04T15:32:32Z</time>
      </trkpt>
      <trkpt lat="50.53263" lon="3.0317">
        <ele>39.07</ele>
        <time>2017-08-04T15:32:33Z</time>
      </trkpt>
      <trkpt lat="50.53258" lon="3.03171">
        <ele>39.07</ele>
        <time>2017-08-04T15:32:34Z</time>
      </trkpt>
      <trkpt lat="50.53254" lon="3.03172">
        <ele>39.07</ele>
        <time>2017-08-04T15:32:35Z</time>
      </trkpt>
      <trkpt lat="50.5317" lon="3.03194">
        <ele>39.07</ele>
        <time>2017-08-04T15:32:53Z</time>
      </trkpt>
      <trkpt lat="50.53096" lon="3.03239">
        <ele>39.55</ele>
        <time>2017-08-04T15:33:10Z</time>
      </trkpt>
      <trkpt lat="50.53008" lon="3.03298">
        <ele>40.03</ele>
        <time>2017-08-04T15:33:31Z</time>
      </trkpt>
      <trkpt lat="50.52931" lon="3.03348">
        <ele>41.47</ele>
        <time>2017-08-04T15:33:49Z</time>
      </trkpt>
      <trkpt lat="50.52922" lon="3.03359">
        <ele>41.95</ele>
        <time>2017-08-04T15:33:57Z</time>
      </trkpt>
      <trkpt lat="50.52919" lon="3.03357">
        <ele>39.07</ele>
        <time>2017-08-04T15:34:20Z</time>
      </trkpt>
      <trkpt lat="50.52918" lon="3.03358">
        <ele>41.47</ele>
        <time>2017-08-04T15:34:22Z</time>
      </trkpt>
      <trkpt lat="50.52918" lon="3.03358">
        <ele>40.99</ele>
        <time>2017-08-04T15:34:43Z</time>
      </trkpt>
      <trkpt lat="50.52917" lon="3.0336">
        <ele>40.99</ele>
        <time>2017-08-04T15:34:45Z</time>
      </trkpt>
      <trkpt lat="50.52916" lon="3.03362">
        <ele>40.99</ele>
        <time>2017-08-04T15:34:46Z</time>
      </trkpt>
      <trkpt lat="50.52914" lon="3.03366">
        <ele>40.99</ele>
        <time>2017-08-04T15:34:47Z</time>
      </trkpt>
      <trkpt lat="50.52912" lon="3.03368">
        <ele>40.99</ele>
        <time>2017-08-04T15:34:48Z</time>
      </trkpt>
      <trkpt lat="50.5291" lon="3.03371">
        <ele>40.99</ele>
        <time>2017-08-04T15:34:49Z</time>
      </trkpt>
      <trkpt lat="50.52907" lon="3.03374">
        <ele>40.99</ele>
        <time>2017-08-04T15:34:50Z</time>
      </trkpt>
      <trkpt lat="50.52904" lon="3.03376">
        <ele>40.99</ele>
        <time>2017-08-04T15:34:51Z</time>
      </trkpt>
      <trkpt lat="50.52901" lon="3.03379">
        <ele>40.99</ele>
        <time>2017-08-04T15:34:52Z</time>
      </trkpt>
      <trkpt lat="50.52898" lon="3.03382">
        <ele>40.99</ele>
        <time>2017-08-04T15:34:53Z</time>
      </trkpt>
      <trkpt lat="50.52895" lon="3.03384">
        <ele>41.95</ele>
        <time>2017-08-04T15:34:54Z</time>
      </trkpt>
      <trkpt lat="50.52892" lon="3.03386">
        <ele>41.95</ele>
        <time>2017-08-04T15:34:55Z</time>
      </trkpt>
      <trkpt lat="50.52824" lon="3.03446">
        <ele>40.99</ele>
        <time>2017-08-04T15:35:13Z</time>
      </trkpt>
      <trkpt lat="50.52762" lon="3.035">
        <ele>42.44</ele>
        <time>2017-08-04T15:35:30Z</time>
      </trkpt>
      <trkpt lat="50.52759" lon="3.03502">
        <ele>42.92</ele>
        <time>2017-08-04T15:35:31Z</time>
      </trkpt>
      <trkpt lat="50.52755" lon="3.03505">
        <ele>42.92</ele>
        <time>2017-08-04T15:35:32Z</time>
      </trkpt>
      <trkpt lat="50.52685" lon="3.03564">
        <ele>43.4</ele>
        <time>2017-08-04T15:35:52Z</time>
      </trkpt>
      <trkpt lat="50.52621" lon="3.03597">
        <ele>44.36</ele>
        <time>2017-08-04T15:36:10Z</time>
      </trkpt>
      <trkpt lat="50.52552" lon="3.03616">
        <ele>44.84</ele>
        <time>2017-08-04T15:36:28Z</time>
      </trkpt>
      <trkpt lat="50.5254" lon="3.03615">
        <ele>42.92</ele>
        <time>2017-08-04T15:36:31Z</time>
      </trkpt>
      <trkpt lat="50.52533" lon="3.03616">
        <ele>43.4</ele>
        <time>2017-08-04T15:36:33Z</time>
      </trkpt>
      <trkpt lat="50.5253" lon="3.0362">
        <ele>45.32</ele>
        <time>2017-08-04T15:36:34Z</time>
      </trkpt>
      <trkpt lat="50.52529" lon="3.03625">
        <ele>45.8</ele>
        <time>2017-08-04T15:36:35Z</time>
      </trkpt>
      <trkpt lat="50.52529" lon="3.0363">
        <ele>45.8</ele>
        <time>2017-08-04T15:36:36Z</time>
      </trkpt>
      <trkpt lat="50.5253" lon="3.03635">
        <ele>45.8</ele>
        <time>2017-08-04T15:36:37Z</time>
      </trkpt>
      <trkpt lat="50.52532" lon="3.03641">
        <ele>45.8</ele>
        <time>2017-08-04T15:36:38Z</time>
      </trkpt>
      <trkpt lat="50.52534" lon="3.03647">
        <ele>45.8</ele>
        <time>2017-08-04T15:36:39Z</time>
      </trkpt>
      <trkpt lat="50.52538" lon="3.03659">
        <ele>45.8</ele>
        <time>2017-08-04T15:36:41Z</time>
      </trkpt>
      <trkpt lat="50.5254" lon="3.03664">
        <ele>45.8</ele>
        <time>2017-08-04T15:36:42Z</time>
      </trkpt>
      <trkpt lat="50.52581" lon="3.03806">
        <ele>46.28</ele>
        <time>2017-08-04T15:37:02Z</time>
      </trkpt>
      <trkpt lat="50.52597" lon="3.03927">
        <ele>48.2</ele>
        <time>2017-08-04T15:37:19Z</time>
      </trkpt>
      <trkpt lat="50.52586" lon="3.04022">
        <ele>49.16</ele>
        <time>2017-08-04T15:37:33Z</time>
      </trkpt>
      <trkpt lat="50.52552" lon="3.04144">
        <ele>50.61</ele>
        <time>2017-08-04T15:37:52Z</time>
      </trkpt>
      <trkpt lat="50.52544" lon="3.04173">
        <ele>52.05</ele>
        <time>2017-08-04T15:37:57Z</time>
      </trkpt>
      <trkpt lat="50.52537" lon="3.04201">
        <ele>53.01</ele>
        <time>2017-08-04T15:38:02Z</time>
      </trkpt>
      <trkpt lat="50.52512" lon="3.04282">
        <ele>52.53</ele>
        <time>2017-08-04T15:38:16Z</time>
      </trkpt>
      <trkpt lat="50.52509" lon="3.04286">
        <ele>52.53</ele>
        <time>2017-08-04T15:38:17Z</time>
      </trkpt>
      <trkpt lat="50.52504" lon="3.04289">
        <ele>51.57</ele>
        <time>2017-08-04T15:38:18Z</time>
      </trkpt>
      <trkpt lat="50.52499" lon="3.0429">
        <ele>51.57</ele>
        <time>2017-08-04T15:38:19Z</time>
      </trkpt>
      <trkpt lat="50.52494" lon="3.04289">
        <ele>51.57</ele>
        <time>2017-08-04T15:38:20Z</time>
      </trkpt>
      <trkpt lat="50.52489" lon="3.04285">
        <ele>50.61</ele>
        <time>2017-08-04T15:38:21Z</time>
      </trkpt>
      <trkpt lat="50.52484" lon="3.04281">
        <ele>50.61</ele>
        <time>2017-08-04T15:38:22Z</time>
      </trkpt>
      <trkpt lat="50.52399" lon="3.04209">
        <ele>49.16</ele>
        <time>2017-08-04T15:38:37Z</time>
      </trkpt>
      <trkpt lat="50.52316" lon="3.04138">
        <ele>47.24</ele>
        <time>2017-08-04T15:38:52Z</time>
      </trkpt>
      <trkpt lat="50.52277" lon="3.04109">
        <ele>45.8</ele>
        <time>2017-08-04T15:38:59Z</time>
      </trkpt>
      <trkpt lat="50.52271" lon="3.0411">
        <ele>45.8</ele>
        <time>2017-08-04T15:39:00Z</time>
      </trkpt>
      <trkpt lat="50.52266" lon="3.04113">
        <ele>45.8</ele>
        <time>2017-08-04T15:39:01Z</time>
      </trkpt>
      <trkpt lat="50.52261" lon="3.04119">
        <ele>45.8</ele>
        <time>2017-08-04T15:39:02Z</time>
      </trkpt>
      <trkpt lat="50.52258" lon="3.04127">
        <ele>45.8</ele>
        <time>2017-08-04T15:39:03Z</time>
      </trkpt>
      <trkpt lat="50.52254" lon="3.04135">
        <ele>45.32</ele>
        <time>2017-08-04T15:39:04Z</time>
      </trkpt>
      <trkpt lat="50.52191" lon="3.04302">
        <ele>42.92</ele>
        <time>2017-08-04T15:39:25Z</time>
      </trkpt>
      <trkpt lat="50.52157" lon="3.04403">
        <ele>42.92</ele>
        <time>2017-08-04T15:39:39Z</time>
      </trkpt>
      <trkpt lat="50.52155" lon="3.04409">
        <ele>42.92</ele>
        <time>2017-08-04T15:39:40Z</time>
      </trkpt>
      <trkpt lat="50.52154" lon="3.04415">
        <ele>42.92</ele>
        <time>2017-08-04T15:39:41Z</time>
      </trkpt>
      <trkpt lat="50.52152" lon="3.0442">
        <ele>42.92</ele>
        <time>2017-08-04T15:39:42Z</time>
      </trkpt>
      <trkpt lat="50.52149" lon="3.04423">
        <ele>42.92</ele>
        <time>2017-08-04T15:39:43Z</time>
      </trkpt>
      <trkpt lat="50.52146" lon="3.04424">
        <ele>43.88</ele>
        <time>2017-08-04T15:39:44Z</time>
      </trkpt>
      <trkpt lat="50.52142" lon="3.04423">
        <ele>43.88</ele>
        <time>2017-08-04T15:39:45Z</time>
      </trkpt>
      <trkpt lat="50.5214" lon="3.04421">
        <ele>43.88</ele>
        <time>2017-08-04T15:39:46Z</time>
      </trkpt>
      <trkpt lat="50.52138" lon="3.04419">
        <ele>43.88</ele>
        <time>2017-08-04T15:39:47Z</time>
      </trkpt>
      <trkpt lat="50.52137" lon="3.04417">
        <ele>43.88</ele>
        <time>2017-08-04T15:39:48Z</time>
      </trkpt>
      <trkpt lat="50.52135" lon="3.04415">
        <ele>43.88</ele>
        <time>2017-08-04T15:39:49Z</time>
      </trkpt>
      <trkpt lat="50.52134" lon="3.04415">
        <ele>43.88</ele>
        <time>2017-08-04T15:39:50Z</time>
      </trkpt>
      <trkpt lat="50.52132" lon="3.04415">
        <ele>43.88</ele>
        <time>2017-08-04T15:39:51Z</time>
      </trkpt>
      <trkpt lat="50.52129" lon="3.04416">
        <ele>43.88</ele>
        <time>2017-08-04T15:39:52Z</time>
      </trkpt>
      <trkpt lat="50.52097" lon="3.04433">
        <ele>43.88</ele>
        <time>2017-08-04T15:40:00Z</time>
      </trkpt>
      <trkpt lat="50.52056" lon="3.04457">
        <ele>43.88</ele>
        <time>2017-08-04T15:40:09Z</time>
      </trkpt>
      <trkpt lat="50.51991" lon="3.04499">
        <ele>43.88</ele>
        <time>2017-08-04T15:40:23Z</time>
      </trkpt>
      <trkpt lat="50.51939" lon="3.04528">
        <ele>43.88</ele>
        <time>2017-08-04T15:40:35Z</time>
      </trkpt>
      <trkpt lat="50.51929" lon="3.04535">
        <ele>43.88</ele>
        <time>2017-08-04T15:40:37Z</time>
      </trkpt>
      <trkpt lat="50.51919" lon="3.04543">
        <ele>43.88</ele>
        <time>2017-08-04T15:40:39Z</time>
      </trkpt>
      <trkpt lat="50.51869" lon="3.0457">
        <ele>44.36</ele>
        <time>2017-08-04T15:40:49Z</time>
      </trkpt>
      <trkpt lat="50.5184" lon="3.04594">
        <ele>44.36</ele>
        <time>2017-08-04T15:40:56Z</time>
      </trkpt>
      <trkpt lat="50.51835" lon="3.04596">
        <ele>44.36</ele>
        <time>2017-08-04T15:40:57Z</time>
      </trkpt>
      <trkpt lat="50.51831" lon="3.04599">
        <ele>44.36</ele>
        <time>2017-08-04T15:40:58Z</time>
      </trkpt>
      <trkpt lat="50.51764" lon="3.04629">
        <ele>45.32</ele>
        <time>2017-08-04T15:41:13Z</time>
      </trkpt>
      <trkpt lat="50.51759" lon="3.04632">
        <ele>45.32</ele>
        <time>2017-08-04T15:41:14Z</time>
      </trkpt>
      <trkpt lat="50.51742" lon="3.04645">
        <ele>45.32</ele>
        <time>2017-08-04T15:41:18Z</time>
      </trkpt>
      <trkpt lat="50.5172" lon="3.04654">
        <ele>45.32</ele>
        <time>2017-08-04T15:41:23Z</time>
      </trkpt>
      <trkpt lat="50.51676" lon="3.04684">
        <ele>45.32</ele>
        <time>2017-08-04T15:41:34Z</time>
      </trkpt>
      <trkpt lat="50.51661" lon="3.04699">
        <ele>45.32</ele>
        <time>2017-08-04T15:41:38Z</time>
      </trkpt>
      <trkpt lat="50.51657" lon="3.04702">
        <ele>45.32</ele>
        <time>2017-08-04T15:41:39Z</time>
      </trkpt>
      <trkpt lat="50.51652" lon="3.04704">
        <ele>45.32</ele>
        <time>2017-08-04T15:41:40Z</time>
      </trkpt>
      <trkpt lat="50.51648" lon="3.04706">
        <ele>45.32</ele>
        <time>2017-08-04T15:41:41Z</time>
      </trkpt>
      <trkpt lat="50.51643" lon="3.04708">
        <ele>45.32</ele>
        <time>2017-08-04T15:41:42Z</time>
      </trkpt>
      <trkpt lat="50.51637" lon="3.04712">
        <ele>45.32</ele>
        <time>2017-08-04T15:41:43Z</time>
      </trkpt>
      <trkpt lat="50.51619" lon="3.04723">
        <ele>45.8</ele>
        <time>2017-08-04T15:41:47Z</time>
      </trkpt>
      <trkpt lat="50.51614" lon="3.04724">
        <ele>45.8</ele>
        <time>2017-08-04T15:41:48Z</time>
      </trkpt>
      <trkpt lat="50.51609" lon="3.04726">
        <ele>45.8</ele>
        <time>2017-08-04T15:41:49Z</time>
      </trkpt>
      <trkpt lat="50.51604" lon="3.04728">
        <ele>45.8</ele>
        <time>2017-08-04T15:41:50Z</time>
      </trkpt>
      <trkpt lat="50.516" lon="3.04731">
        <ele>45.8</ele>
        <time>2017-08-04T15:41:51Z</time>
      </trkpt>
      <trkpt lat="50.51596" lon="3.04735">
        <ele>45.8</ele>
        <time>2017-08-04T15:41:52Z</time>
      </trkpt>
      <trkpt lat="50.51592" lon="3.04739">
        <ele>45.8</ele>
        <time>2017-08-04T15:41:53Z</time>
      </trkpt>
      <trkpt lat="50.51589" lon="3.04743">
        <ele>45.8</ele>
        <time>2017-08-04T15:41:54Z</time>
      </trkpt>
      <trkpt lat="50.51582" lon="3.04752">
        <ele>45.8</ele>
        <time>2017-08-04T15:41:56Z</time>
      </trkpt>
      <trkpt lat="50.5157" lon="3.0476">
        <ele>45.8</ele>
        <time>2017-08-04T15:41:59Z</time>
      </trkpt>
      <trkpt lat="50.51566" lon="3.04763">
        <ele>46.28</ele>
        <time>2017-08-04T15:42:00Z</time>
      </trkpt>
      <trkpt lat="50.51563" lon="3.04766">
        <ele>46.28</ele>
        <time>2017-08-04T15:42:01Z</time>
      </trkpt>
      <trkpt lat="50.5156" lon="3.04769">
        <ele>46.28</ele>
        <time>2017-08-04T15:42:02Z</time>
      </trkpt>
      <trkpt lat="50.51557" lon="3.04771">
        <ele>46.28</ele>
        <time>2017-08-04T15:42:03Z</time>
      </trkpt>
      <trkpt lat="50.51554" lon="3.04772">
        <ele>46.28</ele>
        <time>2017-08-04T15:42:04Z</time>
      </trkpt>
      <trkpt lat="50.5155" lon="3.04775">
        <ele>46.28</ele>
        <time>2017-08-04T15:42:05Z</time>
      </trkpt>
      <trkpt lat="50.5154" lon="3.04783">
        <ele>46.28</ele>
        <time>2017-08-04T15:42:08Z</time>
      </trkpt>
      <trkpt lat="50.51515" lon="3.04806">
        <ele>46.28</ele>
        <time>2017-08-04T15:42:15Z</time>
      </trkpt>
      <trkpt lat="50.51513" lon="3.04812">
        <ele>46.76</ele>
        <time>2017-08-04T15:42:16Z</time>
      </trkpt>
      <trkpt lat="50.51512" lon="3.04818">
        <ele>46.76</ele>
        <time>2017-08-04T15:42:17Z</time>
      </trkpt>
      <trkpt lat="50.51511" lon="3.04831">
        <ele>46.76</ele>
        <time>2017-08-04T15:42:19Z</time>
      </trkpt>
      <trkpt lat="50.5151" lon="3.04837">
        <ele>46.76</ele>
        <time>2017-08-04T15:42:20Z</time>
      </trkpt>
      <trkpt lat="50.51508" lon="3.04843">
        <ele>46.76</ele>
        <time>2017-08-04T15:42:21Z</time>
      </trkpt>
      <trkpt lat="50.51507" lon="3.04849">
        <ele>47.24</ele>
        <time>2017-08-04T15:42:22Z</time>
      </trkpt>
      <trkpt lat="50.51506" lon="3.04855">
        <ele>47.24</ele>
        <time>2017-08-04T15:42:23Z</time>
      </trkpt>
      <trkpt lat="50.51506" lon="3.0486">
        <ele>47.24</ele>
        <time>2017-08-04T15:42:24Z</time>
      </trkpt>
      <trkpt lat="50.51506" lon="3.04865">
        <ele>47.24</ele>
        <time>2017-08-04T15:42:25Z</time>
      </trkpt>
      <trkpt lat="50.51506" lon="3.04871">
        <ele>47.24</ele>
        <time>2017-08-04T15:42:26Z</time>
      </trkpt>
      <trkpt lat="50.51507" lon="3.04876">
        <ele>47.24</ele>
        <time>2017-08-04T15:42:27Z</time>
      </trkpt>
      <trkpt lat="50.51534" lon="3.04934">
        <ele>48.2</ele>
        <time>2017-08-04T15:42:40Z</time>
      </trkpt>
      <trkpt lat="50.51565" lon="3.04995">
        <ele>50.13</ele>
        <time>2017-08-04T15:42:53Z</time>
      </trkpt>
      <trkpt lat="50.51569" lon="3.05054">
        <ele>51.57</ele>
        <time>2017-08-04T15:43:04Z</time>
      </trkpt>
      <trkpt lat="50.51538" lon="3.05088">
        <ele>52.53</ele>
        <time>2017-08-04T15:43:15Z</time>
      </trkpt>
      <trkpt lat="50.51493" lon="3.05108">
        <ele>53.01</ele>
        <time>2017-08-04T15:43:27Z</time>
      </trkpt>
      <trkpt lat="50.51437" lon="3.05125">
        <ele>54.93</ele>
        <time>2017-08-04T15:43:42Z</time>
      </trkpt>
      <trkpt lat="50.51387" lon="3.05135">
        <ele>55.89</ele>
        <time>2017-08-04T15:43:56Z</time>
      </trkpt>
      <trkpt lat="50.51385" lon="3.05132">
        <ele>55.89</ele>
        <time>2017-08-04T15:43:57Z</time>
      </trkpt>
      <trkpt lat="50.51384" lon="3.05125">
        <ele>55.89</ele>
        <time>2017-08-04T15:43:58Z</time>
      </trkpt>
      <trkpt lat="50.51373" lon="3.05078">
        <ele>54.45</ele>
        <time>2017-08-04T15:44:05Z</time>
      </trkpt>
      <trkpt lat="50.5136" lon="3.05024">
        <ele>53.97</ele>
        <time>2017-08-04T15:44:13Z</time>
      </trkpt>
      <trkpt lat="50.51359" lon="3.05015">
        <ele>53.97</ele>
        <time>2017-08-04T15:44:14Z</time>
      </trkpt>
      <trkpt lat="50.51358" lon="3.05009">
        <ele>53.97</ele>
        <time>2017-08-04T15:44:15Z</time>
      </trkpt>
      <trkpt lat="50.51357" lon="3.05002">
        <ele>53.97</ele>
        <time>2017-08-04T15:44:16Z</time>
      </trkpt>
      <trkpt lat="50.51355" lon="3.04995">
        <ele>53.01</ele>
        <time>2017-08-04T15:44:17Z</time>
      </trkpt>
      <trkpt lat="50.5134" lon="3.04932">
        <ele>52.05</ele>
        <time>2017-08-04T15:44:28Z</time>
      </trkpt>
      <trkpt lat="50.51338" lon="3.04926">
        <ele>52.05</ele>
        <time>2017-08-04T15:44:29Z</time>
      </trkpt>
      <trkpt lat="50.51337" lon="3.04919">
        <ele>51.57</ele>
        <time>2017-08-04T15:44:30Z</time>
      </trkpt>
      <trkpt lat="50.51326" lon="3.04865">
        <ele>50.61</ele>
        <time>2017-08-04T15:44:37Z</time>
      </trkpt>
      <trkpt lat="50.51323" lon="3.04851">
        <ele>50.61</ele>
        <time>2017-08-04T15:44:39Z</time>
      </trkpt>
      <trkpt lat="50.51299" lon="3.04739">
        <ele>49.65</ele>
        <time>2017-08-04T15:44:56Z</time>
      </trkpt>
      <trkpt lat="50.51293" lon="3.04707">
        <ele>49.65</ele>
        <time>2017-08-04T15:45:01Z</time>
      </trkpt>
      <trkpt lat="50.51291" lon="3.04701">
        <ele>49.65</ele>
        <time>2017-08-04T15:45:02Z</time>
      </trkpt>
      <trkpt lat="50.5129" lon="3.04694">
        <ele>49.65</ele>
        <time>2017-08-04T15:45:03Z</time>
      </trkpt>
      <trkpt lat="50.51281" lon="3.04672">
        <ele>49.16</ele>
        <time>2017-08-04T15:45:08Z</time>
      </trkpt>
      <trkpt lat="50.51279" lon="3.04671">
        <ele>49.16</ele>
        <time>2017-08-04T15:45:09Z</time>
      </trkpt>
      <trkpt lat="50.51277" lon="3.04671">
        <ele>49.16</ele>
        <time>2017-08-04T15:45:10Z</time>
      </trkpt>
      <trkpt lat="50.51274" lon="3.04672">
        <ele>49.16</ele>
        <time>2017-08-04T15:45:11Z</time>
      </trkpt>
      <trkpt lat="50.51272" lon="3.04673">
        <ele>49.16</ele>
        <time>2017-08-04T15:45:12Z</time>
      </trkpt>
      <trkpt lat="50.51234" lon="3.0469">
        <ele>50.61</ele>
        <time>2017-08-04T15:45:25Z</time>
      </trkpt>
      <trkpt lat="50.51184" lon="3.04714">
        <ele>52.05</ele>
        <time>2017-08-04T15:45:40Z</time>
      </trkpt>
      <trkpt lat="50.51123" lon="3.04749">
        <ele>53.49</ele>
        <time>2017-08-04T15:45:58Z</time>
      </trkpt>
      <trkpt lat="50.5108" lon="3.04772">
        <ele>53.97</ele>
        <time>2017-08-04T15:46:09Z</time>
      </trkpt>
      <trkpt lat="50.51076" lon="3.04773">
        <ele>53.97</ele>
        <time>2017-08-04T15:46:10Z</time>
      </trkpt>
      <trkpt lat="50.51071" lon="3.04773">
        <ele>53.97</ele>
        <time>2017-08-04T15:46:11Z</time>
      </trkpt>
      <trkpt lat="50.51067" lon="3.04772">
        <ele>53.97</ele>
        <time>2017-08-04T15:46:12Z</time>
      </trkpt>
      <trkpt lat="50.51064" lon="3.0477">
        <ele>54.45</ele>
        <time>2017-08-04T15:46:13Z</time>
      </trkpt>
      <trkpt lat="50.51061" lon="3.04767">
        <ele>54.45</ele>
        <time>2017-08-04T15:46:14Z</time>
      </trkpt>
      <trkpt lat="50.51058" lon="3.04763">
        <ele>54.45</ele>
        <time>2017-08-04T15:46:15Z</time>
      </trkpt>
      <trkpt lat="50.51056" lon="3.04759">
        <ele>54.45</ele>
        <time>2017-08-04T15:46:16Z</time>
      </trkpt>
      <trkpt lat="50.51055" lon="3.04753">
        <ele>54.45</ele>
        <time>2017-08-04T15:46:17Z</time>
      </trkpt>
      <trkpt lat="50.51055" lon="3.04746">
        <ele>54.45</ele>
        <time>2017-08-04T15:46:18Z</time>
      </trkpt>
      <trkpt lat="50.51056" lon="3.04739">
        <ele>54.45</ele>
        <time>2017-08-04T15:46:19Z</time>
      </trkpt>
      <trkpt lat="50.51057" lon="3.04732">
        <ele>54.45</ele>
        <time>2017-08-04T15:46:20Z</time>
      </trkpt>
      <trkpt lat="50.51057" lon="3.04725">
        <ele>54.45</ele>
        <time>2017-08-04T15:46:21Z</time>
      </trkpt>
      <trkpt lat="50.51057" lon="3.04717">
        <ele>54.45</ele>
        <time>2017-08-04T15:46:22Z</time>
      </trkpt>
      <trkpt lat="50.51057" lon="3.04709">
        <ele>54.45</ele>
        <time>2017-08-04T15:46:23Z</time>
      </trkpt>
      <trkpt lat="50.51057" lon="3.047">
        <ele>54.45</ele>
        <time>2017-08-04T15:46:24Z</time>
      </trkpt>
      <trkpt lat="50.51056" lon="3.04692">
        <ele>54.45</ele>
        <time>2017-08-04T15:46:25Z</time>
      </trkpt>
      <trkpt lat="50.51055" lon="3.04684">
        <ele>54.45</ele>
        <time>2017-08-04T15:46:26Z</time>
      </trkpt>
      <trkpt lat="50.51053" lon="3.04675">
        <ele>54.45</ele>
        <time>2017-08-04T15:46:27Z</time>
      </trkpt>
      <trkpt lat="50.51039" lon="3.04614">
        <ele>53.01</ele>
        <time>2017-08-04T15:46:35Z</time>
      </trkpt>
      <trkpt lat="50.51035" lon="3.04593">
        <ele>52.53</ele>
        <time>2017-08-04T15:46:38Z</time>
      </trkpt>
      <trkpt lat="50.51034" lon="3.04586">
        <ele>52.53</ele>
        <time>2017-08-04T15:46:39Z</time>
      </trkpt>
      <trkpt lat="50.51033" lon="3.04579">
        <ele>52.53</ele>
        <time>2017-08-04T15:46:40Z</time>
      </trkpt>
      <trkpt lat="50.51032" lon="3.04573">
        <ele>52.05</ele>
        <time>2017-08-04T15:46:41Z</time>
      </trkpt>
      <trkpt lat="50.5103" lon="3.04566">
        <ele>52.05</ele>
        <time>2017-08-04T15:46:42Z</time>
      </trkpt>
      <trkpt lat="50.51029" lon="3.04559">
        <ele>51.09</ele>
        <time>2017-08-04T15:46:43Z</time>
      </trkpt>
      <trkpt lat="50.51027" lon="3.04551">
        <ele>51.09</ele>
        <time>2017-08-04T15:46:44Z</time>
      </trkpt>
      <trkpt lat="50.51024" lon="3.04545">
        <ele>51.09</ele>
        <time>2017-08-04T15:46:45Z</time>
      </trkpt>
      <trkpt lat="50.5102" lon="3.04542">
        <ele>51.09</ele>
        <time>2017-08-04T15:46:46Z</time>
      </trkpt>
      <trkpt lat="50.51016" lon="3.04542">
        <ele>51.09</ele>
        <time>2017-08-04T15:46:47Z</time>
      </trkpt>
      <trkpt lat="50.51013" lon="3.04542">
        <ele>51.09</ele>
        <time>2017-08-04T15:46:48Z</time>
      </trkpt>
      <trkpt lat="50.51009" lon="3.04544">
        <ele>50.61</ele>
        <time>2017-08-04T15:46:49Z</time>
      </trkpt>
      <trkpt lat="50.50983" lon="3.04557">
        <ele>51.09</ele>
        <time>2017-08-04T15:46:57Z</time>
      </trkpt>
      <trkpt lat="50.50976" lon="3.04558">
        <ele>52.05</ele>
        <time>2017-08-04T15:46:59Z</time>
      </trkpt>
      <trkpt lat="50.50945" lon="3.04593">
        <ele>52.53</ele>
        <time>2017-08-04T15:47:10Z</time>
      </trkpt>
      <trkpt lat="50.50932" lon="3.04614">
        <ele>52.53</ele>
        <time>2017-08-04T15:47:15Z</time>
      </trkpt>
      <trkpt lat="50.5093" lon="3.04619">
        <ele>53.49</ele>
        <time>2017-08-04T15:47:16Z</time>
      </trkpt>
      <trkpt lat="50.5092" lon="3.04656">
        <ele>53.49</ele>
        <time>2017-08-04T15:47:25Z</time>
      </trkpt>
      <trkpt lat="50.50918" lon="3.04658">
        <ele>53.49</ele>
        <time>2017-08-04T15:47:26Z</time>
      </trkpt>
      <trkpt lat="50.50917" lon="3.0466">
        <ele>53.97</ele>
        <time>2017-08-04T15:47:27Z</time>
      </trkpt>
      <trkpt lat="50.50916" lon="3.04663">
        <ele>53.97</ele>
        <time>2017-08-04T15:47:28Z</time>
      </trkpt>
      <trkpt lat="50.50915" lon="3.04667">
        <ele>53.97</ele>
        <time>2017-08-04T15:47:29Z</time>
      </trkpt>
      <trkpt lat="50.50914" lon="3.0467">
        <ele>53.97</ele>
        <time>2017-08-04T15:47:30Z</time>
      </trkpt>
      <trkpt lat="50.50913" lon="3.04674">
        <ele>53.97</ele>
        <time>2017-08-04T15:47:31Z</time>
      </trkpt>
      <trkpt lat="50.50912" lon="3.04678">
        <ele>53.97</ele>
        <time>2017-08-04T15:47:32Z</time>
      </trkpt>
      <trkpt lat="50.5091" lon="3.04683">
        <ele>53.97</ele>
        <time>2017-08-04T15:47:33Z</time>
      </trkpt>
      <trkpt lat="50.50909" lon="3.04687">
        <ele>53.97</ele>
        <time>2017-08-04T15:47:34Z</time>
      </trkpt>
      <trkpt lat="50.50907" lon="3.0469">
        <ele>53.97</ele>
        <time>2017-08-04T15:47:35Z</time>
      </trkpt>
      <trkpt lat="50.50905" lon="3.04693">
        <ele>53.97</ele>
        <time>2017-08-04T15:47:36Z</time>
      </trkpt>
      <trkpt lat="50.50903" lon="3.04696">
        <ele>53.97</ele>
        <time>2017-08-04T15:47:37Z</time>
      </trkpt>
      <trkpt lat="50.50901" lon="3.047">
        <ele>53.97</ele>
        <time>2017-08-04T15:47:38Z</time>
      </trkpt>
      <trkpt lat="50.50891" lon="3.04716">
        <ele>53.97</ele>
        <time>2017-08-04T15:47:47Z</time>
      </trkpt>
      <trkpt lat="50.50888" lon="3.04725">
        <ele>54.45</ele>
        <time>2017-08-04T15:48:01Z</time>
      </trkpt>
      <trkpt lat="50.50885" lon="3.0473">
        <ele>54.45</ele>
        <time>2017-08-04T15:48:05Z</time>
      </trkpt>
      <trkpt lat="50.50884" lon="3.04733">
        <ele>54.45</ele>
        <time>2017-08-04T15:48:06Z</time>
      </trkpt>
      <trkpt lat="50.50883" lon="3.04736">
        <ele>54.45</ele>
        <time>2017-08-04T15:48:07Z</time>
      </trkpt>
      <trkpt lat="50.50873" lon="3.04757">
        <ele>54.45</ele>
        <time>2017-08-04T15:48:14Z</time>
      </trkpt>
      <trkpt lat="50.50871" lon="3.04758">
        <ele>54.45</ele>
        <time>2017-08-04T15:48:15Z</time>
      </trkpt>
      <trkpt lat="50.5087" lon="3.0476">
        <ele>54.45</ele>
        <time>2017-08-04T15:48:16Z</time>
      </trkpt>
      <trkpt lat="50.50869" lon="3.04763">
        <ele>54.45</ele>
        <time>2017-08-04T15:48:17Z</time>
      </trkpt>
      <trkpt lat="50.50868" lon="3.04765">
        <ele>54.45</ele>
        <time>2017-08-04T15:48:18Z</time>
      </trkpt>
      <trkpt lat="50.50867" lon="3.04768">
        <ele>54.45</ele>
        <time>2017-08-04T15:48:19Z</time>
      </trkpt>
      <trkpt lat="50.50865" lon="3.04772">
        <ele>54.45</ele>
        <time>2017-08-04T15:48:20Z</time>
      </trkpt>
      <trkpt lat="50.50864" lon="3.04774">
        <ele>54.45</ele>
        <time>2017-08-04T15:48:21Z</time>
      </trkpt>
      <trkpt lat="50.50862" lon="3.04776">
        <ele>54.45</ele>
        <time>2017-08-04T15:48:22Z</time>
      </trkpt>
      <trkpt lat="50.50861" lon="3.04778">
        <ele>54.45</ele>
        <time>2017-08-04T15:48:23Z</time>
      </trkpt>
      <trkpt lat="50.50854" lon="3.04782">
        <ele>54.45</ele>
        <time>2017-08-04T15:48:34Z</time>
      </trkpt>
      <trkpt lat="50.50853" lon="3.04779">
        <ele>54.45</ele>
        <time>2017-08-04T15:48:50Z</time>
      </trkpt>
      <trkpt lat="50.50848" lon="3.04776">
        <ele>54.45</ele>
        <time>2017-08-04T15:49:21Z</time>
      </trkpt>
      <trkpt lat="50.50845" lon="3.04775">
        <ele>54.93</ele>
        <time>2017-08-04T15:49:56Z</time>
      </trkpt>
      <trkpt lat="50.50844" lon="3.04781">
        <ele>54.93</ele>
        <time>2017-08-04T15:50:18Z</time>
      </trkpt>
      <trkpt lat="50.5083" lon="3.04782">
        <ele>54.93</ele>
        <time>2017-08-04T15:50:23Z</time>
      </trkpt>
      <trkpt lat="50.50823" lon="3.04772">
        <ele>55.41</ele>
        <time>2017-08-04T15:50:32Z</time>
      </trkpt>
      <trkpt lat="50.5082" lon="3.04767">
        <ele>55.41</ele>
        <time>2017-08-04T15:50:43Z</time>
      </trkpt>
      <trkpt lat="50.50815" lon="3.04767">
        <ele>55.41</ele>
        <time>2017-08-04T15:50:54Z</time>
      </trkpt>
      <trkpt lat="50.50813" lon="3.0477">
        <ele>55.41</ele>
        <time>2017-08-04T15:51:05Z</time>
      </trkpt>
      <trkpt lat="50.50801" lon="3.04795">
        <ele>55.89</ele>
        <time>2017-08-04T15:51:16Z</time>
      </trkpt>
      <trkpt lat="50.50767" lon="3.04861">
        <ele>55.89</ele>
        <time>2017-08-04T15:51:30Z</time>
      </trkpt>
      <trkpt lat="50.50722" lon="3.04948">
        <ele>55.89</ele>
        <time>2017-08-04T15:51:45Z</time>
      </trkpt>
      <trkpt lat="50.50686" lon="3.05012">
        <ele>58.78</ele>
        <time>2017-08-04T15:51:56Z</time>
      </trkpt>
      <trkpt lat="50.50644" lon="3.0509">
        <ele>59.26</ele>
        <time>2017-08-04T15:52:10Z</time>
      </trkpt>
      <trkpt lat="50.50635" lon="3.05106">
        <ele>60.22</ele>
        <time>2017-08-04T15:52:13Z</time>
      </trkpt>
      <trkpt lat="50.50613" lon="3.05147">
        <ele>60.22</ele>
        <time>2017-08-04T15:52:21Z</time>
      </trkpt>
      <trkpt lat="50.50562" lon="3.05242">
        <ele>61.18</ele>
        <time>2017-08-04T15:52:38Z</time>
      </trkpt>
      <trkpt lat="50.50539" lon="3.05285">
        <ele>61.66</ele>
        <time>2017-08-04T15:52:48Z</time>
      </trkpt>
      <trkpt lat="50.50527" lon="3.05306">
        <ele>62.14</ele>
        <time>2017-08-04T15:52:58Z</time>
      </trkpt>
      <trkpt lat="50.50527" lon="3.05307">
        <ele>62.14</ele>
        <time>2017-08-04T15:53:03Z</time>
      </trkpt>
      <trkpt lat="50.50528" lon="3.05309">
        <ele>62.14</ele>
        <time>2017-08-04T15:53:04Z</time>
      </trkpt>
      <trkpt lat="50.50529" lon="3.0531">
        <ele>62.14</ele>
        <time>2017-08-04T15:53:05Z</time>
      </trkpt>
      <trkpt lat="50.50531" lon="3.05311">
        <ele>62.14</ele>
        <time>2017-08-04T15:53:06Z</time>
      </trkpt>
      <trkpt lat="50.50533" lon="3.05314">
        <ele>62.14</ele>
        <time>2017-08-04T15:53:07Z</time>
      </trkpt>
      <trkpt lat="50.5058" lon="3.05361">
        <ele>62.14</ele>
        <time>2017-08-04T15:53:21Z</time>
      </trkpt>
      <trkpt lat="50.50652" lon="3.05432">
        <ele>62.14</ele>
        <time>2017-08-04T15:53:38Z</time>
      </trkpt>
      <trkpt lat="50.50722" lon="3.05501">
        <ele>62.14</ele>
        <time>2017-08-04T15:53:54Z</time>
      </trkpt>
      <trkpt lat="50.5074" lon="3.05535">
        <ele>62.14</ele>
        <time>2017-08-04T15:54:02Z</time>
      </trkpt>
      <trkpt lat="50.5074" lon="3.05543">
        <ele>62.14</ele>
        <time>2017-08-04T15:54:03Z</time>
      </trkpt>
      <trkpt lat="50.50739" lon="3.05549">
        <ele>62.14</ele>
        <time>2017-08-04T15:54:04Z</time>
      </trkpt>
      <trkpt lat="50.50737" lon="3.05553">
        <ele>62.14</ele>
        <time>2017-08-04T15:54:05Z</time>
      </trkpt>
      <trkpt lat="50.50734" lon="3.05557">
        <ele>62.14</ele>
        <time>2017-08-04T15:54:06Z</time>
      </trkpt>
      <trkpt lat="50.50731" lon="3.05561">
        <ele>62.14</ele>
        <time>2017-08-04T15:54:07Z</time>
      </trkpt>
      <trkpt lat="50.50727" lon="3.05563">
        <ele>62.14</ele>
        <time>2017-08-04T15:54:08Z</time>
      </trkpt>
      <trkpt lat="50.50725" lon="3.05565">
        <ele>62.14</ele>
        <time>2017-08-04T15:54:09Z</time>
      </trkpt>
      <trkpt lat="50.50724" lon="3.05569">
        <ele>62.14</ele>
        <time>2017-08-04T15:54:10Z</time>
      </trkpt>
      <trkpt lat="50.50723" lon="3.05575">
        <ele>62.14</ele>
        <time>2017-08-04T15:54:11Z</time>
      </trkpt>
      <trkpt lat="50.50723" lon="3.05578">
        <ele>62.14</ele>
        <time>2017-08-04T15:54:12Z</time>
      </trkpt>
      <trkpt lat="50.50721" lon="3.0558">
        <ele>62.14</ele>
        <time>2017-08-04T15:54:13Z</time>
      </trkpt>
      <trkpt lat="50.50719" lon="3.05581">
        <ele>62.14</ele>
        <time>2017-08-04T15:54:14Z</time>
      </trkpt>
      <trkpt lat="50.5068" lon="3.05633">
        <ele>60.22</ele>
        <time>2017-08-04T15:54:26Z</time>
      </trkpt>
      <trkpt lat="50.50615" lon="3.05725">
        <ele>59.26</ele>
        <time>2017-08-04T15:54:41Z</time>
      </trkpt>
      <trkpt lat="50.50526" lon="3.05847">
        <ele>57.82</ele>
        <time>2017-08-04T15:54:58Z</time>
      </trkpt>
      <trkpt lat="50.50446" lon="3.05954">
        <ele>55.89</ele>
        <time>2017-08-04T15:55:12Z</time>
      </trkpt>
      <trkpt lat="50.50352" lon="3.0608">
        <ele>55.89</ele>
        <time>2017-08-04T15:55:28Z</time>
      </trkpt>
      <trkpt lat="50.50254" lon="3.06214">
        <ele>54.45</ele>
        <time>2017-08-04T15:55:45Z</time>
      </trkpt>
      <trkpt lat="50.50183" lon="3.06312">
        <ele>53.01</ele>
        <time>2017-08-04T15:55:57Z</time>
      </trkpt>
      <trkpt lat="50.50077" lon="3.06455">
        <ele>51.09</ele>
        <time>2017-08-04T15:56:15Z</time>
      </trkpt>
      <trkpt lat="50.4999" lon="3.06575">
        <ele>49.16</ele>
        <time>2017-08-04T15:56:30Z</time>
      </trkpt>
      <trkpt lat="50.49909" lon="3.06688">
        <ele>48.68</ele>
        <time>2017-08-04T15:56:45Z</time>
      </trkpt>
      <trkpt lat="50.49844" lon="3.06782">
        <ele>50.13</ele>
        <time>2017-08-04T15:57:00Z</time>
      </trkpt>
      <trkpt lat="50.49824" lon="3.0681">
        <ele>50.61</ele>
        <time>2017-08-04T15:57:05Z</time>
      </trkpt>
      <trkpt lat="50.49767" lon="3.06888">
        <ele>50.61</ele>
        <time>2017-08-04T15:57:20Z</time>
      </trkpt>
      <trkpt lat="50.4973" lon="3.0694">
        <ele>50.61</ele>
        <time>2017-08-04T15:57:30Z</time>
      </trkpt>
      <trkpt lat="50.49722" lon="3.0695">
        <ele>50.61</ele>
        <time>2017-08-04T15:57:32Z</time>
      </trkpt>
      <trkpt lat="50.49719" lon="3.06955">
        <ele>50.61</ele>
        <time>2017-08-04T15:57:33Z</time>
      </trkpt>
      <trkpt lat="50.49704" lon="3.06975">
        <ele>50.61</ele>
        <time>2017-08-04T15:57:37Z</time>
      </trkpt>
      <trkpt lat="50.4967" lon="3.07023">
        <ele>50.61</ele>
        <time>2017-08-04T15:57:46Z</time>
      </trkpt>
      <trkpt lat="50.49666" lon="3.07026">
        <ele>50.61</ele>
        <time>2017-08-04T15:57:47Z</time>
      </trkpt>
      <trkpt lat="50.49662" lon="3.07029">
        <ele>50.61</ele>
        <time>2017-08-04T15:57:48Z</time>
      </trkpt>
      <trkpt lat="50.49659" lon="3.07034">
        <ele>50.61</ele>
        <time>2017-08-04T15:57:49Z</time>
      </trkpt>
      <trkpt lat="50.49657" lon="3.0704">
        <ele>50.61</ele>
        <time>2017-08-04T15:57:50Z</time>
      </trkpt>
      <trkpt lat="50.49655" lon="3.07046">
        <ele>50.61</ele>
        <time>2017-08-04T15:57:51Z</time>
      </trkpt>
      <trkpt lat="50.4965" lon="3.07058">
        <ele>50.61</ele>
        <time>2017-08-04T15:57:53Z</time>
      </trkpt>
      <trkpt lat="50.49645" lon="3.07064">
        <ele>50.61</ele>
        <time>2017-08-04T15:57:54Z</time>
      </trkpt>
      <trkpt lat="50.4964" lon="3.07068">
        <ele>50.61</ele>
        <time>2017-08-04T15:57:55Z</time>
      </trkpt>
      <trkpt lat="50.49559" lon="3.07139">
        <ele>48.68</ele>
        <time>2017-08-04T15:58:12Z</time>
      </trkpt>
      <trkpt lat="50.49545" lon="3.07155">
        <ele>49.65</ele>
        <time>2017-08-04T15:58:15Z</time>
      </trkpt>
      <trkpt lat="50.49516" lon="3.07182">
        <ele>49.65</ele>
        <time>2017-08-04T15:58:21Z</time>
      </trkpt>
      <trkpt lat="50.49494" lon="3.07189">
        <ele>48.68</ele>
        <time>2017-08-04T15:58:25Z</time>
      </trkpt>
      <trkpt lat="50.49413" lon="3.07229">
        <ele>48.68</ele>
        <time>2017-08-04T15:58:40Z</time>
      </trkpt>
      <trkpt lat="50.49408" lon="3.07235">
        <ele>48.68</ele>
        <time>2017-08-04T15:58:41Z</time>
      </trkpt>
      <trkpt lat="50.49403" lon="3.07242">
        <ele>48.68</ele>
        <time>2017-08-04T15:58:42Z</time>
      </trkpt>
      <trkpt lat="50.49399" lon="3.07248">
        <ele>48.68</ele>
        <time>2017-08-04T15:58:43Z</time>
      </trkpt>
      <trkpt lat="50.49394" lon="3.07255">
        <ele>48.68</ele>
        <time>2017-08-04T15:58:44Z</time>
      </trkpt>
      <trkpt lat="50.49369" lon="3.07289">
        <ele>48.2</ele>
        <time>2017-08-04T15:58:49Z</time>
      </trkpt>
      <trkpt lat="50.49363" lon="3.07294">
        <ele>47.72</ele>
        <time>2017-08-04T15:58:50Z</time>
      </trkpt>
      <trkpt lat="50.49357" lon="3.07297">
        <ele>47.72</ele>
        <time>2017-08-04T15:58:51Z</time>
      </trkpt>
      <trkpt lat="50.49351" lon="3.07299">
        <ele>47.72</ele>
        <time>2017-08-04T15:58:52Z</time>
      </trkpt>
      <trkpt lat="50.49344" lon="3.073">
        <ele>47.72</ele>
        <time>2017-08-04T15:58:53Z</time>
      </trkpt>
      <trkpt lat="50.49338" lon="3.07299">
        <ele>47.72</ele>
        <time>2017-08-04T15:58:54Z</time>
      </trkpt>
      <trkpt lat="50.49289" lon="3.07298">
        <ele>47.72</ele>
        <time>2017-08-04T15:59:05Z</time>
      </trkpt>
      <trkpt lat="50.49277" lon="3.07327">
        <ele>47.72</ele>
        <time>2017-08-04T15:59:11Z</time>
      </trkpt>
      <trkpt lat="50.49276" lon="3.07333">
        <ele>47.72</ele>
        <time>2017-08-04T15:59:12Z</time>
      </trkpt>
      <trkpt lat="50.49275" lon="3.07394">
        <ele>47.72</ele>
        <time>2017-08-04T15:59:20Z</time>
      </trkpt>
      <trkpt lat="50.49272" lon="3.07434">
        <ele>47.72</ele>
        <time>2017-08-04T15:59:25Z</time>
      </trkpt>
      <trkpt lat="50.49271" lon="3.07442">
        <ele>47.72</ele>
        <time>2017-08-04T15:59:26Z</time>
      </trkpt>
      <trkpt lat="50.49266" lon="3.07456">
        <ele>47.72</ele>
        <time>2017-08-04T15:59:28Z</time>
      </trkpt>
      <trkpt lat="50.49263" lon="3.07463">
        <ele>47.72</ele>
        <time>2017-08-04T15:59:29Z</time>
      </trkpt>
      <trkpt lat="50.4926" lon="3.07469">
        <ele>47.72</ele>
        <time>2017-08-04T15:59:30Z</time>
      </trkpt>
      <trkpt lat="50.49256" lon="3.07475">
        <ele>47.72</ele>
        <time>2017-08-04T15:59:31Z</time>
      </trkpt>
      <trkpt lat="50.49251" lon="3.0748">
        <ele>47.72</ele>
        <time>2017-08-04T15:59:32Z</time>
      </trkpt>
      <trkpt lat="50.49222" lon="3.07514">
        <ele>47.72</ele>
        <time>2017-08-04T15:59:39Z</time>
      </trkpt>
      <trkpt lat="50.49151" lon="3.07619">
        <ele>49.16</ele>
        <time>2017-08-04T15:59:56Z</time>
      </trkpt>
      <trkpt lat="50.4909" lon="3.07748">
        <ele>50.61</ele>
        <time>2017-08-04T16:00:13Z</time>
      </trkpt>
      <trkpt lat="50.4907" lon="3.07803">
        <ele>50.61</ele>
        <time>2017-08-04T16:00:20Z</time>
      </trkpt>
      <trkpt lat="50.49068" lon="3.07812">
        <ele>50.61</ele>
        <time>2017-08-04T16:00:21Z</time>
      </trkpt>
      <trkpt lat="50.4906" lon="3.0789">
        <ele>51.57</ele>
        <time>2017-08-04T16:00:30Z</time>
      </trkpt>
      <trkpt lat="50.49049" lon="3.07958">
        <ele>52.05</ele>
        <time>2017-08-04T16:00:38Z</time>
      </trkpt>
      <trkpt lat="50.49049" lon="3.07966">
        <ele>52.05</ele>
        <time>2017-08-04T16:00:39Z</time>
      </trkpt>
      <trkpt lat="50.49051" lon="3.07974">
        <ele>52.05</ele>
        <time>2017-08-04T16:00:40Z</time>
      </trkpt>
      <trkpt lat="50.49052" lon="3.07982">
        <ele>52.05</ele>
        <time>2017-08-04T16:00:41Z</time>
      </trkpt>
      <trkpt lat="50.49054" lon="3.07989">
        <ele>52.05</ele>
        <time>2017-08-04T16:00:42Z</time>
      </trkpt>
      <trkpt lat="50.49078" lon="3.08103">
        <ele>52.53</ele>
        <time>2017-08-04T16:00:57Z</time>
      </trkpt>
      <trkpt lat="50.49079" lon="3.08119">
        <ele>52.53</ele>
        <time>2017-08-04T16:00:59Z</time>
      </trkpt>
      <trkpt lat="50.49079" lon="3.08126">
        <ele>53.01</ele>
        <time>2017-08-04T16:01:00Z</time>
      </trkpt>
      <trkpt lat="50.49079" lon="3.08143">
        <ele>53.01</ele>
        <time>2017-08-04T16:01:02Z</time>
      </trkpt>
      <trkpt lat="50.4908" lon="3.08149">
        <ele>53.01</ele>
        <time>2017-08-04T16:01:03Z</time>
      </trkpt>
      <trkpt lat="50.49082" lon="3.08155">
        <ele>53.01</ele>
        <time>2017-08-04T16:01:04Z</time>
      </trkpt>
      <trkpt lat="50.49084" lon="3.08162">
        <ele>53.01</ele>
        <time>2017-08-04T16:01:05Z</time>
      </trkpt>
      <trkpt lat="50.49086" lon="3.08169">
        <ele>53.01</ele>
        <time>2017-08-04T16:01:06Z</time>
      </trkpt>
      <trkpt lat="50.49087" lon="3.08177">
        <ele>53.49</ele>
        <time>2017-08-04T16:01:07Z</time>
      </trkpt>
      <trkpt lat="50.49088" lon="3.08184">
        <ele>53.49</ele>
        <time>2017-08-04T16:01:08Z</time>
      </trkpt>
      <trkpt lat="50.49088" lon="3.08193">
        <ele>53.49</ele>
        <time>2017-08-04T16:01:09Z</time>
      </trkpt>
      <trkpt lat="50.49089" lon="3.08201">
        <ele>53.49</ele>
        <time>2017-08-04T16:01:10Z</time>
      </trkpt>
      <trkpt lat="50.4909" lon="3.08207">
        <ele>53.49</ele>
        <time>2017-08-04T16:01:11Z</time>
      </trkpt>
      <trkpt lat="50.49091" lon="3.08215">
        <ele>53.49</ele>
        <time>2017-08-04T16:01:12Z</time>
      </trkpt>
      <trkpt lat="50.49093" lon="3.08222">
        <ele>53.49</ele>
        <time>2017-08-04T16:01:13Z</time>
      </trkpt>
      <trkpt lat="50.49093" lon="3.0823">
        <ele>53.97</ele>
        <time>2017-08-04T16:01:14Z</time>
      </trkpt>
      <trkpt lat="50.49093" lon="3.08238">
        <ele>53.97</ele>
        <time>2017-08-04T16:01:15Z</time>
      </trkpt>
      <trkpt lat="50.49093" lon="3.08246">
        <ele>53.97</ele>
        <time>2017-08-04T16:01:16Z</time>
      </trkpt>
      <trkpt lat="50.49092" lon="3.08284">
        <ele>53.97</ele>
        <time>2017-08-04T16:01:21Z</time>
      </trkpt>
      <trkpt lat="50.4909" lon="3.08291">
        <ele>53.97</ele>
        <time>2017-08-04T16:01:22Z</time>
      </trkpt>
      <trkpt lat="50.49088" lon="3.08297">
        <ele>53.49</ele>
        <time>2017-08-04T16:01:23Z</time>
      </trkpt>
      <trkpt lat="50.49085" lon="3.08302">
        <ele>53.97</ele>
        <time>2017-08-04T16:01:24Z</time>
      </trkpt>
      <trkpt lat="50.49081" lon="3.08308">
        <ele>53.97</ele>
        <time>2017-08-04T16:01:25Z</time>
      </trkpt>
      <trkpt lat="50.49053" lon="3.08358">
        <ele>54.45</ele>
        <time>2017-08-04T16:01:34Z</time>
      </trkpt>
      <trkpt lat="50.49053" lon="3.08366">
        <ele>54.45</ele>
        <time>2017-08-04T16:01:35Z</time>
      </trkpt>
      <trkpt lat="50.49055" lon="3.08371">
        <ele>54.93</ele>
        <time>2017-08-04T16:01:36Z</time>
      </trkpt>
      <trkpt lat="50.49057" lon="3.08376">
        <ele>54.93</ele>
        <time>2017-08-04T16:01:37Z</time>
      </trkpt>
      <trkpt lat="50.49059" lon="3.08381">
        <ele>54.93</ele>
        <time>2017-08-04T16:01:38Z</time>
      </trkpt>
      <trkpt lat="50.49061" lon="3.08388">
        <ele>54.93</ele>
        <time>2017-08-04T16:01:39Z</time>
      </trkpt>
      <trkpt lat="50.49063" lon="3.08394">
        <ele>54.93</ele>
        <time>2017-08-04T16:01:40Z</time>
      </trkpt>
      <trkpt lat="50.49065" lon="3.084">
        <ele>54.93</ele>
        <time>2017-08-04T16:01:41Z</time>
      </trkpt>
      <trkpt lat="50.49067" lon="3.08408">
        <ele>54.93</ele>
        <time>2017-08-04T16:01:42Z</time>
      </trkpt>
      <trkpt lat="50.49076" lon="3.08433">
        <ele>54.93</ele>
        <time>2017-08-04T16:01:46Z</time>
      </trkpt>
      <trkpt lat="50.49079" lon="3.08438">
        <ele>55.41</ele>
        <time>2017-08-04T16:01:47Z</time>
      </trkpt>
      <trkpt lat="50.49082" lon="3.08443">
        <ele>55.41</ele>
        <time>2017-08-04T16:01:48Z</time>
      </trkpt>
      <trkpt lat="50.49149" lon="3.0852">
        <ele>57.34</ele>
        <time>2017-08-04T16:02:06Z</time>
      </trkpt>
      <trkpt lat="50.49205" lon="3.08583">
        <ele>59.26</ele>
        <time>2017-08-04T16:02:22Z</time>
      </trkpt>
      <trkpt lat="50.49208" lon="3.08588">
        <ele>59.26</ele>
        <time>2017-08-04T16:02:23Z</time>
      </trkpt>
      <trkpt lat="50.49211" lon="3.08593">
        <ele>59.74</ele>
        <time>2017-08-04T16:02:24Z</time>
      </trkpt>
      <trkpt lat="50.49218" lon="3.0861">
        <ele>60.22</ele>
        <time>2017-08-04T16:02:27Z</time>
      </trkpt>
      <trkpt lat="50.4924" lon="3.08714">
        <ele>62.62</ele>
        <time>2017-08-04T16:02:45Z</time>
      </trkpt>
      <trkpt lat="50.4924" lon="3.08726">
        <ele>62.62</ele>
        <time>2017-08-04T16:02:47Z</time>
      </trkpt>
      <trkpt lat="50.4924" lon="3.08733">
        <ele>62.62</ele>
        <time>2017-08-04T16:02:48Z</time>
      </trkpt>
      <trkpt lat="50.4923" lon="3.08837">
        <ele>65.51</ele>
        <time>2017-08-04T16:03:05Z</time>
      </trkpt>
      <trkpt lat="50.49221" lon="3.08915">
        <ele>66.95</ele>
        <time>2017-08-04T16:03:18Z</time>
      </trkpt>
      <trkpt lat="50.492" lon="3.0899">
        <ele>65.51</ele>
        <time>2017-08-04T16:03:28Z</time>
      </trkpt>
      <trkpt lat="50.49185" lon="3.09038">
        <ele>64.55</ele>
        <time>2017-08-04T16:03:33Z</time>
      </trkpt>
      <trkpt lat="50.49184" lon="3.0905">
        <ele>64.55</ele>
        <time>2017-08-04T16:03:34Z</time>
      </trkpt>
      <trkpt lat="50.49185" lon="3.0906">
        <ele>64.55</ele>
        <time>2017-08-04T16:03:35Z</time>
      </trkpt>
      <trkpt lat="50.49189" lon="3.09069">
        <ele>64.55</ele>
        <time>2017-08-04T16:03:36Z</time>
      </trkpt>
      <trkpt lat="50.49194" lon="3.09076">
        <ele>64.55</ele>
        <time>2017-08-04T16:03:37Z</time>
      </trkpt>
      <trkpt lat="50.492" lon="3.09082">
        <ele>64.55</ele>
        <time>2017-08-04T16:03:38Z</time>
      </trkpt>
      <trkpt lat="50.49207" lon="3.09086">
        <ele>64.55</ele>
        <time>2017-08-04T16:03:39Z</time>
      </trkpt>
      <trkpt lat="50.49268" lon="3.09135">
        <ele>62.62</ele>
        <time>2017-08-04T16:03:48Z</time>
      </trkpt>
      <trkpt lat="50.49273" lon="3.09144">
        <ele>62.14</ele>
        <time>2017-08-04T16:03:49Z</time>
      </trkpt>
      <trkpt lat="50.49277" lon="3.09155">
        <ele>62.14</ele>
        <time>2017-08-04T16:03:50Z</time>
      </trkpt>
      <trkpt lat="50.49279" lon="3.09168">
        <ele>61.66</ele>
        <time>2017-08-04T16:03:51Z</time>
      </trkpt>
      <trkpt lat="50.4928" lon="3.09181">
        <ele>61.66</ele>
        <time>2017-08-04T16:03:52Z</time>
      </trkpt>
      <trkpt lat="50.4928" lon="3.09192">
        <ele>61.66</ele>
        <time>2017-08-04T16:03:53Z</time>
      </trkpt>
      <trkpt lat="50.49281" lon="3.09204">
        <ele>61.66</ele>
        <time>2017-08-04T16:03:54Z</time>
      </trkpt>
      <trkpt lat="50.49283" lon="3.09217">
        <ele>61.18</ele>
        <time>2017-08-04T16:03:55Z</time>
      </trkpt>
      <trkpt lat="50.49299" lon="3.09305">
        <ele>60.7</ele>
        <time>2017-08-04T16:04:02Z</time>
      </trkpt>
      <trkpt lat="50.49311" lon="3.09354">
        <ele>60.7</ele>
        <time>2017-08-04T16:04:06Z</time>
      </trkpt>
      <trkpt lat="50.49314" lon="3.09367">
        <ele>60.22</ele>
        <time>2017-08-04T16:04:07Z</time>
      </trkpt>
      <trkpt lat="50.49336" lon="3.09462">
        <ele>58.3</ele>
        <time>2017-08-04T16:04:15Z</time>
      </trkpt>
      <trkpt lat="50.49334" lon="3.0947">
        <ele>58.3</ele>
        <time>2017-08-04T16:04:16Z</time>
      </trkpt>
      <trkpt lat="50.4933" lon="3.09476">
        <ele>58.3</ele>
        <time>2017-08-04T16:04:17Z</time>
      </trkpt>
      <trkpt lat="50.49325" lon="3.0948">
        <ele>58.3</ele>
        <time>2017-08-04T16:04:18Z</time>
      </trkpt>
      <trkpt lat="50.49321" lon="3.09483">
        <ele>58.3</ele>
        <time>2017-08-04T16:04:19Z</time>
      </trkpt>
      <trkpt lat="50.49317" lon="3.09486">
        <ele>58.3</ele>
        <time>2017-08-04T16:04:20Z</time>
      </trkpt>
      <trkpt lat="50.49302" lon="3.095">
        <ele>58.3</ele>
        <time>2017-08-04T16:04:24Z</time>
      </trkpt>
      <trkpt lat="50.49294" lon="3.09513">
        <ele>59.74</ele>
        <time>2017-08-04T16:04:27Z</time>
      </trkpt>
      <trkpt lat="50.49286" lon="3.09528">
        <ele>59.74</ele>
        <time>2017-08-04T16:04:30Z</time>
      </trkpt>
      <trkpt lat="50.49284" lon="3.09534">
        <ele>59.74</ele>
        <time>2017-08-04T16:04:31Z</time>
      </trkpt>
      <trkpt lat="50.49283" lon="3.09542">
        <ele>59.74</ele>
        <time>2017-08-04T16:04:32Z</time>
      </trkpt>
      <trkpt lat="50.49284" lon="3.09549">
        <ele>59.74</ele>
        <time>2017-08-04T16:04:33Z</time>
      </trkpt>
      <trkpt lat="50.49284" lon="3.09555">
        <ele>59.74</ele>
        <time>2017-08-04T16:04:34Z</time>
      </trkpt>
      <trkpt lat="50.49285" lon="3.09563">
        <ele>59.74</ele>
        <time>2017-08-04T16:04:35Z</time>
      </trkpt>
      <trkpt lat="50.49292" lon="3.09614">
        <ele>59.74</ele>
        <time>2017-08-04T16:04:41Z</time>
      </trkpt>
      <trkpt lat="50.49291" lon="3.09623">
        <ele>59.74</ele>
        <time>2017-08-04T16:04:42Z</time>
      </trkpt>
      <trkpt lat="50.49289" lon="3.0963">
        <ele>59.74</ele>
        <time>2017-08-04T16:04:43Z</time>
      </trkpt>
      <trkpt lat="50.49285" lon="3.09636">
        <ele>59.74</ele>
        <time>2017-08-04T16:04:44Z</time>
      </trkpt>
      <trkpt lat="50.4928" lon="3.09641">
        <ele>59.74</ele>
        <time>2017-08-04T16:04:45Z</time>
      </trkpt>
      <trkpt lat="50.49275" lon="3.09644">
        <ele>59.74</ele>
        <time>2017-08-04T16:04:46Z</time>
      </trkpt>
      <trkpt lat="50.49271" lon="3.09647">
        <ele>59.74</ele>
        <time>2017-08-04T16:04:47Z</time>
      </trkpt>
      <trkpt lat="50.49258" lon="3.09658">
        <ele>59.74</ele>
        <time>2017-08-04T16:04:50Z</time>
      </trkpt>
      <trkpt lat="50.49255" lon="3.09665">
        <ele>60.22</ele>
        <time>2017-08-04T16:04:51Z</time>
      </trkpt>
      <trkpt lat="50.49253" lon="3.0967">
        <ele>60.22</ele>
        <time>2017-08-04T16:04:52Z</time>
      </trkpt>
      <trkpt lat="50.49252" lon="3.09677">
        <ele>60.22</ele>
        <time>2017-08-04T16:04:53Z</time>
      </trkpt>
      <trkpt lat="50.49252" lon="3.09684">
        <ele>60.22</ele>
        <time>2017-08-04T16:04:54Z</time>
      </trkpt>
      <trkpt lat="50.49253" lon="3.09692">
        <ele>60.22</ele>
        <time>2017-08-04T16:04:55Z</time>
      </trkpt>
      <trkpt lat="50.49254" lon="3.097">
        <ele>60.22</ele>
        <time>2017-08-04T16:04:56Z</time>
      </trkpt>
      <trkpt lat="50.49256" lon="3.09709">
        <ele>60.22</ele>
        <time>2017-08-04T16:04:57Z</time>
      </trkpt>
      <trkpt lat="50.49284" lon="3.09831">
        <ele>59.74</ele>
        <time>2017-08-04T16:05:11Z</time>
      </trkpt>
      <trkpt lat="50.49288" lon="3.09839">
        <ele>59.74</ele>
        <time>2017-08-04T16:05:12Z</time>
      </trkpt>
      <trkpt lat="50.49292" lon="3.09846">
        <ele>59.74</ele>
        <time>2017-08-04T16:05:13Z</time>
      </trkpt>
      <trkpt lat="50.49325" lon="3.09925">
        <ele>58.78</ele>
        <time>2017-08-04T16:05:23Z</time>
      </trkpt>
      <trkpt lat="50.49326" lon="3.09934">
        <ele>58.78</ele>
        <time>2017-08-04T16:05:24Z</time>
      </trkpt>
      <trkpt lat="50.49327" lon="3.09941">
        <ele>58.78</ele>
        <time>2017-08-04T16:05:25Z</time>
      </trkpt>
      <trkpt lat="50.49326" lon="3.09949">
        <ele>58.78</ele>
        <time>2017-08-04T16:05:26Z</time>
      </trkpt>
      <trkpt lat="50.49323" lon="3.09955">
        <ele>58.78</ele>
        <time>2017-08-04T16:05:27Z</time>
      </trkpt>
      <trkpt lat="50.4932" lon="3.0996">
        <ele>58.78</ele>
        <time>2017-08-04T16:05:28Z</time>
      </trkpt>
      <trkpt lat="50.49316" lon="3.09962">
        <ele>58.78</ele>
        <time>2017-08-04T16:05:29Z</time>
      </trkpt>
      <trkpt lat="50.49312" lon="3.09963">
        <ele>58.78</ele>
        <time>2017-08-04T16:05:30Z</time>
      </trkpt>
      <trkpt lat="50.49307" lon="3.09965">
        <ele>58.78</ele>
        <time>2017-08-04T16:05:31Z</time>
      </trkpt>
      <trkpt lat="50.49303" lon="3.09966">
        <ele>58.78</ele>
        <time>2017-08-04T16:05:32Z</time>
      </trkpt>
      <trkpt lat="50.49298" lon="3.09967">
        <ele>60.22</ele>
        <time>2017-08-04T16:05:33Z</time>
      </trkpt>
      <trkpt lat="50.49294" lon="3.09968">
        <ele>60.22</ele>
        <time>2017-08-04T16:05:34Z</time>
      </trkpt>
      <trkpt lat="50.49246" lon="3.10004">
        <ele>62.14</ele>
        <time>2017-08-04T16:05:48Z</time>
      </trkpt>
      <trkpt lat="50.49246" lon="3.10009">
        <ele>62.14</ele>
        <time>2017-08-04T16:05:49Z</time>
      </trkpt>
      <trkpt lat="50.49247" lon="3.10015">
        <ele>62.14</ele>
        <time>2017-08-04T16:05:50Z</time>
      </trkpt>
      <trkpt lat="50.49248" lon="3.10021">
        <ele>62.14</ele>
        <time>2017-08-04T16:05:51Z</time>
      </trkpt>
      <trkpt lat="50.49251" lon="3.10027">
        <ele>62.14</ele>
        <time>2017-08-04T16:05:52Z</time>
      </trkpt>
      <trkpt lat="50.49258" lon="3.10046">
        <ele>61.66</ele>
        <time>2017-08-04T16:05:55Z</time>
      </trkpt>
      <trkpt lat="50.49265" lon="3.10071">
        <ele>60.7</ele>
        <time>2017-08-04T16:05:58Z</time>
      </trkpt>
      <trkpt lat="50.49274" lon="3.10117">
        <ele>60.22</ele>
        <time>2017-08-04T16:06:03Z</time>
      </trkpt>
      <trkpt lat="50.49278" lon="3.10126">
        <ele>60.22</ele>
        <time>2017-08-04T16:06:04Z</time>
      </trkpt>
      <trkpt lat="50.49283" lon="3.10133">
        <ele>59.74</ele>
        <time>2017-08-04T16:06:05Z</time>
      </trkpt>
      <trkpt lat="50.49289" lon="3.10138">
        <ele>59.74</ele>
        <time>2017-08-04T16:06:06Z</time>
      </trkpt>
      <trkpt lat="50.49295" lon="3.10141">
        <ele>59.74</ele>
        <time>2017-08-04T16:06:07Z</time>
      </trkpt>
      <trkpt lat="50.49302" lon="3.10145">
        <ele>59.74</ele>
        <time>2017-08-04T16:06:08Z</time>
      </trkpt>
      <trkpt lat="50.49308" lon="3.1015">
        <ele>59.26</ele>
        <time>2017-08-04T16:06:09Z</time>
      </trkpt>
      <trkpt lat="50.49315" lon="3.10156">
        <ele>58.78</ele>
        <time>2017-08-04T16:06:10Z</time>
      </trkpt>
      <trkpt lat="50.49321" lon="3.10162">
        <ele>58.78</ele>
        <time>2017-08-04T16:06:11Z</time>
      </trkpt>
      <trkpt lat="50.49358" lon="3.10206">
        <ele>58.3</ele>
        <time>2017-08-04T16:06:18Z</time>
      </trkpt>
      <trkpt lat="50.49361" lon="3.10214">
        <ele>58.3</ele>
        <time>2017-08-04T16:06:19Z</time>
      </trkpt>
      <trkpt lat="50.49364" lon="3.10222">
        <ele>58.3</ele>
        <time>2017-08-04T16:06:20Z</time>
      </trkpt>
      <trkpt lat="50.49365" lon="3.10231">
        <ele>58.3</ele>
        <time>2017-08-04T16:06:21Z</time>
      </trkpt>
      <trkpt lat="50.49365" lon="3.1024">
        <ele>58.3</ele>
        <time>2017-08-04T16:06:22Z</time>
      </trkpt>
      <trkpt lat="50.49364" lon="3.10249">
        <ele>58.3</ele>
        <time>2017-08-04T16:06:23Z</time>
      </trkpt>
      <trkpt lat="50.49363" lon="3.10257">
        <ele>58.3</ele>
        <time>2017-08-04T16:06:24Z</time>
      </trkpt>
      <trkpt lat="50.49362" lon="3.10266">
        <ele>58.3</ele>
        <time>2017-08-04T16:06:25Z</time>
      </trkpt>
      <trkpt lat="50.49344" lon="3.1032">
        <ele>58.3</ele>
        <time>2017-08-04T16:06:35Z</time>
      </trkpt>
      <trkpt lat="50.49341" lon="3.10319">
        <ele>58.3</ele>
        <time>2017-08-04T16:06:36Z</time>
      </trkpt>
      <trkpt lat="50.49338" lon="3.10318">
        <ele>58.3</ele>
        <time>2017-08-04T16:06:37Z</time>
      </trkpt>
      <trkpt lat="50.49335" lon="3.10316">
        <ele>58.3</ele>
        <time>2017-08-04T16:06:38Z</time>
      </trkpt>
      <trkpt lat="50.49332" lon="3.10315">
        <ele>58.3</ele>
        <time>2017-08-04T16:06:39Z</time>
      </trkpt>
      <trkpt lat="50.49329" lon="3.10314">
        <ele>58.3</ele>
        <time>2017-08-04T16:06:40Z</time>
      </trkpt>
      <trkpt lat="50.49315" lon="3.10308">
        <ele>59.26</ele>
        <time>2017-08-04T16:06:45Z</time>
      </trkpt>
      <trkpt lat="50.49252" lon="3.10284">
        <ele>60.7</ele>
        <time>2017-08-04T16:07:10Z</time>
      </trkpt>
      <trkpt lat="50.49225" lon="3.10274">
        <ele>63.58</ele>
        <time>2017-08-04T16:07:21Z</time>
      </trkpt>
      <trkpt lat="50.49218" lon="3.10271">
        <ele>62.14</ele>
        <time>2017-08-04T16:07:24Z</time>
      </trkpt>
      <trkpt lat="50.49175" lon="3.10257">
        <ele>65.51</ele>
        <time>2017-08-04T16:07:42Z</time>
      </trkpt>
      <trkpt lat="50.49132" lon="3.10249">
        <ele>67.91</ele>
        <time>2017-08-04T16:08:00Z</time>
      </trkpt>
      <trkpt lat="50.49083" lon="3.10248">
        <ele>70.31</ele>
        <time>2017-08-04T16:08:20Z</time>
      </trkpt>
      <trkpt lat="50.49053" lon="3.10251">
        <ele>73.68</ele>
        <time>2017-08-04T16:08:33Z</time>
      </trkpt>
      <trkpt lat="50.49011" lon="3.10262">
        <ele>74.64</ele>
        <time>2017-08-04T16:08:51Z</time>
      </trkpt>
      <trkpt lat="50.48956" lon="3.10279">
        <ele>76.08</ele>
        <time>2017-08-04T16:09:08Z</time>
      </trkpt>
      <trkpt lat="50.489" lon="3.10295">
        <ele>72.72</ele>
        <time>2017-08-04T16:09:19Z</time>
      </trkpt>
      <trkpt lat="50.48864" lon="3.10306">
        <ele>70.31</ele>
        <time>2017-08-04T16:09:24Z</time>
      </trkpt>
      <trkpt lat="50.48832" lon="3.10316">
        <ele>67.91</ele>
        <time>2017-08-04T16:09:28Z</time>
      </trkpt>
      <trkpt lat="50.48723" lon="3.10356">
        <ele>66.47</ele>
        <time>2017-08-04T16:09:43Z</time>
      </trkpt>
      <trkpt lat="50.48713" lon="3.10363">
        <ele>67.43</ele>
        <time>2017-08-04T16:09:45Z</time>
      </trkpt>
      <trkpt lat="50.4871" lon="3.10368">
        <ele>68.39</ele>
        <time>2017-08-04T16:09:46Z</time>
      </trkpt>
      <trkpt lat="50.48709" lon="3.10375">
        <ele>68.39</ele>
        <time>2017-08-04T16:09:47Z</time>
      </trkpt>
      <trkpt lat="50.4871" lon="3.10382">
        <ele>68.39</ele>
        <time>2017-08-04T16:09:48Z</time>
      </trkpt>
      <trkpt lat="50.48711" lon="3.10389">
        <ele>68.87</ele>
        <time>2017-08-04T16:09:49Z</time>
      </trkpt>
      <trkpt lat="50.48714" lon="3.10395">
        <ele>68.39</ele>
        <time>2017-08-04T16:09:50Z</time>
      </trkpt>
      <trkpt lat="50.48716" lon="3.10402">
        <ele>68.39</ele>
        <time>2017-08-04T16:09:51Z</time>
      </trkpt>
      <trkpt lat="50.48753" lon="3.10509">
        <ele>65.51</ele>
        <time>2017-08-04T16:10:04Z</time>
      </trkpt>
      <trkpt lat="50.48782" lon="3.10599">
        <ele>64.07</ele>
        <time>2017-08-04T16:10:13Z</time>
      </trkpt>
      <trkpt lat="50.4883" lon="3.10741">
        <ele>61.66</ele>
        <time>2017-08-04T16:10:27Z</time>
      </trkpt>
      <trkpt lat="50.48894" lon="3.10911">
        <ele>61.18</ele>
        <time>2017-08-04T16:10:44Z</time>
      </trkpt>
      <trkpt lat="50.48966" lon="3.11065">
        <ele>60.22</ele>
        <time>2017-08-04T16:11:02Z</time>
      </trkpt>
      <trkpt lat="50.49045" lon="3.11238">
        <ele>57.34</ele>
        <time>2017-08-04T16:11:23Z</time>
      </trkpt>
      <trkpt lat="50.49113" lon="3.11389">
        <ele>55.89</ele>
        <time>2017-08-04T16:11:40Z</time>
      </trkpt>
      <trkpt lat="50.49117" lon="3.11396">
        <ele>55.89</ele>
        <time>2017-08-04T16:11:41Z</time>
      </trkpt>
      <trkpt lat="50.49121" lon="3.11404">
        <ele>55.89</ele>
        <time>2017-08-04T16:11:42Z</time>
      </trkpt>
      <trkpt lat="50.49191" lon="3.11557">
        <ele>54.45</ele>
        <time>2017-08-04T16:11:59Z</time>
      </trkpt>
      <trkpt lat="50.49239" lon="3.11681">
        <ele>53.49</ele>
        <time>2017-08-04T16:12:12Z</time>
      </trkpt>
      <trkpt lat="50.49242" lon="3.1169">
        <ele>53.01</ele>
        <time>2017-08-04T16:12:13Z</time>
      </trkpt>
      <trkpt lat="50.49242" lon="3.11697">
        <ele>52.53</ele>
        <time>2017-08-04T16:12:14Z</time>
      </trkpt>
      <trkpt lat="50.49241" lon="3.11704">
        <ele>52.53</ele>
        <time>2017-08-04T16:12:15Z</time>
      </trkpt>
      <trkpt lat="50.49239" lon="3.11709">
        <ele>52.53</ele>
        <time>2017-08-04T16:12:16Z</time>
      </trkpt>
      <trkpt lat="50.49236" lon="3.11711">
        <ele>52.05</ele>
        <time>2017-08-04T16:12:17Z</time>
      </trkpt>
      <trkpt lat="50.49233" lon="3.11713">
        <ele>52.05</ele>
        <time>2017-08-04T16:12:18Z</time>
      </trkpt>
      <trkpt lat="50.49191" lon="3.11737">
        <ele>53.49</ele>
        <time>2017-08-04T16:12:31Z</time>
      </trkpt>
      <trkpt lat="50.49137" lon="3.1177">
        <ele>54.93</ele>
        <time>2017-08-04T16:12:47Z</time>
      </trkpt>
      <trkpt lat="50.49111" lon="3.11782">
        <ele>54.93</ele>
        <time>2017-08-04T16:12:54Z</time>
      </trkpt>
      <trkpt lat="50.49072" lon="3.11799">
        <ele>54.93</ele>
        <time>2017-08-04T16:13:04Z</time>
      </trkpt>
      <trkpt lat="50.49069" lon="3.11802">
        <ele>55.41</ele>
        <time>2017-08-04T16:13:05Z</time>
      </trkpt>
      <trkpt lat="50.49062" lon="3.11809">
        <ele>55.41</ele>
        <time>2017-08-04T16:13:07Z</time>
      </trkpt>
      <trkpt lat="50.49003" lon="3.11904">
        <ele>53.97</ele>
        <time>2017-08-04T16:13:24Z</time>
      </trkpt>
      <trkpt lat="50.48924" lon="3.12015">
        <ele>52.05</ele>
        <time>2017-08-04T16:13:42Z</time>
      </trkpt>
      <trkpt lat="50.48869" lon="3.12092">
        <ele>51.09</ele>
        <time>2017-08-04T16:13:56Z</time>
      </trkpt>
      <trkpt lat="50.48852" lon="3.12107">
        <ele>51.09</ele>
        <time>2017-08-04T16:14:00Z</time>
      </trkpt>
      <trkpt lat="50.48848" lon="3.12109">
        <ele>51.09</ele>
        <time>2017-08-04T16:14:01Z</time>
      </trkpt>
      <trkpt lat="50.48844" lon="3.12111">
        <ele>51.09</ele>
        <time>2017-08-04T16:14:02Z</time>
      </trkpt>
      <trkpt lat="50.48826" lon="3.12113">
        <ele>52.53</ele>
        <time>2017-08-04T16:14:06Z</time>
      </trkpt>
      <trkpt lat="50.4875" lon="3.12111">
        <ele>53.01</ele>
        <time>2017-08-04T16:14:24Z</time>
      </trkpt>
      <trkpt lat="50.48685" lon="3.12109">
        <ele>53.49</ele>
        <time>2017-08-04T16:14:42Z</time>
      </trkpt>
      <trkpt lat="50.48628" lon="3.12123">
        <ele>54.45</ele>
        <time>2017-08-04T16:14:58Z</time>
      </trkpt>
      <trkpt lat="50.48615" lon="3.12129">
        <ele>54.45</ele>
        <time>2017-08-04T16:15:02Z</time>
      </trkpt>
      <trkpt lat="50.48614" lon="3.12133">
        <ele>54.45</ele>
        <time>2017-08-04T16:15:03Z</time>
      </trkpt>
      <trkpt lat="50.48614" lon="3.12139">
        <ele>54.45</ele>
        <time>2017-08-04T16:15:04Z</time>
      </trkpt>
      <trkpt lat="50.48617" lon="3.12144">
        <ele>54.45</ele>
        <time>2017-08-04T16:15:05Z</time>
      </trkpt>
      <trkpt lat="50.48619" lon="3.12147">
        <ele>54.45</ele>
        <time>2017-08-04T16:15:06Z</time>
      </trkpt>
      <trkpt lat="50.48621" lon="3.12151">
        <ele>54.45</ele>
        <time>2017-08-04T16:15:07Z</time>
      </trkpt>
      <trkpt lat="50.48624" lon="3.12156">
        <ele>54.45</ele>
        <time>2017-08-04T16:15:08Z</time>
      </trkpt>
      <trkpt lat="50.48678" lon="3.12239">
        <ele>54.93</ele>
        <time>2017-08-04T16:15:25Z</time>
      </trkpt>
      <trkpt lat="50.48684" lon="3.12249">
        <ele>54.93</ele>
        <time>2017-08-04T16:15:27Z</time>
      </trkpt>
      <trkpt lat="50.48688" lon="3.12254">
        <ele>54.93</ele>
        <time>2017-08-04T16:15:28Z</time>
      </trkpt>
      <trkpt lat="50.48691" lon="3.12258">
        <ele>54.93</ele>
        <time>2017-08-04T16:15:29Z</time>
      </trkpt>
      <trkpt lat="50.4874" lon="3.12333">
        <ele>55.89</ele>
        <time>2017-08-04T16:15:46Z</time>
      </trkpt>
      <trkpt lat="50.48781" lon="3.12393">
        <ele>56.37</ele>
        <time>2017-08-04T16:16:00Z</time>
      </trkpt>
      <trkpt lat="50.48787" lon="3.12401">
        <ele>56.37</ele>
        <time>2017-08-04T16:16:02Z</time>
      </trkpt>
      <trkpt lat="50.48825" lon="3.12458">
        <ele>56.37</ele>
        <time>2017-08-04T16:16:15Z</time>
      </trkpt>
      <trkpt lat="50.48889" lon="3.12535">
        <ele>56.37</ele>
        <time>2017-08-04T16:16:31Z</time>
      </trkpt>
      <trkpt lat="50.48968" lon="3.12613">
        <ele>54.93</ele>
        <time>2017-08-04T16:16:48Z</time>
      </trkpt>
      <trkpt lat="50.49043" lon="3.12701">
        <ele>54.45</ele>
        <time>2017-08-04T16:17:05Z</time>
      </trkpt>
      <trkpt lat="50.49122" lon="3.12755">
        <ele>52.53</ele>
        <time>2017-08-04T16:17:20Z</time>
      </trkpt>
      <trkpt lat="50.49151" lon="3.12771">
        <ele>52.05</ele>
        <time>2017-08-04T16:17:26Z</time>
      </trkpt>
      <trkpt lat="50.49152" lon="3.12775">
        <ele>52.05</ele>
        <time>2017-08-04T16:17:27Z</time>
      </trkpt>
      <trkpt lat="50.49151" lon="3.12778">
        <ele>52.05</ele>
        <time>2017-08-04T16:17:28Z</time>
      </trkpt>
      <trkpt lat="50.49149" lon="3.12782">
        <ele>52.05</ele>
        <time>2017-08-04T16:17:29Z</time>
      </trkpt>
      <trkpt lat="50.49149" lon="3.12783">
        <ele>52.05</ele>
        <time>2017-08-04T16:17:30Z</time>
      </trkpt>
      <trkpt lat="50.49148" lon="3.12786">
        <ele>52.05</ele>
        <time>2017-08-04T16:17:31Z</time>
      </trkpt>
      <trkpt lat="50.49146" lon="3.12789">
        <ele>52.05</ele>
        <time>2017-08-04T16:17:32Z</time>
      </trkpt>
      <trkpt lat="50.49144" lon="3.12792">
        <ele>52.05</ele>
        <time>2017-08-04T16:17:33Z</time>
      </trkpt>
      <trkpt lat="50.49106" lon="3.12847">
        <ele>53.97</ele>
        <time>2017-08-04T16:17:50Z</time>
      </trkpt>
      <trkpt lat="50.49072" lon="3.12895">
        <ele>54.93</ele>
        <time>2017-08-04T16:18:05Z</time>
      </trkpt>
      <trkpt lat="50.49037" lon="3.12946">
        <ele>55.41</ele>
        <time>2017-08-04T16:18:20Z</time>
      </trkpt>
      <trkpt lat="50.49001" lon="3.12994">
        <ele>55.89</ele>
        <time>2017-08-04T16:18:33Z</time>
      </trkpt>
      <trkpt lat="50.48998" lon="3.12999">
        <ele>55.89</ele>
        <time>2017-08-04T16:18:34Z</time>
      </trkpt>
      <trkpt lat="50.48989" lon="3.13013">
        <ele>55.89</ele>
        <time>2017-08-04T16:18:37Z</time>
      </trkpt>
      <trkpt lat="50.48985" lon="3.13017">
        <ele>55.89</ele>
        <time>2017-08-04T16:18:38Z</time>
      </trkpt>
      <trkpt lat="50.48982" lon="3.13021">
        <ele>55.89</ele>
        <time>2017-08-04T16:18:39Z</time>
      </trkpt>
      <trkpt lat="50.48975" lon="3.13028">
        <ele>55.89</ele>
        <time>2017-08-04T16:18:41Z</time>
      </trkpt>
      <trkpt lat="50.48968" lon="3.13034">
        <ele>55.89</ele>
        <time>2017-08-04T16:18:43Z</time>
      </trkpt>
      <trkpt lat="50.48962" lon="3.13041">
        <ele>55.89</ele>
        <time>2017-08-04T16:18:45Z</time>
      </trkpt>
      <trkpt lat="50.48887" lon="3.131">
        <ele>55.41</ele>
        <time>2017-08-04T16:19:04Z</time>
      </trkpt>
      <trkpt lat="50.48828" lon="3.13151">
        <ele>53.97</ele>
        <time>2017-08-04T16:19:19Z</time>
      </trkpt>
      <trkpt lat="50.48794" lon="3.13197">
        <ele>55.41</ele>
        <time>2017-08-04T16:19:31Z</time>
      </trkpt>
      <trkpt lat="50.48765" lon="3.13241">
        <ele>55.89</ele>
        <time>2017-08-04T16:19:45Z</time>
      </trkpt>
      <trkpt lat="50.48742" lon="3.13272">
        <ele>56.86</ele>
        <time>2017-08-04T16:19:57Z</time>
      </trkpt>
      <trkpt lat="50.48729" lon="3.13286">
        <ele>56.86</ele>
        <time>2017-08-04T16:20:02Z</time>
      </trkpt>
      <trkpt lat="50.48726" lon="3.1329">
        <ele>56.86</ele>
        <time>2017-08-04T16:20:03Z</time>
      </trkpt>
      <trkpt lat="50.48723" lon="3.13294">
        <ele>56.86</ele>
        <time>2017-08-04T16:20:04Z</time>
      </trkpt>
      <trkpt lat="50.48702" lon="3.13325">
        <ele>56.86</ele>
        <time>2017-08-04T16:20:11Z</time>
      </trkpt>
      <trkpt lat="50.48699" lon="3.1333">
        <ele>56.86</ele>
        <time>2017-08-04T16:20:12Z</time>
      </trkpt>
      <trkpt lat="50.48667" lon="3.1338">
        <ele>57.82</ele>
        <time>2017-08-04T16:20:23Z</time>
      </trkpt>
      <trkpt lat="50.48622" lon="3.13452">
        <ele>57.82</ele>
        <time>2017-08-04T16:20:39Z</time>
      </trkpt>
      <trkpt lat="50.48604" lon="3.13483">
        <ele>58.3</ele>
        <time>2017-08-04T16:20:47Z</time>
      </trkpt>
      <trkpt lat="50.48602" lon="3.13485">
        <ele>58.3</ele>
        <time>2017-08-04T16:20:48Z</time>
      </trkpt>
      <trkpt lat="50.486" lon="3.13488">
        <ele>58.78</ele>
        <time>2017-08-04T16:20:49Z</time>
      </trkpt>
      <trkpt lat="50.48599" lon="3.1349">
        <ele>58.78</ele>
        <time>2017-08-04T16:20:50Z</time>
      </trkpt>
      <trkpt lat="50.48599" lon="3.13493">
        <ele>58.78</ele>
        <time>2017-08-04T16:20:51Z</time>
      </trkpt>
      <trkpt lat="50.48599" lon="3.13496">
        <ele>59.26</ele>
        <time>2017-08-04T16:20:52Z</time>
      </trkpt>
      <trkpt lat="50.48591" lon="3.13514">
        <ele>59.26</ele>
        <time>2017-08-04T16:20:57Z</time>
      </trkpt>
      <trkpt lat="50.48588" lon="3.13515">
        <ele>59.26</ele>
        <time>2017-08-04T16:20:58Z</time>
      </trkpt>
      <trkpt lat="50.48585" lon="3.13514">
        <ele>59.26</ele>
        <time>2017-08-04T16:20:59Z</time>
      </trkpt>
      <trkpt lat="50.48582" lon="3.13513">
        <ele>59.26</ele>
        <time>2017-08-04T16:21:00Z</time>
      </trkpt>
      <trkpt lat="50.48579" lon="3.13513">
        <ele>59.26</ele>
        <time>2017-08-04T16:21:01Z</time>
      </trkpt>
      <trkpt lat="50.48576" lon="3.13514">
        <ele>59.26</ele>
        <time>2017-08-04T16:21:02Z</time>
      </trkpt>
      <trkpt lat="50.48572" lon="3.13515">
        <ele>59.26</ele>
        <time>2017-08-04T16:21:03Z</time>
      </trkpt>
      <trkpt lat="50.48532" lon="3.13544">
        <ele>59.74</ele>
        <time>2017-08-04T16:21:15Z</time>
      </trkpt>
      <trkpt lat="50.48474" lon="3.13581">
        <ele>60.7</ele>
        <time>2017-08-04T16:21:31Z</time>
      </trkpt>
      <trkpt lat="50.4842" lon="3.13617">
        <ele>60.7</ele>
        <time>2017-08-04T16:21:44Z</time>
      </trkpt>
      <trkpt lat="50.48359" lon="3.13675">
        <ele>58.78</ele>
        <time>2017-08-04T16:21:57Z</time>
      </trkpt>
      <trkpt lat="50.48344" lon="3.13692">
        <ele>58.3</ele>
        <time>2017-08-04T16:22:00Z</time>
      </trkpt>
      <trkpt lat="50.48267" lon="3.13784">
        <ele>56.86</ele>
        <time>2017-08-04T16:22:16Z</time>
      </trkpt>
      <trkpt lat="50.48244" lon="3.1381">
        <ele>56.86</ele>
        <time>2017-08-04T16:22:21Z</time>
      </trkpt>
      <trkpt lat="50.48236" lon="3.13822">
        <ele>56.37</ele>
        <time>2017-08-04T16:22:23Z</time>
      </trkpt>
      <trkpt lat="50.4823" lon="3.13827">
        <ele>56.37</ele>
        <time>2017-08-04T16:22:24Z</time>
      </trkpt>
      <trkpt lat="50.48202" lon="3.13857">
        <ele>55.89</ele>
        <time>2017-08-04T16:22:30Z</time>
      </trkpt>
      <trkpt lat="50.48197" lon="3.13861">
        <ele>55.89</ele>
        <time>2017-08-04T16:22:31Z</time>
      </trkpt>
      <trkpt lat="50.48191" lon="3.13864">
        <ele>55.89</ele>
        <time>2017-08-04T16:22:32Z</time>
      </trkpt>
      <trkpt lat="50.4818" lon="3.13871">
        <ele>55.41</ele>
        <time>2017-08-04T16:22:34Z</time>
      </trkpt>
      <trkpt lat="50.48087" lon="3.13937">
        <ele>53.49</ele>
        <time>2017-08-04T16:22:51Z</time>
      </trkpt>
      <trkpt lat="50.48073" lon="3.13947">
        <ele>53.01</ele>
        <time>2017-08-04T16:22:54Z</time>
      </trkpt>
      <trkpt lat="50.48062" lon="3.13956">
        <ele>53.01</ele>
        <time>2017-08-04T16:22:59Z</time>
      </trkpt>
      <trkpt lat="50.48062" lon="3.13959">
        <ele>53.01</ele>
        <time>2017-08-04T16:23:00Z</time>
      </trkpt>
      <trkpt lat="50.48062" lon="3.13963">
        <ele>53.01</ele>
        <time>2017-08-04T16:23:01Z</time>
      </trkpt>
      <trkpt lat="50.48063" lon="3.13965">
        <ele>53.01</ele>
        <time>2017-08-04T16:23:02Z</time>
      </trkpt>
      <trkpt lat="50.48063" lon="3.1397">
        <ele>53.01</ele>
        <time>2017-08-04T16:23:03Z</time>
      </trkpt>
      <trkpt lat="50.48064" lon="3.13974">
        <ele>53.01</ele>
        <time>2017-08-04T16:23:04Z</time>
      </trkpt>
      <trkpt lat="50.48064" lon="3.13979">
        <ele>53.01</ele>
        <time>2017-08-04T16:23:05Z</time>
      </trkpt>
      <trkpt lat="50.48064" lon="3.14018">
        <ele>52.53</ele>
        <time>2017-08-04T16:23:12Z</time>
      </trkpt>
      <trkpt lat="50.48064" lon="3.14025">
        <ele>52.53</ele>
        <time>2017-08-04T16:23:13Z</time>
      </trkpt>
      <trkpt lat="50.48065" lon="3.14033">
        <ele>52.53</ele>
        <time>2017-08-04T16:23:14Z</time>
      </trkpt>
      <trkpt lat="50.48076" lon="3.14112">
        <ele>52.05</ele>
        <time>2017-08-04T16:23:24Z</time>
      </trkpt>
      <trkpt lat="50.48086" lon="3.14224">
        <ele>52.05</ele>
        <time>2017-08-04T16:23:41Z</time>
      </trkpt>
      <trkpt lat="50.48086" lon="3.14233">
        <ele>52.05</ele>
        <time>2017-08-04T16:23:52Z</time>
      </trkpt>
      <trkpt lat="50.48087" lon="3.14236">
        <ele>52.05</ele>
        <time>2017-08-04T16:24:04Z</time>
      </trkpt>
      <trkpt lat="50.48087" lon="3.14238">
        <ele>52.05</ele>
        <time>2017-08-04T16:24:05Z</time>
      </trkpt>
      <trkpt lat="50.48101" lon="3.14269">
        <ele>52.05</ele>
        <time>2017-08-04T16:24:15Z</time>
      </trkpt>
      <trkpt lat="50.481" lon="3.14273">
        <ele>52.05</ele>
        <time>2017-08-04T16:24:16Z</time>
      </trkpt>
      <trkpt lat="50.481" lon="3.14276">
        <ele>52.05</ele>
        <time>2017-08-04T16:24:17Z</time>
      </trkpt>
      <trkpt lat="50.48098" lon="3.14281">
        <ele>52.05</ele>
        <time>2017-08-04T16:24:18Z</time>
      </trkpt>
      <trkpt lat="50.48096" lon="3.14286">
        <ele>52.05</ele>
        <time>2017-08-04T16:24:19Z</time>
      </trkpt>
      <trkpt lat="50.48067" lon="3.1437">
        <ele>50.13</ele>
        <time>2017-08-04T16:24:32Z</time>
      </trkpt>
      <trkpt lat="50.48033" lon="3.14472">
        <ele>53.01</ele>
        <time>2017-08-04T16:24:50Z</time>
      </trkpt>
      <trkpt lat="50.47997" lon="3.14572">
        <ele>53.49</ele>
        <time>2017-08-04T16:25:11Z</time>
      </trkpt>
      <trkpt lat="50.47979" lon="3.14654">
        <ele>54.45</ele>
        <time>2017-08-04T16:25:28Z</time>
      </trkpt>
      <trkpt lat="50.47975" lon="3.14706">
        <ele>54.93</ele>
        <time>2017-08-04T16:25:40Z</time>
      </trkpt>
      <trkpt lat="50.47977" lon="3.14708">
        <ele>54.93</ele>
        <time>2017-08-04T16:25:41Z</time>
      </trkpt>
      <trkpt lat="50.48015" lon="3.14748">
        <ele>56.86</ele>
        <time>2017-08-04T16:25:59Z</time>
      </trkpt>
      <trkpt lat="50.48061" lon="3.148">
        <ele>57.82</ele>
        <time>2017-08-04T16:26:15Z</time>
      </trkpt>
      <trkpt lat="50.48118" lon="3.1487">
        <ele>57.82</ele>
        <time>2017-08-04T16:26:31Z</time>
      </trkpt>
      <trkpt lat="50.48151" lon="3.1491">
        <ele>57.82</ele>
        <time>2017-08-04T16:26:40Z</time>
      </trkpt>
      <trkpt lat="50.48154" lon="3.14915">
        <ele>57.82</ele>
        <time>2017-08-04T16:26:41Z</time>
      </trkpt>
      <trkpt lat="50.48156" lon="3.14921">
        <ele>57.82</ele>
        <time>2017-08-04T16:26:42Z</time>
      </trkpt>
      <trkpt lat="50.48158" lon="3.14928">
        <ele>57.82</ele>
        <time>2017-08-04T16:26:43Z</time>
      </trkpt>
      <trkpt lat="50.4816" lon="3.14935">
        <ele>57.82</ele>
        <time>2017-08-04T16:26:44Z</time>
      </trkpt>
      <trkpt lat="50.48161" lon="3.14943">
        <ele>57.82</ele>
        <time>2017-08-04T16:26:45Z</time>
      </trkpt>
      <trkpt lat="50.48162" lon="3.1495">
        <ele>57.82</ele>
        <time>2017-08-04T16:26:46Z</time>
      </trkpt>
      <trkpt lat="50.48168" lon="3.14988">
        <ele>57.82</ele>
        <time>2017-08-04T16:26:51Z</time>
      </trkpt>
      <trkpt lat="50.48168" lon="3.14996">
        <ele>57.82</ele>
        <time>2017-08-04T16:26:52Z</time>
      </trkpt>
      <trkpt lat="50.48169" lon="3.15007">
        <ele>57.82</ele>
        <time>2017-08-04T16:26:53Z</time>
      </trkpt>
      <trkpt lat="50.4817" lon="3.15013">
        <ele>57.82</ele>
        <time>2017-08-04T16:26:54Z</time>
      </trkpt>
      <trkpt lat="50.48171" lon="3.15021">
        <ele>57.82</ele>
        <time>2017-08-04T16:26:55Z</time>
      </trkpt>
      <trkpt lat="50.48187" lon="3.15109">
        <ele>56.37</ele>
        <time>2017-08-04T16:27:05Z</time>
      </trkpt>
      <trkpt lat="50.48224" lon="3.15234">
        <ele>56.37</ele>
        <time>2017-08-04T16:27:21Z</time>
      </trkpt>
      <trkpt lat="50.48257" lon="3.15371">
        <ele>56.37</ele>
        <time>2017-08-04T16:27:37Z</time>
      </trkpt>
      <trkpt lat="50.48288" lon="3.15544">
        <ele>56.37</ele>
        <time>2017-08-04T16:27:56Z</time>
      </trkpt>
      <trkpt lat="50.48306" lon="3.15622">
        <ele>57.34</ele>
        <time>2017-08-04T16:28:06Z</time>
      </trkpt>
      <trkpt lat="50.48337" lon="3.1576">
        <ele>57.82</ele>
        <time>2017-08-04T16:28:25Z</time>
      </trkpt>
      <trkpt lat="50.48348" lon="3.15794">
        <ele>57.82</ele>
        <time>2017-08-04T16:28:30Z</time>
      </trkpt>
      <trkpt lat="50.48351" lon="3.15798">
        <ele>57.82</ele>
        <time>2017-08-04T16:28:31Z</time>
      </trkpt>
      <trkpt lat="50.48356" lon="3.158">
        <ele>57.82</ele>
        <time>2017-08-04T16:28:32Z</time>
      </trkpt>
      <trkpt lat="50.4836" lon="3.15799">
        <ele>57.82</ele>
        <time>2017-08-04T16:28:33Z</time>
      </trkpt>
      <trkpt lat="50.48364" lon="3.15797">
        <ele>57.82</ele>
        <time>2017-08-04T16:28:34Z</time>
      </trkpt>
      <trkpt lat="50.48388" lon="3.15796">
        <ele>58.78</ele>
        <time>2017-08-04T16:28:40Z</time>
      </trkpt>
      <trkpt lat="50.48391" lon="3.158">
        <ele>58.78</ele>
        <time>2017-08-04T16:28:41Z</time>
      </trkpt>
      <trkpt lat="50.48393" lon="3.15805">
        <ele>58.78</ele>
        <time>2017-08-04T16:28:42Z</time>
      </trkpt>
      <trkpt lat="50.48395" lon="3.15811">
        <ele>58.78</ele>
        <time>2017-08-04T16:28:43Z</time>
      </trkpt>
      <trkpt lat="50.48397" lon="3.15816">
        <ele>58.78</ele>
        <time>2017-08-04T16:28:44Z</time>
      </trkpt>
      <trkpt lat="50.48398" lon="3.15823">
        <ele>58.78</ele>
        <time>2017-08-04T16:28:45Z</time>
      </trkpt>
      <trkpt lat="50.48439" lon="3.15972">
        <ele>57.34</ele>
        <time>2017-08-04T16:29:06Z</time>
      </trkpt>
      <trkpt lat="50.48456" lon="3.16034">
        <ele>57.34</ele>
        <time>2017-08-04T16:29:15Z</time>
      </trkpt>
      <trkpt lat="50.48458" lon="3.1604">
        <ele>57.34</ele>
        <time>2017-08-04T16:29:16Z</time>
      </trkpt>
      <trkpt lat="50.48488" lon="3.16152">
        <ele>56.86</ele>
        <time>2017-08-04T16:29:33Z</time>
      </trkpt>
      <trkpt lat="50.48497" lon="3.16184">
        <ele>56.86</ele>
        <time>2017-08-04T16:29:38Z</time>
      </trkpt>
      <trkpt lat="50.48499" lon="3.1619">
        <ele>56.86</ele>
        <time>2017-08-04T16:29:39Z</time>
      </trkpt>
      <trkpt lat="50.48502" lon="3.16195">
        <ele>56.86</ele>
        <time>2017-08-04T16:29:40Z</time>
      </trkpt>
      <trkpt lat="50.48506" lon="3.16198">
        <ele>56.86</ele>
        <time>2017-08-04T16:29:41Z</time>
      </trkpt>
      <trkpt lat="50.48509" lon="3.16199">
        <ele>56.86</ele>
        <time>2017-08-04T16:29:42Z</time>
      </trkpt>
      <trkpt lat="50.48513" lon="3.16197">
        <ele>56.86</ele>
        <time>2017-08-04T16:29:43Z</time>
      </trkpt>
      <trkpt lat="50.48516" lon="3.16195">
        <ele>56.86</ele>
        <time>2017-08-04T16:29:44Z</time>
      </trkpt>
      <trkpt lat="50.4858" lon="3.16142">
        <ele>56.86</ele>
        <time>2017-08-04T16:30:02Z</time>
      </trkpt>
      <trkpt lat="50.48583" lon="3.16139">
        <ele>56.86</ele>
        <time>2017-08-04T16:30:03Z</time>
      </trkpt>
      <trkpt lat="50.48587" lon="3.16136">
        <ele>56.86</ele>
        <time>2017-08-04T16:30:04Z</time>
      </trkpt>
      <trkpt lat="50.48631" lon="3.16104">
        <ele>56.86</ele>
        <time>2017-08-04T16:30:16Z</time>
      </trkpt>
      <trkpt lat="50.48634" lon="3.16106">
        <ele>56.86</ele>
        <time>2017-08-04T16:30:17Z</time>
      </trkpt>
      <trkpt lat="50.48635" lon="3.16109">
        <ele>56.86</ele>
        <time>2017-08-04T16:30:18Z</time>
      </trkpt>
      <trkpt lat="50.48636" lon="3.16113">
        <ele>56.86</ele>
        <time>2017-08-04T16:30:19Z</time>
      </trkpt>
      <trkpt lat="50.48637" lon="3.16117">
        <ele>56.86</ele>
        <time>2017-08-04T16:30:20Z</time>
      </trkpt>
      <trkpt lat="50.48659" lon="3.16189">
        <ele>56.86</ele>
        <time>2017-08-04T16:30:33Z</time>
      </trkpt>
      <trkpt lat="50.48695" lon="3.16303">
        <ele>56.86</ele>
        <time>2017-08-04T16:30:51Z</time>
      </trkpt>
      <trkpt lat="50.48751" lon="3.1647">
        <ele>57.82</ele>
        <time>2017-08-04T16:31:15Z</time>
      </trkpt>
      <trkpt lat="50.48808" lon="3.16617">
        <ele>57.82</ele>
        <time>2017-08-04T16:31:35Z</time>
      </trkpt>
      <trkpt lat="50.48861" lon="3.1678">
        <ele>56.37</ele>
        <time>2017-08-04T16:31:55Z</time>
      </trkpt>
      <trkpt lat="50.48918" lon="3.16965">
        <ele>55.89</ele>
        <time>2017-08-04T16:32:18Z</time>
      </trkpt>
      <trkpt lat="50.48942" lon="3.17039">
        <ele>55.89</ele>
        <time>2017-08-04T16:32:28Z</time>
      </trkpt>
      <trkpt lat="50.48975" lon="3.17148">
        <ele>55.89</ele>
        <time>2017-08-04T16:32:45Z</time>
      </trkpt>
      <trkpt lat="50.48975" lon="3.17156">
        <ele>55.89</ele>
        <time>2017-08-04T16:32:47Z</time>
      </trkpt>
      <trkpt lat="50.48974" lon="3.17161">
        <ele>55.89</ele>
        <time>2017-08-04T16:32:48Z</time>
      </trkpt>
      <trkpt lat="50.48973" lon="3.17166">
        <ele>55.89</ele>
        <time>2017-08-04T16:32:49Z</time>
      </trkpt>
      <trkpt lat="50.48972" lon="3.17171">
        <ele>55.89</ele>
        <time>2017-08-04T16:32:50Z</time>
      </trkpt>
      <trkpt lat="50.48971" lon="3.17176">
        <ele>55.89</ele>
        <time>2017-08-04T16:32:51Z</time>
      </trkpt>
      <trkpt lat="50.48953" lon="3.17291">
        <ele>54.93</ele>
        <time>2017-08-04T16:33:07Z</time>
      </trkpt>
      <trkpt lat="50.48926" lon="3.17452">
        <ele>52.05</ele>
        <time>2017-08-04T16:33:24Z</time>
      </trkpt>
      <trkpt lat="50.48916" lon="3.17506">
        <ele>52.05</ele>
        <time>2017-08-04T16:33:30Z</time>
      </trkpt>
      <trkpt lat="50.48914" lon="3.17514">
        <ele>52.05</ele>
        <time>2017-08-04T16:33:31Z</time>
      </trkpt>
      <trkpt lat="50.48869" lon="3.17637">
        <ele>50.61</ele>
        <time>2017-08-04T16:33:47Z</time>
      </trkpt>
      <trkpt lat="50.48825" lon="3.17786">
        <ele>49.16</ele>
        <time>2017-08-04T16:34:05Z</time>
      </trkpt>
      <trkpt lat="50.48779" lon="3.17973">
        <ele>47.24</ele>
        <time>2017-08-04T16:34:26Z</time>
      </trkpt>
      <trkpt lat="50.48733" lon="3.18161">
        <ele>45.8</ele>
        <time>2017-08-04T16:34:47Z</time>
      </trkpt>
      <trkpt lat="50.48687" lon="3.18349">
        <ele>44.36</ele>
        <time>2017-08-04T16:35:08Z</time>
      </trkpt>
      <trkpt lat="50.4866" lon="3.18457">
        <ele>43.88</ele>
        <time>2017-08-04T16:35:21Z</time>
      </trkpt>
      <trkpt lat="50.48657" lon="3.18463">
        <ele>43.4</ele>
        <time>2017-08-04T16:35:22Z</time>
      </trkpt>
      <trkpt lat="50.48653" lon="3.1847">
        <ele>43.4</ele>
        <time>2017-08-04T16:35:23Z</time>
      </trkpt>
      <trkpt lat="50.48586" lon="3.18559">
        <ele>42.92</ele>
        <time>2017-08-04T16:35:41Z</time>
      </trkpt>
      <trkpt lat="50.48528" lon="3.18606">
        <ele>42.44</ele>
        <time>2017-08-04T16:35:57Z</time>
      </trkpt>
      <trkpt lat="50.4852" lon="3.18603">
        <ele>42.44</ele>
        <time>2017-08-04T16:35:59Z</time>
      </trkpt>
      <trkpt lat="50.48517" lon="3.186">
        <ele>42.44</ele>
        <time>2017-08-04T16:36:00Z</time>
      </trkpt>
      <trkpt lat="50.48505" lon="3.18589">
        <ele>41.95</ele>
        <time>2017-08-04T16:36:03Z</time>
      </trkpt>
      <trkpt lat="50.48496" lon="3.18584">
        <ele>41.95</ele>
        <time>2017-08-04T16:36:05Z</time>
      </trkpt>
      <trkpt lat="50.48491" lon="3.18583">
        <ele>41.95</ele>
        <time>2017-08-04T16:36:06Z</time>
      </trkpt>
      <trkpt lat="50.48487" lon="3.18582">
        <ele>41.95</ele>
        <time>2017-08-04T16:36:07Z</time>
      </trkpt>
      <trkpt lat="50.48482" lon="3.18583">
        <ele>41.95</ele>
        <time>2017-08-04T16:36:08Z</time>
      </trkpt>
      <trkpt lat="50.48477" lon="3.18584">
        <ele>41.47</ele>
        <time>2017-08-04T16:36:09Z</time>
      </trkpt>
      <trkpt lat="50.48472" lon="3.18586">
        <ele>41.47</ele>
        <time>2017-08-04T16:36:10Z</time>
      </trkpt>
      <trkpt lat="50.48468" lon="3.18589">
        <ele>41.47</ele>
        <time>2017-08-04T16:36:11Z</time>
      </trkpt>
      <trkpt lat="50.48463" lon="3.18593">
        <ele>41.47</ele>
        <time>2017-08-04T16:36:12Z</time>
      </trkpt>
      <trkpt lat="50.48459" lon="3.18597">
        <ele>41.47</ele>
        <time>2017-08-04T16:36:13Z</time>
      </trkpt>
      <trkpt lat="50.48454" lon="3.18602">
        <ele>41.47</ele>
        <time>2017-08-04T16:36:14Z</time>
      </trkpt>
      <trkpt lat="50.48403" lon="3.18701">
        <ele>40.99</ele>
        <time>2017-08-04T16:36:29Z</time>
      </trkpt>
      <trkpt lat="50.4837" lon="3.18822">
        <ele>40.99</ele>
        <time>2017-08-04T16:36:43Z</time>
      </trkpt>
      <trkpt lat="50.48317" lon="3.18979">
        <ele>40.03</ele>
        <time>2017-08-04T16:37:00Z</time>
      </trkpt>
      <trkpt lat="50.48304" lon="3.19014">
        <ele>40.03</ele>
        <time>2017-08-04T16:37:04Z</time>
      </trkpt>
      <trkpt lat="50.48299" lon="3.19022">
        <ele>39.55</ele>
        <time>2017-08-04T16:37:05Z</time>
      </trkpt>
      <trkpt lat="50.48253" lon="3.19094">
        <ele>40.99</ele>
        <time>2017-08-04T16:37:16Z</time>
      </trkpt>
      <trkpt lat="50.4825" lon="3.19101">
        <ele>40.99</ele>
        <time>2017-08-04T16:37:17Z</time>
      </trkpt>
      <trkpt lat="50.48219" lon="3.19209">
        <ele>41.95</ele>
        <time>2017-08-04T16:37:32Z</time>
      </trkpt>
      <trkpt lat="50.48218" lon="3.19309">
        <ele>42.92</ele>
        <time>2017-08-04T16:37:46Z</time>
      </trkpt>
      <trkpt lat="50.4824" lon="3.19442">
        <ele>42.92</ele>
        <time>2017-08-04T16:38:03Z</time>
      </trkpt>
      <trkpt lat="50.48288" lon="3.19606">
        <ele>42.92</ele>
        <time>2017-08-04T16:38:23Z</time>
      </trkpt>
      <trkpt lat="50.48289" lon="3.19617">
        <ele>42.92</ele>
        <time>2017-08-04T16:38:24Z</time>
      </trkpt>
      <trkpt lat="50.48288" lon="3.19624">
        <ele>42.92</ele>
        <time>2017-08-04T16:38:25Z</time>
      </trkpt>
      <trkpt lat="50.48286" lon="3.19634">
        <ele>42.92</ele>
        <time>2017-08-04T16:38:26Z</time>
      </trkpt>
      <trkpt lat="50.48284" lon="3.19641">
        <ele>42.92</ele>
        <time>2017-08-04T16:38:27Z</time>
      </trkpt>
      <trkpt lat="50.48281" lon="3.19649">
        <ele>42.92</ele>
        <time>2017-08-04T16:38:28Z</time>
      </trkpt>
      <trkpt lat="50.48278" lon="3.19655">
        <ele>42.92</ele>
        <time>2017-08-04T16:38:29Z</time>
      </trkpt>
      <trkpt lat="50.48216" lon="3.19785">
        <ele>43.88</ele>
        <time>2017-08-04T16:38:49Z</time>
      </trkpt>
      <trkpt lat="50.48165" lon="3.19901">
        <ele>46.76</ele>
        <time>2017-08-04T16:39:08Z</time>
      </trkpt>
      <trkpt lat="50.48157" lon="3.19925">
        <ele>45.8</ele>
        <time>2017-08-04T16:39:12Z</time>
      </trkpt>
      <trkpt lat="50.4813" lon="3.20028">
        <ele>45.32</ele>
        <time>2017-08-04T16:39:27Z</time>
      </trkpt>
      <trkpt lat="50.48111" lon="3.20134">
        <ele>45.32</ele>
        <time>2017-08-04T16:39:40Z</time>
      </trkpt>
      <trkpt lat="50.48065" lon="3.2022">
        <ele>45.32</ele>
        <time>2017-08-04T16:39:54Z</time>
      </trkpt>
      <trkpt lat="50.47996" lon="3.20336">
        <ele>46.28</ele>
        <time>2017-08-04T16:40:15Z</time>
      </trkpt>
      <trkpt lat="50.47986" lon="3.20353">
        <ele>46.28</ele>
        <time>2017-08-04T16:40:18Z</time>
      </trkpt>
      <trkpt lat="50.47984" lon="3.20359">
        <ele>46.28</ele>
        <time>2017-08-04T16:40:19Z</time>
      </trkpt>
      <trkpt lat="50.47981" lon="3.20365">
        <ele>46.28</ele>
        <time>2017-08-04T16:40:20Z</time>
      </trkpt>
      <trkpt lat="50.4798" lon="3.20372">
        <ele>46.28</ele>
        <time>2017-08-04T16:40:21Z</time>
      </trkpt>
      <trkpt lat="50.47978" lon="3.20378">
        <ele>47.24</ele>
        <time>2017-08-04T16:40:22Z</time>
      </trkpt>
      <trkpt lat="50.47978" lon="3.20385">
        <ele>47.24</ele>
        <time>2017-08-04T16:40:23Z</time>
      </trkpt>
      <trkpt lat="50.47976" lon="3.20398">
        <ele>46.76</ele>
        <time>2017-08-04T16:40:25Z</time>
      </trkpt>
      <trkpt lat="50.47976" lon="3.20404">
        <ele>47.24</ele>
        <time>2017-08-04T16:40:26Z</time>
      </trkpt>
      <trkpt lat="50.47976" lon="3.20409">
        <ele>47.72</ele>
        <time>2017-08-04T16:40:27Z</time>
      </trkpt>
      <trkpt lat="50.47975" lon="3.20416">
        <ele>47.72</ele>
        <time>2017-08-04T16:40:37Z</time>
      </trkpt>
      <trkpt lat="50.47974" lon="3.20417">
        <ele>47.72</ele>
        <time>2017-08-04T16:40:42Z</time>
      </trkpt>
      <trkpt lat="50.47973" lon="3.20419">
        <ele>47.72</ele>
        <time>2017-08-04T16:40:43Z</time>
      </trkpt>
      <trkpt lat="50.47948" lon="3.20443">
        <ele>47.72</ele>
        <time>2017-08-04T16:40:55Z</time>
      </trkpt>
      <trkpt lat="50.47944" lon="3.20455">
        <ele>47.72</ele>
        <time>2017-08-04T16:40:58Z</time>
      </trkpt>
      <trkpt lat="50.47944" lon="3.20461">
        <ele>47.72</ele>
        <time>2017-08-04T16:40:59Z</time>
      </trkpt>
      <trkpt lat="50.47945" lon="3.20465">
        <ele>47.72</ele>
        <time>2017-08-04T16:41:00Z</time>
      </trkpt>
      <trkpt lat="50.47947" lon="3.20469">
        <ele>47.72</ele>
        <time>2017-08-04T16:41:01Z</time>
      </trkpt>
      <trkpt lat="50.4795" lon="3.20474">
        <ele>47.72</ele>
        <time>2017-08-04T16:41:02Z</time>
      </trkpt>
      <trkpt lat="50.47952" lon="3.20479">
        <ele>47.72</ele>
        <time>2017-08-04T16:41:03Z</time>
      </trkpt>
      <trkpt lat="50.47955" lon="3.20483">
        <ele>47.72</ele>
        <time>2017-08-04T16:41:04Z</time>
      </trkpt>
      <trkpt lat="50.4796" lon="3.20488">
        <ele>47.72</ele>
        <time>2017-08-04T16:41:05Z</time>
      </trkpt>
      <trkpt lat="50.47963" lon="3.2049">
        <ele>47.72</ele>
        <time>2017-08-04T16:41:06Z</time>
      </trkpt>
      <trkpt lat="50.47968" lon="3.20493">
        <ele>47.72</ele>
        <time>2017-08-04T16:41:07Z</time>
      </trkpt>
      <trkpt lat="50.47972" lon="3.20495">
        <ele>47.72</ele>
        <time>2017-08-04T16:41:08Z</time>
      </trkpt>
      <trkpt lat="50.47981" lon="3.205">
        <ele>47.72</ele>
        <time>2017-08-04T16:41:10Z</time>
      </trkpt>
      <trkpt lat="50.47991" lon="3.20503">
        <ele>46.28</ele>
        <time>2017-08-04T16:41:12Z</time>
      </trkpt>
      <trkpt lat="50.48002" lon="3.20508">
        <ele>46.28</ele>
        <time>2017-08-04T16:41:14Z</time>
      </trkpt>
      <trkpt lat="50.48007" lon="3.20512">
        <ele>46.28</ele>
        <time>2017-08-04T16:41:15Z</time>
      </trkpt>
      <trkpt lat="50.48011" lon="3.20518">
        <ele>45.8</ele>
        <time>2017-08-04T16:41:16Z</time>
      </trkpt>
      <trkpt lat="50.48015" lon="3.20524">
        <ele>45.8</ele>
        <time>2017-08-04T16:41:17Z</time>
      </trkpt>
      <trkpt lat="50.4802" lon="3.2053">
        <ele>45.8</ele>
        <time>2017-08-04T16:41:18Z</time>
      </trkpt>
      <trkpt lat="50.48058" lon="3.20587">
        <ele>45.8</ele>
        <time>2017-08-04T16:41:27Z</time>
      </trkpt>
      <trkpt lat="50.48113" lon="3.20706">
        <ele>44.36</ele>
        <time>2017-08-04T16:41:43Z</time>
      </trkpt>
      <trkpt lat="50.48117" lon="3.20713">
        <ele>44.36</ele>
        <time>2017-08-04T16:41:44Z</time>
      </trkpt>
      <trkpt lat="50.48121" lon="3.2072">
        <ele>44.36</ele>
        <time>2017-08-04T16:41:45Z</time>
      </trkpt>
      <trkpt lat="50.48149" lon="3.20767">
        <ele>44.36</ele>
        <time>2017-08-04T16:41:55Z</time>
      </trkpt>
      <trkpt lat="50.48151" lon="3.2077">
        <ele>44.36</ele>
        <time>2017-08-04T16:41:56Z</time>
      </trkpt>
      <trkpt lat="50.48153" lon="3.20771">
        <ele>44.36</ele>
        <time>2017-08-04T16:41:57Z</time>
      </trkpt>
      <trkpt lat="50.48155" lon="3.20772">
        <ele>44.36</ele>
        <time>2017-08-04T16:41:58Z</time>
      </trkpt>
      <trkpt lat="50.48158" lon="3.20773">
        <ele>44.36</ele>
        <time>2017-08-04T16:41:59Z</time>
      </trkpt>
      <trkpt lat="50.48161" lon="3.20773">
        <ele>44.36</ele>
        <time>2017-08-04T16:42:00Z</time>
      </trkpt>
      <trkpt lat="50.48165" lon="3.20774">
        <ele>44.36</ele>
        <time>2017-08-04T16:42:01Z</time>
      </trkpt>
      <trkpt lat="50.48169" lon="3.20776">
        <ele>44.36</ele>
        <time>2017-08-04T16:42:02Z</time>
      </trkpt>
      <trkpt lat="50.48173" lon="3.2078">
        <ele>44.36</ele>
        <time>2017-08-04T16:42:03Z</time>
      </trkpt>
      <trkpt lat="50.48176" lon="3.20784">
        <ele>43.88</ele>
        <time>2017-08-04T16:42:04Z</time>
      </trkpt>
      <trkpt lat="50.4818" lon="3.20788">
        <ele>43.88</ele>
        <time>2017-08-04T16:42:05Z</time>
      </trkpt>
      <trkpt lat="50.48184" lon="3.20792">
        <ele>43.88</ele>
        <time>2017-08-04T16:42:06Z</time>
      </trkpt>
      <trkpt lat="50.48187" lon="3.20795">
        <ele>43.88</ele>
        <time>2017-08-04T16:42:07Z</time>
      </trkpt>
      <trkpt lat="50.4819" lon="3.20795">
        <ele>43.88</ele>
        <time>2017-08-04T16:42:08Z</time>
      </trkpt>
      <trkpt lat="50.48193" lon="3.20794">
        <ele>43.88</ele>
        <time>2017-08-04T16:42:09Z</time>
      </trkpt>
      <trkpt lat="50.48195" lon="3.20793">
        <ele>43.88</ele>
        <time>2017-08-04T16:42:10Z</time>
      </trkpt>
      <trkpt lat="50.48196" lon="3.20793">
        <ele>43.88</ele>
        <time>2017-08-04T16:42:19Z</time>
      </trkpt>
      <trkpt lat="50.48196" lon="3.20792">
        <ele>43.88</ele>
        <time>2017-08-04T16:42:58Z</time>
      </trkpt>
      <trkpt lat="50.48196" lon="3.20791">
        <ele>43.88</ele>
        <time>2017-08-04T16:43:30Z</time>
      </trkpt>
      <trkpt lat="50.48196" lon="3.20792">
        <ele>43.88</ele>
        <time>2017-08-04T16:43:54Z</time>
      </trkpt>
      <trkpt lat="50.48196" lon="3.20794">
        <ele>43.88</ele>
        <time>2017-08-04T16:44:21Z</time>
      </trkpt>
      <trkpt lat="50.48195" lon="3.20793">
        <ele>43.88</ele>
        <time>2017-08-04T16:44:50Z</time>
      </trkpt>
      <trkpt lat="50.48195" lon="3.20793">
        <ele>43.88</ele>
        <time>2017-08-04T16:45:15Z</time>
      </trkpt>
      <trkpt lat="50.48195" lon="3.20797">
        <ele>43.88</ele>
        <time>2017-08-04T16:45:22Z</time>
      </trkpt>
      <trkpt lat="50.48196" lon="3.20799">
        <ele>43.88</ele>
        <time>2017-08-04T16:45:23Z</time>
      </trkpt>
      <trkpt lat="50.48198" lon="3.208">
        <ele>43.88</ele>
        <time>2017-08-04T16:45:24Z</time>
      </trkpt>
      <trkpt lat="50.48217" lon="3.20827">
        <ele>42.92</ele>
        <time>2017-08-04T16:45:33Z</time>
      </trkpt>
      <trkpt lat="50.48255" lon="3.20855">
        <ele>42.44</ele>
        <time>2017-08-04T16:45:42Z</time>
      </trkpt>
      <trkpt lat="50.48338" lon="3.20929">
        <ele>40.99</ele>
        <time>2017-08-04T16:45:58Z</time>
      </trkpt>
      <trkpt lat="50.48435" lon="3.20988">
        <ele>38.59</ele>
        <time>2017-08-04T16:46:14Z</time>
      </trkpt>
      <trkpt lat="50.48543" lon="3.21023">
        <ele>37.63</ele>
        <time>2017-08-04T16:46:30Z</time>
      </trkpt>
      <trkpt lat="50.48672" lon="3.21057">
        <ele>36.67</ele>
        <time>2017-08-04T16:46:49Z</time>
      </trkpt>
      <trkpt lat="50.4871" lon="3.21055">
        <ele>36.19</ele>
        <time>2017-08-04T16:46:55Z</time>
      </trkpt>
      <trkpt lat="50.4879" lon="3.21079">
        <ele>35.71</ele>
        <time>2017-08-04T16:47:10Z</time>
      </trkpt>
      <trkpt lat="50.48865" lon="3.21114">
        <ele>35.71</ele>
        <time>2017-08-04T16:47:26Z</time>
      </trkpt>
      <trkpt lat="50.4887" lon="3.21118">
        <ele>35.71</ele>
        <time>2017-08-04T16:47:27Z</time>
      </trkpt>
      <trkpt lat="50.48873" lon="3.21124">
        <ele>35.71</ele>
        <time>2017-08-04T16:47:28Z</time>
      </trkpt>
      <trkpt lat="50.48876" lon="3.21132">
        <ele>35.71</ele>
        <time>2017-08-04T16:47:29Z</time>
      </trkpt>
      <trkpt lat="50.48876" lon="3.2114">
        <ele>35.71</ele>
        <time>2017-08-04T16:47:30Z</time>
      </trkpt>
      <trkpt lat="50.48876" lon="3.21147">
        <ele>35.71</ele>
        <time>2017-08-04T16:47:31Z</time>
      </trkpt>
      <trkpt lat="50.48875" lon="3.21155">
        <ele>35.71</ele>
        <time>2017-08-04T16:47:32Z</time>
      </trkpt>
      <trkpt lat="50.48874" lon="3.21162">
        <ele>35.71</ele>
        <time>2017-08-04T16:47:33Z</time>
      </trkpt>
      <trkpt lat="50.48873" lon="3.21168">
        <ele>35.71</ele>
        <time>2017-08-04T16:47:34Z</time>
      </trkpt>
      <trkpt lat="50.48871" lon="3.21181">
        <ele>37.15</ele>
        <time>2017-08-04T16:47:36Z</time>
      </trkpt>
      <trkpt lat="50.48866" lon="3.21245">
        <ele>39.55</ele>
        <time>2017-08-04T16:47:49Z</time>
      </trkpt>
      <trkpt lat="50.48874" lon="3.21312">
        <ele>41.47</ele>
        <time>2017-08-04T16:48:08Z</time>
      </trkpt>
      <trkpt lat="50.48891" lon="3.21378">
        <ele>43.88</ele>
        <time>2017-08-04T16:48:27Z</time>
      </trkpt>
      <trkpt lat="50.4891" lon="3.21448">
        <ele>43.88</ele>
        <time>2017-08-04T16:48:41Z</time>
      </trkpt>
      <trkpt lat="50.48929" lon="3.21516">
        <ele>42.44</ele>
        <time>2017-08-04T16:48:50Z</time>
      </trkpt>
      <trkpt lat="50.48946" lon="3.21582">
        <ele>40.03</ele>
        <time>2017-08-04T16:48:57Z</time>
      </trkpt>
      <trkpt lat="50.48947" lon="3.21593">
        <ele>39.55</ele>
        <time>2017-08-04T16:48:58Z</time>
      </trkpt>
      <trkpt lat="50.48949" lon="3.2164">
        <ele>38.59</ele>
        <time>2017-08-04T16:49:02Z</time>
      </trkpt>
      <trkpt lat="50.48949" lon="3.21651">
        <ele>37.63</ele>
        <time>2017-08-04T16:49:03Z</time>
      </trkpt>
      <trkpt lat="50.48948" lon="3.21665">
        <ele>37.15</ele>
        <time>2017-08-04T16:49:04Z</time>
      </trkpt>
      <trkpt lat="50.48946" lon="3.21676">
        <ele>36.67</ele>
        <time>2017-08-04T16:49:05Z</time>
      </trkpt>
      <trkpt lat="50.48944" lon="3.21689">
        <ele>36.19</ele>
        <time>2017-08-04T16:49:06Z</time>
      </trkpt>
      <trkpt lat="50.48942" lon="3.21703">
        <ele>36.67</ele>
        <time>2017-08-04T16:49:07Z</time>
      </trkpt>
      <trkpt lat="50.48939" lon="3.21714">
        <ele>36.19</ele>
        <time>2017-08-04T16:49:08Z</time>
      </trkpt>
      <trkpt lat="50.48866" lon="3.21892">
        <ele>33.78</ele>
        <time>2017-08-04T16:49:24Z</time>
      </trkpt>
      <trkpt lat="50.4879" lon="3.22031">
        <ele>33.3</ele>
        <time>2017-08-04T16:49:39Z</time>
      </trkpt>
      <trkpt lat="50.48742" lon="3.2214">
        <ele>34.26</ele>
        <time>2017-08-04T16:49:52Z</time>
      </trkpt>
      <trkpt lat="50.48727" lon="3.22188">
        <ele>34.26</ele>
        <time>2017-08-04T16:49:58Z</time>
      </trkpt>
      <trkpt lat="50.48724" lon="3.22194">
        <ele>34.26</ele>
        <time>2017-08-04T16:49:59Z</time>
      </trkpt>
      <trkpt lat="50.48719" lon="3.22197">
        <ele>34.26</ele>
        <time>2017-08-04T16:50:00Z</time>
      </trkpt>
      <trkpt lat="50.48714" lon="3.22198">
        <ele>34.26</ele>
        <time>2017-08-04T16:50:01Z</time>
      </trkpt>
      <trkpt lat="50.48709" lon="3.22198">
        <ele>34.26</ele>
        <time>2017-08-04T16:50:02Z</time>
      </trkpt>
      <trkpt lat="50.48704" lon="3.22198">
        <ele>34.26</ele>
        <time>2017-08-04T16:50:03Z</time>
      </trkpt>
      <trkpt lat="50.48699" lon="3.22199">
        <ele>34.26</ele>
        <time>2017-08-04T16:50:04Z</time>
      </trkpt>
      <trkpt lat="50.48695" lon="3.22201">
        <ele>34.26</ele>
        <time>2017-08-04T16:50:05Z</time>
      </trkpt>
      <trkpt lat="50.48691" lon="3.22205">
        <ele>34.26</ele>
        <time>2017-08-04T16:50:06Z</time>
      </trkpt>
      <trkpt lat="50.48687" lon="3.2221">
        <ele>34.26</ele>
        <time>2017-08-04T16:50:07Z</time>
      </trkpt>
      <trkpt lat="50.48684" lon="3.22215">
        <ele>34.26</ele>
        <time>2017-08-04T16:50:08Z</time>
      </trkpt>
      <trkpt lat="50.4868" lon="3.2222">
        <ele>34.26</ele>
        <time>2017-08-04T16:50:09Z</time>
      </trkpt>
      <trkpt lat="50.48678" lon="3.22226">
        <ele>34.26</ele>
        <time>2017-08-04T16:50:10Z</time>
      </trkpt>
      <trkpt lat="50.48675" lon="3.22233">
        <ele>34.26</ele>
        <time>2017-08-04T16:50:11Z</time>
      </trkpt>
      <trkpt lat="50.48671" lon="3.22245">
        <ele>34.26</ele>
        <time>2017-08-04T16:50:13Z</time>
      </trkpt>
      <trkpt lat="50.48634" lon="3.22384">
        <ele>34.26</ele>
        <time>2017-08-04T16:50:31Z</time>
      </trkpt>
      <trkpt lat="50.48589" lon="3.22501">
        <ele>32.82</ele>
        <time>2017-08-04T16:50:47Z</time>
      </trkpt>
      <trkpt lat="50.48539" lon="3.22609">
        <ele>32.34</ele>
        <time>2017-08-04T16:51:03Z</time>
      </trkpt>
      <trkpt lat="50.48528" lon="3.22626">
        <ele>32.34</ele>
        <time>2017-08-04T16:51:06Z</time>
      </trkpt>
      <trkpt lat="50.48505" lon="3.22655">
        <ele>32.34</ele>
        <time>2017-08-04T16:51:12Z</time>
      </trkpt>
      <trkpt lat="50.48442" lon="3.22733">
        <ele>31.86</ele>
        <time>2017-08-04T16:51:28Z</time>
      </trkpt>
      <trkpt lat="50.48376" lon="3.22846">
        <ele>31.86</ele>
        <time>2017-08-04T16:51:47Z</time>
      </trkpt>
      <trkpt lat="50.48335" lon="3.22921">
        <ele>31.86</ele>
        <time>2017-08-04T16:52:00Z</time>
      </trkpt>
      <trkpt lat="50.48331" lon="3.22933">
        <ele>31.86</ele>
        <time>2017-08-04T16:52:02Z</time>
      </trkpt>
      <trkpt lat="50.48328" lon="3.22937">
        <ele>31.86</ele>
        <time>2017-08-04T16:52:03Z</time>
      </trkpt>
      <trkpt lat="50.48323" lon="3.22947">
        <ele>33.3</ele>
        <time>2017-08-04T16:52:05Z</time>
      </trkpt>
      <trkpt lat="50.48283" lon="3.23016">
        <ele>33.78</ele>
        <time>2017-08-04T16:52:20Z</time>
      </trkpt>
      <trkpt lat="50.48232" lon="3.2311">
        <ele>34.74</ele>
        <time>2017-08-04T16:52:41Z</time>
      </trkpt>
      <trkpt lat="50.48188" lon="3.23189">
        <ele>35.23</ele>
        <time>2017-08-04T16:53:00Z</time>
      </trkpt>
      <trkpt lat="50.48145" lon="3.23271">
        <ele>36.19</ele>
        <time>2017-08-04T16:53:19Z</time>
      </trkpt>
      <trkpt lat="50.481" lon="3.23357">
        <ele>37.63</ele>
        <time>2017-08-04T16:53:39Z</time>
      </trkpt>
      <trkpt lat="50.48065" lon="3.23422">
        <ele>37.63</ele>
        <time>2017-08-04T16:53:53Z</time>
      </trkpt>
      <trkpt lat="50.48033" lon="3.23484">
        <ele>38.11</ele>
        <time>2017-08-04T16:54:08Z</time>
      </trkpt>
      <trkpt lat="50.47998" lon="3.23544">
        <ele>38.59</ele>
        <time>2017-08-04T16:54:22Z</time>
      </trkpt>
      <trkpt lat="50.47988" lon="3.23565">
        <ele>38.59</ele>
        <time>2017-08-04T16:54:29Z</time>
      </trkpt>
      <trkpt lat="50.47989" lon="3.2357">
        <ele>38.59</ele>
        <time>2017-08-04T16:54:30Z</time>
      </trkpt>
      <trkpt lat="50.4799" lon="3.23574">
        <ele>38.59</ele>
        <time>2017-08-04T16:54:31Z</time>
      </trkpt>
      <trkpt lat="50.47993" lon="3.23578">
        <ele>38.59</ele>
        <time>2017-08-04T16:54:32Z</time>
      </trkpt>
      <trkpt lat="50.47995" lon="3.23582">
        <ele>38.59</ele>
        <time>2017-08-04T16:54:33Z</time>
      </trkpt>
      <trkpt lat="50.47998" lon="3.23586">
        <ele>38.59</ele>
        <time>2017-08-04T16:54:34Z</time>
      </trkpt>
      <trkpt lat="50.48038" lon="3.23656">
        <ele>37.15</ele>
        <time>2017-08-04T16:54:48Z</time>
      </trkpt>
      <trkpt lat="50.48042" lon="3.23658">
        <ele>37.15</ele>
        <time>2017-08-04T16:54:49Z</time>
      </trkpt>
      <trkpt lat="50.48047" lon="3.23656">
        <ele>37.15</ele>
        <time>2017-08-04T16:54:50Z</time>
      </trkpt>
      <trkpt lat="50.4805" lon="3.23654">
        <ele>37.15</ele>
        <time>2017-08-04T16:54:51Z</time>
      </trkpt>
      <trkpt lat="50.48053" lon="3.23652">
        <ele>37.15</ele>
        <time>2017-08-04T16:54:52Z</time>
      </trkpt>
      <trkpt lat="50.48057" lon="3.23651">
        <ele>37.15</ele>
        <time>2017-08-04T16:54:53Z</time>
      </trkpt>
      <trkpt lat="50.4806" lon="3.23651">
        <ele>37.15</ele>
        <time>2017-08-04T16:54:54Z</time>
      </trkpt>
      <trkpt lat="50.48063" lon="3.23652">
        <ele>37.15</ele>
        <time>2017-08-04T16:54:55Z</time>
      </trkpt>
      <trkpt lat="50.48066" lon="3.23653">
        <ele>37.15</ele>
        <time>2017-08-04T16:54:56Z</time>
      </trkpt>
      <trkpt lat="50.48069" lon="3.23655">
        <ele>37.15</ele>
        <time>2017-08-04T16:54:57Z</time>
      </trkpt>
      <trkpt lat="50.48071" lon="3.23658">
        <ele>37.15</ele>
        <time>2017-08-04T16:54:58Z</time>
      </trkpt>
      <trkpt lat="50.48073" lon="3.2366">
        <ele>36.67</ele>
        <time>2017-08-04T16:54:59Z</time>
      </trkpt>
      <trkpt lat="50.48075" lon="3.23662">
        <ele>36.67</ele>
        <time>2017-08-04T16:55:00Z</time>
      </trkpt>
      <trkpt lat="50.48077" lon="3.23664">
        <ele>36.19</ele>
        <time>2017-08-04T16:55:01Z</time>
      </trkpt>
      <trkpt lat="50.48079" lon="3.23666">
        <ele>36.19</ele>
        <time>2017-08-04T16:55:02Z</time>
      </trkpt>
      <trkpt lat="50.48086" lon="3.23671">
        <ele>36.19</ele>
        <time>2017-08-04T16:55:05Z</time>
      </trkpt>
      <trkpt lat="50.4809" lon="3.23663">
        <ele>36.19</ele>
        <time>2017-08-04T16:55:11Z</time>
      </trkpt>
      <trkpt lat="50.48085" lon="3.23662">
        <ele>36.19</ele>
        <time>2017-08-04T16:55:15Z</time>
      </trkpt>
      <trkpt lat="50.48084" lon="3.2366">
        <ele>37.63</ele>
        <time>2017-08-04T16:55:16Z</time>
      </trkpt>
      <trkpt lat="50.48084" lon="3.23659">
        <ele>37.63</ele>
        <time>2017-08-04T16:55:17Z</time>
      </trkpt>
      <trkpt lat="50.48084" lon="3.23658">
        <ele>36.19</ele>
        <time>2017-08-04T16:55:22Z</time>
      </trkpt>
      <trkpt lat="50.48082" lon="3.23657">
        <ele>37.63</ele>
        <time>2017-08-04T16:55:28Z</time>
      </trkpt>
      <trkpt lat="50.48084" lon="3.2366">
        <ele>38.11</ele>
        <time>2017-08-04T16:55:50Z</time>
      </trkpt>
      <trkpt lat="50.48083" lon="3.23659">
        <ele>36.67</ele>
        <time>2017-08-04T16:55:58Z</time>
      </trkpt>
      <trkpt lat="50.48081" lon="3.23657">
        <ele>37.63</ele>
        <time>2017-08-04T16:56:02Z</time>
      </trkpt>
      <trkpt lat="50.48079" lon="3.23656">
        <ele>36.19</ele>
        <time>2017-08-04T16:56:03Z</time>
      </trkpt>
      <trkpt lat="50.48078" lon="3.23654">
        <ele>36.19</ele>
        <time>2017-08-04T16:56:04Z</time>
      </trkpt>
      <trkpt lat="50.48078" lon="3.23652">
        <ele>36.19</ele>
        <time>2017-08-04T16:56:05Z</time>
      </trkpt>
      <trkpt lat="50.48076" lon="3.23651">
        <ele>36.19</ele>
        <time>2017-08-04T16:56:06Z</time>
      </trkpt>
      <trkpt lat="50.48075" lon="3.2365">
        <ele>36.19</ele>
        <time>2017-08-04T16:56:07Z</time>
      </trkpt>
      <trkpt lat="50.48074" lon="3.23649">
        <ele>36.19</ele>
        <time>2017-08-04T16:56:08Z</time>
      </trkpt>
      <trkpt lat="50.48072" lon="3.23648">
        <ele>36.19</ele>
        <time>2017-08-04T16:56:09Z</time>
      </trkpt>
      <trkpt lat="50.4807" lon="3.23647">
        <ele>36.19</ele>
        <time>2017-08-04T16:56:10Z</time>
      </trkpt>
      <trkpt lat="50.48068" lon="3.23647">
        <ele>36.19</ele>
        <time>2017-08-04T16:56:11Z</time>
      </trkpt>
      <trkpt lat="50.48065" lon="3.23646">
        <ele>36.19</ele>
        <time>2017-08-04T16:56:12Z</time>
      </trkpt>
      <trkpt lat="50.48062" lon="3.23646">
        <ele>36.19</ele>
        <time>2017-08-04T16:56:13Z</time>
      </trkpt>
      <trkpt lat="50.48059" lon="3.23645">
        <ele>36.19</ele>
        <time>2017-08-04T16:56:14Z</time>
      </trkpt>
      <trkpt lat="50.48026" lon="3.23626">
        <ele>36.19</ele>
        <time>2017-08-04T16:56:25Z</time>
      </trkpt>
      <trkpt lat="50.47984" lon="3.23557">
        <ele>37.63</ele>
        <time>2017-08-04T16:56:43Z</time>
      </trkpt>
      <trkpt lat="50.47954" lon="3.23498">
        <ele>37.63</ele>
        <time>2017-08-04T16:56:57Z</time>
      </trkpt>
      <trkpt lat="50.47967" lon="3.23438">
        <ele>38.11</ele>
        <time>2017-08-04T16:57:08Z</time>
      </trkpt>
      <trkpt lat="50.47967" lon="3.23415">
        <ele>36.67</ele>
        <time>2017-08-04T16:57:12Z</time>
      </trkpt>
      <trkpt lat="50.47943" lon="3.23342">
        <ele>36.67</ele>
        <time>2017-08-04T16:57:28Z</time>
      </trkpt>
      <trkpt lat="50.47917" lon="3.23274">
        <ele>36.67</ele>
        <time>2017-08-04T16:57:44Z</time>
      </trkpt>
      <trkpt lat="50.47894" lon="3.23216">
        <ele>36.67</ele>
        <time>2017-08-04T16:57:58Z</time>
      </trkpt>
      <trkpt lat="50.47856" lon="3.23143">
        <ele>37.15</ele>
        <time>2017-08-04T16:58:18Z</time>
      </trkpt>
      <trkpt lat="50.47831" lon="3.23099">
        <ele>37.15</ele>
        <time>2017-08-04T16:58:31Z</time>
      </trkpt>
      <trkpt lat="50.47792" lon="3.23039">
        <ele>37.63</ele>
        <time>2017-08-04T16:58:49Z</time>
      </trkpt>
      <trkpt lat="50.47756" lon="3.22986">
        <ele>38.11</ele>
        <time>2017-08-04T16:59:05Z</time>
      </trkpt>
      <trkpt lat="50.47725" lon="3.22938">
        <ele>39.07</ele>
        <time>2017-08-04T16:59:21Z</time>
      </trkpt>
      <trkpt lat="50.47696" lon="3.22871">
        <ele>39.07</ele>
        <time>2017-08-04T16:59:38Z</time>
      </trkpt>
      <trkpt lat="50.47686" lon="3.2281">
        <ele>39.07</ele>
        <time>2017-08-04T16:59:51Z</time>
      </trkpt>
      <trkpt lat="50.4767" lon="3.22722">
        <ele>37.63</ele>
        <time>2017-08-04T17:00:10Z</time>
      </trkpt>
      <trkpt lat="50.47642" lon="3.22687">
        <ele>37.63</ele>
        <time>2017-08-04T17:00:22Z</time>
      </trkpt>
      <trkpt lat="50.47584" lon="3.22634">
        <ele>37.15</ele>
        <time>2017-08-04T17:00:43Z</time>
      </trkpt>
      <trkpt lat="50.4753" lon="3.22586">
        <ele>38.11</ele>
        <time>2017-08-04T17:01:03Z</time>
      </trkpt>
      <trkpt lat="50.47526" lon="3.22582">
        <ele>36.19</ele>
        <time>2017-08-04T17:01:05Z</time>
      </trkpt>
      <trkpt lat="50.47517" lon="3.22573">
        <ele>38.11</ele>
        <time>2017-08-04T17:01:09Z</time>
      </trkpt>
      <trkpt lat="50.47484" lon="3.22531">
        <ele>38.59</ele>
        <time>2017-08-04T17:01:26Z</time>
      </trkpt>
      <trkpt lat="50.47466" lon="3.22488">
        <ele>39.07</ele>
        <time>2017-08-04T17:01:39Z</time>
      </trkpt>
      <trkpt lat="50.4744" lon="3.22447">
        <ele>38.11</ele>
        <time>2017-08-04T17:01:54Z</time>
      </trkpt>
      <trkpt lat="50.47416" lon="3.22417">
        <ele>40.03</ele>
        <time>2017-08-04T17:02:06Z</time>
      </trkpt>
      <trkpt lat="50.47394" lon="3.22393">
        <ele>40.51</ele>
        <time>2017-08-04T17:02:19Z</time>
      </trkpt>
      <trkpt lat="50.47394" lon="3.22395">
        <ele>40.51</ele>
        <time>2017-08-04T17:02:20Z</time>
      </trkpt>
      <trkpt lat="50.47395" lon="3.22396">
        <ele>40.51</ele>
        <time>2017-08-04T17:02:21Z</time>
      </trkpt>
      <trkpt lat="50.47395" lon="3.22395">
        <ele>40.99</ele>
        <time>2017-08-04T17:02:37Z</time>
      </trkpt>
      <trkpt lat="50.47395" lon="3.22396">
        <ele>39.07</ele>
        <time>2017-08-04T17:02:59Z</time>
      </trkpt>
      <trkpt lat="50.47396" lon="3.22393">
        <ele>40.99</ele>
        <time>2017-08-04T17:03:18Z</time>
      </trkpt>
      <trkpt lat="50.47397" lon="3.22391">
        <ele>40.99</ele>
        <time>2017-08-04T17:03:19Z</time>
      </trkpt>
      <trkpt lat="50.47395" lon="3.22388">
        <ele>40.99</ele>
        <time>2017-08-04T17:03:21Z</time>
      </trkpt>
      <trkpt lat="50.4739" lon="3.22385">
        <ele>40.99</ele>
        <time>2017-08-04T17:03:24Z</time>
      </trkpt>
      <trkpt lat="50.47371" lon="3.22415">
        <ele>40.99</ele>
        <time>2017-08-04T17:03:35Z</time>
      </trkpt>
      <trkpt lat="50.4737" lon="3.22419">
        <ele>40.99</ele>
        <time>2017-08-04T17:03:36Z</time>
      </trkpt>
      <trkpt lat="50.47359" lon="3.22467">
        <ele>41.47</ele>
        <time>2017-08-04T17:03:48Z</time>
      </trkpt>
      <trkpt lat="50.47337" lon="3.22552">
        <ele>42.44</ele>
        <time>2017-08-04T17:04:04Z</time>
      </trkpt>
      <trkpt lat="50.47309" lon="3.22658">
        <ele>43.4</ele>
        <time>2017-08-04T17:04:23Z</time>
      </trkpt>
      <trkpt lat="50.47282" lon="3.22756">
        <ele>43.4</ele>
        <time>2017-08-04T17:04:40Z</time>
      </trkpt>
      <trkpt lat="50.4728" lon="3.22762">
        <ele>43.4</ele>
        <time>2017-08-04T17:04:41Z</time>
      </trkpt>
      <trkpt lat="50.47263" lon="3.22845">
        <ele>44.36</ele>
        <time>2017-08-04T17:04:54Z</time>
      </trkpt>
      <trkpt lat="50.47263" lon="3.22852">
        <ele>44.36</ele>
        <time>2017-08-04T17:04:55Z</time>
      </trkpt>
      <trkpt lat="50.47261" lon="3.22873">
        <ele>44.36</ele>
        <time>2017-08-04T17:04:58Z</time>
      </trkpt>
      <trkpt lat="50.47268" lon="3.22932">
        <ele>44.36</ele>
        <time>2017-08-04T17:05:06Z</time>
      </trkpt>
      <trkpt lat="50.47302" lon="3.23079">
        <ele>41.95</ele>
        <time>2017-08-04T17:05:24Z</time>
      </trkpt>
      <trkpt lat="50.47304" lon="3.23088">
        <ele>41.95</ele>
        <time>2017-08-04T17:05:25Z</time>
      </trkpt>
      <trkpt lat="50.47326" lon="3.23177">
        <ele>41.47</ele>
        <time>2017-08-04T17:05:36Z</time>
      </trkpt>
      <trkpt lat="50.47326" lon="3.23196">
        <ele>41.47</ele>
        <time>2017-08-04T17:05:39Z</time>
      </trkpt>
      <trkpt lat="50.47324" lon="3.232">
        <ele>40.99</ele>
        <time>2017-08-04T17:05:40Z</time>
      </trkpt>
      <trkpt lat="50.47321" lon="3.23201">
        <ele>40.99</ele>
        <time>2017-08-04T17:05:41Z</time>
      </trkpt>
      <trkpt lat="50.47318" lon="3.23201">
        <ele>40.99</ele>
        <time>2017-08-04T17:05:42Z</time>
      </trkpt>
      <trkpt lat="50.47315" lon="3.232">
        <ele>40.99</ele>
        <time>2017-08-04T17:05:43Z</time>
      </trkpt>
      <trkpt lat="50.47313" lon="3.23199">
        <ele>40.99</ele>
        <time>2017-08-04T17:05:44Z</time>
      </trkpt>
      <trkpt lat="50.4731" lon="3.23196">
        <ele>40.99</ele>
        <time>2017-08-04T17:05:45Z</time>
      </trkpt>
      <trkpt lat="50.47309" lon="3.23194">
        <ele>40.99</ele>
        <time>2017-08-04T17:05:46Z</time>
      </trkpt>
      <trkpt lat="50.47307" lon="3.2319">
        <ele>40.99</ele>
        <time>2017-08-04T17:05:47Z</time>
      </trkpt>
      <trkpt lat="50.47306" lon="3.23187">
        <ele>40.99</ele>
        <time>2017-08-04T17:05:48Z</time>
      </trkpt>
      <trkpt lat="50.47304" lon="3.23184">
        <ele>40.99</ele>
        <time>2017-08-04T17:05:49Z</time>
      </trkpt>
      <trkpt lat="50.47304" lon="3.23181">
        <ele>40.99</ele>
        <time>2017-08-04T17:05:50Z</time>
      </trkpt>
      <trkpt lat="50.47304" lon="3.2318">
        <ele>42.44</ele>
        <time>2017-08-04T17:05:57Z</time>
      </trkpt>
      <trkpt lat="50.47304" lon="3.2318">
        <ele>42.44</ele>
        <time>2017-08-04T17:06:02Z</time>
      </trkpt>
      <trkpt lat="50.47294" lon="3.23182">
        <ele>42.44</ele>
        <time>2017-08-04T17:06:14Z</time>
      </trkpt>
      <trkpt lat="50.47284" lon="3.23208">
        <ele>42.44</ele>
        <time>2017-08-04T17:06:26Z</time>
      </trkpt>
      <trkpt lat="50.47277" lon="3.2323">
        <ele>42.44</ele>
        <time>2017-08-04T17:06:30Z</time>
      </trkpt>
      <trkpt lat="50.47272" lon="3.23239">
        <ele>40.99</ele>
        <time>2017-08-04T17:06:31Z</time>
      </trkpt>
      <trkpt lat="50.4727" lon="3.23242">
        <ele>40.99</ele>
        <time>2017-08-04T17:06:32Z</time>
      </trkpt>
      <trkpt lat="50.47267" lon="3.23245">
        <ele>40.99</ele>
        <time>2017-08-04T17:06:33Z</time>
      </trkpt>
      <trkpt lat="50.47262" lon="3.23248">
        <ele>40.99</ele>
        <time>2017-08-04T17:06:34Z</time>
      </trkpt>
      <trkpt lat="50.47258" lon="3.23249">
        <ele>40.99</ele>
        <time>2017-08-04T17:06:35Z</time>
      </trkpt>
      <trkpt lat="50.47253" lon="3.23249">
        <ele>40.99</ele>
        <time>2017-08-04T17:06:36Z</time>
      </trkpt>
      <trkpt lat="50.47249" lon="3.23248">
        <ele>40.99</ele>
        <time>2017-08-04T17:06:37Z</time>
      </trkpt>
      <trkpt lat="50.47244" lon="3.23246">
        <ele>40.99</ele>
        <time>2017-08-04T17:06:38Z</time>
      </trkpt>
      <trkpt lat="50.4724" lon="3.23244">
        <ele>40.99</ele>
        <time>2017-08-04T17:06:39Z</time>
      </trkpt>
      <trkpt lat="50.47236" lon="3.23241">
        <ele>40.99</ele>
        <time>2017-08-04T17:06:40Z</time>
      </trkpt>
      <trkpt lat="50.47233" lon="3.23238">
        <ele>40.99</ele>
        <time>2017-08-04T17:06:41Z</time>
      </trkpt>
      <trkpt lat="50.47229" lon="3.23234">
        <ele>40.99</ele>
        <time>2017-08-04T17:06:42Z</time>
      </trkpt>
      <trkpt lat="50.47196" lon="3.23199">
        <ele>42.44</ele>
        <time>2017-08-04T17:06:52Z</time>
      </trkpt>
      <trkpt lat="50.47136" lon="3.23139">
        <ele>43.4</ele>
        <time>2017-08-04T17:07:11Z</time>
      </trkpt>
      <trkpt lat="50.47129" lon="3.23136">
        <ele>43.4</ele>
        <time>2017-08-04T17:07:14Z</time>
      </trkpt>
      <trkpt lat="50.47125" lon="3.23139">
        <ele>43.4</ele>
        <time>2017-08-04T17:07:15Z</time>
      </trkpt>
      <trkpt lat="50.47124" lon="3.23143">
        <ele>43.4</ele>
        <time>2017-08-04T17:07:16Z</time>
      </trkpt>
      <trkpt lat="50.47122" lon="3.23148">
        <ele>43.4</ele>
        <time>2017-08-04T17:07:17Z</time>
      </trkpt>
      <trkpt lat="50.47121" lon="3.23153">
        <ele>43.4</ele>
        <time>2017-08-04T17:07:18Z</time>
      </trkpt>
      <trkpt lat="50.47093" lon="3.23254">
        <ele>43.4</ele>
        <time>2017-08-04T17:07:33Z</time>
      </trkpt>
      <trkpt lat="50.47078" lon="3.23341">
        <ele>43.4</ele>
        <time>2017-08-04T17:07:44Z</time>
      </trkpt>
      <trkpt lat="50.47079" lon="3.23347">
        <ele>43.4</ele>
        <time>2017-08-04T17:07:45Z</time>
      </trkpt>
      <trkpt lat="50.47081" lon="3.23355">
        <ele>43.4</ele>
        <time>2017-08-04T17:07:46Z</time>
      </trkpt>
      <trkpt lat="50.47083" lon="3.23362">
        <ele>41.95</ele>
        <time>2017-08-04T17:07:47Z</time>
      </trkpt>
      <trkpt lat="50.47086" lon="3.23369">
        <ele>41.95</ele>
        <time>2017-08-04T17:07:48Z</time>
      </trkpt>
      <trkpt lat="50.4709" lon="3.23375">
        <ele>41.95</ele>
        <time>2017-08-04T17:07:49Z</time>
      </trkpt>
      <trkpt lat="50.47095" lon="3.23382">
        <ele>41.95</ele>
        <time>2017-08-04T17:07:50Z</time>
      </trkpt>
      <trkpt lat="50.47099" lon="3.23388">
        <ele>41.95</ele>
        <time>2017-08-04T17:07:51Z</time>
      </trkpt>
      <trkpt lat="50.47173" lon="3.23489">
        <ele>40.51</ele>
        <time>2017-08-04T17:08:07Z</time>
      </trkpt>
      <trkpt lat="50.47248" lon="3.23592">
        <ele>39.55</ele>
        <time>2017-08-04T17:08:23Z</time>
      </trkpt>
      <trkpt lat="50.4732" lon="3.23716">
        <ele>38.59</ele>
        <time>2017-08-04T17:08:40Z</time>
      </trkpt>
      <trkpt lat="50.47343" lon="3.23785">
        <ele>38.59</ele>
        <time>2017-08-04T17:08:48Z</time>
      </trkpt>
      <trkpt lat="50.47345" lon="3.23794">
        <ele>38.59</ele>
        <time>2017-08-04T17:08:49Z</time>
      </trkpt>
      <trkpt lat="50.47346" lon="3.23801">
        <ele>38.59</ele>
        <time>2017-08-04T17:08:50Z</time>
      </trkpt>
      <trkpt lat="50.47346" lon="3.23811">
        <ele>38.59</ele>
        <time>2017-08-04T17:08:51Z</time>
      </trkpt>
      <trkpt lat="50.47345" lon="3.23819">
        <ele>38.59</ele>
        <time>2017-08-04T17:08:52Z</time>
      </trkpt>
      <trkpt lat="50.47343" lon="3.23828">
        <ele>38.59</ele>
        <time>2017-08-04T17:08:53Z</time>
      </trkpt>
      <trkpt lat="50.47341" lon="3.23835">
        <ele>38.59</ele>
        <time>2017-08-04T17:08:54Z</time>
      </trkpt>
      <trkpt lat="50.47338" lon="3.23843">
        <ele>38.59</ele>
        <time>2017-08-04T17:08:55Z</time>
      </trkpt>
      <trkpt lat="50.47318" lon="3.23899">
        <ele>38.59</ele>
        <time>2017-08-04T17:09:02Z</time>
      </trkpt>
      <trkpt lat="50.47317" lon="3.23908">
        <ele>38.59</ele>
        <time>2017-08-04T17:09:03Z</time>
      </trkpt>
      <trkpt lat="50.47317" lon="3.23917">
        <ele>38.59</ele>
        <time>2017-08-04T17:09:04Z</time>
      </trkpt>
      <trkpt lat="50.4732" lon="3.23926">
        <ele>38.59</ele>
        <time>2017-08-04T17:09:05Z</time>
      </trkpt>
      <trkpt lat="50.47323" lon="3.23934">
        <ele>38.59</ele>
        <time>2017-08-04T17:09:06Z</time>
      </trkpt>
      <trkpt lat="50.47326" lon="3.2394">
        <ele>38.59</ele>
        <time>2017-08-04T17:09:07Z</time>
      </trkpt>
      <trkpt lat="50.4733" lon="3.23946">
        <ele>38.59</ele>
        <time>2017-08-04T17:09:08Z</time>
      </trkpt>
      <trkpt lat="50.47397" lon="3.24042">
        <ele>37.63</ele>
        <time>2017-08-04T17:09:23Z</time>
      </trkpt>
      <trkpt lat="50.4744" lon="3.24102">
        <ele>36.67</ele>
        <time>2017-08-04T17:09:33Z</time>
      </trkpt>
      <trkpt lat="50.47442" lon="3.2411">
        <ele>36.67</ele>
        <time>2017-08-04T17:09:34Z</time>
      </trkpt>
      <trkpt lat="50.47441" lon="3.24118">
        <ele>36.67</ele>
        <time>2017-08-04T17:09:35Z</time>
      </trkpt>
      <trkpt lat="50.47439" lon="3.24123">
        <ele>36.19</ele>
        <time>2017-08-04T17:09:36Z</time>
      </trkpt>
      <trkpt lat="50.47436" lon="3.24129">
        <ele>36.19</ele>
        <time>2017-08-04T17:09:37Z</time>
      </trkpt>
      <trkpt lat="50.47432" lon="3.24133">
        <ele>36.19</ele>
        <time>2017-08-04T17:09:38Z</time>
      </trkpt>
      <trkpt lat="50.47428" lon="3.24138">
        <ele>36.19</ele>
        <time>2017-08-04T17:09:39Z</time>
      </trkpt>
      <trkpt lat="50.47384" lon="3.24204">
        <ele>36.19</ele>
        <time>2017-08-04T17:09:55Z</time>
      </trkpt>
      <trkpt lat="50.47354" lon="3.24241">
        <ele>37.63</ele>
        <time>2017-08-04T17:10:05Z</time>
      </trkpt>
      <trkpt lat="50.47338" lon="3.24263">
        <ele>37.63</ele>
        <time>2017-08-04T17:10:10Z</time>
      </trkpt>
      <trkpt lat="50.47335" lon="3.24267">
        <ele>37.63</ele>
        <time>2017-08-04T17:10:11Z</time>
      </trkpt>
      <trkpt lat="50.47309" lon="3.24298">
        <ele>37.63</ele>
        <time>2017-08-04T17:10:19Z</time>
      </trkpt>
      <trkpt lat="50.47302" lon="3.24306">
        <ele>36.19</ele>
        <time>2017-08-04T17:10:21Z</time>
      </trkpt>
      <trkpt lat="50.47292" lon="3.24319">
        <ele>37.63</ele>
        <time>2017-08-04T17:10:24Z</time>
      </trkpt>
      <trkpt lat="50.47285" lon="3.24328">
        <ele>37.63</ele>
        <time>2017-08-04T17:10:26Z</time>
      </trkpt>
      <trkpt lat="50.47281" lon="3.24332">
        <ele>36.67</ele>
        <time>2017-08-04T17:10:27Z</time>
      </trkpt>
      <trkpt lat="50.47265" lon="3.24349">
        <ele>35.71</ele>
        <time>2017-08-04T17:10:31Z</time>
      </trkpt>
      <trkpt lat="50.47255" lon="3.24356">
        <ele>35.71</ele>
        <time>2017-08-04T17:10:33Z</time>
      </trkpt>
      <trkpt lat="50.47165" lon="3.24422">
        <ele>35.71</ele>
        <time>2017-08-04T17:10:53Z</time>
      </trkpt>
      <trkpt lat="50.47136" lon="3.24443">
        <ele>35.71</ele>
        <time>2017-08-04T17:11:00Z</time>
      </trkpt>
      <trkpt lat="50.47117" lon="3.2446">
        <ele>35.71</ele>
        <time>2017-08-04T17:11:06Z</time>
      </trkpt>
      <trkpt lat="50.47116" lon="3.24466">
        <ele>35.71</ele>
        <time>2017-08-04T17:11:07Z</time>
      </trkpt>
      <trkpt lat="50.47116" lon="3.24473">
        <ele>35.71</ele>
        <time>2017-08-04T17:11:08Z</time>
      </trkpt>
      <trkpt lat="50.47118" lon="3.24479">
        <ele>35.71</ele>
        <time>2017-08-04T17:11:09Z</time>
      </trkpt>
      <trkpt lat="50.4712" lon="3.24484">
        <ele>35.23</ele>
        <time>2017-08-04T17:11:10Z</time>
      </trkpt>
      <trkpt lat="50.47123" lon="3.2449">
        <ele>35.71</ele>
        <time>2017-08-04T17:11:11Z</time>
      </trkpt>
      <trkpt lat="50.47126" lon="3.24496">
        <ele>35.23</ele>
        <time>2017-08-04T17:11:12Z</time>
      </trkpt>
      <trkpt lat="50.47129" lon="3.24502">
        <ele>35.23</ele>
        <time>2017-08-04T17:11:13Z</time>
      </trkpt>
      <trkpt lat="50.47132" lon="3.24509">
        <ele>35.23</ele>
        <time>2017-08-04T17:11:14Z</time>
      </trkpt>
      <trkpt lat="50.4715" lon="3.2456">
        <ele>34.74</ele>
        <time>2017-08-04T17:11:21Z</time>
      </trkpt>
      <trkpt lat="50.47166" lon="3.24609">
        <ele>34.26</ele>
        <time>2017-08-04T17:11:27Z</time>
      </trkpt>
      <trkpt lat="50.47167" lon="3.24617">
        <ele>34.26</ele>
        <time>2017-08-04T17:11:28Z</time>
      </trkpt>
      <trkpt lat="50.47167" lon="3.24626">
        <ele>34.26</ele>
        <time>2017-08-04T17:11:29Z</time>
      </trkpt>
      <trkpt lat="50.47165" lon="3.24635">
        <ele>34.26</ele>
        <time>2017-08-04T17:11:30Z</time>
      </trkpt>
      <trkpt lat="50.47163" lon="3.24645">
        <ele>34.26</ele>
        <time>2017-08-04T17:11:31Z</time>
      </trkpt>
      <trkpt lat="50.4716" lon="3.24653">
        <ele>34.26</ele>
        <time>2017-08-04T17:11:32Z</time>
      </trkpt>
      <trkpt lat="50.47157" lon="3.24662">
        <ele>33.78</ele>
        <time>2017-08-04T17:11:33Z</time>
      </trkpt>
      <trkpt lat="50.47107" lon="3.24749">
        <ele>32.34</ele>
        <time>2017-08-04T17:11:45Z</time>
      </trkpt>
      <trkpt lat="50.47103" lon="3.24755">
        <ele>32.34</ele>
        <time>2017-08-04T17:11:46Z</time>
      </trkpt>
      <trkpt lat="50.47082" lon="3.24792">
        <ele>31.86</ele>
        <time>2017-08-04T17:11:54Z</time>
      </trkpt>
      <trkpt lat="50.4708" lon="3.24793">
        <ele>31.86</ele>
        <time>2017-08-04T17:11:55Z</time>
      </trkpt>
      <trkpt lat="50.47078" lon="3.24792">
        <ele>31.38</ele>
        <time>2017-08-04T17:11:56Z</time>
      </trkpt>
      <trkpt lat="50.47076" lon="3.24791">
        <ele>31.38</ele>
        <time>2017-08-04T17:11:57Z</time>
      </trkpt>
      <trkpt lat="50.47075" lon="3.2479">
        <ele>31.86</ele>
        <time>2017-08-04T17:11:58Z</time>
      </trkpt>
      <trkpt lat="50.47073" lon="3.24787">
        <ele>31.86</ele>
        <time>2017-08-04T17:11:59Z</time>
      </trkpt>
      <trkpt lat="50.47071" lon="3.24785">
        <ele>31.86</ele>
        <time>2017-08-04T17:12:00Z</time>
      </trkpt>
      <trkpt lat="50.47069" lon="3.24785">
        <ele>31.86</ele>
        <time>2017-08-04T17:12:01Z</time>
      </trkpt>
      <trkpt lat="50.47067" lon="3.24785">
        <ele>31.86</ele>
        <time>2017-08-04T17:12:02Z</time>
      </trkpt>
      <trkpt lat="50.47065" lon="3.24784">
        <ele>31.86</ele>
        <time>2017-08-04T17:12:03Z</time>
      </trkpt>
      <trkpt lat="50.47063" lon="3.24784">
        <ele>31.86</ele>
        <time>2017-08-04T17:12:04Z</time>
      </trkpt>
      <trkpt lat="50.4706" lon="3.24785">
        <ele>31.86</ele>
        <time>2017-08-04T17:12:05Z</time>
      </trkpt>
      <trkpt lat="50.47058" lon="3.24785">
        <ele>31.86</ele>
        <time>2017-08-04T17:12:06Z</time>
      </trkpt>
      <trkpt lat="50.47056" lon="3.24785">
        <ele>31.86</ele>
        <time>2017-08-04T17:12:07Z</time>
      </trkpt>
      <trkpt lat="50.47053" lon="3.24784">
        <ele>31.86</ele>
        <time>2017-08-04T17:12:08Z</time>
      </trkpt>
      <trkpt lat="50.47051" lon="3.24783">
        <ele>31.86</ele>
        <time>2017-08-04T17:12:09Z</time>
      </trkpt>
      <trkpt lat="50.47036" lon="3.24771">
        <ele>31.86</ele>
        <time>2017-08-04T17:12:15Z</time>
      </trkpt>
      <trkpt lat="50.47034" lon="3.24771">
        <ele>31.86</ele>
        <time>2017-08-04T17:12:16Z</time>
      </trkpt>
      <trkpt lat="50.47031" lon="3.24771">
        <ele>31.86</ele>
        <time>2017-08-04T17:12:17Z</time>
      </trkpt>
      <trkpt lat="50.47029" lon="3.2477">
        <ele>32.82</ele>
        <time>2017-08-04T17:12:26Z</time>
      </trkpt>
      <trkpt lat="50.4703" lon="3.24771">
        <ele>32.82</ele>
        <time>2017-08-04T17:12:42Z</time>
      </trkpt>
      <trkpt lat="50.47028" lon="3.24773">
        <ele>32.82</ele>
        <time>2017-08-04T17:12:58Z</time>
      </trkpt>
      <trkpt lat="50.47027" lon="3.24779">
        <ele>32.82</ele>
        <time>2017-08-04T17:13:14Z</time>
      </trkpt>
      <trkpt lat="50.47029" lon="3.24774">
        <ele>32.82</ele>
        <time>2017-08-04T17:13:33Z</time>
      </trkpt>
      <trkpt lat="50.47034" lon="3.24761">
        <ele>32.82</ele>
        <time>2017-08-04T17:13:41Z</time>
      </trkpt>
      <trkpt lat="50.47035" lon="3.24763">
        <ele>32.82</ele>
        <time>2017-08-04T17:13:43Z</time>
      </trkpt>
      <trkpt lat="50.47038" lon="3.2476">
        <ele>32.82</ele>
        <time>2017-08-04T17:13:56Z</time>
      </trkpt>
      <trkpt lat="50.4703" lon="3.24747">
        <ele>32.82</ele>
        <time>2017-08-04T17:14:14Z</time>
      </trkpt>
      <trkpt lat="50.47026" lon="3.24728">
        <ele>32.82</ele>
        <time>2017-08-04T17:14:25Z</time>
      </trkpt>
      <trkpt lat="50.47026" lon="3.24724">
        <ele>32.82</ele>
        <time>2017-08-04T17:14:26Z</time>
      </trkpt>
      <trkpt lat="50.47025" lon="3.2472">
        <ele>32.82</ele>
        <time>2017-08-04T17:14:27Z</time>
      </trkpt>
      <trkpt lat="50.47023" lon="3.24718">
        <ele>32.82</ele>
        <time>2017-08-04T17:14:28Z</time>
      </trkpt>
      <trkpt lat="50.47022" lon="3.24715">
        <ele>32.82</ele>
        <time>2017-08-04T17:14:29Z</time>
      </trkpt>
      <trkpt lat="50.47021" lon="3.24713">
        <ele>32.82</ele>
        <time>2017-08-04T17:14:30Z</time>
      </trkpt>
      <trkpt lat="50.47007" lon="3.24708">
        <ele>32.82</ele>
        <time>2017-08-04T17:14:43Z</time>
      </trkpt>
      <trkpt lat="50.47006" lon="3.24709">
        <ele>32.82</ele>
        <time>2017-08-04T17:14:44Z</time>
      </trkpt>
      <trkpt lat="50.47007" lon="3.24716">
        <ele>32.82</ele>
        <time>2017-08-04T17:15:03Z</time>
      </trkpt>
      <trkpt lat="50.47015" lon="3.24714">
        <ele>32.82</ele>
        <time>2017-08-04T17:15:07Z</time>
      </trkpt>
      <trkpt lat="50.47026" lon="3.24713">
        <ele>32.82</ele>
        <time>2017-08-04T17:15:21Z</time>
      </trkpt>
      <trkpt lat="50.47026" lon="3.24713">
        <ele>32.82</ele>
        <time>2017-08-04T17:15:42Z</time>
      </trkpt>
      <trkpt lat="50.47015" lon="3.24724">
        <ele>32.82</ele>
        <time>2017-08-04T17:16:00Z</time>
      </trkpt>
      <trkpt lat="50.47014" lon="3.24732">
        <ele>32.82</ele>
        <time>2017-08-04T17:16:16Z</time>
      </trkpt>
      <trkpt lat="50.47008" lon="3.24731">
        <ele>32.82</ele>
        <time>2017-08-04T17:16:26Z</time>
      </trkpt>
      <trkpt lat="50.46983" lon="3.24728">
        <ele>32.82</ele>
        <time>2017-08-04T17:16:48Z</time>
      </trkpt>
      <trkpt lat="50.46993" lon="3.24742">
        <ele>31.86</ele>
        <time>2017-08-04T17:17:09Z</time>
      </trkpt>
      <trkpt lat="50.46986" lon="3.24744">
        <ele>31.86</ele>
        <time>2017-08-04T17:17:15Z</time>
      </trkpt>
      <trkpt lat="50.46985" lon="3.24744">
        <ele>31.86</ele>
        <time>2017-08-04T17:17:16Z</time>
      </trkpt>
      <trkpt lat="50.46984" lon="3.24745">
        <ele>31.86</ele>
        <time>2017-08-04T17:17:17Z</time>
      </trkpt>
      <trkpt lat="50.46966" lon="3.24766">
        <ele>31.38</ele>
        <time>2017-08-04T17:17:40Z</time>
      </trkpt>
      <trkpt lat="50.4701" lon="3.24765">
        <ele>31.38</ele>
        <time>2017-08-04T17:18:01Z</time>
      </trkpt>
      <trkpt lat="50.4701" lon="3.2475">
        <ele>31.38</ele>
        <time>2017-08-04T17:18:11Z</time>
      </trkpt>
      <trkpt lat="50.47014" lon="3.24744">
        <ele>31.38</ele>
        <time>2017-08-04T17:18:31Z</time>
      </trkpt>
      <trkpt lat="50.47028" lon="3.24733">
        <ele>31.38</ele>
        <time>2017-08-04T17:18:52Z</time>
      </trkpt>
      <trkpt lat="50.47025" lon="3.24727">
        <ele>31.38</ele>
        <time>2017-08-04T17:18:57Z</time>
      </trkpt>
      <trkpt lat="50.47024" lon="3.24727">
        <ele>31.38</ele>
        <time>2017-08-04T17:19:03Z</time>
      </trkpt>
      <trkpt lat="50.47034" lon="3.2474">
        <ele>31.38</ele>
        <time>2017-08-04T17:19:19Z</time>
      </trkpt>
      <trkpt lat="50.47031" lon="3.24734">
        <ele>31.38</ele>
        <time>2017-08-04T17:19:46Z</time>
      </trkpt>
      <trkpt lat="50.47032" lon="3.24738">
        <ele>31.38</ele>
        <time>2017-08-04T17:20:12Z</time>
      </trkpt>
      <trkpt lat="50.47036" lon="3.24732">
        <ele>31.38</ele>
        <time>2017-08-04T17:20:40Z</time>
      </trkpt>
      <trkpt lat="50.47037" lon="3.24738">
        <ele>31.38</ele>
        <time>2017-08-04T17:21:04Z</time>
      </trkpt>
      <trkpt lat="50.4704" lon="3.24739">
        <ele>31.38</ele>
        <time>2017-08-04T17:21:19Z</time>
      </trkpt>
      <trkpt lat="50.47047" lon="3.24764">
        <ele>31.38</ele>
        <time>2017-08-04T17:21:31Z</time>
      </trkpt>
      <trkpt lat="50.47045" lon="3.24764">
        <ele>31.38</ele>
        <time>2017-08-04T17:21:33Z</time>
      </trkpt>
      <trkpt lat="50.4703" lon="3.24769">
        <ele>31.38</ele>
        <time>2017-08-04T17:21:46Z</time>
      </trkpt>
      <trkpt lat="50.47029" lon="3.24767">
        <ele>31.38</ele>
        <time>2017-08-04T17:21:58Z</time>
      </trkpt>
      <trkpt lat="50.47032" lon="3.24772">
        <ele>31.38</ele>
        <time>2017-08-04T17:22:25Z</time>
      </trkpt>
      <trkpt lat="50.47029" lon="3.24768">
        <ele>31.38</ele>
        <time>2017-08-04T17:22:45Z</time>
      </trkpt>
      <trkpt lat="50.47029" lon="3.24767">
        <ele>31.38</ele>
        <time>2017-08-04T17:22:57Z</time>
      </trkpt>
      <trkpt lat="50.47029" lon="3.24765">
        <ele>31.86</ele>
        <time>2017-08-04T17:23:19Z</time>
      </trkpt>
      <trkpt lat="50.47028" lon="3.24765">
        <ele>31.86</ele>
        <time>2017-08-04T17:23:42Z</time>
      </trkpt>
      <trkpt lat="50.47028" lon="3.24767">
        <ele>31.38</ele>
        <time>2017-08-04T17:23:56Z</time>
      </trkpt>
      <trkpt lat="50.47028" lon="3.24764">
        <ele>31.38</ele>
        <time>2017-08-04T17:24:21Z</time>
      </trkpt>
      <trkpt lat="50.47027" lon="3.24765">
        <ele>31.38</ele>
        <time>2017-08-04T17:24:43Z</time>
      </trkpt>
      <trkpt lat="50.47028" lon="3.24766">
        <ele>31.38</ele>
        <time>2017-08-04T17:25:05Z</time>
      </trkpt>
      <trkpt lat="50.4703" lon="3.24765">
        <ele>31.38</ele>
        <time>2017-08-04T17:25:17Z</time>
      </trkpt>
      <trkpt lat="50.47032" lon="3.24761">
        <ele>31.38</ele>
        <time>2017-08-04T17:25:45Z</time>
      </trkpt>
      <trkpt lat="50.47039" lon="3.24765">
        <ele>31.38</ele>
        <time>2017-08-04T17:26:17Z</time>
      </trkpt>
      <trkpt lat="50.47036" lon="3.24767">
        <ele>31.38</ele>
        <time>2017-08-04T17:26:48Z</time>
      </trkpt>
      <trkpt lat="50.47034" lon="3.24766">
        <ele>31.38</ele>
        <time>2017-08-04T17:27:23Z</time>
      </trkpt>
      <trkpt lat="50.47039" lon="3.24767">
        <ele>32.34</ele>
        <time>2017-08-04T17:27:55Z</time>
      </trkpt>
      <trkpt lat="50.47037" lon="3.24764">
        <ele>32.34</ele>
        <time>2017-08-04T17:28:28Z</time>
      </trkpt>
      <trkpt lat="50.4704" lon="3.24763">
        <ele>32.34</ele>
        <time>2017-08-04T17:28:33Z</time>
      </trkpt>
      <trkpt lat="50.47038" lon="3.24762">
        <ele>31.86</ele>
        <time>2017-08-04T17:28:47Z</time>
      </trkpt>
      <trkpt lat="50.47046" lon="3.24764">
        <ele>31.86</ele>
        <time>2017-08-04T17:29:13Z</time>
      </trkpt>
      <trkpt lat="50.47043" lon="3.24767">
        <ele>31.86</ele>
        <time>2017-08-04T17:29:47Z</time>
      </trkpt>
      <trkpt lat="50.47044" lon="3.24766">
        <ele>32.34</ele>
        <time>2017-08-04T17:30:13Z</time>
      </trkpt>
      <trkpt lat="50.47042" lon="3.24765">
        <ele>32.34</ele>
        <time>2017-08-04T17:30:45Z</time>
      </trkpt>
      <trkpt lat="50.47033" lon="3.24763">
        <ele>32.82</ele>
        <time>2017-08-04T17:30:59Z</time>
      </trkpt>
      <trkpt lat="50.4703" lon="3.24763">
        <ele>33.3</ele>
        <time>2017-08-04T17:31:08Z</time>
      </trkpt>
      <trkpt lat="50.47029" lon="3.24763">
        <ele>32.82</ele>
        <time>2017-08-04T17:31:21Z</time>
      </trkpt>
      <trkpt lat="50.47029" lon="3.24764">
        <ele>32.82</ele>
        <time>2017-08-04T17:31:40Z</time>
      </trkpt>
      <trkpt lat="50.47026" lon="3.24769">
        <ele>32.82</ele>
        <time>2017-08-04T17:32:10Z</time>
      </trkpt>
      <trkpt lat="50.47027" lon="3.24766">
        <ele>32.82</ele>
        <time>2017-08-04T17:32:31Z</time>
      </trkpt>
      <trkpt lat="50.47029" lon="3.24765">
        <ele>32.82</ele>
        <time>2017-08-04T17:32:46Z</time>
      </trkpt>
      <trkpt lat="50.47029" lon="3.24765">
        <ele>32.82</ele>
        <time>2017-08-04T17:33:03Z</time>
      </trkpt>
      <trkpt lat="50.47027" lon="3.24765">
        <ele>32.82</ele>
        <time>2017-08-04T17:33:40Z</time>
      </trkpt>
      <trkpt lat="50.47029" lon="3.24764">
        <ele>33.3</ele>
        <time>2017-08-04T17:34:04Z</time>
      </trkpt>
      <trkpt lat="50.47027" lon="3.24768">
        <ele>33.3</ele>
        <time>2017-08-04T17:34:35Z</time>
      </trkpt>
      <trkpt lat="50.47028" lon="3.24764">
        <ele>33.3</ele>
        <time>2017-08-04T17:35:00Z</time>
      </trkpt>
      <trkpt lat="50.47028" lon="3.24768">
        <ele>31.86</ele>
        <time>2017-08-04T17:35:13Z</time>
      </trkpt>
      <trkpt lat="50.47028" lon="3.24781">
        <ele>31.86</ele>
        <time>2017-08-04T17:35:18Z</time>
      </trkpt>
      <trkpt lat="50.4703" lon="3.24785">
        <ele>31.86</ele>
        <time>2017-08-04T17:35:19Z</time>
      </trkpt>
      <trkpt lat="50.47032" lon="3.24788">
        <ele>31.86</ele>
        <time>2017-08-04T17:35:20Z</time>
      </trkpt>
      <trkpt lat="50.47035" lon="3.24791">
        <ele>31.38</ele>
        <time>2017-08-04T17:35:21Z</time>
      </trkpt>
      <trkpt lat="50.47037" lon="3.24795">
        <ele>31.38</ele>
        <time>2017-08-04T17:35:22Z</time>
      </trkpt>
      <trkpt lat="50.4704" lon="3.24799">
        <ele>31.38</ele>
        <time>2017-08-04T17:35:23Z</time>
      </trkpt>
      <trkpt lat="50.47043" lon="3.24803">
        <ele>31.38</ele>
        <time>2017-08-04T17:35:24Z</time>
      </trkpt>
      <trkpt lat="50.47053" lon="3.24834">
        <ele>30.9</ele>
        <time>2017-08-04T17:35:31Z</time>
      </trkpt>
      <trkpt lat="50.47052" lon="3.24838">
        <ele>30.9</ele>
        <time>2017-08-04T17:35:32Z</time>
      </trkpt>
      <trkpt lat="50.47051" lon="3.24842">
        <ele>30.9</ele>
        <time>2017-08-04T17:35:33Z</time>
      </trkpt>
      <trkpt lat="50.47048" lon="3.24846">
        <ele>30.9</ele>
        <time>2017-08-04T17:35:34Z</time>
      </trkpt>
      <trkpt lat="50.47046" lon="3.2485">
        <ele>30.9</ele>
        <time>2017-08-04T17:35:35Z</time>
      </trkpt>
      <trkpt lat="50.47016" lon="3.24899">
        <ele>31.86</ele>
        <time>2017-08-04T17:35:45Z</time>
      </trkpt>
      <trkpt lat="50.47012" lon="3.24903">
        <ele>30.9</ele>
        <time>2017-08-04T17:35:46Z</time>
      </trkpt>
      <trkpt lat="50.46946" lon="3.24981">
        <ele>28.98</ele>
        <time>2017-08-04T17:36:01Z</time>
      </trkpt>
      <trkpt lat="50.4688" lon="3.25115">
        <ele>27.53</ele>
        <time>2017-08-04T17:36:19Z</time>
      </trkpt>
      <trkpt lat="50.46849" lon="3.25178">
        <ele>27.53</ele>
        <time>2017-08-04T17:36:28Z</time>
      </trkpt>
      <trkpt lat="50.46846" lon="3.25183">
        <ele>27.53</ele>
        <time>2017-08-04T17:36:35Z</time>
      </trkpt>
      <trkpt lat="50.46847" lon="3.25182">
        <ele>27.05</ele>
        <time>2017-08-04T17:36:57Z</time>
      </trkpt>
      <trkpt lat="50.4684" lon="3.25195">
        <ele>27.05</ele>
        <time>2017-08-04T17:37:22Z</time>
      </trkpt>
      <trkpt lat="50.46814" lon="3.25249">
        <ele>27.05</ele>
        <time>2017-08-04T17:37:35Z</time>
      </trkpt>
      <trkpt lat="50.46795" lon="3.2528">
        <ele>27.05</ele>
        <time>2017-08-04T17:37:43Z</time>
      </trkpt>
      <trkpt lat="50.46778" lon="3.25291">
        <ele>27.05</ele>
        <time>2017-08-04T17:37:48Z</time>
      </trkpt>
      <trkpt lat="50.46774" lon="3.25297">
        <ele>27.05</ele>
        <time>2017-08-04T17:37:49Z</time>
      </trkpt>
      <trkpt lat="50.46772" lon="3.25301">
        <ele>27.05</ele>
        <time>2017-08-04T17:37:50Z</time>
      </trkpt>
      <trkpt lat="50.4677" lon="3.25307">
        <ele>27.05</ele>
        <time>2017-08-04T17:37:51Z</time>
      </trkpt>
      <trkpt lat="50.46769" lon="3.25314">
        <ele>27.05</ele>
        <time>2017-08-04T17:37:52Z</time>
      </trkpt>
      <trkpt lat="50.46769" lon="3.25323">
        <ele>27.05</ele>
        <time>2017-08-04T17:37:53Z</time>
      </trkpt>
      <trkpt lat="50.46769" lon="3.25329">
        <ele>27.05</ele>
        <time>2017-08-04T17:37:54Z</time>
      </trkpt>
      <trkpt lat="50.46769" lon="3.25337">
        <ele>27.05</ele>
        <time>2017-08-04T17:37:55Z</time>
      </trkpt>
      <trkpt lat="50.46769" lon="3.25361">
        <ele>27.05</ele>
        <time>2017-08-04T17:37:58Z</time>
      </trkpt>
      <trkpt lat="50.46766" lon="3.25377">
        <ele>26.09</ele>
        <time>2017-08-04T17:38:00Z</time>
      </trkpt>
      <trkpt lat="50.46732" lon="3.25506">
        <ele>26.09</ele>
        <time>2017-08-04T17:38:17Z</time>
      </trkpt>
      <trkpt lat="50.4671" lon="3.25591">
        <ele>25.61</ele>
        <time>2017-08-04T17:38:27Z</time>
      </trkpt>
      <trkpt lat="50.46672" lon="3.25737">
        <ele>25.61</ele>
        <time>2017-08-04T17:38:45Z</time>
      </trkpt>
      <trkpt lat="50.46668" lon="3.25744">
        <ele>25.61</ele>
        <time>2017-08-04T17:38:46Z</time>
      </trkpt>
      <trkpt lat="50.46663" lon="3.25751">
        <ele>24.65</ele>
        <time>2017-08-04T17:38:47Z</time>
      </trkpt>
      <trkpt lat="50.46616" lon="3.25806">
        <ele>23.69</ele>
        <time>2017-08-04T17:38:57Z</time>
      </trkpt>
      <trkpt lat="50.46611" lon="3.25809">
        <ele>23.69</ele>
        <time>2017-08-04T17:38:58Z</time>
      </trkpt>
      <trkpt lat="50.46606" lon="3.25811">
        <ele>23.69</ele>
        <time>2017-08-04T17:38:59Z</time>
      </trkpt>
      <trkpt lat="50.46595" lon="3.25814">
        <ele>24.17</ele>
        <time>2017-08-04T17:39:01Z</time>
      </trkpt>
      <trkpt lat="50.46503" lon="3.25828">
        <ele>24.17</ele>
        <time>2017-08-04T17:39:19Z</time>
      </trkpt>
      <trkpt lat="50.46485" lon="3.25837">
        <ele>24.17</ele>
        <time>2017-08-04T17:39:23Z</time>
      </trkpt>
      <trkpt lat="50.46481" lon="3.25841">
        <ele>24.17</ele>
        <time>2017-08-04T17:39:24Z</time>
      </trkpt>
      <trkpt lat="50.46473" lon="3.2585">
        <ele>23.69</ele>
        <time>2017-08-04T17:39:26Z</time>
      </trkpt>
      <trkpt lat="50.46434" lon="3.2589">
        <ele>23.21</ele>
        <time>2017-08-04T17:39:36Z</time>
      </trkpt>
      <trkpt lat="50.4643" lon="3.25893">
        <ele>23.21</ele>
        <time>2017-08-04T17:39:37Z</time>
      </trkpt>
      <trkpt lat="50.46418" lon="3.25904">
        <ele>23.21</ele>
        <time>2017-08-04T17:39:40Z</time>
      </trkpt>
      <trkpt lat="50.46376" lon="3.25953">
        <ele>23.21</ele>
        <time>2017-08-04T17:39:54Z</time>
      </trkpt>
      <trkpt lat="50.46345" lon="3.25992">
        <ele>24.17</ele>
        <time>2017-08-04T17:40:05Z</time>
      </trkpt>
      <trkpt lat="50.46286" lon="3.26068">
        <ele>24.17</ele>
        <time>2017-08-04T17:40:26Z</time>
      </trkpt>
      <trkpt lat="50.46241" lon="3.26133">
        <ele>24.65</ele>
        <time>2017-08-04T17:40:44Z</time>
      </trkpt>
      <trkpt lat="50.46191" lon="3.26197">
        <ele>25.13</ele>
        <time>2017-08-04T17:41:03Z</time>
      </trkpt>
      <trkpt lat="50.46156" lon="3.26265">
        <ele>25.13</ele>
        <time>2017-08-04T17:41:19Z</time>
      </trkpt>
      <trkpt lat="50.46124" lon="3.26347">
        <ele>25.61</ele>
        <time>2017-08-04T17:41:35Z</time>
      </trkpt>
      <trkpt lat="50.46094" lon="3.2643">
        <ele>25.61</ele>
        <time>2017-08-04T17:41:52Z</time>
      </trkpt>
      <trkpt lat="50.46065" lon="3.26502">
        <ele>26.09</ele>
        <time>2017-08-04T17:42:08Z</time>
      </trkpt>
      <trkpt lat="50.4605" lon="3.26534">
        <ele>26.57</ele>
        <time>2017-08-04T17:42:18Z</time>
      </trkpt>
      <trkpt lat="50.4605" lon="3.26534">
        <ele>26.57</ele>
        <time>2017-08-04T17:42:19Z</time>
      </trkpt>
      <trkpt lat="50.46048" lon="3.26532">
        <ele>26.57</ele>
        <time>2017-08-04T17:42:21Z</time>
      </trkpt>
      <trkpt lat="50.46046" lon="3.26531">
        <ele>26.57</ele>
        <time>2017-08-04T17:42:22Z</time>
      </trkpt>
      <trkpt lat="50.46044" lon="3.2653">
        <ele>26.57</ele>
        <time>2017-08-04T17:42:23Z</time>
      </trkpt>
      <trkpt lat="50.46042" lon="3.2653">
        <ele>26.57</ele>
        <time>2017-08-04T17:42:24Z</time>
      </trkpt>
      <trkpt lat="50.46039" lon="3.2653">
        <ele>26.57</ele>
        <time>2017-08-04T17:42:25Z</time>
      </trkpt>
      <trkpt lat="50.46036" lon="3.26531">
        <ele>26.57</ele>
        <time>2017-08-04T17:42:26Z</time>
      </trkpt>
      <trkpt lat="50.46033" lon="3.26532">
        <ele>26.57</ele>
        <time>2017-08-04T17:42:27Z</time>
      </trkpt>
      <trkpt lat="50.45983" lon="3.26542">
        <ele>26.57</ele>
        <time>2017-08-04T17:42:41Z</time>
      </trkpt>
      <trkpt lat="50.45946" lon="3.26554">
        <ele>26.57</ele>
        <time>2017-08-04T17:42:53Z</time>
      </trkpt>
      <trkpt lat="50.45912" lon="3.26564">
        <ele>26.57</ele>
        <time>2017-08-04T17:43:02Z</time>
      </trkpt>
      <trkpt lat="50.45903" lon="3.26566">
        <ele>26.57</ele>
        <time>2017-08-04T17:43:04Z</time>
      </trkpt>
      <trkpt lat="50.4589" lon="3.26569">
        <ele>25.13</ele>
        <time>2017-08-04T17:43:07Z</time>
      </trkpt>
      <trkpt lat="50.45886" lon="3.26571">
        <ele>25.13</ele>
        <time>2017-08-04T17:43:08Z</time>
      </trkpt>
      <trkpt lat="50.45881" lon="3.26572">
        <ele>25.13</ele>
        <time>2017-08-04T17:43:09Z</time>
      </trkpt>
      <trkpt lat="50.45848" lon="3.26581">
        <ele>25.13</ele>
        <time>2017-08-04T17:43:16Z</time>
      </trkpt>
      <trkpt lat="50.45779" lon="3.26598">
        <ele>24.17</ele>
        <time>2017-08-04T17:43:30Z</time>
      </trkpt>
      <trkpt lat="50.45755" lon="3.26605">
        <ele>24.17</ele>
        <time>2017-08-04T17:43:35Z</time>
      </trkpt>
      <trkpt lat="50.45733" lon="3.26607">
        <ele>23.69</ele>
        <time>2017-08-04T17:43:44Z</time>
      </trkpt>
      <trkpt lat="50.45733" lon="3.26604">
        <ele>23.69</ele>
        <time>2017-08-04T17:44:11Z</time>
      </trkpt>
      <trkpt lat="50.45731" lon="3.26605">
        <ele>23.69</ele>
        <time>2017-08-04T17:44:41Z</time>
      </trkpt>
      <trkpt lat="50.45707" lon="3.26614">
        <ele>23.69</ele>
        <time>2017-08-04T17:44:51Z</time>
      </trkpt>
      <trkpt lat="50.45629" lon="3.26635">
        <ele>23.21</ele>
        <time>2017-08-04T17:45:06Z</time>
      </trkpt>
      <trkpt lat="50.45554" lon="3.26655">
        <ele>22.25</ele>
        <time>2017-08-04T17:45:21Z</time>
      </trkpt>
      <trkpt lat="50.45545" lon="3.26658">
        <ele>22.25</ele>
        <time>2017-08-04T17:45:23Z</time>
      </trkpt>
      <trkpt lat="50.4553" lon="3.26668">
        <ele>22.25</ele>
        <time>2017-08-04T17:45:28Z</time>
      </trkpt>
      <trkpt lat="50.45529" lon="3.26668">
        <ele>22.25</ele>
        <time>2017-08-04T17:45:29Z</time>
      </trkpt>
      <trkpt lat="50.45527" lon="3.26668">
        <ele>22.25</ele>
        <time>2017-08-04T17:45:30Z</time>
      </trkpt>
      <trkpt lat="50.45525" lon="3.2667">
        <ele>22.25</ele>
        <time>2017-08-04T17:45:31Z</time>
      </trkpt>
      <trkpt lat="50.45523" lon="3.2667">
        <ele>22.25</ele>
        <time>2017-08-04T17:45:32Z</time>
      </trkpt>
      <trkpt lat="50.45522" lon="3.2667">
        <ele>22.25</ele>
        <time>2017-08-04T17:45:33Z</time>
      </trkpt>
      <trkpt lat="50.4552" lon="3.26667">
        <ele>22.25</ele>
        <time>2017-08-04T17:45:34Z</time>
      </trkpt>
      <trkpt lat="50.45518" lon="3.26666">
        <ele>22.25</ele>
        <time>2017-08-04T17:45:35Z</time>
      </trkpt>
      <trkpt lat="50.45516" lon="3.26666">
        <ele>22.25</ele>
        <time>2017-08-04T17:45:36Z</time>
      </trkpt>
      <trkpt lat="50.45513" lon="3.26667">
        <ele>22.25</ele>
        <time>2017-08-04T17:45:37Z</time>
      </trkpt>
      <trkpt lat="50.4551" lon="3.26668">
        <ele>22.25</ele>
        <time>2017-08-04T17:45:38Z</time>
      </trkpt>
      <trkpt lat="50.45453" lon="3.2668">
        <ele>21.29</ele>
        <time>2017-08-04T17:45:50Z</time>
      </trkpt>
      <trkpt lat="50.45378" lon="3.26699">
        <ele>21.29</ele>
        <time>2017-08-04T17:46:05Z</time>
      </trkpt>
      <trkpt lat="50.45307" lon="3.26715">
        <ele>21.29</ele>
        <time>2017-08-04T17:46:19Z</time>
      </trkpt>
      <trkpt lat="50.45267" lon="3.26726">
        <ele>21.29</ele>
        <time>2017-08-04T17:46:27Z</time>
      </trkpt>
      <trkpt lat="50.45177" lon="3.26749">
        <ele>20.32</ele>
        <time>2017-08-04T17:46:44Z</time>
      </trkpt>
      <trkpt lat="50.45125" lon="3.26764">
        <ele>20.32</ele>
        <time>2017-08-04T17:46:54Z</time>
      </trkpt>
      <trkpt lat="50.4512" lon="3.26765">
        <ele>20.32</ele>
        <time>2017-08-04T17:46:55Z</time>
      </trkpt>
      <trkpt lat="50.45036" lon="3.26785">
        <ele>19.84</ele>
        <time>2017-08-04T17:47:11Z</time>
      </trkpt>
      <trkpt lat="50.44964" lon="3.26808">
        <ele>18.88</ele>
        <time>2017-08-04T17:47:25Z</time>
      </trkpt>
      <trkpt lat="50.44961" lon="3.26811">
        <ele>18.88</ele>
        <time>2017-08-04T17:47:26Z</time>
      </trkpt>
      <trkpt lat="50.44953" lon="3.26818">
        <ele>18.88</ele>
        <time>2017-08-04T17:47:28Z</time>
      </trkpt>
      <trkpt lat="50.44949" lon="3.26818">
        <ele>18.4</ele>
        <time>2017-08-04T17:47:29Z</time>
      </trkpt>
      <trkpt lat="50.44945" lon="3.26817">
        <ele>18.4</ele>
        <time>2017-08-04T17:47:30Z</time>
      </trkpt>
      <trkpt lat="50.44922" lon="3.26816">
        <ele>18.4</ele>
        <time>2017-08-04T17:47:36Z</time>
      </trkpt>
      <trkpt lat="50.44918" lon="3.26817">
        <ele>18.4</ele>
        <time>2017-08-04T17:47:37Z</time>
      </trkpt>
      <trkpt lat="50.44913" lon="3.26818">
        <ele>18.4</ele>
        <time>2017-08-04T17:47:38Z</time>
      </trkpt>
      <trkpt lat="50.44894" lon="3.26824">
        <ele>18.4</ele>
        <time>2017-08-04T17:47:42Z</time>
      </trkpt>
      <trkpt lat="50.44889" lon="3.26826">
        <ele>18.4</ele>
        <time>2017-08-04T17:47:43Z</time>
      </trkpt>
      <trkpt lat="50.44884" lon="3.26827">
        <ele>18.4</ele>
        <time>2017-08-04T17:47:44Z</time>
      </trkpt>
      <trkpt lat="50.4488" lon="3.26827">
        <ele>18.4</ele>
        <time>2017-08-04T17:47:45Z</time>
      </trkpt>
      <trkpt lat="50.44874" lon="3.26828">
        <ele>18.4</ele>
        <time>2017-08-04T17:47:46Z</time>
      </trkpt>
      <trkpt lat="50.44869" lon="3.2683">
        <ele>18.4</ele>
        <time>2017-08-04T17:47:47Z</time>
      </trkpt>
      <trkpt lat="50.44792" lon="3.26849">
        <ele>17.92</ele>
        <time>2017-08-04T17:48:03Z</time>
      </trkpt>
      <trkpt lat="50.44768" lon="3.26855">
        <ele>17.92</ele>
        <time>2017-08-04T17:48:08Z</time>
      </trkpt>
      <trkpt lat="50.44764" lon="3.26856">
        <ele>17.92</ele>
        <time>2017-08-04T17:48:09Z</time>
      </trkpt>
      <trkpt lat="50.44748" lon="3.26861">
        <ele>17.92</ele>
        <time>2017-08-04T17:48:14Z</time>
      </trkpt>
      <trkpt lat="50.44745" lon="3.26859">
        <ele>17.92</ele>
        <time>2017-08-04T17:48:17Z</time>
      </trkpt>
      <trkpt lat="50.44743" lon="3.2686">
        <ele>17.92</ele>
        <time>2017-08-04T17:48:18Z</time>
      </trkpt>
      <trkpt lat="50.44742" lon="3.26863">
        <ele>17.92</ele>
        <time>2017-08-04T17:48:19Z</time>
      </trkpt>
      <trkpt lat="50.4474" lon="3.26865">
        <ele>17.92</ele>
        <time>2017-08-04T17:48:20Z</time>
      </trkpt>
      <trkpt lat="50.44737" lon="3.26866">
        <ele>17.92</ele>
        <time>2017-08-04T17:48:21Z</time>
      </trkpt>
      <trkpt lat="50.44734" lon="3.26868">
        <ele>17.92</ele>
        <time>2017-08-04T17:48:22Z</time>
      </trkpt>
      <trkpt lat="50.44731" lon="3.26868">
        <ele>17.92</ele>
        <time>2017-08-04T17:48:23Z</time>
      </trkpt>
      <trkpt lat="50.4471" lon="3.26882">
        <ele>17.92</ele>
        <time>2017-08-04T17:48:34Z</time>
      </trkpt>
      <trkpt lat="50.44701" lon="3.26885">
        <ele>17.92</ele>
        <time>2017-08-04T17:48:38Z</time>
      </trkpt>
      <trkpt lat="50.44699" lon="3.26885">
        <ele>17.92</ele>
        <time>2017-08-04T17:48:39Z</time>
      </trkpt>
      <trkpt lat="50.44697" lon="3.26885">
        <ele>17.92</ele>
        <time>2017-08-04T17:48:40Z</time>
      </trkpt>
      <trkpt lat="50.44653" lon="3.26897">
        <ele>17.92</ele>
        <time>2017-08-04T17:48:52Z</time>
      </trkpt>
      <trkpt lat="50.44569" lon="3.26925">
        <ele>17.92</ele>
        <time>2017-08-04T17:49:10Z</time>
      </trkpt>
      <trkpt lat="50.44487" lon="3.26959">
        <ele>17.92</ele>
        <time>2017-08-04T17:49:27Z</time>
      </trkpt>
      <trkpt lat="50.44397" lon="3.27004">
        <ele>17.92</ele>
        <time>2017-08-04T17:49:46Z</time>
      </trkpt>
      <trkpt lat="50.44375" lon="3.27011">
        <ele>17.92</ele>
        <time>2017-08-04T17:49:51Z</time>
      </trkpt>
      <trkpt lat="50.44371" lon="3.2701">
        <ele>17.92</ele>
        <time>2017-08-04T17:49:52Z</time>
      </trkpt>
      <trkpt lat="50.44367" lon="3.27007">
        <ele>17.92</ele>
        <time>2017-08-04T17:49:53Z</time>
      </trkpt>
      <trkpt lat="50.44362" lon="3.27005">
        <ele>17.92</ele>
        <time>2017-08-04T17:49:54Z</time>
      </trkpt>
      <trkpt lat="50.44358" lon="3.27004">
        <ele>17.92</ele>
        <time>2017-08-04T17:49:55Z</time>
      </trkpt>
      <trkpt lat="50.44354" lon="3.27005">
        <ele>17.92</ele>
        <time>2017-08-04T17:49:56Z</time>
      </trkpt>
      <trkpt lat="50.44349" lon="3.27007">
        <ele>17.92</ele>
        <time>2017-08-04T17:49:57Z</time>
      </trkpt>
      <trkpt lat="50.44345" lon="3.2701">
        <ele>17.92</ele>
        <time>2017-08-04T17:49:58Z</time>
      </trkpt>
      <trkpt lat="50.44267" lon="3.27045">
        <ele>17.92</ele>
        <time>2017-08-04T17:50:14Z</time>
      </trkpt>
      <trkpt lat="50.44196" lon="3.27075">
        <ele>17.92</ele>
        <time>2017-08-04T17:50:29Z</time>
      </trkpt>
      <trkpt lat="50.44128" lon="3.27105">
        <ele>17.92</ele>
        <time>2017-08-04T17:50:43Z</time>
      </trkpt>
      <trkpt lat="50.4407" lon="3.27134">
        <ele>17.92</ele>
        <time>2017-08-04T17:50:55Z</time>
      </trkpt>
      <trkpt lat="50.44011" lon="3.27161">
        <ele>17.92</ele>
        <time>2017-08-04T17:51:06Z</time>
      </trkpt>
      <trkpt lat="50.44005" lon="3.27164">
        <ele>17.92</ele>
        <time>2017-08-04T17:51:07Z</time>
      </trkpt>
      <trkpt lat="50.43926" lon="3.27197">
        <ele>17.44</ele>
        <time>2017-08-04T17:51:21Z</time>
      </trkpt>
      <trkpt lat="50.43915" lon="3.27201">
        <ele>17.44</ele>
        <time>2017-08-04T17:51:23Z</time>
      </trkpt>
      <trkpt lat="50.43909" lon="3.27203">
        <ele>17.44</ele>
        <time>2017-08-04T17:51:24Z</time>
      </trkpt>
      <trkpt lat="50.43904" lon="3.27205">
        <ele>17.44</ele>
        <time>2017-08-04T17:51:25Z</time>
      </trkpt>
      <trkpt lat="50.43829" lon="3.2724">
        <ele>17.44</ele>
        <time>2017-08-04T17:51:39Z</time>
      </trkpt>
      <trkpt lat="50.43804" lon="3.27251">
        <ele>17.44</ele>
        <time>2017-08-04T17:51:44Z</time>
      </trkpt>
      <trkpt lat="50.43799" lon="3.27251">
        <ele>17.44</ele>
        <time>2017-08-04T17:51:45Z</time>
      </trkpt>
      <trkpt lat="50.43795" lon="3.27252">
        <ele>17.44</ele>
        <time>2017-08-04T17:51:46Z</time>
      </trkpt>
      <trkpt lat="50.43792" lon="3.27255">
        <ele>17.44</ele>
        <time>2017-08-04T17:51:47Z</time>
      </trkpt>
      <trkpt lat="50.4379" lon="3.27258">
        <ele>17.44</ele>
        <time>2017-08-04T17:51:48Z</time>
      </trkpt>
      <trkpt lat="50.43789" lon="3.27263">
        <ele>17.44</ele>
        <time>2017-08-04T17:51:49Z</time>
      </trkpt>
      <trkpt lat="50.43789" lon="3.27268">
        <ele>17.44</ele>
        <time>2017-08-04T17:51:50Z</time>
      </trkpt>
      <trkpt lat="50.4379" lon="3.27272">
        <ele>17.44</ele>
        <time>2017-08-04T17:51:51Z</time>
      </trkpt>
      <trkpt lat="50.4379" lon="3.27278">
        <ele>17.44</ele>
        <time>2017-08-04T17:51:52Z</time>
      </trkpt>
      <trkpt lat="50.43791" lon="3.27283">
        <ele>17.44</ele>
        <time>2017-08-04T17:51:53Z</time>
      </trkpt>
      <trkpt lat="50.43791" lon="3.27296">
        <ele>17.44</ele>
        <time>2017-08-04T17:51:55Z</time>
      </trkpt>
      <trkpt lat="50.43785" lon="3.27347">
        <ele>17.44</ele>
        <time>2017-08-04T17:52:03Z</time>
      </trkpt>
      <trkpt lat="50.43783" lon="3.27366">
        <ele>17.44</ele>
        <time>2017-08-04T17:52:06Z</time>
      </trkpt>
      <trkpt lat="50.43779" lon="3.27388">
        <ele>17.44</ele>
        <time>2017-08-04T17:52:09Z</time>
      </trkpt>
      <trkpt lat="50.43779" lon="3.27397">
        <ele>17.44</ele>
        <time>2017-08-04T17:52:10Z</time>
      </trkpt>
      <trkpt lat="50.43779" lon="3.27409">
        <ele>16.96</ele>
        <time>2017-08-04T17:52:12Z</time>
      </trkpt>
      <trkpt lat="50.43776" lon="3.27437">
        <ele>16.96</ele>
        <time>2017-08-04T17:52:16Z</time>
      </trkpt>
      <trkpt lat="50.43773" lon="3.27521">
        <ele>16.96</ele>
        <time>2017-08-04T17:52:29Z</time>
      </trkpt>
      <trkpt lat="50.43775" lon="3.27566">
        <ele>16.96</ele>
        <time>2017-08-04T17:52:36Z</time>
      </trkpt>
      <trkpt lat="50.43774" lon="3.27573">
        <ele>16.96</ele>
        <time>2017-08-04T17:52:37Z</time>
      </trkpt>
      <trkpt lat="50.4377" lon="3.27603">
        <ele>16.96</ele>
        <time>2017-08-04T17:52:41Z</time>
      </trkpt>
      <trkpt lat="50.43768" lon="3.27638">
        <ele>16.96</ele>
        <time>2017-08-04T17:52:46Z</time>
      </trkpt>
      <trkpt lat="50.43768" lon="3.27646">
        <ele>16.96</ele>
        <time>2017-08-04T17:52:47Z</time>
      </trkpt>
      <trkpt lat="50.43768" lon="3.27654">
        <ele>16.96</ele>
        <time>2017-08-04T17:52:48Z</time>
      </trkpt>
      <trkpt lat="50.43768" lon="3.27688">
        <ele>16.96</ele>
        <time>2017-08-04T17:52:53Z</time>
      </trkpt>
      <trkpt lat="50.43768" lon="3.27702">
        <ele>16.96</ele>
        <time>2017-08-04T17:52:55Z</time>
      </trkpt>
      <trkpt lat="50.43767" lon="3.27708">
        <ele>16.96</ele>
        <time>2017-08-04T17:52:56Z</time>
      </trkpt>
      <trkpt lat="50.43766" lon="3.27715">
        <ele>16.96</ele>
        <time>2017-08-04T17:52:57Z</time>
      </trkpt>
      <trkpt lat="50.43766" lon="3.27722">
        <ele>16.96</ele>
        <time>2017-08-04T17:52:58Z</time>
      </trkpt>
      <trkpt lat="50.43765" lon="3.27729">
        <ele>16.96</ele>
        <time>2017-08-04T17:52:59Z</time>
      </trkpt>
      <trkpt lat="50.43762" lon="3.2775">
        <ele>16.96</ele>
        <time>2017-08-04T17:53:02Z</time>
      </trkpt>
      <trkpt lat="50.43762" lon="3.27757">
        <ele>16.96</ele>
        <time>2017-08-04T17:53:03Z</time>
      </trkpt>
      <trkpt lat="50.43761" lon="3.27764">
        <ele>16.96</ele>
        <time>2017-08-04T17:53:04Z</time>
      </trkpt>
      <trkpt lat="50.43759" lon="3.27785">
        <ele>16.48</ele>
        <time>2017-08-04T17:53:07Z</time>
      </trkpt>
      <trkpt lat="50.43758" lon="3.27793">
        <ele>16.48</ele>
        <time>2017-08-04T17:53:08Z</time>
      </trkpt>
      <trkpt lat="50.43758" lon="3.278">
        <ele>16.48</ele>
        <time>2017-08-04T17:53:09Z</time>
      </trkpt>
      <trkpt lat="50.43758" lon="3.27807">
        <ele>16.48</ele>
        <time>2017-08-04T17:53:10Z</time>
      </trkpt>
      <trkpt lat="50.43758" lon="3.27815">
        <ele>16.48</ele>
        <time>2017-08-04T17:53:11Z</time>
      </trkpt>
      <trkpt lat="50.43758" lon="3.27828">
        <ele>16.48</ele>
        <time>2017-08-04T17:53:13Z</time>
      </trkpt>
      <trkpt lat="50.43761" lon="3.27869">
        <ele>16.48</ele>
        <time>2017-08-04T17:53:19Z</time>
      </trkpt>
      <trkpt lat="50.43761" lon="3.27876">
        <ele>16.48</ele>
        <time>2017-08-04T17:53:20Z</time>
      </trkpt>
      <trkpt lat="50.43762" lon="3.27883">
        <ele>16.48</ele>
        <time>2017-08-04T17:53:21Z</time>
      </trkpt>
      <trkpt lat="50.43763" lon="3.2789">
        <ele>16.48</ele>
        <time>2017-08-04T17:53:22Z</time>
      </trkpt>
      <trkpt lat="50.43763" lon="3.27896">
        <ele>16.48</ele>
        <time>2017-08-04T17:53:23Z</time>
      </trkpt>
      <trkpt lat="50.43764" lon="3.27953">
        <ele>16.48</ele>
        <time>2017-08-04T17:53:33Z</time>
      </trkpt>
      <trkpt lat="50.43745" lon="3.28025">
        <ele>16.96</ele>
        <time>2017-08-04T17:53:45Z</time>
      </trkpt>
      <trkpt lat="50.43718" lon="3.28043">
        <ele>16.96</ele>
        <time>2017-08-04T17:53:54Z</time>
      </trkpt>
      <trkpt lat="50.43667" lon="3.28055">
        <ele>16.96</ele>
        <time>2017-08-04T17:54:06Z</time>
      </trkpt>
      <trkpt lat="50.43658" lon="3.28056">
        <ele>16.96</ele>
        <time>2017-08-04T17:54:08Z</time>
      </trkpt>
      <trkpt lat="50.43649" lon="3.28057">
        <ele>16.48</ele>
        <time>2017-08-04T17:54:10Z</time>
      </trkpt>
      <trkpt lat="50.43618" lon="3.28067">
        <ele>16.48</ele>
        <time>2017-08-04T17:54:17Z</time>
      </trkpt>
      <trkpt lat="50.43571" lon="3.28078">
        <ele>16.48</ele>
        <time>2017-08-04T17:54:27Z</time>
      </trkpt>
      <trkpt lat="50.43498" lon="3.28094">
        <ele>16</ele>
        <time>2017-08-04T17:54:41Z</time>
      </trkpt>
      <trkpt lat="50.43487" lon="3.28097">
        <ele>16</ele>
        <time>2017-08-04T17:54:43Z</time>
      </trkpt>
      <trkpt lat="50.43482" lon="3.28099">
        <ele>16</ele>
        <time>2017-08-04T17:54:44Z</time>
      </trkpt>
      <trkpt lat="50.43438" lon="3.28108">
        <ele>15.52</ele>
        <time>2017-08-04T17:54:52Z</time>
      </trkpt>
      <trkpt lat="50.43433" lon="3.28108">
        <ele>15.52</ele>
        <time>2017-08-04T17:54:53Z</time>
      </trkpt>
      <trkpt lat="50.43398" lon="3.28116">
        <ele>15.52</ele>
        <time>2017-08-04T17:54:59Z</time>
      </trkpt>
      <trkpt lat="50.43392" lon="3.28117">
        <ele>15.52</ele>
        <time>2017-08-04T17:55:00Z</time>
      </trkpt>
      <trkpt lat="50.43313" lon="3.28138">
        <ele>15.04</ele>
        <time>2017-08-04T17:55:14Z</time>
      </trkpt>
      <trkpt lat="50.43288" lon="3.28143">
        <ele>15.04</ele>
        <time>2017-08-04T17:55:19Z</time>
      </trkpt>
      <trkpt lat="50.43283" lon="3.28145">
        <ele>15.04</ele>
        <time>2017-08-04T17:55:20Z</time>
      </trkpt>
      <trkpt lat="50.43279" lon="3.28147">
        <ele>15.04</ele>
        <time>2017-08-04T17:55:21Z</time>
      </trkpt>
      <trkpt lat="50.43239" lon="3.28154">
        <ele>15.04</ele>
        <time>2017-08-04T17:55:29Z</time>
      </trkpt>
      <trkpt lat="50.43234" lon="3.28156">
        <ele>15.04</ele>
        <time>2017-08-04T17:55:30Z</time>
      </trkpt>
      <trkpt lat="50.4318" lon="3.28169">
        <ele>15.04</ele>
        <time>2017-08-04T17:55:40Z</time>
      </trkpt>
      <trkpt lat="50.43113" lon="3.28183">
        <ele>15.04</ele>
        <time>2017-08-04T17:55:53Z</time>
      </trkpt>
      <trkpt lat="50.43108" lon="3.28184">
        <ele>15.04</ele>
        <time>2017-08-04T17:55:54Z</time>
      </trkpt>
      <trkpt lat="50.43076" lon="3.28194">
        <ele>15.04</ele>
        <time>2017-08-04T17:56:01Z</time>
      </trkpt>
      <trkpt lat="50.4307" lon="3.28195">
        <ele>15.04</ele>
        <time>2017-08-04T17:56:02Z</time>
      </trkpt>
      <trkpt lat="50.43066" lon="3.28197">
        <ele>15.04</ele>
        <time>2017-08-04T17:56:03Z</time>
      </trkpt>
      <trkpt lat="50.43061" lon="3.28198">
        <ele>15.04</ele>
        <time>2017-08-04T17:56:04Z</time>
      </trkpt>
      <trkpt lat="50.43056" lon="3.28198">
        <ele>15.04</ele>
        <time>2017-08-04T17:56:05Z</time>
      </trkpt>
      <trkpt lat="50.43051" lon="3.28199">
        <ele>15.04</ele>
        <time>2017-08-04T17:56:06Z</time>
      </trkpt>
      <trkpt lat="50.43046" lon="3.28201">
        <ele>15.04</ele>
        <time>2017-08-04T17:56:07Z</time>
      </trkpt>
      <trkpt lat="50.43042" lon="3.28203">
        <ele>15.04</ele>
        <time>2017-08-04T17:56:08Z</time>
      </trkpt>
      <trkpt lat="50.43037" lon="3.28205">
        <ele>15.04</ele>
        <time>2017-08-04T17:56:09Z</time>
      </trkpt>
      <trkpt lat="50.43027" lon="3.28208">
        <ele>15.04</ele>
        <time>2017-08-04T17:56:11Z</time>
      </trkpt>
      <trkpt lat="50.43022" lon="3.28209">
        <ele>15.04</ele>
        <time>2017-08-04T17:56:12Z</time>
      </trkpt>
      <trkpt lat="50.43017" lon="3.2821">
        <ele>15.04</ele>
        <time>2017-08-04T17:56:13Z</time>
      </trkpt>
      <trkpt lat="50.42993" lon="3.28216">
        <ele>15.04</ele>
        <time>2017-08-04T17:56:18Z</time>
      </trkpt>
      <trkpt lat="50.42987" lon="3.28217">
        <ele>15.04</ele>
        <time>2017-08-04T17:56:19Z</time>
      </trkpt>
      <trkpt lat="50.42963" lon="3.28225">
        <ele>15.04</ele>
        <time>2017-08-04T17:56:24Z</time>
      </trkpt>
      <trkpt lat="50.42958" lon="3.28226">
        <ele>15.04</ele>
        <time>2017-08-04T17:56:25Z</time>
      </trkpt>
      <trkpt lat="50.4289" lon="3.28242">
        <ele>15.52</ele>
        <time>2017-08-04T17:56:39Z</time>
      </trkpt>
      <trkpt lat="50.42875" lon="3.28246">
        <ele>15.52</ele>
        <time>2017-08-04T17:56:42Z</time>
      </trkpt>
      <trkpt lat="50.42869" lon="3.28247">
        <ele>15.52</ele>
        <time>2017-08-04T17:56:43Z</time>
      </trkpt>
      <trkpt lat="50.42833" lon="3.28257">
        <ele>15.52</ele>
        <time>2017-08-04T17:56:50Z</time>
      </trkpt>
      <trkpt lat="50.42828" lon="3.28259">
        <ele>15.52</ele>
        <time>2017-08-04T17:56:51Z</time>
      </trkpt>
      <trkpt lat="50.42818" lon="3.28262">
        <ele>15.52</ele>
        <time>2017-08-04T17:56:53Z</time>
      </trkpt>
      <trkpt lat="50.42789" lon="3.28271">
        <ele>15.04</ele>
        <time>2017-08-04T17:56:59Z</time>
      </trkpt>
      <trkpt lat="50.4272" lon="3.28291">
        <ele>15.04</ele>
        <time>2017-08-04T17:57:14Z</time>
      </trkpt>
      <trkpt lat="50.42715" lon="3.28292">
        <ele>15.04</ele>
        <time>2017-08-04T17:57:15Z</time>
      </trkpt>
      <trkpt lat="50.42711" lon="3.28293">
        <ele>15.04</ele>
        <time>2017-08-04T17:57:16Z</time>
      </trkpt>
      <trkpt lat="50.42649" lon="3.28311">
        <ele>15.04</ele>
        <time>2017-08-04T17:57:30Z</time>
      </trkpt>
      <trkpt lat="50.42576" lon="3.28331">
        <ele>15.04</ele>
        <time>2017-08-04T17:57:46Z</time>
      </trkpt>
      <trkpt lat="50.42526" lon="3.28345">
        <ele>15.04</ele>
        <time>2017-08-04T17:57:57Z</time>
      </trkpt>
      <trkpt lat="50.42451" lon="3.28364">
        <ele>15.04</ele>
        <time>2017-08-04T17:58:13Z</time>
      </trkpt>
      <trkpt lat="50.42414" lon="3.28373">
        <ele>15.04</ele>
        <time>2017-08-04T17:58:21Z</time>
      </trkpt>
      <trkpt lat="50.42359" lon="3.28388">
        <ele>15.04</ele>
        <time>2017-08-04T17:58:32Z</time>
      </trkpt>
      <trkpt lat="50.42327" lon="3.28396">
        <ele>15.04</ele>
        <time>2017-08-04T17:58:38Z</time>
      </trkpt>
      <trkpt lat="50.42252" lon="3.28413">
        <ele>15.04</ele>
        <time>2017-08-04T17:58:52Z</time>
      </trkpt>
      <trkpt lat="50.42216" lon="3.28422">
        <ele>14.56</ele>
        <time>2017-08-04T17:58:59Z</time>
      </trkpt>
      <trkpt lat="50.42191" lon="3.28427">
        <ele>14.56</ele>
        <time>2017-08-04T17:59:04Z</time>
      </trkpt>
      <trkpt lat="50.4218" lon="3.2843">
        <ele>14.56</ele>
        <time>2017-08-04T17:59:06Z</time>
      </trkpt>
      <trkpt lat="50.42175" lon="3.28431">
        <ele>14.56</ele>
        <time>2017-08-04T17:59:07Z</time>
      </trkpt>
      <trkpt lat="50.42132" lon="3.28441">
        <ele>14.08</ele>
        <time>2017-08-04T17:59:16Z</time>
      </trkpt>
      <trkpt lat="50.42128" lon="3.28443">
        <ele>14.08</ele>
        <time>2017-08-04T17:59:17Z</time>
      </trkpt>
      <trkpt lat="50.42119" lon="3.28444">
        <ele>14.08</ele>
        <time>2017-08-04T17:59:19Z</time>
      </trkpt>
      <trkpt lat="50.4207" lon="3.2846">
        <ele>14.08</ele>
        <time>2017-08-04T17:59:32Z</time>
      </trkpt>
      <trkpt lat="50.42036" lon="3.28459">
        <ele>14.08</ele>
        <time>2017-08-04T17:59:43Z</time>
      </trkpt>
      <trkpt lat="50.42011" lon="3.28463">
        <ele>14.08</ele>
        <time>2017-08-04T17:59:49Z</time>
      </trkpt>
      <trkpt lat="50.41968" lon="3.2847">
        <ele>15.04</ele>
        <time>2017-08-04T17:59:59Z</time>
      </trkpt>
      <trkpt lat="50.41925" lon="3.28475">
        <ele>13.6</ele>
        <time>2017-08-04T18:00:08Z</time>
      </trkpt>
      <trkpt lat="50.4192" lon="3.28476">
        <ele>13.6</ele>
        <time>2017-08-04T18:00:09Z</time>
      </trkpt>
      <trkpt lat="50.41869" lon="3.28481">
        <ele>15.04</ele>
        <time>2017-08-04T18:00:22Z</time>
      </trkpt>
      <trkpt lat="50.41793" lon="3.28491">
        <ele>15.04</ele>
        <time>2017-08-04T18:00:39Z</time>
      </trkpt>
      <trkpt lat="50.4176" lon="3.28496">
        <ele>15.04</ele>
        <time>2017-08-04T18:00:46Z</time>
      </trkpt>
      <trkpt lat="50.41746" lon="3.28499">
        <ele>15.04</ele>
        <time>2017-08-04T18:00:49Z</time>
      </trkpt>
      <trkpt lat="50.41741" lon="3.28499">
        <ele>15.04</ele>
        <time>2017-08-04T18:00:50Z</time>
      </trkpt>
      <trkpt lat="50.41736" lon="3.285">
        <ele>15.04</ele>
        <time>2017-08-04T18:00:51Z</time>
      </trkpt>
      <trkpt lat="50.41731" lon="3.285">
        <ele>15.04</ele>
        <time>2017-08-04T18:00:52Z</time>
      </trkpt>
      <trkpt lat="50.41726" lon="3.28501">
        <ele>15.04</ele>
        <time>2017-08-04T18:00:53Z</time>
      </trkpt>
      <trkpt lat="50.41666" lon="3.28513">
        <ele>15.04</ele>
        <time>2017-08-04T18:01:04Z</time>
      </trkpt>
      <trkpt lat="50.41661" lon="3.28513">
        <ele>15.04</ele>
        <time>2017-08-04T18:01:05Z</time>
      </trkpt>
      <trkpt lat="50.41632" lon="3.28517">
        <ele>14.08</ele>
        <time>2017-08-04T18:01:10Z</time>
      </trkpt>
      <trkpt lat="50.41627" lon="3.28518">
        <ele>14.08</ele>
        <time>2017-08-04T18:01:11Z</time>
      </trkpt>
      <trkpt lat="50.41566" lon="3.28525">
        <ele>14.08</ele>
        <time>2017-08-04T18:01:22Z</time>
      </trkpt>
      <trkpt lat="50.41555" lon="3.28528">
        <ele>14.08</ele>
        <time>2017-08-04T18:01:24Z</time>
      </trkpt>
      <trkpt lat="50.41551" lon="3.28528">
        <ele>14.08</ele>
        <time>2017-08-04T18:01:25Z</time>
      </trkpt>
      <trkpt lat="50.41546" lon="3.28528">
        <ele>14.08</ele>
        <time>2017-08-04T18:01:26Z</time>
      </trkpt>
      <trkpt lat="50.41541" lon="3.28528">
        <ele>14.08</ele>
        <time>2017-08-04T18:01:27Z</time>
      </trkpt>
      <trkpt lat="50.41536" lon="3.28529">
        <ele>14.08</ele>
        <time>2017-08-04T18:01:28Z</time>
      </trkpt>
      <trkpt lat="50.41469" lon="3.28541">
        <ele>14.08</ele>
        <time>2017-08-04T18:01:42Z</time>
      </trkpt>
      <trkpt lat="50.41382" lon="3.28553">
        <ele>13.12</ele>
        <time>2017-08-04T18:01:59Z</time>
      </trkpt>
      <trkpt lat="50.41319" lon="3.28565">
        <ele>13.12</ele>
        <time>2017-08-04T18:02:13Z</time>
      </trkpt>
      <trkpt lat="50.41315" lon="3.28566">
        <ele>13.12</ele>
        <time>2017-08-04T18:02:14Z</time>
      </trkpt>
      <trkpt lat="50.41232" lon="3.28579">
        <ele>13.12</ele>
        <time>2017-08-04T18:02:32Z</time>
      </trkpt>
      <trkpt lat="50.41165" lon="3.28589">
        <ele>13.12</ele>
        <time>2017-08-04T18:02:47Z</time>
      </trkpt>
      <trkpt lat="50.41157" lon="3.2859">
        <ele>13.12</ele>
        <time>2017-08-04T18:02:49Z</time>
      </trkpt>
      <trkpt lat="50.41086" lon="3.28601">
        <ele>14.56</ele>
        <time>2017-08-04T18:03:06Z</time>
      </trkpt>
      <trkpt lat="50.41034" lon="3.28609">
        <ele>14.56</ele>
        <time>2017-08-04T18:03:18Z</time>
      </trkpt>
      <trkpt lat="50.41008" lon="3.28613">
        <ele>14.56</ele>
        <time>2017-08-04T18:03:24Z</time>
      </trkpt>
      <trkpt lat="50.41004" lon="3.28615">
        <ele>14.56</ele>
        <time>2017-08-04T18:03:25Z</time>
      </trkpt>
      <trkpt lat="50.41" lon="3.28617">
        <ele>14.56</ele>
        <time>2017-08-04T18:03:26Z</time>
      </trkpt>
      <trkpt lat="50.40996" lon="3.28621">
        <ele>14.56</ele>
        <time>2017-08-04T18:03:27Z</time>
      </trkpt>
      <trkpt lat="50.40992" lon="3.28625">
        <ele>14.56</ele>
        <time>2017-08-04T18:03:28Z</time>
      </trkpt>
      <trkpt lat="50.40989" lon="3.2863">
        <ele>14.56</ele>
        <time>2017-08-04T18:03:29Z</time>
      </trkpt>
      <trkpt lat="50.40933" lon="3.28731">
        <ele>14.56</ele>
        <time>2017-08-04T18:03:48Z</time>
      </trkpt>
      <trkpt lat="50.4092" lon="3.28743">
        <ele>14.56</ele>
        <time>2017-08-04T18:03:54Z</time>
      </trkpt>
      <trkpt lat="50.40916" lon="3.28742">
        <ele>14.56</ele>
        <time>2017-08-04T18:03:57Z</time>
      </trkpt>
      <trkpt lat="50.40914" lon="3.28744">
        <ele>14.56</ele>
        <time>2017-08-04T18:03:58Z</time>
      </trkpt>
      <trkpt lat="50.40914" lon="3.28746">
        <ele>14.56</ele>
        <time>2017-08-04T18:03:59Z</time>
      </trkpt>
      <trkpt lat="50.40913" lon="3.2875">
        <ele>14.56</ele>
        <time>2017-08-04T18:04:00Z</time>
      </trkpt>
      <trkpt lat="50.40912" lon="3.28753">
        <ele>14.56</ele>
        <time>2017-08-04T18:04:01Z</time>
      </trkpt>
      <trkpt lat="50.40911" lon="3.28755">
        <ele>14.56</ele>
        <time>2017-08-04T18:04:02Z</time>
      </trkpt>
      <trkpt lat="50.40909" lon="3.28757">
        <ele>14.56</ele>
        <time>2017-08-04T18:04:03Z</time>
      </trkpt>
      <trkpt lat="50.40908" lon="3.28757">
        <ele>14.56</ele>
        <time>2017-08-04T18:04:04Z</time>
      </trkpt>
      <trkpt lat="50.40906" lon="3.28757">
        <ele>14.56</ele>
        <time>2017-08-04T18:04:05Z</time>
      </trkpt>
      <trkpt lat="50.40904" lon="3.28757">
        <ele>14.56</ele>
        <time>2017-08-04T18:04:06Z</time>
      </trkpt>
      <trkpt lat="50.40902" lon="3.2876">
        <ele>14.56</ele>
        <time>2017-08-04T18:04:07Z</time>
      </trkpt>
      <trkpt lat="50.409" lon="3.28763">
        <ele>14.56</ele>
        <time>2017-08-04T18:04:08Z</time>
      </trkpt>
      <trkpt lat="50.40898" lon="3.28766">
        <ele>14.56</ele>
        <time>2017-08-04T18:04:09Z</time>
      </trkpt>
      <trkpt lat="50.40897" lon="3.2877">
        <ele>14.56</ele>
        <time>2017-08-04T18:04:10Z</time>
      </trkpt>
      <trkpt lat="50.40895" lon="3.28774">
        <ele>14.56</ele>
        <time>2017-08-04T18:04:11Z</time>
      </trkpt>
      <trkpt lat="50.40865" lon="3.28831">
        <ele>14.56</ele>
        <time>2017-08-04T18:04:23Z</time>
      </trkpt>
      <trkpt lat="50.40853" lon="3.28857">
        <ele>14.56</ele>
        <time>2017-08-04T18:04:28Z</time>
      </trkpt>
      <trkpt lat="50.4085" lon="3.28863">
        <ele>14.56</ele>
        <time>2017-08-04T18:04:29Z</time>
      </trkpt>
      <trkpt lat="50.40813" lon="3.2893">
        <ele>13.12</ele>
        <time>2017-08-04T18:04:41Z</time>
      </trkpt>
      <trkpt lat="50.40758" lon="3.29031">
        <ele>13.12</ele>
        <time>2017-08-04T18:04:58Z</time>
      </trkpt>
      <trkpt lat="50.40696" lon="3.2915">
        <ele>13.12</ele>
        <time>2017-08-04T18:05:16Z</time>
      </trkpt>
      <trkpt lat="50.4065" lon="3.29242">
        <ele>13.12</ele>
        <time>2017-08-04T18:05:31Z</time>
      </trkpt>
      <trkpt lat="50.40593" lon="3.2933">
        <ele>13.12</ele>
        <time>2017-08-04T18:05:49Z</time>
      </trkpt>
      <trkpt lat="50.40571" lon="3.29356">
        <ele>14.08</ele>
        <time>2017-08-04T18:05:55Z</time>
      </trkpt>
      <trkpt lat="50.40568" lon="3.29361">
        <ele>14.08</ele>
        <time>2017-08-04T18:05:56Z</time>
      </trkpt>
      <trkpt lat="50.40559" lon="3.29377">
        <ele>14.08</ele>
        <time>2017-08-04T18:05:59Z</time>
      </trkpt>
      <trkpt lat="50.40556" lon="3.29381">
        <ele>14.08</ele>
        <time>2017-08-04T18:06:00Z</time>
      </trkpt>
      <trkpt lat="50.405" lon="3.29437">
        <ele>15.04</ele>
        <time>2017-08-04T18:06:16Z</time>
      </trkpt>
      <trkpt lat="50.40461" lon="3.2947">
        <ele>15.04</ele>
        <time>2017-08-04T18:06:28Z</time>
      </trkpt>
      <trkpt lat="50.40459" lon="3.2947">
        <ele>15.04</ele>
        <time>2017-08-04T18:06:29Z</time>
      </trkpt>
      <trkpt lat="50.40457" lon="3.29469">
        <ele>15.04</ele>
        <time>2017-08-04T18:06:30Z</time>
      </trkpt>
      <trkpt lat="50.40456" lon="3.29467">
        <ele>15.04</ele>
        <time>2017-08-04T18:06:31Z</time>
      </trkpt>
      <trkpt lat="50.40454" lon="3.29467">
        <ele>15.04</ele>
        <time>2017-08-04T18:06:32Z</time>
      </trkpt>
      <trkpt lat="50.40452" lon="3.29467">
        <ele>15.04</ele>
        <time>2017-08-04T18:06:33Z</time>
      </trkpt>
      <trkpt lat="50.4045" lon="3.29468">
        <ele>15.04</ele>
        <time>2017-08-04T18:06:34Z</time>
      </trkpt>
      <trkpt lat="50.40448" lon="3.29469">
        <ele>15.04</ele>
        <time>2017-08-04T18:06:35Z</time>
      </trkpt>
      <trkpt lat="50.40443" lon="3.29472">
        <ele>15.04</ele>
        <time>2017-08-04T18:06:37Z</time>
      </trkpt>
      <trkpt lat="50.40441" lon="3.29473">
        <ele>15.04</ele>
        <time>2017-08-04T18:06:38Z</time>
      </trkpt>
      <trkpt lat="50.40439" lon="3.29474">
        <ele>15.04</ele>
        <time>2017-08-04T18:06:39Z</time>
      </trkpt>
      <trkpt lat="50.40437" lon="3.29475">
        <ele>15.04</ele>
        <time>2017-08-04T18:06:40Z</time>
      </trkpt>
      <trkpt lat="50.40415" lon="3.29489">
        <ele>15.52</ele>
        <time>2017-08-04T18:06:49Z</time>
      </trkpt>
      <trkpt lat="50.40372" lon="3.2951">
        <ele>15.52</ele>
        <time>2017-08-04T18:07:01Z</time>
      </trkpt>
      <trkpt lat="50.40316" lon="3.29529">
        <ele>16</ele>
        <time>2017-08-04T18:07:16Z</time>
      </trkpt>
      <trkpt lat="50.40284" lon="3.29532">
        <ele>16</ele>
        <time>2017-08-04T18:07:24Z</time>
      </trkpt>
      <trkpt lat="50.40279" lon="3.29532">
        <ele>16</ele>
        <time>2017-08-04T18:07:25Z</time>
      </trkpt>
      <trkpt lat="50.40217" lon="3.29534">
        <ele>16.96</ele>
        <time>2017-08-04T18:07:41Z</time>
      </trkpt>
      <trkpt lat="50.40208" lon="3.29533">
        <ele>17.44</ele>
        <time>2017-08-04T18:07:43Z</time>
      </trkpt>
      <trkpt lat="50.40204" lon="3.29533">
        <ele>17.44</ele>
        <time>2017-08-04T18:07:44Z</time>
      </trkpt>
      <trkpt lat="50.40153" lon="3.29531">
        <ele>17.44</ele>
        <time>2017-08-04T18:07:58Z</time>
      </trkpt>
      <trkpt lat="50.40143" lon="3.29539">
        <ele>17.44</ele>
        <time>2017-08-04T18:08:03Z</time>
      </trkpt>
      <trkpt lat="50.40143" lon="3.29542">
        <ele>17.44</ele>
        <time>2017-08-04T18:08:04Z</time>
      </trkpt>
      <trkpt lat="50.40143" lon="3.29546">
        <ele>15.52</ele>
        <time>2017-08-04T18:08:05Z</time>
      </trkpt>
      <trkpt lat="50.40144" lon="3.29551">
        <ele>14.08</ele>
        <time>2017-08-04T18:08:06Z</time>
      </trkpt>
      <trkpt lat="50.40145" lon="3.29559">
        <ele>13.12</ele>
        <time>2017-08-04T18:08:07Z</time>
      </trkpt>
      <trkpt lat="50.40145" lon="3.29566">
        <ele>13.12</ele>
        <time>2017-08-04T18:08:08Z</time>
      </trkpt>
      <trkpt lat="50.40145" lon="3.29574">
        <ele>13.12</ele>
        <time>2017-08-04T18:08:09Z</time>
      </trkpt>
      <trkpt lat="50.40144" lon="3.29581">
        <ele>13.12</ele>
        <time>2017-08-04T18:08:10Z</time>
      </trkpt>
      <trkpt lat="50.40143" lon="3.29588">
        <ele>13.12</ele>
        <time>2017-08-04T18:08:11Z</time>
      </trkpt>
      <trkpt lat="50.40143" lon="3.29595">
        <ele>13.12</ele>
        <time>2017-08-04T18:08:12Z</time>
      </trkpt>
      <trkpt lat="50.40143" lon="3.29602">
        <ele>13.12</ele>
        <time>2017-08-04T18:08:13Z</time>
      </trkpt>
      <trkpt lat="50.40146" lon="3.29719">
        <ele>13.12</ele>
        <time>2017-08-04T18:08:30Z</time>
      </trkpt>
      <trkpt lat="50.40156" lon="3.29818">
        <ele>13.12</ele>
        <time>2017-08-04T18:08:44Z</time>
      </trkpt>
      <trkpt lat="50.40177" lon="3.29898">
        <ele>13.12</ele>
        <time>2017-08-04T18:08:56Z</time>
      </trkpt>
      <trkpt lat="50.40178" lon="3.29905">
        <ele>13.12</ele>
        <time>2017-08-04T18:08:57Z</time>
      </trkpt>
      <trkpt lat="50.40188" lon="3.29937">
        <ele>13.12</ele>
        <time>2017-08-04T18:09:02Z</time>
      </trkpt>
      <trkpt lat="50.40194" lon="3.29962">
        <ele>13.12</ele>
        <time>2017-08-04T18:09:06Z</time>
      </trkpt>
      <trkpt lat="50.402" lon="3.2998">
        <ele>13.12</ele>
        <time>2017-08-04T18:09:09Z</time>
      </trkpt>
      <trkpt lat="50.40208" lon="3.30004">
        <ele>13.12</ele>
        <time>2017-08-04T18:09:13Z</time>
      </trkpt>
      <trkpt lat="50.40237" lon="3.30115">
        <ele>13.12</ele>
        <time>2017-08-04T18:09:29Z</time>
      </trkpt>
      <trkpt lat="50.40244" lon="3.30169">
        <ele>13.12</ele>
        <time>2017-08-04T18:09:38Z</time>
      </trkpt>
      <trkpt lat="50.40242" lon="3.30175">
        <ele>13.12</ele>
        <time>2017-08-04T18:09:40Z</time>
      </trkpt>
      <trkpt lat="50.40243" lon="3.30179">
        <ele>13.12</ele>
        <time>2017-08-04T18:09:41Z</time>
      </trkpt>
      <trkpt lat="50.40244" lon="3.30183">
        <ele>13.12</ele>
        <time>2017-08-04T18:09:42Z</time>
      </trkpt>
      <trkpt lat="50.4025" lon="3.30227">
        <ele>13.12</ele>
        <time>2017-08-04T18:09:50Z</time>
      </trkpt>
      <trkpt lat="50.40254" lon="3.30292">
        <ele>13.12</ele>
        <time>2017-08-04T18:10:01Z</time>
      </trkpt>
      <trkpt lat="50.40253" lon="3.30302">
        <ele>13.12</ele>
        <time>2017-08-04T18:10:04Z</time>
      </trkpt>
      <trkpt lat="50.40255" lon="3.30306">
        <ele>13.12</ele>
        <time>2017-08-04T18:10:06Z</time>
      </trkpt>
      <trkpt lat="50.40256" lon="3.3031">
        <ele>13.12</ele>
        <time>2017-08-04T18:10:07Z</time>
      </trkpt>
      <trkpt lat="50.40256" lon="3.30315">
        <ele>13.12</ele>
        <time>2017-08-04T18:10:08Z</time>
      </trkpt>
      <trkpt lat="50.40261" lon="3.30404">
        <ele>13.12</ele>
        <time>2017-08-04T18:10:22Z</time>
      </trkpt>
      <trkpt lat="50.40269" lon="3.30525">
        <ele>13.12</ele>
        <time>2017-08-04T18:10:38Z</time>
      </trkpt>
      <trkpt lat="50.40279" lon="3.30673">
        <ele>13.12</ele>
        <time>2017-08-04T18:10:56Z</time>
      </trkpt>
      <trkpt lat="50.40287" lon="3.30782">
        <ele>13.12</ele>
        <time>2017-08-04T18:11:11Z</time>
      </trkpt>
      <trkpt lat="50.40286" lon="3.30784">
        <ele>13.12</ele>
        <time>2017-08-04T18:11:12Z</time>
      </trkpt>
      <trkpt lat="50.40284" lon="3.30787">
        <ele>13.12</ele>
        <time>2017-08-04T18:11:13Z</time>
      </trkpt>
      <trkpt lat="50.40284" lon="3.3079">
        <ele>13.12</ele>
        <time>2017-08-04T18:11:14Z</time>
      </trkpt>
      <trkpt lat="50.40284" lon="3.30794">
        <ele>13.12</ele>
        <time>2017-08-04T18:11:15Z</time>
      </trkpt>
      <trkpt lat="50.40285" lon="3.30798">
        <ele>13.12</ele>
        <time>2017-08-04T18:11:16Z</time>
      </trkpt>
      <trkpt lat="50.40287" lon="3.30802">
        <ele>13.12</ele>
        <time>2017-08-04T18:11:17Z</time>
      </trkpt>
      <trkpt lat="50.40288" lon="3.30806">
        <ele>13.12</ele>
        <time>2017-08-04T18:11:18Z</time>
      </trkpt>
      <trkpt lat="50.40289" lon="3.30811">
        <ele>13.12</ele>
        <time>2017-08-04T18:11:19Z</time>
      </trkpt>
      <trkpt lat="50.4029" lon="3.30815">
        <ele>13.6</ele>
        <time>2017-08-04T18:11:20Z</time>
      </trkpt>
      <trkpt lat="50.40296" lon="3.30851">
        <ele>13.12</ele>
        <time>2017-08-04T18:11:26Z</time>
      </trkpt>
      <trkpt lat="50.403" lon="3.30885">
        <ele>13.12</ele>
        <time>2017-08-04T18:11:31Z</time>
      </trkpt>
      <trkpt lat="50.40303" lon="3.30906">
        <ele>13.6</ele>
        <time>2017-08-04T18:11:34Z</time>
      </trkpt>
      <trkpt lat="50.40318" lon="3.31014">
        <ele>13.6</ele>
        <time>2017-08-04T18:11:48Z</time>
      </trkpt>
      <trkpt lat="50.4034" lon="3.31167">
        <ele>13.6</ele>
        <time>2017-08-04T18:12:07Z</time>
      </trkpt>
      <trkpt lat="50.40359" lon="3.31291">
        <ele>13.6</ele>
        <time>2017-08-04T18:12:22Z</time>
      </trkpt>
      <trkpt lat="50.40362" lon="3.31307">
        <ele>13.6</ele>
        <time>2017-08-04T18:12:24Z</time>
      </trkpt>
      <trkpt lat="50.40363" lon="3.31315">
        <ele>13.6</ele>
        <time>2017-08-04T18:12:25Z</time>
      </trkpt>
      <trkpt lat="50.40364" lon="3.31324">
        <ele>13.6</ele>
        <time>2017-08-04T18:12:26Z</time>
      </trkpt>
      <trkpt lat="50.4037" lon="3.31373">
        <ele>13.6</ele>
        <time>2017-08-04T18:12:32Z</time>
      </trkpt>
      <trkpt lat="50.40371" lon="3.31381">
        <ele>13.6</ele>
        <time>2017-08-04T18:12:33Z</time>
      </trkpt>
      <trkpt lat="50.40389" lon="3.31502">
        <ele>13.6</ele>
        <time>2017-08-04T18:12:48Z</time>
      </trkpt>
      <trkpt lat="50.40393" lon="3.31528">
        <ele>13.6</ele>
        <time>2017-08-04T18:12:51Z</time>
      </trkpt>
      <trkpt lat="50.40409" lon="3.3164">
        <ele>13.6</ele>
        <time>2017-08-04T18:13:04Z</time>
      </trkpt>
      <trkpt lat="50.40423" lon="3.31742">
        <ele>13.6</ele>
        <time>2017-08-04T18:13:17Z</time>
      </trkpt>
      <trkpt lat="50.40427" lon="3.31762">
        <ele>13.6</ele>
        <time>2017-08-04T18:13:20Z</time>
      </trkpt>
      <trkpt lat="50.40442" lon="3.31882">
        <ele>13.6</ele>
        <time>2017-08-04T18:13:38Z</time>
      </trkpt>
      <trkpt lat="50.40464" lon="3.32027">
        <ele>13.6</ele>
        <time>2017-08-04T18:13:59Z</time>
      </trkpt>
      <trkpt lat="50.40474" lon="3.3209">
        <ele>13.6</ele>
        <time>2017-08-04T18:14:08Z</time>
      </trkpt>
      <trkpt lat="50.40476" lon="3.32096">
        <ele>13.6</ele>
        <time>2017-08-04T18:14:09Z</time>
      </trkpt>
      <trkpt lat="50.40483" lon="3.32115">
        <ele>13.6</ele>
        <time>2017-08-04T18:14:12Z</time>
      </trkpt>
      <trkpt lat="50.40521" lon="3.32178">
        <ele>14.56</ele>
        <time>2017-08-04T18:14:26Z</time>
      </trkpt>
      <trkpt lat="50.40524" lon="3.32182">
        <ele>14.56</ele>
        <time>2017-08-04T18:14:27Z</time>
      </trkpt>
      <trkpt lat="50.40527" lon="3.32187">
        <ele>14.56</ele>
        <time>2017-08-04T18:14:28Z</time>
      </trkpt>
      <trkpt lat="50.4053" lon="3.32192">
        <ele>14.56</ele>
        <time>2017-08-04T18:14:29Z</time>
      </trkpt>
      <trkpt lat="50.40533" lon="3.32197">
        <ele>14.56</ele>
        <time>2017-08-04T18:14:30Z</time>
      </trkpt>
      <trkpt lat="50.40596" lon="3.32295">
        <ele>14.56</ele>
        <time>2017-08-04T18:14:49Z</time>
      </trkpt>
      <trkpt lat="50.40661" lon="3.32408">
        <ele>14.56</ele>
        <time>2017-08-04T18:15:08Z</time>
      </trkpt>
      <trkpt lat="50.40685" lon="3.32538">
        <ele>14.56</ele>
        <time>2017-08-04T18:15:25Z</time>
      </trkpt>
      <trkpt lat="50.40696" lon="3.32622">
        <ele>14.56</ele>
        <time>2017-08-04T18:15:36Z</time>
      </trkpt>
      <trkpt lat="50.40699" lon="3.32637">
        <ele>14.56</ele>
        <time>2017-08-04T18:15:38Z</time>
      </trkpt>
      <trkpt lat="50.40713" lon="3.3274">
        <ele>14.56</ele>
        <time>2017-08-04T18:15:53Z</time>
      </trkpt>
      <trkpt lat="50.40714" lon="3.32754">
        <ele>14.56</ele>
        <time>2017-08-04T18:15:55Z</time>
      </trkpt>
      <trkpt lat="50.40733" lon="3.32881">
        <ele>14.56</ele>
        <time>2017-08-04T18:16:12Z</time>
      </trkpt>
      <trkpt lat="50.4075" lon="3.32995">
        <ele>13.6</ele>
        <time>2017-08-04T18:16:28Z</time>
      </trkpt>
      <trkpt lat="50.40756" lon="3.33044">
        <ele>13.6</ele>
        <time>2017-08-04T18:16:35Z</time>
      </trkpt>
      <trkpt lat="50.40757" lon="3.33051">
        <ele>13.6</ele>
        <time>2017-08-04T18:16:36Z</time>
      </trkpt>
      <trkpt lat="50.40767" lon="3.33139">
        <ele>13.6</ele>
        <time>2017-08-04T18:16:51Z</time>
      </trkpt>
      <trkpt lat="50.40766" lon="3.33143">
        <ele>13.6</ele>
        <time>2017-08-04T18:16:52Z</time>
      </trkpt>
      <trkpt lat="50.40767" lon="3.33146">
        <ele>13.6</ele>
        <time>2017-08-04T18:16:53Z</time>
      </trkpt>
      <trkpt lat="50.40769" lon="3.33149">
        <ele>13.6</ele>
        <time>2017-08-04T18:16:54Z</time>
      </trkpt>
      <trkpt lat="50.40771" lon="3.33152">
        <ele>13.6</ele>
        <time>2017-08-04T18:16:55Z</time>
      </trkpt>
      <trkpt lat="50.40772" lon="3.33156">
        <ele>13.6</ele>
        <time>2017-08-04T18:16:56Z</time>
      </trkpt>
      <trkpt lat="50.40773" lon="3.33161">
        <ele>13.6</ele>
        <time>2017-08-04T18:16:57Z</time>
      </trkpt>
      <trkpt lat="50.40773" lon="3.33166">
        <ele>13.6</ele>
        <time>2017-08-04T18:16:58Z</time>
      </trkpt>
      <trkpt lat="50.40774" lon="3.33172">
        <ele>13.6</ele>
        <time>2017-08-04T18:16:59Z</time>
      </trkpt>
      <trkpt lat="50.40776" lon="3.33227">
        <ele>13.6</ele>
        <time>2017-08-04T18:17:09Z</time>
      </trkpt>
      <trkpt lat="50.40773" lon="3.33231">
        <ele>13.6</ele>
        <time>2017-08-04T18:17:10Z</time>
      </trkpt>
      <trkpt lat="50.40763" lon="3.3324">
        <ele>13.6</ele>
        <time>2017-08-04T18:17:13Z</time>
      </trkpt>
      <trkpt lat="50.4076" lon="3.33243">
        <ele>13.6</ele>
        <time>2017-08-04T18:17:14Z</time>
      </trkpt>
      <trkpt lat="50.40757" lon="3.33248">
        <ele>13.6</ele>
        <time>2017-08-04T18:17:15Z</time>
      </trkpt>
      <trkpt lat="50.40754" lon="3.33254">
        <ele>13.6</ele>
        <time>2017-08-04T18:17:16Z</time>
      </trkpt>
      <trkpt lat="50.40752" lon="3.33261">
        <ele>13.6</ele>
        <time>2017-08-04T18:17:17Z</time>
      </trkpt>
      <trkpt lat="50.40751" lon="3.33268">
        <ele>13.6</ele>
        <time>2017-08-04T18:17:18Z</time>
      </trkpt>
      <trkpt lat="50.4075" lon="3.33276">
        <ele>13.6</ele>
        <time>2017-08-04T18:17:19Z</time>
      </trkpt>
      <trkpt lat="50.4075" lon="3.33284">
        <ele>13.6</ele>
        <time>2017-08-04T18:17:20Z</time>
      </trkpt>
      <trkpt lat="50.4075" lon="3.3329">
        <ele>13.6</ele>
        <time>2017-08-04T18:17:21Z</time>
      </trkpt>
      <trkpt lat="50.40763" lon="3.33396">
        <ele>13.12</ele>
        <time>2017-08-04T18:17:35Z</time>
      </trkpt>
      <trkpt lat="50.40765" lon="3.33403">
        <ele>13.12</ele>
        <time>2017-08-04T18:17:36Z</time>
      </trkpt>
      <trkpt lat="50.40778" lon="3.33504">
        <ele>13.12</ele>
        <time>2017-08-04T18:17:50Z</time>
      </trkpt>
      <trkpt lat="50.40778" lon="3.33511">
        <ele>13.12</ele>
        <time>2017-08-04T18:17:51Z</time>
      </trkpt>
      <trkpt lat="50.40777" lon="3.33519">
        <ele>13.12</ele>
        <time>2017-08-04T18:17:52Z</time>
      </trkpt>
      <trkpt lat="50.40775" lon="3.33527">
        <ele>13.12</ele>
        <time>2017-08-04T18:17:53Z</time>
      </trkpt>
      <trkpt lat="50.40773" lon="3.33534">
        <ele>13.12</ele>
        <time>2017-08-04T18:17:54Z</time>
      </trkpt>
      <trkpt lat="50.40731" lon="3.3368">
        <ele>13.12</ele>
        <time>2017-08-04T18:18:12Z</time>
      </trkpt>
      <trkpt lat="50.40685" lon="3.33846">
        <ele>13.12</ele>
        <time>2017-08-04T18:18:32Z</time>
      </trkpt>
      <trkpt lat="50.40638" lon="3.3398">
        <ele>12.63</ele>
        <time>2017-08-04T18:18:49Z</time>
      </trkpt>
      <trkpt lat="50.40598" lon="3.34086">
        <ele>12.15</ele>
        <time>2017-08-04T18:19:04Z</time>
      </trkpt>
      <trkpt lat="50.40558" lon="3.34192">
        <ele>12.15</ele>
        <time>2017-08-04T18:19:21Z</time>
      </trkpt>
      <trkpt lat="50.40503" lon="3.34336">
        <ele>12.15</ele>
        <time>2017-08-04T18:19:43Z</time>
      </trkpt>
      <trkpt lat="50.40475" lon="3.34411">
        <ele>12.15</ele>
        <time>2017-08-04T18:19:55Z</time>
      </trkpt>
      <trkpt lat="50.40474" lon="3.34418">
        <ele>12.15</ele>
        <time>2017-08-04T18:19:56Z</time>
      </trkpt>
      <trkpt lat="50.40474" lon="3.34425">
        <ele>12.15</ele>
        <time>2017-08-04T18:19:57Z</time>
      </trkpt>
      <trkpt lat="50.40476" lon="3.34432">
        <ele>12.15</ele>
        <time>2017-08-04T18:19:58Z</time>
      </trkpt>
      <trkpt lat="50.40478" lon="3.34437">
        <ele>12.15</ele>
        <time>2017-08-04T18:19:59Z</time>
      </trkpt>
      <trkpt lat="50.40481" lon="3.34442">
        <ele>12.15</ele>
        <time>2017-08-04T18:20:00Z</time>
      </trkpt>
      <trkpt lat="50.40484" lon="3.34448">
        <ele>12.15</ele>
        <time>2017-08-04T18:20:01Z</time>
      </trkpt>
      <trkpt lat="50.40487" lon="3.34455">
        <ele>12.15</ele>
        <time>2017-08-04T18:20:02Z</time>
      </trkpt>
      <trkpt lat="50.4055" lon="3.3459">
        <ele>12.15</ele>
        <time>2017-08-04T18:20:23Z</time>
      </trkpt>
      <trkpt lat="50.40569" lon="3.34628">
        <ele>12.15</ele>
        <time>2017-08-04T18:20:29Z</time>
      </trkpt>
      <trkpt lat="50.40571" lon="3.34635">
        <ele>12.15</ele>
        <time>2017-08-04T18:20:30Z</time>
      </trkpt>
      <trkpt lat="50.40573" lon="3.34641">
        <ele>12.15</ele>
        <time>2017-08-04T18:20:31Z</time>
      </trkpt>
      <trkpt lat="50.40578" lon="3.34662">
        <ele>12.15</ele>
        <time>2017-08-04T18:20:34Z</time>
      </trkpt>
      <trkpt lat="50.40578" lon="3.34669">
        <ele>12.15</ele>
        <time>2017-08-04T18:20:35Z</time>
      </trkpt>
      <trkpt lat="50.40578" lon="3.34676">
        <ele>13.6</ele>
        <time>2017-08-04T18:20:36Z</time>
      </trkpt>
      <trkpt lat="50.40578" lon="3.34683">
        <ele>13.6</ele>
        <time>2017-08-04T18:20:37Z</time>
      </trkpt>
      <trkpt lat="50.40582" lon="3.34814">
        <ele>13.6</ele>
        <time>2017-08-04T18:20:55Z</time>
      </trkpt>
      <trkpt lat="50.40577" lon="3.34901">
        <ele>14.08</ele>
        <time>2017-08-04T18:21:09Z</time>
      </trkpt>
      <trkpt lat="50.40548" lon="3.34975">
        <ele>14.08</ele>
        <time>2017-08-04T18:21:22Z</time>
      </trkpt>
      <trkpt lat="50.40485" lon="3.35072">
        <ele>14.08</ele>
        <time>2017-08-04T18:21:40Z</time>
      </trkpt>
      <trkpt lat="50.40425" lon="3.35203">
        <ele>14.56</ele>
        <time>2017-08-04T18:22:02Z</time>
      </trkpt>
      <trkpt lat="50.40395" lon="3.35272">
        <ele>14.56</ele>
        <time>2017-08-04T18:22:15Z</time>
      </trkpt>
      <trkpt lat="50.40365" lon="3.3535">
        <ele>14.56</ele>
        <time>2017-08-04T18:22:27Z</time>
      </trkpt>
      <trkpt lat="50.40358" lon="3.35489">
        <ele>14.56</ele>
        <time>2017-08-04T18:22:45Z</time>
      </trkpt>
      <trkpt lat="50.40364" lon="3.35598">
        <ele>14.56</ele>
        <time>2017-08-04T18:22:59Z</time>
      </trkpt>
      <trkpt lat="50.40365" lon="3.35617">
        <ele>14.56</ele>
        <time>2017-08-04T18:23:02Z</time>
      </trkpt>
      <trkpt lat="50.40367" lon="3.35631">
        <ele>15.04</ele>
        <time>2017-08-04T18:23:04Z</time>
      </trkpt>
      <trkpt lat="50.40369" lon="3.35636">
        <ele>15.04</ele>
        <time>2017-08-04T18:23:05Z</time>
      </trkpt>
      <trkpt lat="50.40373" lon="3.35643">
        <ele>15.04</ele>
        <time>2017-08-04T18:23:06Z</time>
      </trkpt>
      <trkpt lat="50.40375" lon="3.35647">
        <ele>15.04</ele>
        <time>2017-08-04T18:23:07Z</time>
      </trkpt>
      <trkpt lat="50.4038" lon="3.35651">
        <ele>15.04</ele>
        <time>2017-08-04T18:23:08Z</time>
      </trkpt>
      <trkpt lat="50.40384" lon="3.35653">
        <ele>15.04</ele>
        <time>2017-08-04T18:23:09Z</time>
      </trkpt>
      <trkpt lat="50.40389" lon="3.35655">
        <ele>15.04</ele>
        <time>2017-08-04T18:23:10Z</time>
      </trkpt>
      <trkpt lat="50.4048" lon="3.35691">
        <ele>13.6</ele>
        <time>2017-08-04T18:23:29Z</time>
      </trkpt>
      <trkpt lat="50.40489" lon="3.35695">
        <ele>13.6</ele>
        <time>2017-08-04T18:23:31Z</time>
      </trkpt>
      <trkpt lat="50.40493" lon="3.35699">
        <ele>13.6</ele>
        <time>2017-08-04T18:23:32Z</time>
      </trkpt>
      <trkpt lat="50.40495" lon="3.35704">
        <ele>13.6</ele>
        <time>2017-08-04T18:23:33Z</time>
      </trkpt>
      <trkpt lat="50.40496" lon="3.35707">
        <ele>13.6</ele>
        <time>2017-08-04T18:23:34Z</time>
      </trkpt>
      <trkpt lat="50.40495" lon="3.35711">
        <ele>13.6</ele>
        <time>2017-08-04T18:23:35Z</time>
      </trkpt>
      <trkpt lat="50.40495" lon="3.35713">
        <ele>13.6</ele>
        <time>2017-08-04T18:23:36Z</time>
      </trkpt>
      <trkpt lat="50.40494" lon="3.35715">
        <ele>13.6</ele>
        <time>2017-08-04T18:23:37Z</time>
      </trkpt>
      <trkpt lat="50.40492" lon="3.35722">
        <ele>13.6</ele>
        <time>2017-08-04T18:23:45Z</time>
      </trkpt>
      <trkpt lat="50.40492" lon="3.35723">
        <ele>13.6</ele>
        <time>2017-08-04T18:23:46Z</time>
      </trkpt>
      <trkpt lat="50.40492" lon="3.35725">
        <ele>13.6</ele>
        <time>2017-08-04T18:23:47Z</time>
      </trkpt>
      <trkpt lat="50.40489" lon="3.35744">
        <ele>13.6</ele>
        <time>2017-08-04T18:23:57Z</time>
      </trkpt>
      <trkpt lat="50.40478" lon="3.35808">
        <ele>14.08</ele>
        <time>2017-08-04T18:24:10Z</time>
      </trkpt>
      <trkpt lat="50.40462" lon="3.3591">
        <ele>14.08</ele>
        <time>2017-08-04T18:24:28Z</time>
      </trkpt>
      <trkpt lat="50.40447" lon="3.36">
        <ele>14.08</ele>
        <time>2017-08-04T18:24:44Z</time>
      </trkpt>
      <trkpt lat="50.40429" lon="3.36112">
        <ele>14.08</ele>
        <time>2017-08-04T18:25:01Z</time>
      </trkpt>
      <trkpt lat="50.40411" lon="3.36226">
        <ele>14.08</ele>
        <time>2017-08-04T18:25:18Z</time>
      </trkpt>
      <trkpt lat="50.40393" lon="3.36335">
        <ele>13.6</ele>
        <time>2017-08-04T18:25:33Z</time>
      </trkpt>
      <trkpt lat="50.40382" lon="3.3641">
        <ele>13.6</ele>
        <time>2017-08-04T18:25:43Z</time>
      </trkpt>
      <trkpt lat="50.40381" lon="3.36417">
        <ele>13.6</ele>
        <time>2017-08-04T18:25:44Z</time>
      </trkpt>
      <trkpt lat="50.40364" lon="3.36518">
        <ele>13.6</ele>
        <time>2017-08-04T18:25:58Z</time>
      </trkpt>
      <trkpt lat="50.40361" lon="3.36538">
        <ele>13.6</ele>
        <time>2017-08-04T18:26:01Z</time>
      </trkpt>
      <trkpt lat="50.40361" lon="3.36545">
        <ele>13.6</ele>
        <time>2017-08-04T18:26:02Z</time>
      </trkpt>
      <trkpt lat="50.40348" lon="3.36625">
        <ele>15.04</ele>
        <time>2017-08-04T18:26:15Z</time>
      </trkpt>
      <trkpt lat="50.40334" lon="3.36718">
        <ele>15.04</ele>
        <time>2017-08-04T18:26:31Z</time>
      </trkpt>
      <trkpt lat="50.40318" lon="3.36821">
        <ele>15.04</ele>
        <time>2017-08-04T18:26:48Z</time>
      </trkpt>
      <trkpt lat="50.40306" lon="3.36897">
        <ele>15.04</ele>
        <time>2017-08-04T18:27:01Z</time>
      </trkpt>
      <trkpt lat="50.40292" lon="3.36977">
        <ele>15.52</ele>
        <time>2017-08-04T18:27:15Z</time>
      </trkpt>
      <trkpt lat="50.4028" lon="3.3706">
        <ele>15.52</ele>
        <time>2017-08-04T18:27:30Z</time>
      </trkpt>
      <trkpt lat="50.40267" lon="3.37158">
        <ele>15.52</ele>
        <time>2017-08-04T18:27:47Z</time>
      </trkpt>
      <trkpt lat="50.40251" lon="3.3726">
        <ele>15.52</ele>
        <time>2017-08-04T18:28:04Z</time>
      </trkpt>
      <trkpt lat="50.40239" lon="3.37341">
        <ele>15.52</ele>
        <time>2017-08-04T18:28:18Z</time>
      </trkpt>
      <trkpt lat="50.40228" lon="3.3741">
        <ele>16</ele>
        <time>2017-08-04T18:28:30Z</time>
      </trkpt>
      <trkpt lat="50.40227" lon="3.37416">
        <ele>16</ele>
        <time>2017-08-04T18:28:31Z</time>
      </trkpt>
      <trkpt lat="50.40227" lon="3.37423">
        <ele>16</ele>
        <time>2017-08-04T18:28:32Z</time>
      </trkpt>
      <trkpt lat="50.40226" lon="3.37429">
        <ele>16</ele>
        <time>2017-08-04T18:28:33Z</time>
      </trkpt>
      <trkpt lat="50.40225" lon="3.37435">
        <ele>16</ele>
        <time>2017-08-04T18:28:34Z</time>
      </trkpt>
      <trkpt lat="50.40211" lon="3.37525">
        <ele>16</ele>
        <time>2017-08-04T18:28:49Z</time>
      </trkpt>
      <trkpt lat="50.40191" lon="3.37638">
        <ele>16</ele>
        <time>2017-08-04T18:29:06Z</time>
      </trkpt>
      <trkpt lat="50.40181" lon="3.37711">
        <ele>16</ele>
        <time>2017-08-04T18:29:19Z</time>
      </trkpt>
      <trkpt lat="50.40178" lon="3.37738">
        <ele>16.48</ele>
        <time>2017-08-04T18:29:30Z</time>
      </trkpt>
      <trkpt lat="50.40177" lon="3.37742">
        <ele>16.48</ele>
        <time>2017-08-04T18:29:33Z</time>
      </trkpt>
      <trkpt lat="50.40177" lon="3.37746">
        <ele>16.48</ele>
        <time>2017-08-04T18:29:35Z</time>
      </trkpt>
      <trkpt lat="50.40174" lon="3.3776">
        <ele>16.48</ele>
        <time>2017-08-04T18:29:43Z</time>
      </trkpt>
      <trkpt lat="50.40198" lon="3.3779">
        <ele>16.48</ele>
        <time>2017-08-04T18:29:54Z</time>
      </trkpt>
      <trkpt lat="50.40247" lon="3.37833">
        <ele>16.48</ele>
        <time>2017-08-04T18:30:08Z</time>
      </trkpt>
      <trkpt lat="50.40254" lon="3.3784">
        <ele>16.48</ele>
        <time>2017-08-04T18:30:10Z</time>
      </trkpt>
      <trkpt lat="50.40258" lon="3.37843">
        <ele>16.48</ele>
        <time>2017-08-04T18:30:11Z</time>
      </trkpt>
      <trkpt lat="50.40342" lon="3.37919">
        <ele>16.48</ele>
        <time>2017-08-04T18:30:33Z</time>
      </trkpt>
      <trkpt lat="50.40416" lon="3.37984">
        <ele>16.48</ele>
        <time>2017-08-04T18:30:52Z</time>
      </trkpt>
      <trkpt lat="50.40492" lon="3.38052">
        <ele>16.48</ele>
        <time>2017-08-04T18:31:11Z</time>
      </trkpt>
      <trkpt lat="50.40556" lon="3.3811">
        <ele>16.96</ele>
        <time>2017-08-04T18:31:27Z</time>
      </trkpt>
      <trkpt lat="50.40637" lon="3.38183">
        <ele>16.96</ele>
        <time>2017-08-04T18:31:45Z</time>
      </trkpt>
      <trkpt lat="50.40724" lon="3.38262">
        <ele>16.96</ele>
        <time>2017-08-04T18:32:05Z</time>
      </trkpt>
      <trkpt lat="50.40817" lon="3.38345">
        <ele>16.96</ele>
        <time>2017-08-04T18:32:27Z</time>
      </trkpt>
      <trkpt lat="50.40864" lon="3.38387">
        <ele>16.96</ele>
        <time>2017-08-04T18:32:38Z</time>
      </trkpt>
      <trkpt lat="50.40869" lon="3.3839">
        <ele>16.96</ele>
        <time>2017-08-04T18:32:39Z</time>
      </trkpt>
      <trkpt lat="50.40873" lon="3.38392">
        <ele>16.96</ele>
        <time>2017-08-04T18:32:40Z</time>
      </trkpt>
      <trkpt lat="50.40877" lon="3.38395">
        <ele>16.96</ele>
        <time>2017-08-04T18:32:41Z</time>
      </trkpt>
      <trkpt lat="50.4088" lon="3.38399">
        <ele>16.96</ele>
        <time>2017-08-04T18:32:42Z</time>
      </trkpt>
      <trkpt lat="50.40881" lon="3.38405">
        <ele>16.96</ele>
        <time>2017-08-04T18:32:43Z</time>
      </trkpt>
      <trkpt lat="50.4088" lon="3.38411">
        <ele>16.96</ele>
        <time>2017-08-04T18:32:44Z</time>
      </trkpt>
      <trkpt lat="50.40878" lon="3.38416">
        <ele>16.96</ele>
        <time>2017-08-04T18:32:45Z</time>
      </trkpt>
      <trkpt lat="50.40875" lon="3.38421">
        <ele>16.96</ele>
        <time>2017-08-04T18:32:46Z</time>
      </trkpt>
      <trkpt lat="50.40872" lon="3.38426">
        <ele>16.96</ele>
        <time>2017-08-04T18:32:47Z</time>
      </trkpt>
      <trkpt lat="50.40832" lon="3.38487">
        <ele>15.52</ele>
        <time>2017-08-04T18:33:02Z</time>
      </trkpt>
      <trkpt lat="50.4083" lon="3.38492">
        <ele>15.52</ele>
        <time>2017-08-04T18:33:03Z</time>
      </trkpt>
      <trkpt lat="50.40828" lon="3.38499">
        <ele>15.52</ele>
        <time>2017-08-04T18:33:04Z</time>
      </trkpt>
      <trkpt lat="50.40828" lon="3.38505">
        <ele>15.52</ele>
        <time>2017-08-04T18:33:05Z</time>
      </trkpt>
      <trkpt lat="50.40827" lon="3.38512">
        <ele>15.52</ele>
        <time>2017-08-04T18:33:06Z</time>
      </trkpt>
      <trkpt lat="50.40827" lon="3.38518">
        <ele>15.52</ele>
        <time>2017-08-04T18:33:07Z</time>
      </trkpt>
      <trkpt lat="50.40828" lon="3.38525">
        <ele>15.52</ele>
        <time>2017-08-04T18:33:08Z</time>
      </trkpt>
      <trkpt lat="50.4083" lon="3.38531">
        <ele>15.52</ele>
        <time>2017-08-04T18:33:09Z</time>
      </trkpt>
      <trkpt lat="50.40831" lon="3.38538">
        <ele>15.52</ele>
        <time>2017-08-04T18:33:10Z</time>
      </trkpt>
      <trkpt lat="50.40832" lon="3.38545">
        <ele>15.04</ele>
        <time>2017-08-04T18:33:11Z</time>
      </trkpt>
      <trkpt lat="50.40849" lon="3.38679">
        <ele>15.04</ele>
        <time>2017-08-04T18:33:30Z</time>
      </trkpt>
      <trkpt lat="50.40851" lon="3.387">
        <ele>15.04</ele>
        <time>2017-08-04T18:33:33Z</time>
      </trkpt>
      <trkpt lat="50.40856" lon="3.3875">
        <ele>15.04</ele>
        <time>2017-08-04T18:33:40Z</time>
      </trkpt>
      <trkpt lat="50.40861" lon="3.38778">
        <ele>14.56</ele>
        <time>2017-08-04T18:33:44Z</time>
      </trkpt>
      <trkpt lat="50.40873" lon="3.38881">
        <ele>15.04</ele>
        <time>2017-08-04T18:33:59Z</time>
      </trkpt>
      <trkpt lat="50.40882" lon="3.38955">
        <ele>16</ele>
        <time>2017-08-04T18:34:13Z</time>
      </trkpt>
      <trkpt lat="50.40891" lon="3.39046">
        <ele>16</ele>
        <time>2017-08-04T18:34:27Z</time>
      </trkpt>
      <trkpt lat="50.40891" lon="3.39053">
        <ele>16</ele>
        <time>2017-08-04T18:34:28Z</time>
      </trkpt>
      <trkpt lat="50.40892" lon="3.3906">
        <ele>16</ele>
        <time>2017-08-04T18:34:29Z</time>
      </trkpt>
      <trkpt lat="50.40893" lon="3.39072">
        <ele>14.56</ele>
        <time>2017-08-04T18:34:31Z</time>
      </trkpt>
      <trkpt lat="50.40904" lon="3.39166">
        <ele>14.56</ele>
        <time>2017-08-04T18:34:45Z</time>
      </trkpt>
      <trkpt lat="50.40912" lon="3.39228">
        <ele>14.56</ele>
        <time>2017-08-04T18:34:55Z</time>
      </trkpt>
      <trkpt lat="50.40922" lon="3.3934">
        <ele>14.56</ele>
        <time>2017-08-04T18:35:11Z</time>
      </trkpt>
      <trkpt lat="50.40931" lon="3.39445">
        <ele>14.56</ele>
        <time>2017-08-04T18:35:28Z</time>
      </trkpt>
      <trkpt lat="50.40941" lon="3.39534">
        <ele>14.56</ele>
        <time>2017-08-04T18:35:43Z</time>
      </trkpt>
      <trkpt lat="50.40946" lon="3.3958">
        <ele>14.56</ele>
        <time>2017-08-04T18:35:50Z</time>
      </trkpt>
      <trkpt lat="50.40953" lon="3.39661">
        <ele>14.08</ele>
        <time>2017-08-04T18:36:04Z</time>
      </trkpt>
      <trkpt lat="50.40964" lon="3.39779">
        <ele>14.08</ele>
        <time>2017-08-04T18:36:23Z</time>
      </trkpt>
      <trkpt lat="50.40953" lon="3.39849">
        <ele>14.08</ele>
        <time>2017-08-04T18:36:36Z</time>
      </trkpt>
      <trkpt lat="50.40924" lon="3.3992">
        <ele>14.08</ele>
        <time>2017-08-04T18:36:50Z</time>
      </trkpt>
      <trkpt lat="50.40904" lon="3.40002">
        <ele>14.08</ele>
        <time>2017-08-04T18:37:05Z</time>
      </trkpt>
      <trkpt lat="50.4091" lon="3.40095">
        <ele>14.08</ele>
        <time>2017-08-04T18:37:20Z</time>
      </trkpt>
      <trkpt lat="50.40915" lon="3.40194">
        <ele>14.08</ele>
        <time>2017-08-04T18:37:37Z</time>
      </trkpt>
      <trkpt lat="50.40932" lon="3.40234">
        <ele>15.52</ele>
        <time>2017-08-04T18:37:47Z</time>
      </trkpt>
      <trkpt lat="50.40938" lon="3.40257">
        <ele>15.52</ele>
        <time>2017-08-04T18:37:54Z</time>
      </trkpt>
      <trkpt lat="50.40936" lon="3.40259">
        <ele>15.52</ele>
        <time>2017-08-04T18:37:55Z</time>
      </trkpt>
      <trkpt lat="50.409" lon="3.40306">
        <ele>15.52</ele>
        <time>2017-08-04T18:38:08Z</time>
      </trkpt>
      <trkpt lat="50.40842" lon="3.4038">
        <ele>15.04</ele>
        <time>2017-08-04T18:38:26Z</time>
      </trkpt>
      <trkpt lat="50.4079" lon="3.40439">
        <ele>15.52</ele>
        <time>2017-08-04T18:38:42Z</time>
      </trkpt>
      <trkpt lat="50.40762" lon="3.4047">
        <ele>15.52</ele>
        <time>2017-08-04T18:38:50Z</time>
      </trkpt>
      <trkpt lat="50.40735" lon="3.40492">
        <ele>15.52</ele>
        <time>2017-08-04T18:39:01Z</time>
      </trkpt>
      <trkpt lat="50.40739" lon="3.40488">
        <ele>15.52</ele>
        <time>2017-08-04T18:39:10Z</time>
      </trkpt>
      <trkpt lat="50.40747" lon="3.40481">
        <ele>15.52</ele>
        <time>2017-08-04T18:39:15Z</time>
      </trkpt>
      <trkpt lat="50.40749" lon="3.40482">
        <ele>15.52</ele>
        <time>2017-08-04T18:39:26Z</time>
      </trkpt>
      <trkpt lat="50.4075" lon="3.40484">
        <ele>15.52</ele>
        <time>2017-08-04T18:39:50Z</time>
      </trkpt>
      <trkpt lat="50.40742" lon="3.40488">
        <ele>15.52</ele>
        <time>2017-08-04T18:39:55Z</time>
      </trkpt>
      <trkpt lat="50.4074" lon="3.4049">
        <ele>15.52</ele>
        <time>2017-08-04T18:39:56Z</time>
      </trkpt>
      <trkpt lat="50.40738" lon="3.40492">
        <ele>15.52</ele>
        <time>2017-08-04T18:39:57Z</time>
      </trkpt>
      <trkpt lat="50.40685" lon="3.40519">
        <ele>15.52</ele>
        <time>2017-08-04T18:40:15Z</time>
      </trkpt>
      <trkpt lat="50.40615" lon="3.40554">
        <ele>16.48</ele>
        <time>2017-08-04T18:40:35Z</time>
      </trkpt>
      <trkpt lat="50.40591" lon="3.40562">
        <ele>16.48</ele>
        <time>2017-08-04T18:40:47Z</time>
      </trkpt>
      <trkpt lat="50.40562" lon="3.40602">
        <ele>16.48</ele>
        <time>2017-08-04T18:40:59Z</time>
      </trkpt>
      <trkpt lat="50.40539" lon="3.40627">
        <ele>16.48</ele>
        <time>2017-08-04T18:41:06Z</time>
      </trkpt>
      <trkpt lat="50.40471" lon="3.40699">
        <ele>15.52</ele>
        <time>2017-08-04T18:41:23Z</time>
      </trkpt>
      <trkpt lat="50.404" lon="3.40771">
        <ele>15.52</ele>
        <time>2017-08-04T18:41:41Z</time>
      </trkpt>
      <trkpt lat="50.40359" lon="3.40811">
        <ele>15.52</ele>
        <time>2017-08-04T18:41:52Z</time>
      </trkpt>
      <trkpt lat="50.40297" lon="3.40876">
        <ele>15.52</ele>
        <time>2017-08-04T18:42:10Z</time>
      </trkpt>
      <trkpt lat="50.40268" lon="3.40907">
        <ele>16.96</ele>
        <time>2017-08-04T18:42:19Z</time>
      </trkpt>
      <trkpt lat="50.40206" lon="3.40973">
        <ele>17.44</ele>
        <time>2017-08-04T18:42:38Z</time>
      </trkpt>
      <trkpt lat="50.4017" lon="3.4101">
        <ele>17.92</ele>
        <time>2017-08-04T18:42:49Z</time>
      </trkpt>
      <trkpt lat="50.40138" lon="3.41042">
        <ele>17.92</ele>
        <time>2017-08-04T18:42:58Z</time>
      </trkpt>
      <trkpt lat="50.40131" lon="3.4105">
        <ele>17.92</ele>
        <time>2017-08-04T18:43:00Z</time>
      </trkpt>
      <trkpt lat="50.40124" lon="3.41057">
        <ele>17.92</ele>
        <time>2017-08-04T18:43:02Z</time>
      </trkpt>
      <trkpt lat="50.40057" lon="3.41128">
        <ele>17.92</ele>
        <time>2017-08-04T18:43:22Z</time>
      </trkpt>
      <trkpt lat="50.40012" lon="3.41173">
        <ele>17.92</ele>
        <time>2017-08-04T18:43:36Z</time>
      </trkpt>
      <trkpt lat="50.39954" lon="3.41236">
        <ele>18.4</ele>
        <time>2017-08-04T18:43:54Z</time>
      </trkpt>
      <trkpt lat="50.39889" lon="3.41303">
        <ele>18.88</ele>
        <time>2017-08-04T18:44:13Z</time>
      </trkpt>
      <trkpt lat="50.39875" lon="3.41317">
        <ele>18.88</ele>
        <time>2017-08-04T18:44:17Z</time>
      </trkpt>
      <trkpt lat="50.39812" lon="3.41384">
        <ele>18.88</ele>
        <time>2017-08-04T18:44:34Z</time>
      </trkpt>
      <trkpt lat="50.39774" lon="3.41425">
        <ele>18.88</ele>
        <time>2017-08-04T18:44:44Z</time>
      </trkpt>
      <trkpt lat="50.39763" lon="3.41438">
        <ele>17.44</ele>
        <time>2017-08-04T18:44:47Z</time>
      </trkpt>
      <trkpt lat="50.39694" lon="3.41507">
        <ele>17.44</ele>
        <time>2017-08-04T18:45:06Z</time>
      </trkpt>
      <trkpt lat="50.39657" lon="3.41545">
        <ele>17.92</ele>
        <time>2017-08-04T18:45:18Z</time>
      </trkpt>
      <trkpt lat="50.39616" lon="3.41588">
        <ele>17.92</ele>
        <time>2017-08-04T18:45:32Z</time>
      </trkpt>
      <trkpt lat="50.39595" lon="3.4161">
        <ele>17.92</ele>
        <time>2017-08-04T18:45:39Z</time>
      </trkpt>
      <trkpt lat="50.39591" lon="3.41614">
        <ele>17.92</ele>
        <time>2017-08-04T18:45:40Z</time>
      </trkpt>
      <trkpt lat="50.39588" lon="3.41617">
        <ele>17.92</ele>
        <time>2017-08-04T18:45:41Z</time>
      </trkpt>
      <trkpt lat="50.39542" lon="3.41666">
        <ele>18.88</ele>
        <time>2017-08-04T18:45:55Z</time>
      </trkpt>
      <trkpt lat="50.39509" lon="3.41699">
        <ele>19.36</ele>
        <time>2017-08-04T18:46:09Z</time>
      </trkpt>
      <trkpt lat="50.39508" lon="3.41698">
        <ele>19.36</ele>
        <time>2017-08-04T18:46:10Z</time>
      </trkpt>
      <trkpt lat="50.39507" lon="3.41696">
        <ele>19.36</ele>
        <time>2017-08-04T18:46:11Z</time>
      </trkpt>
      <trkpt lat="50.39506" lon="3.41694">
        <ele>19.36</ele>
        <time>2017-08-04T18:46:12Z</time>
      </trkpt>
      <trkpt lat="50.39506" lon="3.41691">
        <ele>19.36</ele>
        <time>2017-08-04T18:46:13Z</time>
      </trkpt>
      <trkpt lat="50.39505" lon="3.41689">
        <ele>19.36</ele>
        <time>2017-08-04T18:46:14Z</time>
      </trkpt>
      <trkpt lat="50.39503" lon="3.41687">
        <ele>19.36</ele>
        <time>2017-08-04T18:46:15Z</time>
      </trkpt>
      <trkpt lat="50.3949" lon="3.41667">
        <ele>19.36</ele>
        <time>2017-08-04T18:46:27Z</time>
      </trkpt>
      <trkpt lat="50.39474" lon="3.41636">
        <ele>19.36</ele>
        <time>2017-08-04T18:46:42Z</time>
      </trkpt>
      <trkpt lat="50.39472" lon="3.41632">
        <ele>19.36</ele>
        <time>2017-08-04T18:46:44Z</time>
      </trkpt>
      <trkpt lat="50.39468" lon="3.41622">
        <ele>19.84</ele>
        <time>2017-08-04T18:46:56Z</time>
      </trkpt>
      <trkpt lat="50.39469" lon="3.41619">
        <ele>19.84</ele>
        <time>2017-08-04T18:47:38Z</time>
      </trkpt>
      <trkpt lat="50.39467" lon="3.41623">
        <ele>19.84</ele>
        <time>2017-08-04T18:47:54Z</time>
      </trkpt>
      <trkpt lat="50.3947" lon="3.41628">
        <ele>19.84</ele>
        <time>2017-08-04T18:47:57Z</time>
      </trkpt>
      <trkpt lat="50.39471" lon="3.4163">
        <ele>19.84</ele>
        <time>2017-08-04T18:47:58Z</time>
      </trkpt>
      <trkpt lat="50.39496" lon="3.41678">
        <ele>19.84</ele>
        <time>2017-08-04T18:48:12Z</time>
      </trkpt>
      <trkpt lat="50.39498" lon="3.41704">
        <ele>19.84</ele>
        <time>2017-08-04T18:48:17Z</time>
      </trkpt>
      <trkpt lat="50.39496" lon="3.41709">
        <ele>18.88</ele>
        <time>2017-08-04T18:48:18Z</time>
      </trkpt>
      <trkpt lat="50.3944" lon="3.41769">
        <ele>18.4</ele>
        <time>2017-08-04T18:48:34Z</time>
      </trkpt>
      <trkpt lat="50.39373" lon="3.41839">
        <ele>18.4</ele>
        <time>2017-08-04T18:48:52Z</time>
      </trkpt>
      <trkpt lat="50.39317" lon="3.41898">
        <ele>18.4</ele>
        <time>2017-08-04T18:49:09Z</time>
      </trkpt>
      <trkpt lat="50.39279" lon="3.41938">
        <ele>18.4</ele>
        <time>2017-08-04T18:49:23Z</time>
      </trkpt>
      <trkpt lat="50.39236" lon="3.41982">
        <ele>19.36</ele>
        <time>2017-08-04T18:49:39Z</time>
      </trkpt>
      <trkpt lat="50.3919" lon="3.42029">
        <ele>19.84</ele>
        <time>2017-08-04T18:49:56Z</time>
      </trkpt>
      <trkpt lat="50.39147" lon="3.42074">
        <ele>20.81</ele>
        <time>2017-08-04T18:50:14Z</time>
      </trkpt>
      <trkpt lat="50.39112" lon="3.4211">
        <ele>21.77</ele>
        <time>2017-08-04T18:50:29Z</time>
      </trkpt>
      <trkpt lat="50.39089" lon="3.42132">
        <ele>23.21</ele>
        <time>2017-08-04T18:50:39Z</time>
      </trkpt>
      <trkpt lat="50.39087" lon="3.42135">
        <ele>23.21</ele>
        <time>2017-08-04T18:50:40Z</time>
      </trkpt>
      <trkpt lat="50.39085" lon="3.42137">
        <ele>23.21</ele>
        <time>2017-08-04T18:50:41Z</time>
      </trkpt>
      <trkpt lat="50.39064" lon="3.42159">
        <ele>24.17</ele>
        <time>2017-08-04T18:50:56Z</time>
      </trkpt>
      <trkpt lat="50.39063" lon="3.42155">
        <ele>24.17</ele>
        <time>2017-08-04T18:51:23Z</time>
      </trkpt>
      <trkpt lat="50.39063" lon="3.42157">
        <ele>24.17</ele>
        <time>2017-08-04T18:52:02Z</time>
      </trkpt>
      <trkpt lat="50.39064" lon="3.4216">
        <ele>24.17</ele>
        <time>2017-08-04T18:52:20Z</time>
      </trkpt>
      <trkpt lat="50.39064" lon="3.42155">
        <ele>24.17</ele>
        <time>2017-08-04T18:52:45Z</time>
      </trkpt>
      <trkpt lat="50.39063" lon="3.42156">
        <ele>24.65</ele>
        <time>2017-08-04T18:53:26Z</time>
      </trkpt>
      <trkpt lat="50.3906" lon="3.42157">
        <ele>25.13</ele>
        <time>2017-08-04T18:53:51Z</time>
      </trkpt>
      <trkpt lat="50.39064" lon="3.42161">
        <ele>25.13</ele>
        <time>2017-08-04T18:54:11Z</time>
      </trkpt>
      <trkpt lat="50.39065" lon="3.42161">
        <ele>25.13</ele>
        <time>2017-08-04T18:54:37Z</time>
      </trkpt>
      <trkpt lat="50.39064" lon="3.42161">
        <ele>25.13</ele>
        <time>2017-08-04T18:54:58Z</time>
      </trkpt>
      <trkpt lat="50.39064" lon="3.42164">
        <ele>25.13</ele>
        <time>2017-08-04T18:55:19Z</time>
      </trkpt>
      <trkpt lat="50.39063" lon="3.42164">
        <ele>25.61</ele>
        <time>2017-08-04T18:55:44Z</time>
      </trkpt>
      <trkpt lat="50.39066" lon="3.42162">
        <ele>25.61</ele>
        <time>2017-08-04T18:56:07Z</time>
      </trkpt>
      <trkpt lat="50.39064" lon="3.42164">
        <ele>26.09</ele>
        <time>2017-08-04T18:56:43Z</time>
      </trkpt>
      <trkpt lat="50.39067" lon="3.42163">
        <ele>26.09</ele>
        <time>2017-08-04T18:57:13Z</time>
      </trkpt>
      <trkpt lat="50.39067" lon="3.42163">
        <ele>26.09</ele>
        <time>2017-08-04T18:57:35Z</time>
      </trkpt>
      <trkpt lat="50.39067" lon="3.42161">
        <ele>26.09</ele>
        <time>2017-08-04T18:58:02Z</time>
      </trkpt>
      <trkpt lat="50.39066" lon="3.42163">
        <ele>26.09</ele>
        <time>2017-08-04T18:58:31Z</time>
      </trkpt>
      <trkpt lat="50.39066" lon="3.42165">
        <ele>26.09</ele>
        <time>2017-08-04T18:58:42Z</time>
      </trkpt>
      <trkpt lat="50.39067" lon="3.42167">
        <ele>26.09</ele>
        <time>2017-08-04T18:58:54Z</time>
      </trkpt>
      <trkpt lat="50.39068" lon="3.4217">
        <ele>26.09</ele>
        <time>2017-08-04T18:58:56Z</time>
      </trkpt>
      <trkpt lat="50.39073" lon="3.4218">
        <ele>26.09</ele>
        <time>2017-08-04T18:59:04Z</time>
      </trkpt>
      <trkpt lat="50.39071" lon="3.42182">
        <ele>24.17</ele>
        <time>2017-08-04T18:59:17Z</time>
      </trkpt>
      <trkpt lat="50.39062" lon="3.42188">
        <ele>23.69</ele>
        <time>2017-08-04T18:59:59Z</time>
      </trkpt>
      <trkpt lat="50.39062" lon="3.42185">
        <ele>23.69</ele>
        <time>2017-08-04T19:00:35Z</time>
      </trkpt>
      <trkpt lat="50.39066" lon="3.42183">
        <ele>23.69</ele>
        <time>2017-08-04T19:00:42Z</time>
      </trkpt>
      <trkpt lat="50.39092" lon="3.42303">
        <ele>25.13</ele>
        <time>2017-08-05T04:24:45Z</time>
      </trkpt>
    </trkseg>
  </trk>
</gpx>